<?xml version="1.0" encoding="UTF-8" standalone="no" ?>
<gpx xmlns="http://www.topografix.com/GPX/1/1" xmlns:xsi="http://www.w3.org/2001/XMLSchema-instance" xsi:schemaLocation="http://www.topografix.com/GPX/1/1 http://www.topografix.com/GPX/1/1/gpx.xsd" version="1.1" creator="VisuGPX - https://www.visugpx.com">
  <metadata>
    <name>GR738-J4</name>
  </metadata>
  <trk>
    <name><![CDATA[GR738-J4]]></name>
    <extensions>
      <line xmlns="http://www.topografix.com/GPX/gpx_style/0/2">
        <color>0000FF</color>
        <width>4</width>
      </line>
    </extensions>
    <trkseg>
      <trkpt lat="45.28138" lon="6.0764">
        <ele>1080.1999511719</ele>
        <time>2023-08-11T05:02:06.000Z</time>
      </trkpt>
      <trkpt lat="45.28137" lon="6.07651">
        <ele>1080.5999755859</ele>
        <time>2023-08-11T05:02:12.000Z</time>
      </trkpt>
      <trkpt lat="45.28134" lon="6.07661">
        <ele>1081.1999511719</ele>
        <time>2023-08-11T05:02:18.000Z</time>
      </trkpt>
      <trkpt lat="45.28126" lon="6.07669">
        <ele>1081.8000488281</ele>
        <time>2023-08-11T05:02:25.000Z</time>
      </trkpt>
      <trkpt lat="45.28122" lon="6.07673">
        <ele>1082.1999511719</ele>
        <time>2023-08-11T05:02:28.000Z</time>
      </trkpt>
      <trkpt lat="45.28121" lon="6.07678">
        <ele>1082.5999755859</ele>
        <time>2023-08-11T05:02:32.000Z</time>
      </trkpt>
      <trkpt lat="45.28119" lon="6.07685">
        <ele>1083.4000244141</ele>
        <time>2023-08-11T05:02:36.000Z</time>
      </trkpt>
      <trkpt lat="45.28118" lon="6.07689">
        <ele>1083.5999755859</ele>
        <time>2023-08-11T05:02:38.000Z</time>
      </trkpt>
      <trkpt lat="45.28114" lon="6.07696">
        <ele>1084</ele>
        <time>2023-08-11T05:02:42.000Z</time>
      </trkpt>
      <trkpt lat="45.28111" lon="6.07704">
        <ele>1084.4000244141</ele>
        <time>2023-08-11T05:02:47.000Z</time>
      </trkpt>
      <trkpt lat="45.2811" lon="6.0771">
        <ele>1085.4000244141</ele>
        <time>2023-08-11T05:02:51.000Z</time>
      </trkpt>
      <trkpt lat="45.28109" lon="6.07711">
        <ele>1085.5999755859</ele>
        <time>2023-08-11T05:02:52.000Z</time>
      </trkpt>
      <trkpt lat="45.28082" lon="6.07766">
        <ele>1089.4000244141</ele>
        <time>2023-08-11T05:03:40.000Z</time>
      </trkpt>
      <trkpt lat="45.28081" lon="6.07769">
        <ele>1090</ele>
        <time>2023-08-11T05:03:42.000Z</time>
      </trkpt>
      <trkpt lat="45.2808" lon="6.07779">
        <ele>1090.8000488281</ele>
        <time>2023-08-11T05:03:47.000Z</time>
      </trkpt>
      <trkpt lat="45.2808" lon="6.0778">
        <ele>1091</ele>
        <time>2023-08-11T05:03:48.000Z</time>
      </trkpt>
      <trkpt lat="45.28079" lon="6.07782">
        <ele>1092.1999511719</ele>
        <time>2023-08-11T05:03:53.000Z</time>
      </trkpt>
      <trkpt lat="45.28079" lon="6.07784">
        <ele>1092.4000244141</ele>
        <time>2023-08-11T05:03:54.000Z</time>
      </trkpt>
      <trkpt lat="45.28076" lon="6.07787">
        <ele>1093.1999511719</ele>
        <time>2023-08-11T05:03:58.000Z</time>
      </trkpt>
      <trkpt lat="45.28064" lon="6.07794">
        <ele>1096</ele>
        <time>2023-08-11T05:04:11.000Z</time>
      </trkpt>
      <trkpt lat="45.2806" lon="6.07796">
        <ele>1096.5999755859</ele>
        <time>2023-08-11T05:04:14.000Z</time>
      </trkpt>
      <trkpt lat="45.28057" lon="6.078">
        <ele>1097.5999755859</ele>
        <time>2023-08-11T05:04:18.000Z</time>
      </trkpt>
      <trkpt lat="45.28056" lon="6.07801">
        <ele>1097.8000488281</ele>
        <time>2023-08-11T05:04:19.000Z</time>
      </trkpt>
      <trkpt lat="45.28049" lon="6.07805">
        <ele>1099.1999511719</ele>
        <time>2023-08-11T05:04:25.000Z</time>
      </trkpt>
      <trkpt lat="45.28047" lon="6.07806">
        <ele>1099.4000244141</ele>
        <time>2023-08-11T05:04:26.000Z</time>
      </trkpt>
      <trkpt lat="45.28042" lon="6.07807">
        <ele>1100.1999511719</ele>
        <time>2023-08-11T05:04:31.000Z</time>
      </trkpt>
      <trkpt lat="45.2804" lon="6.07808">
        <ele>1100.5999755859</ele>
        <time>2023-08-11T05:04:33.000Z</time>
      </trkpt>
      <trkpt lat="45.28037" lon="6.07809">
        <ele>1101.4000244141</ele>
        <time>2023-08-11T05:04:36.000Z</time>
      </trkpt>
      <trkpt lat="45.28019" lon="6.07814">
        <ele>1103.4000244141</ele>
        <time>2023-08-11T05:04:51.000Z</time>
      </trkpt>
      <trkpt lat="45.28016" lon="6.07815">
        <ele>1103.8000488281</ele>
        <time>2023-08-11T05:04:53.000Z</time>
      </trkpt>
      <trkpt lat="45.28011" lon="6.07818">
        <ele>1104.5999755859</ele>
        <time>2023-08-11T05:04:58.000Z</time>
      </trkpt>
      <trkpt lat="45.28006" lon="6.0782">
        <ele>1105</ele>
        <time>2023-08-11T05:05:01.000Z</time>
      </trkpt>
      <trkpt lat="45.28005" lon="6.07822">
        <ele>1105.5999755859</ele>
        <time>2023-08-11T05:05:04.000Z</time>
      </trkpt>
      <trkpt lat="45.28001" lon="6.07825">
        <ele>1106.4000244141</ele>
        <time>2023-08-11T05:05:08.000Z</time>
      </trkpt>
      <trkpt lat="45.28001" lon="6.07825">
        <ele>1106.5999755859</ele>
        <time>2023-08-11T05:05:09.000Z</time>
      </trkpt>
      <trkpt lat="45.27997" lon="6.07827">
        <ele>1107.5999755859</ele>
        <time>2023-08-11T05:05:14.000Z</time>
      </trkpt>
      <trkpt lat="45.27997" lon="6.07828">
        <ele>1107.8000488281</ele>
        <time>2023-08-11T05:05:15.000Z</time>
      </trkpt>
      <trkpt lat="45.27991" lon="6.07831">
        <ele>1108.8000488281</ele>
        <time>2023-08-11T05:05:19.000Z</time>
      </trkpt>
      <trkpt lat="45.27989" lon="6.07832">
        <ele>1109.1999511719</ele>
        <time>2023-08-11T05:05:21.000Z</time>
      </trkpt>
      <trkpt lat="45.27985" lon="6.07835">
        <ele>1109.8000488281</ele>
        <time>2023-08-11T05:05:24.000Z</time>
      </trkpt>
      <trkpt lat="45.27982" lon="6.07838">
        <ele>1110.4000244141</ele>
        <time>2023-08-11T05:05:28.000Z</time>
      </trkpt>
      <trkpt lat="45.27981" lon="6.07839">
        <ele>1110.8000488281</ele>
        <time>2023-08-11T05:05:29.000Z</time>
      </trkpt>
      <trkpt lat="45.27979" lon="6.07845">
        <ele>1111.8000488281</ele>
        <time>2023-08-11T05:05:35.000Z</time>
      </trkpt>
      <trkpt lat="45.27975" lon="6.07853">
        <ele>1112.8000488281</ele>
        <time>2023-08-11T05:05:40.000Z</time>
      </trkpt>
      <trkpt lat="45.27973" lon="6.07856">
        <ele>1113.1999511719</ele>
        <time>2023-08-11T05:05:42.000Z</time>
      </trkpt>
      <trkpt lat="45.27971" lon="6.07859">
        <ele>1114</ele>
        <time>2023-08-11T05:05:46.000Z</time>
      </trkpt>
      <trkpt lat="45.2797" lon="6.07863">
        <ele>1114.1999511719</ele>
        <time>2023-08-11T05:05:48.000Z</time>
      </trkpt>
      <trkpt lat="45.27964" lon="6.07869">
        <ele>1115</ele>
        <time>2023-08-11T05:05:54.000Z</time>
      </trkpt>
      <trkpt lat="45.27957" lon="6.07873">
        <ele>1116.1999511719</ele>
        <time>2023-08-11T05:06:01.000Z</time>
      </trkpt>
      <trkpt lat="45.27956" lon="6.07874">
        <ele>1116.4000244141</ele>
        <time>2023-08-11T05:06:02.000Z</time>
      </trkpt>
      <trkpt lat="45.27943" lon="6.07881">
        <ele>1119</ele>
        <time>2023-08-11T05:06:17.000Z</time>
      </trkpt>
      <trkpt lat="45.2794" lon="6.07885">
        <ele>1119.5999755859</ele>
        <time>2023-08-11T05:06:21.000Z</time>
      </trkpt>
      <trkpt lat="45.27938" lon="6.07891">
        <ele>1120</ele>
        <time>2023-08-11T05:06:25.000Z</time>
      </trkpt>
      <trkpt lat="45.27938" lon="6.07891">
        <ele>1120.4000244141</ele>
        <time>2023-08-11T05:06:28.000Z</time>
      </trkpt>
      <trkpt lat="45.27938" lon="6.07891">
        <ele>1120.4000244141</ele>
        <time>2023-08-11T05:06:32.000Z</time>
      </trkpt>
      <trkpt lat="45.27937" lon="6.07888">
        <ele>1120.4000244141</ele>
        <time>2023-08-11T05:06:38.000Z</time>
      </trkpt>
      <trkpt lat="45.27936" lon="6.07889">
        <ele>1120.5999755859</ele>
        <time>2023-08-11T05:06:41.000Z</time>
      </trkpt>
      <trkpt lat="45.27936" lon="6.07896">
        <ele>1121</ele>
        <time>2023-08-11T05:06:48.000Z</time>
      </trkpt>
      <trkpt lat="45.27935" lon="6.07899">
        <ele>1121.8000488281</ele>
        <time>2023-08-11T05:06:53.000Z</time>
      </trkpt>
      <trkpt lat="45.27934" lon="6.07901">
        <ele>1122</ele>
        <time>2023-08-11T05:06:54.000Z</time>
      </trkpt>
      <trkpt lat="45.27932" lon="6.07905">
        <ele>1122.8000488281</ele>
        <time>2023-08-11T05:06:59.000Z</time>
      </trkpt>
      <trkpt lat="45.27929" lon="6.07911">
        <ele>1123.8000488281</ele>
        <time>2023-08-11T05:07:05.000Z</time>
      </trkpt>
      <trkpt lat="45.27926" lon="6.07916">
        <ele>1124.8000488281</ele>
        <time>2023-08-11T05:07:12.000Z</time>
      </trkpt>
      <trkpt lat="45.27921" lon="6.07925">
        <ele>1126</ele>
        <time>2023-08-11T05:07:22.000Z</time>
      </trkpt>
      <trkpt lat="45.27919" lon="6.07929">
        <ele>1127</ele>
        <time>2023-08-11T05:07:29.000Z</time>
      </trkpt>
      <trkpt lat="45.27918" lon="6.0793">
        <ele>1127.1999511719</ele>
        <time>2023-08-11T05:07:30.000Z</time>
      </trkpt>
      <trkpt lat="45.27914" lon="6.07936">
        <ele>1128</ele>
        <time>2023-08-11T05:07:36.000Z</time>
      </trkpt>
      <trkpt lat="45.27913" lon="6.07938">
        <ele>1128.4000244141</ele>
        <time>2023-08-11T05:07:39.000Z</time>
      </trkpt>
      <trkpt lat="45.27911" lon="6.0794">
        <ele>1129.1999511719</ele>
        <time>2023-08-11T05:07:43.000Z</time>
      </trkpt>
      <trkpt lat="45.2791" lon="6.07943">
        <ele>1130.1999511719</ele>
        <time>2023-08-11T05:07:49.000Z</time>
      </trkpt>
      <trkpt lat="45.2791" lon="6.07944">
        <ele>1130.1999511719</ele>
        <time>2023-08-11T05:07:50.000Z</time>
      </trkpt>
      <trkpt lat="45.27908" lon="6.07948">
        <ele>1131.4000244141</ele>
        <time>2023-08-11T05:07:56.000Z</time>
      </trkpt>
      <trkpt lat="45.27908" lon="6.0795">
        <ele>1131.8000488281</ele>
        <time>2023-08-11T05:07:58.000Z</time>
      </trkpt>
      <trkpt lat="45.27907" lon="6.07953">
        <ele>1132.4000244141</ele>
        <time>2023-08-11T05:08:01.000Z</time>
      </trkpt>
      <trkpt lat="45.27904" lon="6.07957">
        <ele>1133.1999511719</ele>
        <time>2023-08-11T05:08:06.000Z</time>
      </trkpt>
      <trkpt lat="45.27903" lon="6.07957">
        <ele>1133.5999755859</ele>
        <time>2023-08-11T05:08:08.000Z</time>
      </trkpt>
      <trkpt lat="45.279" lon="6.07959">
        <ele>1134.8000488281</ele>
        <time>2023-08-11T05:08:14.000Z</time>
      </trkpt>
      <trkpt lat="45.27893" lon="6.07961">
        <ele>1136</ele>
        <time>2023-08-11T05:08:22.000Z</time>
      </trkpt>
      <trkpt lat="45.27892" lon="6.07961">
        <ele>1136</ele>
        <time>2023-08-11T05:08:23.000Z</time>
      </trkpt>
      <trkpt lat="45.27889" lon="6.07963">
        <ele>1137</ele>
        <time>2023-08-11T05:08:28.000Z</time>
      </trkpt>
      <trkpt lat="45.27888" lon="6.07964">
        <ele>1137.4000244141</ele>
        <time>2023-08-11T05:08:30.000Z</time>
      </trkpt>
      <trkpt lat="45.27886" lon="6.07965">
        <ele>1138.1999511719</ele>
        <time>2023-08-11T05:08:35.000Z</time>
      </trkpt>
      <trkpt lat="45.27885" lon="6.07965">
        <ele>1138.5999755859</ele>
        <time>2023-08-11T05:08:38.000Z</time>
      </trkpt>
      <trkpt lat="45.27882" lon="6.07966">
        <ele>1139.1999511719</ele>
        <time>2023-08-11T05:08:43.000Z</time>
      </trkpt>
      <trkpt lat="45.2788" lon="6.07967">
        <ele>1139.5999755859</ele>
        <time>2023-08-11T05:08:45.000Z</time>
      </trkpt>
      <trkpt lat="45.27875" lon="6.07966">
        <ele>1140.1999511719</ele>
        <time>2023-08-11T05:08:49.000Z</time>
      </trkpt>
      <trkpt lat="45.27872" lon="6.07965">
        <ele>1140.5999755859</ele>
        <time>2023-08-11T05:08:52.000Z</time>
      </trkpt>
      <trkpt lat="45.27868" lon="6.07962">
        <ele>1142.1999511719</ele>
        <time>2023-08-11T05:09:02.000Z</time>
      </trkpt>
      <trkpt lat="45.27862" lon="6.07956">
        <ele>1142.4000244141</ele>
        <time>2023-08-11T05:09:06.000Z</time>
      </trkpt>
      <trkpt lat="45.27861" lon="6.07956">
        <ele>1142.5999755859</ele>
        <time>2023-08-11T05:09:09.000Z</time>
      </trkpt>
      <trkpt lat="45.27865" lon="6.0796">
        <ele>1142.8000488281</ele>
        <time>2023-08-11T05:09:16.000Z</time>
      </trkpt>
      <trkpt lat="45.27868" lon="6.07964">
        <ele>1142.8000488281</ele>
        <time>2023-08-11T05:09:25.000Z</time>
      </trkpt>
      <trkpt lat="45.27868" lon="6.07966">
        <ele>1143</ele>
        <time>2023-08-11T05:09:33.000Z</time>
      </trkpt>
      <trkpt lat="45.27869" lon="6.07969">
        <ele>1143.1999511719</ele>
        <time>2023-08-11T05:09:42.000Z</time>
      </trkpt>
      <trkpt lat="45.2786" lon="6.0797">
        <ele>1143.5999755859</ele>
        <time>2023-08-11T05:09:48.000Z</time>
      </trkpt>
      <trkpt lat="45.27858" lon="6.07969">
        <ele>1144.5999755859</ele>
        <time>2023-08-11T05:09:54.000Z</time>
      </trkpt>
      <trkpt lat="45.27857" lon="6.07969">
        <ele>1144.8000488281</ele>
        <time>2023-08-11T05:09:56.000Z</time>
      </trkpt>
      <trkpt lat="45.27852" lon="6.0797">
        <ele>1146.1999511719</ele>
        <time>2023-08-11T05:10:06.000Z</time>
      </trkpt>
      <trkpt lat="45.27849" lon="6.0797">
        <ele>1146.5999755859</ele>
        <time>2023-08-11T05:10:09.000Z</time>
      </trkpt>
      <trkpt lat="45.27844" lon="6.0797">
        <ele>1147.8000488281</ele>
        <time>2023-08-11T05:10:15.000Z</time>
      </trkpt>
      <trkpt lat="45.27843" lon="6.0797">
        <ele>1148</ele>
        <time>2023-08-11T05:10:16.000Z</time>
      </trkpt>
      <trkpt lat="45.27831" lon="6.07972">
        <ele>1150</ele>
        <time>2023-08-11T05:10:30.000Z</time>
      </trkpt>
      <trkpt lat="45.27827" lon="6.07972">
        <ele>1150.8000488281</ele>
        <time>2023-08-11T05:10:35.000Z</time>
      </trkpt>
      <trkpt lat="45.27818" lon="6.07966">
        <ele>1151.5999755859</ele>
        <time>2023-08-11T05:10:43.000Z</time>
      </trkpt>
      <trkpt lat="45.27811" lon="6.0796">
        <ele>1151.8000488281</ele>
        <time>2023-08-11T05:10:51.000Z</time>
      </trkpt>
      <trkpt lat="45.27805" lon="6.07956">
        <ele>1152.1999511719</ele>
        <time>2023-08-11T05:10:58.000Z</time>
      </trkpt>
      <trkpt lat="45.27803" lon="6.07955">
        <ele>1152.5999755859</ele>
        <time>2023-08-11T05:11:01.000Z</time>
      </trkpt>
      <trkpt lat="45.27799" lon="6.07954">
        <ele>1153.1999511719</ele>
        <time>2023-08-11T05:11:06.000Z</time>
      </trkpt>
      <trkpt lat="45.27779" lon="6.07953">
        <ele>1155.5999755859</ele>
        <time>2023-08-11T05:11:24.000Z</time>
      </trkpt>
      <trkpt lat="45.27727" lon="6.07955">
        <ele>1161.4000244141</ele>
        <time>2023-08-11T05:12:45.000Z</time>
      </trkpt>
      <trkpt lat="45.27711" lon="6.07948">
        <ele>1163.1999511719</ele>
        <time>2023-08-11T05:13:06.000Z</time>
      </trkpt>
      <trkpt lat="45.27687" lon="6.07941">
        <ele>1142.9</ele>
        <time>2023-08-11T05:14:06Z</time>
      </trkpt>
      <trkpt lat="45.27659" lon="6.07951">
        <ele>1149.6</ele>
        <time>2023-08-11T05:15:05Z</time>
      </trkpt>
      <trkpt lat="45.27594" lon="6.08025">
        <ele>1171.3</ele>
        <time>2023-08-11T05:16:04Z</time>
      </trkpt>
      <trkpt lat="45.27557" lon="6.08025">
        <ele>1170.4</ele>
        <time>2023-08-11T05:17:03Z</time>
      </trkpt>
      <trkpt lat="45.27492" lon="6.08048">
        <ele>1167.9</ele>
        <time>2023-08-11T05:18:02Z</time>
      </trkpt>
      <trkpt lat="45.27449" lon="6.08055">
        <ele>1166</ele>
        <time>2023-08-11T05:19:01Z</time>
      </trkpt>
      <trkpt lat="45.27423" lon="6.08034">
        <ele>1165.5</ele>
        <time>2023-08-11T05:20:00Z</time>
      </trkpt>
      <trkpt lat="45.27402" lon="6.08054">
        <ele>1169.1</ele>
        <time>2023-08-11T05:20:59Z</time>
      </trkpt>
      <trkpt lat="45.27388" lon="6.08053">
        <ele>1171.3</ele>
        <time>2023-08-11T05:21:58Z</time>
      </trkpt>
      <trkpt lat="45.27361" lon="6.08061">
        <ele>1177.2</ele>
        <time>2023-08-11T05:22:57Z</time>
      </trkpt>
      <trkpt lat="45.27331" lon="6.08039">
        <ele>1183.2</ele>
        <time>2023-08-11T05:23:56Z</time>
      </trkpt>
      <trkpt lat="45.27295" lon="6.0803">
        <ele>1188.7</ele>
        <time>2023-08-11T05:24:55Z</time>
      </trkpt>
      <trkpt lat="45.27274" lon="6.08031">
        <ele>1192.1</ele>
        <time>2023-08-11T05:25:54Z</time>
      </trkpt>
      <trkpt lat="45.27277" lon="6.08003">
        <ele>1189.4</ele>
        <time>2023-08-11T05:26:53Z</time>
      </trkpt>
      <trkpt lat="45.27293" lon="6.07991">
        <ele>1187.6</ele>
        <time>2023-08-11T05:27:52Z</time>
      </trkpt>
      <trkpt lat="45.273" lon="6.07967">
        <ele>1188.7</ele>
        <time>2023-08-11T05:28:51Z</time>
      </trkpt>
      <trkpt lat="45.27317" lon="6.07954">
        <ele>1186.6</ele>
        <time>2023-08-11T05:29:50Z</time>
      </trkpt>
      <trkpt lat="45.27357" lon="6.07947">
        <ele>1179.4</ele>
        <time>2023-08-11T05:30:49Z</time>
      </trkpt>
      <trkpt lat="45.27424" lon="6.07943">
        <ele>1165.8</ele>
        <time>2023-08-11T05:31:48Z</time>
      </trkpt>
      <trkpt lat="45.27455" lon="6.07931">
        <ele>1162</ele>
        <time>2023-08-11T05:32:47Z</time>
      </trkpt>
      <trkpt lat="45.27477" lon="6.07927">
        <ele>1158.6</ele>
        <time>2023-08-11T05:33:46Z</time>
      </trkpt>
      <trkpt lat="45.2752" lon="6.07889">
        <ele>1155</ele>
        <time>2023-08-11T05:34:45Z</time>
      </trkpt>
      <trkpt lat="45.27569" lon="6.07842">
        <ele>1152.5</ele>
        <time>2023-08-11T05:35:44Z</time>
      </trkpt>
      <trkpt lat="45.27579" lon="6.07809">
        <ele>1161.6</ele>
        <time>2023-08-11T05:36:43Z</time>
      </trkpt>
      <trkpt lat="45.2759" lon="6.07782">
        <ele>1168.2</ele>
        <time>2023-08-11T05:37:42Z</time>
      </trkpt>
      <trkpt lat="45.27588" lon="6.07761">
        <ele>1174.9</ele>
        <time>2023-08-11T05:38:41Z</time>
      </trkpt>
      <trkpt lat="45.27572" lon="6.07765">
        <ele>1177</ele>
        <time>2023-08-11T05:39:40Z</time>
      </trkpt>
      <trkpt lat="45.2759" lon="6.07709">
        <ele>1190</ele>
        <time>2023-08-11T05:40:39Z</time>
      </trkpt>
      <trkpt lat="45.27605" lon="6.0769">
        <ele>1192.6</ele>
        <time>2023-08-11T05:41:38Z</time>
      </trkpt>
      <trkpt lat="45.27628" lon="6.0767">
        <ele>1192.5</ele>
        <time>2023-08-11T05:42:37Z</time>
      </trkpt>
      <trkpt lat="45.27662" lon="6.07651">
        <ele>1183.5</ele>
        <time>2023-08-11T05:43:36Z</time>
      </trkpt>
      <trkpt lat="45.27676" lon="6.07636">
        <ele>1180.2</ele>
        <time>2023-08-11T05:44:35Z</time>
      </trkpt>
      <trkpt lat="45.27689" lon="6.07617">
        <ele>1176.4</ele>
        <time>2023-08-11T05:45:34Z</time>
      </trkpt>
      <trkpt lat="45.27697" lon="6.07569">
        <ele>1177.3</ele>
        <time>2023-08-11T05:46:33Z</time>
      </trkpt>
      <trkpt lat="45.27698" lon="6.07532">
        <ele>1177.6</ele>
        <time>2023-08-11T05:47:32Z</time>
      </trkpt>
      <trkpt lat="45.27694" lon="6.07511">
        <ele>1199.8000488281</ele>
        <time>2023-08-11T05:48:39.000Z</time>
      </trkpt>
      <trkpt lat="45.27689" lon="6.07516">
        <ele>1201</ele>
        <time>2023-08-11T05:48:47.000Z</time>
      </trkpt>
      <trkpt lat="45.27688" lon="6.07519">
        <ele>1201.4000244141</ele>
        <time>2023-08-11T05:48:50.000Z</time>
      </trkpt>
      <trkpt lat="45.27684" lon="6.07529">
        <ele>1202</ele>
        <time>2023-08-11T05:48:56.000Z</time>
      </trkpt>
      <trkpt lat="45.27683" lon="6.0753">
        <ele>1202.1999511719</ele>
        <time>2023-08-11T05:48:58.000Z</time>
      </trkpt>
      <trkpt lat="45.27684" lon="6.07531">
        <ele>1202.8000488281</ele>
        <time>2023-08-11T05:49:04.000Z</time>
      </trkpt>
      <trkpt lat="45.27683" lon="6.07533">
        <ele>1203.4000244141</ele>
        <time>2023-08-11T05:49:06.000Z</time>
      </trkpt>
      <trkpt lat="45.27682" lon="6.07555">
        <ele>1206.5999755859</ele>
        <time>2023-08-11T05:49:23.000Z</time>
      </trkpt>
      <trkpt lat="45.27682" lon="6.07555">
        <ele>1206.8000488281</ele>
        <time>2023-08-11T05:49:24.000Z</time>
      </trkpt>
      <trkpt lat="45.27681" lon="6.07557">
        <ele>1207.5999755859</ele>
        <time>2023-08-11T05:49:29.000Z</time>
      </trkpt>
      <trkpt lat="45.27681" lon="6.07562">
        <ele>1208.4000244141</ele>
        <time>2023-08-11T05:49:33.000Z</time>
      </trkpt>
      <trkpt lat="45.27681" lon="6.07563">
        <ele>1208.8000488281</ele>
        <time>2023-08-11T05:49:36.000Z</time>
      </trkpt>
      <trkpt lat="45.27681" lon="6.07566">
        <ele>1209.8000488281</ele>
        <time>2023-08-11T05:49:42.000Z</time>
      </trkpt>
      <trkpt lat="45.27681" lon="6.07566">
        <ele>1210</ele>
        <time>2023-08-11T05:49:43.000Z</time>
      </trkpt>
      <trkpt lat="45.27679" lon="6.07571">
        <ele>1211</ele>
        <time>2023-08-11T05:49:50.000Z</time>
      </trkpt>
      <trkpt lat="45.27678" lon="6.07571">
        <ele>1211.1999511719</ele>
        <time>2023-08-11T05:49:52.000Z</time>
      </trkpt>
      <trkpt lat="45.27675" lon="6.07576">
        <ele>1212</ele>
        <time>2023-08-11T05:49:59.000Z</time>
      </trkpt>
      <trkpt lat="45.27675" lon="6.07577">
        <ele>1212</ele>
        <time>2023-08-11T05:50:00.000Z</time>
      </trkpt>
      <trkpt lat="45.27672" lon="6.07585">
        <ele>1213</ele>
        <time>2023-08-11T05:50:08.000Z</time>
      </trkpt>
      <trkpt lat="45.27671" lon="6.07586">
        <ele>1213.4000244141</ele>
        <time>2023-08-11T05:50:10.000Z</time>
      </trkpt>
      <trkpt lat="45.27668" lon="6.07584">
        <ele>1214.1999511719</ele>
        <time>2023-08-11T05:50:17.000Z</time>
      </trkpt>
      <trkpt lat="45.27664" lon="6.07581">
        <ele>1215.1999511719</ele>
        <time>2023-08-11T05:50:25.000Z</time>
      </trkpt>
      <trkpt lat="45.27659" lon="6.07572">
        <ele>1217.5999755859</ele>
        <time>2023-08-11T05:50:40.000Z</time>
      </trkpt>
      <trkpt lat="45.27659" lon="6.07569">
        <ele>1218.5999755859</ele>
        <time>2023-08-11T05:50:47.000Z</time>
      </trkpt>
      <trkpt lat="45.27659" lon="6.07564">
        <ele>1219.5999755859</ele>
        <time>2023-08-11T05:50:53.000Z</time>
      </trkpt>
      <trkpt lat="45.27659" lon="6.07563">
        <ele>1219.8000488281</ele>
        <time>2023-08-11T05:50:54.000Z</time>
      </trkpt>
      <trkpt lat="45.27656" lon="6.07563">
        <ele>1221.1999511719</ele>
        <time>2023-08-11T05:51:02.000Z</time>
      </trkpt>
      <trkpt lat="45.27652" lon="6.07567">
        <ele>1223</ele>
        <time>2023-08-11T05:51:16.000Z</time>
      </trkpt>
      <trkpt lat="45.27652" lon="6.0757">
        <ele>1223.8000488281</ele>
        <time>2023-08-11T05:51:21.000Z</time>
      </trkpt>
      <trkpt lat="45.27653" lon="6.0757">
        <ele>1224</ele>
        <time>2023-08-11T05:51:23.000Z</time>
      </trkpt>
      <trkpt lat="45.27653" lon="6.07573">
        <ele>1224.8000488281</ele>
        <time>2023-08-11T05:51:29.000Z</time>
      </trkpt>
      <trkpt lat="45.27653" lon="6.07574">
        <ele>1225</ele>
        <time>2023-08-11T05:51:31.000Z</time>
      </trkpt>
      <trkpt lat="45.27654" lon="6.07581">
        <ele>1226</ele>
        <time>2023-08-11T05:51:39.000Z</time>
      </trkpt>
      <trkpt lat="45.27653" lon="6.07582">
        <ele>1226.1999511719</ele>
        <time>2023-08-11T05:51:41.000Z</time>
      </trkpt>
      <trkpt lat="45.2765" lon="6.07585">
        <ele>1227.1999511719</ele>
        <time>2023-08-11T05:51:49.000Z</time>
      </trkpt>
      <trkpt lat="45.27645" lon="6.07589">
        <ele>1228.1999511719</ele>
        <time>2023-08-11T05:51:55.000Z</time>
      </trkpt>
      <trkpt lat="45.27645" lon="6.0759">
        <ele>1228.4000244141</ele>
        <time>2023-08-11T05:51:56.000Z</time>
      </trkpt>
      <trkpt lat="45.27644" lon="6.07593">
        <ele>1229.5999755859</ele>
        <time>2023-08-11T05:52:03.000Z</time>
      </trkpt>
      <trkpt lat="45.27643" lon="6.07603">
        <ele>1230.4000244141</ele>
        <time>2023-08-11T05:52:11.000Z</time>
      </trkpt>
      <trkpt lat="45.27643" lon="6.07603">
        <ele>1230.5999755859</ele>
        <time>2023-08-11T05:52:12.000Z</time>
      </trkpt>
      <trkpt lat="45.27638" lon="6.0761">
        <ele>1231.1999511719</ele>
        <time>2023-08-11T05:52:20.000Z</time>
      </trkpt>
      <trkpt lat="45.27637" lon="6.0761">
        <ele>1231.5999755859</ele>
        <time>2023-08-11T05:52:23.000Z</time>
      </trkpt>
      <trkpt lat="45.27633" lon="6.07611">
        <ele>1232.5999755859</ele>
        <time>2023-08-11T05:52:31.000Z</time>
      </trkpt>
      <trkpt lat="45.27633" lon="6.0761">
        <ele>1232.8000488281</ele>
        <time>2023-08-11T05:52:32.000Z</time>
      </trkpt>
      <trkpt lat="45.27627" lon="6.07612">
        <ele>1233.8000488281</ele>
        <time>2023-08-11T05:52:41.000Z</time>
      </trkpt>
      <trkpt lat="45.27622" lon="6.07615">
        <ele>1235</ele>
        <time>2023-08-11T05:52:49.000Z</time>
      </trkpt>
      <trkpt lat="45.2762" lon="6.07615">
        <ele>1235</ele>
        <time>2023-08-11T05:52:50.000Z</time>
      </trkpt>
      <trkpt lat="45.27611" lon="6.07617">
        <ele>1236</ele>
        <time>2023-08-11T05:52:59.000Z</time>
      </trkpt>
      <trkpt lat="45.2761" lon="6.07617">
        <ele>1236</ele>
        <time>2023-08-11T05:53:00.000Z</time>
      </trkpt>
      <trkpt lat="45.27608" lon="6.07618">
        <ele>1237</ele>
        <time>2023-08-11T05:53:06.000Z</time>
      </trkpt>
      <trkpt lat="45.27608" lon="6.07619">
        <ele>1237.4000244141</ele>
        <time>2023-08-11T05:53:08.000Z</time>
      </trkpt>
      <trkpt lat="45.27606" lon="6.07622">
        <ele>1238.1999511719</ele>
        <time>2023-08-11T05:53:14.000Z</time>
      </trkpt>
      <trkpt lat="45.27603" lon="6.07623">
        <ele>1238.4000244141</ele>
        <time>2023-08-11T05:53:16.000Z</time>
      </trkpt>
      <trkpt lat="45.27597" lon="6.07628">
        <ele>1239.4000244141</ele>
        <time>2023-08-11T05:53:23.000Z</time>
      </trkpt>
      <trkpt lat="45.27596" lon="6.07629">
        <ele>1239.4000244141</ele>
        <time>2023-08-11T05:53:24.000Z</time>
      </trkpt>
      <trkpt lat="45.27591" lon="6.07631">
        <ele>1240.4000244141</ele>
        <time>2023-08-11T05:53:30.000Z</time>
      </trkpt>
      <trkpt lat="45.27589" lon="6.07631">
        <ele>1240.5999755859</ele>
        <time>2023-08-11T05:53:32.000Z</time>
      </trkpt>
      <trkpt lat="45.27585" lon="6.0763">
        <ele>1241.4000244141</ele>
        <time>2023-08-11T05:53:37.000Z</time>
      </trkpt>
      <trkpt lat="45.27585" lon="6.0763">
        <ele>1241.8000488281</ele>
        <time>2023-08-11T05:53:39.000Z</time>
      </trkpt>
      <trkpt lat="45.27582" lon="6.07629">
        <ele>1242.5999755859</ele>
        <time>2023-08-11T05:53:43.000Z</time>
      </trkpt>
      <trkpt lat="45.27575" lon="6.0763">
        <ele>1243.4000244141</ele>
        <time>2023-08-11T05:53:49.000Z</time>
      </trkpt>
      <trkpt lat="45.27574" lon="6.0763">
        <ele>1243.5999755859</ele>
        <time>2023-08-11T05:53:50.000Z</time>
      </trkpt>
      <trkpt lat="45.27567" lon="6.07634">
        <ele>1244.8000488281</ele>
        <time>2023-08-11T05:53:57.000Z</time>
      </trkpt>
      <trkpt lat="45.27563" lon="6.07638">
        <ele>1245.8000488281</ele>
        <time>2023-08-11T05:54:05.000Z</time>
      </trkpt>
      <trkpt lat="45.27561" lon="6.07639">
        <ele>1246</ele>
        <time>2023-08-11T05:54:07.000Z</time>
      </trkpt>
      <trkpt lat="45.27558" lon="6.0764">
        <ele>1246.8000488281</ele>
        <time>2023-08-11T05:54:12.000Z</time>
      </trkpt>
      <trkpt lat="45.27556" lon="6.07639">
        <ele>1247.1999511719</ele>
        <time>2023-08-11T05:54:16.000Z</time>
      </trkpt>
      <trkpt lat="45.2755" lon="6.07637">
        <ele>1247.8000488281</ele>
        <time>2023-08-11T05:54:21.000Z</time>
      </trkpt>
      <trkpt lat="45.27548" lon="6.07636">
        <ele>1248.1999511719</ele>
        <time>2023-08-11T05:54:24.000Z</time>
      </trkpt>
      <trkpt lat="45.27545" lon="6.07636">
        <ele>1249</ele>
        <time>2023-08-11T05:54:28.000Z</time>
      </trkpt>
      <trkpt lat="45.27543" lon="6.07636">
        <ele>1249.5999755859</ele>
        <time>2023-08-11T05:54:32.000Z</time>
      </trkpt>
      <trkpt lat="45.27542" lon="6.07636">
        <ele>1250.1999511719</ele>
        <time>2023-08-11T05:54:35.000Z</time>
      </trkpt>
      <trkpt lat="45.2754" lon="6.07637">
        <ele>1251</ele>
        <time>2023-08-11T05:54:40.000Z</time>
      </trkpt>
      <trkpt lat="45.27539" lon="6.07637">
        <ele>1251.1999511719</ele>
        <time>2023-08-11T05:54:41.000Z</time>
      </trkpt>
      <trkpt lat="45.27536" lon="6.07636">
        <ele>1252.1999511719</ele>
        <time>2023-08-11T05:54:47.000Z</time>
      </trkpt>
      <trkpt lat="45.27535" lon="6.07635">
        <ele>1252.4000244141</ele>
        <time>2023-08-11T05:54:48.000Z</time>
      </trkpt>
      <trkpt lat="45.27534" lon="6.07635">
        <ele>1253.1999511719</ele>
        <time>2023-08-11T05:54:53.000Z</time>
      </trkpt>
      <trkpt lat="45.2753" lon="6.07635">
        <ele>1254</ele>
        <time>2023-08-11T05:54:58.000Z</time>
      </trkpt>
      <trkpt lat="45.27528" lon="6.07635">
        <ele>1254.4000244141</ele>
        <time>2023-08-11T05:55:00.000Z</time>
      </trkpt>
      <trkpt lat="45.27525" lon="6.07634">
        <ele>1255</ele>
        <time>2023-08-11T05:55:04.000Z</time>
      </trkpt>
      <trkpt lat="45.27522" lon="6.07635">
        <ele>1255.5999755859</ele>
        <time>2023-08-11T05:55:07.000Z</time>
      </trkpt>
      <trkpt lat="45.27521" lon="6.07636">
        <ele>1256</ele>
        <time>2023-08-11T05:55:11.000Z</time>
      </trkpt>
      <trkpt lat="45.2752" lon="6.07636">
        <ele>1256.5999755859</ele>
        <time>2023-08-11T05:55:14.000Z</time>
      </trkpt>
      <trkpt lat="45.27514" lon="6.07636">
        <ele>1257.8000488281</ele>
        <time>2023-08-11T05:55:20.000Z</time>
      </trkpt>
      <trkpt lat="45.27511" lon="6.07638">
        <ele>1258.8000488281</ele>
        <time>2023-08-11T05:55:27.000Z</time>
      </trkpt>
      <trkpt lat="45.27509" lon="6.07637">
        <ele>1259.4000244141</ele>
        <time>2023-08-11T05:55:30.000Z</time>
      </trkpt>
      <trkpt lat="45.27506" lon="6.07635">
        <ele>1260</ele>
        <time>2023-08-11T05:55:34.000Z</time>
      </trkpt>
      <trkpt lat="45.27505" lon="6.07633">
        <ele>1260.8000488281</ele>
        <time>2023-08-11T05:55:38.000Z</time>
      </trkpt>
      <trkpt lat="45.27504" lon="6.07631">
        <ele>1261</ele>
        <time>2023-08-11T05:55:41.000Z</time>
      </trkpt>
      <trkpt lat="45.27501" lon="6.07631">
        <ele>1262</ele>
        <time>2023-08-11T05:55:46.000Z</time>
      </trkpt>
      <trkpt lat="45.275" lon="6.07633">
        <ele>1263</ele>
        <time>2023-08-11T05:55:52.000Z</time>
      </trkpt>
      <trkpt lat="45.27499" lon="6.07633">
        <ele>1263.4000244141</ele>
        <time>2023-08-11T05:55:54.000Z</time>
      </trkpt>
      <trkpt lat="45.27495" lon="6.07632">
        <ele>1264</ele>
        <time>2023-08-11T05:55:59.000Z</time>
      </trkpt>
      <trkpt lat="45.27493" lon="6.07631">
        <ele>1264.8000488281</ele>
        <time>2023-08-11T05:56:02.000Z</time>
      </trkpt>
      <trkpt lat="45.27491" lon="6.07631">
        <ele>1265.1999511719</ele>
        <time>2023-08-11T05:56:04.000Z</time>
      </trkpt>
      <trkpt lat="45.2749" lon="6.07633">
        <ele>1266.1999511719</ele>
        <time>2023-08-11T05:56:10.000Z</time>
      </trkpt>
      <trkpt lat="45.27486" lon="6.07624">
        <ele>1268.1999511719</ele>
        <time>2023-08-11T05:56:24.000Z</time>
      </trkpt>
      <trkpt lat="45.27486" lon="6.07623">
        <ele>1268.4000244141</ele>
        <time>2023-08-11T05:56:26.000Z</time>
      </trkpt>
      <trkpt lat="45.27488" lon="6.07618">
        <ele>1269.1999511719</ele>
        <time>2023-08-11T05:56:30.000Z</time>
      </trkpt>
      <trkpt lat="45.27489" lon="6.07617">
        <ele>1269.5999755859</ele>
        <time>2023-08-11T05:56:33.000Z</time>
      </trkpt>
      <trkpt lat="45.27491" lon="6.07616">
        <ele>1270.4000244141</ele>
        <time>2023-08-11T05:56:37.000Z</time>
      </trkpt>
      <trkpt lat="45.27497" lon="6.07612">
        <ele>1271.5999755859</ele>
        <time>2023-08-11T05:56:47.000Z</time>
      </trkpt>
      <trkpt lat="45.275" lon="6.07608">
        <ele>1272.8000488281</ele>
        <time>2023-08-11T05:56:53.000Z</time>
      </trkpt>
      <trkpt lat="45.275" lon="6.07607">
        <ele>1273.1999511719</ele>
        <time>2023-08-11T05:56:55.000Z</time>
      </trkpt>
      <trkpt lat="45.27502" lon="6.07603">
        <ele>1273.8000488281</ele>
        <time>2023-08-11T05:56:59.000Z</time>
      </trkpt>
      <trkpt lat="45.27504" lon="6.07601">
        <ele>1274.4000244141</ele>
        <time>2023-08-11T05:57:02.000Z</time>
      </trkpt>
      <trkpt lat="45.27506" lon="6.076">
        <ele>1275</ele>
        <time>2023-08-11T05:57:06.000Z</time>
      </trkpt>
      <trkpt lat="45.27512" lon="6.07599">
        <ele>1276</ele>
        <time>2023-08-11T05:57:13.000Z</time>
      </trkpt>
      <trkpt lat="45.27516" lon="6.07598">
        <ele>1277</ele>
        <time>2023-08-11T05:57:20.000Z</time>
      </trkpt>
      <trkpt lat="45.27519" lon="6.07594">
        <ele>1278.1999511719</ele>
        <time>2023-08-11T05:57:27.000Z</time>
      </trkpt>
      <trkpt lat="45.27521" lon="6.07592">
        <ele>1278.5999755859</ele>
        <time>2023-08-11T05:57:30.000Z</time>
      </trkpt>
      <trkpt lat="45.27523" lon="6.0759">
        <ele>1279.1999511719</ele>
        <time>2023-08-11T05:57:34.000Z</time>
      </trkpt>
      <trkpt lat="45.27523" lon="6.07587">
        <ele>1280.4000244141</ele>
        <time>2023-08-11T05:57:40.000Z</time>
      </trkpt>
      <trkpt lat="45.27526" lon="6.07581">
        <ele>1281.4000244141</ele>
        <time>2023-08-11T05:57:46.000Z</time>
      </trkpt>
      <trkpt lat="45.27528" lon="6.07577">
        <ele>1282</ele>
        <time>2023-08-11T05:57:49.000Z</time>
      </trkpt>
      <trkpt lat="45.27528" lon="6.07577">
        <ele>1282.5999755859</ele>
        <time>2023-08-11T05:57:53.000Z</time>
      </trkpt>
      <trkpt lat="45.27529" lon="6.0758">
        <ele>1283.4000244141</ele>
        <time>2023-08-11T05:57:58.000Z</time>
      </trkpt>
      <trkpt lat="45.27529" lon="6.07581">
        <ele>1283.8000488281</ele>
        <time>2023-08-11T05:58:00.000Z</time>
      </trkpt>
      <trkpt lat="45.27535" lon="6.07578">
        <ele>1284.8000488281</ele>
        <time>2023-08-11T05:58:06.000Z</time>
      </trkpt>
      <trkpt lat="45.27535" lon="6.07579">
        <ele>1285</ele>
        <time>2023-08-11T05:58:07.000Z</time>
      </trkpt>
      <trkpt lat="45.27539" lon="6.07578">
        <ele>1286</ele>
        <time>2023-08-11T05:58:13.000Z</time>
      </trkpt>
      <trkpt lat="45.27539" lon="6.07577">
        <ele>1286</ele>
        <time>2023-08-11T05:58:14.000Z</time>
      </trkpt>
      <trkpt lat="45.27536" lon="6.07575">
        <ele>1287</ele>
        <time>2023-08-11T05:58:20.000Z</time>
      </trkpt>
      <trkpt lat="45.27535" lon="6.07574">
        <ele>1287.1999511719</ele>
        <time>2023-08-11T05:58:21.000Z</time>
      </trkpt>
      <trkpt lat="45.27534" lon="6.07576">
        <ele>1288</ele>
        <time>2023-08-11T05:58:26.000Z</time>
      </trkpt>
      <trkpt lat="45.27533" lon="6.07576">
        <ele>1288.4000244141</ele>
        <time>2023-08-11T05:58:29.000Z</time>
      </trkpt>
      <trkpt lat="45.2753" lon="6.07576">
        <ele>1289.1999511719</ele>
        <time>2023-08-11T05:58:33.000Z</time>
      </trkpt>
      <trkpt lat="45.2753" lon="6.07575">
        <ele>1289.1999511719</ele>
        <time>2023-08-11T05:58:34.000Z</time>
      </trkpt>
      <trkpt lat="45.27531" lon="6.07575">
        <ele>1289.4000244141</ele>
        <time>2023-08-11T05:58:36.000Z</time>
      </trkpt>
      <trkpt lat="45.27531" lon="6.07573">
        <ele>1290.1999511719</ele>
        <time>2023-08-11T05:58:42.000Z</time>
      </trkpt>
      <trkpt lat="45.27532" lon="6.07571">
        <ele>1290.5999755859</ele>
        <time>2023-08-11T05:58:45.000Z</time>
      </trkpt>
      <trkpt lat="45.27532" lon="6.07569">
        <ele>1291.4000244141</ele>
        <time>2023-08-11T05:58:49.000Z</time>
      </trkpt>
      <trkpt lat="45.2753" lon="6.0757">
        <ele>1291.8000488281</ele>
        <time>2023-08-11T05:58:53.000Z</time>
      </trkpt>
      <trkpt lat="45.27528" lon="6.0757">
        <ele>1292.5999755859</ele>
        <time>2023-08-11T05:58:57.000Z</time>
      </trkpt>
      <trkpt lat="45.27526" lon="6.07571">
        <ele>1293.1999511719</ele>
        <time>2023-08-11T05:59:01.000Z</time>
      </trkpt>
      <trkpt lat="45.27525" lon="6.07572">
        <ele>1293.5999755859</ele>
        <time>2023-08-11T05:59:03.000Z</time>
      </trkpt>
      <trkpt lat="45.27518" lon="6.07572">
        <ele>1294</ele>
        <time>2023-08-11T05:59:08.000Z</time>
      </trkpt>
      <trkpt lat="45.27513" lon="6.0757">
        <ele>1294.8000488281</ele>
        <time>2023-08-11T05:59:13.000Z</time>
      </trkpt>
      <trkpt lat="45.27512" lon="6.07567">
        <ele>1295.4000244141</ele>
        <time>2023-08-11T05:59:17.000Z</time>
      </trkpt>
      <trkpt lat="45.27512" lon="6.07566">
        <ele>1295.8000488281</ele>
        <time>2023-08-11T05:59:20.000Z</time>
      </trkpt>
      <trkpt lat="45.27511" lon="6.07564">
        <ele>1296.5999755859</ele>
        <time>2023-08-11T05:59:26.000Z</time>
      </trkpt>
      <trkpt lat="45.27511" lon="6.07564">
        <ele>1296.8000488281</ele>
        <time>2023-08-11T05:59:27.000Z</time>
      </trkpt>
      <trkpt lat="45.27505" lon="6.07563">
        <ele>1297.5999755859</ele>
        <time>2023-08-11T05:59:33.000Z</time>
      </trkpt>
      <trkpt lat="45.27504" lon="6.07564">
        <ele>1298</ele>
        <time>2023-08-11T05:59:35.000Z</time>
      </trkpt>
      <trkpt lat="45.27501" lon="6.07562">
        <ele>1299</ele>
        <time>2023-08-11T05:59:42.000Z</time>
      </trkpt>
      <trkpt lat="45.275" lon="6.07562">
        <ele>1299.1999511719</ele>
        <time>2023-08-11T05:59:43.000Z</time>
      </trkpt>
      <trkpt lat="45.275" lon="6.0756">
        <ele>1300</ele>
        <time>2023-08-11T05:59:49.000Z</time>
      </trkpt>
      <trkpt lat="45.275" lon="6.07558">
        <ele>1300.5999755859</ele>
        <time>2023-08-11T05:59:52.000Z</time>
      </trkpt>
      <trkpt lat="45.27499" lon="6.07556">
        <ele>1301.1999511719</ele>
        <time>2023-08-11T05:59:57.000Z</time>
      </trkpt>
      <trkpt lat="45.27497" lon="6.07553">
        <ele>1302</ele>
        <time>2023-08-11T06:00:01.000Z</time>
      </trkpt>
      <trkpt lat="45.27496" lon="6.07553">
        <ele>1302.4000244141</ele>
        <time>2023-08-11T06:00:02.000Z</time>
      </trkpt>
      <trkpt lat="45.27494" lon="6.07553">
        <ele>1303.4000244141</ele>
        <time>2023-08-11T06:00:08.000Z</time>
      </trkpt>
      <trkpt lat="45.27494" lon="6.07552">
        <ele>1303.5999755859</ele>
        <time>2023-08-11T06:00:09.000Z</time>
      </trkpt>
      <trkpt lat="45.27495" lon="6.0755">
        <ele>1304.5999755859</ele>
        <time>2023-08-11T06:00:17.000Z</time>
      </trkpt>
      <trkpt lat="45.27492" lon="6.07544">
        <ele>1305.5999755859</ele>
        <time>2023-08-11T06:00:23.000Z</time>
      </trkpt>
      <trkpt lat="45.27491" lon="6.07543">
        <ele>1306</ele>
        <time>2023-08-11T06:00:25.000Z</time>
      </trkpt>
      <trkpt lat="45.27491" lon="6.07543">
        <ele>1306.8000488281</ele>
        <time>2023-08-11T06:00:29.000Z</time>
      </trkpt>
      <trkpt lat="45.2749" lon="6.07544">
        <ele>1307.1999511719</ele>
        <time>2023-08-11T06:00:33.000Z</time>
      </trkpt>
      <trkpt lat="45.27489" lon="6.07545">
        <ele>1308</ele>
        <time>2023-08-11T06:00:35.000Z</time>
      </trkpt>
      <trkpt lat="45.27486" lon="6.07548">
        <ele>1308.5999755859</ele>
        <time>2023-08-11T06:00:40.000Z</time>
      </trkpt>
      <trkpt lat="45.27485" lon="6.07548">
        <ele>1309</ele>
        <time>2023-08-11T06:00:42.000Z</time>
      </trkpt>
      <trkpt lat="45.27482" lon="6.07549">
        <ele>1309.5999755859</ele>
        <time>2023-08-11T06:00:47.000Z</time>
      </trkpt>
      <trkpt lat="45.27482" lon="6.0755">
        <ele>1310.1999511719</ele>
        <time>2023-08-11T06:00:51.000Z</time>
      </trkpt>
      <trkpt lat="45.2748" lon="6.07551">
        <ele>1310.5999755859</ele>
        <time>2023-08-11T06:00:55.000Z</time>
      </trkpt>
      <trkpt lat="45.27479" lon="6.0755">
        <ele>1311.1999511719</ele>
        <time>2023-08-11T06:00:59.000Z</time>
      </trkpt>
      <trkpt lat="45.27476" lon="6.07548">
        <ele>1312.1999511719</ele>
        <time>2023-08-11T06:01:05.000Z</time>
      </trkpt>
      <trkpt lat="45.27472" lon="6.07548">
        <ele>1313.1999511719</ele>
        <time>2023-08-11T06:01:13.000Z</time>
      </trkpt>
      <trkpt lat="45.27471" lon="6.07547">
        <ele>1313.1999511719</ele>
        <time>2023-08-11T06:01:14.000Z</time>
      </trkpt>
      <trkpt lat="45.27467" lon="6.07544">
        <ele>1314.1999511719</ele>
        <time>2023-08-11T06:01:21.000Z</time>
      </trkpt>
      <trkpt lat="45.27467" lon="6.07543">
        <ele>1314.5999755859</ele>
        <time>2023-08-11T06:01:22.000Z</time>
      </trkpt>
      <trkpt lat="45.27467" lon="6.07539">
        <ele>1315.4000244141</ele>
        <time>2023-08-11T06:01:27.000Z</time>
      </trkpt>
      <trkpt lat="45.27466" lon="6.07534">
        <ele>1316.1999511719</ele>
        <time>2023-08-11T06:01:32.000Z</time>
      </trkpt>
      <trkpt lat="45.27467" lon="6.07533">
        <ele>1316.4000244141</ele>
        <time>2023-08-11T06:01:33.000Z</time>
      </trkpt>
      <trkpt lat="45.27467" lon="6.07534">
        <ele>1317.5999755859</ele>
        <time>2023-08-11T06:01:37.000Z</time>
      </trkpt>
      <trkpt lat="45.27467" lon="6.07534">
        <ele>1318</ele>
        <time>2023-08-11T06:01:40.000Z</time>
      </trkpt>
      <trkpt lat="45.27466" lon="6.07534">
        <ele>1318.5999755859</ele>
        <time>2023-08-11T06:01:44.000Z</time>
      </trkpt>
      <trkpt lat="45.27464" lon="6.07533">
        <ele>1319</ele>
        <time>2023-08-11T06:01:47.000Z</time>
      </trkpt>
      <trkpt lat="45.27464" lon="6.07534">
        <ele>1319.5999755859</ele>
        <time>2023-08-11T06:01:51.000Z</time>
      </trkpt>
      <trkpt lat="45.2746" lon="6.07534">
        <ele>1320.5999755859</ele>
        <time>2023-08-11T06:01:55.000Z</time>
      </trkpt>
      <trkpt lat="45.27459" lon="6.07534">
        <ele>1320.8000488281</ele>
        <time>2023-08-11T06:01:56.000Z</time>
      </trkpt>
      <trkpt lat="45.27457" lon="6.07531">
        <ele>1321.4000244141</ele>
        <time>2023-08-11T06:02:02.000Z</time>
      </trkpt>
      <trkpt lat="45.27457" lon="6.0753">
        <ele>1321.8000488281</ele>
        <time>2023-08-11T06:02:05.000Z</time>
      </trkpt>
      <trkpt lat="45.27454" lon="6.07525">
        <ele>1322.4000244141</ele>
        <time>2023-08-11T06:02:10.000Z</time>
      </trkpt>
      <trkpt lat="45.27454" lon="6.07526">
        <ele>1323</ele>
        <time>2023-08-11T06:02:14.000Z</time>
      </trkpt>
      <trkpt lat="45.27454" lon="6.07527">
        <ele>1323.4000244141</ele>
        <time>2023-08-11T06:02:18.000Z</time>
      </trkpt>
      <trkpt lat="45.27455" lon="6.07528">
        <ele>1324</ele>
        <time>2023-08-11T06:02:22.000Z</time>
      </trkpt>
      <trkpt lat="45.27451" lon="6.07522">
        <ele>1325</ele>
        <time>2023-08-11T06:02:28.000Z</time>
      </trkpt>
      <trkpt lat="45.27449" lon="6.0752">
        <ele>1325</ele>
        <time>2023-08-11T06:02:30.000Z</time>
      </trkpt>
      <trkpt lat="45.27447" lon="6.07515">
        <ele>1325.8000488281</ele>
        <time>2023-08-11T06:02:35.000Z</time>
      </trkpt>
      <trkpt lat="45.27446" lon="6.07514">
        <ele>1326.1999511719</ele>
        <time>2023-08-11T06:02:38.000Z</time>
      </trkpt>
      <trkpt lat="45.27443" lon="6.07512">
        <ele>1326.8000488281</ele>
        <time>2023-08-11T06:02:43.000Z</time>
      </trkpt>
      <trkpt lat="45.27442" lon="6.07511">
        <ele>1327.1999511719</ele>
        <time>2023-08-11T06:02:45.000Z</time>
      </trkpt>
      <trkpt lat="45.2744" lon="6.07511">
        <ele>1328</ele>
        <time>2023-08-11T06:02:50.000Z</time>
      </trkpt>
      <trkpt lat="45.2744" lon="6.07511">
        <ele>1328.1999511719</ele>
        <time>2023-08-11T06:02:51.000Z</time>
      </trkpt>
      <trkpt lat="45.27439" lon="6.0751">
        <ele>1329.4000244141</ele>
        <time>2023-08-11T06:02:58.000Z</time>
      </trkpt>
      <trkpt lat="45.27438" lon="6.07507">
        <ele>1330.5999755859</ele>
        <time>2023-08-11T06:03:04.000Z</time>
      </trkpt>
      <trkpt lat="45.27437" lon="6.07506">
        <ele>1331</ele>
        <time>2023-08-11T06:03:07.000Z</time>
      </trkpt>
      <trkpt lat="45.27437" lon="6.07506">
        <ele>1331.5999755859</ele>
        <time>2023-08-11T06:03:11.000Z</time>
      </trkpt>
      <trkpt lat="45.27438" lon="6.07507">
        <ele>1332.5999755859</ele>
        <time>2023-08-11T06:03:16.000Z</time>
      </trkpt>
      <trkpt lat="45.27438" lon="6.07507">
        <ele>1332.8000488281</ele>
        <time>2023-08-11T06:03:17.000Z</time>
      </trkpt>
      <trkpt lat="45.27436" lon="6.07508">
        <ele>1333.8000488281</ele>
        <time>2023-08-11T06:03:23.000Z</time>
      </trkpt>
      <trkpt lat="45.27434" lon="6.07507">
        <ele>1334.8000488281</ele>
        <time>2023-08-11T06:03:29.000Z</time>
      </trkpt>
      <trkpt lat="45.27434" lon="6.07507">
        <ele>1335</ele>
        <time>2023-08-11T06:03:30.000Z</time>
      </trkpt>
      <trkpt lat="45.27432" lon="6.07507">
        <ele>1336</ele>
        <time>2023-08-11T06:03:37.000Z</time>
      </trkpt>
      <trkpt lat="45.27432" lon="6.07507">
        <ele>1336.1999511719</ele>
        <time>2023-08-11T06:03:38.000Z</time>
      </trkpt>
      <trkpt lat="45.27429" lon="6.07508">
        <ele>1337</ele>
        <time>2023-08-11T06:03:43.000Z</time>
      </trkpt>
      <trkpt lat="45.2742" lon="6.07509">
        <ele>1337.8000488281</ele>
        <time>2023-08-11T06:03:54.000Z</time>
      </trkpt>
      <trkpt lat="45.27419" lon="6.07507">
        <ele>1338</ele>
        <time>2023-08-11T06:03:59.000Z</time>
      </trkpt>
      <trkpt lat="45.27419" lon="6.07507">
        <ele>1338.1999511719</ele>
        <time>2023-08-11T06:04:00.000Z</time>
      </trkpt>
      <trkpt lat="45.27418" lon="6.07507">
        <ele>1339.1999511719</ele>
        <time>2023-08-11T06:04:04.000Z</time>
      </trkpt>
      <trkpt lat="45.27418" lon="6.07508">
        <ele>1340</ele>
        <time>2023-08-11T06:04:08.000Z</time>
      </trkpt>
      <trkpt lat="45.27419" lon="6.07508">
        <ele>1340.1999511719</ele>
        <time>2023-08-11T06:04:11.000Z</time>
      </trkpt>
      <trkpt lat="45.27415" lon="6.07507">
        <ele>1341</ele>
        <time>2023-08-11T06:04:17.000Z</time>
      </trkpt>
      <trkpt lat="45.27413" lon="6.07509">
        <ele>1341.4000244141</ele>
        <time>2023-08-11T06:04:20.000Z</time>
      </trkpt>
      <trkpt lat="45.2741" lon="6.07507">
        <ele>1342.1999511719</ele>
        <time>2023-08-11T06:04:25.000Z</time>
      </trkpt>
      <trkpt lat="45.27407" lon="6.07504">
        <ele>1342.5999755859</ele>
        <time>2023-08-11T06:04:28.000Z</time>
      </trkpt>
      <trkpt lat="45.27405" lon="6.07504">
        <ele>1343.5999755859</ele>
        <time>2023-08-11T06:04:32.000Z</time>
      </trkpt>
      <trkpt lat="45.27405" lon="6.07505">
        <ele>1343.8000488281</ele>
        <time>2023-08-11T06:04:33.000Z</time>
      </trkpt>
      <trkpt lat="45.27403" lon="6.07506">
        <ele>1344.8000488281</ele>
        <time>2023-08-11T06:04:39.000Z</time>
      </trkpt>
      <trkpt lat="45.27402" lon="6.07507">
        <ele>1345</ele>
        <time>2023-08-11T06:04:40.000Z</time>
      </trkpt>
      <trkpt lat="45.27404" lon="6.0751">
        <ele>1346</ele>
        <time>2023-08-11T06:04:47.000Z</time>
      </trkpt>
      <trkpt lat="45.27402" lon="6.07511">
        <ele>1346.4000244141</ele>
        <time>2023-08-11T06:04:50.000Z</time>
      </trkpt>
      <trkpt lat="45.27401" lon="6.07509">
        <ele>1347</ele>
        <time>2023-08-11T06:04:54.000Z</time>
      </trkpt>
      <trkpt lat="45.27401" lon="6.07509">
        <ele>1347.8000488281</ele>
        <time>2023-08-11T06:04:58.000Z</time>
      </trkpt>
      <trkpt lat="45.274" lon="6.07508">
        <ele>1348.1999511719</ele>
        <time>2023-08-11T06:05:00.000Z</time>
      </trkpt>
      <trkpt lat="45.27399" lon="6.07501">
        <ele>1349</ele>
        <time>2023-08-11T06:05:06.000Z</time>
      </trkpt>
      <trkpt lat="45.274" lon="6.075">
        <ele>1349.1999511719</ele>
        <time>2023-08-11T06:05:07.000Z</time>
      </trkpt>
      <trkpt lat="45.27406" lon="6.07489">
        <ele>1350</ele>
        <time>2023-08-11T06:05:16.000Z</time>
      </trkpt>
      <trkpt lat="45.27403" lon="6.07491">
        <ele>1349.8000488281</ele>
        <time>2023-08-11T06:05:22.000Z</time>
      </trkpt>
      <trkpt lat="45.27403" lon="6.07491">
        <ele>1349.8000488281</ele>
        <time>2023-08-11T06:05:29.000Z</time>
      </trkpt>
      <trkpt lat="45.27402" lon="6.07487">
        <ele>1350.1999511719</ele>
        <time>2023-08-11T06:05:38.000Z</time>
      </trkpt>
      <trkpt lat="45.27401" lon="6.07486">
        <ele>1350.4000244141</ele>
        <time>2023-08-11T06:05:39.000Z</time>
      </trkpt>
      <trkpt lat="45.27399" lon="6.07481">
        <ele>1351.4000244141</ele>
        <time>2023-08-11T06:05:45.000Z</time>
      </trkpt>
      <trkpt lat="45.27399" lon="6.07479">
        <ele>1351.5999755859</ele>
        <time>2023-08-11T06:05:47.000Z</time>
      </trkpt>
      <trkpt lat="45.274" lon="6.07474">
        <ele>1352.5999755859</ele>
        <time>2023-08-11T06:05:54.000Z</time>
      </trkpt>
      <trkpt lat="45.27401" lon="6.07472">
        <ele>1353</ele>
        <time>2023-08-11T06:05:57.000Z</time>
      </trkpt>
      <trkpt lat="45.27402" lon="6.0747">
        <ele>1353.5999755859</ele>
        <time>2023-08-11T06:06:01.000Z</time>
      </trkpt>
      <trkpt lat="45.27402" lon="6.0747">
        <ele>1354.5999755859</ele>
        <time>2023-08-11T06:06:06.000Z</time>
      </trkpt>
      <trkpt lat="45.27402" lon="6.0747">
        <ele>1354.8000488281</ele>
        <time>2023-08-11T06:06:08.000Z</time>
      </trkpt>
      <trkpt lat="45.27398" lon="6.0747">
        <ele>1355.8000488281</ele>
        <time>2023-08-11T06:06:14.000Z</time>
      </trkpt>
      <trkpt lat="45.27393" lon="6.0747">
        <ele>1356.8000488281</ele>
        <time>2023-08-11T06:06:21.000Z</time>
      </trkpt>
      <trkpt lat="45.27391" lon="6.07478">
        <ele>1356.8000488281</ele>
        <time>2023-08-11T06:06:29.000Z</time>
      </trkpt>
      <trkpt lat="45.27388" lon="6.07476">
        <ele>1356.8000488281</ele>
        <time>2023-08-11T06:06:48.000Z</time>
      </trkpt>
      <trkpt lat="45.27388" lon="6.07474">
        <ele>1356.8000488281</ele>
        <time>2023-08-11T06:06:55.000Z</time>
      </trkpt>
      <trkpt lat="45.27388" lon="6.07464">
        <ele>1356.5999755859</ele>
        <time>2023-08-11T06:07:02.000Z</time>
      </trkpt>
      <trkpt lat="45.27389" lon="6.0747">
        <ele>1356.8000488281</ele>
        <time>2023-08-11T06:07:09.000Z</time>
      </trkpt>
      <trkpt lat="45.27388" lon="6.07472">
        <ele>1357.1999511719</ele>
        <time>2023-08-11T06:07:14.000Z</time>
      </trkpt>
      <trkpt lat="45.27387" lon="6.07472">
        <ele>1358</ele>
        <time>2023-08-11T06:07:19.000Z</time>
      </trkpt>
      <trkpt lat="45.27385" lon="6.07472">
        <ele>1358.4000244141</ele>
        <time>2023-08-11T06:07:22.000Z</time>
      </trkpt>
      <trkpt lat="45.27382" lon="6.07472">
        <ele>1359</ele>
        <time>2023-08-11T06:07:27.000Z</time>
      </trkpt>
      <trkpt lat="45.27376" lon="6.07472">
        <ele>1360</ele>
        <time>2023-08-11T06:07:33.000Z</time>
      </trkpt>
      <trkpt lat="45.27375" lon="6.07471">
        <ele>1360</ele>
        <time>2023-08-11T06:07:34.000Z</time>
      </trkpt>
      <trkpt lat="45.27367" lon="6.07472">
        <ele>1361</ele>
        <time>2023-08-11T06:07:43.000Z</time>
      </trkpt>
      <trkpt lat="45.27363" lon="6.07469">
        <ele>1361.8000488281</ele>
        <time>2023-08-11T06:07:51.000Z</time>
      </trkpt>
      <trkpt lat="45.2736" lon="6.07468">
        <ele>1362.1999511719</ele>
        <time>2023-08-11T06:07:53.000Z</time>
      </trkpt>
      <trkpt lat="45.27356" lon="6.07467">
        <ele>1362.8000488281</ele>
        <time>2023-08-11T06:07:57.000Z</time>
      </trkpt>
      <trkpt lat="45.27352" lon="6.07467">
        <ele>1363.1999511719</ele>
        <time>2023-08-11T06:08:01.000Z</time>
      </trkpt>
      <trkpt lat="45.27349" lon="6.07467">
        <ele>1364.4000244141</ele>
        <time>2023-08-11T06:08:06.000Z</time>
      </trkpt>
      <trkpt lat="45.27349" lon="6.07467">
        <ele>1364.4000244141</ele>
        <time>2023-08-11T06:08:07.000Z</time>
      </trkpt>
      <trkpt lat="45.27342" lon="6.07467">
        <ele>1365.1999511719</ele>
        <time>2023-08-11T06:08:15.000Z</time>
      </trkpt>
      <trkpt lat="45.27334" lon="6.07468">
        <ele>1365.4000244141</ele>
        <time>2023-08-11T06:08:23.000Z</time>
      </trkpt>
      <trkpt lat="45.2733" lon="6.07464">
        <ele>1366.1999511719</ele>
        <time>2023-08-11T06:08:30.000Z</time>
      </trkpt>
      <trkpt lat="45.27329" lon="6.07462">
        <ele>1366.4000244141</ele>
        <time>2023-08-11T06:08:34.000Z</time>
      </trkpt>
      <trkpt lat="45.27327" lon="6.07459">
        <ele>1366.5999755859</ele>
        <time>2023-08-11T06:08:37.000Z</time>
      </trkpt>
      <trkpt lat="45.27322" lon="6.07453">
        <ele>1367.1999511719</ele>
        <time>2023-08-11T06:08:43.000Z</time>
      </trkpt>
      <trkpt lat="45.27323" lon="6.07455">
        <ele>1367.4000244141</ele>
        <time>2023-08-11T06:08:46.000Z</time>
      </trkpt>
      <trkpt lat="45.27324" lon="6.07455">
        <ele>1367.5999755859</ele>
        <time>2023-08-11T06:08:50.000Z</time>
      </trkpt>
      <trkpt lat="45.27321" lon="6.07447">
        <ele>1367.5999755859</ele>
        <time>2023-08-11T06:08:56.000Z</time>
      </trkpt>
      <trkpt lat="45.2732" lon="6.07445">
        <ele>1367.5999755859</ele>
        <time>2023-08-11T06:09:03.000Z</time>
      </trkpt>
      <trkpt lat="45.27319" lon="6.07443">
        <ele>1368.1999511719</ele>
        <time>2023-08-11T06:09:12.000Z</time>
      </trkpt>
      <trkpt lat="45.2732" lon="6.07442">
        <ele>1368.4000244141</ele>
        <time>2023-08-11T06:09:13.000Z</time>
      </trkpt>
      <trkpt lat="45.27317" lon="6.07436">
        <ele>1369.1999511719</ele>
        <time>2023-08-11T06:09:19.000Z</time>
      </trkpt>
      <trkpt lat="45.27317" lon="6.07435">
        <ele>1369.4000244141</ele>
        <time>2023-08-11T06:09:21.000Z</time>
      </trkpt>
      <trkpt lat="45.27314" lon="6.0743">
        <ele>1370.5999755859</ele>
        <time>2023-08-11T06:09:26.000Z</time>
      </trkpt>
      <trkpt lat="45.27311" lon="6.07429">
        <ele>1371.8000488281</ele>
        <time>2023-08-11T06:09:32.000Z</time>
      </trkpt>
      <trkpt lat="45.27309" lon="6.07429">
        <ele>1373</ele>
        <time>2023-08-11T06:09:38.000Z</time>
      </trkpt>
      <trkpt lat="45.27308" lon="6.07428">
        <ele>1373</ele>
        <time>2023-08-11T06:09:39.000Z</time>
      </trkpt>
      <trkpt lat="45.27304" lon="6.0742">
        <ele>1373.5999755859</ele>
        <time>2023-08-11T06:09:48.000Z</time>
      </trkpt>
      <trkpt lat="45.27302" lon="6.07421">
        <ele>1374</ele>
        <time>2023-08-11T06:09:53.000Z</time>
      </trkpt>
      <trkpt lat="45.27301" lon="6.07423">
        <ele>1374.4000244141</ele>
        <time>2023-08-11T06:09:56.000Z</time>
      </trkpt>
      <trkpt lat="45.27296" lon="6.0743">
        <ele>1375</ele>
        <time>2023-08-11T06:10:04.000Z</time>
      </trkpt>
      <trkpt lat="45.27296" lon="6.0743">
        <ele>1375.1999511719</ele>
        <time>2023-08-11T06:10:05.000Z</time>
      </trkpt>
      <trkpt lat="45.27291" lon="6.07431">
        <ele>1376.4000244141</ele>
        <time>2023-08-11T06:10:12.000Z</time>
      </trkpt>
      <trkpt lat="45.27286" lon="6.07427">
        <ele>1377.5999755859</ele>
        <time>2023-08-11T06:10:18.000Z</time>
      </trkpt>
      <trkpt lat="45.27282" lon="6.07423">
        <ele>1378.5999755859</ele>
        <time>2023-08-11T06:10:26.000Z</time>
      </trkpt>
      <trkpt lat="45.27281" lon="6.07423">
        <ele>1378.8000488281</ele>
        <time>2023-08-11T06:10:27.000Z</time>
      </trkpt>
      <trkpt lat="45.27281" lon="6.07417">
        <ele>1379.5999755859</ele>
        <time>2023-08-11T06:10:33.000Z</time>
      </trkpt>
      <trkpt lat="45.27281" lon="6.07414">
        <ele>1379.8000488281</ele>
        <time>2023-08-11T06:10:34.000Z</time>
      </trkpt>
      <trkpt lat="45.27281" lon="6.07407">
        <ele>1380.8000488281</ele>
        <time>2023-08-11T06:10:39.000Z</time>
      </trkpt>
      <trkpt lat="45.27281" lon="6.07406">
        <ele>1380.8000488281</ele>
        <time>2023-08-11T06:10:40.000Z</time>
      </trkpt>
      <trkpt lat="45.27278" lon="6.07404">
        <ele>1381.8000488281</ele>
        <time>2023-08-11T06:10:47.000Z</time>
      </trkpt>
      <trkpt lat="45.27277" lon="6.07404">
        <ele>1382</ele>
        <time>2023-08-11T06:10:49.000Z</time>
      </trkpt>
      <trkpt lat="45.27272" lon="6.07398">
        <ele>1383</ele>
        <time>2023-08-11T06:10:55.000Z</time>
      </trkpt>
      <trkpt lat="45.27272" lon="6.07398">
        <ele>1383.1999511719</ele>
        <time>2023-08-11T06:10:56.000Z</time>
      </trkpt>
      <trkpt lat="45.27272" lon="6.0739">
        <ele>1384.1999511719</ele>
        <time>2023-08-11T06:11:03.000Z</time>
      </trkpt>
      <trkpt lat="45.27271" lon="6.07388">
        <ele>1384.5999755859</ele>
        <time>2023-08-11T06:11:05.000Z</time>
      </trkpt>
      <trkpt lat="45.2727" lon="6.07388">
        <ele>1385.1999511719</ele>
        <time>2023-08-11T06:11:10.000Z</time>
      </trkpt>
      <trkpt lat="45.27266" lon="6.07387">
        <ele>1385.5999755859</ele>
        <time>2023-08-11T06:11:13.000Z</time>
      </trkpt>
      <trkpt lat="45.27262" lon="6.07386">
        <ele>1386.4000244141</ele>
        <time>2023-08-11T06:11:18.000Z</time>
      </trkpt>
      <trkpt lat="45.27262" lon="6.07385">
        <ele>1387</ele>
        <time>2023-08-11T06:11:21.000Z</time>
      </trkpt>
      <trkpt lat="45.2726" lon="6.07385">
        <ele>1387.4000244141</ele>
        <time>2023-08-11T06:11:24.000Z</time>
      </trkpt>
      <trkpt lat="45.27258" lon="6.07383">
        <ele>1388.1999511719</ele>
        <time>2023-08-11T06:11:29.000Z</time>
      </trkpt>
      <trkpt lat="45.27257" lon="6.07382">
        <ele>1388.5999755859</ele>
        <time>2023-08-11T06:11:30.000Z</time>
      </trkpt>
      <trkpt lat="45.27254" lon="6.07376">
        <ele>1389.4000244141</ele>
        <time>2023-08-11T06:11:36.000Z</time>
      </trkpt>
      <trkpt lat="45.27252" lon="6.07371">
        <ele>1389.5999755859</ele>
        <time>2023-08-11T06:11:41.000Z</time>
      </trkpt>
      <trkpt lat="45.27251" lon="6.07369">
        <ele>1389.5999755859</ele>
        <time>2023-08-11T06:11:44.000Z</time>
      </trkpt>
      <trkpt lat="45.27249" lon="6.07367">
        <ele>1390.4000244141</ele>
        <time>2023-08-11T06:11:51.000Z</time>
      </trkpt>
      <trkpt lat="45.27248" lon="6.07366">
        <ele>1390.8000488281</ele>
        <time>2023-08-11T06:11:53.000Z</time>
      </trkpt>
      <trkpt lat="45.27245" lon="6.07362">
        <ele>1391.1999511719</ele>
        <time>2023-08-11T06:11:57.000Z</time>
      </trkpt>
      <trkpt lat="45.27242" lon="6.07356">
        <ele>1391.8000488281</ele>
        <time>2023-08-11T06:12:02.000Z</time>
      </trkpt>
      <trkpt lat="45.27239" lon="6.07353">
        <ele>1392</ele>
        <time>2023-08-11T06:12:06.000Z</time>
      </trkpt>
      <trkpt lat="45.27234" lon="6.0735">
        <ele>1392.8000488281</ele>
        <time>2023-08-11T06:12:13.000Z</time>
      </trkpt>
      <trkpt lat="45.27232" lon="6.07348">
        <ele>1393.1999511719</ele>
        <time>2023-08-11T06:12:16.000Z</time>
      </trkpt>
      <trkpt lat="45.27231" lon="6.07344">
        <ele>1393.8000488281</ele>
        <time>2023-08-11T06:12:21.000Z</time>
      </trkpt>
      <trkpt lat="45.27232" lon="6.07342">
        <ele>1394.1999511719</ele>
        <time>2023-08-11T06:12:24.000Z</time>
      </trkpt>
      <trkpt lat="45.27231" lon="6.07338">
        <ele>1394.8000488281</ele>
        <time>2023-08-11T06:12:29.000Z</time>
      </trkpt>
      <trkpt lat="45.27229" lon="6.07335">
        <ele>1395.4000244141</ele>
        <time>2023-08-11T06:12:32.000Z</time>
      </trkpt>
      <trkpt lat="45.27228" lon="6.07334">
        <ele>1396</ele>
        <time>2023-08-11T06:12:35.000Z</time>
      </trkpt>
      <trkpt lat="45.27226" lon="6.0733">
        <ele>1396.5999755859</ele>
        <time>2023-08-11T06:12:39.000Z</time>
      </trkpt>
      <trkpt lat="45.27226" lon="6.07329">
        <ele>1397</ele>
        <time>2023-08-11T06:12:41.000Z</time>
      </trkpt>
      <trkpt lat="45.27229" lon="6.07325">
        <ele>1398</ele>
        <time>2023-08-11T06:12:46.000Z</time>
      </trkpt>
      <trkpt lat="45.27229" lon="6.07325">
        <ele>1398</ele>
        <time>2023-08-11T06:12:47.000Z</time>
      </trkpt>
      <trkpt lat="45.27225" lon="6.07323">
        <ele>1399.1999511719</ele>
        <time>2023-08-11T06:12:53.000Z</time>
      </trkpt>
      <trkpt lat="45.2722" lon="6.07317">
        <ele>1400.1999511719</ele>
        <time>2023-08-11T06:13:00.000Z</time>
      </trkpt>
      <trkpt lat="45.27219" lon="6.07316">
        <ele>1400.4000244141</ele>
        <time>2023-08-11T06:13:01.000Z</time>
      </trkpt>
      <trkpt lat="45.27221" lon="6.07314">
        <ele>1401.1999511719</ele>
        <time>2023-08-11T06:13:06.000Z</time>
      </trkpt>
      <trkpt lat="45.27222" lon="6.07312">
        <ele>1401.8000488281</ele>
        <time>2023-08-11T06:13:09.000Z</time>
      </trkpt>
      <trkpt lat="45.27223" lon="6.07312">
        <ele>1402.4000244141</ele>
        <time>2023-08-11T06:13:11.000Z</time>
      </trkpt>
      <trkpt lat="45.2722" lon="6.07309">
        <ele>1403.4000244141</ele>
        <time>2023-08-11T06:13:19.000Z</time>
      </trkpt>
      <trkpt lat="45.27218" lon="6.07308">
        <ele>1404.4000244141</ele>
        <time>2023-08-11T06:13:24.000Z</time>
      </trkpt>
      <trkpt lat="45.27216" lon="6.07307">
        <ele>1405.1999511719</ele>
        <time>2023-08-11T06:13:30.000Z</time>
      </trkpt>
      <trkpt lat="45.27215" lon="6.07306">
        <ele>1405.4000244141</ele>
        <time>2023-08-11T06:13:32.000Z</time>
      </trkpt>
      <trkpt lat="45.27214" lon="6.073">
        <ele>1406.5999755859</ele>
        <time>2023-08-11T06:13:39.000Z</time>
      </trkpt>
      <trkpt lat="45.27215" lon="6.07292">
        <ele>1407.8000488281</ele>
        <time>2023-08-11T06:13:47.000Z</time>
      </trkpt>
      <trkpt lat="45.27215" lon="6.07292">
        <ele>1408</ele>
        <time>2023-08-11T06:13:48.000Z</time>
      </trkpt>
      <trkpt lat="45.27214" lon="6.07288">
        <ele>1409</ele>
        <time>2023-08-11T06:13:53.000Z</time>
      </trkpt>
      <trkpt lat="45.27214" lon="6.07287">
        <ele>1410</ele>
        <time>2023-08-11T06:13:57.000Z</time>
      </trkpt>
      <trkpt lat="45.27214" lon="6.07286">
        <ele>1410.1999511719</ele>
        <time>2023-08-11T06:13:59.000Z</time>
      </trkpt>
      <trkpt lat="45.27214" lon="6.07282">
        <ele>1411.1999511719</ele>
        <time>2023-08-11T06:14:03.000Z</time>
      </trkpt>
      <trkpt lat="45.27213" lon="6.0728">
        <ele>1411.8000488281</ele>
        <time>2023-08-11T06:14:06.000Z</time>
      </trkpt>
      <trkpt lat="45.27212" lon="6.07278">
        <ele>1412.4000244141</ele>
        <time>2023-08-11T06:14:09.000Z</time>
      </trkpt>
      <trkpt lat="45.27211" lon="6.07279">
        <ele>1413.1999511719</ele>
        <time>2023-08-11T06:14:14.000Z</time>
      </trkpt>
      <trkpt lat="45.27211" lon="6.07279">
        <ele>1413.4000244141</ele>
        <time>2023-08-11T06:14:15.000Z</time>
      </trkpt>
      <trkpt lat="45.2721" lon="6.0728">
        <ele>1414.5999755859</ele>
        <time>2023-08-11T06:14:20.000Z</time>
      </trkpt>
      <trkpt lat="45.2721" lon="6.0728">
        <ele>1414.8000488281</ele>
        <time>2023-08-11T06:14:22.000Z</time>
      </trkpt>
      <trkpt lat="45.27208" lon="6.07281">
        <ele>1415.8000488281</ele>
        <time>2023-08-11T06:14:27.000Z</time>
      </trkpt>
      <trkpt lat="45.27208" lon="6.07278">
        <ele>1416.1999511719</ele>
        <time>2023-08-11T06:14:30.000Z</time>
      </trkpt>
      <trkpt lat="45.27209" lon="6.07274">
        <ele>1416.8000488281</ele>
        <time>2023-08-11T06:14:35.000Z</time>
      </trkpt>
      <trkpt lat="45.27209" lon="6.07271">
        <ele>1417.1999511719</ele>
        <time>2023-08-11T06:14:38.000Z</time>
      </trkpt>
      <trkpt lat="45.27208" lon="6.0727">
        <ele>1418</ele>
        <time>2023-08-11T06:14:43.000Z</time>
      </trkpt>
      <trkpt lat="45.27208" lon="6.07272">
        <ele>1418.8000488281</ele>
        <time>2023-08-11T06:14:47.000Z</time>
      </trkpt>
      <trkpt lat="45.27207" lon="6.07273">
        <ele>1419</ele>
        <time>2023-08-11T06:14:49.000Z</time>
      </trkpt>
      <trkpt lat="45.27203" lon="6.07275">
        <ele>1419.1999511719</ele>
        <time>2023-08-11T06:14:55.000Z</time>
      </trkpt>
      <trkpt lat="45.272" lon="6.07275">
        <ele>1420.1999511719</ele>
        <time>2023-08-11T06:15:02.000Z</time>
      </trkpt>
      <trkpt lat="45.27199" lon="6.07275">
        <ele>1420.1999511719</ele>
        <time>2023-08-11T06:15:03.000Z</time>
      </trkpt>
      <trkpt lat="45.27191" lon="6.0727">
        <ele>1420.8000488281</ele>
        <time>2023-08-11T06:15:11.000Z</time>
      </trkpt>
      <trkpt lat="45.27187" lon="6.07267">
        <ele>1421.1999511719</ele>
        <time>2023-08-11T06:15:14.000Z</time>
      </trkpt>
      <trkpt lat="45.27186" lon="6.07263">
        <ele>1421.8000488281</ele>
        <time>2023-08-11T06:15:18.000Z</time>
      </trkpt>
      <trkpt lat="45.27186" lon="6.07259">
        <ele>1422.4000244141</ele>
        <time>2023-08-11T06:15:22.000Z</time>
      </trkpt>
      <trkpt lat="45.27187" lon="6.07258">
        <ele>1423</ele>
        <time>2023-08-11T06:15:27.000Z</time>
      </trkpt>
      <trkpt lat="45.27187" lon="6.07259">
        <ele>1423.4000244141</ele>
        <time>2023-08-11T06:15:29.000Z</time>
      </trkpt>
      <trkpt lat="45.27186" lon="6.07259">
        <ele>1424.1999511719</ele>
        <time>2023-08-11T06:15:35.000Z</time>
      </trkpt>
      <trkpt lat="45.27186" lon="6.07257">
        <ele>1424.5999755859</ele>
        <time>2023-08-11T06:15:37.000Z</time>
      </trkpt>
      <trkpt lat="45.27182" lon="6.07255">
        <ele>1425.1999511719</ele>
        <time>2023-08-11T06:15:43.000Z</time>
      </trkpt>
      <trkpt lat="45.27179" lon="6.07252">
        <ele>1425.5999755859</ele>
        <time>2023-08-11T06:15:47.000Z</time>
      </trkpt>
      <trkpt lat="45.2718" lon="6.0725">
        <ele>1426.1999511719</ele>
        <time>2023-08-11T06:15:51.000Z</time>
      </trkpt>
      <trkpt lat="45.27181" lon="6.07248">
        <ele>1426.8000488281</ele>
        <time>2023-08-11T06:15:55.000Z</time>
      </trkpt>
      <trkpt lat="45.2718" lon="6.07246">
        <ele>1427.4000244141</ele>
        <time>2023-08-11T06:15:59.000Z</time>
      </trkpt>
      <trkpt lat="45.27179" lon="6.07246">
        <ele>1427.8000488281</ele>
        <time>2023-08-11T06:16:02.000Z</time>
      </trkpt>
      <trkpt lat="45.27176" lon="6.07246">
        <ele>1428.5999755859</ele>
        <time>2023-08-11T06:16:07.000Z</time>
      </trkpt>
      <trkpt lat="45.27176" lon="6.07245">
        <ele>1429</ele>
        <time>2023-08-11T06:16:11.000Z</time>
      </trkpt>
      <trkpt lat="45.27176" lon="6.07245">
        <ele>1429.8000488281</ele>
        <time>2023-08-11T06:16:16.000Z</time>
      </trkpt>
      <trkpt lat="45.27177" lon="6.07246">
        <ele>1430</ele>
        <time>2023-08-11T06:16:18.000Z</time>
      </trkpt>
      <trkpt lat="45.27177" lon="6.07248">
        <ele>1431</ele>
        <time>2023-08-11T06:16:23.000Z</time>
      </trkpt>
      <trkpt lat="45.27178" lon="6.07249">
        <ele>1431.4000244141</ele>
        <time>2023-08-11T06:16:25.000Z</time>
      </trkpt>
      <trkpt lat="45.2718" lon="6.0725">
        <ele>1431.5999755859</ele>
        <time>2023-08-11T06:16:34.000Z</time>
      </trkpt>
      <trkpt lat="45.27178" lon="6.07253">
        <ele>1430.5999755859</ele>
        <time>2023-08-11T06:16:42.000Z</time>
      </trkpt>
      <trkpt lat="45.27175" lon="6.07256">
        <ele>1432</ele>
        <time>2023-08-11T06:16:51.000Z</time>
      </trkpt>
      <trkpt lat="45.27173" lon="6.0726">
        <ele>1433.1999511719</ele>
        <time>2023-08-11T06:16:56.000Z</time>
      </trkpt>
      <trkpt lat="45.27171" lon="6.07262">
        <ele>1433.4000244141</ele>
        <time>2023-08-11T06:16:59.000Z</time>
      </trkpt>
      <trkpt lat="45.2717" lon="6.07264">
        <ele>1434.4000244141</ele>
        <time>2023-08-11T06:17:04.000Z</time>
      </trkpt>
      <trkpt lat="45.2717" lon="6.07265">
        <ele>1434.5999755859</ele>
        <time>2023-08-11T06:17:05.000Z</time>
      </trkpt>
      <trkpt lat="45.2717" lon="6.0727">
        <ele>1435.4000244141</ele>
        <time>2023-08-11T06:17:12.000Z</time>
      </trkpt>
      <trkpt lat="45.27168" lon="6.07263">
        <ele>1436</ele>
        <time>2023-08-11T06:17:19.000Z</time>
      </trkpt>
      <trkpt lat="45.27167" lon="6.0726">
        <ele>1436.5999755859</ele>
        <time>2023-08-11T06:17:21.000Z</time>
      </trkpt>
      <trkpt lat="45.27167" lon="6.07257">
        <ele>1437.1999511719</ele>
        <time>2023-08-11T06:17:26.000Z</time>
      </trkpt>
      <trkpt lat="45.27167" lon="6.07254">
        <ele>1437.5999755859</ele>
        <time>2023-08-11T06:17:30.000Z</time>
      </trkpt>
      <trkpt lat="45.27165" lon="6.07253">
        <ele>1438.4000244141</ele>
        <time>2023-08-11T06:17:35.000Z</time>
      </trkpt>
      <trkpt lat="45.27164" lon="6.07252">
        <ele>1438.8000488281</ele>
        <time>2023-08-11T06:17:37.000Z</time>
      </trkpt>
      <trkpt lat="45.27162" lon="6.07256">
        <ele>1439.8000488281</ele>
        <time>2023-08-11T06:17:45.000Z</time>
      </trkpt>
      <trkpt lat="45.27157" lon="6.07256">
        <ele>1440.8000488281</ele>
        <time>2023-08-11T06:17:52.000Z</time>
      </trkpt>
      <trkpt lat="45.27156" lon="6.07247">
        <ele>1442</ele>
        <time>2023-08-11T06:17:59.000Z</time>
      </trkpt>
      <trkpt lat="45.27156" lon="6.07246">
        <ele>1442.1999511719</ele>
        <time>2023-08-11T06:18:00.000Z</time>
      </trkpt>
      <trkpt lat="45.27156" lon="6.07248">
        <ele>1443.1999511719</ele>
        <time>2023-08-11T06:18:07.000Z</time>
      </trkpt>
      <trkpt lat="45.27156" lon="6.07248">
        <ele>1443.4000244141</ele>
        <time>2023-08-11T06:18:08.000Z</time>
      </trkpt>
      <trkpt lat="45.27154" lon="6.07251">
        <ele>1444.1999511719</ele>
        <time>2023-08-11T06:18:13.000Z</time>
      </trkpt>
      <trkpt lat="45.27153" lon="6.07251">
        <ele>1444.8000488281</ele>
        <time>2023-08-11T06:18:17.000Z</time>
      </trkpt>
      <trkpt lat="45.27151" lon="6.07249">
        <ele>1445.1999511719</ele>
        <time>2023-08-11T06:18:20.000Z</time>
      </trkpt>
      <trkpt lat="45.2715" lon="6.07246">
        <ele>1446</ele>
        <time>2023-08-11T06:18:26.000Z</time>
      </trkpt>
      <trkpt lat="45.27151" lon="6.07246">
        <ele>1446.1999511719</ele>
        <time>2023-08-11T06:18:27.000Z</time>
      </trkpt>
      <trkpt lat="45.27152" lon="6.07241">
        <ele>1447.1999511719</ele>
        <time>2023-08-11T06:18:33.000Z</time>
      </trkpt>
      <trkpt lat="45.27148" lon="6.07233">
        <ele>1447.4000244141</ele>
        <time>2023-08-11T06:18:39.000Z</time>
      </trkpt>
      <trkpt lat="45.27146" lon="6.07232">
        <ele>1447.8000488281</ele>
        <time>2023-08-11T06:18:41.000Z</time>
      </trkpt>
      <trkpt lat="45.27144" lon="6.07231">
        <ele>1448.5999755859</ele>
        <time>2023-08-11T06:18:45.000Z</time>
      </trkpt>
      <trkpt lat="45.27145" lon="6.07231">
        <ele>1449.1999511719</ele>
        <time>2023-08-11T06:18:48.000Z</time>
      </trkpt>
      <trkpt lat="45.27147" lon="6.07233">
        <ele>1449.5999755859</ele>
        <time>2023-08-11T06:18:51.000Z</time>
      </trkpt>
      <trkpt lat="45.27146" lon="6.07236">
        <ele>1450.1999511719</ele>
        <time>2023-08-11T06:18:55.000Z</time>
      </trkpt>
      <trkpt lat="45.2715" lon="6.07248">
        <ele>1450.1999511719</ele>
        <time>2023-08-11T06:19:02.000Z</time>
      </trkpt>
      <trkpt lat="45.27151" lon="6.07251">
        <ele>1450</ele>
        <time>2023-08-11T06:19:12.000Z</time>
      </trkpt>
      <trkpt lat="45.27146" lon="6.07241">
        <ele>1450.1999511719</ele>
        <time>2023-08-11T06:19:20.000Z</time>
      </trkpt>
      <trkpt lat="45.27144" lon="6.07234">
        <ele>1450.8000488281</ele>
        <time>2023-08-11T06:19:24.000Z</time>
      </trkpt>
      <trkpt lat="45.27142" lon="6.07231">
        <ele>1451.5999755859</ele>
        <time>2023-08-11T06:19:29.000Z</time>
      </trkpt>
      <trkpt lat="45.27142" lon="6.07231">
        <ele>1452</ele>
        <time>2023-08-11T06:19:30.000Z</time>
      </trkpt>
      <trkpt lat="45.2714" lon="6.07227">
        <ele>1453</ele>
        <time>2023-08-11T06:19:37.000Z</time>
      </trkpt>
      <trkpt lat="45.2714" lon="6.07223">
        <ele>1454.1999511719</ele>
        <time>2023-08-11T06:19:44.000Z</time>
      </trkpt>
      <trkpt lat="45.27139" lon="6.07223">
        <ele>1454.1999511719</ele>
        <time>2023-08-11T06:19:45.000Z</time>
      </trkpt>
      <trkpt lat="45.27136" lon="6.07219">
        <ele>1455.1999511719</ele>
        <time>2023-08-11T06:19:51.000Z</time>
      </trkpt>
      <trkpt lat="45.27136" lon="6.07217">
        <ele>1455.4000244141</ele>
        <time>2023-08-11T06:19:53.000Z</time>
      </trkpt>
      <trkpt lat="45.27136" lon="6.07218">
        <ele>1456.1999511719</ele>
        <time>2023-08-11T06:19:57.000Z</time>
      </trkpt>
      <trkpt lat="45.27134" lon="6.07218">
        <ele>1456.5999755859</ele>
        <time>2023-08-11T06:19:59.000Z</time>
      </trkpt>
      <trkpt lat="45.27131" lon="6.07212">
        <ele>1457.1999511719</ele>
        <time>2023-08-11T06:20:04.000Z</time>
      </trkpt>
      <trkpt lat="45.2713" lon="6.07209">
        <ele>1457.5999755859</ele>
        <time>2023-08-11T06:20:06.000Z</time>
      </trkpt>
      <trkpt lat="45.27128" lon="6.07206">
        <ele>1458.1999511719</ele>
        <time>2023-08-11T06:20:10.000Z</time>
      </trkpt>
      <trkpt lat="45.27127" lon="6.07205">
        <ele>1458.8000488281</ele>
        <time>2023-08-11T06:20:13.000Z</time>
      </trkpt>
      <trkpt lat="45.27127" lon="6.07204">
        <ele>1459.4000244141</ele>
        <time>2023-08-11T06:20:16.000Z</time>
      </trkpt>
      <trkpt lat="45.27127" lon="6.07202">
        <ele>1460.4000244141</ele>
        <time>2023-08-11T06:20:22.000Z</time>
      </trkpt>
      <trkpt lat="45.27127" lon="6.07202">
        <ele>1460.4000244141</ele>
        <time>2023-08-11T06:20:23.000Z</time>
      </trkpt>
      <trkpt lat="45.27124" lon="6.072">
        <ele>1461.4000244141</ele>
        <time>2023-08-11T06:20:28.000Z</time>
      </trkpt>
      <trkpt lat="45.27122" lon="6.07199">
        <ele>1462</ele>
        <time>2023-08-11T06:20:32.000Z</time>
      </trkpt>
      <trkpt lat="45.2712" lon="6.07195">
        <ele>1462.4000244141</ele>
        <time>2023-08-11T06:20:37.000Z</time>
      </trkpt>
      <trkpt lat="45.27117" lon="6.07193">
        <ele>1463.4000244141</ele>
        <time>2023-08-11T06:20:41.000Z</time>
      </trkpt>
      <trkpt lat="45.27117" lon="6.07194">
        <ele>1463.5999755859</ele>
        <time>2023-08-11T06:20:43.000Z</time>
      </trkpt>
      <trkpt lat="45.27115" lon="6.07196">
        <ele>1464.4000244141</ele>
        <time>2023-08-11T06:20:49.000Z</time>
      </trkpt>
      <trkpt lat="45.27115" lon="6.07196">
        <ele>1464.5999755859</ele>
        <time>2023-08-11T06:20:50.000Z</time>
      </trkpt>
      <trkpt lat="45.27114" lon="6.07191">
        <ele>1465.4000244141</ele>
        <time>2023-08-11T06:20:57.000Z</time>
      </trkpt>
      <trkpt lat="45.27113" lon="6.0719">
        <ele>1465.5999755859</ele>
        <time>2023-08-11T06:20:59.000Z</time>
      </trkpt>
      <trkpt lat="45.27109" lon="6.07184">
        <ele>1466.5999755859</ele>
        <time>2023-08-11T06:21:05.000Z</time>
      </trkpt>
      <trkpt lat="45.27109" lon="6.07184">
        <ele>1467</ele>
        <time>2023-08-11T06:21:06.000Z</time>
      </trkpt>
      <trkpt lat="45.27109" lon="6.0718">
        <ele>1467.8000488281</ele>
        <time>2023-08-11T06:21:13.000Z</time>
      </trkpt>
      <trkpt lat="45.27109" lon="6.0718">
        <ele>1467.8000488281</ele>
        <time>2023-08-11T06:21:14.000Z</time>
      </trkpt>
      <trkpt lat="45.27106" lon="6.07179">
        <ele>1468.5999755859</ele>
        <time>2023-08-11T06:21:18.000Z</time>
      </trkpt>
      <trkpt lat="45.27105" lon="6.07178">
        <ele>1468.8000488281</ele>
        <time>2023-08-11T06:21:19.000Z</time>
      </trkpt>
      <trkpt lat="45.27105" lon="6.07177">
        <ele>1469</ele>
        <time>2023-08-11T06:21:20.000Z</time>
      </trkpt>
      <trkpt lat="45.27106" lon="6.07174">
        <ele>1469.8000488281</ele>
        <time>2023-08-11T06:21:25.000Z</time>
      </trkpt>
      <trkpt lat="45.27106" lon="6.07172">
        <ele>1469.8000488281</ele>
        <time>2023-08-11T06:21:27.000Z</time>
      </trkpt>
      <trkpt lat="45.27104" lon="6.07167">
        <ele>1470.4000244141</ele>
        <time>2023-08-11T06:21:33.000Z</time>
      </trkpt>
      <trkpt lat="45.27103" lon="6.07167">
        <ele>1470.8000488281</ele>
        <time>2023-08-11T06:21:34.000Z</time>
      </trkpt>
      <trkpt lat="45.271" lon="6.0717">
        <ele>1471.5999755859</ele>
        <time>2023-08-11T06:21:41.000Z</time>
      </trkpt>
      <trkpt lat="45.27099" lon="6.07169">
        <ele>1472</ele>
        <time>2023-08-11T06:21:42.000Z</time>
      </trkpt>
      <trkpt lat="45.27096" lon="6.07167">
        <ele>1473</ele>
        <time>2023-08-11T06:21:49.000Z</time>
      </trkpt>
      <trkpt lat="45.27096" lon="6.07167">
        <ele>1473</ele>
        <time>2023-08-11T06:21:50.000Z</time>
      </trkpt>
      <trkpt lat="45.27093" lon="6.07164">
        <ele>1474.1999511719</ele>
        <time>2023-08-11T06:21:57.000Z</time>
      </trkpt>
      <trkpt lat="45.27092" lon="6.07163">
        <ele>1474.5999755859</ele>
        <time>2023-08-11T06:21:59.000Z</time>
      </trkpt>
      <trkpt lat="45.2709" lon="6.07159">
        <ele>1475</ele>
        <time>2023-08-11T06:22:06.000Z</time>
      </trkpt>
      <trkpt lat="45.27089" lon="6.07159">
        <ele>1475.4000244141</ele>
        <time>2023-08-11T06:22:08.000Z</time>
      </trkpt>
      <trkpt lat="45.27088" lon="6.07158">
        <ele>1476.5999755859</ele>
        <time>2023-08-11T06:22:14.000Z</time>
      </trkpt>
      <trkpt lat="45.27088" lon="6.07155">
        <ele>1477.8000488281</ele>
        <time>2023-08-11T06:22:20.000Z</time>
      </trkpt>
      <trkpt lat="45.27087" lon="6.07151">
        <ele>1478.4000244141</ele>
        <time>2023-08-11T06:22:24.000Z</time>
      </trkpt>
      <trkpt lat="45.27086" lon="6.0715">
        <ele>1478.8000488281</ele>
        <time>2023-08-11T06:22:26.000Z</time>
      </trkpt>
      <trkpt lat="45.27083" lon="6.07143">
        <ele>1479.8000488281</ele>
        <time>2023-08-11T06:22:32.000Z</time>
      </trkpt>
      <trkpt lat="45.27079" lon="6.0714">
        <ele>1481</ele>
        <time>2023-08-11T06:22:38.000Z</time>
      </trkpt>
      <trkpt lat="45.27078" lon="6.07138">
        <ele>1481.5999755859</ele>
        <time>2023-08-11T06:22:43.000Z</time>
      </trkpt>
      <trkpt lat="45.27077" lon="6.07138">
        <ele>1482.1999511719</ele>
        <time>2023-08-11T06:22:46.000Z</time>
      </trkpt>
      <trkpt lat="45.27075" lon="6.07137">
        <ele>1483</ele>
        <time>2023-08-11T06:22:51.000Z</time>
      </trkpt>
      <trkpt lat="45.27075" lon="6.07137">
        <ele>1483.1999511719</ele>
        <time>2023-08-11T06:22:53.000Z</time>
      </trkpt>
      <trkpt lat="45.27071" lon="6.07135">
        <ele>1484</ele>
        <time>2023-08-11T06:23:01.000Z</time>
      </trkpt>
      <trkpt lat="45.27068" lon="6.07133">
        <ele>1484.1999511719</ele>
        <time>2023-08-11T06:23:04.000Z</time>
      </trkpt>
      <trkpt lat="45.27066" lon="6.07132">
        <ele>1484.5999755859</ele>
        <time>2023-08-11T06:23:09.000Z</time>
      </trkpt>
      <trkpt lat="45.27065" lon="6.07125">
        <ele>1484.8000488281</ele>
        <time>2023-08-11T06:23:16.000Z</time>
      </trkpt>
      <trkpt lat="45.27056" lon="6.07117">
        <ele>1485.1999511719</ele>
        <time>2023-08-11T06:23:25.000Z</time>
      </trkpt>
      <trkpt lat="45.27056" lon="6.07117">
        <ele>1485.1999511719</ele>
        <time>2023-08-11T06:23:26.000Z</time>
      </trkpt>
      <trkpt lat="45.27052" lon="6.07116">
        <ele>1486.1999511719</ele>
        <time>2023-08-11T06:23:33.000Z</time>
      </trkpt>
      <trkpt lat="45.27051" lon="6.07116">
        <ele>1486.4000244141</ele>
        <time>2023-08-11T06:23:34.000Z</time>
      </trkpt>
      <trkpt lat="45.27044" lon="6.07116">
        <ele>1487.5999755859</ele>
        <time>2023-08-11T06:23:43.000Z</time>
      </trkpt>
      <trkpt lat="45.27042" lon="6.07114">
        <ele>1488.8000488281</ele>
        <time>2023-08-11T06:23:50.000Z</time>
      </trkpt>
      <trkpt lat="45.27041" lon="6.07114">
        <ele>1489</ele>
        <time>2023-08-11T06:23:51.000Z</time>
      </trkpt>
      <trkpt lat="45.27037" lon="6.07113">
        <ele>1489.8000488281</ele>
        <time>2023-08-11T06:23:56.000Z</time>
      </trkpt>
      <trkpt lat="45.27035" lon="6.07113">
        <ele>1490.4000244141</ele>
        <time>2023-08-11T06:24:00.000Z</time>
      </trkpt>
      <trkpt lat="45.27034" lon="6.07114">
        <ele>1490.8000488281</ele>
        <time>2023-08-11T06:24:03.000Z</time>
      </trkpt>
      <trkpt lat="45.27029" lon="6.0711">
        <ele>1491.8000488281</ele>
        <time>2023-08-11T06:24:10.000Z</time>
      </trkpt>
      <trkpt lat="45.27029" lon="6.07101">
        <ele>1492.8000488281</ele>
        <time>2023-08-11T06:24:16.000Z</time>
      </trkpt>
      <trkpt lat="45.27029" lon="6.07101">
        <ele>1492.8000488281</ele>
        <time>2023-08-11T06:24:17.000Z</time>
      </trkpt>
      <trkpt lat="45.27027" lon="6.07096">
        <ele>1493.8000488281</ele>
        <time>2023-08-11T06:24:24.000Z</time>
      </trkpt>
      <trkpt lat="45.27027" lon="6.07095">
        <ele>1494</ele>
        <time>2023-08-11T06:24:25.000Z</time>
      </trkpt>
      <trkpt lat="45.27024" lon="6.07094">
        <ele>1495.1999511719</ele>
        <time>2023-08-11T06:24:31.000Z</time>
      </trkpt>
      <trkpt lat="45.27023" lon="6.07093">
        <ele>1495.5999755859</ele>
        <time>2023-08-11T06:24:34.000Z</time>
      </trkpt>
      <trkpt lat="45.27022" lon="6.07092">
        <ele>1496.1999511719</ele>
        <time>2023-08-11T06:24:39.000Z</time>
      </trkpt>
      <trkpt lat="45.27019" lon="6.07087">
        <ele>1496.8000488281</ele>
        <time>2023-08-11T06:24:43.000Z</time>
      </trkpt>
      <trkpt lat="45.27017" lon="6.07084">
        <ele>1497.4000244141</ele>
        <time>2023-08-11T06:24:46.000Z</time>
      </trkpt>
      <trkpt lat="45.27015" lon="6.0708">
        <ele>1498.1999511719</ele>
        <time>2023-08-11T06:24:51.000Z</time>
      </trkpt>
      <trkpt lat="45.27015" lon="6.07078">
        <ele>1498.4000244141</ele>
        <time>2023-08-11T06:24:53.000Z</time>
      </trkpt>
      <trkpt lat="45.27013" lon="6.07078">
        <ele>1499.4000244141</ele>
        <time>2023-08-11T06:24:58.000Z</time>
      </trkpt>
      <trkpt lat="45.27012" lon="6.07078">
        <ele>1499.5999755859</ele>
        <time>2023-08-11T06:24:59.000Z</time>
      </trkpt>
      <trkpt lat="45.27008" lon="6.07078">
        <ele>1500.4000244141</ele>
        <time>2023-08-11T06:25:04.000Z</time>
      </trkpt>
      <trkpt lat="45.27008" lon="6.07077">
        <ele>1500.5999755859</ele>
        <time>2023-08-11T06:25:06.000Z</time>
      </trkpt>
      <trkpt lat="45.27007" lon="6.07073">
        <ele>1501.1999511719</ele>
        <time>2023-08-11T06:25:11.000Z</time>
      </trkpt>
      <trkpt lat="45.27006" lon="6.07071">
        <ele>1501.4000244141</ele>
        <time>2023-08-11T06:25:12.000Z</time>
      </trkpt>
      <trkpt lat="45.27003" lon="6.07067">
        <ele>1502.4000244141</ele>
        <time>2023-08-11T06:25:18.000Z</time>
      </trkpt>
      <trkpt lat="45.27002" lon="6.07065">
        <ele>1503.5999755859</ele>
        <time>2023-08-11T06:25:24.000Z</time>
      </trkpt>
      <trkpt lat="45.27001" lon="6.07064">
        <ele>1503.8000488281</ele>
        <time>2023-08-11T06:25:25.000Z</time>
      </trkpt>
      <trkpt lat="45.27" lon="6.07063">
        <ele>1504.5999755859</ele>
        <time>2023-08-11T06:25:31.000Z</time>
      </trkpt>
      <trkpt lat="45.26999" lon="6.07065">
        <ele>1504.8000488281</ele>
        <time>2023-08-11T06:25:33.000Z</time>
      </trkpt>
      <trkpt lat="45.26997" lon="6.07065">
        <ele>1505.8000488281</ele>
        <time>2023-08-11T06:25:38.000Z</time>
      </trkpt>
      <trkpt lat="45.26995" lon="6.07066">
        <ele>1506</ele>
        <time>2023-08-11T06:25:40.000Z</time>
      </trkpt>
      <trkpt lat="45.26989" lon="6.07064">
        <ele>1506.8000488281</ele>
        <time>2023-08-11T06:25:46.000Z</time>
      </trkpt>
      <trkpt lat="45.26988" lon="6.07064">
        <ele>1507</ele>
        <time>2023-08-11T06:25:48.000Z</time>
      </trkpt>
      <trkpt lat="45.26986" lon="6.07064">
        <ele>1507.8000488281</ele>
        <time>2023-08-11T06:25:53.000Z</time>
      </trkpt>
      <trkpt lat="45.26985" lon="6.07064">
        <ele>1508.4000244141</ele>
        <time>2023-08-11T06:25:56.000Z</time>
      </trkpt>
      <trkpt lat="45.26981" lon="6.07066">
        <ele>1509</ele>
        <time>2023-08-11T06:26:02.000Z</time>
      </trkpt>
      <trkpt lat="45.26981" lon="6.07067">
        <ele>1509.4000244141</ele>
        <time>2023-08-11T06:26:04.000Z</time>
      </trkpt>
      <trkpt lat="45.26974" lon="6.07072">
        <ele>1510.1999511719</ele>
        <time>2023-08-11T06:26:12.000Z</time>
      </trkpt>
      <trkpt lat="45.26972" lon="6.07072">
        <ele>1510.1999511719</ele>
        <time>2023-08-11T06:26:13.000Z</time>
      </trkpt>
      <trkpt lat="45.26966" lon="6.07069">
        <ele>1510.8000488281</ele>
        <time>2023-08-11T06:26:19.000Z</time>
      </trkpt>
      <trkpt lat="45.26963" lon="6.07064">
        <ele>1511.1999511719</ele>
        <time>2023-08-11T06:26:24.000Z</time>
      </trkpt>
      <trkpt lat="45.26961" lon="6.0706">
        <ele>1511.5999755859</ele>
        <time>2023-08-11T06:26:27.000Z</time>
      </trkpt>
      <trkpt lat="45.26957" lon="6.07058">
        <ele>1512.4000244141</ele>
        <time>2023-08-11T06:26:32.000Z</time>
      </trkpt>
      <trkpt lat="45.26957" lon="6.07057">
        <ele>1512.8000488281</ele>
        <time>2023-08-11T06:26:34.000Z</time>
      </trkpt>
      <trkpt lat="45.26957" lon="6.07059">
        <ele>1513.4000244141</ele>
        <time>2023-08-11T06:26:37.000Z</time>
      </trkpt>
      <trkpt lat="45.26957" lon="6.07063">
        <ele>1513.5999755859</ele>
        <time>2023-08-11T06:26:41.000Z</time>
      </trkpt>
      <trkpt lat="45.26957" lon="6.07072">
        <ele>1514.4000244141</ele>
        <time>2023-08-11T06:26:49.000Z</time>
      </trkpt>
      <trkpt lat="45.26957" lon="6.0708">
        <ele>1515</ele>
        <time>2023-08-11T06:26:55.000Z</time>
      </trkpt>
      <trkpt lat="45.26957" lon="6.07084">
        <ele>1515.4000244141</ele>
        <time>2023-08-11T06:26:58.000Z</time>
      </trkpt>
      <trkpt lat="45.26954" lon="6.0709">
        <ele>1516.4000244141</ele>
        <time>2023-08-11T06:27:04.000Z</time>
      </trkpt>
      <trkpt lat="45.26953" lon="6.0709">
        <ele>1516.5999755859</ele>
        <time>2023-08-11T06:27:05.000Z</time>
      </trkpt>
      <trkpt lat="45.26947" lon="6.0709">
        <ele>1517.1999511719</ele>
        <time>2023-08-11T06:27:10.000Z</time>
      </trkpt>
      <trkpt lat="45.26942" lon="6.0709">
        <ele>1517.5999755859</ele>
        <time>2023-08-11T06:27:15.000Z</time>
      </trkpt>
      <trkpt lat="45.26939" lon="6.07089">
        <ele>1518</ele>
        <time>2023-08-11T06:27:17.000Z</time>
      </trkpt>
      <trkpt lat="45.26933" lon="6.07089">
        <ele>1518.8000488281</ele>
        <time>2023-08-11T06:27:24.000Z</time>
      </trkpt>
      <trkpt lat="45.26932" lon="6.07089">
        <ele>1518.8000488281</ele>
        <time>2023-08-11T06:27:25.000Z</time>
      </trkpt>
      <trkpt lat="45.26925" lon="6.07091">
        <ele>1519.5999755859</ele>
        <time>2023-08-11T06:27:33.000Z</time>
      </trkpt>
      <trkpt lat="45.26923" lon="6.07093">
        <ele>1519.8000488281</ele>
        <time>2023-08-11T06:27:37.000Z</time>
      </trkpt>
      <trkpt lat="45.26916" lon="6.07098">
        <ele>1520.5999755859</ele>
        <time>2023-08-11T06:27:43.000Z</time>
      </trkpt>
      <trkpt lat="45.26914" lon="6.07099">
        <ele>1520.8000488281</ele>
        <time>2023-08-11T06:27:45.000Z</time>
      </trkpt>
      <trkpt lat="45.26908" lon="6.07101">
        <ele>1521.1999511719</ele>
        <time>2023-08-11T06:27:51.000Z</time>
      </trkpt>
      <trkpt lat="45.26905" lon="6.071">
        <ele>1522</ele>
        <time>2023-08-11T06:27:55.000Z</time>
      </trkpt>
      <trkpt lat="45.26902" lon="6.07098">
        <ele>1522.5999755859</ele>
        <time>2023-08-11T06:27:59.000Z</time>
      </trkpt>
      <trkpt lat="45.26901" lon="6.07097">
        <ele>1523</ele>
        <time>2023-08-11T06:28:01.000Z</time>
      </trkpt>
      <trkpt lat="45.26896" lon="6.07092">
        <ele>1523.8000488281</ele>
        <time>2023-08-11T06:28:07.000Z</time>
      </trkpt>
      <trkpt lat="45.26894" lon="6.07089">
        <ele>1524</ele>
        <time>2023-08-11T06:28:10.000Z</time>
      </trkpt>
      <trkpt lat="45.26891" lon="6.07086">
        <ele>1524.5999755859</ele>
        <time>2023-08-11T06:28:14.000Z</time>
      </trkpt>
      <trkpt lat="45.26887" lon="6.07083">
        <ele>1525.1999511719</ele>
        <time>2023-08-11T06:28:20.000Z</time>
      </trkpt>
      <trkpt lat="45.26886" lon="6.07084">
        <ele>1525.1999511719</ele>
        <time>2023-08-11T06:28:22.000Z</time>
      </trkpt>
      <trkpt lat="45.26885" lon="6.07085">
        <ele>1525.5999755859</ele>
        <time>2023-08-11T06:28:24.000Z</time>
      </trkpt>
      <trkpt lat="45.26882" lon="6.07088">
        <ele>1526.1999511719</ele>
        <time>2023-08-11T06:28:30.000Z</time>
      </trkpt>
      <trkpt lat="45.26879" lon="6.0709">
        <ele>1527.1999511719</ele>
        <time>2023-08-11T06:28:37.000Z</time>
      </trkpt>
      <trkpt lat="45.26878" lon="6.07092">
        <ele>1527.5999755859</ele>
        <time>2023-08-11T06:28:39.000Z</time>
      </trkpt>
      <trkpt lat="45.26875" lon="6.07096">
        <ele>1528.1999511719</ele>
        <time>2023-08-11T06:28:43.000Z</time>
      </trkpt>
      <trkpt lat="45.26873" lon="6.07101">
        <ele>1528.8000488281</ele>
        <time>2023-08-11T06:28:47.000Z</time>
      </trkpt>
      <trkpt lat="45.26871" lon="6.07104">
        <ele>1529</ele>
        <time>2023-08-11T06:28:54.000Z</time>
      </trkpt>
      <trkpt lat="45.2687" lon="6.07103">
        <ele>1528.8000488281</ele>
        <time>2023-08-11T06:29:02.000Z</time>
      </trkpt>
      <trkpt lat="45.26872" lon="6.07107">
        <ele>1528.8000488281</ele>
        <time>2023-08-11T06:29:11.000Z</time>
      </trkpt>
      <trkpt lat="45.26867" lon="6.07109">
        <ele>1528.8000488281</ele>
        <time>2023-08-11T06:29:18.000Z</time>
      </trkpt>
      <trkpt lat="45.26859" lon="6.07114">
        <ele>1528.4000244141</ele>
        <time>2023-08-11T06:29:27.000Z</time>
      </trkpt>
      <trkpt lat="45.26852" lon="6.07119">
        <ele>1528.8000488281</ele>
        <time>2023-08-11T06:29:37.000Z</time>
      </trkpt>
      <trkpt lat="45.2685" lon="6.07119">
        <ele>1529.4000244141</ele>
        <time>2023-08-11T06:29:40.000Z</time>
      </trkpt>
      <trkpt lat="45.26846" lon="6.07119">
        <ele>1530.5999755859</ele>
        <time>2023-08-11T06:29:45.000Z</time>
      </trkpt>
      <trkpt lat="45.26847" lon="6.07119">
        <ele>1530.8000488281</ele>
        <time>2023-08-11T06:29:46.000Z</time>
      </trkpt>
      <trkpt lat="45.26844" lon="6.0712">
        <ele>1531.8000488281</ele>
        <time>2023-08-11T06:29:52.000Z</time>
      </trkpt>
      <trkpt lat="45.26844" lon="6.07119">
        <ele>1532.1999511719</ele>
        <time>2023-08-11T06:29:54.000Z</time>
      </trkpt>
      <trkpt lat="45.26843" lon="6.07119">
        <ele>1532.8000488281</ele>
        <time>2023-08-11T06:29:57.000Z</time>
      </trkpt>
      <trkpt lat="45.26839" lon="6.0712">
        <ele>1534</ele>
        <time>2023-08-11T06:30:03.000Z</time>
      </trkpt>
      <trkpt lat="45.26838" lon="6.07119">
        <ele>1534.4000244141</ele>
        <time>2023-08-11T06:30:04.000Z</time>
      </trkpt>
      <trkpt lat="45.26833" lon="6.07118">
        <ele>1535.1999511719</ele>
        <time>2023-08-11T06:30:09.000Z</time>
      </trkpt>
      <trkpt lat="45.26834" lon="6.07117">
        <ele>1535.4000244141</ele>
        <time>2023-08-11T06:30:11.000Z</time>
      </trkpt>
      <trkpt lat="45.26831" lon="6.07113">
        <ele>1536.1999511719</ele>
        <time>2023-08-11T06:30:16.000Z</time>
      </trkpt>
      <trkpt lat="45.2683" lon="6.07112">
        <ele>1536.1999511719</ele>
        <time>2023-08-11T06:30:17.000Z</time>
      </trkpt>
      <trkpt lat="45.26829" lon="6.07111">
        <ele>1537.1999511719</ele>
        <time>2023-08-11T06:30:21.000Z</time>
      </trkpt>
      <trkpt lat="45.26827" lon="6.07109">
        <ele>1537.5999755859</ele>
        <time>2023-08-11T06:30:24.000Z</time>
      </trkpt>
      <trkpt lat="45.26825" lon="6.07108">
        <ele>1538.1999511719</ele>
        <time>2023-08-11T06:30:27.000Z</time>
      </trkpt>
      <trkpt lat="45.26823" lon="6.07108">
        <ele>1538.5999755859</ele>
        <time>2023-08-11T06:30:33.000Z</time>
      </trkpt>
      <trkpt lat="45.26827" lon="6.07107">
        <ele>1538.5999755859</ele>
        <time>2023-08-11T06:30:40.000Z</time>
      </trkpt>
      <trkpt lat="45.26821" lon="6.0711">
        <ele>1538.8000488281</ele>
        <time>2023-08-11T06:30:48.000Z</time>
      </trkpt>
      <trkpt lat="45.26818" lon="6.0711">
        <ele>1539.1999511719</ele>
        <time>2023-08-11T06:30:50.000Z</time>
      </trkpt>
      <trkpt lat="45.26815" lon="6.07111">
        <ele>1540</ele>
        <time>2023-08-11T06:30:54.000Z</time>
      </trkpt>
      <trkpt lat="45.26814" lon="6.07111">
        <ele>1540.4000244141</ele>
        <time>2023-08-11T06:30:56.000Z</time>
      </trkpt>
      <trkpt lat="45.26809" lon="6.07111">
        <ele>1541.5999755859</ele>
        <time>2023-08-11T06:31:02.000Z</time>
      </trkpt>
      <trkpt lat="45.26805" lon="6.07107">
        <ele>1542.4000244141</ele>
        <time>2023-08-11T06:31:10.000Z</time>
      </trkpt>
      <trkpt lat="45.26803" lon="6.07102">
        <ele>1542.5999755859</ele>
        <time>2023-08-11T06:31:14.000Z</time>
      </trkpt>
      <trkpt lat="45.26801" lon="6.07096">
        <ele>1542.8000488281</ele>
        <time>2023-08-11T06:31:17.000Z</time>
      </trkpt>
      <trkpt lat="45.26799" lon="6.07084">
        <ele>1543.4000244141</ele>
        <time>2023-08-11T06:31:25.000Z</time>
      </trkpt>
      <trkpt lat="45.26799" lon="6.07082">
        <ele>1543.5999755859</ele>
        <time>2023-08-11T06:31:27.000Z</time>
      </trkpt>
      <trkpt lat="45.26797" lon="6.07077">
        <ele>1544.8000488281</ele>
        <time>2023-08-11T06:31:33.000Z</time>
      </trkpt>
      <trkpt lat="45.26796" lon="6.07076">
        <ele>1544.8000488281</ele>
        <time>2023-08-11T06:31:34.000Z</time>
      </trkpt>
      <trkpt lat="45.26793" lon="6.07075">
        <ele>1545.8000488281</ele>
        <time>2023-08-11T06:31:40.000Z</time>
      </trkpt>
      <trkpt lat="45.26789" lon="6.07073">
        <ele>1547</ele>
        <time>2023-08-11T06:31:45.000Z</time>
      </trkpt>
      <trkpt lat="45.26787" lon="6.07072">
        <ele>1547.4000244141</ele>
        <time>2023-08-11T06:31:48.000Z</time>
      </trkpt>
      <trkpt lat="45.26786" lon="6.07072">
        <ele>1548.1999511719</ele>
        <time>2023-08-11T06:31:53.000Z</time>
      </trkpt>
      <trkpt lat="45.26785" lon="6.0707">
        <ele>1548.8000488281</ele>
        <time>2023-08-11T06:31:56.000Z</time>
      </trkpt>
      <trkpt lat="45.26782" lon="6.07068">
        <ele>1549.1999511719</ele>
        <time>2023-08-11T06:31:59.000Z</time>
      </trkpt>
      <trkpt lat="45.26781" lon="6.07067">
        <ele>1549.8000488281</ele>
        <time>2023-08-11T06:32:02.000Z</time>
      </trkpt>
      <trkpt lat="45.2678" lon="6.07067">
        <ele>1550.4000244141</ele>
        <time>2023-08-11T06:32:06.000Z</time>
      </trkpt>
      <trkpt lat="45.26776" lon="6.07066">
        <ele>1551</ele>
        <time>2023-08-11T06:32:10.000Z</time>
      </trkpt>
      <trkpt lat="45.26775" lon="6.07065">
        <ele>1551.4000244141</ele>
        <time>2023-08-11T06:32:12.000Z</time>
      </trkpt>
      <trkpt lat="45.26772" lon="6.07065">
        <ele>1552.4000244141</ele>
        <time>2023-08-11T06:32:19.000Z</time>
      </trkpt>
      <trkpt lat="45.26772" lon="6.07065">
        <ele>1552.5999755859</ele>
        <time>2023-08-11T06:32:20.000Z</time>
      </trkpt>
      <trkpt lat="45.26767" lon="6.07062">
        <ele>1553.5999755859</ele>
        <time>2023-08-11T06:32:28.000Z</time>
      </trkpt>
      <trkpt lat="45.26764" lon="6.0706">
        <ele>1554.5999755859</ele>
        <time>2023-08-11T06:32:35.000Z</time>
      </trkpt>
      <trkpt lat="45.26764" lon="6.0706">
        <ele>1554.8000488281</ele>
        <time>2023-08-11T06:32:36.000Z</time>
      </trkpt>
      <trkpt lat="45.2676" lon="6.07056">
        <ele>1555.8000488281</ele>
        <time>2023-08-11T06:32:43.000Z</time>
      </trkpt>
      <trkpt lat="45.2676" lon="6.07055">
        <ele>1556</ele>
        <time>2023-08-11T06:32:44.000Z</time>
      </trkpt>
      <trkpt lat="45.26756" lon="6.07047">
        <ele>1556.8000488281</ele>
        <time>2023-08-11T06:32:51.000Z</time>
      </trkpt>
      <trkpt lat="45.26755" lon="6.07047">
        <ele>1557</ele>
        <time>2023-08-11T06:32:52.000Z</time>
      </trkpt>
      <trkpt lat="45.26751" lon="6.07041">
        <ele>1558.1999511719</ele>
        <time>2023-08-11T06:32:59.000Z</time>
      </trkpt>
      <trkpt lat="45.2675" lon="6.0704">
        <ele>1558.1999511719</ele>
        <time>2023-08-11T06:33:00.000Z</time>
      </trkpt>
      <trkpt lat="45.26749" lon="6.07036">
        <ele>1558.8000488281</ele>
        <time>2023-08-11T06:33:05.000Z</time>
      </trkpt>
      <trkpt lat="45.26748" lon="6.07034">
        <ele>1559.1999511719</ele>
        <time>2023-08-11T06:33:08.000Z</time>
      </trkpt>
      <trkpt lat="45.26746" lon="6.07029">
        <ele>1560</ele>
        <time>2023-08-11T06:33:14.000Z</time>
      </trkpt>
      <trkpt lat="45.26744" lon="6.07028">
        <ele>1560.4000244141</ele>
        <time>2023-08-11T06:33:16.000Z</time>
      </trkpt>
      <trkpt lat="45.26742" lon="6.07024">
        <ele>1561.4000244141</ele>
        <time>2023-08-11T06:33:21.000Z</time>
      </trkpt>
      <trkpt lat="45.26742" lon="6.07024">
        <ele>1561.4000244141</ele>
        <time>2023-08-11T06:33:22.000Z</time>
      </trkpt>
      <trkpt lat="45.26739" lon="6.0702">
        <ele>1562.5999755859</ele>
        <time>2023-08-11T06:33:29.000Z</time>
      </trkpt>
      <trkpt lat="45.26739" lon="6.0702">
        <ele>1562.8000488281</ele>
        <time>2023-08-11T06:33:30.000Z</time>
      </trkpt>
      <trkpt lat="45.26735" lon="6.07017">
        <ele>1563.5999755859</ele>
        <time>2023-08-11T06:33:36.000Z</time>
      </trkpt>
      <trkpt lat="45.26732" lon="6.07016">
        <ele>1564</ele>
        <time>2023-08-11T06:33:39.000Z</time>
      </trkpt>
      <trkpt lat="45.26728" lon="6.07016">
        <ele>1564.5999755859</ele>
        <time>2023-08-11T06:33:43.000Z</time>
      </trkpt>
      <trkpt lat="45.26727" lon="6.07013">
        <ele>1565</ele>
        <time>2023-08-11T06:33:46.000Z</time>
      </trkpt>
      <trkpt lat="45.26725" lon="6.07009">
        <ele>1565.8000488281</ele>
        <time>2023-08-11T06:33:53.000Z</time>
      </trkpt>
      <trkpt lat="45.26723" lon="6.07008">
        <ele>1566.8000488281</ele>
        <time>2023-08-11T06:33:58.000Z</time>
      </trkpt>
      <trkpt lat="45.26724" lon="6.07006">
        <ele>1566.8000488281</ele>
        <time>2023-08-11T06:34:04.000Z</time>
      </trkpt>
      <trkpt lat="45.26724" lon="6.07013">
        <ele>1566.8000488281</ele>
        <time>2023-08-11T06:34:11.000Z</time>
      </trkpt>
      <trkpt lat="45.26724" lon="6.07014">
        <ele>1566.8000488281</ele>
        <time>2023-08-11T06:34:20.000Z</time>
      </trkpt>
      <trkpt lat="45.26716" lon="6.07017">
        <ele>1565.8000488281</ele>
        <time>2023-08-11T06:34:27.000Z</time>
      </trkpt>
      <trkpt lat="45.26705" lon="6.07017">
        <ele>1565.4000244141</ele>
        <time>2023-08-11T06:34:35.000Z</time>
      </trkpt>
      <trkpt lat="45.26693" lon="6.07015">
        <ele>1564.8000488281</ele>
        <time>2023-08-11T06:34:44.000Z</time>
      </trkpt>
      <trkpt lat="45.26691" lon="6.07014">
        <ele>1564.5999755859</ele>
        <time>2023-08-11T06:34:46.000Z</time>
      </trkpt>
      <trkpt lat="45.26686" lon="6.07012">
        <ele>1564.4000244141</ele>
        <time>2023-08-11T06:34:52.000Z</time>
      </trkpt>
      <trkpt lat="45.26682" lon="6.07009">
        <ele>1564.1999511719</ele>
        <time>2023-08-11T06:35:00.000Z</time>
      </trkpt>
      <trkpt lat="45.26676" lon="6.07005">
        <ele>1564.4000244141</ele>
        <time>2023-08-11T06:35:06.000Z</time>
      </trkpt>
      <trkpt lat="45.26667" lon="6.07002">
        <ele>1564.1999511719</ele>
        <time>2023-08-11T06:35:14.000Z</time>
      </trkpt>
      <trkpt lat="45.2666" lon="6.06999">
        <ele>1564</ele>
        <time>2023-08-11T06:35:21.000Z</time>
      </trkpt>
      <trkpt lat="45.26655" lon="6.06997">
        <ele>1563.5999755859</ele>
        <time>2023-08-11T06:35:25.000Z</time>
      </trkpt>
      <trkpt lat="45.26653" lon="6.06996">
        <ele>1563.1999511719</ele>
        <time>2023-08-11T06:35:29.000Z</time>
      </trkpt>
      <trkpt lat="45.26649" lon="6.06994">
        <ele>1562.5999755859</ele>
        <time>2023-08-11T06:35:34.000Z</time>
      </trkpt>
      <trkpt lat="45.26646" lon="6.06994">
        <ele>1561.8000488281</ele>
        <time>2023-08-11T06:35:38.000Z</time>
      </trkpt>
      <trkpt lat="45.26638" lon="6.06995">
        <ele>1561.5999755859</ele>
        <time>2023-08-11T06:35:44.000Z</time>
      </trkpt>
      <trkpt lat="45.26637" lon="6.06995">
        <ele>1561.5999755859</ele>
        <time>2023-08-11T06:35:45.000Z</time>
      </trkpt>
      <trkpt lat="45.26628" lon="6.06996">
        <ele>1561.4000244141</ele>
        <time>2023-08-11T06:35:53.000Z</time>
      </trkpt>
      <trkpt lat="45.26625" lon="6.06999">
        <ele>1562.4000244141</ele>
        <time>2023-08-11T06:36:00.000Z</time>
      </trkpt>
      <trkpt lat="45.26624" lon="6.07">
        <ele>1562.5999755859</ele>
        <time>2023-08-11T06:36:01.000Z</time>
      </trkpt>
      <trkpt lat="45.26621" lon="6.07004">
        <ele>1563.8000488281</ele>
        <time>2023-08-11T06:36:07.000Z</time>
      </trkpt>
      <trkpt lat="45.26621" lon="6.07004">
        <ele>1564</ele>
        <time>2023-08-11T06:36:08.000Z</time>
      </trkpt>
      <trkpt lat="45.26616" lon="6.07009">
        <ele>1564.8000488281</ele>
        <time>2023-08-11T06:36:16.000Z</time>
      </trkpt>
      <trkpt lat="45.26613" lon="6.07005">
        <ele>1565.8000488281</ele>
        <time>2023-08-11T06:36:22.000Z</time>
      </trkpt>
      <trkpt lat="45.26612" lon="6.07004">
        <ele>1566</ele>
        <time>2023-08-11T06:36:23.000Z</time>
      </trkpt>
      <trkpt lat="45.2661" lon="6.07004">
        <ele>1567</ele>
        <time>2023-08-11T06:36:29.000Z</time>
      </trkpt>
      <trkpt lat="45.26609" lon="6.07005">
        <ele>1567.4000244141</ele>
        <time>2023-08-11T06:36:31.000Z</time>
      </trkpt>
      <trkpt lat="45.26603" lon="6.07006">
        <ele>1567.8000488281</ele>
        <time>2023-08-11T06:36:38.000Z</time>
      </trkpt>
      <trkpt lat="45.26601" lon="6.07005">
        <ele>1568</ele>
        <time>2023-08-11T06:36:39.000Z</time>
      </trkpt>
      <trkpt lat="45.26598" lon="6.07004">
        <ele>1568.4000244141</ele>
        <time>2023-08-11T06:36:44.000Z</time>
      </trkpt>
      <trkpt lat="45.26594" lon="6.07">
        <ele>1569.1999511719</ele>
        <time>2023-08-11T06:36:49.000Z</time>
      </trkpt>
      <trkpt lat="45.26592" lon="6.06997">
        <ele>1569.5999755859</ele>
        <time>2023-08-11T06:36:52.000Z</time>
      </trkpt>
      <trkpt lat="45.26592" lon="6.06994">
        <ele>1570.1999511719</ele>
        <time>2023-08-11T06:36:57.000Z</time>
      </trkpt>
      <trkpt lat="45.26591" lon="6.06993">
        <ele>1570.5999755859</ele>
        <time>2023-08-11T06:36:59.000Z</time>
      </trkpt>
      <trkpt lat="45.26591" lon="6.06994">
        <ele>1571.1999511719</ele>
        <time>2023-08-11T06:37:03.000Z</time>
      </trkpt>
      <trkpt lat="45.2659" lon="6.06994">
        <ele>1571.4000244141</ele>
        <time>2023-08-11T06:37:06.000Z</time>
      </trkpt>
      <trkpt lat="45.26589" lon="6.06991">
        <ele>1571.4000244141</ele>
        <time>2023-08-11T06:37:10.000Z</time>
      </trkpt>
      <trkpt lat="45.26589" lon="6.06988">
        <ele>1571.4000244141</ele>
        <time>2023-08-11T06:37:13.000Z</time>
      </trkpt>
      <trkpt lat="45.26587" lon="6.06989">
        <ele>1571.5999755859</ele>
        <time>2023-08-11T06:37:21.000Z</time>
      </trkpt>
      <trkpt lat="45.26586" lon="6.06989">
        <ele>1572.4000244141</ele>
        <time>2023-08-11T06:37:25.000Z</time>
      </trkpt>
      <trkpt lat="45.26584" lon="6.06989">
        <ele>1573.4000244141</ele>
        <time>2023-08-11T06:37:30.000Z</time>
      </trkpt>
      <trkpt lat="45.26582" lon="6.06986">
        <ele>1574.5999755859</ele>
        <time>2023-08-11T06:37:36.000Z</time>
      </trkpt>
      <trkpt lat="45.2658" lon="6.06983">
        <ele>1575</ele>
        <time>2023-08-11T06:37:39.000Z</time>
      </trkpt>
      <trkpt lat="45.26578" lon="6.06977">
        <ele>1575.5999755859</ele>
        <time>2023-08-11T06:37:43.000Z</time>
      </trkpt>
      <trkpt lat="45.26576" lon="6.06974">
        <ele>1576</ele>
        <time>2023-08-11T06:37:46.000Z</time>
      </trkpt>
      <trkpt lat="45.26574" lon="6.06973">
        <ele>1576.5999755859</ele>
        <time>2023-08-11T06:37:50.000Z</time>
      </trkpt>
      <trkpt lat="45.26569" lon="6.06973">
        <ele>1577.4000244141</ele>
        <time>2023-08-11T06:37:55.000Z</time>
      </trkpt>
      <trkpt lat="45.26567" lon="6.06973">
        <ele>1577.8000488281</ele>
        <time>2023-08-11T06:37:58.000Z</time>
      </trkpt>
      <trkpt lat="45.26564" lon="6.06972">
        <ele>1578.8000488281</ele>
        <time>2023-08-11T06:38:03.000Z</time>
      </trkpt>
      <trkpt lat="45.26563" lon="6.06973">
        <ele>1579</ele>
        <time>2023-08-11T06:38:04.000Z</time>
      </trkpt>
      <trkpt lat="45.26559" lon="6.06972">
        <ele>1580</ele>
        <time>2023-08-11T06:38:12.000Z</time>
      </trkpt>
      <trkpt lat="45.26555" lon="6.06961">
        <ele>1580.5999755859</ele>
        <time>2023-08-11T06:38:20.000Z</time>
      </trkpt>
      <trkpt lat="45.26553" lon="6.06956">
        <ele>1581.1999511719</ele>
        <time>2023-08-11T06:38:25.000Z</time>
      </trkpt>
      <trkpt lat="45.26551" lon="6.06954">
        <ele>1581.1999511719</ele>
        <time>2023-08-11T06:38:27.000Z</time>
      </trkpt>
      <trkpt lat="45.26547" lon="6.06952">
        <ele>1581.8000488281</ele>
        <time>2023-08-11T06:38:34.000Z</time>
      </trkpt>
      <trkpt lat="45.26546" lon="6.06952">
        <ele>1582.1999511719</ele>
        <time>2023-08-11T06:38:36.000Z</time>
      </trkpt>
      <trkpt lat="45.26542" lon="6.06951">
        <ele>1582.5999755859</ele>
        <time>2023-08-11T06:38:40.000Z</time>
      </trkpt>
      <trkpt lat="45.26537" lon="6.06948">
        <ele>1583.1999511719</ele>
        <time>2023-08-11T06:38:46.000Z</time>
      </trkpt>
      <trkpt lat="45.26535" lon="6.06946">
        <ele>1583.8000488281</ele>
        <time>2023-08-11T06:38:49.000Z</time>
      </trkpt>
      <trkpt lat="45.26532" lon="6.06945">
        <ele>1584.4000244141</ele>
        <time>2023-08-11T06:38:53.000Z</time>
      </trkpt>
      <trkpt lat="45.26529" lon="6.06941">
        <ele>1585.1999511719</ele>
        <time>2023-08-11T06:38:58.000Z</time>
      </trkpt>
      <trkpt lat="45.26529" lon="6.06941">
        <ele>1585.4000244141</ele>
        <time>2023-08-11T06:38:59.000Z</time>
      </trkpt>
      <trkpt lat="45.26523" lon="6.06942">
        <ele>1586.4000244141</ele>
        <time>2023-08-11T06:39:05.000Z</time>
      </trkpt>
      <trkpt lat="45.2652" lon="6.06942">
        <ele>1586.8000488281</ele>
        <time>2023-08-11T06:39:07.000Z</time>
      </trkpt>
      <trkpt lat="45.26516" lon="6.06945">
        <ele>1587.1999511719</ele>
        <time>2023-08-11T06:39:13.000Z</time>
      </trkpt>
      <trkpt lat="45.26513" lon="6.06948">
        <ele>1587.8000488281</ele>
        <time>2023-08-11T06:39:18.000Z</time>
      </trkpt>
      <trkpt lat="45.26511" lon="6.06948">
        <ele>1588.1999511719</ele>
        <time>2023-08-11T06:39:22.000Z</time>
      </trkpt>
      <trkpt lat="45.26505" lon="6.06944">
        <ele>1588.8000488281</ele>
        <time>2023-08-11T06:39:29.000Z</time>
      </trkpt>
      <trkpt lat="45.26502" lon="6.06938">
        <ele>1589</ele>
        <time>2023-08-11T06:39:36.000Z</time>
      </trkpt>
      <trkpt lat="45.26502" lon="6.06936">
        <ele>1589</ele>
        <time>2023-08-11T06:39:37.000Z</time>
      </trkpt>
      <trkpt lat="45.26505" lon="6.06933">
        <ele>1589.4000244141</ele>
        <time>2023-08-11T06:39:44.000Z</time>
      </trkpt>
      <trkpt lat="45.26509" lon="6.06928">
        <ele>1590</ele>
        <time>2023-08-11T06:39:50.000Z</time>
      </trkpt>
      <trkpt lat="45.2651" lon="6.06925">
        <ele>1590.4000244141</ele>
        <time>2023-08-11T06:39:53.000Z</time>
      </trkpt>
      <trkpt lat="45.26512" lon="6.06919">
        <ele>1591</ele>
        <time>2023-08-11T06:39:58.000Z</time>
      </trkpt>
      <trkpt lat="45.26514" lon="6.06916">
        <ele>1591.5999755859</ele>
        <time>2023-08-11T06:40:02.000Z</time>
      </trkpt>
      <trkpt lat="45.26519" lon="6.06909">
        <ele>1591.8000488281</ele>
        <time>2023-08-11T06:40:10.000Z</time>
      </trkpt>
      <trkpt lat="45.26523" lon="6.06905">
        <ele>1592</ele>
        <time>2023-08-11T06:40:18.000Z</time>
      </trkpt>
      <trkpt lat="45.26528" lon="6.06899">
        <ele>1592</ele>
        <time>2023-08-11T06:40:25.000Z</time>
      </trkpt>
      <trkpt lat="45.2653" lon="6.06897">
        <ele>1592.1999511719</ele>
        <time>2023-08-11T06:40:27.000Z</time>
      </trkpt>
      <trkpt lat="45.26535" lon="6.06891">
        <ele>1592.5999755859</ele>
        <time>2023-08-11T06:40:33.000Z</time>
      </trkpt>
      <trkpt lat="45.26534" lon="6.06893">
        <ele>1593.4000244141</ele>
        <time>2023-08-11T06:40:39.000Z</time>
      </trkpt>
      <trkpt lat="45.26533" lon="6.06894">
        <ele>1593.5999755859</ele>
        <time>2023-08-11T06:40:42.000Z</time>
      </trkpt>
      <trkpt lat="45.26532" lon="6.06898">
        <ele>1593.8000488281</ele>
        <time>2023-08-11T06:40:51.000Z</time>
      </trkpt>
      <trkpt lat="45.26533" lon="6.06903">
        <ele>1593.5999755859</ele>
        <time>2023-08-11T06:41:01.000Z</time>
      </trkpt>
      <trkpt lat="45.26533" lon="6.06899">
        <ele>1593.5999755859</ele>
        <time>2023-08-11T06:41:10.000Z</time>
      </trkpt>
      <trkpt lat="45.26529" lon="6.06897">
        <ele>1592.5999755859</ele>
        <time>2023-08-11T06:41:18.000Z</time>
      </trkpt>
      <trkpt lat="45.26527" lon="6.06895">
        <ele>1592.1999511719</ele>
        <time>2023-08-11T06:41:22.000Z</time>
      </trkpt>
      <trkpt lat="45.26526" lon="6.06898">
        <ele>1592.1999511719</ele>
        <time>2023-08-11T06:41:26.000Z</time>
      </trkpt>
      <trkpt lat="45.26522" lon="6.06906">
        <ele>1591.8000488281</ele>
        <time>2023-08-11T06:41:33.000Z</time>
      </trkpt>
      <trkpt lat="45.26519" lon="6.06915">
        <ele>1591.5999755859</ele>
        <time>2023-08-11T06:41:41.000Z</time>
      </trkpt>
      <trkpt lat="45.26516" lon="6.0692">
        <ele>1591.4000244141</ele>
        <time>2023-08-11T06:41:47.000Z</time>
      </trkpt>
      <trkpt lat="45.26514" lon="6.06923">
        <ele>1591.1999511719</ele>
        <time>2023-08-11T06:41:51.000Z</time>
      </trkpt>
      <trkpt lat="45.26514" lon="6.06925">
        <ele>1590.8000488281</ele>
        <time>2023-08-11T06:41:54.000Z</time>
      </trkpt>
      <trkpt lat="45.26509" lon="6.06932">
        <ele>1590</ele>
        <time>2023-08-11T06:41:59.000Z</time>
      </trkpt>
      <trkpt lat="45.26507" lon="6.06936">
        <ele>1589.5999755859</ele>
        <time>2023-08-11T06:42:02.000Z</time>
      </trkpt>
      <trkpt lat="45.26503" lon="6.06941">
        <ele>1589</ele>
        <time>2023-08-11T06:42:07.000Z</time>
      </trkpt>
      <trkpt lat="45.26501" lon="6.06943">
        <ele>1589</ele>
        <time>2023-08-11T06:42:09.000Z</time>
      </trkpt>
      <trkpt lat="45.26495" lon="6.0695">
        <ele>1589.4000244141</ele>
        <time>2023-08-11T06:42:18.000Z</time>
      </trkpt>
      <trkpt lat="45.26492" lon="6.06956">
        <ele>1589.1999511719</ele>
        <time>2023-08-11T06:42:27.000Z</time>
      </trkpt>
      <trkpt lat="45.26492" lon="6.06957">
        <ele>1589.1999511719</ele>
        <time>2023-08-11T06:42:29.000Z</time>
      </trkpt>
      <trkpt lat="45.26489" lon="6.06961">
        <ele>1589</ele>
        <time>2023-08-11T06:42:35.000Z</time>
      </trkpt>
      <trkpt lat="45.26482" lon="6.06967">
        <ele>1589</ele>
        <time>2023-08-11T06:42:42.000Z</time>
      </trkpt>
      <trkpt lat="45.26476" lon="6.06971">
        <ele>1588.5999755859</ele>
        <time>2023-08-11T06:42:49.000Z</time>
      </trkpt>
      <trkpt lat="45.26469" lon="6.06971">
        <ele>1589.5999755859</ele>
        <time>2023-08-11T06:43:00.000Z</time>
      </trkpt>
      <trkpt lat="45.2647" lon="6.06969">
        <ele>1589.8000488281</ele>
        <time>2023-08-11T06:43:03.000Z</time>
      </trkpt>
      <trkpt lat="45.26472" lon="6.06969">
        <ele>1590.1999511719</ele>
        <time>2023-08-11T06:43:05.000Z</time>
      </trkpt>
      <trkpt lat="45.26474" lon="6.0697">
        <ele>1590.1999511719</ele>
        <time>2023-08-11T06:43:09.000Z</time>
      </trkpt>
      <trkpt lat="45.26473" lon="6.06978">
        <ele>1589.1999511719</ele>
        <time>2023-08-11T06:43:14.000Z</time>
      </trkpt>
      <trkpt lat="45.26473" lon="6.06979">
        <ele>1589</ele>
        <time>2023-08-11T06:43:15.000Z</time>
      </trkpt>
      <trkpt lat="45.2647" lon="6.06984">
        <ele>1588</ele>
        <time>2023-08-11T06:43:24.000Z</time>
      </trkpt>
      <trkpt lat="45.26469" lon="6.06985">
        <ele>1588</ele>
        <time>2023-08-11T06:43:25.000Z</time>
      </trkpt>
      <trkpt lat="45.26464" lon="6.06993">
        <ele>1587.5999755859</ele>
        <time>2023-08-11T06:43:32.000Z</time>
      </trkpt>
      <trkpt lat="45.26459" lon="6.06999">
        <ele>1587.4000244141</ele>
        <time>2023-08-11T06:43:39.000Z</time>
      </trkpt>
      <trkpt lat="45.26454" lon="6.07002">
        <ele>1587.5999755859</ele>
        <time>2023-08-11T06:43:47.000Z</time>
      </trkpt>
      <trkpt lat="45.26453" lon="6.07009">
        <ele>1587.1999511719</ele>
        <time>2023-08-11T06:43:54.000Z</time>
      </trkpt>
      <trkpt lat="45.26452" lon="6.0701">
        <ele>1587</ele>
        <time>2023-08-11T06:43:55.000Z</time>
      </trkpt>
      <trkpt lat="45.26449" lon="6.07012">
        <ele>1586.5999755859</ele>
        <time>2023-08-11T06:44:01.000Z</time>
      </trkpt>
      <trkpt lat="45.26448" lon="6.0701">
        <ele>1586.8000488281</ele>
        <time>2023-08-11T06:44:07.000Z</time>
      </trkpt>
      <trkpt lat="45.26449" lon="6.07007">
        <ele>1586.5999755859</ele>
        <time>2023-08-11T06:44:16.000Z</time>
      </trkpt>
      <trkpt lat="45.26448" lon="6.07015">
        <ele>1586.5999755859</ele>
        <time>2023-08-11T06:44:24.000Z</time>
      </trkpt>
      <trkpt lat="45.26442" lon="6.0702">
        <ele>1587</ele>
        <time>2023-08-11T06:44:31.000Z</time>
      </trkpt>
      <trkpt lat="45.26435" lon="6.07023">
        <ele>1587.8000488281</ele>
        <time>2023-08-11T06:44:40.000Z</time>
      </trkpt>
      <trkpt lat="45.26434" lon="6.07024">
        <ele>1587.8000488281</ele>
        <time>2023-08-11T06:44:42.000Z</time>
      </trkpt>
      <trkpt lat="45.26432" lon="6.07025">
        <ele>1588</ele>
        <time>2023-08-11T06:44:45.000Z</time>
      </trkpt>
      <trkpt lat="45.2643" lon="6.07026">
        <ele>1588.4000244141</ele>
        <time>2023-08-11T06:44:48.000Z</time>
      </trkpt>
      <trkpt lat="45.26429" lon="6.07027">
        <ele>1589.1999511719</ele>
        <time>2023-08-11T06:44:51.000Z</time>
      </trkpt>
      <trkpt lat="45.26428" lon="6.07031">
        <ele>1589.8000488281</ele>
        <time>2023-08-11T06:44:55.000Z</time>
      </trkpt>
      <trkpt lat="45.26423" lon="6.0704">
        <ele>1590</ele>
        <time>2023-08-11T06:45:03.000Z</time>
      </trkpt>
      <trkpt lat="45.26418" lon="6.07048">
        <ele>1590</ele>
        <time>2023-08-11T06:45:10.000Z</time>
      </trkpt>
      <trkpt lat="45.26418" lon="6.07049">
        <ele>1590.1999511719</ele>
        <time>2023-08-11T06:45:11.000Z</time>
      </trkpt>
      <trkpt lat="45.26416" lon="6.07052">
        <ele>1590.8000488281</ele>
        <time>2023-08-11T06:45:17.000Z</time>
      </trkpt>
      <trkpt lat="45.26414" lon="6.07061">
        <ele>1590.4000244141</ele>
        <time>2023-08-11T06:45:25.000Z</time>
      </trkpt>
      <trkpt lat="45.26415" lon="6.0707">
        <ele>1590.1999511719</ele>
        <time>2023-08-11T06:45:32.000Z</time>
      </trkpt>
      <trkpt lat="45.26412" lon="6.07078">
        <ele>1589.5999755859</ele>
        <time>2023-08-11T06:45:40.000Z</time>
      </trkpt>
      <trkpt lat="45.26409" lon="6.07084">
        <ele>1589.1999511719</ele>
        <time>2023-08-11T06:45:45.000Z</time>
      </trkpt>
      <trkpt lat="45.26407" lon="6.07087">
        <ele>1589</ele>
        <time>2023-08-11T06:45:49.000Z</time>
      </trkpt>
      <trkpt lat="45.26403" lon="6.07086">
        <ele>1588.8000488281</ele>
        <time>2023-08-11T06:45:55.000Z</time>
      </trkpt>
      <trkpt lat="45.26402" lon="6.07085">
        <ele>1588.5999755859</ele>
        <time>2023-08-11T06:46:02.000Z</time>
      </trkpt>
      <trkpt lat="45.26403" lon="6.07091">
        <ele>1588</ele>
        <time>2023-08-11T06:46:08.000Z</time>
      </trkpt>
      <trkpt lat="45.26404" lon="6.07093">
        <ele>1588</ele>
        <time>2023-08-11T06:46:10.000Z</time>
      </trkpt>
      <trkpt lat="45.26407" lon="6.07101">
        <ele>1587.5999755859</ele>
        <time>2023-08-11T06:46:17.000Z</time>
      </trkpt>
      <trkpt lat="45.2641" lon="6.07112">
        <ele>1587.4000244141</ele>
        <time>2023-08-11T06:46:25.000Z</time>
      </trkpt>
      <trkpt lat="45.2641" lon="6.07121">
        <ele>1587.1999511719</ele>
        <time>2023-08-11T06:46:32.000Z</time>
      </trkpt>
      <trkpt lat="45.2641" lon="6.0713">
        <ele>1587.1999511719</ele>
        <time>2023-08-11T06:46:39.000Z</time>
      </trkpt>
      <trkpt lat="45.2641" lon="6.07139">
        <ele>1587.8000488281</ele>
        <time>2023-08-11T06:46:47.000Z</time>
      </trkpt>
      <trkpt lat="45.26412" lon="6.07141">
        <ele>1587.5999755859</ele>
        <time>2023-08-11T06:46:55.000Z</time>
      </trkpt>
      <trkpt lat="45.26414" lon="6.07146">
        <ele>1587.1999511719</ele>
        <time>2023-08-11T06:47:02.000Z</time>
      </trkpt>
      <trkpt lat="45.26415" lon="6.07149">
        <ele>1587</ele>
        <time>2023-08-11T06:47:06.000Z</time>
      </trkpt>
      <trkpt lat="45.26416" lon="6.07149">
        <ele>1586.8000488281</ele>
        <time>2023-08-11T06:47:11.000Z</time>
      </trkpt>
      <trkpt lat="45.26424" lon="6.07155">
        <ele>1587.1999511719</ele>
        <time>2023-08-11T06:47:26.000Z</time>
      </trkpt>
      <trkpt lat="45.26426" lon="6.07158">
        <ele>1588.1999511719</ele>
        <time>2023-08-11T06:47:31.000Z</time>
      </trkpt>
      <trkpt lat="45.26427" lon="6.07158">
        <ele>1588.5999755859</ele>
        <time>2023-08-11T06:47:33.000Z</time>
      </trkpt>
      <trkpt lat="45.26437" lon="6.07161">
        <ele>1589</ele>
        <time>2023-08-11T06:47:44.000Z</time>
      </trkpt>
      <trkpt lat="45.26437" lon="6.07161">
        <ele>1589.1999511719</ele>
        <time>2023-08-11T06:47:45.000Z</time>
      </trkpt>
      <trkpt lat="45.26438" lon="6.07162">
        <ele>1589.4000244141</ele>
        <time>2023-08-11T06:47:46.000Z</time>
      </trkpt>
      <trkpt lat="45.26443" lon="6.07168">
        <ele>1590.4000244141</ele>
        <time>2023-08-11T06:47:53.000Z</time>
      </trkpt>
      <trkpt lat="45.26443" lon="6.07168">
        <ele>1590.5999755859</ele>
        <time>2023-08-11T06:47:55.000Z</time>
      </trkpt>
      <trkpt lat="45.26442" lon="6.07169">
        <ele>1591.4000244141</ele>
        <time>2023-08-11T06:47:59.000Z</time>
      </trkpt>
      <trkpt lat="45.26442" lon="6.07173">
        <ele>1592.4000244141</ele>
        <time>2023-08-11T06:48:05.000Z</time>
      </trkpt>
      <trkpt lat="45.26442" lon="6.07174">
        <ele>1592.5999755859</ele>
        <time>2023-08-11T06:48:06.000Z</time>
      </trkpt>
      <trkpt lat="45.26447" lon="6.0718">
        <ele>1593.5999755859</ele>
        <time>2023-08-11T06:48:12.000Z</time>
      </trkpt>
      <trkpt lat="45.26453" lon="6.07189">
        <ele>1594</ele>
        <time>2023-08-11T06:48:20.000Z</time>
      </trkpt>
      <trkpt lat="45.26453" lon="6.07191">
        <ele>1594.5999755859</ele>
        <time>2023-08-11T06:48:25.000Z</time>
      </trkpt>
      <trkpt lat="45.26453" lon="6.07191">
        <ele>1594.5999755859</ele>
        <time>2023-08-11T06:48:26.000Z</time>
      </trkpt>
      <trkpt lat="45.26449" lon="6.07195">
        <ele>1595.5999755859</ele>
        <time>2023-08-11T06:48:33.000Z</time>
      </trkpt>
      <trkpt lat="45.26448" lon="6.07199">
        <ele>1596</ele>
        <time>2023-08-11T06:48:38.000Z</time>
      </trkpt>
      <trkpt lat="45.26449" lon="6.07206">
        <ele>1596.5999755859</ele>
        <time>2023-08-11T06:48:44.000Z</time>
      </trkpt>
      <trkpt lat="45.26448" lon="6.07207">
        <ele>1596.5999755859</ele>
        <time>2023-08-11T06:48:45.000Z</time>
      </trkpt>
      <trkpt lat="45.26445" lon="6.0721">
        <ele>1597.5999755859</ele>
        <time>2023-08-11T06:48:53.000Z</time>
      </trkpt>
      <trkpt lat="45.2644" lon="6.07217">
        <ele>1598.5999755859</ele>
        <time>2023-08-11T06:49:02.000Z</time>
      </trkpt>
      <trkpt lat="45.2644" lon="6.0722">
        <ele>1598.8000488281</ele>
        <time>2023-08-11T06:49:05.000Z</time>
      </trkpt>
      <trkpt lat="45.26439" lon="6.07221">
        <ele>1599</ele>
        <time>2023-08-11T06:49:08.000Z</time>
      </trkpt>
      <trkpt lat="45.26433" lon="6.07223">
        <ele>1599.5999755859</ele>
        <time>2023-08-11T06:49:16.000Z</time>
      </trkpt>
      <trkpt lat="45.2643" lon="6.07222">
        <ele>1600</ele>
        <time>2023-08-11T06:49:19.000Z</time>
      </trkpt>
      <trkpt lat="45.26417" lon="6.07222">
        <ele>1602.4000244141</ele>
        <time>2023-08-11T06:49:36.000Z</time>
      </trkpt>
      <trkpt lat="45.26416" lon="6.07232">
        <ele>1603</ele>
        <time>2023-08-11T06:49:42.000Z</time>
      </trkpt>
      <trkpt lat="45.26415" lon="6.07233">
        <ele>1603.4000244141</ele>
        <time>2023-08-11T06:49:44.000Z</time>
      </trkpt>
      <trkpt lat="45.26413" lon="6.07234">
        <ele>1604.1999511719</ele>
        <time>2023-08-11T06:49:49.000Z</time>
      </trkpt>
      <trkpt lat="45.2641" lon="6.07237">
        <ele>1605</ele>
        <time>2023-08-11T06:49:54.000Z</time>
      </trkpt>
      <trkpt lat="45.26409" lon="6.07237">
        <ele>1605.1999511719</ele>
        <time>2023-08-11T06:49:56.000Z</time>
      </trkpt>
      <trkpt lat="45.26406" lon="6.07237">
        <ele>1605.8000488281</ele>
        <time>2023-08-11T06:50:01.000Z</time>
      </trkpt>
      <trkpt lat="45.26405" lon="6.07238">
        <ele>1606.1999511719</ele>
        <time>2023-08-11T06:50:04.000Z</time>
      </trkpt>
      <trkpt lat="45.26401" lon="6.07242">
        <ele>1607.4000244141</ele>
        <time>2023-08-11T06:50:11.000Z</time>
      </trkpt>
      <trkpt lat="45.26399" lon="6.07244">
        <ele>1608.4000244141</ele>
        <time>2023-08-11T06:50:17.000Z</time>
      </trkpt>
      <trkpt lat="45.26398" lon="6.07246">
        <ele>1608.8000488281</ele>
        <time>2023-08-11T06:50:19.000Z</time>
      </trkpt>
      <trkpt lat="45.26396" lon="6.07248">
        <ele>1609.4000244141</ele>
        <time>2023-08-11T06:50:25.000Z</time>
      </trkpt>
      <trkpt lat="45.26396" lon="6.07249">
        <ele>1609.4000244141</ele>
        <time>2023-08-11T06:50:26.000Z</time>
      </trkpt>
      <trkpt lat="45.2639" lon="6.0725">
        <ele>1611.5999755859</ele>
        <time>2023-08-11T06:50:41.000Z</time>
      </trkpt>
      <trkpt lat="45.2639" lon="6.07252">
        <ele>1611.8000488281</ele>
        <time>2023-08-11T06:50:43.000Z</time>
      </trkpt>
      <trkpt lat="45.26392" lon="6.07258">
        <ele>1612.5999755859</ele>
        <time>2023-08-11T06:50:48.000Z</time>
      </trkpt>
      <trkpt lat="45.26394" lon="6.07261">
        <ele>1613.1999511719</ele>
        <time>2023-08-11T06:50:52.000Z</time>
      </trkpt>
      <trkpt lat="45.26393" lon="6.07261">
        <ele>1613.8000488281</ele>
        <time>2023-08-11T06:50:56.000Z</time>
      </trkpt>
      <trkpt lat="45.26392" lon="6.07263">
        <ele>1614.4000244141</ele>
        <time>2023-08-11T06:51:01.000Z</time>
      </trkpt>
      <trkpt lat="45.26391" lon="6.07266">
        <ele>1614.8000488281</ele>
        <time>2023-08-11T06:51:04.000Z</time>
      </trkpt>
      <trkpt lat="45.26391" lon="6.07267">
        <ele>1615.4000244141</ele>
        <time>2023-08-11T06:51:08.000Z</time>
      </trkpt>
      <trkpt lat="45.2639" lon="6.07268">
        <ele>1615.8000488281</ele>
        <time>2023-08-11T06:51:10.000Z</time>
      </trkpt>
      <trkpt lat="45.26389" lon="6.0727">
        <ele>1617</ele>
        <time>2023-08-11T06:51:17.000Z</time>
      </trkpt>
      <trkpt lat="45.26387" lon="6.07273">
        <ele>1618</ele>
        <time>2023-08-11T06:51:25.000Z</time>
      </trkpt>
      <trkpt lat="45.26388" lon="6.07276">
        <ele>1618.5999755859</ele>
        <time>2023-08-11T06:51:30.000Z</time>
      </trkpt>
      <trkpt lat="45.2639" lon="6.07278">
        <ele>1619.1999511719</ele>
        <time>2023-08-11T06:51:33.000Z</time>
      </trkpt>
      <trkpt lat="45.2639" lon="6.07279">
        <ele>1619.4000244141</ele>
        <time>2023-08-11T06:51:34.000Z</time>
      </trkpt>
      <trkpt lat="45.26389" lon="6.07283">
        <ele>1620.1999511719</ele>
        <time>2023-08-11T06:51:39.000Z</time>
      </trkpt>
      <trkpt lat="45.26387" lon="6.07286">
        <ele>1620.5999755859</ele>
        <time>2023-08-11T06:51:41.000Z</time>
      </trkpt>
      <trkpt lat="45.26386" lon="6.07287">
        <ele>1620.8000488281</ele>
        <time>2023-08-11T06:51:43.000Z</time>
      </trkpt>
      <trkpt lat="45.26385" lon="6.07289">
        <ele>1621.1999511719</ele>
        <time>2023-08-11T06:51:45.000Z</time>
      </trkpt>
      <trkpt lat="45.26385" lon="6.0729">
        <ele>1621.4000244141</ele>
        <time>2023-08-11T06:51:46.000Z</time>
      </trkpt>
      <trkpt lat="45.26385" lon="6.07292">
        <ele>1622.1999511719</ele>
        <time>2023-08-11T06:51:52.000Z</time>
      </trkpt>
      <trkpt lat="45.26383" lon="6.07293">
        <ele>1622.8000488281</ele>
        <time>2023-08-11T06:51:55.000Z</time>
      </trkpt>
      <trkpt lat="45.26381" lon="6.07294">
        <ele>1623.4000244141</ele>
        <time>2023-08-11T06:51:57.000Z</time>
      </trkpt>
      <trkpt lat="45.26376" lon="6.07297">
        <ele>1624.5999755859</ele>
        <time>2023-08-11T06:52:03.000Z</time>
      </trkpt>
      <trkpt lat="45.26375" lon="6.07297">
        <ele>1624.8000488281</ele>
        <time>2023-08-11T06:52:05.000Z</time>
      </trkpt>
      <trkpt lat="45.26374" lon="6.07296">
        <ele>1625.5999755859</ele>
        <time>2023-08-11T06:52:11.000Z</time>
      </trkpt>
      <trkpt lat="45.26372" lon="6.07296">
        <ele>1626</ele>
        <time>2023-08-11T06:52:14.000Z</time>
      </trkpt>
      <trkpt lat="45.26365" lon="6.07292">
        <ele>1627.5999755859</ele>
        <time>2023-08-11T06:52:26.000Z</time>
      </trkpt>
      <trkpt lat="45.26365" lon="6.07293">
        <ele>1627.8000488281</ele>
        <time>2023-08-11T06:52:27.000Z</time>
      </trkpt>
      <trkpt lat="45.26365" lon="6.073">
        <ele>1628.8000488281</ele>
        <time>2023-08-11T06:52:34.000Z</time>
      </trkpt>
      <trkpt lat="45.2636" lon="6.07302">
        <ele>1630</ele>
        <time>2023-08-11T06:52:42.000Z</time>
      </trkpt>
      <trkpt lat="45.26353" lon="6.07304">
        <ele>1631.4000244141</ele>
        <time>2023-08-11T06:52:54.000Z</time>
      </trkpt>
      <trkpt lat="45.26352" lon="6.07309">
        <ele>1632</ele>
        <time>2023-08-11T06:52:59.000Z</time>
      </trkpt>
      <trkpt lat="45.26351" lon="6.07311">
        <ele>1632.1999511719</ele>
        <time>2023-08-11T06:53:01.000Z</time>
      </trkpt>
      <trkpt lat="45.26352" lon="6.07318">
        <ele>1633.1999511719</ele>
        <time>2023-08-11T06:53:07.000Z</time>
      </trkpt>
      <trkpt lat="45.26352" lon="6.07321">
        <ele>1633.4000244141</ele>
        <time>2023-08-11T06:53:09.000Z</time>
      </trkpt>
      <trkpt lat="45.26354" lon="6.07324">
        <ele>1634.1999511719</ele>
        <time>2023-08-11T06:53:14.000Z</time>
      </trkpt>
      <trkpt lat="45.26355" lon="6.07328">
        <ele>1634.5999755859</ele>
        <time>2023-08-11T06:53:17.000Z</time>
      </trkpt>
      <trkpt lat="45.26355" lon="6.07331">
        <ele>1635.1999511719</ele>
        <time>2023-08-11T06:53:21.000Z</time>
      </trkpt>
      <trkpt lat="45.26356" lon="6.07335">
        <ele>1636</ele>
        <time>2023-08-11T06:53:25.000Z</time>
      </trkpt>
      <trkpt lat="45.26356" lon="6.07336">
        <ele>1636.4000244141</ele>
        <time>2023-08-11T06:53:27.000Z</time>
      </trkpt>
      <trkpt lat="45.26356" lon="6.0734">
        <ele>1637.5999755859</ele>
        <time>2023-08-11T06:53:34.000Z</time>
      </trkpt>
      <trkpt lat="45.26356" lon="6.07341">
        <ele>1637.5999755859</ele>
        <time>2023-08-11T06:53:35.000Z</time>
      </trkpt>
      <trkpt lat="45.26356" lon="6.07344">
        <ele>1638.8000488281</ele>
        <time>2023-08-11T06:53:41.000Z</time>
      </trkpt>
      <trkpt lat="45.26356" lon="6.07344">
        <ele>1639</ele>
        <time>2023-08-11T06:53:42.000Z</time>
      </trkpt>
      <trkpt lat="45.26356" lon="6.07347">
        <ele>1639.8000488281</ele>
        <time>2023-08-11T06:53:45.000Z</time>
      </trkpt>
      <trkpt lat="45.26355" lon="6.0735">
        <ele>1640.5999755859</ele>
        <time>2023-08-11T06:53:51.000Z</time>
      </trkpt>
      <trkpt lat="45.26356" lon="6.0735">
        <ele>1640.8000488281</ele>
        <time>2023-08-11T06:53:53.000Z</time>
      </trkpt>
      <trkpt lat="45.26359" lon="6.07356">
        <ele>1642</ele>
        <time>2023-08-11T06:53:58.000Z</time>
      </trkpt>
      <trkpt lat="45.26359" lon="6.07356">
        <ele>1642.1999511719</ele>
        <time>2023-08-11T06:53:59.000Z</time>
      </trkpt>
      <trkpt lat="45.26361" lon="6.07359">
        <ele>1643.1999511719</ele>
        <time>2023-08-11T06:54:04.000Z</time>
      </trkpt>
      <trkpt lat="45.26362" lon="6.0736">
        <ele>1643.1999511719</ele>
        <time>2023-08-11T06:54:06.000Z</time>
      </trkpt>
      <trkpt lat="45.26363" lon="6.07361">
        <ele>1644.1999511719</ele>
        <time>2023-08-11T06:54:12.000Z</time>
      </trkpt>
      <trkpt lat="45.26364" lon="6.07362">
        <ele>1644.5999755859</ele>
        <time>2023-08-11T06:54:14.000Z</time>
      </trkpt>
      <trkpt lat="45.26366" lon="6.07361">
        <ele>1645.1999511719</ele>
        <time>2023-08-11T06:54:18.000Z</time>
      </trkpt>
      <trkpt lat="45.26368" lon="6.07362">
        <ele>1645.5999755859</ele>
        <time>2023-08-11T06:54:21.000Z</time>
      </trkpt>
      <trkpt lat="45.26366" lon="6.07368">
        <ele>1647</ele>
        <time>2023-08-11T06:54:30.000Z</time>
      </trkpt>
      <trkpt lat="45.26366" lon="6.0737">
        <ele>1647.5999755859</ele>
        <time>2023-08-11T06:54:33.000Z</time>
      </trkpt>
      <trkpt lat="45.26366" lon="6.07374">
        <ele>1648.4000244141</ele>
        <time>2023-08-11T06:54:38.000Z</time>
      </trkpt>
      <trkpt lat="45.26365" lon="6.07375">
        <ele>1648.5999755859</ele>
        <time>2023-08-11T06:54:39.000Z</time>
      </trkpt>
      <trkpt lat="45.26364" lon="6.07378">
        <ele>1649.5999755859</ele>
        <time>2023-08-11T06:54:45.000Z</time>
      </trkpt>
      <trkpt lat="45.26364" lon="6.07378">
        <ele>1649.5999755859</ele>
        <time>2023-08-11T06:54:46.000Z</time>
      </trkpt>
      <trkpt lat="45.26364" lon="6.07379">
        <ele>1650.8000488281</ele>
        <time>2023-08-11T06:54:52.000Z</time>
      </trkpt>
      <trkpt lat="45.26366" lon="6.07377">
        <ele>1651.4000244141</ele>
        <time>2023-08-11T06:54:56.000Z</time>
      </trkpt>
      <trkpt lat="45.26367" lon="6.07377">
        <ele>1651.8000488281</ele>
        <time>2023-08-11T06:54:58.000Z</time>
      </trkpt>
      <trkpt lat="45.26369" lon="6.07378">
        <ele>1652.8000488281</ele>
        <time>2023-08-11T06:55:05.000Z</time>
      </trkpt>
      <trkpt lat="45.26369" lon="6.07378">
        <ele>1653</ele>
        <time>2023-08-11T06:55:06.000Z</time>
      </trkpt>
      <trkpt lat="45.2637" lon="6.07381">
        <ele>1654</ele>
        <time>2023-08-11T06:55:12.000Z</time>
      </trkpt>
      <trkpt lat="45.26372" lon="6.07377">
        <ele>1655</ele>
        <time>2023-08-11T06:55:19.000Z</time>
      </trkpt>
      <trkpt lat="45.26372" lon="6.07376">
        <ele>1655.1999511719</ele>
        <time>2023-08-11T06:55:20.000Z</time>
      </trkpt>
      <trkpt lat="45.2637" lon="6.0738">
        <ele>1656.4000244141</ele>
        <time>2023-08-11T06:55:26.000Z</time>
      </trkpt>
      <trkpt lat="45.26369" lon="6.07382">
        <ele>1656.8000488281</ele>
        <time>2023-08-11T06:55:28.000Z</time>
      </trkpt>
      <trkpt lat="45.26368" lon="6.07385">
        <ele>1657.4000244141</ele>
        <time>2023-08-11T06:55:32.000Z</time>
      </trkpt>
      <trkpt lat="45.26367" lon="6.07388">
        <ele>1658</ele>
        <time>2023-08-11T06:55:35.000Z</time>
      </trkpt>
      <trkpt lat="45.26366" lon="6.07389">
        <ele>1658.4000244141</ele>
        <time>2023-08-11T06:55:38.000Z</time>
      </trkpt>
      <trkpt lat="45.26364" lon="6.07391">
        <ele>1659.5999755859</ele>
        <time>2023-08-11T06:55:44.000Z</time>
      </trkpt>
      <trkpt lat="45.26364" lon="6.07394">
        <ele>1660.8000488281</ele>
        <time>2023-08-11T06:55:50.000Z</time>
      </trkpt>
      <trkpt lat="45.26365" lon="6.07397">
        <ele>1661.1999511719</ele>
        <time>2023-08-11T06:55:53.000Z</time>
      </trkpt>
      <trkpt lat="45.26364" lon="6.07399">
        <ele>1661.8000488281</ele>
        <time>2023-08-11T06:55:56.000Z</time>
      </trkpt>
      <trkpt lat="45.26362" lon="6.07404">
        <ele>1662.5999755859</ele>
        <time>2023-08-11T06:56:03.000Z</time>
      </trkpt>
      <trkpt lat="45.26361" lon="6.07405">
        <ele>1662.8000488281</ele>
        <time>2023-08-11T06:56:04.000Z</time>
      </trkpt>
      <trkpt lat="45.26361" lon="6.07406">
        <ele>1664</ele>
        <time>2023-08-11T06:56:09.000Z</time>
      </trkpt>
      <trkpt lat="45.26361" lon="6.07407">
        <ele>1664.1999511719</ele>
        <time>2023-08-11T06:56:11.000Z</time>
      </trkpt>
      <trkpt lat="45.26361" lon="6.07409">
        <ele>1665</ele>
        <time>2023-08-11T06:56:15.000Z</time>
      </trkpt>
      <trkpt lat="45.26363" lon="6.07413">
        <ele>1666.1999511719</ele>
        <time>2023-08-11T06:56:20.000Z</time>
      </trkpt>
      <trkpt lat="45.26363" lon="6.07413">
        <ele>1666.1999511719</ele>
        <time>2023-08-11T06:56:21.000Z</time>
      </trkpt>
      <trkpt lat="45.26364" lon="6.07416">
        <ele>1667.4000244141</ele>
        <time>2023-08-11T06:56:26.000Z</time>
      </trkpt>
      <trkpt lat="45.26365" lon="6.07417">
        <ele>1667.5999755859</ele>
        <time>2023-08-11T06:56:28.000Z</time>
      </trkpt>
      <trkpt lat="45.26367" lon="6.07416">
        <ele>1668.5999755859</ele>
        <time>2023-08-11T06:56:35.000Z</time>
      </trkpt>
      <trkpt lat="45.26367" lon="6.07416">
        <ele>1668.8000488281</ele>
        <time>2023-08-11T06:56:36.000Z</time>
      </trkpt>
      <trkpt lat="45.26367" lon="6.07414">
        <ele>1669.8000488281</ele>
        <time>2023-08-11T06:56:42.000Z</time>
      </trkpt>
      <trkpt lat="45.26367" lon="6.07414">
        <ele>1670</ele>
        <time>2023-08-11T06:56:43.000Z</time>
      </trkpt>
      <trkpt lat="45.26368" lon="6.07418">
        <ele>1670.8000488281</ele>
        <time>2023-08-11T06:56:47.000Z</time>
      </trkpt>
      <trkpt lat="45.26369" lon="6.07421">
        <ele>1672</ele>
        <time>2023-08-11T06:56:52.000Z</time>
      </trkpt>
      <trkpt lat="45.26368" lon="6.07424">
        <ele>1673</ele>
        <time>2023-08-11T06:56:58.000Z</time>
      </trkpt>
      <trkpt lat="45.26367" lon="6.07426">
        <ele>1674.1999511719</ele>
        <time>2023-08-11T06:57:03.000Z</time>
      </trkpt>
      <trkpt lat="45.26368" lon="6.07427">
        <ele>1675.1999511719</ele>
        <time>2023-08-11T06:57:09.000Z</time>
      </trkpt>
      <trkpt lat="45.26368" lon="6.07427">
        <ele>1675.5999755859</ele>
        <time>2023-08-11T06:57:11.000Z</time>
      </trkpt>
      <trkpt lat="45.26369" lon="6.07426">
        <ele>1676.4000244141</ele>
        <time>2023-08-11T06:57:15.000Z</time>
      </trkpt>
      <trkpt lat="45.2637" lon="6.0743">
        <ele>1677.4000244141</ele>
        <time>2023-08-11T06:57:19.000Z</time>
      </trkpt>
      <trkpt lat="45.26369" lon="6.07431">
        <ele>1677.5999755859</ele>
        <time>2023-08-11T06:57:20.000Z</time>
      </trkpt>
      <trkpt lat="45.26368" lon="6.07438">
        <ele>1678.8000488281</ele>
        <time>2023-08-11T06:57:27.000Z</time>
      </trkpt>
      <trkpt lat="45.26369" lon="6.07443">
        <ele>1680</ele>
        <time>2023-08-11T06:57:33.000Z</time>
      </trkpt>
      <trkpt lat="45.26369" lon="6.07445">
        <ele>1680.5999755859</ele>
        <time>2023-08-11T06:57:36.000Z</time>
      </trkpt>
      <trkpt lat="45.26368" lon="6.07447">
        <ele>1681</ele>
        <time>2023-08-11T06:57:40.000Z</time>
      </trkpt>
      <trkpt lat="45.26368" lon="6.07448">
        <ele>1681.8000488281</ele>
        <time>2023-08-11T06:57:43.000Z</time>
      </trkpt>
      <trkpt lat="45.26369" lon="6.07448">
        <ele>1682</ele>
        <time>2023-08-11T06:57:45.000Z</time>
      </trkpt>
      <trkpt lat="45.2637" lon="6.07453">
        <ele>1683.4000244141</ele>
        <time>2023-08-11T06:57:53.000Z</time>
      </trkpt>
      <trkpt lat="45.26369" lon="6.0746">
        <ele>1685.4000244141</ele>
        <time>2023-08-11T06:58:04.000Z</time>
      </trkpt>
      <trkpt lat="45.26369" lon="6.07463">
        <ele>1686.4000244141</ele>
        <time>2023-08-11T06:58:08.000Z</time>
      </trkpt>
      <trkpt lat="45.26369" lon="6.07463">
        <ele>1686.5999755859</ele>
        <time>2023-08-11T06:58:09.000Z</time>
      </trkpt>
      <trkpt lat="45.26368" lon="6.07464">
        <ele>1687.5999755859</ele>
        <time>2023-08-11T06:58:14.000Z</time>
      </trkpt>
      <trkpt lat="45.26367" lon="6.07464">
        <ele>1687.8000488281</ele>
        <time>2023-08-11T06:58:15.000Z</time>
      </trkpt>
      <trkpt lat="45.26367" lon="6.0746">
        <ele>1688.8000488281</ele>
        <time>2023-08-11T06:58:20.000Z</time>
      </trkpt>
      <trkpt lat="45.26363" lon="6.07463">
        <ele>1690</ele>
        <time>2023-08-11T06:58:26.000Z</time>
      </trkpt>
      <trkpt lat="45.26362" lon="6.07467">
        <ele>1691</ele>
        <time>2023-08-11T06:58:32.000Z</time>
      </trkpt>
      <trkpt lat="45.26361" lon="6.07468">
        <ele>1691.1999511719</ele>
        <time>2023-08-11T06:58:34.000Z</time>
      </trkpt>
      <trkpt lat="45.26359" lon="6.07469">
        <ele>1692.1999511719</ele>
        <time>2023-08-11T06:58:38.000Z</time>
      </trkpt>
      <trkpt lat="45.26358" lon="6.07471">
        <ele>1693.1999511719</ele>
        <time>2023-08-11T06:58:43.000Z</time>
      </trkpt>
      <trkpt lat="45.26357" lon="6.07472">
        <ele>1694.1999511719</ele>
        <time>2023-08-11T06:58:48.000Z</time>
      </trkpt>
      <trkpt lat="45.26357" lon="6.07472">
        <ele>1694.8000488281</ele>
        <time>2023-08-11T06:58:51.000Z</time>
      </trkpt>
      <trkpt lat="45.26355" lon="6.07475">
        <ele>1695.4000244141</ele>
        <time>2023-08-11T06:58:55.000Z</time>
      </trkpt>
      <trkpt lat="45.26355" lon="6.07477">
        <ele>1696.5999755859</ele>
        <time>2023-08-11T06:59:00.000Z</time>
      </trkpt>
      <trkpt lat="45.26356" lon="6.07476">
        <ele>1697.5999755859</ele>
        <time>2023-08-11T06:59:06.000Z</time>
      </trkpt>
      <trkpt lat="45.26356" lon="6.07476">
        <ele>1697.8000488281</ele>
        <time>2023-08-11T06:59:07.000Z</time>
      </trkpt>
      <trkpt lat="45.26356" lon="6.07478">
        <ele>1698.1999511719</ele>
        <time>2023-08-11T06:59:14.000Z</time>
      </trkpt>
      <trkpt lat="45.26356" lon="6.0748">
        <ele>1698.5999755859</ele>
        <time>2023-08-11T06:59:19.000Z</time>
      </trkpt>
      <trkpt lat="45.26355" lon="6.07481">
        <ele>1698.8000488281</ele>
        <time>2023-08-11T06:59:20.000Z</time>
      </trkpt>
      <trkpt lat="45.26353" lon="6.07483">
        <ele>1699.8000488281</ele>
        <time>2023-08-11T06:59:24.000Z</time>
      </trkpt>
      <trkpt lat="45.26347" lon="6.07485">
        <ele>1700.5999755859</ele>
        <time>2023-08-11T06:59:28.000Z</time>
      </trkpt>
      <trkpt lat="45.26345" lon="6.07486">
        <ele>1701</ele>
        <time>2023-08-11T06:59:31.000Z</time>
      </trkpt>
      <trkpt lat="45.26341" lon="6.0749">
        <ele>1703.5999755859</ele>
        <time>2023-08-11T06:59:45.000Z</time>
      </trkpt>
      <trkpt lat="45.26342" lon="6.07491">
        <ele>1704.1999511719</ele>
        <time>2023-08-11T06:59:49.000Z</time>
      </trkpt>
      <trkpt lat="45.26342" lon="6.07492">
        <ele>1705.1999511719</ele>
        <time>2023-08-11T06:59:55.000Z</time>
      </trkpt>
      <trkpt lat="45.26343" lon="6.07498">
        <ele>1706.8000488281</ele>
        <time>2023-08-11T07:00:03.000Z</time>
      </trkpt>
      <trkpt lat="45.26344" lon="6.075">
        <ele>1707.4000244141</ele>
        <time>2023-08-11T07:00:06.000Z</time>
      </trkpt>
      <trkpt lat="45.26343" lon="6.07501">
        <ele>1708.1999511719</ele>
        <time>2023-08-11T07:00:09.000Z</time>
      </trkpt>
      <trkpt lat="45.26343" lon="6.07502">
        <ele>1708.4000244141</ele>
        <time>2023-08-11T07:00:11.000Z</time>
      </trkpt>
      <trkpt lat="45.26341" lon="6.07505">
        <ele>1709.5999755859</ele>
        <time>2023-08-11T07:00:15.000Z</time>
      </trkpt>
      <trkpt lat="45.2634" lon="6.07505">
        <ele>1710</ele>
        <time>2023-08-11T07:00:16.000Z</time>
      </trkpt>
      <trkpt lat="45.26339" lon="6.07506">
        <ele>1710.8000488281</ele>
        <time>2023-08-11T07:00:19.000Z</time>
      </trkpt>
      <trkpt lat="45.26337" lon="6.07506">
        <ele>1711.1999511719</ele>
        <time>2023-08-11T07:00:22.000Z</time>
      </trkpt>
      <trkpt lat="45.26331" lon="6.07509">
        <ele>1712.5999755859</ele>
        <time>2023-08-11T07:00:32.000Z</time>
      </trkpt>
      <trkpt lat="45.2633" lon="6.0751">
        <ele>1713</ele>
        <time>2023-08-11T07:00:37.000Z</time>
      </trkpt>
      <trkpt lat="45.26331" lon="6.07512">
        <ele>1713.5999755859</ele>
        <time>2023-08-11T07:00:40.000Z</time>
      </trkpt>
      <trkpt lat="45.26331" lon="6.07514">
        <ele>1714</ele>
        <time>2023-08-11T07:00:43.000Z</time>
      </trkpt>
      <trkpt lat="45.2633" lon="6.07516">
        <ele>1714.4000244141</ele>
        <time>2023-08-11T07:00:45.000Z</time>
      </trkpt>
      <trkpt lat="45.2633" lon="6.07516">
        <ele>1715</ele>
        <time>2023-08-11T07:00:50.000Z</time>
      </trkpt>
      <trkpt lat="45.26329" lon="6.07517">
        <ele>1715.1999511719</ele>
        <time>2023-08-11T07:00:51.000Z</time>
      </trkpt>
      <trkpt lat="45.26327" lon="6.07519">
        <ele>1716.1999511719</ele>
        <time>2023-08-11T07:00:55.000Z</time>
      </trkpt>
      <trkpt lat="45.26326" lon="6.07519">
        <ele>1716.4000244141</ele>
        <time>2023-08-11T07:00:57.000Z</time>
      </trkpt>
      <trkpt lat="45.26315" lon="6.07528">
        <ele>1719</ele>
        <time>2023-08-11T07:01:14.000Z</time>
      </trkpt>
      <trkpt lat="45.26311" lon="6.07533">
        <ele>1720.8000488281</ele>
        <time>2023-08-11T07:01:25.000Z</time>
      </trkpt>
      <trkpt lat="45.2631" lon="6.07534">
        <ele>1721.5999755859</ele>
        <time>2023-08-11T07:01:30.000Z</time>
      </trkpt>
      <trkpt lat="45.2631" lon="6.07534">
        <ele>1721.8000488281</ele>
        <time>2023-08-11T07:01:31.000Z</time>
      </trkpt>
      <trkpt lat="45.26314" lon="6.07544">
        <ele>1725.1999511719</ele>
        <time>2023-08-11T07:01:49.000Z</time>
      </trkpt>
      <trkpt lat="45.26313" lon="6.07544">
        <ele>1725.5999755859</ele>
        <time>2023-08-11T07:01:51.000Z</time>
      </trkpt>
      <trkpt lat="45.26303" lon="6.07544">
        <ele>1727.1999511719</ele>
        <time>2023-08-11T07:02:03.000Z</time>
      </trkpt>
      <trkpt lat="45.26303" lon="6.07544">
        <ele>1727.4000244141</ele>
        <time>2023-08-11T07:02:04.000Z</time>
      </trkpt>
      <trkpt lat="45.26305" lon="6.07548">
        <ele>1728.5999755859</ele>
        <time>2023-08-11T07:02:10.000Z</time>
      </trkpt>
      <trkpt lat="45.26305" lon="6.0755">
        <ele>1729</ele>
        <time>2023-08-11T07:02:12.000Z</time>
      </trkpt>
      <trkpt lat="45.26304" lon="6.07555">
        <ele>1729.8000488281</ele>
        <time>2023-08-11T07:02:17.000Z</time>
      </trkpt>
      <trkpt lat="45.26303" lon="6.07556">
        <ele>1730.1999511719</ele>
        <time>2023-08-11T07:02:20.000Z</time>
      </trkpt>
      <trkpt lat="45.263" lon="6.07558">
        <ele>1731</ele>
        <time>2023-08-11T07:02:24.000Z</time>
      </trkpt>
      <trkpt lat="45.26298" lon="6.07558">
        <ele>1731.1999511719</ele>
        <time>2023-08-11T07:02:26.000Z</time>
      </trkpt>
      <trkpt lat="45.26296" lon="6.07559">
        <ele>1732</ele>
        <time>2023-08-11T07:02:31.000Z</time>
      </trkpt>
      <trkpt lat="45.26297" lon="6.07561">
        <ele>1732.5999755859</ele>
        <time>2023-08-11T07:02:35.000Z</time>
      </trkpt>
      <trkpt lat="45.26297" lon="6.07562">
        <ele>1732.8000488281</ele>
        <time>2023-08-11T07:02:36.000Z</time>
      </trkpt>
      <trkpt lat="45.26297" lon="6.07563">
        <ele>1733</ele>
        <time>2023-08-11T07:02:37.000Z</time>
      </trkpt>
      <trkpt lat="45.26298" lon="6.0757">
        <ele>1734</ele>
        <time>2023-08-11T07:02:43.000Z</time>
      </trkpt>
      <trkpt lat="45.26299" lon="6.07571">
        <ele>1734.1999511719</ele>
        <time>2023-08-11T07:02:44.000Z</time>
      </trkpt>
      <trkpt lat="45.26299" lon="6.07572">
        <ele>1735.1999511719</ele>
        <time>2023-08-11T07:02:49.000Z</time>
      </trkpt>
      <trkpt lat="45.263" lon="6.07574">
        <ele>1735.8000488281</ele>
        <time>2023-08-11T07:02:51.000Z</time>
      </trkpt>
      <trkpt lat="45.26301" lon="6.07577">
        <ele>1736.5999755859</ele>
        <time>2023-08-11T07:02:55.000Z</time>
      </trkpt>
      <trkpt lat="45.263" lon="6.0758">
        <ele>1737.1999511719</ele>
        <time>2023-08-11T07:02:58.000Z</time>
      </trkpt>
      <trkpt lat="45.26299" lon="6.07582">
        <ele>1737.8000488281</ele>
        <time>2023-08-11T07:03:01.000Z</time>
      </trkpt>
      <trkpt lat="45.26296" lon="6.07584">
        <ele>1738.8000488281</ele>
        <time>2023-08-11T07:03:06.000Z</time>
      </trkpt>
      <trkpt lat="45.26295" lon="6.07586">
        <ele>1739.5999755859</ele>
        <time>2023-08-11T07:03:11.000Z</time>
      </trkpt>
      <trkpt lat="45.26295" lon="6.07586">
        <ele>1740</ele>
        <time>2023-08-11T07:03:12.000Z</time>
      </trkpt>
      <trkpt lat="45.26293" lon="6.07587">
        <ele>1740.8000488281</ele>
        <time>2023-08-11T07:03:18.000Z</time>
      </trkpt>
      <trkpt lat="45.26293" lon="6.07587">
        <ele>1741</ele>
        <time>2023-08-11T07:03:19.000Z</time>
      </trkpt>
      <trkpt lat="45.2629" lon="6.07589">
        <ele>1741.4000244141</ele>
        <time>2023-08-11T07:03:24.000Z</time>
      </trkpt>
      <trkpt lat="45.26288" lon="6.07591">
        <ele>1742.1999511719</ele>
        <time>2023-08-11T07:03:27.000Z</time>
      </trkpt>
      <trkpt lat="45.26286" lon="6.07592">
        <ele>1742.4000244141</ele>
        <time>2023-08-11T07:03:29.000Z</time>
      </trkpt>
      <trkpt lat="45.26284" lon="6.07586">
        <ele>1744.1999511719</ele>
        <time>2023-08-11T07:03:38.000Z</time>
      </trkpt>
      <trkpt lat="45.26282" lon="6.07585">
        <ele>1744.4000244141</ele>
        <time>2023-08-11T07:03:39.000Z</time>
      </trkpt>
      <trkpt lat="45.26278" lon="6.07585">
        <ele>1745.4000244141</ele>
        <time>2023-08-11T07:03:46.000Z</time>
      </trkpt>
      <trkpt lat="45.26277" lon="6.07586">
        <ele>1745.5999755859</ele>
        <time>2023-08-11T07:03:47.000Z</time>
      </trkpt>
      <trkpt lat="45.26276" lon="6.07587">
        <ele>1745.8000488281</ele>
        <time>2023-08-11T07:03:48.000Z</time>
      </trkpt>
      <trkpt lat="45.26274" lon="6.07592">
        <ele>1746.5999755859</ele>
        <time>2023-08-11T07:03:52.000Z</time>
      </trkpt>
      <trkpt lat="45.26274" lon="6.07591">
        <ele>1746.8000488281</ele>
        <time>2023-08-11T07:03:53.000Z</time>
      </trkpt>
      <trkpt lat="45.26275" lon="6.07592">
        <ele>1747.8000488281</ele>
        <time>2023-08-11T07:03:59.000Z</time>
      </trkpt>
      <trkpt lat="45.26276" lon="6.07595">
        <ele>1748.4000244141</ele>
        <time>2023-08-11T07:04:03.000Z</time>
      </trkpt>
      <trkpt lat="45.26276" lon="6.07597">
        <ele>1748.8000488281</ele>
        <time>2023-08-11T07:04:06.000Z</time>
      </trkpt>
      <trkpt lat="45.26277" lon="6.07603">
        <ele>1749.8000488281</ele>
        <time>2023-08-11T07:04:11.000Z</time>
      </trkpt>
      <trkpt lat="45.26277" lon="6.07603">
        <ele>1750</ele>
        <time>2023-08-11T07:04:12.000Z</time>
      </trkpt>
      <trkpt lat="45.26277" lon="6.07606">
        <ele>1751.1999511719</ele>
        <time>2023-08-11T07:04:18.000Z</time>
      </trkpt>
      <trkpt lat="45.26278" lon="6.07609">
        <ele>1751.5999755859</ele>
        <time>2023-08-11T07:04:20.000Z</time>
      </trkpt>
      <trkpt lat="45.26277" lon="6.07612">
        <ele>1752.1999511719</ele>
        <time>2023-08-11T07:04:23.000Z</time>
      </trkpt>
      <trkpt lat="45.26275" lon="6.07613">
        <ele>1752.8000488281</ele>
        <time>2023-08-11T07:04:27.000Z</time>
      </trkpt>
      <trkpt lat="45.26275" lon="6.07613">
        <ele>1753.1999511719</ele>
        <time>2023-08-11T07:04:29.000Z</time>
      </trkpt>
      <trkpt lat="45.26275" lon="6.07613">
        <ele>1755</ele>
        <time>2023-08-11T07:04:38.000Z</time>
      </trkpt>
      <trkpt lat="45.26274" lon="6.07613">
        <ele>1755.4000244141</ele>
        <time>2023-08-11T07:04:40.000Z</time>
      </trkpt>
      <trkpt lat="45.26272" lon="6.07614">
        <ele>1756</ele>
        <time>2023-08-11T07:04:45.000Z</time>
      </trkpt>
      <trkpt lat="45.26271" lon="6.07621">
        <ele>1757.8000488281</ele>
        <time>2023-08-11T07:04:54.000Z</time>
      </trkpt>
      <trkpt lat="45.26271" lon="6.07622">
        <ele>1758.1999511719</ele>
        <time>2023-08-11T07:04:55.000Z</time>
      </trkpt>
      <trkpt lat="45.2627" lon="6.07624">
        <ele>1759</ele>
        <time>2023-08-11T07:05:00.000Z</time>
      </trkpt>
      <trkpt lat="45.26269" lon="6.07626">
        <ele>1759.8000488281</ele>
        <time>2023-08-11T07:05:05.000Z</time>
      </trkpt>
      <trkpt lat="45.26268" lon="6.07627">
        <ele>1760</ele>
        <time>2023-08-11T07:05:06.000Z</time>
      </trkpt>
      <trkpt lat="45.26266" lon="6.07631">
        <ele>1761.1999511719</ele>
        <time>2023-08-11T07:05:13.000Z</time>
      </trkpt>
      <trkpt lat="45.26268" lon="6.07633">
        <ele>1762.4000244141</ele>
        <time>2023-08-11T07:05:19.000Z</time>
      </trkpt>
      <trkpt lat="45.26268" lon="6.07635">
        <ele>1762.8000488281</ele>
        <time>2023-08-11T07:05:22.000Z</time>
      </trkpt>
      <trkpt lat="45.26268" lon="6.07637">
        <ele>1763.4000244141</ele>
        <time>2023-08-11T07:05:26.000Z</time>
      </trkpt>
      <trkpt lat="45.26268" lon="6.07638">
        <ele>1764</ele>
        <time>2023-08-11T07:05:29.000Z</time>
      </trkpt>
      <trkpt lat="45.26268" lon="6.07639">
        <ele>1764.1999511719</ele>
        <time>2023-08-11T07:05:30.000Z</time>
      </trkpt>
      <trkpt lat="45.26266" lon="6.07639">
        <ele>1764.5999755859</ele>
        <time>2023-08-11T07:05:33.000Z</time>
      </trkpt>
      <trkpt lat="45.26265" lon="6.07641">
        <ele>1765.1999511719</ele>
        <time>2023-08-11T07:05:37.000Z</time>
      </trkpt>
      <trkpt lat="45.26265" lon="6.07642">
        <ele>1765.8000488281</ele>
        <time>2023-08-11T07:05:39.000Z</time>
      </trkpt>
      <trkpt lat="45.26264" lon="6.07644">
        <ele>1766.8000488281</ele>
        <time>2023-08-11T07:05:45.000Z</time>
      </trkpt>
      <trkpt lat="45.2626" lon="6.07648">
        <ele>1768</ele>
        <time>2023-08-11T07:05:52.000Z</time>
      </trkpt>
      <trkpt lat="45.26256" lon="6.07651">
        <ele>1769</ele>
        <time>2023-08-11T07:05:58.000Z</time>
      </trkpt>
      <trkpt lat="45.26256" lon="6.07651">
        <ele>1769.1999511719</ele>
        <time>2023-08-11T07:05:59.000Z</time>
      </trkpt>
      <trkpt lat="45.26255" lon="6.07649">
        <ele>1770.1999511719</ele>
        <time>2023-08-11T07:06:05.000Z</time>
      </trkpt>
      <trkpt lat="45.26255" lon="6.07648">
        <ele>1771.1999511719</ele>
        <time>2023-08-11T07:06:13.000Z</time>
      </trkpt>
      <trkpt lat="45.26255" lon="6.0765">
        <ele>1772.1999511719</ele>
        <time>2023-08-11T07:06:17.000Z</time>
      </trkpt>
      <trkpt lat="45.26254" lon="6.07651">
        <ele>1772.1999511719</ele>
        <time>2023-08-11T07:06:18.000Z</time>
      </trkpt>
      <trkpt lat="45.26254" lon="6.07652">
        <ele>1773.4000244141</ele>
        <time>2023-08-11T07:06:25.000Z</time>
      </trkpt>
      <trkpt lat="45.26251" lon="6.07654">
        <ele>1774.5999755859</ele>
        <time>2023-08-11T07:06:32.000Z</time>
      </trkpt>
      <trkpt lat="45.2625" lon="6.07655">
        <ele>1775</ele>
        <time>2023-08-11T07:06:33.000Z</time>
      </trkpt>
      <trkpt lat="45.26249" lon="6.07658">
        <ele>1775.8000488281</ele>
        <time>2023-08-11T07:06:38.000Z</time>
      </trkpt>
      <trkpt lat="45.26249" lon="6.0766">
        <ele>1776.1999511719</ele>
        <time>2023-08-11T07:06:41.000Z</time>
      </trkpt>
      <trkpt lat="45.26249" lon="6.0766">
        <ele>1776.8000488281</ele>
        <time>2023-08-11T07:06:45.000Z</time>
      </trkpt>
      <trkpt lat="45.26247" lon="6.07664">
        <ele>1777.5999755859</ele>
        <time>2023-08-11T07:06:50.000Z</time>
      </trkpt>
      <trkpt lat="45.26246" lon="6.07664">
        <ele>1777.8000488281</ele>
        <time>2023-08-11T07:06:51.000Z</time>
      </trkpt>
      <trkpt lat="45.26246" lon="6.07663">
        <ele>1778.4000244141</ele>
        <time>2023-08-11T07:06:55.000Z</time>
      </trkpt>
      <trkpt lat="45.26245" lon="6.07662">
        <ele>1778.8000488281</ele>
        <time>2023-08-11T07:06:58.000Z</time>
      </trkpt>
      <trkpt lat="45.26243" lon="6.07663">
        <ele>1779</ele>
        <time>2023-08-11T07:06:59.000Z</time>
      </trkpt>
      <trkpt lat="45.26242" lon="6.07664">
        <ele>1779.4000244141</ele>
        <time>2023-08-11T07:07:01.000Z</time>
      </trkpt>
      <trkpt lat="45.26239" lon="6.07666">
        <ele>1780</ele>
        <time>2023-08-11T07:07:05.000Z</time>
      </trkpt>
      <trkpt lat="45.26237" lon="6.07668">
        <ele>1781.1999511719</ele>
        <time>2023-08-11T07:07:13.000Z</time>
      </trkpt>
      <trkpt lat="45.26236" lon="6.07669">
        <ele>1781.4000244141</ele>
        <time>2023-08-11T07:07:16.000Z</time>
      </trkpt>
      <trkpt lat="45.26235" lon="6.07673">
        <ele>1782.4000244141</ele>
        <time>2023-08-11T07:07:21.000Z</time>
      </trkpt>
      <trkpt lat="45.26235" lon="6.07675">
        <ele>1782.8000488281</ele>
        <time>2023-08-11T07:07:24.000Z</time>
      </trkpt>
      <trkpt lat="45.26231" lon="6.07682">
        <ele>1783.4000244141</ele>
        <time>2023-08-11T07:07:31.000Z</time>
      </trkpt>
      <trkpt lat="45.26229" lon="6.07684">
        <ele>1783.4000244141</ele>
        <time>2023-08-11T07:07:33.000Z</time>
      </trkpt>
      <trkpt lat="45.26227" lon="6.07686">
        <ele>1784</ele>
        <time>2023-08-11T07:07:40.000Z</time>
      </trkpt>
      <trkpt lat="45.26225" lon="6.07688">
        <ele>1784.5999755859</ele>
        <time>2023-08-11T07:07:47.000Z</time>
      </trkpt>
      <trkpt lat="45.26224" lon="6.07691">
        <ele>1784.8000488281</ele>
        <time>2023-08-11T07:07:50.000Z</time>
      </trkpt>
      <trkpt lat="45.26219" lon="6.07693">
        <ele>1785.1999511719</ele>
        <time>2023-08-11T07:07:58.000Z</time>
      </trkpt>
      <trkpt lat="45.26217" lon="6.07692">
        <ele>1785</ele>
        <time>2023-08-11T07:08:01.000Z</time>
      </trkpt>
      <trkpt lat="45.26215" lon="6.07689">
        <ele>1784.8000488281</ele>
        <time>2023-08-11T07:08:06.000Z</time>
      </trkpt>
      <trkpt lat="45.26216" lon="6.07688">
        <ele>1784.4000244141</ele>
        <time>2023-08-11T07:08:15.000Z</time>
      </trkpt>
      <trkpt lat="45.26213" lon="6.0769">
        <ele>1784.4000244141</ele>
        <time>2023-08-11T07:08:22.000Z</time>
      </trkpt>
      <trkpt lat="45.26209" lon="6.0769">
        <ele>1783.5999755859</ele>
        <time>2023-08-11T07:08:30.000Z</time>
      </trkpt>
      <trkpt lat="45.26209" lon="6.0769">
        <ele>1783.4000244141</ele>
        <time>2023-08-11T07:08:32.000Z</time>
      </trkpt>
      <trkpt lat="45.26209" lon="6.07688">
        <ele>1782.5999755859</ele>
        <time>2023-08-11T07:08:37.000Z</time>
      </trkpt>
      <trkpt lat="45.26209" lon="6.07688">
        <ele>1782.4000244141</ele>
        <time>2023-08-11T07:08:38.000Z</time>
      </trkpt>
      <trkpt lat="45.26207" lon="6.07684">
        <ele>1781.4000244141</ele>
        <time>2023-08-11T07:08:43.000Z</time>
      </trkpt>
      <trkpt lat="45.26207" lon="6.07683">
        <ele>1781.1999511719</ele>
        <time>2023-08-11T07:08:44.000Z</time>
      </trkpt>
      <trkpt lat="45.26206" lon="6.07683">
        <ele>1780.1999511719</ele>
        <time>2023-08-11T07:08:48.000Z</time>
      </trkpt>
      <trkpt lat="45.26204" lon="6.07684">
        <ele>1779.5999755859</ele>
        <time>2023-08-11T07:08:51.000Z</time>
      </trkpt>
      <trkpt lat="45.26197" lon="6.07689">
        <ele>1779</ele>
        <time>2023-08-11T07:08:58.000Z</time>
      </trkpt>
      <trkpt lat="45.26195" lon="6.07692">
        <ele>1778.5999755859</ele>
        <time>2023-08-11T07:09:03.000Z</time>
      </trkpt>
      <trkpt lat="45.2619" lon="6.07692">
        <ele>1778.4000244141</ele>
        <time>2023-08-11T07:09:13.000Z</time>
      </trkpt>
      <trkpt lat="45.26186" lon="6.07693">
        <ele>1778.1999511719</ele>
        <time>2023-08-11T07:09:19.000Z</time>
      </trkpt>
      <trkpt lat="45.26179" lon="6.07696">
        <ele>1777.8000488281</ele>
        <time>2023-08-11T07:09:30.000Z</time>
      </trkpt>
      <trkpt lat="45.26175" lon="6.07699">
        <ele>1777.1999511719</ele>
        <time>2023-08-11T07:09:38.000Z</time>
      </trkpt>
      <trkpt lat="45.26171" lon="6.07703">
        <ele>1776.1999511719</ele>
        <time>2023-08-11T07:09:47.000Z</time>
      </trkpt>
      <trkpt lat="45.26171" lon="6.07704">
        <ele>1776</ele>
        <time>2023-08-11T07:09:48.000Z</time>
      </trkpt>
      <trkpt lat="45.26166" lon="6.07706">
        <ele>1775.1999511719</ele>
        <time>2023-08-11T07:09:58.000Z</time>
      </trkpt>
      <trkpt lat="45.26162" lon="6.07709">
        <ele>1775.5999755859</ele>
        <time>2023-08-11T07:10:05.000Z</time>
      </trkpt>
      <trkpt lat="45.2615" lon="6.07709">
        <ele>1776.4000244141</ele>
        <time>2023-08-11T07:10:20.000Z</time>
      </trkpt>
      <trkpt lat="45.26142" lon="6.07711">
        <ele>1777.8000488281</ele>
        <time>2023-08-11T07:10:34.000Z</time>
      </trkpt>
      <trkpt lat="45.2614" lon="6.07713">
        <ele>1778.1999511719</ele>
        <time>2023-08-11T07:10:40.000Z</time>
      </trkpt>
      <trkpt lat="45.2614" lon="6.07714">
        <ele>1778.4000244141</ele>
        <time>2023-08-11T07:10:41.000Z</time>
      </trkpt>
      <trkpt lat="45.26136" lon="6.0772">
        <ele>1779</ele>
        <time>2023-08-11T07:10:48.000Z</time>
      </trkpt>
      <trkpt lat="45.26135" lon="6.07722">
        <ele>1779.4000244141</ele>
        <time>2023-08-11T07:10:50.000Z</time>
      </trkpt>
      <trkpt lat="45.26134" lon="6.07724">
        <ele>1780</ele>
        <time>2023-08-11T07:10:54.000Z</time>
      </trkpt>
      <trkpt lat="45.26131" lon="6.07728">
        <ele>1780.5999755859</ele>
        <time>2023-08-11T07:11:00.000Z</time>
      </trkpt>
      <trkpt lat="45.26131" lon="6.07728">
        <ele>1780.8000488281</ele>
        <time>2023-08-11T07:11:02.000Z</time>
      </trkpt>
      <trkpt lat="45.26126" lon="6.07733">
        <ele>1781</ele>
        <time>2023-08-11T07:11:11.000Z</time>
      </trkpt>
      <trkpt lat="45.26119" lon="6.07738">
        <ele>1781.5999755859</ele>
        <time>2023-08-11T07:11:17.000Z</time>
      </trkpt>
      <trkpt lat="45.26117" lon="6.0774">
        <ele>1781.8000488281</ele>
        <time>2023-08-11T07:11:20.000Z</time>
      </trkpt>
      <trkpt lat="45.26116" lon="6.0774">
        <ele>1781.8000488281</ele>
        <time>2023-08-11T07:11:22.000Z</time>
      </trkpt>
      <trkpt lat="45.26117" lon="6.07743">
        <ele>1781.8000488281</ele>
        <time>2023-08-11T07:11:27.000Z</time>
      </trkpt>
      <trkpt lat="45.26119" lon="6.07741">
        <ele>1781.5999755859</ele>
        <time>2023-08-11T07:11:34.000Z</time>
      </trkpt>
      <trkpt lat="45.26117" lon="6.07742">
        <ele>1781.5999755859</ele>
        <time>2023-08-11T07:11:41.000Z</time>
      </trkpt>
      <trkpt lat="45.26108" lon="6.07742">
        <ele>1781.1999511719</ele>
        <time>2023-08-11T07:11:51.000Z</time>
      </trkpt>
      <trkpt lat="45.26106" lon="6.07739">
        <ele>1781.8000488281</ele>
        <time>2023-08-11T07:11:57.000Z</time>
      </trkpt>
      <trkpt lat="45.26103" lon="6.07743">
        <ele>1782.4000244141</ele>
        <time>2023-08-11T07:12:03.000Z</time>
      </trkpt>
      <trkpt lat="45.26103" lon="6.07744">
        <ele>1782.5999755859</ele>
        <time>2023-08-11T07:12:04.000Z</time>
      </trkpt>
      <trkpt lat="45.26098" lon="6.07745">
        <ele>1783.8000488281</ele>
        <time>2023-08-11T07:12:12.000Z</time>
      </trkpt>
      <trkpt lat="45.26098" lon="6.07747">
        <ele>1784.8000488281</ele>
        <time>2023-08-11T07:12:19.000Z</time>
      </trkpt>
      <trkpt lat="45.26096" lon="6.07749">
        <ele>1785.4000244141</ele>
        <time>2023-08-11T07:12:22.000Z</time>
      </trkpt>
      <trkpt lat="45.26096" lon="6.0775">
        <ele>1786</ele>
        <time>2023-08-11T07:12:25.000Z</time>
      </trkpt>
      <trkpt lat="45.26093" lon="6.07752">
        <ele>1786.8000488281</ele>
        <time>2023-08-11T07:12:30.000Z</time>
      </trkpt>
      <trkpt lat="45.26091" lon="6.07752">
        <ele>1787</ele>
        <time>2023-08-11T07:12:34.000Z</time>
      </trkpt>
      <trkpt lat="45.26089" lon="6.07752">
        <ele>1787.5999755859</ele>
        <time>2023-08-11T07:12:38.000Z</time>
      </trkpt>
      <trkpt lat="45.26088" lon="6.07754">
        <ele>1788</ele>
        <time>2023-08-11T07:12:40.000Z</time>
      </trkpt>
      <trkpt lat="45.26087" lon="6.07756">
        <ele>1788.4000244141</ele>
        <time>2023-08-11T07:12:42.000Z</time>
      </trkpt>
      <trkpt lat="45.26085" lon="6.07759">
        <ele>1788.8000488281</ele>
        <time>2023-08-11T07:12:46.000Z</time>
      </trkpt>
      <trkpt lat="45.26083" lon="6.07761">
        <ele>1789.1999511719</ele>
        <time>2023-08-11T07:12:48.000Z</time>
      </trkpt>
      <trkpt lat="45.26082" lon="6.07763">
        <ele>1789.8000488281</ele>
        <time>2023-08-11T07:12:53.000Z</time>
      </trkpt>
      <trkpt lat="45.2608" lon="6.07766">
        <ele>1790.1999511719</ele>
        <time>2023-08-11T07:12:56.000Z</time>
      </trkpt>
      <trkpt lat="45.26081" lon="6.07764">
        <ele>1790.5999755859</ele>
        <time>2023-08-11T07:13:00.000Z</time>
      </trkpt>
      <trkpt lat="45.26081" lon="6.07765">
        <ele>1791.1999511719</ele>
        <time>2023-08-11T07:13:04.000Z</time>
      </trkpt>
      <trkpt lat="45.26079" lon="6.07768">
        <ele>1792.4000244141</ele>
        <time>2023-08-11T07:13:09.000Z</time>
      </trkpt>
      <trkpt lat="45.26078" lon="6.07769">
        <ele>1792.5999755859</ele>
        <time>2023-08-11T07:13:11.000Z</time>
      </trkpt>
      <trkpt lat="45.26075" lon="6.07771">
        <ele>1793.4000244141</ele>
        <time>2023-08-11T07:13:17.000Z</time>
      </trkpt>
      <trkpt lat="45.26075" lon="6.07771">
        <ele>1793.5999755859</ele>
        <time>2023-08-11T07:13:18.000Z</time>
      </trkpt>
      <trkpt lat="45.26073" lon="6.07776">
        <ele>1794.4000244141</ele>
        <time>2023-08-11T07:13:24.000Z</time>
      </trkpt>
      <trkpt lat="45.26074" lon="6.07778">
        <ele>1795.1999511719</ele>
        <time>2023-08-11T07:13:27.000Z</time>
      </trkpt>
      <trkpt lat="45.26072" lon="6.07784">
        <ele>1795.5999755859</ele>
        <time>2023-08-11T07:13:31.000Z</time>
      </trkpt>
      <trkpt lat="45.26069" lon="6.07785">
        <ele>1795.8000488281</ele>
        <time>2023-08-11T07:13:36.000Z</time>
      </trkpt>
      <trkpt lat="45.26068" lon="6.07784">
        <ele>1796.5999755859</ele>
        <time>2023-08-11T07:13:43.000Z</time>
      </trkpt>
      <trkpt lat="45.26065" lon="6.07785">
        <ele>1797.1999511719</ele>
        <time>2023-08-11T07:13:47.000Z</time>
      </trkpt>
      <trkpt lat="45.26062" lon="6.07789">
        <ele>1797.8000488281</ele>
        <time>2023-08-11T07:13:51.000Z</time>
      </trkpt>
      <trkpt lat="45.2606" lon="6.0779">
        <ele>1798.1999511719</ele>
        <time>2023-08-11T07:13:54.000Z</time>
      </trkpt>
      <trkpt lat="45.26059" lon="6.07793">
        <ele>1798.8000488281</ele>
        <time>2023-08-11T07:13:59.000Z</time>
      </trkpt>
      <trkpt lat="45.26058" lon="6.07796">
        <ele>1799.1999511719</ele>
        <time>2023-08-11T07:14:03.000Z</time>
      </trkpt>
      <trkpt lat="45.26057" lon="6.07799">
        <ele>1800</ele>
        <time>2023-08-11T07:14:08.000Z</time>
      </trkpt>
      <trkpt lat="45.26055" lon="6.07802">
        <ele>1800.4000244141</ele>
        <time>2023-08-11T07:14:12.000Z</time>
      </trkpt>
      <trkpt lat="45.26052" lon="6.07802">
        <ele>1800.5999755859</ele>
        <time>2023-08-11T07:14:16.000Z</time>
      </trkpt>
      <trkpt lat="45.26049" lon="6.07803">
        <ele>1800.8000488281</ele>
        <time>2023-08-11T07:14:19.000Z</time>
      </trkpt>
      <trkpt lat="45.26048" lon="6.07803">
        <ele>1801</ele>
        <time>2023-08-11T07:14:20.000Z</time>
      </trkpt>
      <trkpt lat="45.26047" lon="6.07802">
        <ele>1801.5999755859</ele>
        <time>2023-08-11T07:14:27.000Z</time>
      </trkpt>
      <trkpt lat="45.26043" lon="6.07803">
        <ele>1802.5999755859</ele>
        <time>2023-08-11T07:14:35.000Z</time>
      </trkpt>
      <trkpt lat="45.2604" lon="6.07803">
        <ele>1803.1999511719</ele>
        <time>2023-08-11T07:14:41.000Z</time>
      </trkpt>
      <trkpt lat="45.26036" lon="6.07805">
        <ele>1803.8000488281</ele>
        <time>2023-08-11T07:14:46.000Z</time>
      </trkpt>
      <trkpt lat="45.26032" lon="6.07807">
        <ele>1804.1999511719</ele>
        <time>2023-08-11T07:14:52.000Z</time>
      </trkpt>
      <trkpt lat="45.26031" lon="6.07807">
        <ele>1804.5999755859</ele>
        <time>2023-08-11T07:14:54.000Z</time>
      </trkpt>
      <trkpt lat="45.26024" lon="6.07809">
        <ele>1806.4000244141</ele>
        <time>2023-08-11T07:15:06.000Z</time>
      </trkpt>
      <trkpt lat="45.26023" lon="6.0781">
        <ele>1806.8000488281</ele>
        <time>2023-08-11T07:15:09.000Z</time>
      </trkpt>
      <trkpt lat="45.26023" lon="6.07809">
        <ele>1807.5999755859</ele>
        <time>2023-08-11T07:15:14.000Z</time>
      </trkpt>
      <trkpt lat="45.26021" lon="6.07811">
        <ele>1808.1999511719</ele>
        <time>2023-08-11T07:15:18.000Z</time>
      </trkpt>
      <trkpt lat="45.2602" lon="6.07813">
        <ele>1808.5999755859</ele>
        <time>2023-08-11T07:15:22.000Z</time>
      </trkpt>
      <trkpt lat="45.26017" lon="6.07814">
        <ele>1809.4000244141</ele>
        <time>2023-08-11T07:15:27.000Z</time>
      </trkpt>
      <trkpt lat="45.26017" lon="6.07815">
        <ele>1809.8000488281</ele>
        <time>2023-08-11T07:15:31.000Z</time>
      </trkpt>
      <trkpt lat="45.26017" lon="6.07818">
        <ele>1810.4000244141</ele>
        <time>2023-08-11T07:15:35.000Z</time>
      </trkpt>
      <trkpt lat="45.26016" lon="6.07819">
        <ele>1810.8000488281</ele>
        <time>2023-08-11T07:15:37.000Z</time>
      </trkpt>
      <trkpt lat="45.26017" lon="6.07822">
        <ele>1811.8000488281</ele>
        <time>2023-08-11T07:15:43.000Z</time>
      </trkpt>
      <trkpt lat="45.26015" lon="6.07826">
        <ele>1812.8000488281</ele>
        <time>2023-08-11T07:15:49.000Z</time>
      </trkpt>
      <trkpt lat="45.26015" lon="6.07825">
        <ele>1812.8000488281</ele>
        <time>2023-08-11T07:15:50.000Z</time>
      </trkpt>
      <trkpt lat="45.26013" lon="6.07828">
        <ele>1813.8000488281</ele>
        <time>2023-08-11T07:15:57.000Z</time>
      </trkpt>
      <trkpt lat="45.26013" lon="6.07829">
        <ele>1814</ele>
        <time>2023-08-11T07:15:58.000Z</time>
      </trkpt>
      <trkpt lat="45.26015" lon="6.07834">
        <ele>1814.8000488281</ele>
        <time>2023-08-11T07:16:04.000Z</time>
      </trkpt>
      <trkpt lat="45.26015" lon="6.07835">
        <ele>1815</ele>
        <time>2023-08-11T07:16:06.000Z</time>
      </trkpt>
      <trkpt lat="45.26017" lon="6.07838">
        <ele>1815.4000244141</ele>
        <time>2023-08-11T07:16:10.000Z</time>
      </trkpt>
      <trkpt lat="45.26017" lon="6.07843">
        <ele>1816</ele>
        <time>2023-08-11T07:16:17.000Z</time>
      </trkpt>
      <trkpt lat="45.26015" lon="6.0784">
        <ele>1816.8000488281</ele>
        <time>2023-08-11T07:16:24.000Z</time>
      </trkpt>
      <trkpt lat="45.26014" lon="6.0784">
        <ele>1817.1999511719</ele>
        <time>2023-08-11T07:16:26.000Z</time>
      </trkpt>
      <trkpt lat="45.26011" lon="6.0784">
        <ele>1817.8000488281</ele>
        <time>2023-08-11T07:16:32.000Z</time>
      </trkpt>
      <trkpt lat="45.26009" lon="6.07839">
        <ele>1818.1999511719</ele>
        <time>2023-08-11T07:16:35.000Z</time>
      </trkpt>
      <trkpt lat="45.26005" lon="6.07838">
        <ele>1819</ele>
        <time>2023-08-11T07:16:40.000Z</time>
      </trkpt>
      <trkpt lat="45.26004" lon="6.07838">
        <ele>1819.1999511719</ele>
        <time>2023-08-11T07:16:41.000Z</time>
      </trkpt>
      <trkpt lat="45.26" lon="6.07836">
        <ele>1820.1999511719</ele>
        <time>2023-08-11T07:16:49.000Z</time>
      </trkpt>
      <trkpt lat="45.26" lon="6.07838">
        <ele>1821.4000244141</ele>
        <time>2023-08-11T07:16:55.000Z</time>
      </trkpt>
      <trkpt lat="45.25999" lon="6.07839">
        <ele>1821.5999755859</ele>
        <time>2023-08-11T07:16:57.000Z</time>
      </trkpt>
      <trkpt lat="45.25993" lon="6.07843">
        <ele>1823.5999755859</ele>
        <time>2023-08-11T07:17:11.000Z</time>
      </trkpt>
      <trkpt lat="45.25994" lon="6.07846">
        <ele>1824.5999755859</ele>
        <time>2023-08-11T07:17:20.000Z</time>
      </trkpt>
      <trkpt lat="45.25996" lon="6.07853">
        <ele>1825.8000488281</ele>
        <time>2023-08-11T07:17:28.000Z</time>
      </trkpt>
      <trkpt lat="45.25997" lon="6.07855">
        <ele>1826</ele>
        <time>2023-08-11T07:17:30.000Z</time>
      </trkpt>
      <trkpt lat="45.25998" lon="6.0786">
        <ele>1826.8000488281</ele>
        <time>2023-08-11T07:17:37.000Z</time>
      </trkpt>
      <trkpt lat="45.25998" lon="6.0786">
        <ele>1827</ele>
        <time>2023-08-11T07:17:38.000Z</time>
      </trkpt>
      <trkpt lat="45.25999" lon="6.07866">
        <ele>1827.8000488281</ele>
        <time>2023-08-11T07:17:45.000Z</time>
      </trkpt>
      <trkpt lat="45.25999" lon="6.07866">
        <ele>1828</ele>
        <time>2023-08-11T07:17:46.000Z</time>
      </trkpt>
      <trkpt lat="45.26001" lon="6.07869">
        <ele>1828.5999755859</ele>
        <time>2023-08-11T07:17:53.000Z</time>
      </trkpt>
      <trkpt lat="45.26001" lon="6.07872">
        <ele>1828.8000488281</ele>
        <time>2023-08-11T07:17:55.000Z</time>
      </trkpt>
      <trkpt lat="45.26" lon="6.07878">
        <ele>1829.5999755859</ele>
        <time>2023-08-11T07:18:01.000Z</time>
      </trkpt>
      <trkpt lat="45.26" lon="6.07879">
        <ele>1830</ele>
        <time>2023-08-11T07:18:03.000Z</time>
      </trkpt>
      <trkpt lat="45.26001" lon="6.07881">
        <ele>1830.5999755859</ele>
        <time>2023-08-11T07:18:08.000Z</time>
      </trkpt>
      <trkpt lat="45.25999" lon="6.07886">
        <ele>1831.1999511719</ele>
        <time>2023-08-11T07:18:12.000Z</time>
      </trkpt>
      <trkpt lat="45.25998" lon="6.07886">
        <ele>1831.5999755859</ele>
        <time>2023-08-11T07:18:15.000Z</time>
      </trkpt>
      <trkpt lat="45.25997" lon="6.07888">
        <ele>1832.1999511719</ele>
        <time>2023-08-11T07:18:19.000Z</time>
      </trkpt>
      <trkpt lat="45.25997" lon="6.07889">
        <ele>1832.5999755859</ele>
        <time>2023-08-11T07:18:22.000Z</time>
      </trkpt>
      <trkpt lat="45.25996" lon="6.07892">
        <ele>1833.4000244141</ele>
        <time>2023-08-11T07:18:27.000Z</time>
      </trkpt>
      <trkpt lat="45.25995" lon="6.07894">
        <ele>1834</ele>
        <time>2023-08-11T07:18:31.000Z</time>
      </trkpt>
      <trkpt lat="45.25995" lon="6.07895">
        <ele>1834.5999755859</ele>
        <time>2023-08-11T07:18:36.000Z</time>
      </trkpt>
      <trkpt lat="45.25994" lon="6.07895">
        <ele>1834.8000488281</ele>
        <time>2023-08-11T07:18:38.000Z</time>
      </trkpt>
      <trkpt lat="45.2599" lon="6.07895">
        <ele>1835.4000244141</ele>
        <time>2023-08-11T07:18:45.000Z</time>
      </trkpt>
      <trkpt lat="45.2599" lon="6.07895">
        <ele>1835.5999755859</ele>
        <time>2023-08-11T07:18:46.000Z</time>
      </trkpt>
      <trkpt lat="45.25988" lon="6.0789">
        <ele>1836.8000488281</ele>
        <time>2023-08-11T07:18:52.000Z</time>
      </trkpt>
      <trkpt lat="45.25987" lon="6.07889">
        <ele>1836.8000488281</ele>
        <time>2023-08-11T07:18:53.000Z</time>
      </trkpt>
      <trkpt lat="45.25984" lon="6.07888">
        <ele>1837.5999755859</ele>
        <time>2023-08-11T07:19:00.000Z</time>
      </trkpt>
      <trkpt lat="45.25984" lon="6.07888">
        <ele>1837.8000488281</ele>
        <time>2023-08-11T07:19:01.000Z</time>
      </trkpt>
      <trkpt lat="45.2598" lon="6.07885">
        <ele>1838.5999755859</ele>
        <time>2023-08-11T07:19:07.000Z</time>
      </trkpt>
      <trkpt lat="45.25979" lon="6.07883">
        <ele>1838.8000488281</ele>
        <time>2023-08-11T07:19:10.000Z</time>
      </trkpt>
      <trkpt lat="45.25979" lon="6.07883">
        <ele>1839.4000244141</ele>
        <time>2023-08-11T07:19:13.000Z</time>
      </trkpt>
      <trkpt lat="45.25975" lon="6.07881">
        <ele>1840</ele>
        <time>2023-08-11T07:19:18.000Z</time>
      </trkpt>
      <trkpt lat="45.25973" lon="6.07885">
        <ele>1841</ele>
        <time>2023-08-11T07:19:25.000Z</time>
      </trkpt>
      <trkpt lat="45.25972" lon="6.07888">
        <ele>1842</ele>
        <time>2023-08-11T07:19:32.000Z</time>
      </trkpt>
      <trkpt lat="45.25972" lon="6.07888">
        <ele>1842</ele>
        <time>2023-08-11T07:19:33.000Z</time>
      </trkpt>
      <trkpt lat="45.25971" lon="6.07893">
        <ele>1842.8000488281</ele>
        <time>2023-08-11T07:19:40.000Z</time>
      </trkpt>
      <trkpt lat="45.25971" lon="6.07895">
        <ele>1843</ele>
        <time>2023-08-11T07:19:43.000Z</time>
      </trkpt>
      <trkpt lat="45.25972" lon="6.079">
        <ele>1843.8000488281</ele>
        <time>2023-08-11T07:19:49.000Z</time>
      </trkpt>
      <trkpt lat="45.25973" lon="6.07903">
        <ele>1844.1999511719</ele>
        <time>2023-08-11T07:19:52.000Z</time>
      </trkpt>
      <trkpt lat="45.25973" lon="6.07907">
        <ele>1844.8000488281</ele>
        <time>2023-08-11T07:19:57.000Z</time>
      </trkpt>
      <trkpt lat="45.25973" lon="6.07908">
        <ele>1845.1999511719</ele>
        <time>2023-08-11T07:19:59.000Z</time>
      </trkpt>
      <trkpt lat="45.25971" lon="6.07904">
        <ele>1845.5999755859</ele>
        <time>2023-08-11T07:20:03.000Z</time>
      </trkpt>
      <trkpt lat="45.25966" lon="6.07901">
        <ele>1846.1999511719</ele>
        <time>2023-08-11T07:20:11.000Z</time>
      </trkpt>
      <trkpt lat="45.25965" lon="6.07901">
        <ele>1846.1999511719</ele>
        <time>2023-08-11T07:20:12.000Z</time>
      </trkpt>
      <trkpt lat="45.25963" lon="6.07897">
        <ele>1847.1999511719</ele>
        <time>2023-08-11T07:20:18.000Z</time>
      </trkpt>
      <trkpt lat="45.25962" lon="6.07896">
        <ele>1847.4000244141</ele>
        <time>2023-08-11T07:20:20.000Z</time>
      </trkpt>
      <trkpt lat="45.25962" lon="6.07895">
        <ele>1848</ele>
        <time>2023-08-11T07:20:25.000Z</time>
      </trkpt>
      <trkpt lat="45.25961" lon="6.07893">
        <ele>1848.5999755859</ele>
        <time>2023-08-11T07:20:28.000Z</time>
      </trkpt>
      <trkpt lat="45.25959" lon="6.0789">
        <ele>1849</ele>
        <time>2023-08-11T07:20:32.000Z</time>
      </trkpt>
      <trkpt lat="45.25955" lon="6.07887">
        <ele>1849.5999755859</ele>
        <time>2023-08-11T07:20:36.000Z</time>
      </trkpt>
      <trkpt lat="45.25954" lon="6.07886">
        <ele>1850</ele>
        <time>2023-08-11T07:20:39.000Z</time>
      </trkpt>
      <trkpt lat="45.2595" lon="6.07883">
        <ele>1850.5999755859</ele>
        <time>2023-08-11T07:20:46.000Z</time>
      </trkpt>
      <trkpt lat="45.25949" lon="6.07882">
        <ele>1850.8000488281</ele>
        <time>2023-08-11T07:20:47.000Z</time>
      </trkpt>
      <trkpt lat="45.25948" lon="6.07878">
        <ele>1851.5999755859</ele>
        <time>2023-08-11T07:20:54.000Z</time>
      </trkpt>
      <trkpt lat="45.25948" lon="6.07877">
        <ele>1851.5999755859</ele>
        <time>2023-08-11T07:20:55.000Z</time>
      </trkpt>
      <trkpt lat="45.25947" lon="6.07873">
        <ele>1852.4000244141</ele>
        <time>2023-08-11T07:21:01.000Z</time>
      </trkpt>
      <trkpt lat="45.25947" lon="6.07872">
        <ele>1852.5999755859</ele>
        <time>2023-08-11T07:21:05.000Z</time>
      </trkpt>
      <trkpt lat="45.25945" lon="6.07872">
        <ele>1853.1999511719</ele>
        <time>2023-08-11T07:21:10.000Z</time>
      </trkpt>
      <trkpt lat="45.25943" lon="6.07871">
        <ele>1853.5999755859</ele>
        <time>2023-08-11T07:21:16.000Z</time>
      </trkpt>
      <trkpt lat="45.25942" lon="6.07871">
        <ele>1853.8000488281</ele>
        <time>2023-08-11T07:21:18.000Z</time>
      </trkpt>
      <trkpt lat="45.25939" lon="6.07873">
        <ele>1854.5999755859</ele>
        <time>2023-08-11T07:21:25.000Z</time>
      </trkpt>
      <trkpt lat="45.2594" lon="6.07873">
        <ele>1854.8000488281</ele>
        <time>2023-08-11T07:21:26.000Z</time>
      </trkpt>
      <trkpt lat="45.2594" lon="6.0788">
        <ele>1855.5999755859</ele>
        <time>2023-08-11T07:21:32.000Z</time>
      </trkpt>
      <trkpt lat="45.2594" lon="6.07881">
        <ele>1855.8000488281</ele>
        <time>2023-08-11T07:21:34.000Z</time>
      </trkpt>
      <trkpt lat="45.25939" lon="6.07885">
        <ele>1856.8000488281</ele>
        <time>2023-08-11T07:21:41.000Z</time>
      </trkpt>
      <trkpt lat="45.25938" lon="6.07886">
        <ele>1856.8000488281</ele>
        <time>2023-08-11T07:21:42.000Z</time>
      </trkpt>
      <trkpt lat="45.25939" lon="6.0789">
        <ele>1857.5999755859</ele>
        <time>2023-08-11T07:21:49.000Z</time>
      </trkpt>
      <trkpt lat="45.25939" lon="6.07891">
        <ele>1858</ele>
        <time>2023-08-11T07:21:51.000Z</time>
      </trkpt>
      <trkpt lat="45.2594" lon="6.07897">
        <ele>1858.4000244141</ele>
        <time>2023-08-11T07:21:57.000Z</time>
      </trkpt>
      <trkpt lat="45.2594" lon="6.07902">
        <ele>1859</ele>
        <time>2023-08-11T07:22:01.000Z</time>
      </trkpt>
      <trkpt lat="45.25939" lon="6.07904">
        <ele>1859.4000244141</ele>
        <time>2023-08-11T07:22:03.000Z</time>
      </trkpt>
      <trkpt lat="45.25939" lon="6.07901">
        <ele>1860</ele>
        <time>2023-08-11T07:22:10.000Z</time>
      </trkpt>
      <trkpt lat="45.25939" lon="6.07901">
        <ele>1860.1999511719</ele>
        <time>2023-08-11T07:22:11.000Z</time>
      </trkpt>
      <trkpt lat="45.25937" lon="6.07898">
        <ele>1860.8000488281</ele>
        <time>2023-08-11T07:22:17.000Z</time>
      </trkpt>
      <trkpt lat="45.25935" lon="6.07897">
        <ele>1861.4000244141</ele>
        <time>2023-08-11T07:22:21.000Z</time>
      </trkpt>
      <trkpt lat="45.25934" lon="6.07896">
        <ele>1861.8000488281</ele>
        <time>2023-08-11T07:22:24.000Z</time>
      </trkpt>
      <trkpt lat="45.25932" lon="6.07895">
        <ele>1862.4000244141</ele>
        <time>2023-08-11T07:22:29.000Z</time>
      </trkpt>
      <trkpt lat="45.25931" lon="6.07896">
        <ele>1862.5999755859</ele>
        <time>2023-08-11T07:22:31.000Z</time>
      </trkpt>
      <trkpt lat="45.25929" lon="6.07897">
        <ele>1863.4000244141</ele>
        <time>2023-08-11T07:22:35.000Z</time>
      </trkpt>
      <trkpt lat="45.25929" lon="6.07898">
        <ele>1863.5999755859</ele>
        <time>2023-08-11T07:22:36.000Z</time>
      </trkpt>
      <trkpt lat="45.25929" lon="6.07901">
        <ele>1864.1999511719</ele>
        <time>2023-08-11T07:22:40.000Z</time>
      </trkpt>
      <trkpt lat="45.25929" lon="6.07902">
        <ele>1864.5999755859</ele>
        <time>2023-08-11T07:22:44.000Z</time>
      </trkpt>
      <trkpt lat="45.25929" lon="6.07906">
        <ele>1865.8000488281</ele>
        <time>2023-08-11T07:22:51.000Z</time>
      </trkpt>
      <trkpt lat="45.25929" lon="6.07912">
        <ele>1866.5999755859</ele>
        <time>2023-08-11T07:22:58.000Z</time>
      </trkpt>
      <trkpt lat="45.2593" lon="6.07913">
        <ele>1866.8000488281</ele>
        <time>2023-08-11T07:23:00.000Z</time>
      </trkpt>
      <trkpt lat="45.25931" lon="6.07915">
        <ele>1867.4000244141</ele>
        <time>2023-08-11T07:23:03.000Z</time>
      </trkpt>
      <trkpt lat="45.25932" lon="6.07915">
        <ele>1868</ele>
        <time>2023-08-11T07:23:06.000Z</time>
      </trkpt>
      <trkpt lat="45.25933" lon="6.07919">
        <ele>1868.5999755859</ele>
        <time>2023-08-11T07:23:10.000Z</time>
      </trkpt>
      <trkpt lat="45.25934" lon="6.07922">
        <ele>1869.1999511719</ele>
        <time>2023-08-11T07:23:13.000Z</time>
      </trkpt>
      <trkpt lat="45.25935" lon="6.07924">
        <ele>1869.8000488281</ele>
        <time>2023-08-11T07:23:16.000Z</time>
      </trkpt>
      <trkpt lat="45.25934" lon="6.07926">
        <ele>1870.1999511719</ele>
        <time>2023-08-11T07:23:20.000Z</time>
      </trkpt>
      <trkpt lat="45.25934" lon="6.07928">
        <ele>1870.5999755859</ele>
        <time>2023-08-11T07:23:24.000Z</time>
      </trkpt>
      <trkpt lat="45.25933" lon="6.07926">
        <ele>1871.1999511719</ele>
        <time>2023-08-11T07:23:29.000Z</time>
      </trkpt>
      <trkpt lat="45.25933" lon="6.07925">
        <ele>1871.5999755859</ele>
        <time>2023-08-11T07:23:32.000Z</time>
      </trkpt>
      <trkpt lat="45.2593" lon="6.07924">
        <ele>1872.4000244141</ele>
        <time>2023-08-11T07:23:36.000Z</time>
      </trkpt>
      <trkpt lat="45.25928" lon="6.07923">
        <ele>1872.5999755859</ele>
        <time>2023-08-11T07:23:39.000Z</time>
      </trkpt>
      <trkpt lat="45.25921" lon="6.07922">
        <ele>1873.5999755859</ele>
        <time>2023-08-11T07:23:46.000Z</time>
      </trkpt>
      <trkpt lat="45.25921" lon="6.07922">
        <ele>1873.5999755859</ele>
        <time>2023-08-11T07:23:47.000Z</time>
      </trkpt>
      <trkpt lat="45.2592" lon="6.07921">
        <ele>1874.5999755859</ele>
        <time>2023-08-11T07:23:53.000Z</time>
      </trkpt>
      <trkpt lat="45.25917" lon="6.0792">
        <ele>1875.8000488281</ele>
        <time>2023-08-11T07:24:02.000Z</time>
      </trkpt>
      <trkpt lat="45.25918" lon="6.07925">
        <ele>1876.8000488281</ele>
        <time>2023-08-11T07:24:10.000Z</time>
      </trkpt>
      <trkpt lat="45.25917" lon="6.07924">
        <ele>1877</ele>
        <time>2023-08-11T07:24:12.000Z</time>
      </trkpt>
      <trkpt lat="45.25918" lon="6.07925">
        <ele>1877.1999511719</ele>
        <time>2023-08-11T07:24:20.000Z</time>
      </trkpt>
      <trkpt lat="45.25918" lon="6.07923">
        <ele>1877</ele>
        <time>2023-08-11T07:24:31.000Z</time>
      </trkpt>
      <trkpt lat="45.25915" lon="6.0793">
        <ele>1877.1999511719</ele>
        <time>2023-08-11T07:24:39.000Z</time>
      </trkpt>
      <trkpt lat="45.25915" lon="6.07933">
        <ele>1877.8000488281</ele>
        <time>2023-08-11T07:24:43.000Z</time>
      </trkpt>
      <trkpt lat="45.25916" lon="6.07933">
        <ele>1878.4000244141</ele>
        <time>2023-08-11T07:24:46.000Z</time>
      </trkpt>
      <trkpt lat="45.25917" lon="6.07934">
        <ele>1879</ele>
        <time>2023-08-11T07:24:49.000Z</time>
      </trkpt>
      <trkpt lat="45.25917" lon="6.07937">
        <ele>1879</ele>
        <time>2023-08-11T07:24:52.000Z</time>
      </trkpt>
      <trkpt lat="45.25917" lon="6.07946">
        <ele>1880</ele>
        <time>2023-08-11T07:24:59.000Z</time>
      </trkpt>
      <trkpt lat="45.25919" lon="6.07951">
        <ele>1881</ele>
        <time>2023-08-11T07:25:06.000Z</time>
      </trkpt>
      <trkpt lat="45.25919" lon="6.07951">
        <ele>1881.1999511719</ele>
        <time>2023-08-11T07:25:07.000Z</time>
      </trkpt>
      <trkpt lat="45.2592" lon="6.07955">
        <ele>1882</ele>
        <time>2023-08-11T07:25:13.000Z</time>
      </trkpt>
      <trkpt lat="45.2592" lon="6.07955">
        <ele>1882.1999511719</ele>
        <time>2023-08-11T07:25:14.000Z</time>
      </trkpt>
      <trkpt lat="45.25919" lon="6.07961">
        <ele>1882.8000488281</ele>
        <time>2023-08-11T07:25:20.000Z</time>
      </trkpt>
      <trkpt lat="45.25919" lon="6.07962">
        <ele>1883.1999511719</ele>
        <time>2023-08-11T07:25:23.000Z</time>
      </trkpt>
      <trkpt lat="45.25921" lon="6.07966">
        <ele>1884</ele>
        <time>2023-08-11T07:25:29.000Z</time>
      </trkpt>
      <trkpt lat="45.25921" lon="6.07968">
        <ele>1884.1999511719</ele>
        <time>2023-08-11T07:25:31.000Z</time>
      </trkpt>
      <trkpt lat="45.25922" lon="6.07971">
        <ele>1885.4000244141</ele>
        <time>2023-08-11T07:25:38.000Z</time>
      </trkpt>
      <trkpt lat="45.25923" lon="6.07974">
        <ele>1886.5999755859</ele>
        <time>2023-08-11T07:25:45.000Z</time>
      </trkpt>
      <trkpt lat="45.25922" lon="6.07978">
        <ele>1887.5999755859</ele>
        <time>2023-08-11T07:25:51.000Z</time>
      </trkpt>
      <trkpt lat="45.25921" lon="6.07978">
        <ele>1887.5999755859</ele>
        <time>2023-08-11T07:25:52.000Z</time>
      </trkpt>
      <trkpt lat="45.25919" lon="6.07978">
        <ele>1888.5999755859</ele>
        <time>2023-08-11T07:25:58.000Z</time>
      </trkpt>
      <trkpt lat="45.25919" lon="6.07978">
        <ele>1888.8000488281</ele>
        <time>2023-08-11T07:25:59.000Z</time>
      </trkpt>
      <trkpt lat="45.25917" lon="6.07974">
        <ele>1889.8000488281</ele>
        <time>2023-08-11T07:26:06.000Z</time>
      </trkpt>
      <trkpt lat="45.25916" lon="6.07974">
        <ele>1889.8000488281</ele>
        <time>2023-08-11T07:26:07.000Z</time>
      </trkpt>
      <trkpt lat="45.25911" lon="6.07969">
        <ele>1890.8000488281</ele>
        <time>2023-08-11T07:26:13.000Z</time>
      </trkpt>
      <trkpt lat="45.2591" lon="6.07969">
        <ele>1890.8000488281</ele>
        <time>2023-08-11T07:26:14.000Z</time>
      </trkpt>
      <trkpt lat="45.25904" lon="6.07965">
        <ele>1891.4000244141</ele>
        <time>2023-08-11T07:26:22.000Z</time>
      </trkpt>
      <trkpt lat="45.25903" lon="6.07962">
        <ele>1892</ele>
        <time>2023-08-11T07:26:26.000Z</time>
      </trkpt>
      <trkpt lat="45.25902" lon="6.0796">
        <ele>1892.5999755859</ele>
        <time>2023-08-11T07:26:30.000Z</time>
      </trkpt>
      <trkpt lat="45.25902" lon="6.07958">
        <ele>1893</ele>
        <time>2023-08-11T07:26:33.000Z</time>
      </trkpt>
      <trkpt lat="45.25902" lon="6.07956">
        <ele>1893.5999755859</ele>
        <time>2023-08-11T07:26:37.000Z</time>
      </trkpt>
      <trkpt lat="45.25901" lon="6.07955">
        <ele>1894.1999511719</ele>
        <time>2023-08-11T07:26:41.000Z</time>
      </trkpt>
      <trkpt lat="45.25899" lon="6.07954">
        <ele>1895</ele>
        <time>2023-08-11T07:26:45.000Z</time>
      </trkpt>
      <trkpt lat="45.25899" lon="6.07954">
        <ele>1895.4000244141</ele>
        <time>2023-08-11T07:26:49.000Z</time>
      </trkpt>
      <trkpt lat="45.25898" lon="6.07958">
        <ele>1896.4000244141</ele>
        <time>2023-08-11T07:26:56.000Z</time>
      </trkpt>
      <trkpt lat="45.25898" lon="6.07957">
        <ele>1896.5999755859</ele>
        <time>2023-08-11T07:26:57.000Z</time>
      </trkpt>
      <trkpt lat="45.25896" lon="6.0796">
        <ele>1897.1999511719</ele>
        <time>2023-08-11T07:27:03.000Z</time>
      </trkpt>
      <trkpt lat="45.25896" lon="6.07961">
        <ele>1897.5999755859</ele>
        <time>2023-08-11T07:27:05.000Z</time>
      </trkpt>
      <trkpt lat="45.25898" lon="6.07966">
        <ele>1898.5999755859</ele>
        <time>2023-08-11T07:27:14.000Z</time>
      </trkpt>
      <trkpt lat="45.25899" lon="6.07967">
        <ele>1898.8000488281</ele>
        <time>2023-08-11T07:27:16.000Z</time>
      </trkpt>
      <trkpt lat="45.25901" lon="6.0797">
        <ele>1899.5999755859</ele>
        <time>2023-08-11T07:27:22.000Z</time>
      </trkpt>
      <trkpt lat="45.25901" lon="6.07971">
        <ele>1899.8000488281</ele>
        <time>2023-08-11T07:27:24.000Z</time>
      </trkpt>
      <trkpt lat="45.25903" lon="6.07976">
        <ele>1899.5999755859</ele>
        <time>2023-08-11T07:27:31.000Z</time>
      </trkpt>
      <trkpt lat="45.25901" lon="6.0798">
        <ele>1900</ele>
        <time>2023-08-11T07:27:40.000Z</time>
      </trkpt>
      <trkpt lat="45.25902" lon="6.07983">
        <ele>1901</ele>
        <time>2023-08-11T07:27:46.000Z</time>
      </trkpt>
      <trkpt lat="45.25903" lon="6.07983">
        <ele>1901.1999511719</ele>
        <time>2023-08-11T07:27:48.000Z</time>
      </trkpt>
      <trkpt lat="45.25905" lon="6.07987">
        <ele>1902</ele>
        <time>2023-08-11T07:27:55.000Z</time>
      </trkpt>
      <trkpt lat="45.25905" lon="6.07985">
        <ele>1902.5999755859</ele>
        <time>2023-08-11T07:28:03.000Z</time>
      </trkpt>
      <trkpt lat="45.25901" lon="6.07983">
        <ele>1903.5999755859</ele>
        <time>2023-08-11T07:28:15.000Z</time>
      </trkpt>
      <trkpt lat="45.25901" lon="6.07984">
        <ele>1904</ele>
        <time>2023-08-11T07:28:19.000Z</time>
      </trkpt>
      <trkpt lat="45.25901" lon="6.07984">
        <ele>1904</ele>
        <time>2023-08-11T07:28:20.000Z</time>
      </trkpt>
      <trkpt lat="45.25898" lon="6.07981">
        <ele>1905</ele>
        <time>2023-08-11T07:28:25.000Z</time>
      </trkpt>
      <trkpt lat="45.25897" lon="6.0798">
        <ele>1905.4000244141</ele>
        <time>2023-08-11T07:28:28.000Z</time>
      </trkpt>
      <trkpt lat="45.25894" lon="6.07975">
        <ele>1906.1999511719</ele>
        <time>2023-08-11T07:28:36.000Z</time>
      </trkpt>
      <trkpt lat="45.25894" lon="6.07974">
        <ele>1906.4000244141</ele>
        <time>2023-08-11T07:28:37.000Z</time>
      </trkpt>
      <trkpt lat="45.25893" lon="6.07969">
        <ele>1907.1999511719</ele>
        <time>2023-08-11T07:28:44.000Z</time>
      </trkpt>
      <trkpt lat="45.25892" lon="6.07968">
        <ele>1907.5999755859</ele>
        <time>2023-08-11T07:28:46.000Z</time>
      </trkpt>
      <trkpt lat="45.25888" lon="6.07963">
        <ele>1908.1999511719</ele>
        <time>2023-08-11T07:28:53.000Z</time>
      </trkpt>
      <trkpt lat="45.25888" lon="6.07963">
        <ele>1908.4000244141</ele>
        <time>2023-08-11T07:28:54.000Z</time>
      </trkpt>
      <trkpt lat="45.25886" lon="6.0796">
        <ele>1909.1999511719</ele>
        <time>2023-08-11T07:29:00.000Z</time>
      </trkpt>
      <trkpt lat="45.25885" lon="6.07958">
        <ele>1909.4000244141</ele>
        <time>2023-08-11T07:29:02.000Z</time>
      </trkpt>
      <trkpt lat="45.25884" lon="6.07954">
        <ele>1910.1999511719</ele>
        <time>2023-08-11T07:29:08.000Z</time>
      </trkpt>
      <trkpt lat="45.25884" lon="6.07952">
        <ele>1910.5999755859</ele>
        <time>2023-08-11T07:29:10.000Z</time>
      </trkpt>
      <trkpt lat="45.25883" lon="6.07948">
        <ele>1911.1999511719</ele>
        <time>2023-08-11T07:29:15.000Z</time>
      </trkpt>
      <trkpt lat="45.25882" lon="6.07948">
        <ele>1911.5999755859</ele>
        <time>2023-08-11T07:29:19.000Z</time>
      </trkpt>
      <trkpt lat="45.2588" lon="6.07946">
        <ele>1912.1999511719</ele>
        <time>2023-08-11T07:29:22.000Z</time>
      </trkpt>
      <trkpt lat="45.25879" lon="6.07946">
        <ele>1912.5999755859</ele>
        <time>2023-08-11T07:29:29.000Z</time>
      </trkpt>
      <trkpt lat="45.25879" lon="6.07946">
        <ele>1912.8000488281</ele>
        <time>2023-08-11T07:29:30.000Z</time>
      </trkpt>
      <trkpt lat="45.25876" lon="6.07946">
        <ele>1913.4000244141</ele>
        <time>2023-08-11T07:29:37.000Z</time>
      </trkpt>
      <trkpt lat="45.25875" lon="6.07942">
        <ele>1913.1999511719</ele>
        <time>2023-08-11T07:29:44.000Z</time>
      </trkpt>
      <trkpt lat="45.25877" lon="6.07941">
        <ele>1913</ele>
        <time>2023-08-11T07:29:51.000Z</time>
      </trkpt>
      <trkpt lat="45.25875" lon="6.07941">
        <ele>1913</ele>
        <time>2023-08-11T07:29:59.000Z</time>
      </trkpt>
      <trkpt lat="45.25873" lon="6.07934">
        <ele>1913.5999755859</ele>
        <time>2023-08-11T07:30:07.000Z</time>
      </trkpt>
      <trkpt lat="45.25873" lon="6.07933">
        <ele>1913.8000488281</ele>
        <time>2023-08-11T07:30:08.000Z</time>
      </trkpt>
      <trkpt lat="45.2587" lon="6.07934">
        <ele>1914.8000488281</ele>
        <time>2023-08-11T07:30:14.000Z</time>
      </trkpt>
      <trkpt lat="45.25869" lon="6.07935">
        <ele>1915</ele>
        <time>2023-08-11T07:30:15.000Z</time>
      </trkpt>
      <trkpt lat="45.25869" lon="6.07941">
        <ele>1915.8000488281</ele>
        <time>2023-08-11T07:30:21.000Z</time>
      </trkpt>
      <trkpt lat="45.25869" lon="6.07947">
        <ele>1916</ele>
        <time>2023-08-11T07:30:25.000Z</time>
      </trkpt>
      <trkpt lat="45.2587" lon="6.07951">
        <ele>1916.1999511719</ele>
        <time>2023-08-11T07:30:29.000Z</time>
      </trkpt>
      <trkpt lat="45.2587" lon="6.07957">
        <ele>1916.5999755859</ele>
        <time>2023-08-11T07:30:37.000Z</time>
      </trkpt>
      <trkpt lat="45.25871" lon="6.07958">
        <ele>1917</ele>
        <time>2023-08-11T07:30:40.000Z</time>
      </trkpt>
      <trkpt lat="45.25871" lon="6.07962">
        <ele>1918</ele>
        <time>2023-08-11T07:30:45.000Z</time>
      </trkpt>
      <trkpt lat="45.25871" lon="6.07963">
        <ele>1918</ele>
        <time>2023-08-11T07:30:46.000Z</time>
      </trkpt>
      <trkpt lat="45.2587" lon="6.07964">
        <ele>1919.1999511719</ele>
        <time>2023-08-11T07:30:53.000Z</time>
      </trkpt>
      <trkpt lat="45.25866" lon="6.07962">
        <ele>1920</ele>
        <time>2023-08-11T07:31:00.000Z</time>
      </trkpt>
      <trkpt lat="45.25865" lon="6.07961">
        <ele>1920.1999511719</ele>
        <time>2023-08-11T07:31:02.000Z</time>
      </trkpt>
      <trkpt lat="45.25862" lon="6.07958">
        <ele>1921</ele>
        <time>2023-08-11T07:31:07.000Z</time>
      </trkpt>
      <trkpt lat="45.25862" lon="6.07959">
        <ele>1921.4000244141</ele>
        <time>2023-08-11T07:31:09.000Z</time>
      </trkpt>
      <trkpt lat="45.25861" lon="6.07959">
        <ele>1922</ele>
        <time>2023-08-11T07:31:14.000Z</time>
      </trkpt>
      <trkpt lat="45.2586" lon="6.07959">
        <ele>1922.4000244141</ele>
        <time>2023-08-11T07:31:16.000Z</time>
      </trkpt>
      <trkpt lat="45.25861" lon="6.07964">
        <ele>1923.1999511719</ele>
        <time>2023-08-11T07:31:22.000Z</time>
      </trkpt>
      <trkpt lat="45.25861" lon="6.07967">
        <ele>1923.5999755859</ele>
        <time>2023-08-11T07:31:26.000Z</time>
      </trkpt>
      <trkpt lat="45.25861" lon="6.07969">
        <ele>1924.4000244141</ele>
        <time>2023-08-11T07:31:33.000Z</time>
      </trkpt>
      <trkpt lat="45.25862" lon="6.07971">
        <ele>1924.8000488281</ele>
        <time>2023-08-11T07:31:36.000Z</time>
      </trkpt>
      <trkpt lat="45.25861" lon="6.07974">
        <ele>1925.4000244141</ele>
        <time>2023-08-11T07:31:40.000Z</time>
      </trkpt>
      <trkpt lat="45.25862" lon="6.07977">
        <ele>1925.8000488281</ele>
        <time>2023-08-11T07:31:45.000Z</time>
      </trkpt>
      <trkpt lat="45.25862" lon="6.07983">
        <ele>1926.8000488281</ele>
        <time>2023-08-11T07:31:50.000Z</time>
      </trkpt>
      <trkpt lat="45.25862" lon="6.07985">
        <ele>1927</ele>
        <time>2023-08-11T07:31:52.000Z</time>
      </trkpt>
      <trkpt lat="45.25861" lon="6.07985">
        <ele>1927.4000244141</ele>
        <time>2023-08-11T07:31:57.000Z</time>
      </trkpt>
      <trkpt lat="45.25864" lon="6.07987">
        <ele>1927.4000244141</ele>
        <time>2023-08-11T07:32:12.000Z</time>
      </trkpt>
      <trkpt lat="45.25862" lon="6.07991">
        <ele>1928</ele>
        <time>2023-08-11T07:32:16.000Z</time>
      </trkpt>
      <trkpt lat="45.25861" lon="6.07992">
        <ele>1928.4000244141</ele>
        <time>2023-08-11T07:32:18.000Z</time>
      </trkpt>
      <trkpt lat="45.25856" lon="6.07987">
        <ele>1930</ele>
        <time>2023-08-11T07:32:47.000Z</time>
      </trkpt>
      <trkpt lat="45.25854" lon="6.07986">
        <ele>1930.4000244141</ele>
        <time>2023-08-11T07:32:49.000Z</time>
      </trkpt>
      <trkpt lat="45.25851" lon="6.07984">
        <ele>1931.4000244141</ele>
        <time>2023-08-11T07:32:53.000Z</time>
      </trkpt>
      <trkpt lat="45.25848" lon="6.07982">
        <ele>1932.1999511719</ele>
        <time>2023-08-11T07:32:57.000Z</time>
      </trkpt>
      <trkpt lat="45.25848" lon="6.07981">
        <ele>1932.5999755859</ele>
        <time>2023-08-11T07:33:00.000Z</time>
      </trkpt>
      <trkpt lat="45.25847" lon="6.07979">
        <ele>1933.4000244141</ele>
        <time>2023-08-11T07:33:05.000Z</time>
      </trkpt>
      <trkpt lat="45.25847" lon="6.07978">
        <ele>1933.5999755859</ele>
        <time>2023-08-11T07:33:07.000Z</time>
      </trkpt>
      <trkpt lat="45.25847" lon="6.07977">
        <ele>1934.4000244141</ele>
        <time>2023-08-11T07:33:12.000Z</time>
      </trkpt>
      <trkpt lat="45.25848" lon="6.07977">
        <ele>1934.8000488281</ele>
        <time>2023-08-11T07:33:13.000Z</time>
      </trkpt>
      <trkpt lat="45.25849" lon="6.07972">
        <ele>1935.8000488281</ele>
        <time>2023-08-11T07:33:19.000Z</time>
      </trkpt>
      <trkpt lat="45.25848" lon="6.07972">
        <ele>1936</ele>
        <time>2023-08-11T07:33:21.000Z</time>
      </trkpt>
      <trkpt lat="45.25845" lon="6.07971">
        <ele>1937</ele>
        <time>2023-08-11T07:33:27.000Z</time>
      </trkpt>
      <trkpt lat="45.25843" lon="6.07971">
        <ele>1937.5999755859</ele>
        <time>2023-08-11T07:33:30.000Z</time>
      </trkpt>
      <trkpt lat="45.25843" lon="6.07971">
        <ele>1938.1999511719</ele>
        <time>2023-08-11T07:33:33.000Z</time>
      </trkpt>
      <trkpt lat="45.25844" lon="6.07973">
        <ele>1938.5999755859</ele>
        <time>2023-08-11T07:33:38.000Z</time>
      </trkpt>
      <trkpt lat="45.25844" lon="6.07974">
        <ele>1939.1999511719</ele>
        <time>2023-08-11T07:33:42.000Z</time>
      </trkpt>
      <trkpt lat="45.25843" lon="6.07975">
        <ele>1940</ele>
        <time>2023-08-11T07:33:46.000Z</time>
      </trkpt>
      <trkpt lat="45.25843" lon="6.07976">
        <ele>1940.1999511719</ele>
        <time>2023-08-11T07:33:48.000Z</time>
      </trkpt>
      <trkpt lat="45.25845" lon="6.0798">
        <ele>1941</ele>
        <time>2023-08-11T07:33:54.000Z</time>
      </trkpt>
      <trkpt lat="45.25845" lon="6.07981">
        <ele>1941.1999511719</ele>
        <time>2023-08-11T07:33:57.000Z</time>
      </trkpt>
      <trkpt lat="45.25845" lon="6.07982">
        <ele>1941.5999755859</ele>
        <time>2023-08-11T07:34:02.000Z</time>
      </trkpt>
      <trkpt lat="45.25843" lon="6.07985">
        <ele>1942.1999511719</ele>
        <time>2023-08-11T07:34:08.000Z</time>
      </trkpt>
      <trkpt lat="45.25844" lon="6.07988">
        <ele>1943</ele>
        <time>2023-08-11T07:34:15.000Z</time>
      </trkpt>
      <trkpt lat="45.25844" lon="6.07988">
        <ele>1943.1999511719</ele>
        <time>2023-08-11T07:34:17.000Z</time>
      </trkpt>
      <trkpt lat="45.25845" lon="6.0799">
        <ele>1944</ele>
        <time>2023-08-11T07:34:23.000Z</time>
      </trkpt>
      <trkpt lat="45.25845" lon="6.07991">
        <ele>1944.4000244141</ele>
        <time>2023-08-11T07:34:25.000Z</time>
      </trkpt>
      <trkpt lat="45.25846" lon="6.07995">
        <ele>1945</ele>
        <time>2023-08-11T07:34:31.000Z</time>
      </trkpt>
      <trkpt lat="45.25845" lon="6.07998">
        <ele>1945.4000244141</ele>
        <time>2023-08-11T07:34:34.000Z</time>
      </trkpt>
      <trkpt lat="45.25844" lon="6.07996">
        <ele>1946</ele>
        <time>2023-08-11T07:34:38.000Z</time>
      </trkpt>
      <trkpt lat="45.25842" lon="6.07993">
        <ele>1946.4000244141</ele>
        <time>2023-08-11T07:34:42.000Z</time>
      </trkpt>
      <trkpt lat="45.25842" lon="6.07993">
        <ele>1947.1999511719</ele>
        <time>2023-08-11T07:34:46.000Z</time>
      </trkpt>
      <trkpt lat="45.25841" lon="6.07993">
        <ele>1947.5999755859</ele>
        <time>2023-08-11T07:34:48.000Z</time>
      </trkpt>
      <trkpt lat="45.25838" lon="6.07994">
        <ele>1948.4000244141</ele>
        <time>2023-08-11T07:34:55.000Z</time>
      </trkpt>
      <trkpt lat="45.25838" lon="6.07993">
        <ele>1948.5999755859</ele>
        <time>2023-08-11T07:34:56.000Z</time>
      </trkpt>
      <trkpt lat="45.25837" lon="6.07992">
        <ele>1949.5999755859</ele>
        <time>2023-08-11T07:35:03.000Z</time>
      </trkpt>
      <trkpt lat="45.25835" lon="6.07991">
        <ele>1950.8000488281</ele>
        <time>2023-08-11T07:35:09.000Z</time>
      </trkpt>
      <trkpt lat="45.25837" lon="6.07994">
        <ele>1951.8000488281</ele>
        <time>2023-08-11T07:35:17.000Z</time>
      </trkpt>
      <trkpt lat="45.25839" lon="6.07998">
        <ele>1953</ele>
        <time>2023-08-11T07:35:23.000Z</time>
      </trkpt>
      <trkpt lat="45.25838" lon="6.07997">
        <ele>1953.1999511719</ele>
        <time>2023-08-11T07:35:24.000Z</time>
      </trkpt>
      <trkpt lat="45.25834" lon="6.07999">
        <ele>1954</ele>
        <time>2023-08-11T07:35:32.000Z</time>
      </trkpt>
      <trkpt lat="45.25833" lon="6.07999">
        <ele>1954.1999511719</ele>
        <time>2023-08-11T07:35:33.000Z</time>
      </trkpt>
      <trkpt lat="45.25834" lon="6.08002">
        <ele>1955.1999511719</ele>
        <time>2023-08-11T07:35:39.000Z</time>
      </trkpt>
      <trkpt lat="45.25833" lon="6.08004">
        <ele>1955.5999755859</ele>
        <time>2023-08-11T07:35:41.000Z</time>
      </trkpt>
      <trkpt lat="45.25833" lon="6.08005">
        <ele>1956.4000244141</ele>
        <time>2023-08-11T07:35:47.000Z</time>
      </trkpt>
      <trkpt lat="45.25833" lon="6.08004">
        <ele>1956.4000244141</ele>
        <time>2023-08-11T07:35:48.000Z</time>
      </trkpt>
      <trkpt lat="45.25837" lon="6.08003">
        <ele>1957.4000244141</ele>
        <time>2023-08-11T07:35:56.000Z</time>
      </trkpt>
      <trkpt lat="45.25836" lon="6.08002">
        <ele>1958</ele>
        <time>2023-08-11T07:36:01.000Z</time>
      </trkpt>
      <trkpt lat="45.25832" lon="6.08004">
        <ele>1958.4000244141</ele>
        <time>2023-08-11T07:36:06.000Z</time>
      </trkpt>
      <trkpt lat="45.25831" lon="6.08005">
        <ele>1958.8000488281</ele>
        <time>2023-08-11T07:36:09.000Z</time>
      </trkpt>
      <trkpt lat="45.25832" lon="6.08006">
        <ele>1959.4000244141</ele>
        <time>2023-08-11T07:36:14.000Z</time>
      </trkpt>
      <trkpt lat="45.25832" lon="6.08006">
        <ele>1959.5999755859</ele>
        <time>2023-08-11T07:36:15.000Z</time>
      </trkpt>
      <trkpt lat="45.25829" lon="6.08008">
        <ele>1960.4000244141</ele>
        <time>2023-08-11T07:36:23.000Z</time>
      </trkpt>
      <trkpt lat="45.25828" lon="6.08008">
        <ele>1960.5999755859</ele>
        <time>2023-08-11T07:36:24.000Z</time>
      </trkpt>
      <trkpt lat="45.25829" lon="6.08009">
        <ele>1961.5999755859</ele>
        <time>2023-08-11T07:36:30.000Z</time>
      </trkpt>
      <trkpt lat="45.25829" lon="6.0801">
        <ele>1961.8000488281</ele>
        <time>2023-08-11T07:36:34.000Z</time>
      </trkpt>
      <trkpt lat="45.25828" lon="6.08014">
        <ele>1962.5999755859</ele>
        <time>2023-08-11T07:36:42.000Z</time>
      </trkpt>
      <trkpt lat="45.25829" lon="6.08016">
        <ele>1963.5999755859</ele>
        <time>2023-08-11T07:36:51.000Z</time>
      </trkpt>
      <trkpt lat="45.25828" lon="6.08017">
        <ele>1964.5999755859</ele>
        <time>2023-08-11T07:36:57.000Z</time>
      </trkpt>
      <trkpt lat="45.25826" lon="6.0802">
        <ele>1965.5999755859</ele>
        <time>2023-08-11T07:37:03.000Z</time>
      </trkpt>
      <trkpt lat="45.25826" lon="6.0802">
        <ele>1965.8000488281</ele>
        <time>2023-08-11T07:37:05.000Z</time>
      </trkpt>
      <trkpt lat="45.25827" lon="6.08021">
        <ele>1966.1999511719</ele>
        <time>2023-08-11T07:37:09.000Z</time>
      </trkpt>
      <trkpt lat="45.25827" lon="6.08024">
        <ele>1967</ele>
        <time>2023-08-11T07:37:13.000Z</time>
      </trkpt>
      <trkpt lat="45.25827" lon="6.08026">
        <ele>1968</ele>
        <time>2023-08-11T07:37:17.000Z</time>
      </trkpt>
      <trkpt lat="45.25827" lon="6.08027">
        <ele>1968</ele>
        <time>2023-08-11T07:37:18.000Z</time>
      </trkpt>
      <trkpt lat="45.25827" lon="6.08028">
        <ele>1969.1999511719</ele>
        <time>2023-08-11T07:37:26.000Z</time>
      </trkpt>
      <trkpt lat="45.25827" lon="6.08028">
        <ele>1969.1999511719</ele>
        <time>2023-08-11T07:37:33.000Z</time>
      </trkpt>
      <trkpt lat="45.25828" lon="6.08027">
        <ele>1969.1999511719</ele>
        <time>2023-08-11T07:37:40.000Z</time>
      </trkpt>
      <trkpt lat="45.25828" lon="6.08027">
        <ele>1970.1999511719</ele>
        <time>2023-08-11T07:37:47.000Z</time>
      </trkpt>
      <trkpt lat="45.25828" lon="6.08028">
        <ele>1970.4000244141</ele>
        <time>2023-08-11T07:37:48.000Z</time>
      </trkpt>
      <trkpt lat="45.25828" lon="6.0803">
        <ele>1971.1999511719</ele>
        <time>2023-08-11T07:37:53.000Z</time>
      </trkpt>
      <trkpt lat="45.25828" lon="6.08032">
        <ele>1971.5999755859</ele>
        <time>2023-08-11T07:37:55.000Z</time>
      </trkpt>
      <trkpt lat="45.25827" lon="6.08039">
        <ele>1972.4000244141</ele>
        <time>2023-08-11T07:38:02.000Z</time>
      </trkpt>
      <trkpt lat="45.25827" lon="6.08039">
        <ele>1972.4000244141</ele>
        <time>2023-08-11T07:38:03.000Z</time>
      </trkpt>
      <trkpt lat="45.25825" lon="6.0804">
        <ele>1972.4000244141</ele>
        <time>2023-08-11T07:38:11.000Z</time>
      </trkpt>
      <trkpt lat="45.2582" lon="6.08042">
        <ele>1971.5999755859</ele>
        <time>2023-08-11T07:38:20.000Z</time>
      </trkpt>
      <trkpt lat="45.25815" lon="6.08047">
        <ele>1971.1999511719</ele>
        <time>2023-08-11T07:38:26.000Z</time>
      </trkpt>
      <trkpt lat="45.25815" lon="6.08048">
        <ele>1971</ele>
        <time>2023-08-11T07:38:27.000Z</time>
      </trkpt>
      <trkpt lat="45.25811" lon="6.08055">
        <ele>1971.5999755859</ele>
        <time>2023-08-11T07:38:36.000Z</time>
      </trkpt>
      <trkpt lat="45.25811" lon="6.08054">
        <ele>1972</ele>
        <time>2023-08-11T07:38:38.000Z</time>
      </trkpt>
      <trkpt lat="45.25807" lon="6.08056">
        <ele>1972</ele>
        <time>2023-08-11T07:38:42.000Z</time>
      </trkpt>
      <trkpt lat="45.25803" lon="6.08059">
        <ele>1972</ele>
        <time>2023-08-11T07:38:49.000Z</time>
      </trkpt>
      <trkpt lat="45.25802" lon="6.08061">
        <ele>1972.1999511719</ele>
        <time>2023-08-11T07:38:52.000Z</time>
      </trkpt>
      <trkpt lat="45.258" lon="6.08062">
        <ele>1972.1999511719</ele>
        <time>2023-08-11T07:38:55.000Z</time>
      </trkpt>
      <trkpt lat="45.25796" lon="6.08063">
        <ele>1973</ele>
        <time>2023-08-11T07:39:01.000Z</time>
      </trkpt>
      <trkpt lat="45.25795" lon="6.08063">
        <ele>1973.4000244141</ele>
        <time>2023-08-11T07:39:03.000Z</time>
      </trkpt>
      <trkpt lat="45.25794" lon="6.08063">
        <ele>1973.4000244141</ele>
        <time>2023-08-11T07:39:07.000Z</time>
      </trkpt>
      <trkpt lat="45.25791" lon="6.08062">
        <ele>1973.8000488281</ele>
        <time>2023-08-11T07:39:14.000Z</time>
      </trkpt>
      <trkpt lat="45.25788" lon="6.08058">
        <ele>1973.8000488281</ele>
        <time>2023-08-11T07:39:21.000Z</time>
      </trkpt>
      <trkpt lat="45.25783" lon="6.08059">
        <ele>1974.4000244141</ele>
        <time>2023-08-11T07:39:27.000Z</time>
      </trkpt>
      <trkpt lat="45.25779" lon="6.0806">
        <ele>1974.5999755859</ele>
        <time>2023-08-11T07:39:34.000Z</time>
      </trkpt>
      <trkpt lat="45.25772" lon="6.08061">
        <ele>1974.8000488281</ele>
        <time>2023-08-11T07:39:41.000Z</time>
      </trkpt>
      <trkpt lat="45.25766" lon="6.08062">
        <ele>1975.4000244141</ele>
        <time>2023-08-11T07:39:49.000Z</time>
      </trkpt>
      <trkpt lat="45.25761" lon="6.08062">
        <ele>1976</ele>
        <time>2023-08-11T07:39:55.000Z</time>
      </trkpt>
      <trkpt lat="45.25759" lon="6.08064">
        <ele>1976.1999511719</ele>
        <time>2023-08-11T07:40:02.000Z</time>
      </trkpt>
      <trkpt lat="45.25752" lon="6.08065">
        <ele>1976.4000244141</ele>
        <time>2023-08-11T07:40:10.000Z</time>
      </trkpt>
      <trkpt lat="45.25751" lon="6.08057">
        <ele>1976.8000488281</ele>
        <time>2023-08-11T07:40:16.000Z</time>
      </trkpt>
      <trkpt lat="45.25748" lon="6.08054">
        <ele>1977.1999511719</ele>
        <time>2023-08-11T07:40:20.000Z</time>
      </trkpt>
      <trkpt lat="45.25747" lon="6.08049">
        <ele>1977.1999511719</ele>
        <time>2023-08-11T07:40:26.000Z</time>
      </trkpt>
      <trkpt lat="45.25747" lon="6.08046">
        <ele>1977.1999511719</ele>
        <time>2023-08-11T07:40:35.000Z</time>
      </trkpt>
      <trkpt lat="45.25746" lon="6.08044">
        <ele>1977.5999755859</ele>
        <time>2023-08-11T07:40:40.000Z</time>
      </trkpt>
      <trkpt lat="45.25746" lon="6.08044">
        <ele>1977.8000488281</ele>
        <time>2023-08-11T07:40:41.000Z</time>
      </trkpt>
      <trkpt lat="45.25744" lon="6.0804">
        <ele>1978</ele>
        <time>2023-08-11T07:40:48.000Z</time>
      </trkpt>
      <trkpt lat="45.2574" lon="6.08039">
        <ele>1978.4000244141</ele>
        <time>2023-08-11T07:40:56.000Z</time>
      </trkpt>
      <trkpt lat="45.25738" lon="6.08038">
        <ele>1978.5999755859</ele>
        <time>2023-08-11T07:40:58.000Z</time>
      </trkpt>
      <trkpt lat="45.25737" lon="6.08037">
        <ele>1979.5999755859</ele>
        <time>2023-08-11T07:41:04.000Z</time>
      </trkpt>
      <trkpt lat="45.25737" lon="6.08036">
        <ele>1979.8000488281</ele>
        <time>2023-08-11T07:41:05.000Z</time>
      </trkpt>
      <trkpt lat="45.25737" lon="6.08033">
        <ele>1980.5999755859</ele>
        <time>2023-08-11T07:41:11.000Z</time>
      </trkpt>
      <trkpt lat="45.25737" lon="6.08031">
        <ele>1980.8000488281</ele>
        <time>2023-08-11T07:41:13.000Z</time>
      </trkpt>
      <trkpt lat="45.25739" lon="6.08026">
        <ele>1981.8000488281</ele>
        <time>2023-08-11T07:41:19.000Z</time>
      </trkpt>
      <trkpt lat="45.25739" lon="6.08026">
        <ele>1982</ele>
        <time>2023-08-11T07:41:20.000Z</time>
      </trkpt>
      <trkpt lat="45.25744" lon="6.08023">
        <ele>1982.8000488281</ele>
        <time>2023-08-11T07:41:27.000Z</time>
      </trkpt>
      <trkpt lat="45.25745" lon="6.08023">
        <ele>1983</ele>
        <time>2023-08-11T07:41:29.000Z</time>
      </trkpt>
      <trkpt lat="45.25748" lon="6.08021">
        <ele>1983.4000244141</ele>
        <time>2023-08-11T07:41:35.000Z</time>
      </trkpt>
      <trkpt lat="45.2575" lon="6.08018">
        <ele>1984</ele>
        <time>2023-08-11T07:41:40.000Z</time>
      </trkpt>
      <trkpt lat="45.2575" lon="6.08017">
        <ele>1984.1999511719</ele>
        <time>2023-08-11T07:41:42.000Z</time>
      </trkpt>
      <trkpt lat="45.2575" lon="6.08014">
        <ele>1985</ele>
        <time>2023-08-11T07:41:46.000Z</time>
      </trkpt>
      <trkpt lat="45.25748" lon="6.08014">
        <ele>1985.5999755859</ele>
        <time>2023-08-11T07:41:51.000Z</time>
      </trkpt>
      <trkpt lat="45.25748" lon="6.08013">
        <ele>1986</ele>
        <time>2023-08-11T07:42:00.000Z</time>
      </trkpt>
      <trkpt lat="45.25749" lon="6.08016">
        <ele>1985.8000488281</ele>
        <time>2023-08-11T07:42:07.000Z</time>
      </trkpt>
      <trkpt lat="45.25749" lon="6.08009">
        <ele>1985.8000488281</ele>
        <time>2023-08-11T07:42:14.000Z</time>
      </trkpt>
      <trkpt lat="45.25748" lon="6.08008">
        <ele>1986.1999511719</ele>
        <time>2023-08-11T07:42:16.000Z</time>
      </trkpt>
      <trkpt lat="45.25748" lon="6.08007">
        <ele>1986.5999755859</ele>
        <time>2023-08-11T07:42:22.000Z</time>
      </trkpt>
      <trkpt lat="45.25746" lon="6.08007">
        <ele>1986.5999755859</ele>
        <time>2023-08-11T07:42:33.000Z</time>
      </trkpt>
      <trkpt lat="45.25743" lon="6.08005">
        <ele>1987.1999511719</ele>
        <time>2023-08-11T07:42:38.000Z</time>
      </trkpt>
      <trkpt lat="45.25742" lon="6.08003">
        <ele>1988</ele>
        <time>2023-08-11T07:42:41.000Z</time>
      </trkpt>
      <trkpt lat="45.25741" lon="6.08002">
        <ele>1988.1999511719</ele>
        <time>2023-08-11T07:42:43.000Z</time>
      </trkpt>
      <trkpt lat="45.2574" lon="6.07996">
        <ele>1989.1999511719</ele>
        <time>2023-08-11T07:42:50.000Z</time>
      </trkpt>
      <trkpt lat="45.2574" lon="6.07995">
        <ele>1989.1999511719</ele>
        <time>2023-08-11T07:42:51.000Z</time>
      </trkpt>
      <trkpt lat="45.25737" lon="6.07992">
        <ele>1990</ele>
        <time>2023-08-11T07:42:56.000Z</time>
      </trkpt>
      <trkpt lat="45.25733" lon="6.0799">
        <ele>1990.4000244141</ele>
        <time>2023-08-11T07:43:01.000Z</time>
      </trkpt>
      <trkpt lat="45.25732" lon="6.07989">
        <ele>1990.5999755859</ele>
        <time>2023-08-11T07:43:03.000Z</time>
      </trkpt>
      <trkpt lat="45.25731" lon="6.0799">
        <ele>1991</ele>
        <time>2023-08-11T07:43:08.000Z</time>
      </trkpt>
      <trkpt lat="45.2573" lon="6.0799">
        <ele>1991.4000244141</ele>
        <time>2023-08-11T07:43:11.000Z</time>
      </trkpt>
      <trkpt lat="45.25727" lon="6.07993">
        <ele>1992</ele>
        <time>2023-08-11T07:43:14.000Z</time>
      </trkpt>
      <trkpt lat="45.25724" lon="6.07997">
        <ele>1992.5999755859</ele>
        <time>2023-08-11T07:43:21.000Z</time>
      </trkpt>
      <trkpt lat="45.2572" lon="6.08002">
        <ele>1993.5999755859</ele>
        <time>2023-08-11T07:43:27.000Z</time>
      </trkpt>
      <trkpt lat="45.25719" lon="6.08005">
        <ele>1994.1999511719</ele>
        <time>2023-08-11T07:43:31.000Z</time>
      </trkpt>
      <trkpt lat="45.25718" lon="6.08009">
        <ele>1994.8000488281</ele>
        <time>2023-08-11T07:43:35.000Z</time>
      </trkpt>
      <trkpt lat="45.25716" lon="6.0801">
        <ele>1995.4000244141</ele>
        <time>2023-08-11T07:43:39.000Z</time>
      </trkpt>
      <trkpt lat="45.25716" lon="6.0801">
        <ele>1995.8000488281</ele>
        <time>2023-08-11T07:43:41.000Z</time>
      </trkpt>
      <trkpt lat="45.25712" lon="6.08009">
        <ele>1996.4000244141</ele>
        <time>2023-08-11T07:43:46.000Z</time>
      </trkpt>
      <trkpt lat="45.2571" lon="6.08009">
        <ele>1996.8000488281</ele>
        <time>2023-08-11T07:43:48.000Z</time>
      </trkpt>
      <trkpt lat="45.25708" lon="6.08009">
        <ele>1997.4000244141</ele>
        <time>2023-08-11T07:43:54.000Z</time>
      </trkpt>
      <trkpt lat="45.25707" lon="6.08008">
        <ele>1998</ele>
        <time>2023-08-11T07:43:57.000Z</time>
      </trkpt>
      <trkpt lat="45.25705" lon="6.08007">
        <ele>1998.1999511719</ele>
        <time>2023-08-11T07:44:01.000Z</time>
      </trkpt>
      <trkpt lat="45.25704" lon="6.08005">
        <ele>1998.5999755859</ele>
        <time>2023-08-11T07:44:08.000Z</time>
      </trkpt>
      <trkpt lat="45.25704" lon="6.08004">
        <ele>1999.1999511719</ele>
        <time>2023-08-11T07:44:10.000Z</time>
      </trkpt>
      <trkpt lat="45.25704" lon="6.08001">
        <ele>2000.1999511719</ele>
        <time>2023-08-11T07:44:16.000Z</time>
      </trkpt>
      <trkpt lat="45.25704" lon="6.07997">
        <ele>2001.4000244141</ele>
        <time>2023-08-11T07:44:23.000Z</time>
      </trkpt>
      <trkpt lat="45.25705" lon="6.07992">
        <ele>2002.4000244141</ele>
        <time>2023-08-11T07:44:30.000Z</time>
      </trkpt>
      <trkpt lat="45.25705" lon="6.07988">
        <ele>2003</ele>
        <time>2023-08-11T07:44:37.000Z</time>
      </trkpt>
      <trkpt lat="45.25705" lon="6.07989">
        <ele>2003.4000244141</ele>
        <time>2023-08-11T07:44:41.000Z</time>
      </trkpt>
      <trkpt lat="45.25705" lon="6.0799">
        <ele>2003.5999755859</ele>
        <time>2023-08-11T07:44:42.000Z</time>
      </trkpt>
      <trkpt lat="45.25705" lon="6.07991">
        <ele>2003.8000488281</ele>
        <time>2023-08-11T07:44:43.000Z</time>
      </trkpt>
      <trkpt lat="45.25705" lon="6.07989">
        <ele>2004.5999755859</ele>
        <time>2023-08-11T07:44:49.000Z</time>
      </trkpt>
      <trkpt lat="45.25705" lon="6.07985">
        <ele>2005.5999755859</ele>
        <time>2023-08-11T07:44:57.000Z</time>
      </trkpt>
      <trkpt lat="45.25703" lon="6.07982">
        <ele>2006.8000488281</ele>
        <time>2023-08-11T07:45:04.000Z</time>
      </trkpt>
      <trkpt lat="45.25702" lon="6.07982">
        <ele>2007</ele>
        <time>2023-08-11T07:45:06.000Z</time>
      </trkpt>
      <trkpt lat="45.25699" lon="6.07981">
        <ele>2007.8000488281</ele>
        <time>2023-08-11T07:45:13.000Z</time>
      </trkpt>
      <trkpt lat="45.25688" lon="6.07979">
        <ele>2011</ele>
        <time>2023-08-11T07:45:35.000Z</time>
      </trkpt>
      <trkpt lat="45.25688" lon="6.07979">
        <ele>2011.1999511719</ele>
        <time>2023-08-11T07:45:36.000Z</time>
      </trkpt>
      <trkpt lat="45.25685" lon="6.07978">
        <ele>2012</ele>
        <time>2023-08-11T07:45:43.000Z</time>
      </trkpt>
      <trkpt lat="45.25683" lon="6.07977">
        <ele>2012.1999511719</ele>
        <time>2023-08-11T07:45:44.000Z</time>
      </trkpt>
      <trkpt lat="45.25685" lon="6.07974">
        <ele>2013.4000244141</ele>
        <time>2023-08-11T07:45:51.000Z</time>
      </trkpt>
      <trkpt lat="45.25684" lon="6.0797">
        <ele>2014</ele>
        <time>2023-08-11T07:45:56.000Z</time>
      </trkpt>
      <trkpt lat="45.25685" lon="6.07969">
        <ele>2014.4000244141</ele>
        <time>2023-08-11T07:45:58.000Z</time>
      </trkpt>
      <trkpt lat="45.25685" lon="6.07962">
        <ele>2015.4000244141</ele>
        <time>2023-08-11T07:46:04.000Z</time>
      </trkpt>
      <trkpt lat="45.25685" lon="6.07961">
        <ele>2015.5999755859</ele>
        <time>2023-08-11T07:46:05.000Z</time>
      </trkpt>
      <trkpt lat="45.25685" lon="6.07954">
        <ele>2016.4000244141</ele>
        <time>2023-08-11T07:46:12.000Z</time>
      </trkpt>
      <trkpt lat="45.25685" lon="6.07952">
        <ele>2016.8000488281</ele>
        <time>2023-08-11T07:46:15.000Z</time>
      </trkpt>
      <trkpt lat="45.25685" lon="6.07948">
        <ele>2017.5999755859</ele>
        <time>2023-08-11T07:46:22.000Z</time>
      </trkpt>
      <trkpt lat="45.25684" lon="6.07948">
        <ele>2017.8000488281</ele>
        <time>2023-08-11T07:46:23.000Z</time>
      </trkpt>
      <trkpt lat="45.25684" lon="6.07945">
        <ele>2018.5999755859</ele>
        <time>2023-08-11T07:46:27.000Z</time>
      </trkpt>
      <trkpt lat="45.25683" lon="6.07944">
        <ele>2019.1999511719</ele>
        <time>2023-08-11T07:46:30.000Z</time>
      </trkpt>
      <trkpt lat="45.25684" lon="6.07941">
        <ele>2019.8000488281</ele>
        <time>2023-08-11T07:46:33.000Z</time>
      </trkpt>
      <trkpt lat="45.25683" lon="6.07938">
        <ele>2020.8000488281</ele>
        <time>2023-08-11T07:46:39.000Z</time>
      </trkpt>
      <trkpt lat="45.25681" lon="6.07939">
        <ele>2021.4000244141</ele>
        <time>2023-08-11T07:46:46.000Z</time>
      </trkpt>
      <trkpt lat="45.25681" lon="6.07939">
        <ele>2021.8000488281</ele>
        <time>2023-08-11T07:46:48.000Z</time>
      </trkpt>
      <trkpt lat="45.25678" lon="6.07936">
        <ele>2022.8000488281</ele>
        <time>2023-08-11T07:46:54.000Z</time>
      </trkpt>
      <trkpt lat="45.25678" lon="6.07934">
        <ele>2023</ele>
        <time>2023-08-11T07:46:55.000Z</time>
      </trkpt>
      <trkpt lat="45.25677" lon="6.07931">
        <ele>2024.1999511719</ele>
        <time>2023-08-11T07:47:01.000Z</time>
      </trkpt>
      <trkpt lat="45.25677" lon="6.07931">
        <ele>2024.4000244141</ele>
        <time>2023-08-11T07:47:02.000Z</time>
      </trkpt>
      <trkpt lat="45.25677" lon="6.07927">
        <ele>2025.1999511719</ele>
        <time>2023-08-11T07:47:06.000Z</time>
      </trkpt>
      <trkpt lat="45.25677" lon="6.07924">
        <ele>2025.8000488281</ele>
        <time>2023-08-11T07:47:10.000Z</time>
      </trkpt>
      <trkpt lat="45.25679" lon="6.07921">
        <ele>2026.1999511719</ele>
        <time>2023-08-11T07:47:14.000Z</time>
      </trkpt>
      <trkpt lat="45.2568" lon="6.0792">
        <ele>2026.5999755859</ele>
        <time>2023-08-11T07:47:18.000Z</time>
      </trkpt>
      <trkpt lat="45.25679" lon="6.07917">
        <ele>2027.4000244141</ele>
        <time>2023-08-11T07:47:22.000Z</time>
      </trkpt>
      <trkpt lat="45.25676" lon="6.07919">
        <ele>2027.8000488281</ele>
        <time>2023-08-11T07:47:26.000Z</time>
      </trkpt>
      <trkpt lat="45.25676" lon="6.07921">
        <ele>2028.4000244141</ele>
        <time>2023-08-11T07:47:30.000Z</time>
      </trkpt>
      <trkpt lat="45.25676" lon="6.07918">
        <ele>2028.8000488281</ele>
        <time>2023-08-11T07:47:33.000Z</time>
      </trkpt>
      <trkpt lat="45.25677" lon="6.07916">
        <ele>2029.4000244141</ele>
        <time>2023-08-11T07:47:40.000Z</time>
      </trkpt>
      <trkpt lat="45.25676" lon="6.07915">
        <ele>2029.4000244141</ele>
        <time>2023-08-11T07:47:41.000Z</time>
      </trkpt>
      <trkpt lat="45.25675" lon="6.07913">
        <ele>2030</ele>
        <time>2023-08-11T07:47:46.000Z</time>
      </trkpt>
      <trkpt lat="45.25675" lon="6.0791">
        <ele>2030.8000488281</ele>
        <time>2023-08-11T07:47:51.000Z</time>
      </trkpt>
      <trkpt lat="45.25675" lon="6.07908">
        <ele>2031</ele>
        <time>2023-08-11T07:47:54.000Z</time>
      </trkpt>
      <trkpt lat="45.25674" lon="6.07904">
        <ele>2031.4000244141</ele>
        <time>2023-08-11T07:47:59.000Z</time>
      </trkpt>
      <trkpt lat="45.25674" lon="6.07901">
        <ele>2031.8000488281</ele>
        <time>2023-08-11T07:48:03.000Z</time>
      </trkpt>
      <trkpt lat="45.25673" lon="6.079">
        <ele>2032.4000244141</ele>
        <time>2023-08-11T07:48:06.000Z</time>
      </trkpt>
      <trkpt lat="45.25673" lon="6.07899">
        <ele>2032.8000488281</ele>
        <time>2023-08-11T07:48:09.000Z</time>
      </trkpt>
      <trkpt lat="45.25672" lon="6.07896">
        <ele>2033.5999755859</ele>
        <time>2023-08-11T07:48:14.000Z</time>
      </trkpt>
      <trkpt lat="45.25671" lon="6.07895">
        <ele>2034</ele>
        <time>2023-08-11T07:48:16.000Z</time>
      </trkpt>
      <trkpt lat="45.25671" lon="6.07892">
        <ele>2035.1999511719</ele>
        <time>2023-08-11T07:48:23.000Z</time>
      </trkpt>
      <trkpt lat="45.25672" lon="6.07891">
        <ele>2036.1999511719</ele>
        <time>2023-08-11T07:48:31.000Z</time>
      </trkpt>
      <trkpt lat="45.25672" lon="6.0789">
        <ele>2036.4000244141</ele>
        <time>2023-08-11T07:48:32.000Z</time>
      </trkpt>
      <trkpt lat="45.25669" lon="6.07887">
        <ele>2037</ele>
        <time>2023-08-11T07:48:37.000Z</time>
      </trkpt>
      <trkpt lat="45.25667" lon="6.07882">
        <ele>2037.8000488281</ele>
        <time>2023-08-11T07:48:42.000Z</time>
      </trkpt>
      <trkpt lat="45.25665" lon="6.07879">
        <ele>2038</ele>
        <time>2023-08-11T07:48:45.000Z</time>
      </trkpt>
      <trkpt lat="45.25663" lon="6.07876">
        <ele>2038.8000488281</ele>
        <time>2023-08-11T07:48:50.000Z</time>
      </trkpt>
      <trkpt lat="45.25662" lon="6.07876">
        <ele>2039</ele>
        <time>2023-08-11T07:48:53.000Z</time>
      </trkpt>
      <trkpt lat="45.25654" lon="6.07872">
        <ele>2041.8000488281</ele>
        <time>2023-08-11T07:49:16.000Z</time>
      </trkpt>
      <trkpt lat="45.25653" lon="6.07872">
        <ele>2042</ele>
        <time>2023-08-11T07:49:17.000Z</time>
      </trkpt>
      <trkpt lat="45.25654" lon="6.07871">
        <ele>2042</ele>
        <time>2023-08-11T07:49:25.000Z</time>
      </trkpt>
      <trkpt lat="45.25653" lon="6.07873">
        <ele>2041.8000488281</ele>
        <time>2023-08-11T07:49:35.000Z</time>
      </trkpt>
      <trkpt lat="45.25655" lon="6.07877">
        <ele>2042</ele>
        <time>2023-08-11T07:49:42.000Z</time>
      </trkpt>
      <trkpt lat="45.25656" lon="6.07875">
        <ele>2043</ele>
        <time>2023-08-11T07:49:48.000Z</time>
      </trkpt>
      <trkpt lat="45.25648" lon="6.0787">
        <ele>2045</ele>
        <time>2023-08-11T07:50:02.000Z</time>
      </trkpt>
      <trkpt lat="45.25648" lon="6.0787">
        <ele>2045.1999511719</ele>
        <time>2023-08-11T07:50:03.000Z</time>
      </trkpt>
      <trkpt lat="45.25649" lon="6.0787">
        <ele>2046.1999511719</ele>
        <time>2023-08-11T07:50:08.000Z</time>
      </trkpt>
      <trkpt lat="45.25649" lon="6.0787">
        <ele>2046.1999511719</ele>
        <time>2023-08-11T07:50:09.000Z</time>
      </trkpt>
      <trkpt lat="45.25645" lon="6.07868">
        <ele>2047.4000244141</ele>
        <time>2023-08-11T07:50:18.000Z</time>
      </trkpt>
      <trkpt lat="45.25643" lon="6.07864">
        <ele>2048.6000976562</ele>
        <time>2023-08-11T07:50:36.000Z</time>
      </trkpt>
      <trkpt lat="45.25638" lon="6.07865">
        <ele>2051.3999023438</ele>
        <time>2023-08-11T07:50:55.000Z</time>
      </trkpt>
      <trkpt lat="45.25637" lon="6.0786">
        <ele>2052.3999023438</ele>
        <time>2023-08-11T07:51:11.000Z</time>
      </trkpt>
      <trkpt lat="45.25637" lon="6.07856">
        <ele>2052.8000488281</ele>
        <time>2023-08-11T07:51:17.000Z</time>
      </trkpt>
      <trkpt lat="45.25637" lon="6.07855">
        <ele>2053</ele>
        <time>2023-08-11T07:51:19.000Z</time>
      </trkpt>
      <trkpt lat="45.25636" lon="6.0785">
        <ele>2053.6000976562</ele>
        <time>2023-08-11T07:51:26.000Z</time>
      </trkpt>
      <trkpt lat="45.25635" lon="6.07849">
        <ele>2053.8000488281</ele>
        <time>2023-08-11T07:51:29.000Z</time>
      </trkpt>
      <trkpt lat="45.25633" lon="6.07846">
        <ele>2054.6000976562</ele>
        <time>2023-08-11T07:51:33.000Z</time>
      </trkpt>
      <trkpt lat="45.25632" lon="6.07848">
        <ele>2055</ele>
        <time>2023-08-11T07:51:36.000Z</time>
      </trkpt>
      <trkpt lat="45.25631" lon="6.07848">
        <ele>2055.6000976562</ele>
        <time>2023-08-11T07:51:40.000Z</time>
      </trkpt>
      <trkpt lat="45.2563" lon="6.07846">
        <ele>2056</ele>
        <time>2023-08-11T07:51:44.000Z</time>
      </trkpt>
      <trkpt lat="45.25628" lon="6.07844">
        <ele>2056.3999023438</ele>
        <time>2023-08-11T07:51:48.000Z</time>
      </trkpt>
      <trkpt lat="45.25627" lon="6.07844">
        <ele>2057</ele>
        <time>2023-08-11T07:51:52.000Z</time>
      </trkpt>
      <trkpt lat="45.25624" lon="6.07841">
        <ele>2059</ele>
        <time>2023-08-11T07:52:07.000Z</time>
      </trkpt>
      <trkpt lat="45.25623" lon="6.07841">
        <ele>2059.3999023438</ele>
        <time>2023-08-11T07:52:09.000Z</time>
      </trkpt>
      <trkpt lat="45.25623" lon="6.07839">
        <ele>2060.3999023438</ele>
        <time>2023-08-11T07:52:15.000Z</time>
      </trkpt>
      <trkpt lat="45.25622" lon="6.07839">
        <ele>2061.3999023438</ele>
        <time>2023-08-11T07:52:23.000Z</time>
      </trkpt>
      <trkpt lat="45.25623" lon="6.07836">
        <ele>2062.8000488281</ele>
        <time>2023-08-11T07:52:32.000Z</time>
      </trkpt>
      <trkpt lat="45.25622" lon="6.07832">
        <ele>2063.8000488281</ele>
        <time>2023-08-11T07:52:41.000Z</time>
      </trkpt>
      <trkpt lat="45.2562" lon="6.07829">
        <ele>2065</ele>
        <time>2023-08-11T07:52:49.000Z</time>
      </trkpt>
      <trkpt lat="45.25614" lon="6.07829">
        <ele>2065.6000976562</ele>
        <time>2023-08-11T07:52:56.000Z</time>
      </trkpt>
      <trkpt lat="45.25611" lon="6.07835">
        <ele>2067.1999511719</ele>
        <time>2023-08-11T07:53:10.000Z</time>
      </trkpt>
      <trkpt lat="45.25611" lon="6.07835">
        <ele>2067.1999511719</ele>
        <time>2023-08-11T07:53:11.000Z</time>
      </trkpt>
      <trkpt lat="45.25611" lon="6.07832">
        <ele>2068.1999511719</ele>
        <time>2023-08-11T07:53:18.000Z</time>
      </trkpt>
      <trkpt lat="45.25611" lon="6.07832">
        <ele>2068.3999023438</ele>
        <time>2023-08-11T07:53:19.000Z</time>
      </trkpt>
      <trkpt lat="45.25607" lon="6.07831">
        <ele>2069.6000976562</ele>
        <time>2023-08-11T07:53:27.000Z</time>
      </trkpt>
      <trkpt lat="45.25604" lon="6.07828">
        <ele>2070.6000976562</ele>
        <time>2023-08-11T07:53:34.000Z</time>
      </trkpt>
      <trkpt lat="45.25604" lon="6.07826">
        <ele>2070.8000488281</ele>
        <time>2023-08-11T07:53:35.000Z</time>
      </trkpt>
      <trkpt lat="45.25603" lon="6.07823">
        <ele>2071.3999023438</ele>
        <time>2023-08-11T07:53:42.000Z</time>
      </trkpt>
      <trkpt lat="45.25603" lon="6.07823">
        <ele>2071.8000488281</ele>
        <time>2023-08-11T07:53:44.000Z</time>
      </trkpt>
      <trkpt lat="45.25601" lon="6.07821">
        <ele>2072.8000488281</ele>
        <time>2023-08-11T07:53:51.000Z</time>
      </trkpt>
      <trkpt lat="45.256" lon="6.0782">
        <ele>2073</ele>
        <time>2023-08-11T07:53:52.000Z</time>
      </trkpt>
      <trkpt lat="45.25598" lon="6.07816">
        <ele>2074</ele>
        <time>2023-08-11T07:53:59.000Z</time>
      </trkpt>
      <trkpt lat="45.25597" lon="6.07816">
        <ele>2074</ele>
        <time>2023-08-11T07:54:00.000Z</time>
      </trkpt>
      <trkpt lat="45.25594" lon="6.07812">
        <ele>2074.6000976562</ele>
        <time>2023-08-11T07:54:06.000Z</time>
      </trkpt>
      <trkpt lat="45.25593" lon="6.0781">
        <ele>2075.1999511719</ele>
        <time>2023-08-11T07:54:09.000Z</time>
      </trkpt>
      <trkpt lat="45.25591" lon="6.07805">
        <ele>2075.6000976562</ele>
        <time>2023-08-11T07:54:13.000Z</time>
      </trkpt>
      <trkpt lat="45.2559" lon="6.07803">
        <ele>2076.1999511719</ele>
        <time>2023-08-11T07:54:22.000Z</time>
      </trkpt>
      <trkpt lat="45.25588" lon="6.07802">
        <ele>2077.1999511719</ele>
        <time>2023-08-11T07:54:28.000Z</time>
      </trkpt>
      <trkpt lat="45.25587" lon="6.07802">
        <ele>2077.3999023438</ele>
        <time>2023-08-11T07:54:29.000Z</time>
      </trkpt>
      <trkpt lat="45.25582" lon="6.078">
        <ele>2078.1999511719</ele>
        <time>2023-08-11T07:54:36.000Z</time>
      </trkpt>
      <trkpt lat="45.25581" lon="6.07799">
        <ele>2078.3999023438</ele>
        <time>2023-08-11T07:54:37.000Z</time>
      </trkpt>
      <trkpt lat="45.25576" lon="6.07794">
        <ele>2078.8000488281</ele>
        <time>2023-08-11T07:54:43.000Z</time>
      </trkpt>
      <trkpt lat="45.25574" lon="6.07789">
        <ele>2079.1999511719</ele>
        <time>2023-08-11T07:54:50.000Z</time>
      </trkpt>
      <trkpt lat="45.25573" lon="6.07788">
        <ele>2079.3999023438</ele>
        <time>2023-08-11T07:54:53.000Z</time>
      </trkpt>
      <trkpt lat="45.25572" lon="6.07786">
        <ele>2080.1999511719</ele>
        <time>2023-08-11T07:54:58.000Z</time>
      </trkpt>
      <trkpt lat="45.25572" lon="6.07786">
        <ele>2080.3999023438</ele>
        <time>2023-08-11T07:55:00.000Z</time>
      </trkpt>
      <trkpt lat="45.25572" lon="6.07784">
        <ele>2081.1999511719</ele>
        <time>2023-08-11T07:55:04.000Z</time>
      </trkpt>
      <trkpt lat="45.25565" lon="6.07778">
        <ele>2082.6000976562</ele>
        <time>2023-08-11T07:55:14.000Z</time>
      </trkpt>
      <trkpt lat="45.25565" lon="6.07777">
        <ele>2082.8000488281</ele>
        <time>2023-08-11T07:55:15.000Z</time>
      </trkpt>
      <trkpt lat="45.25562" lon="6.07775">
        <ele>2083.8000488281</ele>
        <time>2023-08-11T07:55:21.000Z</time>
      </trkpt>
      <trkpt lat="45.2556" lon="6.07774">
        <ele>2084.8000488281</ele>
        <time>2023-08-11T07:55:27.000Z</time>
      </trkpt>
      <trkpt lat="45.25558" lon="6.07773">
        <ele>2085</ele>
        <time>2023-08-11T07:55:30.000Z</time>
      </trkpt>
      <trkpt lat="45.25556" lon="6.07769">
        <ele>2085.8000488281</ele>
        <time>2023-08-11T07:55:35.000Z</time>
      </trkpt>
      <trkpt lat="45.25555" lon="6.07769">
        <ele>2086.1999511719</ele>
        <time>2023-08-11T07:55:38.000Z</time>
      </trkpt>
      <trkpt lat="45.25552" lon="6.07767">
        <ele>2087</ele>
        <time>2023-08-11T07:55:43.000Z</time>
      </trkpt>
      <trkpt lat="45.25552" lon="6.07767">
        <ele>2087.1999511719</ele>
        <time>2023-08-11T07:55:44.000Z</time>
      </trkpt>
      <trkpt lat="45.25544" lon="6.07762">
        <ele>2087.8000488281</ele>
        <time>2023-08-11T07:55:53.000Z</time>
      </trkpt>
      <trkpt lat="45.2554" lon="6.07755">
        <ele>2088</ele>
        <time>2023-08-11T07:56:00.000Z</time>
      </trkpt>
      <trkpt lat="45.25539" lon="6.07755">
        <ele>2088</ele>
        <time>2023-08-11T07:56:01.000Z</time>
      </trkpt>
      <trkpt lat="45.25536" lon="6.07752">
        <ele>2088.6000976562</ele>
        <time>2023-08-11T07:56:07.000Z</time>
      </trkpt>
      <trkpt lat="45.25533" lon="6.07751">
        <ele>2089</ele>
        <time>2023-08-11T07:56:10.000Z</time>
      </trkpt>
      <trkpt lat="45.25531" lon="6.0775">
        <ele>2089.6000976562</ele>
        <time>2023-08-11T07:56:14.000Z</time>
      </trkpt>
      <trkpt lat="45.2553" lon="6.07749">
        <ele>2090.1999511719</ele>
        <time>2023-08-11T07:56:19.000Z</time>
      </trkpt>
      <trkpt lat="45.25528" lon="6.07748">
        <ele>2090.3999023438</ele>
        <time>2023-08-11T07:56:21.000Z</time>
      </trkpt>
      <trkpt lat="45.25525" lon="6.07746">
        <ele>2091.1999511719</ele>
        <time>2023-08-11T07:56:27.000Z</time>
      </trkpt>
      <trkpt lat="45.25525" lon="6.07746">
        <ele>2091.3999023438</ele>
        <time>2023-08-11T07:56:28.000Z</time>
      </trkpt>
      <trkpt lat="45.25523" lon="6.07744">
        <ele>2092.3999023438</ele>
        <time>2023-08-11T07:56:33.000Z</time>
      </trkpt>
      <trkpt lat="45.25521" lon="6.07744">
        <ele>2092.8000488281</ele>
        <time>2023-08-11T07:56:36.000Z</time>
      </trkpt>
      <trkpt lat="45.25518" lon="6.07744">
        <ele>2093</ele>
        <time>2023-08-11T07:56:43.000Z</time>
      </trkpt>
      <trkpt lat="45.25519" lon="6.07739">
        <ele>2093</ele>
        <time>2023-08-11T07:56:52.000Z</time>
      </trkpt>
      <trkpt lat="45.25517" lon="6.07742">
        <ele>2092.8000488281</ele>
        <time>2023-08-11T07:57:01.000Z</time>
      </trkpt>
      <trkpt lat="45.25517" lon="6.07748">
        <ele>2093</ele>
        <time>2023-08-11T07:57:09.000Z</time>
      </trkpt>
      <trkpt lat="45.25517" lon="6.07741">
        <ele>2093</ele>
        <time>2023-08-11T07:57:14.000Z</time>
      </trkpt>
      <trkpt lat="45.25519" lon="6.07742">
        <ele>2093</ele>
        <time>2023-08-11T07:57:22.000Z</time>
      </trkpt>
      <trkpt lat="45.25519" lon="6.07739">
        <ele>2093</ele>
        <time>2023-08-11T07:57:32.000Z</time>
      </trkpt>
      <trkpt lat="45.25515" lon="6.07738">
        <ele>2093</ele>
        <time>2023-08-11T07:57:38.000Z</time>
      </trkpt>
      <trkpt lat="45.25511" lon="6.07741">
        <ele>2092.8000488281</ele>
        <time>2023-08-11T07:57:43.000Z</time>
      </trkpt>
      <trkpt lat="45.25503" lon="6.07739">
        <ele>2092.6000976562</ele>
        <time>2023-08-11T07:57:52.000Z</time>
      </trkpt>
      <trkpt lat="45.25498" lon="6.07735">
        <ele>2092.3999023438</ele>
        <time>2023-08-11T07:58:00.000Z</time>
      </trkpt>
      <trkpt lat="45.25493" lon="6.07733">
        <ele>2092.3999023438</ele>
        <time>2023-08-11T07:58:08.000Z</time>
      </trkpt>
      <trkpt lat="45.25486" lon="6.07736">
        <ele>2092.3999023438</ele>
        <time>2023-08-11T07:58:17.000Z</time>
      </trkpt>
      <trkpt lat="45.25485" lon="6.07739">
        <ele>2093.1999511719</ele>
        <time>2023-08-11T07:58:24.000Z</time>
      </trkpt>
      <trkpt lat="45.25485" lon="6.07739">
        <ele>2093.3999023438</ele>
        <time>2023-08-11T07:58:25.000Z</time>
      </trkpt>
      <trkpt lat="45.25483" lon="6.07742">
        <ele>2093.8000488281</ele>
        <time>2023-08-11T07:58:33.000Z</time>
      </trkpt>
      <trkpt lat="45.25481" lon="6.07744">
        <ele>2093.8000488281</ele>
        <time>2023-08-11T07:58:43.000Z</time>
      </trkpt>
      <trkpt lat="45.25482" lon="6.07744">
        <ele>2094.1999511719</ele>
        <time>2023-08-11T07:58:53.000Z</time>
      </trkpt>
      <trkpt lat="45.25482" lon="6.07748">
        <ele>2095.6000976562</ele>
        <time>2023-08-11T07:59:01.000Z</time>
      </trkpt>
      <trkpt lat="45.25478" lon="6.07751">
        <ele>2096.6000976562</ele>
        <time>2023-08-11T07:59:07.000Z</time>
      </trkpt>
      <trkpt lat="45.25477" lon="6.07752">
        <ele>2096.8000488281</ele>
        <time>2023-08-11T07:59:08.000Z</time>
      </trkpt>
      <trkpt lat="45.25477" lon="6.07754">
        <ele>2097.8000488281</ele>
        <time>2023-08-11T07:59:14.000Z</time>
      </trkpt>
      <trkpt lat="45.25477" lon="6.07755">
        <ele>2098.1999511719</ele>
        <time>2023-08-11T07:59:16.000Z</time>
      </trkpt>
      <trkpt lat="45.25477" lon="6.07757">
        <ele>2098.8000488281</ele>
        <time>2023-08-11T07:59:20.000Z</time>
      </trkpt>
      <trkpt lat="45.25474" lon="6.07758">
        <ele>2100</ele>
        <time>2023-08-11T07:59:25.000Z</time>
      </trkpt>
      <trkpt lat="45.25469" lon="6.07758">
        <ele>2101</ele>
        <time>2023-08-11T07:59:32.000Z</time>
      </trkpt>
      <trkpt lat="45.25468" lon="6.07758">
        <ele>2101</ele>
        <time>2023-08-11T07:59:33.000Z</time>
      </trkpt>
      <trkpt lat="45.25467" lon="6.0776">
        <ele>2101.8000488281</ele>
        <time>2023-08-11T07:59:39.000Z</time>
      </trkpt>
      <trkpt lat="45.25466" lon="6.07762">
        <ele>2102.1999511719</ele>
        <time>2023-08-11T07:59:41.000Z</time>
      </trkpt>
      <trkpt lat="45.25462" lon="6.07765">
        <ele>2103.1999511719</ele>
        <time>2023-08-11T07:59:47.000Z</time>
      </trkpt>
      <trkpt lat="45.25462" lon="6.07765">
        <ele>2103.1999511719</ele>
        <time>2023-08-11T07:59:48.000Z</time>
      </trkpt>
      <trkpt lat="45.2546" lon="6.07765">
        <ele>2103.6000976562</ele>
        <time>2023-08-11T07:59:54.000Z</time>
      </trkpt>
      <trkpt lat="45.25458" lon="6.07762">
        <ele>2104.1999511719</ele>
        <time>2023-08-11T08:00:00.000Z</time>
      </trkpt>
      <trkpt lat="45.25458" lon="6.0776">
        <ele>2104.1999511719</ele>
        <time>2023-08-11T08:00:02.000Z</time>
      </trkpt>
      <trkpt lat="45.25456" lon="6.07759">
        <ele>2104.6000976562</ele>
        <time>2023-08-11T08:00:04.000Z</time>
      </trkpt>
      <trkpt lat="45.25454" lon="6.07762">
        <ele>2104.3999023438</ele>
        <time>2023-08-11T08:00:15.000Z</time>
      </trkpt>
      <trkpt lat="45.25452" lon="6.07757">
        <ele>2104.8000488281</ele>
        <time>2023-08-11T08:00:22.000Z</time>
      </trkpt>
      <trkpt lat="45.25451" lon="6.07756">
        <ele>2104.3999023438</ele>
        <time>2023-08-11T08:00:28.000Z</time>
      </trkpt>
      <trkpt lat="45.25447" lon="6.07759">
        <ele>2104.3999023438</ele>
        <time>2023-08-11T08:00:35.000Z</time>
      </trkpt>
      <trkpt lat="45.25442" lon="6.07759">
        <ele>2104.6000976562</ele>
        <time>2023-08-11T08:00:43.000Z</time>
      </trkpt>
      <trkpt lat="45.25437" lon="6.07759">
        <ele>2105</ele>
        <time>2023-08-11T08:00:49.000Z</time>
      </trkpt>
      <trkpt lat="45.25435" lon="6.0776">
        <ele>2105.1999511719</ele>
        <time>2023-08-11T08:00:53.000Z</time>
      </trkpt>
      <trkpt lat="45.25433" lon="6.07761">
        <ele>2105.6000976562</ele>
        <time>2023-08-11T08:00:56.000Z</time>
      </trkpt>
      <trkpt lat="45.25425" lon="6.07763">
        <ele>2105.8000488281</ele>
        <time>2023-08-11T08:01:03.000Z</time>
      </trkpt>
      <trkpt lat="45.25418" lon="6.07759">
        <ele>2105.6000976562</ele>
        <time>2023-08-11T08:01:09.000Z</time>
      </trkpt>
      <trkpt lat="45.25414" lon="6.0776">
        <ele>2105.8000488281</ele>
        <time>2023-08-11T08:01:17.000Z</time>
      </trkpt>
      <trkpt lat="45.25413" lon="6.07759">
        <ele>2106.3999023438</ele>
        <time>2023-08-11T08:01:22.000Z</time>
      </trkpt>
      <trkpt lat="45.2541" lon="6.07758">
        <ele>2107</ele>
        <time>2023-08-11T08:01:25.000Z</time>
      </trkpt>
      <trkpt lat="45.25407" lon="6.07759">
        <ele>2107.1999511719</ele>
        <time>2023-08-11T08:01:32.000Z</time>
      </trkpt>
      <trkpt lat="45.25401" lon="6.07764">
        <ele>2106.8000488281</ele>
        <time>2023-08-11T08:01:39.000Z</time>
      </trkpt>
      <trkpt lat="45.25396" lon="6.07768">
        <ele>2107</ele>
        <time>2023-08-11T08:01:47.000Z</time>
      </trkpt>
      <trkpt lat="45.25391" lon="6.07772">
        <ele>2107.6000976562</ele>
        <time>2023-08-11T08:01:51.000Z</time>
      </trkpt>
      <trkpt lat="45.25387" lon="6.07772">
        <ele>2108.3999023438</ele>
        <time>2023-08-11T08:01:55.000Z</time>
      </trkpt>
      <trkpt lat="45.25385" lon="6.07771">
        <ele>2108.6000976562</ele>
        <time>2023-08-11T08:01:57.000Z</time>
      </trkpt>
      <trkpt lat="45.25382" lon="6.07769">
        <ele>2109</ele>
        <time>2023-08-11T08:02:02.000Z</time>
      </trkpt>
      <trkpt lat="45.25381" lon="6.07772">
        <ele>2109.8000488281</ele>
        <time>2023-08-11T08:02:09.000Z</time>
      </trkpt>
      <trkpt lat="45.2538" lon="6.07773">
        <ele>2110.1999511719</ele>
        <time>2023-08-11T08:02:11.000Z</time>
      </trkpt>
      <trkpt lat="45.25377" lon="6.07776">
        <ele>2110.8000488281</ele>
        <time>2023-08-11T08:02:16.000Z</time>
      </trkpt>
      <trkpt lat="45.25376" lon="6.07777">
        <ele>2111</ele>
        <time>2023-08-11T08:02:18.000Z</time>
      </trkpt>
      <trkpt lat="45.2537" lon="6.07782">
        <ele>2111.3999023438</ele>
        <time>2023-08-11T08:02:26.000Z</time>
      </trkpt>
      <trkpt lat="45.25367" lon="6.07789">
        <ele>2111.6000976562</ele>
        <time>2023-08-11T08:02:32.000Z</time>
      </trkpt>
      <trkpt lat="45.25363" lon="6.07793">
        <ele>2111.8000488281</ele>
        <time>2023-08-11T08:02:38.000Z</time>
      </trkpt>
      <trkpt lat="45.25363" lon="6.07794">
        <ele>2111.8000488281</ele>
        <time>2023-08-11T08:02:39.000Z</time>
      </trkpt>
      <trkpt lat="45.2536" lon="6.07797">
        <ele>2112.6000976562</ele>
        <time>2023-08-11T08:02:45.000Z</time>
      </trkpt>
      <trkpt lat="45.2536" lon="6.07798">
        <ele>2113</ele>
        <time>2023-08-11T08:02:47.000Z</time>
      </trkpt>
      <trkpt lat="45.25358" lon="6.078">
        <ele>2113.8000488281</ele>
        <time>2023-08-11T08:02:53.000Z</time>
      </trkpt>
      <trkpt lat="45.25358" lon="6.078">
        <ele>2114</ele>
        <time>2023-08-11T08:02:54.000Z</time>
      </trkpt>
      <trkpt lat="45.25357" lon="6.078">
        <ele>2114.8000488281</ele>
        <time>2023-08-11T08:02:59.000Z</time>
      </trkpt>
      <trkpt lat="45.25358" lon="6.07795">
        <ele>2114.8000488281</ele>
        <time>2023-08-11T08:03:08.000Z</time>
      </trkpt>
      <trkpt lat="45.25357" lon="6.07798">
        <ele>2114.6000976562</ele>
        <time>2023-08-11T08:03:18.000Z</time>
      </trkpt>
      <trkpt lat="45.25354" lon="6.07804">
        <ele>2115</ele>
        <time>2023-08-11T08:03:25.000Z</time>
      </trkpt>
      <trkpt lat="45.25353" lon="6.07804">
        <ele>2115.1999511719</ele>
        <time>2023-08-11T08:03:26.000Z</time>
      </trkpt>
      <trkpt lat="45.25349" lon="6.07806">
        <ele>2116</ele>
        <time>2023-08-11T08:03:32.000Z</time>
      </trkpt>
      <trkpt lat="45.25346" lon="6.07803">
        <ele>2116.1999511719</ele>
        <time>2023-08-11T08:03:36.000Z</time>
      </trkpt>
      <trkpt lat="45.25345" lon="6.07802">
        <ele>2116.3999023438</ele>
        <time>2023-08-11T08:03:38.000Z</time>
      </trkpt>
      <trkpt lat="45.2534" lon="6.07801">
        <ele>2117.3999023438</ele>
        <time>2023-08-11T08:03:44.000Z</time>
      </trkpt>
      <trkpt lat="45.2534" lon="6.07801">
        <ele>2117.3999023438</ele>
        <time>2023-08-11T08:03:45.000Z</time>
      </trkpt>
      <trkpt lat="45.25335" lon="6.078">
        <ele>2118.1999511719</ele>
        <time>2023-08-11T08:03:52.000Z</time>
      </trkpt>
      <trkpt lat="45.25335" lon="6.07799">
        <ele>2118.3999023438</ele>
        <time>2023-08-11T08:03:53.000Z</time>
      </trkpt>
      <trkpt lat="45.25334" lon="6.07797">
        <ele>2118.8000488281</ele>
        <time>2023-08-11T08:03:55.000Z</time>
      </trkpt>
      <trkpt lat="45.25333" lon="6.07793">
        <ele>2119.3999023438</ele>
        <time>2023-08-11T08:03:59.000Z</time>
      </trkpt>
      <trkpt lat="45.25333" lon="6.07792">
        <ele>2119.6000976562</ele>
        <time>2023-08-11T08:04:00.000Z</time>
      </trkpt>
      <trkpt lat="45.25333" lon="6.07789">
        <ele>2120.6000976562</ele>
        <time>2023-08-11T08:04:05.000Z</time>
      </trkpt>
      <trkpt lat="45.25333" lon="6.07789">
        <ele>2121.6000976562</ele>
        <time>2023-08-11T08:04:11.000Z</time>
      </trkpt>
      <trkpt lat="45.25332" lon="6.0779">
        <ele>2121.6000976562</ele>
        <time>2023-08-11T08:04:12.000Z</time>
      </trkpt>
      <trkpt lat="45.25327" lon="6.07792">
        <ele>2122.1999511719</ele>
        <time>2023-08-11T08:04:18.000Z</time>
      </trkpt>
      <trkpt lat="45.25327" lon="6.07792">
        <ele>2122.3999023438</ele>
        <time>2023-08-11T08:04:19.000Z</time>
      </trkpt>
      <trkpt lat="45.25326" lon="6.07791">
        <ele>2122.6000976562</ele>
        <time>2023-08-11T08:04:22.000Z</time>
      </trkpt>
      <trkpt lat="45.25324" lon="6.0779">
        <ele>2123</ele>
        <time>2023-08-11T08:04:24.000Z</time>
      </trkpt>
      <trkpt lat="45.25323" lon="6.07786">
        <ele>2123.6000976562</ele>
        <time>2023-08-11T08:04:29.000Z</time>
      </trkpt>
      <trkpt lat="45.25322" lon="6.07786">
        <ele>2124</ele>
        <time>2023-08-11T08:04:31.000Z</time>
      </trkpt>
      <trkpt lat="45.25321" lon="6.07784">
        <ele>2124.8000488281</ele>
        <time>2023-08-11T08:04:38.000Z</time>
      </trkpt>
      <trkpt lat="45.25321" lon="6.07784">
        <ele>2125</ele>
        <time>2023-08-11T08:04:39.000Z</time>
      </trkpt>
      <trkpt lat="45.25317" lon="6.07783">
        <ele>2126</ele>
        <time>2023-08-11T08:04:45.000Z</time>
      </trkpt>
      <trkpt lat="45.25315" lon="6.07783">
        <ele>2126.1999511719</ele>
        <time>2023-08-11T08:04:47.000Z</time>
      </trkpt>
      <trkpt lat="45.25311" lon="6.07783">
        <ele>2127</ele>
        <time>2023-08-11T08:04:53.000Z</time>
      </trkpt>
      <trkpt lat="45.2531" lon="6.07782">
        <ele>2127.6000976562</ele>
        <time>2023-08-11T08:04:56.000Z</time>
      </trkpt>
      <trkpt lat="45.25309" lon="6.07779">
        <ele>2128</ele>
        <time>2023-08-11T08:05:00.000Z</time>
      </trkpt>
      <trkpt lat="45.25307" lon="6.07775">
        <ele>2129</ele>
        <time>2023-08-11T08:05:06.000Z</time>
      </trkpt>
      <trkpt lat="45.25306" lon="6.07774">
        <ele>2129.1999511719</ele>
        <time>2023-08-11T08:05:07.000Z</time>
      </trkpt>
      <trkpt lat="45.25304" lon="6.07768">
        <ele>2130.3999023438</ele>
        <time>2023-08-11T08:05:12.000Z</time>
      </trkpt>
      <trkpt lat="45.25304" lon="6.07767">
        <ele>2130.3999023438</ele>
        <time>2023-08-11T08:05:13.000Z</time>
      </trkpt>
      <trkpt lat="45.25304" lon="6.07763">
        <ele>2131.3999023438</ele>
        <time>2023-08-11T08:05:18.000Z</time>
      </trkpt>
      <trkpt lat="45.25304" lon="6.07763">
        <ele>2131.3999023438</ele>
        <time>2023-08-11T08:05:19.000Z</time>
      </trkpt>
      <trkpt lat="45.25305" lon="6.0776">
        <ele>2131.6000976562</ele>
        <time>2023-08-11T08:05:26.000Z</time>
      </trkpt>
      <trkpt lat="45.25305" lon="6.07759">
        <ele>2131.3999023438</ele>
        <time>2023-08-11T08:05:36.000Z</time>
      </trkpt>
      <trkpt lat="45.25308" lon="6.07769">
        <ele>2130.8000488281</ele>
        <time>2023-08-11T08:05:44.000Z</time>
      </trkpt>
      <trkpt lat="45.25309" lon="6.07773">
        <ele>2130.3999023438</ele>
        <time>2023-08-11T08:05:48.000Z</time>
      </trkpt>
      <trkpt lat="45.25309" lon="6.07776">
        <ele>2129.3999023438</ele>
        <time>2023-08-11T08:05:54.000Z</time>
      </trkpt>
      <trkpt lat="45.25311" lon="6.07785">
        <ele>2128.3999023438</ele>
        <time>2023-08-11T08:06:01.000Z</time>
      </trkpt>
      <trkpt lat="45.25311" lon="6.07786">
        <ele>2128.1999511719</ele>
        <time>2023-08-11T08:06:02.000Z</time>
      </trkpt>
      <trkpt lat="45.25315" lon="6.0779">
        <ele>2127.1999511719</ele>
        <time>2023-08-11T08:06:08.000Z</time>
      </trkpt>
      <trkpt lat="45.25316" lon="6.0779">
        <ele>2127</ele>
        <time>2023-08-11T08:06:09.000Z</time>
      </trkpt>
      <trkpt lat="45.2532" lon="6.07793">
        <ele>2126</ele>
        <time>2023-08-11T08:06:14.000Z</time>
      </trkpt>
      <trkpt lat="45.2532" lon="6.07793">
        <ele>2125.6000976562</ele>
        <time>2023-08-11T08:06:15.000Z</time>
      </trkpt>
      <trkpt lat="45.25322" lon="6.07799">
        <ele>2124.8000488281</ele>
        <time>2023-08-11T08:06:20.000Z</time>
      </trkpt>
      <trkpt lat="45.25322" lon="6.07801">
        <ele>2124.3999023438</ele>
        <time>2023-08-11T08:06:22.000Z</time>
      </trkpt>
      <trkpt lat="45.25323" lon="6.07805">
        <ele>2123.6000976562</ele>
        <time>2023-08-11T08:06:26.000Z</time>
      </trkpt>
      <trkpt lat="45.25324" lon="6.07806">
        <ele>2123.1999511719</ele>
        <time>2023-08-11T08:06:28.000Z</time>
      </trkpt>
      <trkpt lat="45.25326" lon="6.07805">
        <ele>2122.6000976562</ele>
        <time>2023-08-11T08:06:32.000Z</time>
      </trkpt>
      <trkpt lat="45.25327" lon="6.07804">
        <ele>2122.3999023438</ele>
        <time>2023-08-11T08:06:33.000Z</time>
      </trkpt>
      <trkpt lat="45.25328" lon="6.07801">
        <ele>2122.1999511719</ele>
        <time>2023-08-11T08:06:35.000Z</time>
      </trkpt>
      <trkpt lat="45.25329" lon="6.07795">
        <ele>2122.6000976562</ele>
        <time>2023-08-11T08:06:41.000Z</time>
      </trkpt>
      <trkpt lat="45.2533" lon="6.07793">
        <ele>2122</ele>
        <time>2023-08-11T08:06:47.000Z</time>
      </trkpt>
      <trkpt lat="45.2533" lon="6.07793">
        <ele>2121.8000488281</ele>
        <time>2023-08-11T08:06:48.000Z</time>
      </trkpt>
      <trkpt lat="45.25331" lon="6.07793">
        <ele>2121.6000976562</ele>
        <time>2023-08-11T08:06:49.000Z</time>
      </trkpt>
      <trkpt lat="45.25335" lon="6.07796">
        <ele>2120.3999023438</ele>
        <time>2023-08-11T08:06:54.000Z</time>
      </trkpt>
      <trkpt lat="45.25336" lon="6.07797">
        <ele>2120.1999511719</ele>
        <time>2023-08-11T08:06:56.000Z</time>
      </trkpt>
      <trkpt lat="45.25338" lon="6.07799">
        <ele>2119.3999023438</ele>
        <time>2023-08-11T08:07:02.000Z</time>
      </trkpt>
      <trkpt lat="45.25339" lon="6.07799">
        <ele>2118.8000488281</ele>
        <time>2023-08-11T08:07:06.000Z</time>
      </trkpt>
      <trkpt lat="45.2534" lon="6.07801">
        <ele>2118.3999023438</ele>
        <time>2023-08-11T08:07:09.000Z</time>
      </trkpt>
      <trkpt lat="45.25342" lon="6.07804">
        <ele>2117.8000488281</ele>
        <time>2023-08-11T08:07:13.000Z</time>
      </trkpt>
      <trkpt lat="45.25345" lon="6.07805">
        <ele>2117.3999023438</ele>
        <time>2023-08-11T08:07:18.000Z</time>
      </trkpt>
      <trkpt lat="45.25347" lon="6.07807">
        <ele>2117</ele>
        <time>2023-08-11T08:07:20.000Z</time>
      </trkpt>
      <trkpt lat="45.25351" lon="6.07805">
        <ele>2116.1999511719</ele>
        <time>2023-08-11T08:07:24.000Z</time>
      </trkpt>
      <trkpt lat="45.25352" lon="6.07805">
        <ele>2116.1999511719</ele>
        <time>2023-08-11T08:07:25.000Z</time>
      </trkpt>
      <trkpt lat="45.25353" lon="6.07805">
        <ele>2116</ele>
        <time>2023-08-11T08:07:28.000Z</time>
      </trkpt>
      <trkpt lat="45.25354" lon="6.07807">
        <ele>2115.8000488281</ele>
        <time>2023-08-11T08:07:32.000Z</time>
      </trkpt>
      <trkpt lat="45.25354" lon="6.0781">
        <ele>2115.3999023438</ele>
        <time>2023-08-11T08:07:36.000Z</time>
      </trkpt>
      <trkpt lat="45.25354" lon="6.07811">
        <ele>2115.1999511719</ele>
        <time>2023-08-11T08:07:37.000Z</time>
      </trkpt>
      <trkpt lat="45.25354" lon="6.07811">
        <ele>2115.1999511719</ele>
        <time>2023-08-11T08:07:38.000Z</time>
      </trkpt>
      <trkpt lat="45.25358" lon="6.07815">
        <ele>2114</ele>
        <time>2023-08-11T08:07:45.000Z</time>
      </trkpt>
      <trkpt lat="45.25359" lon="6.07815">
        <ele>2113.8000488281</ele>
        <time>2023-08-11T08:07:46.000Z</time>
      </trkpt>
      <trkpt lat="45.25361" lon="6.07821">
        <ele>2112.8000488281</ele>
        <time>2023-08-11T08:07:50.000Z</time>
      </trkpt>
      <trkpt lat="45.25363" lon="6.07829">
        <ele>2112.1999511719</ele>
        <time>2023-08-11T08:07:55.000Z</time>
      </trkpt>
      <trkpt lat="45.25364" lon="6.07837">
        <ele>2112.6000976562</ele>
        <time>2023-08-11T08:08:01.000Z</time>
      </trkpt>
      <trkpt lat="45.25366" lon="6.07848">
        <ele>2112.8000488281</ele>
        <time>2023-08-11T08:08:10.000Z</time>
      </trkpt>
      <trkpt lat="45.25367" lon="6.07855">
        <ele>2112.6000976562</ele>
        <time>2023-08-11T08:08:17.000Z</time>
      </trkpt>
      <trkpt lat="45.25367" lon="6.07858">
        <ele>2112.1999511719</ele>
        <time>2023-08-11T08:08:23.000Z</time>
      </trkpt>
      <trkpt lat="45.25363" lon="6.07868">
        <ele>2111.6000976562</ele>
        <time>2023-08-11T08:08:29.000Z</time>
      </trkpt>
      <trkpt lat="45.25363" lon="6.0787">
        <ele>2111.3999023438</ele>
        <time>2023-08-11T08:08:30.000Z</time>
      </trkpt>
      <trkpt lat="45.25363" lon="6.07878">
        <ele>2111.6000976562</ele>
        <time>2023-08-11T08:08:37.000Z</time>
      </trkpt>
      <trkpt lat="45.25361" lon="6.07878">
        <ele>2111.6000976562</ele>
        <time>2023-08-11T08:08:44.000Z</time>
      </trkpt>
      <trkpt lat="45.2536" lon="6.07878">
        <ele>2111.3999023438</ele>
        <time>2023-08-11T08:08:50.000Z</time>
      </trkpt>
      <trkpt lat="45.2536" lon="6.07878">
        <ele>2111.3999023438</ele>
        <time>2023-08-11T08:08:57.000Z</time>
      </trkpt>
      <trkpt lat="45.25357" lon="6.07883">
        <ele>2111</ele>
        <time>2023-08-11T08:09:05.000Z</time>
      </trkpt>
      <trkpt lat="45.25356" lon="6.07884">
        <ele>2110.6000976562</ele>
        <time>2023-08-11T08:09:09.000Z</time>
      </trkpt>
      <trkpt lat="45.25356" lon="6.07884">
        <ele>2110</ele>
        <time>2023-08-11T08:09:14.000Z</time>
      </trkpt>
      <trkpt lat="45.25356" lon="6.07889">
        <ele>2109.3999023438</ele>
        <time>2023-08-11T08:09:18.000Z</time>
      </trkpt>
      <trkpt lat="45.25355" lon="6.07892">
        <ele>2109.1999511719</ele>
        <time>2023-08-11T08:09:21.000Z</time>
      </trkpt>
      <trkpt lat="45.25354" lon="6.07896">
        <ele>2108.1999511719</ele>
        <time>2023-08-11T08:09:25.000Z</time>
      </trkpt>
      <trkpt lat="45.25354" lon="6.07901">
        <ele>2107.6000976562</ele>
        <time>2023-08-11T08:09:29.000Z</time>
      </trkpt>
      <trkpt lat="45.25354" lon="6.07901">
        <ele>2107.1999511719</ele>
        <time>2023-08-11T08:09:31.000Z</time>
      </trkpt>
      <trkpt lat="45.25354" lon="6.07904">
        <ele>2107.1999511719</ele>
        <time>2023-08-11T08:09:36.000Z</time>
      </trkpt>
      <trkpt lat="45.25351" lon="6.07911">
        <ele>2106.8000488281</ele>
        <time>2023-08-11T08:09:42.000Z</time>
      </trkpt>
      <trkpt lat="45.25348" lon="6.07918">
        <ele>2107</ele>
        <time>2023-08-11T08:09:49.000Z</time>
      </trkpt>
      <trkpt lat="45.25345" lon="6.07928">
        <ele>2107.1999511719</ele>
        <time>2023-08-11T08:09:57.000Z</time>
      </trkpt>
      <trkpt lat="45.25342" lon="6.0794">
        <ele>2107.8000488281</ele>
        <time>2023-08-11T08:10:05.000Z</time>
      </trkpt>
      <trkpt lat="45.2534" lon="6.0795">
        <ele>2107.8000488281</ele>
        <time>2023-08-11T08:10:13.000Z</time>
      </trkpt>
      <trkpt lat="45.25338" lon="6.0796">
        <ele>2107.8000488281</ele>
        <time>2023-08-11T08:10:19.000Z</time>
      </trkpt>
      <trkpt lat="45.25336" lon="6.07968">
        <ele>2107.8000488281</ele>
        <time>2023-08-11T08:10:28.000Z</time>
      </trkpt>
      <trkpt lat="45.25336" lon="6.07971">
        <ele>2108.1999511719</ele>
        <time>2023-08-11T08:10:33.000Z</time>
      </trkpt>
      <trkpt lat="45.25335" lon="6.07975">
        <ele>2108.1999511719</ele>
        <time>2023-08-11T08:10:35.000Z</time>
      </trkpt>
      <trkpt lat="45.25332" lon="6.07979">
        <ele>2108.3999023438</ele>
        <time>2023-08-11T08:10:40.000Z</time>
      </trkpt>
      <trkpt lat="45.25328" lon="6.07977">
        <ele>2108.6000976562</ele>
        <time>2023-08-11T08:10:46.000Z</time>
      </trkpt>
      <trkpt lat="45.25322" lon="6.07986">
        <ele>2108.6000976562</ele>
        <time>2023-08-11T08:10:53.000Z</time>
      </trkpt>
      <trkpt lat="45.2532" lon="6.07992">
        <ele>2109.1999511719</ele>
        <time>2023-08-11T08:10:58.000Z</time>
      </trkpt>
      <trkpt lat="45.25319" lon="6.07996">
        <ele>2109.8000488281</ele>
        <time>2023-08-11T08:11:06.000Z</time>
      </trkpt>
      <trkpt lat="45.25314" lon="6.08002">
        <ele>2110.3999023438</ele>
        <time>2023-08-11T08:11:13.000Z</time>
      </trkpt>
      <trkpt lat="45.25311" lon="6.08007">
        <ele>2111.1999511719</ele>
        <time>2023-08-11T08:11:19.000Z</time>
      </trkpt>
      <trkpt lat="45.25311" lon="6.08008">
        <ele>2111.3999023438</ele>
        <time>2023-08-11T08:11:20.000Z</time>
      </trkpt>
      <trkpt lat="45.2531" lon="6.08013">
        <ele>2112</ele>
        <time>2023-08-11T08:11:25.000Z</time>
      </trkpt>
      <trkpt lat="45.25309" lon="6.08012">
        <ele>2112.3999023438</ele>
        <time>2023-08-11T08:11:31.000Z</time>
      </trkpt>
      <trkpt lat="45.25307" lon="6.0801">
        <ele>2112.3999023438</ele>
        <time>2023-08-11T08:11:33.000Z</time>
      </trkpt>
      <trkpt lat="45.253" lon="6.08012">
        <ele>2112.1999511719</ele>
        <time>2023-08-11T08:11:41.000Z</time>
      </trkpt>
      <trkpt lat="45.25291" lon="6.08015">
        <ele>2112.1999511719</ele>
        <time>2023-08-11T08:11:49.000Z</time>
      </trkpt>
      <trkpt lat="45.25286" lon="6.08021">
        <ele>2112.6000976562</ele>
        <time>2023-08-11T08:11:57.000Z</time>
      </trkpt>
      <trkpt lat="45.25281" lon="6.08024">
        <ele>2112.8000488281</ele>
        <time>2023-08-11T08:12:03.000Z</time>
      </trkpt>
      <trkpt lat="45.2528" lon="6.08022">
        <ele>2113</ele>
        <time>2023-08-11T08:12:10.000Z</time>
      </trkpt>
      <trkpt lat="45.25274" lon="6.08014">
        <ele>2113.3999023438</ele>
        <time>2023-08-11T08:12:18.000Z</time>
      </trkpt>
      <trkpt lat="45.2527" lon="6.08011">
        <ele>2113.3999023438</ele>
        <time>2023-08-11T08:12:24.000Z</time>
      </trkpt>
      <trkpt lat="45.25265" lon="6.08003">
        <ele>2113.3999023438</ele>
        <time>2023-08-11T08:12:32.000Z</time>
      </trkpt>
      <trkpt lat="45.25262" lon="6.08">
        <ele>2113.6000976562</ele>
        <time>2023-08-11T08:12:35.000Z</time>
      </trkpt>
      <trkpt lat="45.25257" lon="6.07994">
        <ele>2114</ele>
        <time>2023-08-11T08:12:41.000Z</time>
      </trkpt>
      <trkpt lat="45.25251" lon="6.07988">
        <ele>2114.1999511719</ele>
        <time>2023-08-11T08:12:49.000Z</time>
      </trkpt>
      <trkpt lat="45.25241" lon="6.07985">
        <ele>2118</ele>
        <time>2023-08-11T08:13:13.000Z</time>
      </trkpt>
      <trkpt lat="45.2524" lon="6.07985">
        <ele>2118.1999511719</ele>
        <time>2023-08-11T08:13:14.000Z</time>
      </trkpt>
      <trkpt lat="45.25236" lon="6.07982">
        <ele>2119.1999511719</ele>
        <time>2023-08-11T08:13:21.000Z</time>
      </trkpt>
      <trkpt lat="45.25233" lon="6.07979">
        <ele>2120.3999023438</ele>
        <time>2023-08-11T08:13:26.000Z</time>
      </trkpt>
      <trkpt lat="45.25233" lon="6.0798">
        <ele>2120.6000976562</ele>
        <time>2023-08-11T08:13:28.000Z</time>
      </trkpt>
      <trkpt lat="45.25233" lon="6.07981">
        <ele>2120.8000488281</ele>
        <time>2023-08-11T08:13:29.000Z</time>
      </trkpt>
      <trkpt lat="45.25232" lon="6.07983">
        <ele>2121.6000976562</ele>
        <time>2023-08-11T08:13:32.000Z</time>
      </trkpt>
      <trkpt lat="45.2523" lon="6.07987">
        <ele>2122.6000976562</ele>
        <time>2023-08-11T08:13:36.000Z</time>
      </trkpt>
      <trkpt lat="45.2523" lon="6.07988">
        <ele>2122.8000488281</ele>
        <time>2023-08-11T08:13:37.000Z</time>
      </trkpt>
      <trkpt lat="45.25228" lon="6.0799">
        <ele>2123.6000976562</ele>
        <time>2023-08-11T08:13:41.000Z</time>
      </trkpt>
      <trkpt lat="45.25228" lon="6.07991">
        <ele>2124</ele>
        <time>2023-08-11T08:13:43.000Z</time>
      </trkpt>
      <trkpt lat="45.2523" lon="6.07992">
        <ele>2124.8000488281</ele>
        <time>2023-08-11T08:13:47.000Z</time>
      </trkpt>
      <trkpt lat="45.2523" lon="6.07996">
        <ele>2125.6000976562</ele>
        <time>2023-08-11T08:13:51.000Z</time>
      </trkpt>
      <trkpt lat="45.2523" lon="6.07997">
        <ele>2125.8000488281</ele>
        <time>2023-08-11T08:13:52.000Z</time>
      </trkpt>
      <trkpt lat="45.25231" lon="6.08002">
        <ele>2126.1999511719</ele>
        <time>2023-08-11T08:13:59.000Z</time>
      </trkpt>
      <trkpt lat="45.25233" lon="6.08004">
        <ele>2126.8000488281</ele>
        <time>2023-08-11T08:14:02.000Z</time>
      </trkpt>
      <trkpt lat="45.25232" lon="6.08006">
        <ele>2127.3999023438</ele>
        <time>2023-08-11T08:14:06.000Z</time>
      </trkpt>
      <trkpt lat="45.25233" lon="6.08008">
        <ele>2128</ele>
        <time>2023-08-11T08:14:09.000Z</time>
      </trkpt>
      <trkpt lat="45.25235" lon="6.08013">
        <ele>2128.8000488281</ele>
        <time>2023-08-11T08:14:15.000Z</time>
      </trkpt>
      <trkpt lat="45.25236" lon="6.08015">
        <ele>2129</ele>
        <time>2023-08-11T08:14:17.000Z</time>
      </trkpt>
      <trkpt lat="45.25236" lon="6.08019">
        <ele>2129.6000976562</ele>
        <time>2023-08-11T08:14:23.000Z</time>
      </trkpt>
      <trkpt lat="45.25238" lon="6.08021">
        <ele>2130.1999511719</ele>
        <time>2023-08-11T08:14:28.000Z</time>
      </trkpt>
      <trkpt lat="45.25239" lon="6.08024">
        <ele>2130.6000976562</ele>
        <time>2023-08-11T08:14:31.000Z</time>
      </trkpt>
      <trkpt lat="45.25238" lon="6.08027">
        <ele>2131.1999511719</ele>
        <time>2023-08-11T08:14:35.000Z</time>
      </trkpt>
      <trkpt lat="45.25235" lon="6.08025">
        <ele>2131.8000488281</ele>
        <time>2023-08-11T08:14:40.000Z</time>
      </trkpt>
      <trkpt lat="45.2523" lon="6.08017">
        <ele>2131.6000976562</ele>
        <time>2023-08-11T08:14:48.000Z</time>
      </trkpt>
      <trkpt lat="45.25226" lon="6.08008">
        <ele>2131</ele>
        <time>2023-08-11T08:14:54.000Z</time>
      </trkpt>
      <trkpt lat="45.25223" lon="6.08002">
        <ele>2131.1999511719</ele>
        <time>2023-08-11T08:15:02.000Z</time>
      </trkpt>
      <trkpt lat="45.25216" lon="6.08">
        <ele>2130.8000488281</ele>
        <time>2023-08-11T08:15:09.000Z</time>
      </trkpt>
      <trkpt lat="45.25208" lon="6.08">
        <ele>2130.3999023438</ele>
        <time>2023-08-11T08:15:18.000Z</time>
      </trkpt>
      <trkpt lat="45.25199" lon="6.08001">
        <ele>2130.3999023438</ele>
        <time>2023-08-11T08:15:26.000Z</time>
      </trkpt>
      <trkpt lat="45.25196" lon="6.07999">
        <ele>2130.3999023438</ele>
        <time>2023-08-11T08:15:33.000Z</time>
      </trkpt>
      <trkpt lat="45.25189" lon="6.07995">
        <ele>2131.3999023438</ele>
        <time>2023-08-11T08:15:38.000Z</time>
      </trkpt>
      <trkpt lat="45.25182" lon="6.07994">
        <ele>2132</ele>
        <time>2023-08-11T08:15:47.000Z</time>
      </trkpt>
      <trkpt lat="45.25183" lon="6.07994">
        <ele>2132</ele>
        <time>2023-08-11T08:15:49.000Z</time>
      </trkpt>
      <trkpt lat="45.25183" lon="6.07994">
        <ele>2132.1999511719</ele>
        <time>2023-08-11T08:15:54.000Z</time>
      </trkpt>
      <trkpt lat="45.25182" lon="6.07991">
        <ele>2132</ele>
        <time>2023-08-11T08:16:02.000Z</time>
      </trkpt>
      <trkpt lat="45.25178" lon="6.0799">
        <ele>2132.1999511719</ele>
        <time>2023-08-11T08:16:10.000Z</time>
      </trkpt>
      <trkpt lat="45.25177" lon="6.07989">
        <ele>2132.6000976562</ele>
        <time>2023-08-11T08:16:12.000Z</time>
      </trkpt>
      <trkpt lat="45.25175" lon="6.07989">
        <ele>2133.3999023438</ele>
        <time>2023-08-11T08:16:17.000Z</time>
      </trkpt>
      <trkpt lat="45.25174" lon="6.0799">
        <ele>2133.6000976562</ele>
        <time>2023-08-11T08:16:18.000Z</time>
      </trkpt>
      <trkpt lat="45.25171" lon="6.0799">
        <ele>2134.6000976562</ele>
        <time>2023-08-11T08:16:22.000Z</time>
      </trkpt>
      <trkpt lat="45.25169" lon="6.0799">
        <ele>2135.3999023438</ele>
        <time>2023-08-11T08:16:26.000Z</time>
      </trkpt>
      <trkpt lat="45.25168" lon="6.0799">
        <ele>2135.6000976562</ele>
        <time>2023-08-11T08:16:27.000Z</time>
      </trkpt>
      <trkpt lat="45.25163" lon="6.07989">
        <ele>2137</ele>
        <time>2023-08-11T08:16:32.000Z</time>
      </trkpt>
      <trkpt lat="45.25158" lon="6.0799">
        <ele>2137.3999023438</ele>
        <time>2023-08-11T08:16:39.000Z</time>
      </trkpt>
      <trkpt lat="45.25149" lon="6.07987">
        <ele>2137.8000488281</ele>
        <time>2023-08-11T08:16:47.000Z</time>
      </trkpt>
      <trkpt lat="45.25148" lon="6.07987">
        <ele>2138</ele>
        <time>2023-08-11T08:16:48.000Z</time>
      </trkpt>
      <trkpt lat="45.25143" lon="6.07988">
        <ele>2137.8000488281</ele>
        <time>2023-08-11T08:16:54.000Z</time>
      </trkpt>
      <trkpt lat="45.25138" lon="6.07989">
        <ele>2137.8000488281</ele>
        <time>2023-08-11T08:17:00.000Z</time>
      </trkpt>
      <trkpt lat="45.25134" lon="6.07992">
        <ele>2138</ele>
        <time>2023-08-11T08:17:06.000Z</time>
      </trkpt>
      <trkpt lat="45.25127" lon="6.07994">
        <ele>2138.1999511719</ele>
        <time>2023-08-11T08:17:13.000Z</time>
      </trkpt>
      <trkpt lat="45.25121" lon="6.07998">
        <ele>2138</ele>
        <time>2023-08-11T08:17:19.000Z</time>
      </trkpt>
      <trkpt lat="45.25114" lon="6.08006">
        <ele>2138.3999023438</ele>
        <time>2023-08-11T08:17:27.000Z</time>
      </trkpt>
      <trkpt lat="45.2511" lon="6.08012">
        <ele>2138.8000488281</ele>
        <time>2023-08-11T08:17:35.000Z</time>
      </trkpt>
      <trkpt lat="45.25105" lon="6.08018">
        <ele>2139</ele>
        <time>2023-08-11T08:17:40.000Z</time>
      </trkpt>
      <trkpt lat="45.25104" lon="6.0802">
        <ele>2139.1999511719</ele>
        <time>2023-08-11T08:17:42.000Z</time>
      </trkpt>
      <trkpt lat="45.25098" lon="6.08024">
        <ele>2139.3999023438</ele>
        <time>2023-08-11T08:17:49.000Z</time>
      </trkpt>
      <trkpt lat="45.2509" lon="6.08027">
        <ele>2139.6000976562</ele>
        <time>2023-08-11T08:17:57.000Z</time>
      </trkpt>
      <trkpt lat="45.25085" lon="6.0803">
        <ele>2138</ele>
        <time>2023-08-11T08:18:07.000Z</time>
      </trkpt>
      <trkpt lat="45.25083" lon="6.08034">
        <ele>2136.8000488281</ele>
        <time>2023-08-11T08:18:12.000Z</time>
      </trkpt>
      <trkpt lat="45.25082" lon="6.08037">
        <ele>2136.3999023438</ele>
        <time>2023-08-11T08:18:15.000Z</time>
      </trkpt>
      <trkpt lat="45.25079" lon="6.08042">
        <ele>2135.6000976562</ele>
        <time>2023-08-11T08:18:18.000Z</time>
      </trkpt>
      <trkpt lat="45.25077" lon="6.08046">
        <ele>2135.3999023438</ele>
        <time>2023-08-11T08:18:22.000Z</time>
      </trkpt>
      <trkpt lat="45.2507" lon="6.08052">
        <ele>2135.8000488281</ele>
        <time>2023-08-11T08:18:30.000Z</time>
      </trkpt>
      <trkpt lat="45.25063" lon="6.0806">
        <ele>2135.8000488281</ele>
        <time>2023-08-11T08:18:38.000Z</time>
      </trkpt>
      <trkpt lat="45.25059" lon="6.08067">
        <ele>2136.1999511719</ele>
        <time>2023-08-11T08:18:45.000Z</time>
      </trkpt>
      <trkpt lat="45.25051" lon="6.08071">
        <ele>2136.1999511719</ele>
        <time>2023-08-11T08:18:53.000Z</time>
      </trkpt>
      <trkpt lat="45.25048" lon="6.08069">
        <ele>2136.3999023438</ele>
        <time>2023-08-11T08:19:03.000Z</time>
      </trkpt>
      <trkpt lat="45.25047" lon="6.08067">
        <ele>2136.6000976562</ele>
        <time>2023-08-11T08:19:04.000Z</time>
      </trkpt>
      <trkpt lat="45.25044" lon="6.08065">
        <ele>2136.8000488281</ele>
        <time>2023-08-11T08:19:06.000Z</time>
      </trkpt>
      <trkpt lat="45.25038" lon="6.08062">
        <ele>2137.1999511719</ele>
        <time>2023-08-11T08:19:11.000Z</time>
      </trkpt>
      <trkpt lat="45.2503" lon="6.0806">
        <ele>2137.1999511719</ele>
        <time>2023-08-11T08:19:19.000Z</time>
      </trkpt>
      <trkpt lat="45.25025" lon="6.0806">
        <ele>2137</ele>
        <time>2023-08-11T08:19:27.000Z</time>
      </trkpt>
      <trkpt lat="45.25025" lon="6.08059">
        <ele>2136.6000976562</ele>
        <time>2023-08-11T08:19:33.000Z</time>
      </trkpt>
      <trkpt lat="45.25024" lon="6.08058">
        <ele>2136.6000976562</ele>
        <time>2023-08-11T08:19:39.000Z</time>
      </trkpt>
      <trkpt lat="45.25024" lon="6.08057">
        <ele>2136.6000976562</ele>
        <time>2023-08-11T08:19:48.000Z</time>
      </trkpt>
      <trkpt lat="45.25021" lon="6.08059">
        <ele>2136.8000488281</ele>
        <time>2023-08-11T08:19:55.000Z</time>
      </trkpt>
      <trkpt lat="45.25016" lon="6.08053">
        <ele>2137.1999511719</ele>
        <time>2023-08-11T08:20:02.000Z</time>
      </trkpt>
      <trkpt lat="45.25013" lon="6.08049">
        <ele>2137</ele>
        <time>2023-08-11T08:20:09.000Z</time>
      </trkpt>
      <trkpt lat="45.25008" lon="6.08038">
        <ele>2137.1999511719</ele>
        <time>2023-08-11T08:20:18.000Z</time>
      </trkpt>
      <trkpt lat="45.25005" lon="6.08029">
        <ele>2137.1999511719</ele>
        <time>2023-08-11T08:20:24.000Z</time>
      </trkpt>
      <trkpt lat="45.25" lon="6.08019">
        <ele>2137.3999023438</ele>
        <time>2023-08-11T08:20:31.000Z</time>
      </trkpt>
      <trkpt lat="45.24994" lon="6.08011">
        <ele>2137.1999511719</ele>
        <time>2023-08-11T08:20:38.000Z</time>
      </trkpt>
      <trkpt lat="45.24992" lon="6.08012">
        <ele>2137.1999511719</ele>
        <time>2023-08-11T08:20:40.000Z</time>
      </trkpt>
      <trkpt lat="45.24991" lon="6.08011">
        <ele>2137.1999511719</ele>
        <time>2023-08-11T08:20:43.000Z</time>
      </trkpt>
      <trkpt lat="45.24991" lon="6.08005">
        <ele>2137.8000488281</ele>
        <time>2023-08-11T08:20:48.000Z</time>
      </trkpt>
      <trkpt lat="45.24991" lon="6.08004">
        <ele>2138</ele>
        <time>2023-08-11T08:20:49.000Z</time>
      </trkpt>
      <trkpt lat="45.24989" lon="6.08">
        <ele>2139</ele>
        <time>2023-08-11T08:20:53.000Z</time>
      </trkpt>
      <trkpt lat="45.24989" lon="6.07999">
        <ele>2139.3999023438</ele>
        <time>2023-08-11T08:20:55.000Z</time>
      </trkpt>
      <trkpt lat="45.24986" lon="6.07991">
        <ele>2139.3999023438</ele>
        <time>2023-08-11T08:21:00.000Z</time>
      </trkpt>
      <trkpt lat="45.24985" lon="6.07983">
        <ele>2139.1999511719</ele>
        <time>2023-08-11T08:21:08.000Z</time>
      </trkpt>
      <trkpt lat="45.24985" lon="6.07977">
        <ele>2138.8000488281</ele>
        <time>2023-08-11T08:21:13.000Z</time>
      </trkpt>
      <trkpt lat="45.24984" lon="6.07973">
        <ele>2138</ele>
        <time>2023-08-11T08:21:20.000Z</time>
      </trkpt>
      <trkpt lat="45.24984" lon="6.07973">
        <ele>2138</ele>
        <time>2023-08-11T08:21:21.000Z</time>
      </trkpt>
      <trkpt lat="45.24985" lon="6.07974">
        <ele>2137.6000976562</ele>
        <time>2023-08-11T08:21:30.000Z</time>
      </trkpt>
      <trkpt lat="45.24986" lon="6.0797">
        <ele>2137.8000488281</ele>
        <time>2023-08-11T08:21:37.000Z</time>
      </trkpt>
      <trkpt lat="45.24984" lon="6.07961">
        <ele>2136.8000488281</ele>
        <time>2023-08-11T08:21:45.000Z</time>
      </trkpt>
      <trkpt lat="45.2498" lon="6.0795">
        <ele>2136.6000976562</ele>
        <time>2023-08-11T08:21:53.000Z</time>
      </trkpt>
      <trkpt lat="45.24975" lon="6.07942">
        <ele>2136.6000976562</ele>
        <time>2023-08-11T08:22:00.000Z</time>
      </trkpt>
      <trkpt lat="45.2497" lon="6.07934">
        <ele>2136.6000976562</ele>
        <time>2023-08-11T08:22:07.000Z</time>
      </trkpt>
      <trkpt lat="45.24964" lon="6.07921">
        <ele>2136.6000976562</ele>
        <time>2023-08-11T08:22:16.000Z</time>
      </trkpt>
      <trkpt lat="45.24961" lon="6.07912">
        <ele>2136.3999023438</ele>
        <time>2023-08-11T08:22:22.000Z</time>
      </trkpt>
      <trkpt lat="45.24956" lon="6.07902">
        <ele>2136.3999023438</ele>
        <time>2023-08-11T08:22:30.000Z</time>
      </trkpt>
      <trkpt lat="45.24951" lon="6.07898">
        <ele>2138</ele>
        <time>2023-08-11T08:22:37.000Z</time>
      </trkpt>
      <trkpt lat="45.2495" lon="6.07897">
        <ele>2138.3999023438</ele>
        <time>2023-08-11T08:22:38.000Z</time>
      </trkpt>
      <trkpt lat="45.24948" lon="6.07896">
        <ele>2139.3999023438</ele>
        <time>2023-08-11T08:22:42.000Z</time>
      </trkpt>
      <trkpt lat="45.24946" lon="6.07894">
        <ele>2139.8000488281</ele>
        <time>2023-08-11T08:22:45.000Z</time>
      </trkpt>
      <trkpt lat="45.24942" lon="6.07895">
        <ele>2140</ele>
        <time>2023-08-11T08:22:51.000Z</time>
      </trkpt>
      <trkpt lat="45.24936" lon="6.0789">
        <ele>2139.6000976562</ele>
        <time>2023-08-11T08:22:58.000Z</time>
      </trkpt>
      <trkpt lat="45.24936" lon="6.0789">
        <ele>2139.1999511719</ele>
        <time>2023-08-11T08:23:04.000Z</time>
      </trkpt>
      <trkpt lat="45.24933" lon="6.07883">
        <ele>2138.3999023438</ele>
        <time>2023-08-11T08:23:09.000Z</time>
      </trkpt>
      <trkpt lat="45.24932" lon="6.07883">
        <ele>2138.1999511719</ele>
        <time>2023-08-11T08:23:10.000Z</time>
      </trkpt>
      <trkpt lat="45.24927" lon="6.07879">
        <ele>2138</ele>
        <time>2023-08-11T08:23:15.000Z</time>
      </trkpt>
      <trkpt lat="45.24923" lon="6.0788">
        <ele>2137.8000488281</ele>
        <time>2023-08-11T08:23:20.000Z</time>
      </trkpt>
      <trkpt lat="45.24916" lon="6.07882">
        <ele>2137.8000488281</ele>
        <time>2023-08-11T08:23:25.000Z</time>
      </trkpt>
      <trkpt lat="45.24913" lon="6.0788">
        <ele>2138.3999023438</ele>
        <time>2023-08-11T08:23:31.000Z</time>
      </trkpt>
      <trkpt lat="45.24912" lon="6.07879">
        <ele>2138.3999023438</ele>
        <time>2023-08-11T08:23:32.000Z</time>
      </trkpt>
      <trkpt lat="45.24905" lon="6.07879">
        <ele>2139.3999023438</ele>
        <time>2023-08-11T08:23:39.000Z</time>
      </trkpt>
      <trkpt lat="45.24905" lon="6.07878">
        <ele>2139.3999023438</ele>
        <time>2023-08-11T08:23:40.000Z</time>
      </trkpt>
      <trkpt lat="45.24905" lon="6.07875">
        <ele>2140</ele>
        <time>2023-08-11T08:23:43.000Z</time>
      </trkpt>
      <trkpt lat="45.24904" lon="6.07874">
        <ele>2140.6000976562</ele>
        <time>2023-08-11T08:23:45.000Z</time>
      </trkpt>
      <trkpt lat="45.24904" lon="6.07874">
        <ele>2141.1999511719</ele>
        <time>2023-08-11T08:23:48.000Z</time>
      </trkpt>
      <trkpt lat="45.24904" lon="6.07875">
        <ele>2141.1999511719</ele>
        <time>2023-08-11T08:23:50.000Z</time>
      </trkpt>
      <trkpt lat="45.24904" lon="6.07875">
        <ele>2141.1999511719</ele>
        <time>2023-08-11T08:23:51.000Z</time>
      </trkpt>
      <trkpt lat="45.24905" lon="6.07877">
        <ele>2141</ele>
        <time>2023-08-11T08:23:56.000Z</time>
      </trkpt>
      <trkpt lat="45.24904" lon="6.07871">
        <ele>2140.8000488281</ele>
        <time>2023-08-11T08:24:06.000Z</time>
      </trkpt>
      <trkpt lat="45.24906" lon="6.07867">
        <ele>2141.1999511719</ele>
        <time>2023-08-11T08:24:14.000Z</time>
      </trkpt>
      <trkpt lat="45.24901" lon="6.07865">
        <ele>2141</ele>
        <time>2023-08-11T08:24:20.000Z</time>
      </trkpt>
      <trkpt lat="45.24897" lon="6.07862">
        <ele>2140.8000488281</ele>
        <time>2023-08-11T08:24:25.000Z</time>
      </trkpt>
      <trkpt lat="45.24898" lon="6.07862">
        <ele>2140.6000976562</ele>
        <time>2023-08-11T08:24:31.000Z</time>
      </trkpt>
      <trkpt lat="45.249" lon="6.07863">
        <ele>2140.6000976562</ele>
        <time>2023-08-11T08:24:39.000Z</time>
      </trkpt>
      <trkpt lat="45.24902" lon="6.07865">
        <ele>2140.6000976562</ele>
        <time>2023-08-11T08:24:44.000Z</time>
      </trkpt>
      <trkpt lat="45.24904" lon="6.07868">
        <ele>2140.8000488281</ele>
        <time>2023-08-11T08:24:53.000Z</time>
      </trkpt>
      <trkpt lat="45.24905" lon="6.07871">
        <ele>2140.8000488281</ele>
        <time>2023-08-11T08:25:01.000Z</time>
      </trkpt>
      <trkpt lat="45.24904" lon="6.07868">
        <ele>2140.8000488281</ele>
        <time>2023-08-11T08:25:08.000Z</time>
      </trkpt>
      <trkpt lat="45.24903" lon="6.07866">
        <ele>2140.6000976562</ele>
        <time>2023-08-11T08:25:16.000Z</time>
      </trkpt>
      <trkpt lat="45.24902" lon="6.07866">
        <ele>2140.6000976562</ele>
        <time>2023-08-11T08:25:23.000Z</time>
      </trkpt>
      <trkpt lat="45.24905" lon="6.07864">
        <ele>2140.6000976562</ele>
        <time>2023-08-11T08:25:29.000Z</time>
      </trkpt>
      <trkpt lat="45.24902" lon="6.07859">
        <ele>2140.8000488281</ele>
        <time>2023-08-11T08:27:44.000Z</time>
      </trkpt>
      <trkpt lat="45.24905" lon="6.07864">
        <ele>2140.3999023438</ele>
        <time>2023-08-11T08:27:52.000Z</time>
      </trkpt>
      <trkpt lat="45.24903" lon="6.07866">
        <ele>2140.3999023438</ele>
        <time>2023-08-11T08:27:58.000Z</time>
      </trkpt>
      <trkpt lat="45.24903" lon="6.07864">
        <ele>2140</ele>
        <time>2023-08-11T08:28:03.000Z</time>
      </trkpt>
      <trkpt lat="45.24899" lon="6.0786">
        <ele>2140.1999511719</ele>
        <time>2023-08-11T08:28:10.000Z</time>
      </trkpt>
      <trkpt lat="45.24898" lon="6.0786">
        <ele>2140.1999511719</ele>
        <time>2023-08-11T08:28:18.000Z</time>
      </trkpt>
      <trkpt lat="45.24897" lon="6.07859">
        <ele>2140.1999511719</ele>
        <time>2023-08-11T08:28:25.000Z</time>
      </trkpt>
      <trkpt lat="45.24899" lon="6.07861">
        <ele>2140.1999511719</ele>
        <time>2023-08-11T08:28:33.000Z</time>
      </trkpt>
      <trkpt lat="45.24899" lon="6.07859">
        <ele>2140.1999511719</ele>
        <time>2023-08-11T08:28:38.000Z</time>
      </trkpt>
      <trkpt lat="45.24898" lon="6.07858">
        <ele>2140</ele>
        <time>2023-08-11T08:28:45.000Z</time>
      </trkpt>
      <trkpt lat="45.249" lon="6.0786">
        <ele>2140</ele>
        <time>2023-08-11T08:28:51.000Z</time>
      </trkpt>
      <trkpt lat="45.24902" lon="6.07857">
        <ele>2139.8000488281</ele>
        <time>2023-08-11T08:29:00.000Z</time>
      </trkpt>
      <trkpt lat="45.24899" lon="6.0786">
        <ele>2139.8000488281</ele>
        <time>2023-08-11T08:29:18.000Z</time>
      </trkpt>
      <trkpt lat="45.24902" lon="6.07868">
        <ele>2139.8000488281</ele>
        <time>2023-08-11T08:29:23.000Z</time>
      </trkpt>
      <trkpt lat="45.24902" lon="6.0787">
        <ele>2139.8000488281</ele>
        <time>2023-08-11T08:29:27.000Z</time>
      </trkpt>
      <trkpt lat="45.24902" lon="6.0787">
        <ele>2139.6000976562</ele>
        <time>2023-08-11T08:29:29.000Z</time>
      </trkpt>
      <trkpt lat="45.24903" lon="6.07867">
        <ele>2139.3999023438</ele>
        <time>2023-08-11T08:29:33.000Z</time>
      </trkpt>
      <trkpt lat="45.24902" lon="6.07864">
        <ele>2139.6000976562</ele>
        <time>2023-08-11T08:29:45.000Z</time>
      </trkpt>
      <trkpt lat="45.24903" lon="6.07861">
        <ele>2139.6000976562</ele>
        <time>2023-08-11T08:29:51.000Z</time>
      </trkpt>
      <trkpt lat="45.24902" lon="6.07859">
        <ele>2139.6000976562</ele>
        <time>2023-08-11T08:30:00.000Z</time>
      </trkpt>
      <trkpt lat="45.24903" lon="6.07858">
        <ele>2139.3999023438</ele>
        <time>2023-08-11T08:30:07.000Z</time>
      </trkpt>
      <trkpt lat="45.24901" lon="6.07862">
        <ele>2139.6000976562</ele>
        <time>2023-08-11T08:30:16.000Z</time>
      </trkpt>
      <trkpt lat="45.249" lon="6.07865">
        <ele>2139.8000488281</ele>
        <time>2023-08-11T08:30:21.000Z</time>
      </trkpt>
      <trkpt lat="45.24899" lon="6.07868">
        <ele>2139.6000976562</ele>
        <time>2023-08-11T08:30:25.000Z</time>
      </trkpt>
      <trkpt lat="45.24902" lon="6.07866">
        <ele>2139.6000976562</ele>
        <time>2023-08-11T08:30:32.000Z</time>
      </trkpt>
      <trkpt lat="45.24901" lon="6.07875">
        <ele>2139.1999511719</ele>
        <time>2023-08-11T08:30:39.000Z</time>
      </trkpt>
      <trkpt lat="45.249" lon="6.07867">
        <ele>2139.1999511719</ele>
        <time>2023-08-11T08:30:46.000Z</time>
      </trkpt>
      <trkpt lat="45.24902" lon="6.07862">
        <ele>2139.3999023438</ele>
        <time>2023-08-11T08:30:57.000Z</time>
      </trkpt>
      <trkpt lat="45.24904" lon="6.07864">
        <ele>2139.3999023438</ele>
        <time>2023-08-11T08:31:04.000Z</time>
      </trkpt>
      <trkpt lat="45.24904" lon="6.07861">
        <ele>2139</ele>
        <time>2023-08-11T08:31:09.000Z</time>
      </trkpt>
      <trkpt lat="45.24905" lon="6.07861">
        <ele>2139.1999511719</ele>
        <time>2023-08-11T08:31:18.000Z</time>
      </trkpt>
      <trkpt lat="45.24903" lon="6.07864">
        <ele>2139</ele>
        <time>2023-08-11T08:31:28.000Z</time>
      </trkpt>
      <trkpt lat="45.24899" lon="6.07866">
        <ele>2139</ele>
        <time>2023-08-11T08:31:36.000Z</time>
      </trkpt>
      <trkpt lat="45.24897" lon="6.07865">
        <ele>2139</ele>
        <time>2023-08-11T08:31:43.000Z</time>
      </trkpt>
      <trkpt lat="45.249" lon="6.07863">
        <ele>2138.8000488281</ele>
        <time>2023-08-11T08:31:52.000Z</time>
      </trkpt>
      <trkpt lat="45.24899" lon="6.07867">
        <ele>2138.8000488281</ele>
        <time>2023-08-11T08:32:01.000Z</time>
      </trkpt>
      <trkpt lat="45.249" lon="6.07863">
        <ele>2138.8000488281</ele>
        <time>2023-08-11T08:32:10.000Z</time>
      </trkpt>
      <trkpt lat="45.24901" lon="6.07861">
        <ele>2138.8000488281</ele>
        <time>2023-08-11T08:32:16.000Z</time>
      </trkpt>
      <trkpt lat="45.24901" lon="6.07857">
        <ele>2138.6000976562</ele>
        <time>2023-08-11T08:32:25.000Z</time>
      </trkpt>
      <trkpt lat="45.24901" lon="6.07858">
        <ele>2138.6000976562</ele>
        <time>2023-08-11T08:32:33.000Z</time>
      </trkpt>
      <trkpt lat="45.249" lon="6.07857">
        <ele>2138.6000976562</ele>
        <time>2023-08-11T08:32:41.000Z</time>
      </trkpt>
      <trkpt lat="45.24899" lon="6.07863">
        <ele>2138.6000976562</ele>
        <time>2023-08-11T08:32:45.000Z</time>
      </trkpt>
      <trkpt lat="45.24899" lon="6.07863">
        <ele>2138.6000976562</ele>
        <time>2023-08-11T08:32:49.000Z</time>
      </trkpt>
      <trkpt lat="45.24902" lon="6.07859">
        <ele>2138.6000976562</ele>
        <time>2023-08-11T08:32:58.000Z</time>
      </trkpt>
      <trkpt lat="45.24902" lon="6.07856">
        <ele>2138.6000976562</ele>
        <time>2023-08-11T08:33:06.000Z</time>
      </trkpt>
      <trkpt lat="45.24902" lon="6.07857">
        <ele>2138.6000976562</ele>
        <time>2023-08-11T08:33:07.000Z</time>
      </trkpt>
      <trkpt lat="45.24901" lon="6.07858">
        <ele>2138.6000976562</ele>
        <time>2023-08-11T08:33:15.000Z</time>
      </trkpt>
      <trkpt lat="45.24901" lon="6.07858">
        <ele>2138.3999023438</ele>
        <time>2023-08-11T08:33:23.000Z</time>
      </trkpt>
      <trkpt lat="45.249" lon="6.07863">
        <ele>2138.3999023438</ele>
        <time>2023-08-11T08:33:32.000Z</time>
      </trkpt>
      <trkpt lat="45.249" lon="6.07864">
        <ele>2138.1999511719</ele>
        <time>2023-08-11T08:33:40.000Z</time>
      </trkpt>
      <trkpt lat="45.24902" lon="6.07861">
        <ele>2138.1999511719</ele>
        <time>2023-08-11T08:33:47.000Z</time>
      </trkpt>
      <trkpt lat="45.24903" lon="6.07863">
        <ele>2138</ele>
        <time>2023-08-11T08:33:58.000Z</time>
      </trkpt>
      <trkpt lat="45.24902" lon="6.07861">
        <ele>2138.1999511719</ele>
        <time>2023-08-11T08:34:04.000Z</time>
      </trkpt>
      <trkpt lat="45.24903" lon="6.07862">
        <ele>2138</ele>
        <time>2023-08-11T08:34:14.000Z</time>
      </trkpt>
      <trkpt lat="45.24902" lon="6.0786">
        <ele>2138.1999511719</ele>
        <time>2023-08-11T08:34:23.000Z</time>
      </trkpt>
      <trkpt lat="45.24903" lon="6.07857">
        <ele>2138</ele>
        <time>2023-08-11T08:34:34.000Z</time>
      </trkpt>
      <trkpt lat="45.24904" lon="6.0786">
        <ele>2138</ele>
        <time>2023-08-11T08:34:44.000Z</time>
      </trkpt>
      <trkpt lat="45.24903" lon="6.07861">
        <ele>2137.8000488281</ele>
        <time>2023-08-11T08:34:54.000Z</time>
      </trkpt>
      <trkpt lat="45.24902" lon="6.07862">
        <ele>2138</ele>
        <time>2023-08-11T08:35:04.000Z</time>
      </trkpt>
      <trkpt lat="45.24901" lon="6.07859">
        <ele>2137.8000488281</ele>
        <time>2023-08-11T08:35:16.000Z</time>
      </trkpt>
      <trkpt lat="45.24901" lon="6.07866">
        <ele>2137.6000976562</ele>
        <time>2023-08-11T08:35:26.000Z</time>
      </trkpt>
      <trkpt lat="45.24899" lon="6.07867">
        <ele>2137.6000976562</ele>
        <time>2023-08-11T08:35:34.000Z</time>
      </trkpt>
      <trkpt lat="45.24899" lon="6.07859">
        <ele>2137.6000976562</ele>
        <time>2023-08-11T08:35:42.000Z</time>
      </trkpt>
      <trkpt lat="45.24899" lon="6.07857">
        <ele>2137.3999023438</ele>
        <time>2023-08-11T08:35:46.000Z</time>
      </trkpt>
      <trkpt lat="45.24899" lon="6.07858">
        <ele>2137.3999023438</ele>
        <time>2023-08-11T08:35:51.000Z</time>
      </trkpt>
      <trkpt lat="45.24901" lon="6.07857">
        <ele>2137.3999023438</ele>
        <time>2023-08-11T08:35:59.000Z</time>
      </trkpt>
      <trkpt lat="45.249" lon="6.07855">
        <ele>2137.3999023438</ele>
        <time>2023-08-11T08:36:09.000Z</time>
      </trkpt>
      <trkpt lat="45.24899" lon="6.07859">
        <ele>2137.6000976562</ele>
        <time>2023-08-11T08:36:18.000Z</time>
      </trkpt>
      <trkpt lat="45.24901" lon="6.07862">
        <ele>2137.3999023438</ele>
        <time>2023-08-11T08:36:28.000Z</time>
      </trkpt>
      <trkpt lat="45.24899" lon="6.07868">
        <ele>2137.1999511719</ele>
        <time>2023-08-11T08:36:35.000Z</time>
      </trkpt>
      <trkpt lat="45.24902" lon="6.07866">
        <ele>2137.1999511719</ele>
        <time>2023-08-11T08:36:45.000Z</time>
      </trkpt>
      <trkpt lat="45.249" lon="6.07863">
        <ele>2137</ele>
        <time>2023-08-11T08:36:53.000Z</time>
      </trkpt>
      <trkpt lat="45.24901" lon="6.07864">
        <ele>2137.1999511719</ele>
        <time>2023-08-11T08:37:04.000Z</time>
      </trkpt>
      <trkpt lat="45.24899" lon="6.07862">
        <ele>2137.1999511719</ele>
        <time>2023-08-11T08:37:11.000Z</time>
      </trkpt>
      <trkpt lat="45.24901" lon="6.07868">
        <ele>2137.1999511719</ele>
        <time>2023-08-11T08:37:19.000Z</time>
      </trkpt>
      <trkpt lat="45.249" lon="6.07862">
        <ele>2137.3999023438</ele>
        <time>2023-08-11T08:37:27.000Z</time>
      </trkpt>
      <trkpt lat="45.24899" lon="6.07857">
        <ele>2137.3999023438</ele>
        <time>2023-08-11T08:37:36.000Z</time>
      </trkpt>
      <trkpt lat="45.24899" lon="6.07859">
        <ele>2137.6000976562</ele>
        <time>2023-08-11T08:37:45.000Z</time>
      </trkpt>
      <trkpt lat="45.24904" lon="6.07863">
        <ele>2137.6000976562</ele>
        <time>2023-08-11T08:37:51.000Z</time>
      </trkpt>
      <trkpt lat="45.24898" lon="6.07876">
        <ele>2137.6000976562</ele>
        <time>2023-08-11T08:38:01.000Z</time>
      </trkpt>
      <trkpt lat="45.24897" lon="6.07878">
        <ele>2137.6000976562</ele>
        <time>2023-08-11T08:38:08.000Z</time>
      </trkpt>
      <trkpt lat="45.24899" lon="6.07873">
        <ele>2137.6000976562</ele>
        <time>2023-08-11T08:38:14.000Z</time>
      </trkpt>
      <trkpt lat="45.249" lon="6.07869">
        <ele>2137.3999023438</ele>
        <time>2023-08-11T08:38:20.000Z</time>
      </trkpt>
      <trkpt lat="45.24901" lon="6.07865">
        <ele>2137.3999023438</ele>
        <time>2023-08-11T08:38:28.000Z</time>
      </trkpt>
      <trkpt lat="45.24901" lon="6.07861">
        <ele>2137.3999023438</ele>
        <time>2023-08-11T08:38:35.000Z</time>
      </trkpt>
      <trkpt lat="45.24901" lon="6.07863">
        <ele>2137.6000976562</ele>
        <time>2023-08-11T08:38:42.000Z</time>
      </trkpt>
      <trkpt lat="45.24901" lon="6.07861">
        <ele>2137.6000976562</ele>
        <time>2023-08-11T08:38:48.000Z</time>
      </trkpt>
      <trkpt lat="45.24904" lon="6.07862">
        <ele>2137.6000976562</ele>
        <time>2023-08-11T08:38:57.000Z</time>
      </trkpt>
      <trkpt lat="45.24905" lon="6.07861">
        <ele>2137.6000976562</ele>
        <time>2023-08-11T08:39:03.000Z</time>
      </trkpt>
      <trkpt lat="45.24906" lon="6.07865">
        <ele>2137.3999023438</ele>
        <time>2023-08-11T08:39:10.000Z</time>
      </trkpt>
      <trkpt lat="45.24907" lon="6.07868">
        <ele>2137.1999511719</ele>
        <time>2023-08-11T08:39:18.000Z</time>
      </trkpt>
      <trkpt lat="45.24907" lon="6.07868">
        <ele>2137.3999023438</ele>
        <time>2023-08-11T08:39:24.000Z</time>
      </trkpt>
      <trkpt lat="45.24908" lon="6.07866">
        <ele>2137.6000976562</ele>
        <time>2023-08-11T08:39:33.000Z</time>
      </trkpt>
      <trkpt lat="45.24909" lon="6.07864">
        <ele>2137.8000488281</ele>
        <time>2023-08-11T08:39:39.000Z</time>
      </trkpt>
      <trkpt lat="45.24909" lon="6.07868">
        <ele>2137.6000976562</ele>
        <time>2023-08-11T08:39:46.000Z</time>
      </trkpt>
      <trkpt lat="45.24907" lon="6.07873">
        <ele>2137.6000976562</ele>
        <time>2023-08-11T08:39:55.000Z</time>
      </trkpt>
      <trkpt lat="45.24903" lon="6.07869">
        <ele>2137.8000488281</ele>
        <time>2023-08-11T08:40:02.000Z</time>
      </trkpt>
      <trkpt lat="45.24906" lon="6.07875">
        <ele>2138</ele>
        <time>2023-08-11T08:40:11.000Z</time>
      </trkpt>
      <trkpt lat="45.24907" lon="6.07873">
        <ele>2138.1999511719</ele>
        <time>2023-08-11T08:40:18.000Z</time>
      </trkpt>
      <trkpt lat="45.24907" lon="6.0787">
        <ele>2138</ele>
        <time>2023-08-11T08:40:29.000Z</time>
      </trkpt>
      <trkpt lat="45.24907" lon="6.07866">
        <ele>2137.6000976562</ele>
        <time>2023-08-11T08:40:37.000Z</time>
      </trkpt>
      <trkpt lat="45.24908" lon="6.07865">
        <ele>2137.8000488281</ele>
        <time>2023-08-11T08:40:44.000Z</time>
      </trkpt>
      <trkpt lat="45.24909" lon="6.07864">
        <ele>2138.3999023438</ele>
        <time>2023-08-11T08:40:50.000Z</time>
      </trkpt>
      <trkpt lat="45.24927" lon="6.07869">
        <ele>2137.6000976562</ele>
        <time>2023-08-11T08:41:40.000Z</time>
      </trkpt>
      <trkpt lat="45.24901" lon="6.07863">
        <ele>2137</ele>
        <time>2023-08-11T08:49:13.000Z</time>
      </trkpt>
      <trkpt lat="45.24907" lon="6.07868">
        <ele>2137.1999511719</ele>
        <time>2023-08-11T08:49:22.000Z</time>
      </trkpt>
      <trkpt lat="45.2491" lon="6.0788">
        <ele>2137.3999023438</ele>
        <time>2023-08-11T08:49:27.000Z</time>
      </trkpt>
      <trkpt lat="45.2491" lon="6.07879">
        <ele>2137.1999511719</ele>
        <time>2023-08-11T08:49:32.000Z</time>
      </trkpt>
      <trkpt lat="45.2491" lon="6.07875">
        <ele>2136.3999023438</ele>
        <time>2023-08-11T08:49:38.000Z</time>
      </trkpt>
      <trkpt lat="45.24913" lon="6.0788">
        <ele>2135.6000976562</ele>
        <time>2023-08-11T08:49:44.000Z</time>
      </trkpt>
      <trkpt lat="45.24913" lon="6.07881">
        <ele>2135.3999023438</ele>
        <time>2023-08-11T08:49:45.000Z</time>
      </trkpt>
      <trkpt lat="45.24917" lon="6.07878">
        <ele>2134.8000488281</ele>
        <time>2023-08-11T08:49:52.000Z</time>
      </trkpt>
      <trkpt lat="45.24919" lon="6.07878">
        <ele>2134.6000976562</ele>
        <time>2023-08-11T08:49:58.000Z</time>
      </trkpt>
      <trkpt lat="45.24922" lon="6.07878">
        <ele>2134.1999511719</ele>
        <time>2023-08-11T08:50:02.000Z</time>
      </trkpt>
      <trkpt lat="45.24923" lon="6.07878">
        <ele>2134.3999023438</ele>
        <time>2023-08-11T08:50:06.000Z</time>
      </trkpt>
      <trkpt lat="45.2492" lon="6.0788">
        <ele>2134.3999023438</ele>
        <time>2023-08-11T08:50:11.000Z</time>
      </trkpt>
      <trkpt lat="45.24916" lon="6.07875">
        <ele>2134.8000488281</ele>
        <time>2023-08-11T08:50:17.000Z</time>
      </trkpt>
      <trkpt lat="45.24913" lon="6.07875">
        <ele>2135.3999023438</ele>
        <time>2023-08-11T08:50:21.000Z</time>
      </trkpt>
      <trkpt lat="45.24908" lon="6.07874">
        <ele>2136</ele>
        <time>2023-08-11T08:50:25.000Z</time>
      </trkpt>
      <trkpt lat="45.24906" lon="6.07872">
        <ele>2136.6000976562</ele>
        <time>2023-08-11T08:50:28.000Z</time>
      </trkpt>
      <trkpt lat="45.24906" lon="6.07868">
        <ele>2137</ele>
        <time>2023-08-11T08:50:30.000Z</time>
      </trkpt>
      <trkpt lat="45.24908" lon="6.07865">
        <ele>2137.6000976562</ele>
        <time>2023-08-11T08:50:33.000Z</time>
      </trkpt>
      <trkpt lat="45.24909" lon="6.07861">
        <ele>2137.8000488281</ele>
        <time>2023-08-11T08:50:37.000Z</time>
      </trkpt>
      <trkpt lat="45.24907" lon="6.07875">
        <ele>2138.1999511719</ele>
        <time>2023-08-11T08:51:23.000Z</time>
      </trkpt>
      <trkpt lat="45.2491" lon="6.07881">
        <ele>2137.3999023438</ele>
        <time>2023-08-11T08:51:28.000Z</time>
      </trkpt>
      <trkpt lat="45.24911" lon="6.07884">
        <ele>2137.1999511719</ele>
        <time>2023-08-11T08:51:35.000Z</time>
      </trkpt>
      <trkpt lat="45.24909" lon="6.07888">
        <ele>2137</ele>
        <time>2023-08-11T08:51:41.000Z</time>
      </trkpt>
      <trkpt lat="45.24904" lon="6.07887">
        <ele>2137</ele>
        <time>2023-08-11T08:51:47.000Z</time>
      </trkpt>
      <trkpt lat="45.24906" lon="6.07881">
        <ele>2137.1999511719</ele>
        <time>2023-08-11T08:51:54.000Z</time>
      </trkpt>
      <trkpt lat="45.24911" lon="6.07875">
        <ele>2136.8000488281</ele>
        <time>2023-08-11T08:51:59.000Z</time>
      </trkpt>
      <trkpt lat="45.24912" lon="6.07875">
        <ele>2136.6000976562</ele>
        <time>2023-08-11T08:52:00.000Z</time>
      </trkpt>
      <trkpt lat="45.24915" lon="6.0788">
        <ele>2135.6000976562</ele>
        <time>2023-08-11T08:52:05.000Z</time>
      </trkpt>
      <trkpt lat="45.24916" lon="6.07881">
        <ele>2135.6000976562</ele>
        <time>2023-08-11T08:52:06.000Z</time>
      </trkpt>
      <trkpt lat="45.24919" lon="6.07881">
        <ele>2135</ele>
        <time>2023-08-11T08:52:11.000Z</time>
      </trkpt>
      <trkpt lat="45.24926" lon="6.07882">
        <ele>2134.6000976562</ele>
        <time>2023-08-11T08:52:16.000Z</time>
      </trkpt>
      <trkpt lat="45.24929" lon="6.07885">
        <ele>2134.3999023438</ele>
        <time>2023-08-11T08:52:20.000Z</time>
      </trkpt>
      <trkpt lat="45.2493" lon="6.07887">
        <ele>2134.3999023438</ele>
        <time>2023-08-11T08:52:23.000Z</time>
      </trkpt>
      <trkpt lat="45.24937" lon="6.07894">
        <ele>2134</ele>
        <time>2023-08-11T08:52:30.000Z</time>
      </trkpt>
      <trkpt lat="45.24943" lon="6.07898">
        <ele>2134.3999023438</ele>
        <time>2023-08-11T08:52:35.000Z</time>
      </trkpt>
      <trkpt lat="45.24949" lon="6.07901">
        <ele>2135.3999023438</ele>
        <time>2023-08-11T08:52:43.000Z</time>
      </trkpt>
      <trkpt lat="45.24951" lon="6.07901">
        <ele>2135.6000976562</ele>
        <time>2023-08-11T08:52:44.000Z</time>
      </trkpt>
      <trkpt lat="45.24953" lon="6.079">
        <ele>2136.1999511719</ele>
        <time>2023-08-11T08:52:48.000Z</time>
      </trkpt>
      <trkpt lat="45.24953" lon="6.07899">
        <ele>2136.1999511719</ele>
        <time>2023-08-11T08:52:52.000Z</time>
      </trkpt>
      <trkpt lat="45.24954" lon="6.07899">
        <ele>2136.1999511719</ele>
        <time>2023-08-11T08:52:55.000Z</time>
      </trkpt>
      <trkpt lat="45.24953" lon="6.079">
        <ele>2135.1999511719</ele>
        <time>2023-08-11T08:53:02.000Z</time>
      </trkpt>
      <trkpt lat="45.24954" lon="6.07902">
        <ele>2134.8000488281</ele>
        <time>2023-08-11T08:53:11.000Z</time>
      </trkpt>
      <trkpt lat="45.24956" lon="6.079">
        <ele>2134.8000488281</ele>
        <time>2023-08-11T08:53:19.000Z</time>
      </trkpt>
      <trkpt lat="45.24956" lon="6.079">
        <ele>2135</ele>
        <time>2023-08-11T08:53:26.000Z</time>
      </trkpt>
      <trkpt lat="45.24957" lon="6.07903">
        <ele>2135.1999511719</ele>
        <time>2023-08-11T08:53:34.000Z</time>
      </trkpt>
      <trkpt lat="45.24955" lon="6.07899">
        <ele>2135.1999511719</ele>
        <time>2023-08-11T08:53:41.000Z</time>
      </trkpt>
      <trkpt lat="45.24956" lon="6.07899">
        <ele>2135.3999023438</ele>
        <time>2023-08-11T08:53:48.000Z</time>
      </trkpt>
      <trkpt lat="45.24955" lon="6.07902">
        <ele>2135.1999511719</ele>
        <time>2023-08-11T08:53:54.000Z</time>
      </trkpt>
      <trkpt lat="45.24957" lon="6.07906">
        <ele>2135</ele>
        <time>2023-08-11T08:53:59.000Z</time>
      </trkpt>
      <trkpt lat="45.24959" lon="6.07909">
        <ele>2134.3999023438</ele>
        <time>2023-08-11T08:54:03.000Z</time>
      </trkpt>
      <trkpt lat="45.2496" lon="6.07912">
        <ele>2133.3999023438</ele>
        <time>2023-08-11T08:54:06.000Z</time>
      </trkpt>
      <trkpt lat="45.24961" lon="6.07914">
        <ele>2133</ele>
        <time>2023-08-11T08:54:07.000Z</time>
      </trkpt>
      <trkpt lat="45.24966" lon="6.07924">
        <ele>2133</ele>
        <time>2023-08-11T08:54:14.000Z</time>
      </trkpt>
      <trkpt lat="45.24969" lon="6.07931">
        <ele>2133</ele>
        <time>2023-08-11T08:54:22.000Z</time>
      </trkpt>
      <trkpt lat="45.24976" lon="6.07943">
        <ele>2133</ele>
        <time>2023-08-11T08:54:31.000Z</time>
      </trkpt>
      <trkpt lat="45.24982" lon="6.07956">
        <ele>2133</ele>
        <time>2023-08-11T08:54:39.000Z</time>
      </trkpt>
      <trkpt lat="45.24985" lon="6.07966">
        <ele>2133</ele>
        <time>2023-08-11T08:54:47.000Z</time>
      </trkpt>
      <trkpt lat="45.24984" lon="6.07973">
        <ele>2133.6000976562</ele>
        <time>2023-08-11T08:54:53.000Z</time>
      </trkpt>
      <trkpt lat="45.24984" lon="6.07982">
        <ele>2134.3999023438</ele>
        <time>2023-08-11T08:54:59.000Z</time>
      </trkpt>
      <trkpt lat="45.24984" lon="6.07984">
        <ele>2134.3999023438</ele>
        <time>2023-08-11T08:55:00.000Z</time>
      </trkpt>
      <trkpt lat="45.24986" lon="6.07991">
        <ele>2134.8000488281</ele>
        <time>2023-08-11T08:55:05.000Z</time>
      </trkpt>
      <trkpt lat="45.24987" lon="6.07993">
        <ele>2135.3999023438</ele>
        <time>2023-08-11T08:55:08.000Z</time>
      </trkpt>
      <trkpt lat="45.24989" lon="6.07998">
        <ele>2135.6000976562</ele>
        <time>2023-08-11T08:55:11.000Z</time>
      </trkpt>
      <trkpt lat="45.24989" lon="6.08006">
        <ele>2135.3999023438</ele>
        <time>2023-08-11T08:55:17.000Z</time>
      </trkpt>
      <trkpt lat="45.2499" lon="6.08012">
        <ele>2134.6000976562</ele>
        <time>2023-08-11T08:55:24.000Z</time>
      </trkpt>
      <trkpt lat="45.24992" lon="6.0801">
        <ele>2134.1999511719</ele>
        <time>2023-08-11T08:55:26.000Z</time>
      </trkpt>
      <trkpt lat="45.24996" lon="6.08012">
        <ele>2133.8000488281</ele>
        <time>2023-08-11T08:55:29.000Z</time>
      </trkpt>
      <trkpt lat="45.24999" lon="6.08016">
        <ele>2133.1999511719</ele>
        <time>2023-08-11T08:55:32.000Z</time>
      </trkpt>
      <trkpt lat="45.25001" lon="6.08019">
        <ele>2133</ele>
        <time>2023-08-11T08:55:35.000Z</time>
      </trkpt>
      <trkpt lat="45.25006" lon="6.08031">
        <ele>2132.8000488281</ele>
        <time>2023-08-11T08:55:42.000Z</time>
      </trkpt>
      <trkpt lat="45.25012" lon="6.08044">
        <ele>2133</ele>
        <time>2023-08-11T08:55:51.000Z</time>
      </trkpt>
      <trkpt lat="45.25018" lon="6.08057">
        <ele>2133</ele>
        <time>2023-08-11T08:55:59.000Z</time>
      </trkpt>
      <trkpt lat="45.25019" lon="6.08062">
        <ele>2133</ele>
        <time>2023-08-11T08:56:06.000Z</time>
      </trkpt>
      <trkpt lat="45.2502" lon="6.08061">
        <ele>2133</ele>
        <time>2023-08-11T08:56:17.000Z</time>
      </trkpt>
      <trkpt lat="45.25026" lon="6.08063">
        <ele>2133</ele>
        <time>2023-08-11T08:56:24.000Z</time>
      </trkpt>
      <trkpt lat="45.25035" lon="6.08063">
        <ele>2133.1999511719</ele>
        <time>2023-08-11T08:56:30.000Z</time>
      </trkpt>
      <trkpt lat="45.25042" lon="6.08063">
        <ele>2133.8000488281</ele>
        <time>2023-08-11T08:56:38.000Z</time>
      </trkpt>
      <trkpt lat="45.25048" lon="6.08067">
        <ele>2133.3999023438</ele>
        <time>2023-08-11T08:56:47.000Z</time>
      </trkpt>
      <trkpt lat="45.25048" lon="6.08067">
        <ele>2133.3999023438</ele>
        <time>2023-08-11T08:56:56.000Z</time>
      </trkpt>
      <trkpt lat="45.25053" lon="6.08071">
        <ele>2133.1999511719</ele>
        <time>2023-08-11T08:57:03.000Z</time>
      </trkpt>
      <trkpt lat="45.25053" lon="6.08076">
        <ele>2133</ele>
        <time>2023-08-11T08:57:10.000Z</time>
      </trkpt>
      <trkpt lat="45.25051" lon="6.08076">
        <ele>2133</ele>
        <time>2023-08-11T08:57:20.000Z</time>
      </trkpt>
      <trkpt lat="45.25052" lon="6.08077">
        <ele>2133</ele>
        <time>2023-08-11T08:57:30.000Z</time>
      </trkpt>
      <trkpt lat="45.25052" lon="6.08085">
        <ele>2133.6000976562</ele>
        <time>2023-08-11T08:57:38.000Z</time>
      </trkpt>
      <trkpt lat="45.2505" lon="6.0809">
        <ele>2134.3999023438</ele>
        <time>2023-08-11T08:57:44.000Z</time>
      </trkpt>
      <trkpt lat="45.2505" lon="6.08091">
        <ele>2134.3999023438</ele>
        <time>2023-08-11T08:57:45.000Z</time>
      </trkpt>
      <trkpt lat="45.25048" lon="6.08095">
        <ele>2135.3999023438</ele>
        <time>2023-08-11T08:57:51.000Z</time>
      </trkpt>
      <trkpt lat="45.25047" lon="6.08096">
        <ele>2135.6000976562</ele>
        <time>2023-08-11T08:57:53.000Z</time>
      </trkpt>
      <trkpt lat="45.25045" lon="6.08099">
        <ele>2136.6000976562</ele>
        <time>2023-08-11T08:57:57.000Z</time>
      </trkpt>
      <trkpt lat="45.25043" lon="6.081">
        <ele>2137.1999511719</ele>
        <time>2023-08-11T08:58:01.000Z</time>
      </trkpt>
      <trkpt lat="45.2504" lon="6.08103">
        <ele>2137.6000976562</ele>
        <time>2023-08-11T08:58:04.000Z</time>
      </trkpt>
      <trkpt lat="45.25036" lon="6.08106">
        <ele>2138.3999023438</ele>
        <time>2023-08-11T08:58:09.000Z</time>
      </trkpt>
      <trkpt lat="45.25034" lon="6.08113">
        <ele>2138.3999023438</ele>
        <time>2023-08-11T08:58:16.000Z</time>
      </trkpt>
      <trkpt lat="45.25032" lon="6.08117">
        <ele>2138.1999511719</ele>
        <time>2023-08-11T08:58:22.000Z</time>
      </trkpt>
      <trkpt lat="45.2503" lon="6.08121">
        <ele>2137.6000976562</ele>
        <time>2023-08-11T08:58:29.000Z</time>
      </trkpt>
      <trkpt lat="45.25028" lon="6.08126">
        <ele>2137.3999023438</ele>
        <time>2023-08-11T08:58:37.000Z</time>
      </trkpt>
      <trkpt lat="45.25029" lon="6.08128">
        <ele>2137.1999511719</ele>
        <time>2023-08-11T08:58:44.000Z</time>
      </trkpt>
      <trkpt lat="45.25029" lon="6.08133">
        <ele>2137.1999511719</ele>
        <time>2023-08-11T08:58:50.000Z</time>
      </trkpt>
      <trkpt lat="45.25028" lon="6.08141">
        <ele>2137.1999511719</ele>
        <time>2023-08-11T08:58:57.000Z</time>
      </trkpt>
      <trkpt lat="45.25029" lon="6.08145">
        <ele>2136.6000976562</ele>
        <time>2023-08-11T08:59:02.000Z</time>
      </trkpt>
      <trkpt lat="45.25029" lon="6.08146">
        <ele>2136.3999023438</ele>
        <time>2023-08-11T08:59:03.000Z</time>
      </trkpt>
      <trkpt lat="45.25028" lon="6.0815">
        <ele>2136.1999511719</ele>
        <time>2023-08-11T08:59:10.000Z</time>
      </trkpt>
      <trkpt lat="45.25029" lon="6.08159">
        <ele>2135.8000488281</ele>
        <time>2023-08-11T08:59:17.000Z</time>
      </trkpt>
      <trkpt lat="45.25027" lon="6.08165">
        <ele>2135.3999023438</ele>
        <time>2023-08-11T08:59:24.000Z</time>
      </trkpt>
      <trkpt lat="45.25026" lon="6.08166">
        <ele>2135.1999511719</ele>
        <time>2023-08-11T08:59:25.000Z</time>
      </trkpt>
      <trkpt lat="45.25024" lon="6.08172">
        <ele>2134.6000976562</ele>
        <time>2023-08-11T08:59:32.000Z</time>
      </trkpt>
      <trkpt lat="45.25022" lon="6.08178">
        <ele>2134.8000488281</ele>
        <time>2023-08-11T08:59:38.000Z</time>
      </trkpt>
      <trkpt lat="45.25019" lon="6.08186">
        <ele>2135</ele>
        <time>2023-08-11T08:59:44.000Z</time>
      </trkpt>
      <trkpt lat="45.25018" lon="6.08191">
        <ele>2134.6000976562</ele>
        <time>2023-08-11T08:59:50.000Z</time>
      </trkpt>
      <trkpt lat="45.25016" lon="6.08203">
        <ele>2135.3999023438</ele>
        <time>2023-08-11T08:59:59.000Z</time>
      </trkpt>
      <trkpt lat="45.25011" lon="6.08214">
        <ele>2134.8000488281</ele>
        <time>2023-08-11T09:00:08.000Z</time>
      </trkpt>
      <trkpt lat="45.25002" lon="6.08217">
        <ele>2134.8000488281</ele>
        <time>2023-08-11T09:00:16.000Z</time>
      </trkpt>
      <trkpt lat="45.24997" lon="6.08219">
        <ele>2134.8000488281</ele>
        <time>2023-08-11T09:00:19.000Z</time>
      </trkpt>
      <trkpt lat="45.24997" lon="6.08218">
        <ele>2135</ele>
        <time>2023-08-11T09:00:22.000Z</time>
      </trkpt>
      <trkpt lat="45.25001" lon="6.08212">
        <ele>2134.8000488281</ele>
        <time>2023-08-11T09:00:30.000Z</time>
      </trkpt>
      <trkpt lat="45.25003" lon="6.08212">
        <ele>2134.8000488281</ele>
        <time>2023-08-11T09:00:37.000Z</time>
      </trkpt>
      <trkpt lat="45.25001" lon="6.08216">
        <ele>2134.8000488281</ele>
        <time>2023-08-11T09:00:46.000Z</time>
      </trkpt>
      <trkpt lat="45.24994" lon="6.08215">
        <ele>2134.6000976562</ele>
        <time>2023-08-11T09:00:54.000Z</time>
      </trkpt>
      <trkpt lat="45.24989" lon="6.08218">
        <ele>2134.8000488281</ele>
        <time>2023-08-11T09:00:59.000Z</time>
      </trkpt>
      <trkpt lat="45.24984" lon="6.08217">
        <ele>2134.8000488281</ele>
        <time>2023-08-11T09:01:05.000Z</time>
      </trkpt>
      <trkpt lat="45.24977" lon="6.08216">
        <ele>2135</ele>
        <time>2023-08-11T09:01:11.000Z</time>
      </trkpt>
      <trkpt lat="45.24974" lon="6.08218">
        <ele>2135</ele>
        <time>2023-08-11T09:01:17.000Z</time>
      </trkpt>
      <trkpt lat="45.24974" lon="6.08218">
        <ele>2134.8000488281</ele>
        <time>2023-08-11T09:01:24.000Z</time>
      </trkpt>
      <trkpt lat="45.24972" lon="6.08217">
        <ele>2134.6000976562</ele>
        <time>2023-08-11T09:01:33.000Z</time>
      </trkpt>
      <trkpt lat="45.24968" lon="6.0821">
        <ele>2134.3999023438</ele>
        <time>2023-08-11T09:01:39.000Z</time>
      </trkpt>
      <trkpt lat="45.24965" lon="6.08206">
        <ele>2134.3999023438</ele>
        <time>2023-08-11T09:01:42.000Z</time>
      </trkpt>
      <trkpt lat="45.24962" lon="6.08202">
        <ele>2134.3999023438</ele>
        <time>2023-08-11T09:01:44.000Z</time>
      </trkpt>
      <trkpt lat="45.24958" lon="6.08194">
        <ele>2134.3999023438</ele>
        <time>2023-08-11T09:01:51.000Z</time>
      </trkpt>
      <trkpt lat="45.24956" lon="6.08196">
        <ele>2134.3999023438</ele>
        <time>2023-08-11T09:01:54.000Z</time>
      </trkpt>
      <trkpt lat="45.24953" lon="6.08197">
        <ele>2134.3999023438</ele>
        <time>2023-08-11T09:01:56.000Z</time>
      </trkpt>
      <trkpt lat="45.24945" lon="6.082">
        <ele>2134.3999023438</ele>
        <time>2023-08-11T09:02:05.000Z</time>
      </trkpt>
      <trkpt lat="45.24939" lon="6.08201">
        <ele>2134.3999023438</ele>
        <time>2023-08-11T09:02:11.000Z</time>
      </trkpt>
      <trkpt lat="45.24938" lon="6.08202">
        <ele>2134.3999023438</ele>
        <time>2023-08-11T09:02:19.000Z</time>
      </trkpt>
      <trkpt lat="45.24939" lon="6.08202">
        <ele>2134.1999511719</ele>
        <time>2023-08-11T09:02:21.000Z</time>
      </trkpt>
      <trkpt lat="45.24937" lon="6.08208">
        <ele>2134.1999511719</ele>
        <time>2023-08-11T09:02:27.000Z</time>
      </trkpt>
      <trkpt lat="45.24936" lon="6.08219">
        <ele>2134.1999511719</ele>
        <time>2023-08-11T09:02:34.000Z</time>
      </trkpt>
      <trkpt lat="45.24933" lon="6.08228">
        <ele>2135</ele>
        <time>2023-08-11T09:02:41.000Z</time>
      </trkpt>
      <trkpt lat="45.2493" lon="6.0823">
        <ele>2135.1999511719</ele>
        <time>2023-08-11T09:02:45.000Z</time>
      </trkpt>
      <trkpt lat="45.24929" lon="6.08231">
        <ele>2135.1999511719</ele>
        <time>2023-08-11T09:02:46.000Z</time>
      </trkpt>
      <trkpt lat="45.24925" lon="6.08232">
        <ele>2135.3999023438</ele>
        <time>2023-08-11T09:02:52.000Z</time>
      </trkpt>
      <trkpt lat="45.24921" lon="6.0823">
        <ele>2135.3999023438</ele>
        <time>2023-08-11T09:02:59.000Z</time>
      </trkpt>
      <trkpt lat="45.2492" lon="6.0823">
        <ele>2135.6000976562</ele>
        <time>2023-08-11T09:03:00.000Z</time>
      </trkpt>
      <trkpt lat="45.24912" lon="6.08228">
        <ele>2136</ele>
        <time>2023-08-11T09:03:08.000Z</time>
      </trkpt>
      <trkpt lat="45.24904" lon="6.08221">
        <ele>2136.1999511719</ele>
        <time>2023-08-11T09:03:17.000Z</time>
      </trkpt>
      <trkpt lat="45.24899" lon="6.08216">
        <ele>2136</ele>
        <time>2023-08-11T09:03:24.000Z</time>
      </trkpt>
      <trkpt lat="45.24894" lon="6.08206">
        <ele>2136</ele>
        <time>2023-08-11T09:03:33.000Z</time>
      </trkpt>
      <trkpt lat="45.2489" lon="6.08204">
        <ele>2135.8000488281</ele>
        <time>2023-08-11T09:03:39.000Z</time>
      </trkpt>
      <trkpt lat="45.24888" lon="6.08203">
        <ele>2135.1999511719</ele>
        <time>2023-08-11T09:03:45.000Z</time>
      </trkpt>
      <trkpt lat="45.24886" lon="6.08203">
        <ele>2134.6000976562</ele>
        <time>2023-08-11T09:03:54.000Z</time>
      </trkpt>
      <trkpt lat="45.24888" lon="6.08205">
        <ele>2134.3999023438</ele>
        <time>2023-08-11T09:04:03.000Z</time>
      </trkpt>
      <trkpt lat="45.24887" lon="6.08204">
        <ele>2134.6000976562</ele>
        <time>2023-08-11T09:04:11.000Z</time>
      </trkpt>
      <trkpt lat="45.24886" lon="6.08207">
        <ele>2134.6000976562</ele>
        <time>2023-08-11T09:04:17.000Z</time>
      </trkpt>
      <trkpt lat="45.24885" lon="6.08208">
        <ele>2134.3999023438</ele>
        <time>2023-08-11T09:04:18.000Z</time>
      </trkpt>
      <trkpt lat="45.24883" lon="6.08213">
        <ele>2134.1999511719</ele>
        <time>2023-08-11T09:04:25.000Z</time>
      </trkpt>
      <trkpt lat="45.24877" lon="6.08219">
        <ele>2134.6000976562</ele>
        <time>2023-08-11T09:04:32.000Z</time>
      </trkpt>
      <trkpt lat="45.24875" lon="6.08218">
        <ele>2135.3999023438</ele>
        <time>2023-08-11T09:04:40.000Z</time>
      </trkpt>
      <trkpt lat="45.24876" lon="6.08218">
        <ele>2135.6000976562</ele>
        <time>2023-08-11T09:04:41.000Z</time>
      </trkpt>
      <trkpt lat="45.24878" lon="6.0822">
        <ele>2135.6000976562</ele>
        <time>2023-08-11T09:04:51.000Z</time>
      </trkpt>
      <trkpt lat="45.24877" lon="6.0822">
        <ele>2135.6000976562</ele>
        <time>2023-08-11T09:05:00.000Z</time>
      </trkpt>
      <trkpt lat="45.24867" lon="6.08215">
        <ele>2136.3999023438</ele>
        <time>2023-08-11T09:05:09.000Z</time>
      </trkpt>
      <trkpt lat="45.24865" lon="6.08216">
        <ele>2136.8000488281</ele>
        <time>2023-08-11T09:05:13.000Z</time>
      </trkpt>
      <trkpt lat="45.24863" lon="6.08216">
        <ele>2137</ele>
        <time>2023-08-11T09:05:15.000Z</time>
      </trkpt>
      <trkpt lat="45.24861" lon="6.08217">
        <ele>2137.8000488281</ele>
        <time>2023-08-11T09:05:19.000Z</time>
      </trkpt>
      <trkpt lat="45.24861" lon="6.08217">
        <ele>2138.3999023438</ele>
        <time>2023-08-11T09:05:23.000Z</time>
      </trkpt>
      <trkpt lat="45.2486" lon="6.08221">
        <ele>2138.8000488281</ele>
        <time>2023-08-11T09:05:32.000Z</time>
      </trkpt>
      <trkpt lat="45.2486" lon="6.08222">
        <ele>2138.8000488281</ele>
        <time>2023-08-11T09:05:33.000Z</time>
      </trkpt>
      <trkpt lat="45.24862" lon="6.08225">
        <ele>2139.8000488281</ele>
        <time>2023-08-11T09:05:39.000Z</time>
      </trkpt>
      <trkpt lat="45.24862" lon="6.08226">
        <ele>2139.8000488281</ele>
        <time>2023-08-11T09:05:40.000Z</time>
      </trkpt>
      <trkpt lat="45.24862" lon="6.08225">
        <ele>2140.3999023438</ele>
        <time>2023-08-11T09:05:47.000Z</time>
      </trkpt>
      <trkpt lat="45.2486" lon="6.08223">
        <ele>2140.8000488281</ele>
        <time>2023-08-11T09:05:51.000Z</time>
      </trkpt>
      <trkpt lat="45.24857" lon="6.0822">
        <ele>2141.6000976562</ele>
        <time>2023-08-11T09:05:57.000Z</time>
      </trkpt>
      <trkpt lat="45.24852" lon="6.08218">
        <ele>2142</ele>
        <time>2023-08-11T09:06:02.000Z</time>
      </trkpt>
      <trkpt lat="45.24849" lon="6.08215">
        <ele>2142.6000976562</ele>
        <time>2023-08-11T09:06:06.000Z</time>
      </trkpt>
      <trkpt lat="45.24845" lon="6.08216">
        <ele>2143.1999511719</ele>
        <time>2023-08-11T09:06:14.000Z</time>
      </trkpt>
      <trkpt lat="45.24838" lon="6.08221">
        <ele>2144</ele>
        <time>2023-08-11T09:06:24.000Z</time>
      </trkpt>
      <trkpt lat="45.24838" lon="6.08221">
        <ele>2144.1999511719</ele>
        <time>2023-08-11T09:06:26.000Z</time>
      </trkpt>
      <trkpt lat="45.24838" lon="6.0822">
        <ele>2144.3999023438</ele>
        <time>2023-08-11T09:06:27.000Z</time>
      </trkpt>
      <trkpt lat="45.24835" lon="6.08218">
        <ele>2145</ele>
        <time>2023-08-11T09:06:33.000Z</time>
      </trkpt>
      <trkpt lat="45.24829" lon="6.08219">
        <ele>2144.6000976562</ele>
        <time>2023-08-11T09:06:40.000Z</time>
      </trkpt>
      <trkpt lat="45.24826" lon="6.0822">
        <ele>2144.3999023438</ele>
        <time>2023-08-11T09:06:42.000Z</time>
      </trkpt>
      <trkpt lat="45.24817" lon="6.08229">
        <ele>2143.6000976562</ele>
        <time>2023-08-11T09:06:51.000Z</time>
      </trkpt>
      <trkpt lat="45.24814" lon="6.08233">
        <ele>2144.1999511719</ele>
        <time>2023-08-11T09:06:58.000Z</time>
      </trkpt>
      <trkpt lat="45.24812" lon="6.08236">
        <ele>2144.8000488281</ele>
        <time>2023-08-11T09:07:06.000Z</time>
      </trkpt>
      <trkpt lat="45.24808" lon="6.08243">
        <ele>2145.3999023438</ele>
        <time>2023-08-11T09:07:12.000Z</time>
      </trkpt>
      <trkpt lat="45.24806" lon="6.08247">
        <ele>2145.8000488281</ele>
        <time>2023-08-11T09:07:16.000Z</time>
      </trkpt>
      <trkpt lat="45.24804" lon="6.08251">
        <ele>2146.3999023438</ele>
        <time>2023-08-11T09:07:19.000Z</time>
      </trkpt>
      <trkpt lat="45.24803" lon="6.08255">
        <ele>2147.1999511719</ele>
        <time>2023-08-11T09:07:24.000Z</time>
      </trkpt>
      <trkpt lat="45.248" lon="6.08259">
        <ele>2147.6000976562</ele>
        <time>2023-08-11T09:07:29.000Z</time>
      </trkpt>
      <trkpt lat="45.24799" lon="6.08262">
        <ele>2148</ele>
        <time>2023-08-11T09:07:33.000Z</time>
      </trkpt>
      <trkpt lat="45.24798" lon="6.08265">
        <ele>2148.1999511719</ele>
        <time>2023-08-11T09:07:44.000Z</time>
      </trkpt>
      <trkpt lat="45.24798" lon="6.08268">
        <ele>2148.6000976562</ele>
        <time>2023-08-11T09:07:47.000Z</time>
      </trkpt>
      <trkpt lat="45.24797" lon="6.08273">
        <ele>2149</ele>
        <time>2023-08-11T09:07:51.000Z</time>
      </trkpt>
      <trkpt lat="45.24791" lon="6.0828">
        <ele>2149.1999511719</ele>
        <time>2023-08-11T09:08:00.000Z</time>
      </trkpt>
      <trkpt lat="45.24783" lon="6.08279">
        <ele>2149</ele>
        <time>2023-08-11T09:08:07.000Z</time>
      </trkpt>
      <trkpt lat="45.24778" lon="6.08277">
        <ele>2149.1999511719</ele>
        <time>2023-08-11T09:08:14.000Z</time>
      </trkpt>
      <trkpt lat="45.24773" lon="6.08272">
        <ele>2149.6000976562</ele>
        <time>2023-08-11T09:08:20.000Z</time>
      </trkpt>
      <trkpt lat="45.24773" lon="6.08272">
        <ele>2149.6000976562</ele>
        <time>2023-08-11T09:08:21.000Z</time>
      </trkpt>
      <trkpt lat="45.24771" lon="6.08266">
        <ele>2150.3999023438</ele>
        <time>2023-08-11T09:08:29.000Z</time>
      </trkpt>
      <trkpt lat="45.24771" lon="6.08265">
        <ele>2150.6000976562</ele>
        <time>2023-08-11T09:08:30.000Z</time>
      </trkpt>
      <trkpt lat="45.2477" lon="6.08257">
        <ele>2151.3999023438</ele>
        <time>2023-08-11T09:08:37.000Z</time>
      </trkpt>
      <trkpt lat="45.24767" lon="6.08249">
        <ele>2151.1999511719</ele>
        <time>2023-08-11T09:08:46.000Z</time>
      </trkpt>
      <trkpt lat="45.24764" lon="6.08245">
        <ele>2151.1999511719</ele>
        <time>2023-08-11T09:08:53.000Z</time>
      </trkpt>
      <trkpt lat="45.24761" lon="6.08245">
        <ele>2151.3999023438</ele>
        <time>2023-08-11T09:09:00.000Z</time>
      </trkpt>
      <trkpt lat="45.24755" lon="6.08244">
        <ele>2151.1999511719</ele>
        <time>2023-08-11T09:09:08.000Z</time>
      </trkpt>
      <trkpt lat="45.24755" lon="6.08245">
        <ele>2151</ele>
        <time>2023-08-11T09:09:15.000Z</time>
      </trkpt>
      <trkpt lat="45.24755" lon="6.08245">
        <ele>2151</ele>
        <time>2023-08-11T09:09:17.000Z</time>
      </trkpt>
      <trkpt lat="45.2475" lon="6.08245">
        <ele>2150.6000976562</ele>
        <time>2023-08-11T09:09:25.000Z</time>
      </trkpt>
      <trkpt lat="45.2474" lon="6.08245">
        <ele>2150.3999023438</ele>
        <time>2023-08-11T09:09:34.000Z</time>
      </trkpt>
      <trkpt lat="45.24734" lon="6.08254">
        <ele>2150.3999023438</ele>
        <time>2023-08-11T09:09:41.000Z</time>
      </trkpt>
      <trkpt lat="45.24727" lon="6.08263">
        <ele>2150.3999023438</ele>
        <time>2023-08-11T09:09:50.000Z</time>
      </trkpt>
      <trkpt lat="45.24721" lon="6.08274">
        <ele>2151</ele>
        <time>2023-08-11T09:10:01.000Z</time>
      </trkpt>
      <trkpt lat="45.24719" lon="6.08277">
        <ele>2151.8000488281</ele>
        <time>2023-08-11T09:10:06.000Z</time>
      </trkpt>
      <trkpt lat="45.24719" lon="6.08278">
        <ele>2151.8000488281</ele>
        <time>2023-08-11T09:10:07.000Z</time>
      </trkpt>
      <trkpt lat="45.24713" lon="6.0829">
        <ele>2152.6000976562</ele>
        <time>2023-08-11T09:10:17.000Z</time>
      </trkpt>
      <trkpt lat="45.24713" lon="6.08291">
        <ele>2153</ele>
        <time>2023-08-11T09:10:19.000Z</time>
      </trkpt>
      <trkpt lat="45.24708" lon="6.08296">
        <ele>2153.3999023438</ele>
        <time>2023-08-11T09:10:26.000Z</time>
      </trkpt>
      <trkpt lat="45.24707" lon="6.08299">
        <ele>2153.8000488281</ele>
        <time>2023-08-11T09:10:33.000Z</time>
      </trkpt>
      <trkpt lat="45.24707" lon="6.083">
        <ele>2154</ele>
        <time>2023-08-11T09:10:35.000Z</time>
      </trkpt>
      <trkpt lat="45.24703" lon="6.08303">
        <ele>2154.6000976562</ele>
        <time>2023-08-11T09:10:40.000Z</time>
      </trkpt>
      <trkpt lat="45.24697" lon="6.08307">
        <ele>2155</ele>
        <time>2023-08-11T09:10:47.000Z</time>
      </trkpt>
      <trkpt lat="45.24696" lon="6.08308">
        <ele>2155</ele>
        <time>2023-08-11T09:10:48.000Z</time>
      </trkpt>
      <trkpt lat="45.24691" lon="6.08307">
        <ele>2155.6000976562</ele>
        <time>2023-08-11T09:10:55.000Z</time>
      </trkpt>
      <trkpt lat="45.2469" lon="6.08308">
        <ele>2156.1999511719</ele>
        <time>2023-08-11T09:10:57.000Z</time>
      </trkpt>
      <trkpt lat="45.2469" lon="6.08308">
        <ele>2156.6000976562</ele>
        <time>2023-08-11T09:11:01.000Z</time>
      </trkpt>
      <trkpt lat="45.24689" lon="6.08309">
        <ele>2157</ele>
        <time>2023-08-11T09:11:03.000Z</time>
      </trkpt>
      <trkpt lat="45.24688" lon="6.08309">
        <ele>2157.1999511719</ele>
        <time>2023-08-11T09:11:04.000Z</time>
      </trkpt>
      <trkpt lat="45.24686" lon="6.0831">
        <ele>2158.1999511719</ele>
        <time>2023-08-11T09:11:09.000Z</time>
      </trkpt>
      <trkpt lat="45.24685" lon="6.0831">
        <ele>2158.8000488281</ele>
        <time>2023-08-11T09:11:11.000Z</time>
      </trkpt>
      <trkpt lat="45.24683" lon="6.08309">
        <ele>2159.3999023438</ele>
        <time>2023-08-11T09:11:14.000Z</time>
      </trkpt>
      <trkpt lat="45.2468" lon="6.08309">
        <ele>2160.3999023438</ele>
        <time>2023-08-11T09:11:20.000Z</time>
      </trkpt>
      <trkpt lat="45.24677" lon="6.08308">
        <ele>2161</ele>
        <time>2023-08-11T09:11:27.000Z</time>
      </trkpt>
      <trkpt lat="45.24676" lon="6.08309">
        <ele>2161.3999023438</ele>
        <time>2023-08-11T09:11:30.000Z</time>
      </trkpt>
      <trkpt lat="45.24673" lon="6.0831">
        <ele>2161.8000488281</ele>
        <time>2023-08-11T09:11:34.000Z</time>
      </trkpt>
      <trkpt lat="45.24668" lon="6.08312">
        <ele>2160.6000976562</ele>
        <time>2023-08-11T09:11:43.000Z</time>
      </trkpt>
      <trkpt lat="45.24667" lon="6.08313">
        <ele>2160.3999023438</ele>
        <time>2023-08-11T09:11:44.000Z</time>
      </trkpt>
      <trkpt lat="45.24662" lon="6.08312">
        <ele>2159.1999511719</ele>
        <time>2023-08-11T09:11:49.000Z</time>
      </trkpt>
      <trkpt lat="45.24662" lon="6.08313">
        <ele>2159</ele>
        <time>2023-08-11T09:11:51.000Z</time>
      </trkpt>
      <trkpt lat="45.24659" lon="6.08317">
        <ele>2158.1999511719</ele>
        <time>2023-08-11T09:11:56.000Z</time>
      </trkpt>
      <trkpt lat="45.24658" lon="6.08319">
        <ele>2157.8000488281</ele>
        <time>2023-08-11T09:11:58.000Z</time>
      </trkpt>
      <trkpt lat="45.24657" lon="6.08324">
        <ele>2157</ele>
        <time>2023-08-11T09:12:04.000Z</time>
      </trkpt>
      <trkpt lat="45.24655" lon="6.08325">
        <ele>2156.8000488281</ele>
        <time>2023-08-11T09:12:06.000Z</time>
      </trkpt>
      <trkpt lat="45.24649" lon="6.08322">
        <ele>2155.8000488281</ele>
        <time>2023-08-11T09:12:14.000Z</time>
      </trkpt>
      <trkpt lat="45.2464" lon="6.0832">
        <ele>2155.1999511719</ele>
        <time>2023-08-11T09:12:22.000Z</time>
      </trkpt>
      <trkpt lat="45.24637" lon="6.0832">
        <ele>2155.1999511719</ele>
        <time>2023-08-11T09:12:28.000Z</time>
      </trkpt>
      <trkpt lat="45.24628" lon="6.08315">
        <ele>2156.1999511719</ele>
        <time>2023-08-11T09:12:36.000Z</time>
      </trkpt>
      <trkpt lat="45.24624" lon="6.08317">
        <ele>2156.8000488281</ele>
        <time>2023-08-11T09:12:43.000Z</time>
      </trkpt>
      <trkpt lat="45.24621" lon="6.0832">
        <ele>2157</ele>
        <time>2023-08-11T09:12:45.000Z</time>
      </trkpt>
      <trkpt lat="45.24617" lon="6.08326">
        <ele>2157</ele>
        <time>2023-08-11T09:12:49.000Z</time>
      </trkpt>
      <trkpt lat="45.24613" lon="6.08332">
        <ele>2157.1999511719</ele>
        <time>2023-08-11T09:12:56.000Z</time>
      </trkpt>
      <trkpt lat="45.2461" lon="6.08331">
        <ele>2156.8000488281</ele>
        <time>2023-08-11T09:13:04.000Z</time>
      </trkpt>
      <trkpt lat="45.24607" lon="6.0833">
        <ele>2155.8000488281</ele>
        <time>2023-08-11T09:13:09.000Z</time>
      </trkpt>
      <trkpt lat="45.24606" lon="6.0833">
        <ele>2155.6000976562</ele>
        <time>2023-08-11T09:13:11.000Z</time>
      </trkpt>
      <trkpt lat="45.246" lon="6.08327">
        <ele>2154.6000976562</ele>
        <time>2023-08-11T09:13:18.000Z</time>
      </trkpt>
      <trkpt lat="45.24596" lon="6.08327">
        <ele>2154.1999511719</ele>
        <time>2023-08-11T09:13:25.000Z</time>
      </trkpt>
      <trkpt lat="45.2459" lon="6.08333">
        <ele>2154.1999511719</ele>
        <time>2023-08-11T09:13:32.000Z</time>
      </trkpt>
      <trkpt lat="45.24588" lon="6.08336">
        <ele>2154.6000976562</ele>
        <time>2023-08-11T09:13:38.000Z</time>
      </trkpt>
      <trkpt lat="45.24584" lon="6.08338">
        <ele>2155.6000976562</ele>
        <time>2023-08-11T09:13:45.000Z</time>
      </trkpt>
      <trkpt lat="45.24583" lon="6.08339">
        <ele>2155.8000488281</ele>
        <time>2023-08-11T09:13:46.000Z</time>
      </trkpt>
      <trkpt lat="45.24579" lon="6.08345">
        <ele>2156.3999023438</ele>
        <time>2023-08-11T09:13:54.000Z</time>
      </trkpt>
      <trkpt lat="45.24576" lon="6.0835">
        <ele>2156.3999023438</ele>
        <time>2023-08-11T09:14:01.000Z</time>
      </trkpt>
      <trkpt lat="45.24574" lon="6.08352">
        <ele>2156.8000488281</ele>
        <time>2023-08-11T09:14:07.000Z</time>
      </trkpt>
      <trkpt lat="45.24574" lon="6.08352">
        <ele>2157.1999511719</ele>
        <time>2023-08-11T09:14:09.000Z</time>
      </trkpt>
      <trkpt lat="45.24573" lon="6.08353">
        <ele>2157.8000488281</ele>
        <time>2023-08-11T09:14:13.000Z</time>
      </trkpt>
      <trkpt lat="45.2457" lon="6.08356">
        <ele>2157.8000488281</ele>
        <time>2023-08-11T09:14:17.000Z</time>
      </trkpt>
      <trkpt lat="45.24565" lon="6.0836">
        <ele>2157.6000976562</ele>
        <time>2023-08-11T09:14:26.000Z</time>
      </trkpt>
      <trkpt lat="45.24561" lon="6.08364">
        <ele>2158.6000976562</ele>
        <time>2023-08-11T09:14:34.000Z</time>
      </trkpt>
      <trkpt lat="45.2456" lon="6.08364">
        <ele>2159</ele>
        <time>2023-08-11T09:14:36.000Z</time>
      </trkpt>
      <trkpt lat="45.24558" lon="6.08366">
        <ele>2159.6000976562</ele>
        <time>2023-08-11T09:14:41.000Z</time>
      </trkpt>
      <trkpt lat="45.24557" lon="6.08368">
        <ele>2160</ele>
        <time>2023-08-11T09:14:43.000Z</time>
      </trkpt>
      <trkpt lat="45.24553" lon="6.08374">
        <ele>2161</ele>
        <time>2023-08-11T09:14:50.000Z</time>
      </trkpt>
      <trkpt lat="45.24552" lon="6.08375">
        <ele>2161.1999511719</ele>
        <time>2023-08-11T09:14:51.000Z</time>
      </trkpt>
      <trkpt lat="45.24547" lon="6.08373">
        <ele>2161.8000488281</ele>
        <time>2023-08-11T09:14:59.000Z</time>
      </trkpt>
      <trkpt lat="45.24543" lon="6.08376">
        <ele>2162.1999511719</ele>
        <time>2023-08-11T09:15:04.000Z</time>
      </trkpt>
      <trkpt lat="45.24542" lon="6.08377">
        <ele>2162.1999511719</ele>
        <time>2023-08-11T09:15:05.000Z</time>
      </trkpt>
      <trkpt lat="45.24539" lon="6.08382">
        <ele>2163.1999511719</ele>
        <time>2023-08-11T09:15:13.000Z</time>
      </trkpt>
      <trkpt lat="45.24535" lon="6.08384">
        <ele>2164.3999023438</ele>
        <time>2023-08-11T09:15:20.000Z</time>
      </trkpt>
      <trkpt lat="45.24534" lon="6.08384">
        <ele>2164.3999023438</ele>
        <time>2023-08-11T09:15:21.000Z</time>
      </trkpt>
      <trkpt lat="45.24531" lon="6.08387">
        <ele>2165.3999023438</ele>
        <time>2023-08-11T09:15:28.000Z</time>
      </trkpt>
      <trkpt lat="45.24532" lon="6.08394">
        <ele>2166.1999511719</ele>
        <time>2023-08-11T09:15:36.000Z</time>
      </trkpt>
      <trkpt lat="45.24531" lon="6.08396">
        <ele>2166.3999023438</ele>
        <time>2023-08-11T09:15:38.000Z</time>
      </trkpt>
      <trkpt lat="45.24527" lon="6.08399">
        <ele>2167.1999511719</ele>
        <time>2023-08-11T09:15:45.000Z</time>
      </trkpt>
      <trkpt lat="45.24526" lon="6.084">
        <ele>2167.6000976562</ele>
        <time>2023-08-11T09:15:47.000Z</time>
      </trkpt>
      <trkpt lat="45.24522" lon="6.08405">
        <ele>2168.6000976562</ele>
        <time>2023-08-11T09:15:54.000Z</time>
      </trkpt>
      <trkpt lat="45.24522" lon="6.08406">
        <ele>2168.6000976562</ele>
        <time>2023-08-11T09:15:55.000Z</time>
      </trkpt>
      <trkpt lat="45.24519" lon="6.08408">
        <ele>2169.6000976562</ele>
        <time>2023-08-11T09:16:02.000Z</time>
      </trkpt>
      <trkpt lat="45.24518" lon="6.08408">
        <ele>2169.6000976562</ele>
        <time>2023-08-11T09:16:03.000Z</time>
      </trkpt>
      <trkpt lat="45.24514" lon="6.08412">
        <ele>2170.6000976562</ele>
        <time>2023-08-11T09:16:10.000Z</time>
      </trkpt>
      <trkpt lat="45.2451" lon="6.08416">
        <ele>2171.3999023438</ele>
        <time>2023-08-11T09:16:17.000Z</time>
      </trkpt>
      <trkpt lat="45.2451" lon="6.08416">
        <ele>2171.3999023438</ele>
        <time>2023-08-11T09:16:18.000Z</time>
      </trkpt>
      <trkpt lat="45.24508" lon="6.08417">
        <ele>2171.6000976562</ele>
        <time>2023-08-11T09:16:21.000Z</time>
      </trkpt>
      <trkpt lat="45.24506" lon="6.08415">
        <ele>2171.8000488281</ele>
        <time>2023-08-11T09:16:25.000Z</time>
      </trkpt>
      <trkpt lat="45.24502" lon="6.08419">
        <ele>2172</ele>
        <time>2023-08-11T09:16:32.000Z</time>
      </trkpt>
      <trkpt lat="45.24497" lon="6.0842">
        <ele>2172</ele>
        <time>2023-08-11T09:16:39.000Z</time>
      </trkpt>
      <trkpt lat="45.24492" lon="6.08422">
        <ele>2172.8000488281</ele>
        <time>2023-08-11T09:16:45.000Z</time>
      </trkpt>
      <trkpt lat="45.2449" lon="6.08424">
        <ele>2173</ele>
        <time>2023-08-11T09:16:48.000Z</time>
      </trkpt>
      <trkpt lat="45.24481" lon="6.08429">
        <ele>2173.3999023438</ele>
        <time>2023-08-11T09:16:58.000Z</time>
      </trkpt>
      <trkpt lat="45.24476" lon="6.08429">
        <ele>2174</ele>
        <time>2023-08-11T09:17:05.000Z</time>
      </trkpt>
      <trkpt lat="45.24475" lon="6.08429">
        <ele>2174</ele>
        <time>2023-08-11T09:17:06.000Z</time>
      </trkpt>
      <trkpt lat="45.24471" lon="6.08431">
        <ele>2175</ele>
        <time>2023-08-11T09:17:13.000Z</time>
      </trkpt>
      <trkpt lat="45.24466" lon="6.08435">
        <ele>2175.8000488281</ele>
        <time>2023-08-11T09:17:20.000Z</time>
      </trkpt>
      <trkpt lat="45.2446" lon="6.08438">
        <ele>2176</ele>
        <time>2023-08-11T09:17:27.000Z</time>
      </trkpt>
      <trkpt lat="45.24454" lon="6.08442">
        <ele>2176</ele>
        <time>2023-08-11T09:17:35.000Z</time>
      </trkpt>
      <trkpt lat="45.24449" lon="6.08444">
        <ele>2176.1999511719</ele>
        <time>2023-08-11T09:17:40.000Z</time>
      </trkpt>
      <trkpt lat="45.24448" lon="6.08446">
        <ele>2176.1999511719</ele>
        <time>2023-08-11T09:17:42.000Z</time>
      </trkpt>
      <trkpt lat="45.24443" lon="6.0845">
        <ele>2176.3999023438</ele>
        <time>2023-08-11T09:17:48.000Z</time>
      </trkpt>
      <trkpt lat="45.24439" lon="6.08456">
        <ele>2176.6000976562</ele>
        <time>2023-08-11T09:17:55.000Z</time>
      </trkpt>
      <trkpt lat="45.24437" lon="6.08456">
        <ele>2176.6000976562</ele>
        <time>2023-08-11T09:17:59.000Z</time>
      </trkpt>
      <trkpt lat="45.24434" lon="6.08456">
        <ele>2176.6000976562</ele>
        <time>2023-08-11T09:18:02.000Z</time>
      </trkpt>
      <trkpt lat="45.24426" lon="6.08456">
        <ele>2176.3999023438</ele>
        <time>2023-08-11T09:18:10.000Z</time>
      </trkpt>
      <trkpt lat="45.24419" lon="6.08457">
        <ele>2177</ele>
        <time>2023-08-11T09:18:17.000Z</time>
      </trkpt>
      <trkpt lat="45.24408" lon="6.08461">
        <ele>2176.6000976562</ele>
        <time>2023-08-11T09:18:26.000Z</time>
      </trkpt>
      <trkpt lat="45.24399" lon="6.08463">
        <ele>2175.6000976562</ele>
        <time>2023-08-11T09:18:35.000Z</time>
      </trkpt>
      <trkpt lat="45.24392" lon="6.08463">
        <ele>2175</ele>
        <time>2023-08-11T09:18:40.000Z</time>
      </trkpt>
      <trkpt lat="45.24388" lon="6.08463">
        <ele>2174.8000488281</ele>
        <time>2023-08-11T09:18:44.000Z</time>
      </trkpt>
      <trkpt lat="45.24381" lon="6.08466">
        <ele>2175.3999023438</ele>
        <time>2023-08-11T09:18:52.000Z</time>
      </trkpt>
      <trkpt lat="45.24374" lon="6.08469">
        <ele>2176</ele>
        <time>2023-08-11T09:18:59.000Z</time>
      </trkpt>
      <trkpt lat="45.24367" lon="6.08466">
        <ele>2177.1999511719</ele>
        <time>2023-08-11T09:19:07.000Z</time>
      </trkpt>
      <trkpt lat="45.2436" lon="6.08469">
        <ele>2178.1999511719</ele>
        <time>2023-08-11T09:19:14.000Z</time>
      </trkpt>
      <trkpt lat="45.24353" lon="6.0847">
        <ele>2179.1999511719</ele>
        <time>2023-08-11T09:19:24.000Z</time>
      </trkpt>
      <trkpt lat="45.24347" lon="6.0847">
        <ele>2180.1999511719</ele>
        <time>2023-08-11T09:19:32.000Z</time>
      </trkpt>
      <trkpt lat="45.24344" lon="6.08471">
        <ele>2180.3999023438</ele>
        <time>2023-08-11T09:19:37.000Z</time>
      </trkpt>
      <trkpt lat="45.24343" lon="6.08471">
        <ele>2180.3999023438</ele>
        <time>2023-08-11T09:19:38.000Z</time>
      </trkpt>
      <trkpt lat="45.24337" lon="6.08471">
        <ele>2180.8000488281</ele>
        <time>2023-08-11T09:19:44.000Z</time>
      </trkpt>
      <trkpt lat="45.24337" lon="6.08474">
        <ele>2181</ele>
        <time>2023-08-11T09:19:47.000Z</time>
      </trkpt>
      <trkpt lat="45.24334" lon="6.08475">
        <ele>2181.3999023438</ele>
        <time>2023-08-11T09:19:50.000Z</time>
      </trkpt>
      <trkpt lat="45.24329" lon="6.0848">
        <ele>2182.6000976562</ele>
        <time>2023-08-11T09:19:56.000Z</time>
      </trkpt>
      <trkpt lat="45.24329" lon="6.08481">
        <ele>2182.8000488281</ele>
        <time>2023-08-11T09:19:58.000Z</time>
      </trkpt>
      <trkpt lat="45.24325" lon="6.08482">
        <ele>2183.1999511719</ele>
        <time>2023-08-11T09:20:07.000Z</time>
      </trkpt>
      <trkpt lat="45.24322" lon="6.08483">
        <ele>2182</ele>
        <time>2023-08-11T09:20:15.000Z</time>
      </trkpt>
      <trkpt lat="45.2432" lon="6.08484">
        <ele>2181.3999023438</ele>
        <time>2023-08-11T09:20:19.000Z</time>
      </trkpt>
      <trkpt lat="45.24317" lon="6.08483">
        <ele>2180.8000488281</ele>
        <time>2023-08-11T09:20:25.000Z</time>
      </trkpt>
      <trkpt lat="45.24315" lon="6.08481">
        <ele>2180.3999023438</ele>
        <time>2023-08-11T09:20:28.000Z</time>
      </trkpt>
      <trkpt lat="45.24312" lon="6.0848">
        <ele>2179.8000488281</ele>
        <time>2023-08-11T09:20:32.000Z</time>
      </trkpt>
      <trkpt lat="45.24311" lon="6.08478">
        <ele>2179.3999023438</ele>
        <time>2023-08-11T09:20:36.000Z</time>
      </trkpt>
      <trkpt lat="45.24311" lon="6.08478">
        <ele>2179</ele>
        <time>2023-08-11T09:20:38.000Z</time>
      </trkpt>
      <trkpt lat="45.24308" lon="6.08479">
        <ele>2178.1999511719</ele>
        <time>2023-08-11T09:20:43.000Z</time>
      </trkpt>
      <trkpt lat="45.24305" lon="6.08481">
        <ele>2178</ele>
        <time>2023-08-11T09:20:45.000Z</time>
      </trkpt>
      <trkpt lat="45.243" lon="6.08487">
        <ele>2178.3999023438</ele>
        <time>2023-08-11T09:20:53.000Z</time>
      </trkpt>
      <trkpt lat="45.24296" lon="6.08491">
        <ele>2178.6000976562</ele>
        <time>2023-08-11T09:21:01.000Z</time>
      </trkpt>
      <trkpt lat="45.2429" lon="6.08495">
        <ele>2178.1999511719</ele>
        <time>2023-08-11T09:21:08.000Z</time>
      </trkpt>
      <trkpt lat="45.24285" lon="6.08492">
        <ele>2177.3999023438</ele>
        <time>2023-08-11T09:21:14.000Z</time>
      </trkpt>
      <trkpt lat="45.24283" lon="6.08491">
        <ele>2177.1999511719</ele>
        <time>2023-08-11T09:21:16.000Z</time>
      </trkpt>
      <trkpt lat="45.2428" lon="6.08491">
        <ele>2176.6000976562</ele>
        <time>2023-08-11T09:21:22.000Z</time>
      </trkpt>
      <trkpt lat="45.24278" lon="6.0849">
        <ele>2176</ele>
        <time>2023-08-11T09:21:27.000Z</time>
      </trkpt>
      <trkpt lat="45.24277" lon="6.08488">
        <ele>2175.6000976562</ele>
        <time>2023-08-11T09:21:30.000Z</time>
      </trkpt>
      <trkpt lat="45.24273" lon="6.08486">
        <ele>2174.8000488281</ele>
        <time>2023-08-11T09:21:34.000Z</time>
      </trkpt>
      <trkpt lat="45.2427" lon="6.08485">
        <ele>2174.3999023438</ele>
        <time>2023-08-11T09:21:37.000Z</time>
      </trkpt>
      <trkpt lat="45.24262" lon="6.08481">
        <ele>2174.1999511719</ele>
        <time>2023-08-11T09:21:44.000Z</time>
      </trkpt>
      <trkpt lat="45.2426" lon="6.0848">
        <ele>2173.8000488281</ele>
        <time>2023-08-11T09:21:47.000Z</time>
      </trkpt>
      <trkpt lat="45.24257" lon="6.08481">
        <ele>2173.1999511719</ele>
        <time>2023-08-11T09:21:52.000Z</time>
      </trkpt>
      <trkpt lat="45.24254" lon="6.08481">
        <ele>2172.6000976562</ele>
        <time>2023-08-11T09:21:55.000Z</time>
      </trkpt>
      <trkpt lat="45.2425" lon="6.08478">
        <ele>2171.8000488281</ele>
        <time>2023-08-11T09:22:00.000Z</time>
      </trkpt>
      <trkpt lat="45.24249" lon="6.08477">
        <ele>2171.6000976562</ele>
        <time>2023-08-11T09:22:01.000Z</time>
      </trkpt>
      <trkpt lat="45.24245" lon="6.08474">
        <ele>2170.6000976562</ele>
        <time>2023-08-11T09:22:07.000Z</time>
      </trkpt>
      <trkpt lat="45.24244" lon="6.08474">
        <ele>2170.3999023438</ele>
        <time>2023-08-11T09:22:09.000Z</time>
      </trkpt>
      <trkpt lat="45.24237" lon="6.08471">
        <ele>2170.3999023438</ele>
        <time>2023-08-11T09:22:17.000Z</time>
      </trkpt>
      <trkpt lat="45.24227" lon="6.08467">
        <ele>2170.8000488281</ele>
        <time>2023-08-11T09:22:25.000Z</time>
      </trkpt>
      <trkpt lat="45.24219" lon="6.08469">
        <ele>2170.1999511719</ele>
        <time>2023-08-11T09:22:33.000Z</time>
      </trkpt>
      <trkpt lat="45.24215" lon="6.08471">
        <ele>2169.1999511719</ele>
        <time>2023-08-11T09:22:37.000Z</time>
      </trkpt>
      <trkpt lat="45.2421" lon="6.08474">
        <ele>2168.3999023438</ele>
        <time>2023-08-11T09:22:42.000Z</time>
      </trkpt>
      <trkpt lat="45.24209" lon="6.08474">
        <ele>2168.1999511719</ele>
        <time>2023-08-11T09:22:43.000Z</time>
      </trkpt>
      <trkpt lat="45.24205" lon="6.08476">
        <ele>2167.8000488281</ele>
        <time>2023-08-11T09:22:50.000Z</time>
      </trkpt>
      <trkpt lat="45.24201" lon="6.08479">
        <ele>2168.3999023438</ele>
        <time>2023-08-11T09:22:57.000Z</time>
      </trkpt>
      <trkpt lat="45.24193" lon="6.08476">
        <ele>2169.1999511719</ele>
        <time>2023-08-11T09:23:05.000Z</time>
      </trkpt>
      <trkpt lat="45.2419" lon="6.08471">
        <ele>2168.8000488281</ele>
        <time>2023-08-11T09:23:12.000Z</time>
      </trkpt>
      <trkpt lat="45.24189" lon="6.08464">
        <ele>2168</ele>
        <time>2023-08-11T09:23:19.000Z</time>
      </trkpt>
      <trkpt lat="45.24186" lon="6.08459">
        <ele>2167.1999511719</ele>
        <time>2023-08-11T09:23:25.000Z</time>
      </trkpt>
      <trkpt lat="45.24184" lon="6.08457">
        <ele>2166.8000488281</ele>
        <time>2023-08-11T09:23:27.000Z</time>
      </trkpt>
      <trkpt lat="45.24175" lon="6.08455">
        <ele>2166</ele>
        <time>2023-08-11T09:23:34.000Z</time>
      </trkpt>
      <trkpt lat="45.2417" lon="6.08452">
        <ele>2165.3999023438</ele>
        <time>2023-08-11T09:23:42.000Z</time>
      </trkpt>
      <trkpt lat="45.24167" lon="6.0845">
        <ele>2165</ele>
        <time>2023-08-11T09:23:47.000Z</time>
      </trkpt>
      <trkpt lat="45.24166" lon="6.08449">
        <ele>2164.8000488281</ele>
        <time>2023-08-11T09:23:49.000Z</time>
      </trkpt>
      <trkpt lat="45.24162" lon="6.08445">
        <ele>2164.3999023438</ele>
        <time>2023-08-11T09:23:56.000Z</time>
      </trkpt>
      <trkpt lat="45.24163" lon="6.08447">
        <ele>2164.1999511719</ele>
        <time>2023-08-11T09:24:01.000Z</time>
      </trkpt>
      <trkpt lat="45.24163" lon="6.08448">
        <ele>2164.1999511719</ele>
        <time>2023-08-11T09:24:04.000Z</time>
      </trkpt>
      <trkpt lat="45.24162" lon="6.0845">
        <ele>2164</ele>
        <time>2023-08-11T09:24:12.000Z</time>
      </trkpt>
      <trkpt lat="45.24162" lon="6.0845">
        <ele>2164.1999511719</ele>
        <time>2023-08-11T09:24:20.000Z</time>
      </trkpt>
      <trkpt lat="45.24163" lon="6.0845">
        <ele>2164</ele>
        <time>2023-08-11T09:24:23.000Z</time>
      </trkpt>
      <trkpt lat="45.24163" lon="6.0845">
        <ele>2163.3999023438</ele>
        <time>2023-08-11T09:24:30.000Z</time>
      </trkpt>
      <trkpt lat="45.24162" lon="6.08452">
        <ele>2164.1999511719</ele>
        <time>2023-08-11T09:24:39.000Z</time>
      </trkpt>
      <trkpt lat="45.2416" lon="6.0845">
        <ele>2164.1999511719</ele>
        <time>2023-08-11T09:24:45.000Z</time>
      </trkpt>
      <trkpt lat="45.24159" lon="6.08443">
        <ele>2164.6000976562</ele>
        <time>2023-08-11T09:24:53.000Z</time>
      </trkpt>
      <trkpt lat="45.24159" lon="6.0844">
        <ele>2165</ele>
        <time>2023-08-11T09:24:55.000Z</time>
      </trkpt>
      <trkpt lat="45.24159" lon="6.08434">
        <ele>2165.3999023438</ele>
        <time>2023-08-11T09:25:00.000Z</time>
      </trkpt>
      <trkpt lat="45.24154" lon="6.08429">
        <ele>2165.1999511719</ele>
        <time>2023-08-11T09:25:07.000Z</time>
      </trkpt>
      <trkpt lat="45.24151" lon="6.0843">
        <ele>2164.8000488281</ele>
        <time>2023-08-11T09:25:14.000Z</time>
      </trkpt>
      <trkpt lat="45.24147" lon="6.08429">
        <ele>2164</ele>
        <time>2023-08-11T09:25:20.000Z</time>
      </trkpt>
      <trkpt lat="45.24146" lon="6.08429">
        <ele>2164</ele>
        <time>2023-08-11T09:25:21.000Z</time>
      </trkpt>
      <trkpt lat="45.2414" lon="6.08433">
        <ele>2163</ele>
        <time>2023-08-11T09:25:26.000Z</time>
      </trkpt>
      <trkpt lat="45.24137" lon="6.08434">
        <ele>2162.6000976562</ele>
        <time>2023-08-11T09:25:29.000Z</time>
      </trkpt>
      <trkpt lat="45.24132" lon="6.08432">
        <ele>2161.8000488281</ele>
        <time>2023-08-11T09:25:35.000Z</time>
      </trkpt>
      <trkpt lat="45.24132" lon="6.08432">
        <ele>2161.6000976562</ele>
        <time>2023-08-11T09:25:36.000Z</time>
      </trkpt>
      <trkpt lat="45.24126" lon="6.08428">
        <ele>2161</ele>
        <time>2023-08-11T09:25:42.000Z</time>
      </trkpt>
      <trkpt lat="45.24125" lon="6.08427">
        <ele>2160.8000488281</ele>
        <time>2023-08-11T09:25:44.000Z</time>
      </trkpt>
      <trkpt lat="45.2412" lon="6.08427">
        <ele>2160.3999023438</ele>
        <time>2023-08-11T09:25:49.000Z</time>
      </trkpt>
      <trkpt lat="45.24116" lon="6.0843">
        <ele>2160.1999511719</ele>
        <time>2023-08-11T09:25:55.000Z</time>
      </trkpt>
      <trkpt lat="45.24112" lon="6.08429">
        <ele>2159.8000488281</ele>
        <time>2023-08-11T09:26:00.000Z</time>
      </trkpt>
      <trkpt lat="45.24111" lon="6.08429">
        <ele>2159.8000488281</ele>
        <time>2023-08-11T09:26:01.000Z</time>
      </trkpt>
      <trkpt lat="45.24102" lon="6.08424">
        <ele>2158.8000488281</ele>
        <time>2023-08-11T09:26:09.000Z</time>
      </trkpt>
      <trkpt lat="45.24096" lon="6.08425">
        <ele>2158.1999511719</ele>
        <time>2023-08-11T09:26:16.000Z</time>
      </trkpt>
      <trkpt lat="45.24089" lon="6.08425">
        <ele>2157.8000488281</ele>
        <time>2023-08-11T09:26:23.000Z</time>
      </trkpt>
      <trkpt lat="45.24083" lon="6.08424">
        <ele>2158.3999023438</ele>
        <time>2023-08-11T09:26:31.000Z</time>
      </trkpt>
      <trkpt lat="45.24077" lon="6.08417">
        <ele>2159.3999023438</ele>
        <time>2023-08-11T09:26:40.000Z</time>
      </trkpt>
      <trkpt lat="45.24073" lon="6.08411">
        <ele>2160</ele>
        <time>2023-08-11T09:26:45.000Z</time>
      </trkpt>
      <trkpt lat="45.24073" lon="6.0841">
        <ele>2160.1999511719</ele>
        <time>2023-08-11T09:26:46.000Z</time>
      </trkpt>
      <trkpt lat="45.24069" lon="6.08402">
        <ele>2160.8000488281</ele>
        <time>2023-08-11T09:26:53.000Z</time>
      </trkpt>
      <trkpt lat="45.24067" lon="6.08401">
        <ele>2161</ele>
        <time>2023-08-11T09:26:55.000Z</time>
      </trkpt>
      <trkpt lat="45.24062" lon="6.08401">
        <ele>2161.1999511719</ele>
        <time>2023-08-11T09:27:01.000Z</time>
      </trkpt>
      <trkpt lat="45.24055" lon="6.084">
        <ele>2160.8000488281</ele>
        <time>2023-08-11T09:27:09.000Z</time>
      </trkpt>
      <trkpt lat="45.24047" lon="6.08395">
        <ele>2160.8000488281</ele>
        <time>2023-08-11T09:27:15.000Z</time>
      </trkpt>
      <trkpt lat="45.24042" lon="6.0839">
        <ele>2160.3999023438</ele>
        <time>2023-08-11T09:27:22.000Z</time>
      </trkpt>
      <trkpt lat="45.24037" lon="6.08391">
        <ele>2160.8000488281</ele>
        <time>2023-08-11T09:27:28.000Z</time>
      </trkpt>
      <trkpt lat="45.24028" lon="6.08387">
        <ele>2161</ele>
        <time>2023-08-11T09:27:36.000Z</time>
      </trkpt>
      <trkpt lat="45.24021" lon="6.08386">
        <ele>2160.1999511719</ele>
        <time>2023-08-11T09:27:43.000Z</time>
      </trkpt>
      <trkpt lat="45.24017" lon="6.08385">
        <ele>2159.8000488281</ele>
        <time>2023-08-11T09:27:47.000Z</time>
      </trkpt>
      <trkpt lat="45.24012" lon="6.08384">
        <ele>2159.8000488281</ele>
        <time>2023-08-11T09:27:51.000Z</time>
      </trkpt>
      <trkpt lat="45.24005" lon="6.08386">
        <ele>2160.1999511719</ele>
        <time>2023-08-11T09:27:59.000Z</time>
      </trkpt>
      <trkpt lat="45.24" lon="6.0839">
        <ele>2160.6000976562</ele>
        <time>2023-08-11T09:28:05.000Z</time>
      </trkpt>
      <trkpt lat="45.23996" lon="6.08388">
        <ele>2160.8000488281</ele>
        <time>2023-08-11T09:28:11.000Z</time>
      </trkpt>
      <trkpt lat="45.23989" lon="6.08387">
        <ele>2161</ele>
        <time>2023-08-11T09:28:19.000Z</time>
      </trkpt>
      <trkpt lat="45.23988" lon="6.08387">
        <ele>2161</ele>
        <time>2023-08-11T09:28:20.000Z</time>
      </trkpt>
      <trkpt lat="45.23984" lon="6.08387">
        <ele>2162</ele>
        <time>2023-08-11T09:28:27.000Z</time>
      </trkpt>
      <trkpt lat="45.23985" lon="6.08387">
        <ele>2162</ele>
        <time>2023-08-11T09:28:28.000Z</time>
      </trkpt>
      <trkpt lat="45.23983" lon="6.08384">
        <ele>2162.1999511719</ele>
        <time>2023-08-11T09:28:35.000Z</time>
      </trkpt>
      <trkpt lat="45.23979" lon="6.08381">
        <ele>2163</ele>
        <time>2023-08-11T09:28:41.000Z</time>
      </trkpt>
      <trkpt lat="45.23975" lon="6.08378">
        <ele>2164.1999511719</ele>
        <time>2023-08-11T09:28:47.000Z</time>
      </trkpt>
      <trkpt lat="45.23973" lon="6.08377">
        <ele>2164.3999023438</ele>
        <time>2023-08-11T09:28:49.000Z</time>
      </trkpt>
      <trkpt lat="45.23969" lon="6.08374">
        <ele>2165.1999511719</ele>
        <time>2023-08-11T09:28:56.000Z</time>
      </trkpt>
      <trkpt lat="45.23965" lon="6.08373">
        <ele>2166</ele>
        <time>2023-08-11T09:29:02.000Z</time>
      </trkpt>
      <trkpt lat="45.23963" lon="6.08372">
        <ele>2166.1999511719</ele>
        <time>2023-08-11T09:29:04.000Z</time>
      </trkpt>
      <trkpt lat="45.2396" lon="6.0837">
        <ele>2166.8000488281</ele>
        <time>2023-08-11T09:29:10.000Z</time>
      </trkpt>
      <trkpt lat="45.23957" lon="6.08365">
        <ele>2167.1999511719</ele>
        <time>2023-08-11T09:29:16.000Z</time>
      </trkpt>
      <trkpt lat="45.23955" lon="6.08363">
        <ele>2167.6000976562</ele>
        <time>2023-08-11T09:29:18.000Z</time>
      </trkpt>
      <trkpt lat="45.23949" lon="6.0836">
        <ele>2168</ele>
        <time>2023-08-11T09:29:27.000Z</time>
      </trkpt>
      <trkpt lat="45.23948" lon="6.08362">
        <ele>2168.1999511719</ele>
        <time>2023-08-11T09:29:29.000Z</time>
      </trkpt>
      <trkpt lat="45.23946" lon="6.08361">
        <ele>2169</ele>
        <time>2023-08-11T09:29:35.000Z</time>
      </trkpt>
      <trkpt lat="45.23945" lon="6.08358">
        <ele>2169.3999023438</ele>
        <time>2023-08-11T09:29:38.000Z</time>
      </trkpt>
      <trkpt lat="45.23942" lon="6.08354">
        <ele>2169.8000488281</ele>
        <time>2023-08-11T09:29:43.000Z</time>
      </trkpt>
      <trkpt lat="45.23936" lon="6.08347">
        <ele>2170</ele>
        <time>2023-08-11T09:29:51.000Z</time>
      </trkpt>
      <trkpt lat="45.2393" lon="6.08343">
        <ele>2170</ele>
        <time>2023-08-11T09:29:57.000Z</time>
      </trkpt>
      <trkpt lat="45.23927" lon="6.0834">
        <ele>2170.3999023438</ele>
        <time>2023-08-11T09:30:02.000Z</time>
      </trkpt>
      <trkpt lat="45.23925" lon="6.08338">
        <ele>2170.8000488281</ele>
        <time>2023-08-11T09:30:05.000Z</time>
      </trkpt>
      <trkpt lat="45.23923" lon="6.08334">
        <ele>2171.3999023438</ele>
        <time>2023-08-11T09:30:09.000Z</time>
      </trkpt>
      <trkpt lat="45.2392" lon="6.08332">
        <ele>2171.8000488281</ele>
        <time>2023-08-11T09:30:13.000Z</time>
      </trkpt>
      <trkpt lat="45.23916" lon="6.08333">
        <ele>2172</ele>
        <time>2023-08-11T09:30:17.000Z</time>
      </trkpt>
      <trkpt lat="45.23913" lon="6.08336">
        <ele>2172</ele>
        <time>2023-08-11T09:30:20.000Z</time>
      </trkpt>
      <trkpt lat="45.23907" lon="6.0834">
        <ele>2171.8000488281</ele>
        <time>2023-08-11T09:30:26.000Z</time>
      </trkpt>
      <trkpt lat="45.23902" lon="6.08344">
        <ele>2171.6000976562</ele>
        <time>2023-08-11T09:30:32.000Z</time>
      </trkpt>
      <trkpt lat="45.23896" lon="6.08344">
        <ele>2171.3999023438</ele>
        <time>2023-08-11T09:30:39.000Z</time>
      </trkpt>
      <trkpt lat="45.23891" lon="6.08345">
        <ele>2171.3999023438</ele>
        <time>2023-08-11T09:30:45.000Z</time>
      </trkpt>
      <trkpt lat="45.23886" lon="6.08349">
        <ele>2171.6000976562</ele>
        <time>2023-08-11T09:30:52.000Z</time>
      </trkpt>
      <trkpt lat="45.2388" lon="6.08347">
        <ele>2172.6000976562</ele>
        <time>2023-08-11T09:30:58.000Z</time>
      </trkpt>
      <trkpt lat="45.23875" lon="6.08344">
        <ele>2173.3999023438</ele>
        <time>2023-08-11T09:31:06.000Z</time>
      </trkpt>
      <trkpt lat="45.23874" lon="6.08345">
        <ele>2173.6000976562</ele>
        <time>2023-08-11T09:31:07.000Z</time>
      </trkpt>
      <trkpt lat="45.23873" lon="6.08345">
        <ele>2173.6000976562</ele>
        <time>2023-08-11T09:31:09.000Z</time>
      </trkpt>
      <trkpt lat="45.23871" lon="6.08343">
        <ele>2173.8000488281</ele>
        <time>2023-08-11T09:31:12.000Z</time>
      </trkpt>
      <trkpt lat="45.23865" lon="6.08338">
        <ele>2173.8000488281</ele>
        <time>2023-08-11T09:31:19.000Z</time>
      </trkpt>
      <trkpt lat="45.2386" lon="6.08334">
        <ele>2173.8000488281</ele>
        <time>2023-08-11T09:31:26.000Z</time>
      </trkpt>
      <trkpt lat="45.23851" lon="6.08338">
        <ele>2173.6000976562</ele>
        <time>2023-08-11T09:31:34.000Z</time>
      </trkpt>
      <trkpt lat="45.23846" lon="6.08337">
        <ele>2173.6000976562</ele>
        <time>2023-08-11T09:31:41.000Z</time>
      </trkpt>
      <trkpt lat="45.2384" lon="6.08337">
        <ele>2174.1999511719</ele>
        <time>2023-08-11T09:31:48.000Z</time>
      </trkpt>
      <trkpt lat="45.23836" lon="6.08338">
        <ele>2174.8000488281</ele>
        <time>2023-08-11T09:31:52.000Z</time>
      </trkpt>
      <trkpt lat="45.23833" lon="6.0834">
        <ele>2175.1999511719</ele>
        <time>2023-08-11T09:31:56.000Z</time>
      </trkpt>
      <trkpt lat="45.23831" lon="6.08345">
        <ele>2175.1999511719</ele>
        <time>2023-08-11T09:32:02.000Z</time>
      </trkpt>
      <trkpt lat="45.23825" lon="6.08346">
        <ele>2174.8000488281</ele>
        <time>2023-08-11T09:32:10.000Z</time>
      </trkpt>
      <trkpt lat="45.23818" lon="6.0834">
        <ele>2174.8000488281</ele>
        <time>2023-08-11T09:32:17.000Z</time>
      </trkpt>
      <trkpt lat="45.23813" lon="6.08341">
        <ele>2175.1999511719</ele>
        <time>2023-08-11T09:32:25.000Z</time>
      </trkpt>
      <trkpt lat="45.23807" lon="6.08337">
        <ele>2175.1999511719</ele>
        <time>2023-08-11T09:32:32.000Z</time>
      </trkpt>
      <trkpt lat="45.23804" lon="6.08333">
        <ele>2175.3999023438</ele>
        <time>2023-08-11T09:32:39.000Z</time>
      </trkpt>
      <trkpt lat="45.23797" lon="6.08326">
        <ele>2175.3999023438</ele>
        <time>2023-08-11T09:32:48.000Z</time>
      </trkpt>
      <trkpt lat="45.23795" lon="6.08325">
        <ele>2175.6000976562</ele>
        <time>2023-08-11T09:32:55.000Z</time>
      </trkpt>
      <trkpt lat="45.2379" lon="6.08322">
        <ele>2175.8000488281</ele>
        <time>2023-08-11T09:33:01.000Z</time>
      </trkpt>
      <trkpt lat="45.23787" lon="6.08321">
        <ele>2175.8000488281</ele>
        <time>2023-08-11T09:33:03.000Z</time>
      </trkpt>
      <trkpt lat="45.23783" lon="6.08319">
        <ele>2175.6000976562</ele>
        <time>2023-08-11T09:33:07.000Z</time>
      </trkpt>
      <trkpt lat="45.23777" lon="6.08316">
        <ele>2175.1999511719</ele>
        <time>2023-08-11T09:33:13.000Z</time>
      </trkpt>
      <trkpt lat="45.23773" lon="6.08317">
        <ele>2175</ele>
        <time>2023-08-11T09:33:20.000Z</time>
      </trkpt>
      <trkpt lat="45.23768" lon="6.0832">
        <ele>2174.8000488281</ele>
        <time>2023-08-11T09:33:25.000Z</time>
      </trkpt>
      <trkpt lat="45.23764" lon="6.0832">
        <ele>2174.3999023438</ele>
        <time>2023-08-11T09:33:29.000Z</time>
      </trkpt>
      <trkpt lat="45.2376" lon="6.0832">
        <ele>2174.1999511719</ele>
        <time>2023-08-11T09:33:34.000Z</time>
      </trkpt>
      <trkpt lat="45.23756" lon="6.08318">
        <ele>2174</ele>
        <time>2023-08-11T09:33:41.000Z</time>
      </trkpt>
      <trkpt lat="45.23755" lon="6.08311">
        <ele>2173.8000488281</ele>
        <time>2023-08-11T09:33:49.000Z</time>
      </trkpt>
      <trkpt lat="45.23754" lon="6.0831">
        <ele>2173.6000976562</ele>
        <time>2023-08-11T09:33:51.000Z</time>
      </trkpt>
      <trkpt lat="45.23753" lon="6.08308">
        <ele>2173.6000976562</ele>
        <time>2023-08-11T09:33:54.000Z</time>
      </trkpt>
      <trkpt lat="45.2375" lon="6.08312">
        <ele>2173.6000976562</ele>
        <time>2023-08-11T09:33:59.000Z</time>
      </trkpt>
      <trkpt lat="45.23747" lon="6.08314">
        <ele>2174.1999511719</ele>
        <time>2023-08-11T09:34:09.000Z</time>
      </trkpt>
      <trkpt lat="45.23746" lon="6.08311">
        <ele>2174</ele>
        <time>2023-08-11T09:34:18.000Z</time>
      </trkpt>
      <trkpt lat="45.23746" lon="6.08313">
        <ele>2174</ele>
        <time>2023-08-11T09:34:26.000Z</time>
      </trkpt>
      <trkpt lat="45.23751" lon="6.08311">
        <ele>2174</ele>
        <time>2023-08-11T09:34:33.000Z</time>
      </trkpt>
      <trkpt lat="45.23752" lon="6.08304">
        <ele>2173.3999023438</ele>
        <time>2023-08-11T09:34:40.000Z</time>
      </trkpt>
      <trkpt lat="45.23748" lon="6.08296">
        <ele>2173.1999511719</ele>
        <time>2023-08-11T09:34:47.000Z</time>
      </trkpt>
      <trkpt lat="45.23739" lon="6.08294">
        <ele>2173.6000976562</ele>
        <time>2023-08-11T09:34:54.000Z</time>
      </trkpt>
      <trkpt lat="45.23731" lon="6.08291">
        <ele>2173.8000488281</ele>
        <time>2023-08-11T09:35:01.000Z</time>
      </trkpt>
      <trkpt lat="45.23727" lon="6.08284">
        <ele>2173.8000488281</ele>
        <time>2023-08-11T09:35:07.000Z</time>
      </trkpt>
      <trkpt lat="45.23723" lon="6.0828">
        <ele>2174</ele>
        <time>2023-08-11T09:35:14.000Z</time>
      </trkpt>
      <trkpt lat="45.23715" lon="6.08276">
        <ele>2174.3999023438</ele>
        <time>2023-08-11T09:35:21.000Z</time>
      </trkpt>
      <trkpt lat="45.23707" lon="6.08268">
        <ele>2174.6000976562</ele>
        <time>2023-08-11T09:35:29.000Z</time>
      </trkpt>
      <trkpt lat="45.23706" lon="6.08269">
        <ele>2174.6000976562</ele>
        <time>2023-08-11T09:35:31.000Z</time>
      </trkpt>
      <trkpt lat="45.23702" lon="6.08271">
        <ele>2174.8000488281</ele>
        <time>2023-08-11T09:35:36.000Z</time>
      </trkpt>
      <trkpt lat="45.23702" lon="6.08269">
        <ele>2174.8000488281</ele>
        <time>2023-08-11T09:35:42.000Z</time>
      </trkpt>
      <trkpt lat="45.23702" lon="6.08269">
        <ele>2174.8000488281</ele>
        <time>2023-08-11T09:35:44.000Z</time>
      </trkpt>
      <trkpt lat="45.23702" lon="6.08273">
        <ele>2174.8000488281</ele>
        <time>2023-08-11T09:35:50.000Z</time>
      </trkpt>
      <trkpt lat="45.23703" lon="6.08275">
        <ele>2175</ele>
        <time>2023-08-11T09:35:58.000Z</time>
      </trkpt>
      <trkpt lat="45.237" lon="6.08271">
        <ele>2175</ele>
        <time>2023-08-11T09:36:05.000Z</time>
      </trkpt>
      <trkpt lat="45.23696" lon="6.08264">
        <ele>2175.1999511719</ele>
        <time>2023-08-11T09:36:11.000Z</time>
      </trkpt>
      <trkpt lat="45.23693" lon="6.08256">
        <ele>2175.6000976562</ele>
        <time>2023-08-11T09:36:19.000Z</time>
      </trkpt>
      <trkpt lat="45.2369" lon="6.08253">
        <ele>2175.8000488281</ele>
        <time>2023-08-11T09:36:22.000Z</time>
      </trkpt>
      <trkpt lat="45.23687" lon="6.08249">
        <ele>2176</ele>
        <time>2023-08-11T09:36:26.000Z</time>
      </trkpt>
      <trkpt lat="45.23683" lon="6.08248">
        <ele>2176.6000976562</ele>
        <time>2023-08-11T09:36:32.000Z</time>
      </trkpt>
      <trkpt lat="45.2368" lon="6.08247">
        <ele>2176.8000488281</ele>
        <time>2023-08-11T09:36:35.000Z</time>
      </trkpt>
      <trkpt lat="45.23677" lon="6.08246">
        <ele>2177.1999511719</ele>
        <time>2023-08-11T09:36:39.000Z</time>
      </trkpt>
      <trkpt lat="45.23677" lon="6.08245">
        <ele>2177.6000976562</ele>
        <time>2023-08-11T09:36:46.000Z</time>
      </trkpt>
      <trkpt lat="45.23675" lon="6.08244">
        <ele>2177.8000488281</ele>
        <time>2023-08-11T09:36:56.000Z</time>
      </trkpt>
      <trkpt lat="45.23678" lon="6.08244">
        <ele>2177.8000488281</ele>
        <time>2023-08-11T09:37:03.000Z</time>
      </trkpt>
      <trkpt lat="45.23679" lon="6.08235">
        <ele>2177.3999023438</ele>
        <time>2023-08-11T09:37:09.000Z</time>
      </trkpt>
      <trkpt lat="45.23679" lon="6.08228">
        <ele>2177.6000976562</ele>
        <time>2023-08-11T09:37:16.000Z</time>
      </trkpt>
      <trkpt lat="45.23678" lon="6.08223">
        <ele>2178</ele>
        <time>2023-08-11T09:37:23.000Z</time>
      </trkpt>
      <trkpt lat="45.23675" lon="6.08223">
        <ele>2178</ele>
        <time>2023-08-11T09:37:30.000Z</time>
      </trkpt>
      <trkpt lat="45.23673" lon="6.08218">
        <ele>2178.1999511719</ele>
        <time>2023-08-11T09:37:37.000Z</time>
      </trkpt>
      <trkpt lat="45.2367" lon="6.08214">
        <ele>2178.8000488281</ele>
        <time>2023-08-11T09:37:43.000Z</time>
      </trkpt>
      <trkpt lat="45.2367" lon="6.08213">
        <ele>2178.8000488281</ele>
        <time>2023-08-11T09:37:45.000Z</time>
      </trkpt>
      <trkpt lat="45.23668" lon="6.08208">
        <ele>2179.8000488281</ele>
        <time>2023-08-11T09:37:51.000Z</time>
      </trkpt>
      <trkpt lat="45.23668" lon="6.08208">
        <ele>2179.8000488281</ele>
        <time>2023-08-11T09:37:52.000Z</time>
      </trkpt>
      <trkpt lat="45.23671" lon="6.08201">
        <ele>2180.8000488281</ele>
        <time>2023-08-11T09:38:00.000Z</time>
      </trkpt>
      <trkpt lat="45.23672" lon="6.082">
        <ele>2180.8000488281</ele>
        <time>2023-08-11T09:38:01.000Z</time>
      </trkpt>
      <trkpt lat="45.23672" lon="6.08193">
        <ele>2181.6000976562</ele>
        <time>2023-08-11T09:38:07.000Z</time>
      </trkpt>
      <trkpt lat="45.23672" lon="6.08191">
        <ele>2182</ele>
        <time>2023-08-11T09:38:09.000Z</time>
      </trkpt>
      <trkpt lat="45.23674" lon="6.08188">
        <ele>2182.8000488281</ele>
        <time>2023-08-11T09:38:18.000Z</time>
      </trkpt>
      <trkpt lat="45.23676" lon="6.08185">
        <ele>2183</ele>
        <time>2023-08-11T09:38:22.000Z</time>
      </trkpt>
      <trkpt lat="45.23677" lon="6.08184">
        <ele>2183</ele>
        <time>2023-08-11T09:38:24.000Z</time>
      </trkpt>
      <trkpt lat="45.23678" lon="6.0818">
        <ele>2183.3999023438</ele>
        <time>2023-08-11T09:38:31.000Z</time>
      </trkpt>
      <trkpt lat="45.23679" lon="6.08175">
        <ele>2184</ele>
        <time>2023-08-11T09:38:35.000Z</time>
      </trkpt>
      <trkpt lat="45.23679" lon="6.08174">
        <ele>2184.3999023438</ele>
        <time>2023-08-11T09:38:38.000Z</time>
      </trkpt>
      <trkpt lat="45.2368" lon="6.08171">
        <ele>2185.1999511719</ele>
        <time>2023-08-11T09:38:42.000Z</time>
      </trkpt>
      <trkpt lat="45.2368" lon="6.0817">
        <ele>2185.6000976562</ele>
        <time>2023-08-11T09:38:44.000Z</time>
      </trkpt>
      <trkpt lat="45.23679" lon="6.08165">
        <ele>2186.1999511719</ele>
        <time>2023-08-11T09:38:49.000Z</time>
      </trkpt>
      <trkpt lat="45.23679" lon="6.0816">
        <ele>2186.6000976562</ele>
        <time>2023-08-11T09:38:53.000Z</time>
      </trkpt>
      <trkpt lat="45.23676" lon="6.0815">
        <ele>2187</ele>
        <time>2023-08-11T09:38:59.000Z</time>
      </trkpt>
      <trkpt lat="45.23674" lon="6.08145">
        <ele>2187</ele>
        <time>2023-08-11T09:39:05.000Z</time>
      </trkpt>
      <trkpt lat="45.23672" lon="6.08141">
        <ele>2187.1999511719</ele>
        <time>2023-08-11T09:39:11.000Z</time>
      </trkpt>
      <trkpt lat="45.23671" lon="6.08138">
        <ele>2187.1999511719</ele>
        <time>2023-08-11T09:39:19.000Z</time>
      </trkpt>
      <trkpt lat="45.23674" lon="6.08137">
        <ele>2187.1999511719</ele>
        <time>2023-08-11T09:39:28.000Z</time>
      </trkpt>
      <trkpt lat="45.23672" lon="6.08135">
        <ele>2187.1999511719</ele>
        <time>2023-08-11T09:39:35.000Z</time>
      </trkpt>
      <trkpt lat="45.23669" lon="6.08126">
        <ele>2187.6000976562</ele>
        <time>2023-08-11T09:39:43.000Z</time>
      </trkpt>
      <trkpt lat="45.23666" lon="6.08116">
        <ele>2187.6000976562</ele>
        <time>2023-08-11T09:39:49.000Z</time>
      </trkpt>
      <trkpt lat="45.23663" lon="6.08109">
        <ele>2188.1999511719</ele>
        <time>2023-08-11T09:39:57.000Z</time>
      </trkpt>
      <trkpt lat="45.23659" lon="6.08104">
        <ele>2189.1999511719</ele>
        <time>2023-08-11T09:40:04.000Z</time>
      </trkpt>
      <trkpt lat="45.23655" lon="6.08098">
        <ele>2189.8000488281</ele>
        <time>2023-08-11T09:40:10.000Z</time>
      </trkpt>
      <trkpt lat="45.23648" lon="6.08092">
        <ele>2190.1999511719</ele>
        <time>2023-08-11T09:40:19.000Z</time>
      </trkpt>
      <trkpt lat="45.23648" lon="6.08091">
        <ele>2190.3999023438</ele>
        <time>2023-08-11T09:40:20.000Z</time>
      </trkpt>
      <trkpt lat="45.23648" lon="6.08086">
        <ele>2190.8000488281</ele>
        <time>2023-08-11T09:40:25.000Z</time>
      </trkpt>
      <trkpt lat="45.23647" lon="6.08074">
        <ele>2191.1999511719</ele>
        <time>2023-08-11T09:40:31.000Z</time>
      </trkpt>
      <trkpt lat="45.23645" lon="6.0807">
        <ele>2191.3999023438</ele>
        <time>2023-08-11T09:40:34.000Z</time>
      </trkpt>
      <trkpt lat="45.23642" lon="6.08066">
        <ele>2191.3999023438</ele>
        <time>2023-08-11T09:40:40.000Z</time>
      </trkpt>
      <trkpt lat="45.23638" lon="6.08062">
        <ele>2191.6000976562</ele>
        <time>2023-08-11T09:40:46.000Z</time>
      </trkpt>
      <trkpt lat="45.23635" lon="6.08058">
        <ele>2191.6000976562</ele>
        <time>2023-08-11T09:40:52.000Z</time>
      </trkpt>
      <trkpt lat="45.23631" lon="6.08048">
        <ele>2192.1999511719</ele>
        <time>2023-08-11T09:41:01.000Z</time>
      </trkpt>
      <trkpt lat="45.2363" lon="6.08046">
        <ele>2192.3999023438</ele>
        <time>2023-08-11T09:41:03.000Z</time>
      </trkpt>
      <trkpt lat="45.23629" lon="6.08042">
        <ele>2193</ele>
        <time>2023-08-11T09:41:09.000Z</time>
      </trkpt>
      <trkpt lat="45.23624" lon="6.08035">
        <ele>2193.3999023438</ele>
        <time>2023-08-11T09:41:17.000Z</time>
      </trkpt>
      <trkpt lat="45.23622" lon="6.08031">
        <ele>2193.3999023438</ele>
        <time>2023-08-11T09:41:21.000Z</time>
      </trkpt>
      <trkpt lat="45.2362" lon="6.08029">
        <ele>2194</ele>
        <time>2023-08-11T09:41:26.000Z</time>
      </trkpt>
      <trkpt lat="45.23615" lon="6.08025">
        <ele>2194</ele>
        <time>2023-08-11T09:41:33.000Z</time>
      </trkpt>
      <trkpt lat="45.23613" lon="6.08019">
        <ele>2194</ele>
        <time>2023-08-11T09:41:40.000Z</time>
      </trkpt>
      <trkpt lat="45.2361" lon="6.08012">
        <ele>2193.8000488281</ele>
        <time>2023-08-11T09:41:46.000Z</time>
      </trkpt>
      <trkpt lat="45.23608" lon="6.08008">
        <ele>2194</ele>
        <time>2023-08-11T09:41:52.000Z</time>
      </trkpt>
      <trkpt lat="45.23608" lon="6.08009">
        <ele>2194</ele>
        <time>2023-08-11T09:41:57.000Z</time>
      </trkpt>
      <trkpt lat="45.23609" lon="6.08009">
        <ele>2194</ele>
        <time>2023-08-11T09:42:01.000Z</time>
      </trkpt>
      <trkpt lat="45.23604" lon="6.08006">
        <ele>2194.1999511719</ele>
        <time>2023-08-11T09:42:07.000Z</time>
      </trkpt>
      <trkpt lat="45.23601" lon="6.08006">
        <ele>2194.3999023438</ele>
        <time>2023-08-11T09:42:09.000Z</time>
      </trkpt>
      <trkpt lat="45.23595" lon="6.08005">
        <ele>2195</ele>
        <time>2023-08-11T09:42:15.000Z</time>
      </trkpt>
      <trkpt lat="45.23593" lon="6.08004">
        <ele>2195.6000976562</ele>
        <time>2023-08-11T09:42:19.000Z</time>
      </trkpt>
      <trkpt lat="45.23591" lon="6.08001">
        <ele>2196.1999511719</ele>
        <time>2023-08-11T09:42:24.000Z</time>
      </trkpt>
      <trkpt lat="45.23589" lon="6.08001">
        <ele>2196.6000976562</ele>
        <time>2023-08-11T09:42:27.000Z</time>
      </trkpt>
      <trkpt lat="45.23587" lon="6.07998">
        <ele>2196.8000488281</ele>
        <time>2023-08-11T09:42:30.000Z</time>
      </trkpt>
      <trkpt lat="45.23583" lon="6.07991">
        <ele>2197</ele>
        <time>2023-08-11T09:42:37.000Z</time>
      </trkpt>
      <trkpt lat="45.23581" lon="6.07987">
        <ele>2197.8000488281</ele>
        <time>2023-08-11T09:42:44.000Z</time>
      </trkpt>
      <trkpt lat="45.23581" lon="6.07986">
        <ele>2197.8000488281</ele>
        <time>2023-08-11T09:42:45.000Z</time>
      </trkpt>
      <trkpt lat="45.23577" lon="6.07979">
        <ele>2198.3999023438</ele>
        <time>2023-08-11T09:42:54.000Z</time>
      </trkpt>
      <trkpt lat="45.23575" lon="6.07975">
        <ele>2198.8000488281</ele>
        <time>2023-08-11T09:42:58.000Z</time>
      </trkpt>
      <trkpt lat="45.23573" lon="6.07971">
        <ele>2199.1999511719</ele>
        <time>2023-08-11T09:43:02.000Z</time>
      </trkpt>
      <trkpt lat="45.23572" lon="6.07968">
        <ele>2199.3999023438</ele>
        <time>2023-08-11T09:43:08.000Z</time>
      </trkpt>
      <trkpt lat="45.23568" lon="6.07962">
        <ele>2199.1999511719</ele>
        <time>2023-08-11T09:43:16.000Z</time>
      </trkpt>
      <trkpt lat="45.23566" lon="6.07956">
        <ele>2198.8000488281</ele>
        <time>2023-08-11T09:43:22.000Z</time>
      </trkpt>
      <trkpt lat="45.23563" lon="6.07953">
        <ele>2198.3999023438</ele>
        <time>2023-08-11T09:43:29.000Z</time>
      </trkpt>
      <trkpt lat="45.23556" lon="6.07952">
        <ele>2197.8000488281</ele>
        <time>2023-08-11T09:43:37.000Z</time>
      </trkpt>
      <trkpt lat="45.23553" lon="6.07949">
        <ele>2197</ele>
        <time>2023-08-11T09:43:44.000Z</time>
      </trkpt>
      <trkpt lat="45.23553" lon="6.07948">
        <ele>2196.8000488281</ele>
        <time>2023-08-11T09:43:47.000Z</time>
      </trkpt>
      <trkpt lat="45.23549" lon="6.07948">
        <ele>2195.6000976562</ele>
        <time>2023-08-11T09:43:54.000Z</time>
      </trkpt>
      <trkpt lat="45.23548" lon="6.07947">
        <ele>2195.3999023438</ele>
        <time>2023-08-11T09:43:55.000Z</time>
      </trkpt>
      <trkpt lat="45.23548" lon="6.07945">
        <ele>2195</ele>
        <time>2023-08-11T09:44:02.000Z</time>
      </trkpt>
      <trkpt lat="45.23546" lon="6.0794">
        <ele>2195</ele>
        <time>2023-08-11T09:44:10.000Z</time>
      </trkpt>
      <trkpt lat="45.23545" lon="6.07937">
        <ele>2194.6000976562</ele>
        <time>2023-08-11T09:44:13.000Z</time>
      </trkpt>
      <trkpt lat="45.23543" lon="6.07933">
        <ele>2194.6000976562</ele>
        <time>2023-08-11T09:44:16.000Z</time>
      </trkpt>
      <trkpt lat="45.23538" lon="6.07927">
        <ele>2194.8000488281</ele>
        <time>2023-08-11T09:44:25.000Z</time>
      </trkpt>
      <trkpt lat="45.23534" lon="6.07922">
        <ele>2194.1999511719</ele>
        <time>2023-08-11T09:44:33.000Z</time>
      </trkpt>
      <trkpt lat="45.23527" lon="6.07918">
        <ele>2194.1999511719</ele>
        <time>2023-08-11T09:44:40.000Z</time>
      </trkpt>
      <trkpt lat="45.23521" lon="6.07915">
        <ele>2194.1999511719</ele>
        <time>2023-08-11T09:44:47.000Z</time>
      </trkpt>
      <trkpt lat="45.23521" lon="6.07915">
        <ele>2193.6000976562</ele>
        <time>2023-08-11T09:44:50.000Z</time>
      </trkpt>
      <trkpt lat="45.2352" lon="6.07915">
        <ele>2193.3999023438</ele>
        <time>2023-08-11T09:44:52.000Z</time>
      </trkpt>
      <trkpt lat="45.2352" lon="6.07914">
        <ele>2193.1999511719</ele>
        <time>2023-08-11T09:45:01.000Z</time>
      </trkpt>
      <trkpt lat="45.23519" lon="6.0791">
        <ele>2193.3999023438</ele>
        <time>2023-08-11T09:45:09.000Z</time>
      </trkpt>
      <trkpt lat="45.23515" lon="6.07905">
        <ele>2193.1999511719</ele>
        <time>2023-08-11T09:45:15.000Z</time>
      </trkpt>
      <trkpt lat="45.23512" lon="6.07902">
        <ele>2193</ele>
        <time>2023-08-11T09:45:21.000Z</time>
      </trkpt>
      <trkpt lat="45.23508" lon="6.07898">
        <ele>2193</ele>
        <time>2023-08-11T09:45:27.000Z</time>
      </trkpt>
      <trkpt lat="45.23506" lon="6.07898">
        <ele>2192.6000976562</ele>
        <time>2023-08-11T09:45:32.000Z</time>
      </trkpt>
      <trkpt lat="45.23504" lon="6.07898">
        <ele>2192</ele>
        <time>2023-08-11T09:45:35.000Z</time>
      </trkpt>
      <trkpt lat="45.23502" lon="6.07899">
        <ele>2191.3999023438</ele>
        <time>2023-08-11T09:45:38.000Z</time>
      </trkpt>
      <trkpt lat="45.23502" lon="6.07899">
        <ele>2191</ele>
        <time>2023-08-11T09:45:40.000Z</time>
      </trkpt>
      <trkpt lat="45.23499" lon="6.07895">
        <ele>2190.8000488281</ele>
        <time>2023-08-11T09:45:47.000Z</time>
      </trkpt>
      <trkpt lat="45.23496" lon="6.07886">
        <ele>2191.1999511719</ele>
        <time>2023-08-11T09:45:54.000Z</time>
      </trkpt>
      <trkpt lat="45.23492" lon="6.07877">
        <ele>2191.6000976562</ele>
        <time>2023-08-11T09:46:03.000Z</time>
      </trkpt>
      <trkpt lat="45.23489" lon="6.07869">
        <ele>2192.6000976562</ele>
        <time>2023-08-11T09:46:10.000Z</time>
      </trkpt>
      <trkpt lat="45.23486" lon="6.07862">
        <ele>2193</ele>
        <time>2023-08-11T09:46:17.000Z</time>
      </trkpt>
      <trkpt lat="45.23483" lon="6.07857">
        <ele>2193.6000976562</ele>
        <time>2023-08-11T09:46:24.000Z</time>
      </trkpt>
      <trkpt lat="45.2348" lon="6.07855">
        <ele>2194.1999511719</ele>
        <time>2023-08-11T09:46:31.000Z</time>
      </trkpt>
      <trkpt lat="45.23474" lon="6.07852">
        <ele>2194</ele>
        <time>2023-08-11T09:46:39.000Z</time>
      </trkpt>
      <trkpt lat="45.2347" lon="6.07847">
        <ele>2193.6000976562</ele>
        <time>2023-08-11T09:46:46.000Z</time>
      </trkpt>
      <trkpt lat="45.23469" lon="6.07844">
        <ele>2193.8000488281</ele>
        <time>2023-08-11T09:46:53.000Z</time>
      </trkpt>
      <trkpt lat="45.2347" lon="6.07844">
        <ele>2194</ele>
        <time>2023-08-11T09:47:00.000Z</time>
      </trkpt>
      <trkpt lat="45.23462" lon="6.07838">
        <ele>2194.1999511719</ele>
        <time>2023-08-11T09:47:07.000Z</time>
      </trkpt>
      <trkpt lat="45.2346" lon="6.07837">
        <ele>2194.6000976562</ele>
        <time>2023-08-11T09:47:10.000Z</time>
      </trkpt>
      <trkpt lat="45.2346" lon="6.07837">
        <ele>2195.1999511719</ele>
        <time>2023-08-11T09:47:13.000Z</time>
      </trkpt>
      <trkpt lat="45.23458" lon="6.07834">
        <ele>2195.6000976562</ele>
        <time>2023-08-11T09:47:16.000Z</time>
      </trkpt>
      <trkpt lat="45.23457" lon="6.07834">
        <ele>2196</ele>
        <time>2023-08-11T09:47:19.000Z</time>
      </trkpt>
      <trkpt lat="45.23455" lon="6.07827">
        <ele>2196.8000488281</ele>
        <time>2023-08-11T09:47:26.000Z</time>
      </trkpt>
      <trkpt lat="45.23455" lon="6.07826">
        <ele>2197</ele>
        <time>2023-08-11T09:47:27.000Z</time>
      </trkpt>
      <trkpt lat="45.23452" lon="6.07819">
        <ele>2198</ele>
        <time>2023-08-11T09:47:34.000Z</time>
      </trkpt>
      <trkpt lat="45.23448" lon="6.0781">
        <ele>2198.3999023438</ele>
        <time>2023-08-11T09:47:42.000Z</time>
      </trkpt>
      <trkpt lat="45.23448" lon="6.07803">
        <ele>2198.8000488281</ele>
        <time>2023-08-11T09:47:49.000Z</time>
      </trkpt>
      <trkpt lat="45.23447" lon="6.07799">
        <ele>2199</ele>
        <time>2023-08-11T09:47:53.000Z</time>
      </trkpt>
      <trkpt lat="45.23444" lon="6.07796">
        <ele>2199.3999023438</ele>
        <time>2023-08-11T09:47:57.000Z</time>
      </trkpt>
      <trkpt lat="45.23439" lon="6.07783">
        <ele>2199.8000488281</ele>
        <time>2023-08-11T09:48:07.000Z</time>
      </trkpt>
      <trkpt lat="45.23437" lon="6.07774">
        <ele>2200</ele>
        <time>2023-08-11T09:48:15.000Z</time>
      </trkpt>
      <trkpt lat="45.23437" lon="6.07772">
        <ele>2200.1999511719</ele>
        <time>2023-08-11T09:48:16.000Z</time>
      </trkpt>
      <trkpt lat="45.23438" lon="6.07768">
        <ele>2200.3999023438</ele>
        <time>2023-08-11T09:48:23.000Z</time>
      </trkpt>
      <trkpt lat="45.23438" lon="6.07769">
        <ele>2200.3999023438</ele>
        <time>2023-08-11T09:48:31.000Z</time>
      </trkpt>
      <trkpt lat="45.23438" lon="6.07768">
        <ele>2200.3999023438</ele>
        <time>2023-08-11T09:48:41.000Z</time>
      </trkpt>
      <trkpt lat="45.2344" lon="6.07761">
        <ele>2200.6000976562</ele>
        <time>2023-08-11T09:48:49.000Z</time>
      </trkpt>
      <trkpt lat="45.23438" lon="6.0775">
        <ele>2200.6000976562</ele>
        <time>2023-08-11T09:48:56.000Z</time>
      </trkpt>
      <trkpt lat="45.23437" lon="6.07748">
        <ele>2200.3999023438</ele>
        <time>2023-08-11T09:49:02.000Z</time>
      </trkpt>
      <trkpt lat="45.23434" lon="6.07741">
        <ele>2199.1999511719</ele>
        <time>2023-08-11T09:49:09.000Z</time>
      </trkpt>
      <trkpt lat="45.23432" lon="6.07737">
        <ele>2198.6000976562</ele>
        <time>2023-08-11T09:49:15.000Z</time>
      </trkpt>
      <trkpt lat="45.23429" lon="6.07731">
        <ele>2198</ele>
        <time>2023-08-11T09:49:21.000Z</time>
      </trkpt>
      <trkpt lat="45.23428" lon="6.0773">
        <ele>2197.8000488281</ele>
        <time>2023-08-11T09:49:23.000Z</time>
      </trkpt>
      <trkpt lat="45.23425" lon="6.07726">
        <ele>2196.8000488281</ele>
        <time>2023-08-11T09:49:30.000Z</time>
      </trkpt>
      <trkpt lat="45.23425" lon="6.07724">
        <ele>2196.6000976562</ele>
        <time>2023-08-11T09:49:32.000Z</time>
      </trkpt>
      <trkpt lat="45.23424" lon="6.07718">
        <ele>2196.6000976562</ele>
        <time>2023-08-11T09:49:40.000Z</time>
      </trkpt>
      <trkpt lat="45.23422" lon="6.07713">
        <ele>2196.6000976562</ele>
        <time>2023-08-11T09:49:47.000Z</time>
      </trkpt>
      <trkpt lat="45.23417" lon="6.07706">
        <ele>2196.6000976562</ele>
        <time>2023-08-11T09:49:54.000Z</time>
      </trkpt>
      <trkpt lat="45.23411" lon="6.077">
        <ele>2196.8000488281</ele>
        <time>2023-08-11T09:50:02.000Z</time>
      </trkpt>
      <trkpt lat="45.23406" lon="6.07693">
        <ele>2196.3999023438</ele>
        <time>2023-08-11T09:50:09.000Z</time>
      </trkpt>
      <trkpt lat="45.23402" lon="6.0769">
        <ele>2195.8000488281</ele>
        <time>2023-08-11T09:50:16.000Z</time>
      </trkpt>
      <trkpt lat="45.23402" lon="6.07691">
        <ele>2195.3999023438</ele>
        <time>2023-08-11T09:50:21.000Z</time>
      </trkpt>
      <trkpt lat="45.23401" lon="6.07691">
        <ele>2195.3999023438</ele>
        <time>2023-08-11T09:50:22.000Z</time>
      </trkpt>
      <trkpt lat="45.23396" lon="6.07685">
        <ele>2195</ele>
        <time>2023-08-11T09:50:28.000Z</time>
      </trkpt>
      <trkpt lat="45.23394" lon="6.07682">
        <ele>2194.6000976562</ele>
        <time>2023-08-11T09:50:31.000Z</time>
      </trkpt>
      <trkpt lat="45.23392" lon="6.07678">
        <ele>2194.3999023438</ele>
        <time>2023-08-11T09:50:36.000Z</time>
      </trkpt>
      <trkpt lat="45.23384" lon="6.07672">
        <ele>2194.1999511719</ele>
        <time>2023-08-11T09:50:44.000Z</time>
      </trkpt>
      <trkpt lat="45.2338" lon="6.07667">
        <ele>2193.6000976562</ele>
        <time>2023-08-11T09:50:48.000Z</time>
      </trkpt>
      <trkpt lat="45.23378" lon="6.07666">
        <ele>2193.6000976562</ele>
        <time>2023-08-11T09:50:51.000Z</time>
      </trkpt>
      <trkpt lat="45.23374" lon="6.07661">
        <ele>2192.6000976562</ele>
        <time>2023-08-11T09:50:57.000Z</time>
      </trkpt>
      <trkpt lat="45.23374" lon="6.0766">
        <ele>2192.3999023438</ele>
        <time>2023-08-11T09:50:58.000Z</time>
      </trkpt>
      <trkpt lat="45.23368" lon="6.07655">
        <ele>2191.8000488281</ele>
        <time>2023-08-11T09:51:06.000Z</time>
      </trkpt>
      <trkpt lat="45.23363" lon="6.07652">
        <ele>2191.3999023438</ele>
        <time>2023-08-11T09:51:10.000Z</time>
      </trkpt>
      <trkpt lat="45.23361" lon="6.07651">
        <ele>2191.1999511719</ele>
        <time>2023-08-11T09:51:12.000Z</time>
      </trkpt>
      <trkpt lat="45.23354" lon="6.07647">
        <ele>2191.1999511719</ele>
        <time>2023-08-11T09:51:20.000Z</time>
      </trkpt>
      <trkpt lat="45.23348" lon="6.07646">
        <ele>2190.3999023438</ele>
        <time>2023-08-11T09:51:26.000Z</time>
      </trkpt>
      <trkpt lat="45.23342" lon="6.07638">
        <ele>2189.6000976562</ele>
        <time>2023-08-11T09:51:34.000Z</time>
      </trkpt>
      <trkpt lat="45.23337" lon="6.07627">
        <ele>2190</ele>
        <time>2023-08-11T09:51:43.000Z</time>
      </trkpt>
      <trkpt lat="45.23334" lon="6.07621">
        <ele>2189.1999511719</ele>
        <time>2023-08-11T09:51:48.000Z</time>
      </trkpt>
      <trkpt lat="45.23331" lon="6.07615">
        <ele>2188.8000488281</ele>
        <time>2023-08-11T09:51:52.000Z</time>
      </trkpt>
      <trkpt lat="45.23329" lon="6.0761">
        <ele>2188.1999511719</ele>
        <time>2023-08-11T09:51:56.000Z</time>
      </trkpt>
      <trkpt lat="45.23329" lon="6.07609">
        <ele>2188.1999511719</ele>
        <time>2023-08-11T09:51:57.000Z</time>
      </trkpt>
      <trkpt lat="45.23326" lon="6.07598">
        <ele>2187.3999023438</ele>
        <time>2023-08-11T09:52:05.000Z</time>
      </trkpt>
      <trkpt lat="45.23325" lon="6.07597">
        <ele>2187.1999511719</ele>
        <time>2023-08-11T09:52:06.000Z</time>
      </trkpt>
      <trkpt lat="45.23322" lon="6.07591">
        <ele>2186.1999511719</ele>
        <time>2023-08-11T09:52:12.000Z</time>
      </trkpt>
      <trkpt lat="45.2332" lon="6.07589">
        <ele>2186.1999511719</ele>
        <time>2023-08-11T09:52:14.000Z</time>
      </trkpt>
      <trkpt lat="45.23314" lon="6.07581">
        <ele>2185.8000488281</ele>
        <time>2023-08-11T09:52:21.000Z</time>
      </trkpt>
      <trkpt lat="45.2331" lon="6.07579">
        <ele>2185.8000488281</ele>
        <time>2023-08-11T09:52:26.000Z</time>
      </trkpt>
      <trkpt lat="45.23305" lon="6.0757">
        <ele>2186.1999511719</ele>
        <time>2023-08-11T09:52:34.000Z</time>
      </trkpt>
      <trkpt lat="45.23304" lon="6.07565">
        <ele>2187.1999511719</ele>
        <time>2023-08-11T09:52:40.000Z</time>
      </trkpt>
      <trkpt lat="45.23304" lon="6.07563">
        <ele>2187.3999023438</ele>
        <time>2023-08-11T09:52:41.000Z</time>
      </trkpt>
      <trkpt lat="45.23303" lon="6.07553">
        <ele>2188</ele>
        <time>2023-08-11T09:52:51.000Z</time>
      </trkpt>
      <trkpt lat="45.233" lon="6.07544">
        <ele>2187.1999511719</ele>
        <time>2023-08-11T09:52:58.000Z</time>
      </trkpt>
      <trkpt lat="45.233" lon="6.07544">
        <ele>2187</ele>
        <time>2023-08-11T09:53:05.000Z</time>
      </trkpt>
      <trkpt lat="45.233" lon="6.07545">
        <ele>2187</ele>
        <time>2023-08-11T09:53:14.000Z</time>
      </trkpt>
      <trkpt lat="45.23296" lon="6.07542">
        <ele>2187</ele>
        <time>2023-08-11T09:53:22.000Z</time>
      </trkpt>
      <trkpt lat="45.2329" lon="6.07538">
        <ele>2187.3999023438</ele>
        <time>2023-08-11T09:53:27.000Z</time>
      </trkpt>
      <trkpt lat="45.23285" lon="6.07534">
        <ele>2187.8000488281</ele>
        <time>2023-08-11T09:53:33.000Z</time>
      </trkpt>
      <trkpt lat="45.23279" lon="6.07528">
        <ele>2187.8000488281</ele>
        <time>2023-08-11T09:53:41.000Z</time>
      </trkpt>
      <trkpt lat="45.23274" lon="6.07528">
        <ele>2188.1999511719</ele>
        <time>2023-08-11T09:53:47.000Z</time>
      </trkpt>
      <trkpt lat="45.23266" lon="6.07524">
        <ele>2188.1999511719</ele>
        <time>2023-08-11T09:53:53.000Z</time>
      </trkpt>
      <trkpt lat="45.2326" lon="6.07518">
        <ele>2187.6000976562</ele>
        <time>2023-08-11T09:54:02.000Z</time>
      </trkpt>
      <trkpt lat="45.23254" lon="6.07516">
        <ele>2187.3999023438</ele>
        <time>2023-08-11T09:54:08.000Z</time>
      </trkpt>
      <trkpt lat="45.23248" lon="6.07513">
        <ele>2187.6000976562</ele>
        <time>2023-08-11T09:54:14.000Z</time>
      </trkpt>
      <trkpt lat="45.23243" lon="6.07512">
        <ele>2187.1999511719</ele>
        <time>2023-08-11T09:54:23.000Z</time>
      </trkpt>
      <trkpt lat="45.23239" lon="6.07508">
        <ele>2187.6000976562</ele>
        <time>2023-08-11T09:54:29.000Z</time>
      </trkpt>
      <trkpt lat="45.23239" lon="6.07504">
        <ele>2188.1999511719</ele>
        <time>2023-08-11T09:54:36.000Z</time>
      </trkpt>
      <trkpt lat="45.23239" lon="6.07501">
        <ele>2188.1999511719</ele>
        <time>2023-08-11T09:54:38.000Z</time>
      </trkpt>
      <trkpt lat="45.23241" lon="6.07492">
        <ele>2189.1999511719</ele>
        <time>2023-08-11T09:54:47.000Z</time>
      </trkpt>
      <trkpt lat="45.23242" lon="6.07491">
        <ele>2189.3999023438</ele>
        <time>2023-08-11T09:54:48.000Z</time>
      </trkpt>
      <trkpt lat="45.23242" lon="6.07482">
        <ele>2190.1999511719</ele>
        <time>2023-08-11T09:54:56.000Z</time>
      </trkpt>
      <trkpt lat="45.23242" lon="6.07481">
        <ele>2190.3999023438</ele>
        <time>2023-08-11T09:54:57.000Z</time>
      </trkpt>
      <trkpt lat="45.2324" lon="6.07476">
        <ele>2191.3999023438</ele>
        <time>2023-08-11T09:55:04.000Z</time>
      </trkpt>
      <trkpt lat="45.23239" lon="6.07474">
        <ele>2191.3999023438</ele>
        <time>2023-08-11T09:55:05.000Z</time>
      </trkpt>
      <trkpt lat="45.23235" lon="6.07464">
        <ele>2192.1999511719</ele>
        <time>2023-08-11T09:55:11.000Z</time>
      </trkpt>
      <trkpt lat="45.23235" lon="6.07462">
        <ele>2192.6000976562</ele>
        <time>2023-08-11T09:55:13.000Z</time>
      </trkpt>
      <trkpt lat="45.23232" lon="6.07459">
        <ele>2193.1999511719</ele>
        <time>2023-08-11T09:55:18.000Z</time>
      </trkpt>
      <trkpt lat="45.23229" lon="6.07457">
        <ele>2193.6000976562</ele>
        <time>2023-08-11T09:55:22.000Z</time>
      </trkpt>
      <trkpt lat="45.23226" lon="6.07455">
        <ele>2193.8000488281</ele>
        <time>2023-08-11T09:55:25.000Z</time>
      </trkpt>
      <trkpt lat="45.23223" lon="6.07453">
        <ele>2194.3999023438</ele>
        <time>2023-08-11T09:55:32.000Z</time>
      </trkpt>
      <trkpt lat="45.23223" lon="6.07452">
        <ele>2194.6000976562</ele>
        <time>2023-08-11T09:55:34.000Z</time>
      </trkpt>
      <trkpt lat="45.23222" lon="6.07453">
        <ele>2194.6000976562</ele>
        <time>2023-08-11T09:55:40.000Z</time>
      </trkpt>
      <trkpt lat="45.2322" lon="6.07451">
        <ele>2194.6000976562</ele>
        <time>2023-08-11T09:55:47.000Z</time>
      </trkpt>
      <trkpt lat="45.23217" lon="6.07449">
        <ele>2195</ele>
        <time>2023-08-11T09:55:54.000Z</time>
      </trkpt>
      <trkpt lat="45.23214" lon="6.07445">
        <ele>2195.6000976562</ele>
        <time>2023-08-11T09:55:58.000Z</time>
      </trkpt>
      <trkpt lat="45.23213" lon="6.07442">
        <ele>2196.3999023438</ele>
        <time>2023-08-11T09:56:03.000Z</time>
      </trkpt>
      <trkpt lat="45.23212" lon="6.07438">
        <ele>2196.8000488281</ele>
        <time>2023-08-11T09:56:07.000Z</time>
      </trkpt>
      <trkpt lat="45.23212" lon="6.07432">
        <ele>2197.1999511719</ele>
        <time>2023-08-11T09:56:13.000Z</time>
      </trkpt>
      <trkpt lat="45.23212" lon="6.07422">
        <ele>2197.8000488281</ele>
        <time>2023-08-11T09:56:21.000Z</time>
      </trkpt>
      <trkpt lat="45.23212" lon="6.07421">
        <ele>2197.8000488281</ele>
        <time>2023-08-11T09:56:22.000Z</time>
      </trkpt>
      <trkpt lat="45.2321" lon="6.07419">
        <ele>2198.1999511719</ele>
        <time>2023-08-11T09:56:29.000Z</time>
      </trkpt>
      <trkpt lat="45.2321" lon="6.0742">
        <ele>2198.1999511719</ele>
        <time>2023-08-11T09:56:37.000Z</time>
      </trkpt>
      <trkpt lat="45.23212" lon="6.07423">
        <ele>2198.1999511719</ele>
        <time>2023-08-11T09:56:44.000Z</time>
      </trkpt>
      <trkpt lat="45.23212" lon="6.07426">
        <ele>2198.1999511719</ele>
        <time>2023-08-11T09:56:51.000Z</time>
      </trkpt>
      <trkpt lat="45.23212" lon="6.0742">
        <ele>2198.1999511719</ele>
        <time>2023-08-11T09:57:00.000Z</time>
      </trkpt>
      <trkpt lat="45.23211" lon="6.07419">
        <ele>2198.8000488281</ele>
        <time>2023-08-11T09:57:07.000Z</time>
      </trkpt>
      <trkpt lat="45.23212" lon="6.0742">
        <ele>2198.8000488281</ele>
        <time>2023-08-11T09:57:15.000Z</time>
      </trkpt>
      <trkpt lat="45.23216" lon="6.07416">
        <ele>2198.6000976562</ele>
        <time>2023-08-11T09:57:21.000Z</time>
      </trkpt>
      <trkpt lat="45.23213" lon="6.07416">
        <ele>2198.1999511719</ele>
        <time>2023-08-11T09:57:28.000Z</time>
      </trkpt>
      <trkpt lat="45.23212" lon="6.0742">
        <ele>2198.1999511719</ele>
        <time>2023-08-11T09:57:35.000Z</time>
      </trkpt>
      <trkpt lat="45.23212" lon="6.07424">
        <ele>2198.3999023438</ele>
        <time>2023-08-11T09:57:44.000Z</time>
      </trkpt>
      <trkpt lat="45.23209" lon="6.07423">
        <ele>2198.3999023438</ele>
        <time>2023-08-11T09:57:54.000Z</time>
      </trkpt>
      <trkpt lat="45.23207" lon="6.0742">
        <ele>2198.3999023438</ele>
        <time>2023-08-11T09:58:01.000Z</time>
      </trkpt>
      <trkpt lat="45.23208" lon="6.07421">
        <ele>2198.3999023438</ele>
        <time>2023-08-11T09:58:10.000Z</time>
      </trkpt>
      <trkpt lat="45.23205" lon="6.07423">
        <ele>2198.3999023438</ele>
        <time>2023-08-11T09:58:16.000Z</time>
      </trkpt>
      <trkpt lat="45.23209" lon="6.07425">
        <ele>2198.3999023438</ele>
        <time>2023-08-11T09:58:24.000Z</time>
      </trkpt>
      <trkpt lat="45.23212" lon="6.07424">
        <ele>2198.3999023438</ele>
        <time>2023-08-11T09:58:32.000Z</time>
      </trkpt>
      <trkpt lat="45.23213" lon="6.07426">
        <ele>2198.6000976562</ele>
        <time>2023-08-11T09:58:40.000Z</time>
      </trkpt>
      <trkpt lat="45.23215" lon="6.07428">
        <ele>2198.3999023438</ele>
        <time>2023-08-11T09:58:47.000Z</time>
      </trkpt>
      <trkpt lat="45.23212" lon="6.07425">
        <ele>2198.3999023438</ele>
        <time>2023-08-11T09:58:54.000Z</time>
      </trkpt>
      <trkpt lat="45.23211" lon="6.07424">
        <ele>2198.3999023438</ele>
        <time>2023-08-11T09:59:00.000Z</time>
      </trkpt>
      <trkpt lat="45.23211" lon="6.07423">
        <ele>2198.3999023438</ele>
        <time>2023-08-11T09:59:09.000Z</time>
      </trkpt>
      <trkpt lat="45.23211" lon="6.07421">
        <ele>2198.3999023438</ele>
        <time>2023-08-11T09:59:21.000Z</time>
      </trkpt>
      <trkpt lat="45.23209" lon="6.07421">
        <ele>2198.6000976562</ele>
        <time>2023-08-11T09:59:29.000Z</time>
      </trkpt>
      <trkpt lat="45.23212" lon="6.0742">
        <ele>2198.3999023438</ele>
        <time>2023-08-11T09:59:37.000Z</time>
      </trkpt>
      <trkpt lat="45.23215" lon="6.07422">
        <ele>2198.1999511719</ele>
        <time>2023-08-11T09:59:44.000Z</time>
      </trkpt>
      <trkpt lat="45.23218" lon="6.07423">
        <ele>2198.1999511719</ele>
        <time>2023-08-11T09:59:53.000Z</time>
      </trkpt>
      <trkpt lat="45.23217" lon="6.07423">
        <ele>2198.1999511719</ele>
        <time>2023-08-11T10:00:01.000Z</time>
      </trkpt>
      <trkpt lat="45.23217" lon="6.07424">
        <ele>2198.1999511719</ele>
        <time>2023-08-11T10:00:08.000Z</time>
      </trkpt>
      <trkpt lat="45.23214" lon="6.07422">
        <ele>2198.1999511719</ele>
        <time>2023-08-11T10:00:16.000Z</time>
      </trkpt>
      <trkpt lat="45.23215" lon="6.07419">
        <ele>2198.3999023438</ele>
        <time>2023-08-11T10:00:24.000Z</time>
      </trkpt>
      <trkpt lat="45.23213" lon="6.07421">
        <ele>2198.3999023438</ele>
        <time>2023-08-11T10:00:33.000Z</time>
      </trkpt>
      <trkpt lat="45.23211" lon="6.07421">
        <ele>2198.3999023438</ele>
        <time>2023-08-11T10:00:42.000Z</time>
      </trkpt>
      <trkpt lat="45.23211" lon="6.07422">
        <ele>2198.3999023438</ele>
        <time>2023-08-11T10:00:50.000Z</time>
      </trkpt>
      <trkpt lat="45.23215" lon="6.07418">
        <ele>2198.6000976562</ele>
        <time>2023-08-11T10:00:57.000Z</time>
      </trkpt>
      <trkpt lat="45.23217" lon="6.07412">
        <ele>2199</ele>
        <time>2023-08-11T10:01:03.000Z</time>
      </trkpt>
      <trkpt lat="45.23219" lon="6.07404">
        <ele>2199.6000976562</ele>
        <time>2023-08-11T10:01:11.000Z</time>
      </trkpt>
      <trkpt lat="45.23219" lon="6.07401">
        <ele>2199.8000488281</ele>
        <time>2023-08-11T10:01:13.000Z</time>
      </trkpt>
      <trkpt lat="45.23221" lon="6.07393">
        <ele>2200.3999023438</ele>
        <time>2023-08-11T10:01:19.000Z</time>
      </trkpt>
      <trkpt lat="45.23222" lon="6.0739">
        <ele>2200.8000488281</ele>
        <time>2023-08-11T10:01:23.000Z</time>
      </trkpt>
      <trkpt lat="45.23224" lon="6.07384">
        <ele>2201.1999511719</ele>
        <time>2023-08-11T10:01:27.000Z</time>
      </trkpt>
      <trkpt lat="45.23225" lon="6.07377">
        <ele>2202</ele>
        <time>2023-08-11T10:01:35.000Z</time>
      </trkpt>
      <trkpt lat="45.23226" lon="6.07376">
        <ele>2202.1999511719</ele>
        <time>2023-08-11T10:01:36.000Z</time>
      </trkpt>
      <trkpt lat="45.23226" lon="6.07374">
        <ele>2202.8000488281</ele>
        <time>2023-08-11T10:01:43.000Z</time>
      </trkpt>
      <trkpt lat="45.23226" lon="6.07372">
        <ele>2203</ele>
        <time>2023-08-11T10:01:46.000Z</time>
      </trkpt>
      <trkpt lat="45.23226" lon="6.07369">
        <ele>2203.1999511719</ele>
        <time>2023-08-11T10:01:50.000Z</time>
      </trkpt>
      <trkpt lat="45.23225" lon="6.07363">
        <ele>2204</ele>
        <time>2023-08-11T10:01:56.000Z</time>
      </trkpt>
      <trkpt lat="45.23224" lon="6.07359">
        <ele>2204.3999023438</ele>
        <time>2023-08-11T10:01:59.000Z</time>
      </trkpt>
      <trkpt lat="45.23225" lon="6.07353">
        <ele>2205.1999511719</ele>
        <time>2023-08-11T10:02:05.000Z</time>
      </trkpt>
      <trkpt lat="45.23227" lon="6.07352">
        <ele>2205.1999511719</ele>
        <time>2023-08-11T10:02:08.000Z</time>
      </trkpt>
      <trkpt lat="45.2323" lon="6.07344">
        <ele>2205.8000488281</ele>
        <time>2023-08-11T10:02:16.000Z</time>
      </trkpt>
      <trkpt lat="45.2323" lon="6.07342">
        <ele>2206.1999511719</ele>
        <time>2023-08-11T10:02:19.000Z</time>
      </trkpt>
      <trkpt lat="45.23228" lon="6.0734">
        <ele>2206.8000488281</ele>
        <time>2023-08-11T10:02:23.000Z</time>
      </trkpt>
      <trkpt lat="45.23228" lon="6.07337">
        <ele>2207.1999511719</ele>
        <time>2023-08-11T10:02:26.000Z</time>
      </trkpt>
      <trkpt lat="45.23228" lon="6.07334">
        <ele>2207.8000488281</ele>
        <time>2023-08-11T10:02:30.000Z</time>
      </trkpt>
      <trkpt lat="45.2323" lon="6.07331">
        <ele>2208.1999511719</ele>
        <time>2023-08-11T10:02:34.000Z</time>
      </trkpt>
      <trkpt lat="45.23233" lon="6.07327">
        <ele>2209</ele>
        <time>2023-08-11T10:02:39.000Z</time>
      </trkpt>
      <trkpt lat="45.23234" lon="6.07325">
        <ele>2209.3999023438</ele>
        <time>2023-08-11T10:02:41.000Z</time>
      </trkpt>
      <trkpt lat="45.23234" lon="6.07323">
        <ele>2210</ele>
        <time>2023-08-11T10:02:46.000Z</time>
      </trkpt>
      <trkpt lat="45.23233" lon="6.07323">
        <ele>2210.3999023438</ele>
        <time>2023-08-11T10:02:48.000Z</time>
      </trkpt>
      <trkpt lat="45.2323" lon="6.07321">
        <ele>2211</ele>
        <time>2023-08-11T10:02:54.000Z</time>
      </trkpt>
      <trkpt lat="45.2323" lon="6.07321">
        <ele>2211.3999023438</ele>
        <time>2023-08-11T10:02:56.000Z</time>
      </trkpt>
      <trkpt lat="45.23229" lon="6.0732">
        <ele>2212.3999023438</ele>
        <time>2023-08-11T10:03:01.000Z</time>
      </trkpt>
      <trkpt lat="45.23228" lon="6.07319">
        <ele>2212.6000976562</ele>
        <time>2023-08-11T10:03:02.000Z</time>
      </trkpt>
      <trkpt lat="45.23227" lon="6.07314">
        <ele>2213.6000976562</ele>
        <time>2023-08-11T10:03:07.000Z</time>
      </trkpt>
      <trkpt lat="45.23227" lon="6.07312">
        <ele>2213.8000488281</ele>
        <time>2023-08-11T10:03:10.000Z</time>
      </trkpt>
      <trkpt lat="45.23227" lon="6.07308">
        <ele>2214.6000976562</ele>
        <time>2023-08-11T10:03:14.000Z</time>
      </trkpt>
      <trkpt lat="45.23227" lon="6.07306">
        <ele>2215.1999511719</ele>
        <time>2023-08-11T10:03:18.000Z</time>
      </trkpt>
      <trkpt lat="45.23226" lon="6.073">
        <ele>2215.6000976562</ele>
        <time>2023-08-11T10:03:22.000Z</time>
      </trkpt>
      <trkpt lat="45.23227" lon="6.07294">
        <ele>2216.3999023438</ele>
        <time>2023-08-11T10:03:28.000Z</time>
      </trkpt>
      <trkpt lat="45.23228" lon="6.07291">
        <ele>2216.8000488281</ele>
        <time>2023-08-11T10:03:31.000Z</time>
      </trkpt>
      <trkpt lat="45.23228" lon="6.07286">
        <ele>2217.1999511719</ele>
        <time>2023-08-11T10:03:35.000Z</time>
      </trkpt>
      <trkpt lat="45.23229" lon="6.07283">
        <ele>2217.8000488281</ele>
        <time>2023-08-11T10:03:40.000Z</time>
      </trkpt>
      <trkpt lat="45.23229" lon="6.07281">
        <ele>2218</ele>
        <time>2023-08-11T10:03:42.000Z</time>
      </trkpt>
      <trkpt lat="45.23228" lon="6.07278">
        <ele>2219</ele>
        <time>2023-08-11T10:03:50.000Z</time>
      </trkpt>
      <trkpt lat="45.23223" lon="6.07273">
        <ele>2220</ele>
        <time>2023-08-11T10:03:57.000Z</time>
      </trkpt>
      <trkpt lat="45.23223" lon="6.07272">
        <ele>2220.1999511719</ele>
        <time>2023-08-11T10:03:58.000Z</time>
      </trkpt>
      <trkpt lat="45.23224" lon="6.07264">
        <ele>2220.8000488281</ele>
        <time>2023-08-11T10:04:05.000Z</time>
      </trkpt>
      <trkpt lat="45.23224" lon="6.07262">
        <ele>2221.1999511719</ele>
        <time>2023-08-11T10:04:07.000Z</time>
      </trkpt>
      <trkpt lat="45.23225" lon="6.07257">
        <ele>2221.6000976562</ele>
        <time>2023-08-11T10:04:12.000Z</time>
      </trkpt>
      <trkpt lat="45.23226" lon="6.07255">
        <ele>2222.1999511719</ele>
        <time>2023-08-11T10:04:18.000Z</time>
      </trkpt>
      <trkpt lat="45.23226" lon="6.07253">
        <ele>2222.6000976562</ele>
        <time>2023-08-11T10:04:20.000Z</time>
      </trkpt>
      <trkpt lat="45.23229" lon="6.07241">
        <ele>2225.3999023438</ele>
        <time>2023-08-11T10:04:37.000Z</time>
      </trkpt>
      <trkpt lat="45.23229" lon="6.07232">
        <ele>2226.6000976562</ele>
        <time>2023-08-11T10:04:48.000Z</time>
      </trkpt>
      <trkpt lat="45.23229" lon="6.07228">
        <ele>2227</ele>
        <time>2023-08-11T10:04:52.000Z</time>
      </trkpt>
      <trkpt lat="45.2323" lon="6.07225">
        <ele>2227.6000976562</ele>
        <time>2023-08-11T10:04:55.000Z</time>
      </trkpt>
      <trkpt lat="45.23229" lon="6.07219">
        <ele>2228.6000976562</ele>
        <time>2023-08-11T10:05:03.000Z</time>
      </trkpt>
      <trkpt lat="45.23225" lon="6.07202">
        <ele>2230.3999023438</ele>
        <time>2023-08-11T10:05:23.000Z</time>
      </trkpt>
      <trkpt lat="45.23225" lon="6.07202">
        <ele>2230.6000976562</ele>
        <time>2023-08-11T10:05:24.000Z</time>
      </trkpt>
      <trkpt lat="45.23225" lon="6.072">
        <ele>2230.8000488281</ele>
        <time>2023-08-11T10:05:26.000Z</time>
      </trkpt>
      <trkpt lat="45.23227" lon="6.07187">
        <ele>2233.1999511719</ele>
        <time>2023-08-11T10:05:44.000Z</time>
      </trkpt>
      <trkpt lat="45.23226" lon="6.07176">
        <ele>2235</ele>
        <time>2023-08-11T10:05:57.000Z</time>
      </trkpt>
      <trkpt lat="45.23223" lon="6.07169">
        <ele>2237</ele>
        <time>2023-08-11T10:06:10.000Z</time>
      </trkpt>
      <trkpt lat="45.23221" lon="6.07162">
        <ele>2238.3999023438</ele>
        <time>2023-08-11T10:06:20.000Z</time>
      </trkpt>
      <trkpt lat="45.23221" lon="6.07161">
        <ele>2238.6000976562</ele>
        <time>2023-08-11T10:06:21.000Z</time>
      </trkpt>
      <trkpt lat="45.23219" lon="6.07154">
        <ele>2239.3999023438</ele>
        <time>2023-08-11T10:06:30.000Z</time>
      </trkpt>
      <trkpt lat="45.23218" lon="6.0715">
        <ele>2239.6000976562</ele>
        <time>2023-08-11T10:06:32.000Z</time>
      </trkpt>
      <trkpt lat="45.23217" lon="6.07144">
        <ele>2240.1999511719</ele>
        <time>2023-08-11T10:06:38.000Z</time>
      </trkpt>
      <trkpt lat="45.23217" lon="6.0714">
        <ele>2240.6000976562</ele>
        <time>2023-08-11T10:06:41.000Z</time>
      </trkpt>
      <trkpt lat="45.23217" lon="6.07139">
        <ele>2241</ele>
        <time>2023-08-11T10:06:48.000Z</time>
      </trkpt>
      <trkpt lat="45.23218" lon="6.07135">
        <ele>2241</ele>
        <time>2023-08-11T10:06:55.000Z</time>
      </trkpt>
      <trkpt lat="45.2321" lon="6.07144">
        <ele>2241</ele>
        <time>2023-08-11T10:07:12.000Z</time>
      </trkpt>
      <trkpt lat="45.23213" lon="6.07138">
        <ele>2241.1999511719</ele>
        <time>2023-08-11T10:07:18.000Z</time>
      </trkpt>
      <trkpt lat="45.23216" lon="6.07134">
        <ele>2241.1999511719</ele>
        <time>2023-08-11T10:07:24.000Z</time>
      </trkpt>
      <trkpt lat="45.23219" lon="6.07133">
        <ele>2241.3999023438</ele>
        <time>2023-08-11T10:07:30.000Z</time>
      </trkpt>
      <trkpt lat="45.23218" lon="6.07133">
        <ele>2241.6000976562</ele>
        <time>2023-08-11T10:07:33.000Z</time>
      </trkpt>
      <trkpt lat="45.2322" lon="6.07132">
        <ele>2242</ele>
        <time>2023-08-11T10:07:38.000Z</time>
      </trkpt>
      <trkpt lat="45.2322" lon="6.07133">
        <ele>2242.6000976562</ele>
        <time>2023-08-11T10:07:49.000Z</time>
      </trkpt>
      <trkpt lat="45.23217" lon="6.07132">
        <ele>2243.3999023438</ele>
        <time>2023-08-11T10:07:56.000Z</time>
      </trkpt>
      <trkpt lat="45.23216" lon="6.07131">
        <ele>2243.6000976562</ele>
        <time>2023-08-11T10:07:57.000Z</time>
      </trkpt>
      <trkpt lat="45.23214" lon="6.07128">
        <ele>2244.6000976562</ele>
        <time>2023-08-11T10:08:02.000Z</time>
      </trkpt>
      <trkpt lat="45.23214" lon="6.07127">
        <ele>2244.8000488281</ele>
        <time>2023-08-11T10:08:03.000Z</time>
      </trkpt>
      <trkpt lat="45.23214" lon="6.07121">
        <ele>2245.8000488281</ele>
        <time>2023-08-11T10:08:08.000Z</time>
      </trkpt>
      <trkpt lat="45.23214" lon="6.0712">
        <ele>2246</ele>
        <time>2023-08-11T10:08:09.000Z</time>
      </trkpt>
      <trkpt lat="45.23212" lon="6.07114">
        <ele>2246.8000488281</ele>
        <time>2023-08-11T10:08:16.000Z</time>
      </trkpt>
      <trkpt lat="45.23212" lon="6.07113">
        <ele>2247</ele>
        <time>2023-08-11T10:08:17.000Z</time>
      </trkpt>
      <trkpt lat="45.23211" lon="6.07109">
        <ele>2248</ele>
        <time>2023-08-11T10:08:23.000Z</time>
      </trkpt>
      <trkpt lat="45.23211" lon="6.07108">
        <ele>2248.1999511719</ele>
        <time>2023-08-11T10:08:24.000Z</time>
      </trkpt>
      <trkpt lat="45.23209" lon="6.07104">
        <ele>2249.1999511719</ele>
        <time>2023-08-11T10:08:30.000Z</time>
      </trkpt>
      <trkpt lat="45.23209" lon="6.07103">
        <ele>2249.6000976562</ele>
        <time>2023-08-11T10:08:32.000Z</time>
      </trkpt>
      <trkpt lat="45.23209" lon="6.071">
        <ele>2250.3999023438</ele>
        <time>2023-08-11T10:08:36.000Z</time>
      </trkpt>
      <trkpt lat="45.23211" lon="6.07097">
        <ele>2250.8000488281</ele>
        <time>2023-08-11T10:08:39.000Z</time>
      </trkpt>
      <trkpt lat="45.23213" lon="6.07093">
        <ele>2251.3999023438</ele>
        <time>2023-08-11T10:08:43.000Z</time>
      </trkpt>
      <trkpt lat="45.23218" lon="6.07086">
        <ele>2251.8000488281</ele>
        <time>2023-08-11T10:08:51.000Z</time>
      </trkpt>
      <trkpt lat="45.23221" lon="6.07082">
        <ele>2252.3999023438</ele>
        <time>2023-08-11T10:08:56.000Z</time>
      </trkpt>
      <trkpt lat="45.23224" lon="6.07077">
        <ele>2253.3999023438</ele>
        <time>2023-08-11T10:09:03.000Z</time>
      </trkpt>
      <trkpt lat="45.23225" lon="6.07077">
        <ele>2253.3999023438</ele>
        <time>2023-08-11T10:09:04.000Z</time>
      </trkpt>
      <trkpt lat="45.23225" lon="6.07076">
        <ele>2254.1999511719</ele>
        <time>2023-08-11T10:09:11.000Z</time>
      </trkpt>
      <trkpt lat="45.23226" lon="6.07072">
        <ele>2254.6000976562</ele>
        <time>2023-08-11T10:09:15.000Z</time>
      </trkpt>
      <trkpt lat="45.23226" lon="6.07063">
        <ele>2255.8000488281</ele>
        <time>2023-08-11T10:09:24.000Z</time>
      </trkpt>
      <trkpt lat="45.23226" lon="6.07061">
        <ele>2256.3999023438</ele>
        <time>2023-08-11T10:09:27.000Z</time>
      </trkpt>
      <trkpt lat="45.23225" lon="6.07057">
        <ele>2257</ele>
        <time>2023-08-11T10:09:31.000Z</time>
      </trkpt>
      <trkpt lat="45.23224" lon="6.07055">
        <ele>2257.3999023438</ele>
        <time>2023-08-11T10:09:34.000Z</time>
      </trkpt>
      <trkpt lat="45.23223" lon="6.07053">
        <ele>2258</ele>
        <time>2023-08-11T10:09:39.000Z</time>
      </trkpt>
      <trkpt lat="45.23222" lon="6.07051">
        <ele>2258.6000976562</ele>
        <time>2023-08-11T10:09:42.000Z</time>
      </trkpt>
      <trkpt lat="45.23221" lon="6.07049">
        <ele>2259.1999511719</ele>
        <time>2023-08-11T10:09:46.000Z</time>
      </trkpt>
      <trkpt lat="45.23221" lon="6.07045">
        <ele>2260</ele>
        <time>2023-08-11T10:09:52.000Z</time>
      </trkpt>
      <trkpt lat="45.23221" lon="6.07042">
        <ele>2260.1999511719</ele>
        <time>2023-08-11T10:09:54.000Z</time>
      </trkpt>
      <trkpt lat="45.23223" lon="6.07037">
        <ele>2261.1999511719</ele>
        <time>2023-08-11T10:10:00.000Z</time>
      </trkpt>
      <trkpt lat="45.23224" lon="6.07031">
        <ele>2262.1999511719</ele>
        <time>2023-08-11T10:10:06.000Z</time>
      </trkpt>
      <trkpt lat="45.23224" lon="6.07031">
        <ele>2262.3999023438</ele>
        <time>2023-08-11T10:10:07.000Z</time>
      </trkpt>
      <trkpt lat="45.23224" lon="6.07026">
        <ele>2263</ele>
        <time>2023-08-11T10:10:14.000Z</time>
      </trkpt>
      <trkpt lat="45.23224" lon="6.07023">
        <ele>2263.3999023438</ele>
        <time>2023-08-11T10:10:18.000Z</time>
      </trkpt>
      <trkpt lat="45.23224" lon="6.0702">
        <ele>2263.8000488281</ele>
        <time>2023-08-11T10:10:22.000Z</time>
      </trkpt>
      <trkpt lat="45.23224" lon="6.07016">
        <ele>2264.6000976562</ele>
        <time>2023-08-11T10:10:26.000Z</time>
      </trkpt>
      <trkpt lat="45.23224" lon="6.07016">
        <ele>2264.8000488281</ele>
        <time>2023-08-11T10:10:28.000Z</time>
      </trkpt>
      <trkpt lat="45.23225" lon="6.07013">
        <ele>2265.8000488281</ele>
        <time>2023-08-11T10:10:33.000Z</time>
      </trkpt>
      <trkpt lat="45.23225" lon="6.07012">
        <ele>2266.1999511719</ele>
        <time>2023-08-11T10:10:36.000Z</time>
      </trkpt>
      <trkpt lat="45.23225" lon="6.07006">
        <ele>2267</ele>
        <time>2023-08-11T10:10:41.000Z</time>
      </trkpt>
      <trkpt lat="45.23225" lon="6.07003">
        <ele>2267.3999023438</ele>
        <time>2023-08-11T10:10:44.000Z</time>
      </trkpt>
      <trkpt lat="45.23225" lon="6.06999">
        <ele>2268</ele>
        <time>2023-08-11T10:10:49.000Z</time>
      </trkpt>
      <trkpt lat="45.23225" lon="6.06998">
        <ele>2268</ele>
        <time>2023-08-11T10:10:50.000Z</time>
      </trkpt>
      <trkpt lat="45.23223" lon="6.06993">
        <ele>2269</ele>
        <time>2023-08-11T10:10:57.000Z</time>
      </trkpt>
      <trkpt lat="45.23223" lon="6.06992">
        <ele>2269.1999511719</ele>
        <time>2023-08-11T10:10:58.000Z</time>
      </trkpt>
      <trkpt lat="45.23222" lon="6.06988">
        <ele>2270.1999511719</ele>
        <time>2023-08-11T10:11:06.000Z</time>
      </trkpt>
      <trkpt lat="45.23222" lon="6.06987">
        <ele>2271.1999511719</ele>
        <time>2023-08-11T10:11:11.000Z</time>
      </trkpt>
      <trkpt lat="45.23223" lon="6.06985">
        <ele>2272</ele>
        <time>2023-08-11T10:11:17.000Z</time>
      </trkpt>
      <trkpt lat="45.23223" lon="6.06984">
        <ele>2272.3999023438</ele>
        <time>2023-08-11T10:11:19.000Z</time>
      </trkpt>
      <trkpt lat="45.23224" lon="6.06983">
        <ele>2273.3999023438</ele>
        <time>2023-08-11T10:11:24.000Z</time>
      </trkpt>
      <trkpt lat="45.23224" lon="6.06982">
        <ele>2273.3999023438</ele>
        <time>2023-08-11T10:11:25.000Z</time>
      </trkpt>
      <trkpt lat="45.23226" lon="6.06978">
        <ele>2273.8000488281</ele>
        <time>2023-08-11T10:11:29.000Z</time>
      </trkpt>
      <trkpt lat="45.23225" lon="6.06975">
        <ele>2274</ele>
        <time>2023-08-11T10:11:37.000Z</time>
      </trkpt>
      <trkpt lat="45.23223" lon="6.06974">
        <ele>2274.6000976562</ele>
        <time>2023-08-11T10:11:42.000Z</time>
      </trkpt>
      <trkpt lat="45.23222" lon="6.06973">
        <ele>2275.3999023438</ele>
        <time>2023-08-11T10:11:46.000Z</time>
      </trkpt>
      <trkpt lat="45.23221" lon="6.06971">
        <ele>2275.8000488281</ele>
        <time>2023-08-11T10:11:49.000Z</time>
      </trkpt>
      <trkpt lat="45.23222" lon="6.06969">
        <ele>2276.3999023438</ele>
        <time>2023-08-11T10:11:54.000Z</time>
      </trkpt>
      <trkpt lat="45.23222" lon="6.06967">
        <ele>2276.8000488281</ele>
        <time>2023-08-11T10:11:56.000Z</time>
      </trkpt>
      <trkpt lat="45.23223" lon="6.06965">
        <ele>2277.8000488281</ele>
        <time>2023-08-11T10:12:01.000Z</time>
      </trkpt>
      <trkpt lat="45.23223" lon="6.06964">
        <ele>2278.1999511719</ele>
        <time>2023-08-11T10:12:03.000Z</time>
      </trkpt>
      <trkpt lat="45.23222" lon="6.06961">
        <ele>2279</ele>
        <time>2023-08-11T10:12:10.000Z</time>
      </trkpt>
      <trkpt lat="45.23222" lon="6.06961">
        <ele>2279.1999511719</ele>
        <time>2023-08-11T10:12:11.000Z</time>
      </trkpt>
      <trkpt lat="45.23221" lon="6.0696">
        <ele>2280</ele>
        <time>2023-08-11T10:12:14.000Z</time>
      </trkpt>
      <trkpt lat="45.2322" lon="6.0696">
        <ele>2281</ele>
        <time>2023-08-11T10:12:20.000Z</time>
      </trkpt>
      <trkpt lat="45.23219" lon="6.06958">
        <ele>2281.1999511719</ele>
        <time>2023-08-11T10:12:22.000Z</time>
      </trkpt>
      <trkpt lat="45.2322" lon="6.06957">
        <ele>2282.1999511719</ele>
        <time>2023-08-11T10:12:28.000Z</time>
      </trkpt>
      <trkpt lat="45.2322" lon="6.06957">
        <ele>2282.1999511719</ele>
        <time>2023-08-11T10:12:29.000Z</time>
      </trkpt>
      <trkpt lat="45.23223" lon="6.06936">
        <ele>2285.8000488281</ele>
        <time>2023-08-11T10:12:56.000Z</time>
      </trkpt>
      <trkpt lat="45.23223" lon="6.06935">
        <ele>2286</ele>
        <time>2023-08-11T10:12:58.000Z</time>
      </trkpt>
      <trkpt lat="45.23221" lon="6.06932">
        <ele>2286.8000488281</ele>
        <time>2023-08-11T10:13:05.000Z</time>
      </trkpt>
      <trkpt lat="45.2322" lon="6.06933">
        <ele>2288</ele>
        <time>2023-08-11T10:13:11.000Z</time>
      </trkpt>
      <trkpt lat="45.2322" lon="6.06934">
        <ele>2288</ele>
        <time>2023-08-11T10:13:15.000Z</time>
      </trkpt>
      <trkpt lat="45.23213" lon="6.06933">
        <ele>2289.6000976562</ele>
        <time>2023-08-11T10:13:34.000Z</time>
      </trkpt>
      <trkpt lat="45.23213" lon="6.06933">
        <ele>2289.8000488281</ele>
        <time>2023-08-11T10:13:35.000Z</time>
      </trkpt>
      <trkpt lat="45.23211" lon="6.06928">
        <ele>2290.1999511719</ele>
        <time>2023-08-11T10:13:38.000Z</time>
      </trkpt>
      <trkpt lat="45.23209" lon="6.06925">
        <ele>2291</ele>
        <time>2023-08-11T10:13:42.000Z</time>
      </trkpt>
      <trkpt lat="45.23208" lon="6.06924">
        <ele>2291.1999511719</ele>
        <time>2023-08-11T10:13:44.000Z</time>
      </trkpt>
      <trkpt lat="45.23207" lon="6.06923">
        <ele>2291.8000488281</ele>
        <time>2023-08-11T10:13:49.000Z</time>
      </trkpt>
      <trkpt lat="45.23207" lon="6.06922">
        <ele>2292.3999023438</ele>
        <time>2023-08-11T10:13:53.000Z</time>
      </trkpt>
      <trkpt lat="45.23207" lon="6.06921">
        <ele>2292.8000488281</ele>
        <time>2023-08-11T10:13:55.000Z</time>
      </trkpt>
      <trkpt lat="45.23207" lon="6.06918">
        <ele>2292.8000488281</ele>
        <time>2023-08-11T10:13:58.000Z</time>
      </trkpt>
      <trkpt lat="45.23208" lon="6.0691">
        <ele>2292.6000976562</ele>
        <time>2023-08-11T10:14:04.000Z</time>
      </trkpt>
      <trkpt lat="45.23209" lon="6.06914">
        <ele>2292.6000976562</ele>
        <time>2023-08-11T10:14:10.000Z</time>
      </trkpt>
      <trkpt lat="45.23207" lon="6.06922">
        <ele>2292.8000488281</ele>
        <time>2023-08-11T10:14:20.000Z</time>
      </trkpt>
      <trkpt lat="45.23208" lon="6.06911">
        <ele>2293.8000488281</ele>
        <time>2023-08-11T10:14:30.000Z</time>
      </trkpt>
      <trkpt lat="45.23208" lon="6.06906">
        <ele>2295.8000488281</ele>
        <time>2023-08-11T10:14:43.000Z</time>
      </trkpt>
      <trkpt lat="45.23208" lon="6.06897">
        <ele>2296.6000976562</ele>
        <time>2023-08-11T10:14:50.000Z</time>
      </trkpt>
      <trkpt lat="45.23208" lon="6.06892">
        <ele>2297.3999023438</ele>
        <time>2023-08-11T10:14:56.000Z</time>
      </trkpt>
      <trkpt lat="45.23209" lon="6.06889">
        <ele>2297.8000488281</ele>
        <time>2023-08-11T10:14:59.000Z</time>
      </trkpt>
      <trkpt lat="45.23208" lon="6.06884">
        <ele>2298.8000488281</ele>
        <time>2023-08-11T10:15:05.000Z</time>
      </trkpt>
      <trkpt lat="45.23205" lon="6.0687">
        <ele>2302.6000976562</ele>
        <time>2023-08-11T10:15:33.000Z</time>
      </trkpt>
      <trkpt lat="45.23208" lon="6.06864">
        <ele>2303</ele>
        <time>2023-08-11T10:15:37.000Z</time>
      </trkpt>
      <trkpt lat="45.23208" lon="6.06864">
        <ele>2303.8000488281</ele>
        <time>2023-08-11T10:15:42.000Z</time>
      </trkpt>
      <trkpt lat="45.23208" lon="6.06865">
        <ele>2304</ele>
        <time>2023-08-11T10:15:44.000Z</time>
      </trkpt>
      <trkpt lat="45.23208" lon="6.06861">
        <ele>2305.1999511719</ele>
        <time>2023-08-11T10:15:52.000Z</time>
      </trkpt>
      <trkpt lat="45.23209" lon="6.06853">
        <ele>2306.3999023438</ele>
        <time>2023-08-11T10:16:01.000Z</time>
      </trkpt>
      <trkpt lat="45.2321" lon="6.06853">
        <ele>2307</ele>
        <time>2023-08-11T10:16:04.000Z</time>
      </trkpt>
      <trkpt lat="45.23212" lon="6.0685">
        <ele>2307.6000976562</ele>
        <time>2023-08-11T10:16:07.000Z</time>
      </trkpt>
      <trkpt lat="45.23214" lon="6.06846">
        <ele>2308.3999023438</ele>
        <time>2023-08-11T10:16:12.000Z</time>
      </trkpt>
      <trkpt lat="45.23214" lon="6.06843">
        <ele>2308.6000976562</ele>
        <time>2023-08-11T10:16:16.000Z</time>
      </trkpt>
      <trkpt lat="45.23213" lon="6.06831">
        <ele>2310.8000488281</ele>
        <time>2023-08-11T10:16:31.000Z</time>
      </trkpt>
      <trkpt lat="45.23213" lon="6.06832">
        <ele>2311.8000488281</ele>
        <time>2023-08-11T10:16:38.000Z</time>
      </trkpt>
      <trkpt lat="45.23213" lon="6.06826">
        <ele>2313</ele>
        <time>2023-08-11T10:16:46.000Z</time>
      </trkpt>
      <trkpt lat="45.23213" lon="6.06826">
        <ele>2313</ele>
        <time>2023-08-11T10:16:47.000Z</time>
      </trkpt>
      <trkpt lat="45.23212" lon="6.06822">
        <ele>2314.6000976562</ele>
        <time>2023-08-11T10:16:58.000Z</time>
      </trkpt>
      <trkpt lat="45.23212" lon="6.06818">
        <ele>2315.1999511719</ele>
        <time>2023-08-11T10:17:04.000Z</time>
      </trkpt>
      <trkpt lat="45.23213" lon="6.06815">
        <ele>2315.6000976562</ele>
        <time>2023-08-11T10:17:08.000Z</time>
      </trkpt>
      <trkpt lat="45.23213" lon="6.06814">
        <ele>2316.1999511719</ele>
        <time>2023-08-11T10:17:12.000Z</time>
      </trkpt>
      <trkpt lat="45.23212" lon="6.06813">
        <ele>2316.8000488281</ele>
        <time>2023-08-11T10:17:15.000Z</time>
      </trkpt>
      <trkpt lat="45.23211" lon="6.06812">
        <ele>2317.1999511719</ele>
        <time>2023-08-11T10:17:18.000Z</time>
      </trkpt>
      <trkpt lat="45.2321" lon="6.06812">
        <ele>2317.6000976562</ele>
        <time>2023-08-11T10:17:21.000Z</time>
      </trkpt>
      <trkpt lat="45.23209" lon="6.06808">
        <ele>2318.1999511719</ele>
        <time>2023-08-11T10:17:26.000Z</time>
      </trkpt>
      <trkpt lat="45.23209" lon="6.06805">
        <ele>2318.6000976562</ele>
        <time>2023-08-11T10:17:29.000Z</time>
      </trkpt>
      <trkpt lat="45.23209" lon="6.06799">
        <ele>2319.3999023438</ele>
        <time>2023-08-11T10:17:34.000Z</time>
      </trkpt>
      <trkpt lat="45.23209" lon="6.06797">
        <ele>2319.6000976562</ele>
        <time>2023-08-11T10:17:37.000Z</time>
      </trkpt>
      <trkpt lat="45.23211" lon="6.06791">
        <ele>2320.3999023438</ele>
        <time>2023-08-11T10:17:43.000Z</time>
      </trkpt>
      <trkpt lat="45.23211" lon="6.06781">
        <ele>2324.8000488281</ele>
        <time>2023-08-11T10:18:16.000Z</time>
      </trkpt>
      <trkpt lat="45.23211" lon="6.06781">
        <ele>2325</ele>
        <time>2023-08-11T10:18:17.000Z</time>
      </trkpt>
      <trkpt lat="45.2321" lon="6.06776">
        <ele>2325.8000488281</ele>
        <time>2023-08-11T10:18:25.000Z</time>
      </trkpt>
      <trkpt lat="45.23211" lon="6.06776">
        <ele>2326</ele>
        <time>2023-08-11T10:18:27.000Z</time>
      </trkpt>
      <trkpt lat="45.23213" lon="6.06766">
        <ele>2328.1999511719</ele>
        <time>2023-08-11T10:18:44.000Z</time>
      </trkpt>
      <trkpt lat="45.23214" lon="6.06767">
        <ele>2328.6000976562</ele>
        <time>2023-08-11T10:18:47.000Z</time>
      </trkpt>
      <trkpt lat="45.23216" lon="6.06764">
        <ele>2329.3999023438</ele>
        <time>2023-08-11T10:18:54.000Z</time>
      </trkpt>
      <trkpt lat="45.23218" lon="6.06757">
        <ele>2331</ele>
        <time>2023-08-11T10:19:08.000Z</time>
      </trkpt>
      <trkpt lat="45.2322" lon="6.06756">
        <ele>2331.3999023438</ele>
        <time>2023-08-11T10:19:11.000Z</time>
      </trkpt>
      <trkpt lat="45.23222" lon="6.06751">
        <ele>2332.1999511719</ele>
        <time>2023-08-11T10:19:19.000Z</time>
      </trkpt>
      <trkpt lat="45.23223" lon="6.06749">
        <ele>2332.6000976562</ele>
        <time>2023-08-11T10:19:20.000Z</time>
      </trkpt>
      <trkpt lat="45.23223" lon="6.06746">
        <ele>2333.3999023438</ele>
        <time>2023-08-11T10:19:27.000Z</time>
      </trkpt>
      <trkpt lat="45.23223" lon="6.06736">
        <ele>2335.6000976562</ele>
        <time>2023-08-11T10:19:43.000Z</time>
      </trkpt>
      <trkpt lat="45.23224" lon="6.06736">
        <ele>2335.8000488281</ele>
        <time>2023-08-11T10:19:44.000Z</time>
      </trkpt>
      <trkpt lat="45.23223" lon="6.06735">
        <ele>2336.8000488281</ele>
        <time>2023-08-11T10:19:51.000Z</time>
      </trkpt>
      <trkpt lat="45.23223" lon="6.06732">
        <ele>2338</ele>
        <time>2023-08-11T10:19:58.000Z</time>
      </trkpt>
      <trkpt lat="45.23224" lon="6.06727">
        <ele>2339</ele>
        <time>2023-08-11T10:20:06.000Z</time>
      </trkpt>
      <trkpt lat="45.23227" lon="6.06721">
        <ele>2341.3999023438</ele>
        <time>2023-08-11T10:20:27.000Z</time>
      </trkpt>
      <trkpt lat="45.23228" lon="6.06718">
        <ele>2341.8000488281</ele>
        <time>2023-08-11T10:20:30.000Z</time>
      </trkpt>
      <trkpt lat="45.2323" lon="6.06717">
        <ele>2342.8000488281</ele>
        <time>2023-08-11T10:20:40.000Z</time>
      </trkpt>
      <trkpt lat="45.23227" lon="6.06718">
        <ele>2343.1999511719</ele>
        <time>2023-08-11T10:20:48.000Z</time>
      </trkpt>
      <trkpt lat="45.23226" lon="6.06717">
        <ele>2343.3999023438</ele>
        <time>2023-08-11T10:20:49.000Z</time>
      </trkpt>
      <trkpt lat="45.23223" lon="6.06714">
        <ele>2344.6000976562</ele>
        <time>2023-08-11T10:20:55.000Z</time>
      </trkpt>
      <trkpt lat="45.23221" lon="6.06713">
        <ele>2345.8000488281</ele>
        <time>2023-08-11T10:21:01.000Z</time>
      </trkpt>
      <trkpt lat="45.23219" lon="6.06713">
        <ele>2346.6000976562</ele>
        <time>2023-08-11T10:21:04.000Z</time>
      </trkpt>
      <trkpt lat="45.23218" lon="6.06712">
        <ele>2347</ele>
        <time>2023-08-11T10:21:06.000Z</time>
      </trkpt>
      <trkpt lat="45.23215" lon="6.06711">
        <ele>2348</ele>
        <time>2023-08-11T10:21:12.000Z</time>
      </trkpt>
      <trkpt lat="45.23215" lon="6.06711">
        <ele>2348.1999511719</ele>
        <time>2023-08-11T10:21:13.000Z</time>
      </trkpt>
      <trkpt lat="45.23214" lon="6.06707">
        <ele>2349</ele>
        <time>2023-08-11T10:21:21.000Z</time>
      </trkpt>
      <trkpt lat="45.23215" lon="6.06704">
        <ele>2349.1999511719</ele>
        <time>2023-08-11T10:21:26.000Z</time>
      </trkpt>
      <trkpt lat="45.23217" lon="6.06703">
        <ele>2349.8000488281</ele>
        <time>2023-08-11T10:21:29.000Z</time>
      </trkpt>
      <trkpt lat="45.23217" lon="6.06702">
        <ele>2350.3999023438</ele>
        <time>2023-08-11T10:21:33.000Z</time>
      </trkpt>
      <trkpt lat="45.23218" lon="6.06702">
        <ele>2351.6000976562</ele>
        <time>2023-08-11T10:21:39.000Z</time>
      </trkpt>
      <trkpt lat="45.23222" lon="6.06687">
        <ele>2354.8000488281</ele>
        <time>2023-08-11T10:21:58.000Z</time>
      </trkpt>
      <trkpt lat="45.23223" lon="6.06687">
        <ele>2355</ele>
        <time>2023-08-11T10:22:00.000Z</time>
      </trkpt>
      <trkpt lat="45.23226" lon="6.06682">
        <ele>2355.8000488281</ele>
        <time>2023-08-11T10:22:07.000Z</time>
      </trkpt>
      <trkpt lat="45.23226" lon="6.06682">
        <ele>2356</ele>
        <time>2023-08-11T10:22:08.000Z</time>
      </trkpt>
      <trkpt lat="45.23227" lon="6.06675">
        <ele>2357.3999023438</ele>
        <time>2023-08-11T10:22:22.000Z</time>
      </trkpt>
      <trkpt lat="45.23226" lon="6.06673">
        <ele>2357.6000976562</ele>
        <time>2023-08-11T10:22:29.000Z</time>
      </trkpt>
      <trkpt lat="45.23226" lon="6.06672">
        <ele>2357.8000488281</ele>
        <time>2023-08-11T10:22:32.000Z</time>
      </trkpt>
      <trkpt lat="45.23224" lon="6.06671">
        <ele>2358.6000976562</ele>
        <time>2023-08-11T10:22:37.000Z</time>
      </trkpt>
      <trkpt lat="45.23224" lon="6.06669">
        <ele>2359</ele>
        <time>2023-08-11T10:22:39.000Z</time>
      </trkpt>
      <trkpt lat="45.23222" lon="6.06668">
        <ele>2359.8000488281</ele>
        <time>2023-08-11T10:22:45.000Z</time>
      </trkpt>
      <trkpt lat="45.23222" lon="6.06668">
        <ele>2360</ele>
        <time>2023-08-11T10:22:46.000Z</time>
      </trkpt>
      <trkpt lat="45.23222" lon="6.06668">
        <ele>2360.3999023438</ele>
        <time>2023-08-11T10:22:52.000Z</time>
      </trkpt>
      <trkpt lat="45.2322" lon="6.06662">
        <ele>2361.1999511719</ele>
        <time>2023-08-11T10:22:57.000Z</time>
      </trkpt>
      <trkpt lat="45.2322" lon="6.06659">
        <ele>2361.3999023438</ele>
        <time>2023-08-11T10:22:59.000Z</time>
      </trkpt>
      <trkpt lat="45.23219" lon="6.06657">
        <ele>2362</ele>
        <time>2023-08-11T10:23:06.000Z</time>
      </trkpt>
      <trkpt lat="45.23219" lon="6.06656">
        <ele>2362.1999511719</ele>
        <time>2023-08-11T10:23:07.000Z</time>
      </trkpt>
      <trkpt lat="45.2322" lon="6.06656">
        <ele>2362.3999023438</ele>
        <time>2023-08-11T10:23:13.000Z</time>
      </trkpt>
      <trkpt lat="45.23221" lon="6.06658">
        <ele>2362.3999023438</ele>
        <time>2023-08-11T10:23:38.000Z</time>
      </trkpt>
      <trkpt lat="45.23223" lon="6.06653">
        <ele>2362.3999023438</ele>
        <time>2023-08-11T10:23:45.000Z</time>
      </trkpt>
      <trkpt lat="45.23224" lon="6.06644">
        <ele>2363.1999511719</ele>
        <time>2023-08-11T10:23:52.000Z</time>
      </trkpt>
      <trkpt lat="45.23224" lon="6.06644">
        <ele>2363.6000976562</ele>
        <time>2023-08-11T10:23:54.000Z</time>
      </trkpt>
      <trkpt lat="45.23222" lon="6.06642">
        <ele>2364.1999511719</ele>
        <time>2023-08-11T10:23:58.000Z</time>
      </trkpt>
      <trkpt lat="45.2322" lon="6.06642">
        <ele>2364.8000488281</ele>
        <time>2023-08-11T10:24:01.000Z</time>
      </trkpt>
      <trkpt lat="45.23218" lon="6.06641">
        <ele>2365.3999023438</ele>
        <time>2023-08-11T10:24:04.000Z</time>
      </trkpt>
      <trkpt lat="45.23217" lon="6.06641">
        <ele>2366</ele>
        <time>2023-08-11T10:24:08.000Z</time>
      </trkpt>
      <trkpt lat="45.23218" lon="6.0664">
        <ele>2365.8000488281</ele>
        <time>2023-08-11T10:24:16.000Z</time>
      </trkpt>
      <trkpt lat="45.23217" lon="6.06641">
        <ele>2366</ele>
        <time>2023-08-11T10:24:25.000Z</time>
      </trkpt>
      <trkpt lat="45.23215" lon="6.0664">
        <ele>2366.6000976562</ele>
        <time>2023-08-11T10:24:33.000Z</time>
      </trkpt>
      <trkpt lat="45.23216" lon="6.06635">
        <ele>2367.6000976562</ele>
        <time>2023-08-11T10:24:40.000Z</time>
      </trkpt>
      <trkpt lat="45.23217" lon="6.06632">
        <ele>2368</ele>
        <time>2023-08-11T10:24:43.000Z</time>
      </trkpt>
      <trkpt lat="45.23218" lon="6.06628">
        <ele>2368.6000976562</ele>
        <time>2023-08-11T10:24:47.000Z</time>
      </trkpt>
      <trkpt lat="45.23217" lon="6.06622">
        <ele>2369.8000488281</ele>
        <time>2023-08-11T10:24:55.000Z</time>
      </trkpt>
      <trkpt lat="45.2322" lon="6.06617">
        <ele>2370.8000488281</ele>
        <time>2023-08-11T10:25:03.000Z</time>
      </trkpt>
      <trkpt lat="45.23222" lon="6.06615">
        <ele>2372.3999023438</ele>
        <time>2023-08-11T10:25:13.000Z</time>
      </trkpt>
      <trkpt lat="45.23223" lon="6.06613">
        <ele>2373.6000976562</ele>
        <time>2023-08-11T10:25:22.000Z</time>
      </trkpt>
      <trkpt lat="45.23223" lon="6.06611">
        <ele>2374.1999511719</ele>
        <time>2023-08-11T10:25:25.000Z</time>
      </trkpt>
      <trkpt lat="45.23222" lon="6.06607">
        <ele>2375.1999511719</ele>
        <time>2023-08-11T10:25:31.000Z</time>
      </trkpt>
      <trkpt lat="45.23222" lon="6.06607">
        <ele>2375.3999023438</ele>
        <time>2023-08-11T10:25:32.000Z</time>
      </trkpt>
      <trkpt lat="45.23221" lon="6.06598">
        <ele>2377.1999511719</ele>
        <time>2023-08-11T10:25:44.000Z</time>
      </trkpt>
      <trkpt lat="45.23219" lon="6.066">
        <ele>2378</ele>
        <time>2023-08-11T10:25:51.000Z</time>
      </trkpt>
      <trkpt lat="45.23219" lon="6.06601">
        <ele>2378.1999511719</ele>
        <time>2023-08-11T10:25:52.000Z</time>
      </trkpt>
      <trkpt lat="45.23219" lon="6.06602">
        <ele>2378.3999023438</ele>
        <time>2023-08-11T10:25:53.000Z</time>
      </trkpt>
      <trkpt lat="45.23218" lon="6.066">
        <ele>2378.3999023438</ele>
        <time>2023-08-11T10:25:56.000Z</time>
      </trkpt>
      <trkpt lat="45.23216" lon="6.06597">
        <ele>2378.6000976562</ele>
        <time>2023-08-11T10:25:59.000Z</time>
      </trkpt>
      <trkpt lat="45.23212" lon="6.06595">
        <ele>2379.3999023438</ele>
        <time>2023-08-11T10:26:05.000Z</time>
      </trkpt>
      <trkpt lat="45.23212" lon="6.06595">
        <ele>2379.3999023438</ele>
        <time>2023-08-11T10:26:06.000Z</time>
      </trkpt>
      <trkpt lat="45.23214" lon="6.0659">
        <ele>2379.6000976562</ele>
        <time>2023-08-11T10:26:13.000Z</time>
      </trkpt>
      <trkpt lat="45.23218" lon="6.06586">
        <ele>2379.6000976562</ele>
        <time>2023-08-11T10:26:21.000Z</time>
      </trkpt>
      <trkpt lat="45.2322" lon="6.06579">
        <ele>2380.1999511719</ele>
        <time>2023-08-11T10:26:29.000Z</time>
      </trkpt>
      <trkpt lat="45.23217" lon="6.06566">
        <ele>2383.3999023438</ele>
        <time>2023-08-11T10:26:55.000Z</time>
      </trkpt>
      <trkpt lat="45.23216" lon="6.06563">
        <ele>2383.6000976562</ele>
        <time>2023-08-11T10:26:57.000Z</time>
      </trkpt>
      <trkpt lat="45.23217" lon="6.06563">
        <ele>2383.6000976562</ele>
        <time>2023-08-11T10:26:58.000Z</time>
      </trkpt>
      <trkpt lat="45.23217" lon="6.06563">
        <ele>2383.6000976562</ele>
        <time>2023-08-11T10:26:59.000Z</time>
      </trkpt>
      <trkpt lat="45.23216" lon="6.06564">
        <ele>2383.3999023438</ele>
        <time>2023-08-11T10:27:06.000Z</time>
      </trkpt>
      <trkpt lat="45.23215" lon="6.06566">
        <ele>2383.1999511719</ele>
        <time>2023-08-11T10:27:16.000Z</time>
      </trkpt>
      <trkpt lat="45.23215" lon="6.06565">
        <ele>2382.8000488281</ele>
        <time>2023-08-11T10:27:22.000Z</time>
      </trkpt>
      <trkpt lat="45.23215" lon="6.06562">
        <ele>2382.6000976562</ele>
        <time>2023-08-11T10:27:29.000Z</time>
      </trkpt>
      <trkpt lat="45.23216" lon="6.06562">
        <ele>2382.6000976562</ele>
        <time>2023-08-11T10:27:33.000Z</time>
      </trkpt>
      <trkpt lat="45.23216" lon="6.06561">
        <ele>2382.3999023438</ele>
        <time>2023-08-11T10:27:38.000Z</time>
      </trkpt>
      <trkpt lat="45.23215" lon="6.06554">
        <ele>2383.3999023438</ele>
        <time>2023-08-11T10:27:47.000Z</time>
      </trkpt>
      <trkpt lat="45.23215" lon="6.06553">
        <ele>2383.6000976562</ele>
        <time>2023-08-11T10:27:48.000Z</time>
      </trkpt>
      <trkpt lat="45.23215" lon="6.06552">
        <ele>2384.3999023438</ele>
        <time>2023-08-11T10:27:54.000Z</time>
      </trkpt>
      <trkpt lat="45.23215" lon="6.06552">
        <ele>2384.6000976562</ele>
        <time>2023-08-11T10:27:57.000Z</time>
      </trkpt>
      <trkpt lat="45.23216" lon="6.0655">
        <ele>2385</ele>
        <time>2023-08-11T10:28:00.000Z</time>
      </trkpt>
      <trkpt lat="45.23216" lon="6.06545">
        <ele>2385.1999511719</ele>
        <time>2023-08-11T10:28:03.000Z</time>
      </trkpt>
      <trkpt lat="45.23217" lon="6.06542">
        <ele>2385.6000976562</ele>
        <time>2023-08-11T10:28:09.000Z</time>
      </trkpt>
      <trkpt lat="45.23216" lon="6.06542">
        <ele>2385.8000488281</ele>
        <time>2023-08-11T10:28:12.000Z</time>
      </trkpt>
      <trkpt lat="45.23216" lon="6.0654">
        <ele>2386</ele>
        <time>2023-08-11T10:28:16.000Z</time>
      </trkpt>
      <trkpt lat="45.23217" lon="6.06541">
        <ele>2386.8000488281</ele>
        <time>2023-08-11T10:28:22.000Z</time>
      </trkpt>
      <trkpt lat="45.23216" lon="6.0654">
        <ele>2386.8000488281</ele>
        <time>2023-08-11T10:28:23.000Z</time>
      </trkpt>
      <trkpt lat="45.23217" lon="6.06537">
        <ele>2387.1999511719</ele>
        <time>2023-08-11T10:28:31.000Z</time>
      </trkpt>
      <trkpt lat="45.23217" lon="6.06537">
        <ele>2387.8000488281</ele>
        <time>2023-08-11T10:28:36.000Z</time>
      </trkpt>
      <trkpt lat="45.23216" lon="6.06534">
        <ele>2388</ele>
        <time>2023-08-11T10:28:40.000Z</time>
      </trkpt>
      <trkpt lat="45.23213" lon="6.06529">
        <ele>2388.6000976562</ele>
        <time>2023-08-11T10:28:47.000Z</time>
      </trkpt>
      <trkpt lat="45.23213" lon="6.06528">
        <ele>2388.8000488281</ele>
        <time>2023-08-11T10:28:49.000Z</time>
      </trkpt>
      <trkpt lat="45.2321" lon="6.06524">
        <ele>2389.3999023438</ele>
        <time>2023-08-11T10:28:56.000Z</time>
      </trkpt>
      <trkpt lat="45.23209" lon="6.06518">
        <ele>2389.8000488281</ele>
        <time>2023-08-11T10:29:04.000Z</time>
      </trkpt>
      <trkpt lat="45.23206" lon="6.06514">
        <ele>2390</ele>
        <time>2023-08-11T10:29:07.000Z</time>
      </trkpt>
      <trkpt lat="45.23202" lon="6.06511">
        <ele>2390.1999511719</ele>
        <time>2023-08-11T10:29:12.000Z</time>
      </trkpt>
      <trkpt lat="45.23201" lon="6.06513">
        <ele>2390.3999023438</ele>
        <time>2023-08-11T10:29:15.000Z</time>
      </trkpt>
      <trkpt lat="45.23201" lon="6.06512">
        <ele>2390.6000976562</ele>
        <time>2023-08-11T10:29:18.000Z</time>
      </trkpt>
      <trkpt lat="45.23201" lon="6.06513">
        <ele>2390.6000976562</ele>
        <time>2023-08-11T10:29:20.000Z</time>
      </trkpt>
      <trkpt lat="45.23203" lon="6.06513">
        <ele>2390.1999511719</ele>
        <time>2023-08-11T10:29:25.000Z</time>
      </trkpt>
      <trkpt lat="45.23207" lon="6.06518">
        <ele>2390</ele>
        <time>2023-08-11T10:29:30.000Z</time>
      </trkpt>
      <trkpt lat="45.23212" lon="6.06523">
        <ele>2389.8000488281</ele>
        <time>2023-08-11T10:29:36.000Z</time>
      </trkpt>
      <trkpt lat="45.23212" lon="6.06524">
        <ele>2389.8000488281</ele>
        <time>2023-08-11T10:29:42.000Z</time>
      </trkpt>
      <trkpt lat="45.23215" lon="6.06524">
        <ele>2389.6000976562</ele>
        <time>2023-08-11T10:29:46.000Z</time>
      </trkpt>
      <trkpt lat="45.2322" lon="6.06523">
        <ele>2389</ele>
        <time>2023-08-11T10:29:53.000Z</time>
      </trkpt>
      <trkpt lat="45.23221" lon="6.06525">
        <ele>2388.8000488281</ele>
        <time>2023-08-11T10:29:57.000Z</time>
      </trkpt>
      <trkpt lat="45.23224" lon="6.06523">
        <ele>2388.1999511719</ele>
        <time>2023-08-11T10:30:02.000Z</time>
      </trkpt>
      <trkpt lat="45.23224" lon="6.06523">
        <ele>2388</ele>
        <time>2023-08-11T10:30:09.000Z</time>
      </trkpt>
      <trkpt lat="45.23224" lon="6.06515">
        <ele>2389.3999023438</ele>
        <time>2023-08-11T10:30:23.000Z</time>
      </trkpt>
      <trkpt lat="45.23224" lon="6.06512">
        <ele>2389.8000488281</ele>
        <time>2023-08-11T10:30:26.000Z</time>
      </trkpt>
      <trkpt lat="45.23226" lon="6.06508">
        <ele>2391</ele>
        <time>2023-08-11T10:30:36.000Z</time>
      </trkpt>
      <trkpt lat="45.23225" lon="6.0651">
        <ele>2392</ele>
        <time>2023-08-11T10:30:43.000Z</time>
      </trkpt>
      <trkpt lat="45.23224" lon="6.06512">
        <ele>2392.3999023438</ele>
        <time>2023-08-11T10:30:45.000Z</time>
      </trkpt>
      <trkpt lat="45.23222" lon="6.06509">
        <ele>2392.3999023438</ele>
        <time>2023-08-11T10:30:50.000Z</time>
      </trkpt>
      <trkpt lat="45.23221" lon="6.06504">
        <ele>2393</ele>
        <time>2023-08-11T10:30:56.000Z</time>
      </trkpt>
      <trkpt lat="45.23222" lon="6.06503">
        <ele>2393</ele>
        <time>2023-08-11T10:30:57.000Z</time>
      </trkpt>
      <trkpt lat="45.23221" lon="6.06494">
        <ele>2393.8000488281</ele>
        <time>2023-08-11T10:31:04.000Z</time>
      </trkpt>
      <trkpt lat="45.23221" lon="6.06493">
        <ele>2394.1999511719</ele>
        <time>2023-08-11T10:31:07.000Z</time>
      </trkpt>
      <trkpt lat="45.23223" lon="6.06491">
        <ele>2396.3999023438</ele>
        <time>2023-08-11T10:31:22.000Z</time>
      </trkpt>
      <trkpt lat="45.23223" lon="6.06493">
        <ele>2397.3999023438</ele>
        <time>2023-08-11T10:31:31.000Z</time>
      </trkpt>
      <trkpt lat="45.23222" lon="6.06488">
        <ele>2397.3999023438</ele>
        <time>2023-08-11T10:31:37.000Z</time>
      </trkpt>
      <trkpt lat="45.23222" lon="6.06486">
        <ele>2397.3999023438</ele>
        <time>2023-08-11T10:31:39.000Z</time>
      </trkpt>
      <trkpt lat="45.23222" lon="6.06485">
        <ele>2398.6000976562</ele>
        <time>2023-08-11T10:31:46.000Z</time>
      </trkpt>
      <trkpt lat="45.23222" lon="6.06484">
        <ele>2398.8000488281</ele>
        <time>2023-08-11T10:31:47.000Z</time>
      </trkpt>
      <trkpt lat="45.2322" lon="6.06483">
        <ele>2399.6000976562</ele>
        <time>2023-08-11T10:31:53.000Z</time>
      </trkpt>
      <trkpt lat="45.23217" lon="6.06483">
        <ele>2400.6000976562</ele>
        <time>2023-08-11T10:31:59.000Z</time>
      </trkpt>
      <trkpt lat="45.23216" lon="6.06483">
        <ele>2401.1999511719</ele>
        <time>2023-08-11T10:32:03.000Z</time>
      </trkpt>
      <trkpt lat="45.23213" lon="6.06483">
        <ele>2401.8000488281</ele>
        <time>2023-08-11T10:32:07.000Z</time>
      </trkpt>
      <trkpt lat="45.23211" lon="6.06481">
        <ele>2402.6000976562</ele>
        <time>2023-08-11T10:32:12.000Z</time>
      </trkpt>
      <trkpt lat="45.2321" lon="6.0648">
        <ele>2402.8000488281</ele>
        <time>2023-08-11T10:32:13.000Z</time>
      </trkpt>
      <trkpt lat="45.2321" lon="6.06477">
        <ele>2403.3999023438</ele>
        <time>2023-08-11T10:32:18.000Z</time>
      </trkpt>
      <trkpt lat="45.2321" lon="6.06476">
        <ele>2403.3999023438</ele>
        <time>2023-08-11T10:32:19.000Z</time>
      </trkpt>
      <trkpt lat="45.23213" lon="6.06476">
        <ele>2403.3999023438</ele>
        <time>2023-08-11T10:32:27.000Z</time>
      </trkpt>
      <trkpt lat="45.23213" lon="6.06478">
        <ele>2403.1999511719</ele>
        <time>2023-08-11T10:32:34.000Z</time>
      </trkpt>
      <trkpt lat="45.23211" lon="6.06474">
        <ele>2403.3999023438</ele>
        <time>2023-08-11T10:32:41.000Z</time>
      </trkpt>
      <trkpt lat="45.23211" lon="6.06471">
        <ele>2403.8000488281</ele>
        <time>2023-08-11T10:32:44.000Z</time>
      </trkpt>
      <trkpt lat="45.23211" lon="6.06467">
        <ele>2404.3999023438</ele>
        <time>2023-08-11T10:32:48.000Z</time>
      </trkpt>
      <trkpt lat="45.23211" lon="6.06467">
        <ele>2405</ele>
        <time>2023-08-11T10:32:51.000Z</time>
      </trkpt>
      <trkpt lat="45.23212" lon="6.06465">
        <ele>2405.8000488281</ele>
        <time>2023-08-11T10:32:56.000Z</time>
      </trkpt>
      <trkpt lat="45.23212" lon="6.06463">
        <ele>2406</ele>
        <time>2023-08-11T10:32:58.000Z</time>
      </trkpt>
      <trkpt lat="45.23212" lon="6.06463">
        <ele>2406.3999023438</ele>
        <time>2023-08-11T10:33:01.000Z</time>
      </trkpt>
      <trkpt lat="45.23211" lon="6.06459">
        <ele>2407</ele>
        <time>2023-08-11T10:33:06.000Z</time>
      </trkpt>
      <trkpt lat="45.23211" lon="6.06457">
        <ele>2408.1999511719</ele>
        <time>2023-08-11T10:33:12.000Z</time>
      </trkpt>
      <trkpt lat="45.23209" lon="6.06453">
        <ele>2409.1999511719</ele>
        <time>2023-08-11T10:33:19.000Z</time>
      </trkpt>
      <trkpt lat="45.23208" lon="6.06452">
        <ele>2409.3999023438</ele>
        <time>2023-08-11T10:33:20.000Z</time>
      </trkpt>
      <trkpt lat="45.23208" lon="6.06449">
        <ele>2410.1999511719</ele>
        <time>2023-08-11T10:33:25.000Z</time>
      </trkpt>
      <trkpt lat="45.23207" lon="6.06448">
        <ele>2410.3999023438</ele>
        <time>2023-08-11T10:33:26.000Z</time>
      </trkpt>
      <trkpt lat="45.23207" lon="6.06442">
        <ele>2411.6000976562</ele>
        <time>2023-08-11T10:33:33.000Z</time>
      </trkpt>
      <trkpt lat="45.23207" lon="6.06442">
        <ele>2412.3999023438</ele>
        <time>2023-08-11T10:33:42.000Z</time>
      </trkpt>
      <trkpt lat="45.23208" lon="6.06441">
        <ele>2412.6000976562</ele>
        <time>2023-08-11T10:33:50.000Z</time>
      </trkpt>
      <trkpt lat="45.23205" lon="6.06438">
        <ele>2413.3999023438</ele>
        <time>2023-08-11T10:33:57.000Z</time>
      </trkpt>
      <trkpt lat="45.23204" lon="6.06439">
        <ele>2413.8000488281</ele>
        <time>2023-08-11T10:33:59.000Z</time>
      </trkpt>
      <trkpt lat="45.23201" lon="6.06441">
        <ele>2414.6000976562</ele>
        <time>2023-08-11T10:34:05.000Z</time>
      </trkpt>
      <trkpt lat="45.23201" lon="6.06441">
        <ele>2414.8000488281</ele>
        <time>2023-08-11T10:34:06.000Z</time>
      </trkpt>
      <trkpt lat="45.23199" lon="6.0644">
        <ele>2415.6000976562</ele>
        <time>2023-08-11T10:34:12.000Z</time>
      </trkpt>
      <trkpt lat="45.23199" lon="6.0644">
        <ele>2415.8000488281</ele>
        <time>2023-08-11T10:34:14.000Z</time>
      </trkpt>
      <trkpt lat="45.23195" lon="6.06437">
        <ele>2416.6000976562</ele>
        <time>2023-08-11T10:34:20.000Z</time>
      </trkpt>
      <trkpt lat="45.23191" lon="6.06434">
        <ele>2417</ele>
        <time>2023-08-11T10:34:25.000Z</time>
      </trkpt>
      <trkpt lat="45.2319" lon="6.06432">
        <ele>2417.3999023438</ele>
        <time>2023-08-11T10:34:28.000Z</time>
      </trkpt>
      <trkpt lat="45.23188" lon="6.0643">
        <ele>2418</ele>
        <time>2023-08-11T10:34:34.000Z</time>
      </trkpt>
      <trkpt lat="45.23187" lon="6.06428">
        <ele>2418.3999023438</ele>
        <time>2023-08-11T10:34:37.000Z</time>
      </trkpt>
      <trkpt lat="45.23187" lon="6.06422">
        <ele>2418.6000976562</ele>
        <time>2023-08-11T10:34:43.000Z</time>
      </trkpt>
      <trkpt lat="45.23188" lon="6.06421">
        <ele>2418.6000976562</ele>
        <time>2023-08-11T10:34:44.000Z</time>
      </trkpt>
      <trkpt lat="45.23189" lon="6.06425">
        <ele>2418.6000976562</ele>
        <time>2023-08-11T10:34:51.000Z</time>
      </trkpt>
      <trkpt lat="45.23187" lon="6.06428">
        <ele>2418.3999023438</ele>
        <time>2023-08-11T10:35:00.000Z</time>
      </trkpt>
      <trkpt lat="45.23185" lon="6.06425">
        <ele>2418.8000488281</ele>
        <time>2023-08-11T10:35:07.000Z</time>
      </trkpt>
      <trkpt lat="45.23185" lon="6.06424">
        <ele>2419.1999511719</ele>
        <time>2023-08-11T10:35:09.000Z</time>
      </trkpt>
      <trkpt lat="45.23186" lon="6.06421">
        <ele>2419.8000488281</ele>
        <time>2023-08-11T10:35:15.000Z</time>
      </trkpt>
      <trkpt lat="45.23187" lon="6.0642">
        <ele>2420.1999511719</ele>
        <time>2023-08-11T10:35:18.000Z</time>
      </trkpt>
      <trkpt lat="45.23187" lon="6.06419">
        <ele>2420.3999023438</ele>
        <time>2023-08-11T10:35:19.000Z</time>
      </trkpt>
      <trkpt lat="45.23187" lon="6.06416">
        <ele>2421.3999023438</ele>
        <time>2023-08-11T10:35:25.000Z</time>
      </trkpt>
      <trkpt lat="45.23187" lon="6.06414">
        <ele>2421.8000488281</ele>
        <time>2023-08-11T10:35:27.000Z</time>
      </trkpt>
      <trkpt lat="45.23187" lon="6.0641">
        <ele>2422.6000976562</ele>
        <time>2023-08-11T10:35:31.000Z</time>
      </trkpt>
      <trkpt lat="45.23187" lon="6.06409">
        <ele>2422.8000488281</ele>
        <time>2023-08-11T10:35:33.000Z</time>
      </trkpt>
      <trkpt lat="45.23187" lon="6.06408">
        <ele>2423.8000488281</ele>
        <time>2023-08-11T10:35:39.000Z</time>
      </trkpt>
      <trkpt lat="45.23187" lon="6.06407">
        <ele>2424</ele>
        <time>2023-08-11T10:35:41.000Z</time>
      </trkpt>
      <trkpt lat="45.23188" lon="6.06405">
        <ele>2425</ele>
        <time>2023-08-11T10:35:47.000Z</time>
      </trkpt>
      <trkpt lat="45.23187" lon="6.06405">
        <ele>2425.6000976562</ele>
        <time>2023-08-11T10:35:52.000Z</time>
      </trkpt>
      <trkpt lat="45.23185" lon="6.06403">
        <ele>2426</ele>
        <time>2023-08-11T10:35:55.000Z</time>
      </trkpt>
      <trkpt lat="45.23184" lon="6.06403">
        <ele>2426.3999023438</ele>
        <time>2023-08-11T10:35:58.000Z</time>
      </trkpt>
      <trkpt lat="45.23183" lon="6.06402">
        <ele>2427</ele>
        <time>2023-08-11T10:36:03.000Z</time>
      </trkpt>
      <trkpt lat="45.23181" lon="6.06402">
        <ele>2427.3999023438</ele>
        <time>2023-08-11T10:36:06.000Z</time>
      </trkpt>
      <trkpt lat="45.23181" lon="6.06402">
        <ele>2428</ele>
        <time>2023-08-11T10:36:11.000Z</time>
      </trkpt>
      <trkpt lat="45.23181" lon="6.064">
        <ele>2428.1999511719</ele>
        <time>2023-08-11T10:36:13.000Z</time>
      </trkpt>
      <trkpt lat="45.23178" lon="6.06391">
        <ele>2428.6000976562</ele>
        <time>2023-08-11T10:36:22.000Z</time>
      </trkpt>
      <trkpt lat="45.23176" lon="6.06391">
        <ele>2429</ele>
        <time>2023-08-11T10:36:27.000Z</time>
      </trkpt>
      <trkpt lat="45.23176" lon="6.06391">
        <ele>2429</ele>
        <time>2023-08-11T10:36:29.000Z</time>
      </trkpt>
      <trkpt lat="45.23176" lon="6.06391">
        <ele>2429.8000488281</ele>
        <time>2023-08-11T10:36:36.000Z</time>
      </trkpt>
      <trkpt lat="45.23175" lon="6.06388">
        <ele>2430</ele>
        <time>2023-08-11T10:36:39.000Z</time>
      </trkpt>
      <trkpt lat="45.23174" lon="6.06386">
        <ele>2430.8000488281</ele>
        <time>2023-08-11T10:36:44.000Z</time>
      </trkpt>
      <trkpt lat="45.23173" lon="6.06385">
        <ele>2431</ele>
        <time>2023-08-11T10:36:51.000Z</time>
      </trkpt>
      <trkpt lat="45.23173" lon="6.06384">
        <ele>2431</ele>
        <time>2023-08-11T10:36:54.000Z</time>
      </trkpt>
      <trkpt lat="45.23172" lon="6.06385">
        <ele>2431.6000976562</ele>
        <time>2023-08-11T10:36:57.000Z</time>
      </trkpt>
      <trkpt lat="45.23172" lon="6.06383">
        <ele>2432.1999511719</ele>
        <time>2023-08-11T10:37:04.000Z</time>
      </trkpt>
      <trkpt lat="45.23172" lon="6.06375">
        <ele>2432.6000976562</ele>
        <time>2023-08-11T10:37:09.000Z</time>
      </trkpt>
      <trkpt lat="45.2317" lon="6.0637">
        <ele>2433.1999511719</ele>
        <time>2023-08-11T10:37:15.000Z</time>
      </trkpt>
      <trkpt lat="45.23169" lon="6.0637">
        <ele>2433.3999023438</ele>
        <time>2023-08-11T10:37:17.000Z</time>
      </trkpt>
      <trkpt lat="45.23166" lon="6.06368">
        <ele>2434.1999511719</ele>
        <time>2023-08-11T10:37:24.000Z</time>
      </trkpt>
      <trkpt lat="45.23166" lon="6.06369">
        <ele>2434.3999023438</ele>
        <time>2023-08-11T10:37:27.000Z</time>
      </trkpt>
      <trkpt lat="45.23163" lon="6.06369">
        <ele>2435</ele>
        <time>2023-08-11T10:37:32.000Z</time>
      </trkpt>
      <trkpt lat="45.23161" lon="6.06368">
        <ele>2435.3999023438</ele>
        <time>2023-08-11T10:37:37.000Z</time>
      </trkpt>
      <trkpt lat="45.2316" lon="6.06367">
        <ele>2435.3999023438</ele>
        <time>2023-08-11T10:37:39.000Z</time>
      </trkpt>
      <trkpt lat="45.23158" lon="6.06364">
        <ele>2435.3999023438</ele>
        <time>2023-08-11T10:37:45.000Z</time>
      </trkpt>
      <trkpt lat="45.23153" lon="6.06358">
        <ele>2435.6000976562</ele>
        <time>2023-08-11T10:37:53.000Z</time>
      </trkpt>
      <trkpt lat="45.2315" lon="6.06354">
        <ele>2435.8000488281</ele>
        <time>2023-08-11T10:38:01.000Z</time>
      </trkpt>
      <trkpt lat="45.23147" lon="6.06356">
        <ele>2436.1999511719</ele>
        <time>2023-08-11T10:38:08.000Z</time>
      </trkpt>
      <trkpt lat="45.23146" lon="6.06357">
        <ele>2436.6000976562</ele>
        <time>2023-08-11T10:38:10.000Z</time>
      </trkpt>
      <trkpt lat="45.23145" lon="6.0636">
        <ele>2436.8000488281</ele>
        <time>2023-08-11T10:38:14.000Z</time>
      </trkpt>
      <trkpt lat="45.23145" lon="6.06347">
        <ele>2437.6000976562</ele>
        <time>2023-08-11T10:38:20.000Z</time>
      </trkpt>
      <trkpt lat="45.23142" lon="6.06346">
        <ele>2438</ele>
        <time>2023-08-11T10:38:24.000Z</time>
      </trkpt>
      <trkpt lat="45.23141" lon="6.06337">
        <ele>2438.3999023438</ele>
        <time>2023-08-11T10:38:31.000Z</time>
      </trkpt>
      <trkpt lat="45.23141" lon="6.06334">
        <ele>2438.6000976562</ele>
        <time>2023-08-11T10:38:36.000Z</time>
      </trkpt>
      <trkpt lat="45.23141" lon="6.06331">
        <ele>2438.8000488281</ele>
        <time>2023-08-11T10:38:38.000Z</time>
      </trkpt>
      <trkpt lat="45.23141" lon="6.06322">
        <ele>2439.3999023438</ele>
        <time>2023-08-11T10:38:45.000Z</time>
      </trkpt>
      <trkpt lat="45.23141" lon="6.06323">
        <ele>2439.6000976562</ele>
        <time>2023-08-11T10:38:47.000Z</time>
      </trkpt>
      <trkpt lat="45.23139" lon="6.06323">
        <ele>2439.8000488281</ele>
        <time>2023-08-11T10:38:52.000Z</time>
      </trkpt>
      <trkpt lat="45.23139" lon="6.06317">
        <ele>2440.8000488281</ele>
        <time>2023-08-11T10:39:03.000Z</time>
      </trkpt>
      <trkpt lat="45.23139" lon="6.06317">
        <ele>2441</ele>
        <time>2023-08-11T10:39:04.000Z</time>
      </trkpt>
      <trkpt lat="45.23133" lon="6.06316">
        <ele>2441.8000488281</ele>
        <time>2023-08-11T10:39:12.000Z</time>
      </trkpt>
      <trkpt lat="45.23133" lon="6.06316">
        <ele>2441.8000488281</ele>
        <time>2023-08-11T10:39:13.000Z</time>
      </trkpt>
      <trkpt lat="45.23132" lon="6.06317">
        <ele>2441.8000488281</ele>
        <time>2023-08-11T10:39:19.000Z</time>
      </trkpt>
      <trkpt lat="45.23133" lon="6.06316">
        <ele>2442</ele>
        <time>2023-08-11T10:39:24.000Z</time>
      </trkpt>
      <trkpt lat="45.23135" lon="6.06311">
        <ele>2441.6000976562</ele>
        <time>2023-08-11T10:39:31.000Z</time>
      </trkpt>
      <trkpt lat="45.23132" lon="6.06305">
        <ele>2442.3999023438</ele>
        <time>2023-08-11T10:39:40.000Z</time>
      </trkpt>
      <trkpt lat="45.23123" lon="6.06302">
        <ele>2443.3999023438</ele>
        <time>2023-08-11T10:39:50.000Z</time>
      </trkpt>
      <trkpt lat="45.23094" lon="6.06221">
        <ele>2473.8000488281</ele>
        <time>2023-08-11T10:46:38.000Z</time>
      </trkpt>
      <trkpt lat="45.23094" lon="6.0622">
        <ele>2474.3999023438</ele>
        <time>2023-08-11T10:46:40.000Z</time>
      </trkpt>
      <trkpt lat="45.23094" lon="6.06218">
        <ele>2474.6000976562</ele>
        <time>2023-08-11T10:46:42.000Z</time>
      </trkpt>
      <trkpt lat="45.23092" lon="6.06212">
        <ele>2475.3999023438</ele>
        <time>2023-08-11T10:46:46.000Z</time>
      </trkpt>
      <trkpt lat="45.23092" lon="6.06211">
        <ele>2475.6000976562</ele>
        <time>2023-08-11T10:46:48.000Z</time>
      </trkpt>
      <trkpt lat="45.23087" lon="6.06206">
        <ele>2480</ele>
        <time>2023-08-11T10:47:23.000Z</time>
      </trkpt>
      <trkpt lat="45.23087" lon="6.06206">
        <ele>2480.1999511719</ele>
        <time>2023-08-11T10:47:24.000Z</time>
      </trkpt>
      <trkpt lat="45.23092" lon="6.06203">
        <ele>2482.3999023438</ele>
        <time>2023-08-11T10:47:41.000Z</time>
      </trkpt>
      <trkpt lat="45.23092" lon="6.06204">
        <ele>2483.1999511719</ele>
        <time>2023-08-11T10:47:46.000Z</time>
      </trkpt>
      <trkpt lat="45.23094" lon="6.06197">
        <ele>2483.6000976562</ele>
        <time>2023-08-11T10:48:10.000Z</time>
      </trkpt>
      <trkpt lat="45.23075" lon="6.06159">
        <ele>2497.1999511719</ele>
        <time>2023-08-11T10:51:03.000Z</time>
      </trkpt>
      <trkpt lat="45.23073" lon="6.06158">
        <ele>2497.8000488281</ele>
        <time>2023-08-11T10:51:05.000Z</time>
      </trkpt>
      <trkpt lat="45.23059" lon="6.06146">
        <ele>2500</ele>
        <time>2023-08-11T10:51:47.000Z</time>
      </trkpt>
      <trkpt lat="45.23059" lon="6.06143">
        <ele>2500.6000976562</ele>
        <time>2023-08-11T10:51:51.000Z</time>
      </trkpt>
      <trkpt lat="45.2306" lon="6.06141">
        <ele>2501</ele>
        <time>2023-08-11T10:51:56.000Z</time>
      </trkpt>
      <trkpt lat="45.23058" lon="6.06138">
        <ele>2501.6000976562</ele>
        <time>2023-08-11T10:52:03.000Z</time>
      </trkpt>
      <trkpt lat="45.23059" lon="6.06138">
        <ele>2501.6000976562</ele>
        <time>2023-08-11T10:52:04.000Z</time>
      </trkpt>
      <trkpt lat="45.23058" lon="6.06135">
        <ele>2501.8000488281</ele>
        <time>2023-08-11T10:52:09.000Z</time>
      </trkpt>
      <trkpt lat="45.23059" lon="6.06131">
        <ele>2502.6000976562</ele>
        <time>2023-08-11T10:52:15.000Z</time>
      </trkpt>
      <trkpt lat="45.23059" lon="6.06133">
        <ele>2503.8000488281</ele>
        <time>2023-08-11T10:52:21.000Z</time>
      </trkpt>
      <trkpt lat="45.23059" lon="6.06133">
        <ele>2503.8000488281</ele>
        <time>2023-08-11T10:52:22.000Z</time>
      </trkpt>
      <trkpt lat="45.23058" lon="6.06115">
        <ele>2509.3999023438</ele>
        <time>2023-08-11T10:53:10.000Z</time>
      </trkpt>
      <trkpt lat="45.23058" lon="6.06117">
        <ele>2510</ele>
        <time>2023-08-11T10:53:14.000Z</time>
      </trkpt>
      <trkpt lat="45.23057" lon="6.06117">
        <ele>2510.3999023438</ele>
        <time>2023-08-11T10:53:17.000Z</time>
      </trkpt>
      <trkpt lat="45.23057" lon="6.06115">
        <ele>2511.1999511719</ele>
        <time>2023-08-11T10:53:22.000Z</time>
      </trkpt>
      <trkpt lat="45.23057" lon="6.06114">
        <ele>2511.3999023438</ele>
        <time>2023-08-11T10:53:23.000Z</time>
      </trkpt>
      <trkpt lat="45.23057" lon="6.06114">
        <ele>2512.1999511719</ele>
        <time>2023-08-11T10:53:27.000Z</time>
      </trkpt>
      <trkpt lat="45.23057" lon="6.0611">
        <ele>2513</ele>
        <time>2023-08-11T10:53:31.000Z</time>
      </trkpt>
      <trkpt lat="45.23048" lon="6.06106">
        <ele>2517.3999023438</ele>
        <time>2023-08-11T10:54:05.000Z</time>
      </trkpt>
      <trkpt lat="45.23048" lon="6.06107">
        <ele>2517.8000488281</ele>
        <time>2023-08-11T10:54:07.000Z</time>
      </trkpt>
      <trkpt lat="45.23047" lon="6.06107">
        <ele>2518.3999023438</ele>
        <time>2023-08-11T10:54:11.000Z</time>
      </trkpt>
      <trkpt lat="45.23043" lon="6.06106">
        <ele>2518.6000976562</ele>
        <time>2023-08-11T10:54:17.000Z</time>
      </trkpt>
      <trkpt lat="45.23045" lon="6.06101">
        <ele>2519.1999511719</ele>
        <time>2023-08-11T10:54:40.000Z</time>
      </trkpt>
      <trkpt lat="45.23045" lon="6.061">
        <ele>2519.3999023438</ele>
        <time>2023-08-11T10:54:41.000Z</time>
      </trkpt>
      <trkpt lat="45.23044" lon="6.06098">
        <ele>2520.6000976562</ele>
        <time>2023-08-11T10:54:47.000Z</time>
      </trkpt>
      <trkpt lat="45.23045" lon="6.06097">
        <ele>2520.8000488281</ele>
        <time>2023-08-11T10:54:48.000Z</time>
      </trkpt>
      <trkpt lat="45.23044" lon="6.06097">
        <ele>2521.6000976562</ele>
        <time>2023-08-11T10:54:53.000Z</time>
      </trkpt>
      <trkpt lat="45.23043" lon="6.06097">
        <ele>2522</ele>
        <time>2023-08-11T10:54:56.000Z</time>
      </trkpt>
      <trkpt lat="45.23044" lon="6.06098">
        <ele>2522.3999023438</ele>
        <time>2023-08-11T10:55:00.000Z</time>
      </trkpt>
      <trkpt lat="45.23043" lon="6.06098">
        <ele>2522.6000976562</ele>
        <time>2023-08-11T10:55:04.000Z</time>
      </trkpt>
      <trkpt lat="45.23041" lon="6.06096">
        <ele>2522.8000488281</ele>
        <time>2023-08-11T10:55:08.000Z</time>
      </trkpt>
      <trkpt lat="45.23041" lon="6.06093">
        <ele>2523.3999023438</ele>
        <time>2023-08-11T10:55:13.000Z</time>
      </trkpt>
      <trkpt lat="45.23041" lon="6.06091">
        <ele>2523.8000488281</ele>
        <time>2023-08-11T10:55:16.000Z</time>
      </trkpt>
      <trkpt lat="45.23041" lon="6.06089">
        <ele>2524.3999023438</ele>
        <time>2023-08-11T10:55:19.000Z</time>
      </trkpt>
      <trkpt lat="45.23046" lon="6.06086">
        <ele>2525.3999023438</ele>
        <time>2023-08-11T10:55:29.000Z</time>
      </trkpt>
      <trkpt lat="45.23047" lon="6.06083">
        <ele>2526</ele>
        <time>2023-08-11T10:55:33.000Z</time>
      </trkpt>
      <trkpt lat="45.23041" lon="6.06076">
        <ele>2529.1999511719</ele>
        <time>2023-08-11T10:56:04.000Z</time>
      </trkpt>
      <trkpt lat="45.23033" lon="6.06076">
        <ele>2531.1999511719</ele>
        <time>2023-08-11T10:56:18.000Z</time>
      </trkpt>
      <trkpt lat="45.23032" lon="6.06076">
        <ele>2531.3999023438</ele>
        <time>2023-08-11T10:56:22.000Z</time>
      </trkpt>
      <trkpt lat="45.23026" lon="6.06075">
        <ele>2531.6000976562</ele>
        <time>2023-08-11T10:56:38.000Z</time>
      </trkpt>
      <trkpt lat="45.23032" lon="6.06072">
        <ele>2532.1999511719</ele>
        <time>2023-08-11T10:56:45.000Z</time>
      </trkpt>
      <trkpt lat="45.23032" lon="6.06072">
        <ele>2532.1999511719</ele>
        <time>2023-08-11T10:56:46.000Z</time>
      </trkpt>
      <trkpt lat="45.23033" lon="6.06071">
        <ele>2533</ele>
        <time>2023-08-11T10:56:52.000Z</time>
      </trkpt>
      <trkpt lat="45.23033" lon="6.06071">
        <ele>2533.3999023438</ele>
        <time>2023-08-11T10:56:53.000Z</time>
      </trkpt>
      <trkpt lat="45.23032" lon="6.06071">
        <ele>2533.8000488281</ele>
        <time>2023-08-11T10:57:00.000Z</time>
      </trkpt>
      <trkpt lat="45.23033" lon="6.06069">
        <ele>2534.3999023438</ele>
        <time>2023-08-11T10:57:04.000Z</time>
      </trkpt>
      <trkpt lat="45.23034" lon="6.06068">
        <ele>2535</ele>
        <time>2023-08-11T10:57:07.000Z</time>
      </trkpt>
      <trkpt lat="45.23035" lon="6.06065">
        <ele>2535.6000976562</ele>
        <time>2023-08-11T10:57:13.000Z</time>
      </trkpt>
      <trkpt lat="45.23036" lon="6.06064">
        <ele>2536.1999511719</ele>
        <time>2023-08-11T10:57:17.000Z</time>
      </trkpt>
      <trkpt lat="45.23038" lon="6.06062">
        <ele>2537</ele>
        <time>2023-08-11T10:57:26.000Z</time>
      </trkpt>
      <trkpt lat="45.23039" lon="6.06061">
        <ele>2537.6000976562</ele>
        <time>2023-08-11T10:57:30.000Z</time>
      </trkpt>
      <trkpt lat="45.23038" lon="6.06061">
        <ele>2538</ele>
        <time>2023-08-11T10:57:33.000Z</time>
      </trkpt>
      <trkpt lat="45.23038" lon="6.06061">
        <ele>2538.6000976562</ele>
        <time>2023-08-11T10:57:37.000Z</time>
      </trkpt>
      <trkpt lat="45.23037" lon="6.0606">
        <ele>2539.8000488281</ele>
        <time>2023-08-11T10:57:46.000Z</time>
      </trkpt>
      <trkpt lat="45.23038" lon="6.06062">
        <ele>2540.6000976562</ele>
        <time>2023-08-11T10:57:57.000Z</time>
      </trkpt>
      <trkpt lat="45.23036" lon="6.06044">
        <ele>2542.6000976562</ele>
        <time>2023-08-11T10:58:50.000Z</time>
      </trkpt>
      <trkpt lat="45.23038" lon="6.06047">
        <ele>2542.8000488281</ele>
        <time>2023-08-11T10:58:57.000Z</time>
      </trkpt>
      <trkpt lat="45.23038" lon="6.06046">
        <ele>2542.8000488281</ele>
        <time>2023-08-11T10:58:59.000Z</time>
      </trkpt>
      <trkpt lat="45.23041" lon="6.06051">
        <ele>2543.6000976562</ele>
        <time>2023-08-11T10:59:06.000Z</time>
      </trkpt>
      <trkpt lat="45.23041" lon="6.06052">
        <ele>2544</ele>
        <time>2023-08-11T10:59:09.000Z</time>
      </trkpt>
      <trkpt lat="45.2304" lon="6.06051">
        <ele>2545</ele>
        <time>2023-08-11T10:59:14.000Z</time>
      </trkpt>
      <trkpt lat="45.23037" lon="6.06046">
        <ele>2546.1999511719</ele>
        <time>2023-08-11T10:59:25.000Z</time>
      </trkpt>
      <trkpt lat="45.23037" lon="6.06048">
        <ele>2547</ele>
        <time>2023-08-11T10:59:34.000Z</time>
      </trkpt>
      <trkpt lat="45.23037" lon="6.06048">
        <ele>2547.1999511719</ele>
        <time>2023-08-11T10:59:38.000Z</time>
      </trkpt>
      <trkpt lat="45.23037" lon="6.06047">
        <ele>2547.6000976562</ele>
        <time>2023-08-11T10:59:40.000Z</time>
      </trkpt>
      <trkpt lat="45.23037" lon="6.06047">
        <ele>2548.3999023438</ele>
        <time>2023-08-11T10:59:45.000Z</time>
      </trkpt>
      <trkpt lat="45.23036" lon="6.06048">
        <ele>2548.6000976562</ele>
        <time>2023-08-11T10:59:48.000Z</time>
      </trkpt>
      <trkpt lat="45.23036" lon="6.06047">
        <ele>2548.8000488281</ele>
        <time>2023-08-11T10:59:55.000Z</time>
      </trkpt>
      <trkpt lat="45.23037" lon="6.06047">
        <ele>2549.3999023438</ele>
        <time>2023-08-11T10:59:58.000Z</time>
      </trkpt>
      <trkpt lat="45.23036" lon="6.06045">
        <ele>2549.6000976562</ele>
        <time>2023-08-11T11:00:01.000Z</time>
      </trkpt>
      <trkpt lat="45.23035" lon="6.06045">
        <ele>2550.1999511719</ele>
        <time>2023-08-11T11:00:11.000Z</time>
      </trkpt>
      <trkpt lat="45.2303" lon="6.06043">
        <ele>2550.6000976562</ele>
        <time>2023-08-11T11:00:21.000Z</time>
      </trkpt>
      <trkpt lat="45.2303" lon="6.06043">
        <ele>2551.1999511719</ele>
        <time>2023-08-11T11:00:26.000Z</time>
      </trkpt>
      <trkpt lat="45.2303" lon="6.06041">
        <ele>2551.6000976562</ele>
        <time>2023-08-11T11:00:29.000Z</time>
      </trkpt>
      <trkpt lat="45.23032" lon="6.06038">
        <ele>2552</ele>
        <time>2023-08-11T11:00:32.000Z</time>
      </trkpt>
      <trkpt lat="45.23035" lon="6.06033">
        <ele>2552.8000488281</ele>
        <time>2023-08-11T11:00:37.000Z</time>
      </trkpt>
      <trkpt lat="45.23036" lon="6.06031">
        <ele>2553.1999511719</ele>
        <time>2023-08-11T11:00:39.000Z</time>
      </trkpt>
      <trkpt lat="45.23037" lon="6.06031">
        <ele>2553.8000488281</ele>
        <time>2023-08-11T11:00:43.000Z</time>
      </trkpt>
      <trkpt lat="45.23037" lon="6.0603">
        <ele>2554</ele>
        <time>2023-08-11T11:00:45.000Z</time>
      </trkpt>
      <trkpt lat="45.23038" lon="6.06027">
        <ele>2554.6000976562</ele>
        <time>2023-08-11T11:00:53.000Z</time>
      </trkpt>
      <trkpt lat="45.23038" lon="6.06027">
        <ele>2555</ele>
        <time>2023-08-11T11:00:55.000Z</time>
      </trkpt>
      <trkpt lat="45.23036" lon="6.06027">
        <ele>2555.8000488281</ele>
        <time>2023-08-11T11:01:00.000Z</time>
      </trkpt>
      <trkpt lat="45.23034" lon="6.06027">
        <ele>2556</ele>
        <time>2023-08-11T11:01:03.000Z</time>
      </trkpt>
      <trkpt lat="45.23033" lon="6.06027">
        <ele>2556.1999511719</ele>
        <time>2023-08-11T11:01:07.000Z</time>
      </trkpt>
      <trkpt lat="45.23037" lon="6.06023">
        <ele>2557</ele>
        <time>2023-08-11T11:01:13.000Z</time>
      </trkpt>
      <trkpt lat="45.23036" lon="6.0602">
        <ele>2558.1999511719</ele>
        <time>2023-08-11T11:01:18.000Z</time>
      </trkpt>
      <trkpt lat="45.23036" lon="6.0602">
        <ele>2558.1999511719</ele>
        <time>2023-08-11T11:01:20.000Z</time>
      </trkpt>
      <trkpt lat="45.23035" lon="6.0602">
        <ele>2558.6000976562</ele>
        <time>2023-08-11T11:01:28.000Z</time>
      </trkpt>
      <trkpt lat="45.23035" lon="6.0602">
        <ele>2558.6000976562</ele>
        <time>2023-08-11T11:01:36.000Z</time>
      </trkpt>
      <trkpt lat="45.23037" lon="6.06015">
        <ele>2559</ele>
        <time>2023-08-11T11:01:44.000Z</time>
      </trkpt>
      <trkpt lat="45.23037" lon="6.06015">
        <ele>2559.1999511719</ele>
        <time>2023-08-11T11:01:45.000Z</time>
      </trkpt>
      <trkpt lat="45.23038" lon="6.06012">
        <ele>2560.3999023438</ele>
        <time>2023-08-11T11:01:51.000Z</time>
      </trkpt>
      <trkpt lat="45.23037" lon="6.06009">
        <ele>2561.3999023438</ele>
        <time>2023-08-11T11:01:58.000Z</time>
      </trkpt>
      <trkpt lat="45.23037" lon="6.06007">
        <ele>2561.8000488281</ele>
        <time>2023-08-11T11:02:00.000Z</time>
      </trkpt>
      <trkpt lat="45.23036" lon="6.06005">
        <ele>2562.6000976562</ele>
        <time>2023-08-11T11:02:05.000Z</time>
      </trkpt>
      <trkpt lat="45.23035" lon="6.06004">
        <ele>2563</ele>
        <time>2023-08-11T11:02:07.000Z</time>
      </trkpt>
      <trkpt lat="45.23036" lon="6.06004">
        <ele>2563.1999511719</ele>
        <time>2023-08-11T11:02:10.000Z</time>
      </trkpt>
      <trkpt lat="45.23038" lon="6.06001">
        <ele>2564</ele>
        <time>2023-08-11T11:02:15.000Z</time>
      </trkpt>
      <trkpt lat="45.23038" lon="6.06001">
        <ele>2564.1999511719</ele>
        <time>2023-08-11T11:02:16.000Z</time>
      </trkpt>
      <trkpt lat="45.2304" lon="6.06001">
        <ele>2564.1999511719</ele>
        <time>2023-08-11T11:02:22.000Z</time>
      </trkpt>
      <trkpt lat="45.23039" lon="6.06">
        <ele>2564.1999511719</ele>
        <time>2023-08-11T11:02:26.000Z</time>
      </trkpt>
      <trkpt lat="45.23038" lon="6.06001">
        <ele>2564.1999511719</ele>
        <time>2023-08-11T11:02:29.000Z</time>
      </trkpt>
      <trkpt lat="45.23037" lon="6.06002">
        <ele>2564.1999511719</ele>
        <time>2023-08-11T11:02:30.000Z</time>
      </trkpt>
      <trkpt lat="45.23034" lon="6.06003">
        <ele>2564</ele>
        <time>2023-08-11T11:02:34.000Z</time>
      </trkpt>
      <trkpt lat="45.23029" lon="6.06001">
        <ele>2563.8000488281</ele>
        <time>2023-08-11T11:02:49.000Z</time>
      </trkpt>
      <trkpt lat="45.23032" lon="6.06003">
        <ele>2563.6000976562</ele>
        <time>2023-08-11T11:02:58.000Z</time>
      </trkpt>
      <trkpt lat="45.23033" lon="6.06003">
        <ele>2563</ele>
        <time>2023-08-11T11:03:05.000Z</time>
      </trkpt>
      <trkpt lat="45.23033" lon="6.06002">
        <ele>2562.8000488281</ele>
        <time>2023-08-11T11:03:06.000Z</time>
      </trkpt>
      <trkpt lat="45.23034" lon="6.06003">
        <ele>2562.6000976562</ele>
        <time>2023-08-11T11:03:14.000Z</time>
      </trkpt>
      <trkpt lat="45.23034" lon="6.06004">
        <ele>2562.6000976562</ele>
        <time>2023-08-11T11:03:21.000Z</time>
      </trkpt>
      <trkpt lat="45.23034" lon="6.06003">
        <ele>2562.8000488281</ele>
        <time>2023-08-11T11:03:28.000Z</time>
      </trkpt>
      <trkpt lat="45.23034" lon="6.05999">
        <ele>2562.8000488281</ele>
        <time>2023-08-11T11:03:35.000Z</time>
      </trkpt>
      <trkpt lat="45.23036" lon="6.05999">
        <ele>2562.1999511719</ele>
        <time>2023-08-11T11:03:43.000Z</time>
      </trkpt>
      <trkpt lat="45.23036" lon="6.05997">
        <ele>2562</ele>
        <time>2023-08-11T11:03:49.000Z</time>
      </trkpt>
      <trkpt lat="45.23034" lon="6.05999">
        <ele>2561.6000976562</ele>
        <time>2023-08-11T11:03:54.000Z</time>
      </trkpt>
      <trkpt lat="45.23031" lon="6.05998">
        <ele>2561.6000976562</ele>
        <time>2023-08-11T11:04:06.000Z</time>
      </trkpt>
      <trkpt lat="45.23031" lon="6.06001">
        <ele>2561.1999511719</ele>
        <time>2023-08-11T11:04:15.000Z</time>
      </trkpt>
      <trkpt lat="45.23033" lon="6.06">
        <ele>2561</ele>
        <time>2023-08-11T11:04:21.000Z</time>
      </trkpt>
      <trkpt lat="45.23034" lon="6.05997">
        <ele>2560.8000488281</ele>
        <time>2023-08-11T11:04:30.000Z</time>
      </trkpt>
      <trkpt lat="45.23035" lon="6.05997">
        <ele>2560.6000976562</ele>
        <time>2023-08-11T11:04:41.000Z</time>
      </trkpt>
      <trkpt lat="45.23034" lon="6.05998">
        <ele>2560.6000976562</ele>
        <time>2023-08-11T11:04:49.000Z</time>
      </trkpt>
      <trkpt lat="45.23034" lon="6.05994">
        <ele>2560.3999023438</ele>
        <time>2023-08-11T11:04:59.000Z</time>
      </trkpt>
      <trkpt lat="45.23031" lon="6.05992">
        <ele>2560.1999511719</ele>
        <time>2023-08-11T11:05:05.000Z</time>
      </trkpt>
      <trkpt lat="45.23031" lon="6.06">
        <ele>2560</ele>
        <time>2023-08-11T11:05:12.000Z</time>
      </trkpt>
      <trkpt lat="45.23031" lon="6.05998">
        <ele>2560</ele>
        <time>2023-08-11T11:05:20.000Z</time>
      </trkpt>
      <trkpt lat="45.2303" lon="6.05998">
        <ele>2560</ele>
        <time>2023-08-11T11:05:25.000Z</time>
      </trkpt>
      <trkpt lat="45.2303" lon="6.05999">
        <ele>2559.8000488281</ele>
        <time>2023-08-11T11:05:30.000Z</time>
      </trkpt>
      <trkpt lat="45.23032" lon="6.05999">
        <ele>2559.8000488281</ele>
        <time>2023-08-11T11:05:37.000Z</time>
      </trkpt>
      <trkpt lat="45.23031" lon="6.06003">
        <ele>2559.8000488281</ele>
        <time>2023-08-11T11:05:43.000Z</time>
      </trkpt>
      <trkpt lat="45.23031" lon="6.05999">
        <ele>2559.6000976562</ele>
        <time>2023-08-11T11:05:51.000Z</time>
      </trkpt>
      <trkpt lat="45.23035" lon="6.06">
        <ele>2559.1999511719</ele>
        <time>2023-08-11T11:06:15.000Z</time>
      </trkpt>
      <trkpt lat="45.23035" lon="6.05998">
        <ele>2559.1999511719</ele>
        <time>2023-08-11T11:06:22.000Z</time>
      </trkpt>
      <trkpt lat="45.23032" lon="6.05997">
        <ele>2559.1999511719</ele>
        <time>2023-08-11T11:06:29.000Z</time>
      </trkpt>
      <trkpt lat="45.23032" lon="6.05997">
        <ele>2559.1999511719</ele>
        <time>2023-08-11T11:06:38.000Z</time>
      </trkpt>
      <trkpt lat="45.23032" lon="6.05997">
        <ele>2559</ele>
        <time>2023-08-11T11:06:45.000Z</time>
      </trkpt>
      <trkpt lat="45.2303" lon="6.05996">
        <ele>2558.8000488281</ele>
        <time>2023-08-11T11:06:48.000Z</time>
      </trkpt>
      <trkpt lat="45.23031" lon="6.05997">
        <ele>2558.8000488281</ele>
        <time>2023-08-11T11:06:53.000Z</time>
      </trkpt>
      <trkpt lat="45.23031" lon="6.05998">
        <ele>2558.8000488281</ele>
        <time>2023-08-11T11:07:02.000Z</time>
      </trkpt>
      <trkpt lat="45.2303" lon="6.05998">
        <ele>2558.6000976562</ele>
        <time>2023-08-11T11:07:10.000Z</time>
      </trkpt>
      <trkpt lat="45.2303" lon="6.05999">
        <ele>2558.6000976562</ele>
        <time>2023-08-11T11:07:18.000Z</time>
      </trkpt>
      <trkpt lat="45.23031" lon="6.06">
        <ele>2558.6000976562</ele>
        <time>2023-08-11T11:07:25.000Z</time>
      </trkpt>
      <trkpt lat="45.23031" lon="6.06">
        <ele>2558.1999511719</ele>
        <time>2023-08-11T11:07:36.000Z</time>
      </trkpt>
      <trkpt lat="45.23032" lon="6.06002">
        <ele>2558.1999511719</ele>
        <time>2023-08-11T11:07:44.000Z</time>
      </trkpt>
      <trkpt lat="45.23032" lon="6.06">
        <ele>2558.8000488281</ele>
        <time>2023-08-11T11:07:50.000Z</time>
      </trkpt>
      <trkpt lat="45.23031" lon="6.06002">
        <ele>2558.8000488281</ele>
        <time>2023-08-11T11:07:57.000Z</time>
      </trkpt>
      <trkpt lat="45.23031" lon="6.06001">
        <ele>2558.3999023438</ele>
        <time>2023-08-11T11:08:06.000Z</time>
      </trkpt>
      <trkpt lat="45.23031" lon="6.06">
        <ele>2558.3999023438</ele>
        <time>2023-08-11T11:08:15.000Z</time>
      </trkpt>
      <trkpt lat="45.23033" lon="6.06002">
        <ele>2558.6000976562</ele>
        <time>2023-08-11T11:08:23.000Z</time>
      </trkpt>
      <trkpt lat="45.23037" lon="6.06001">
        <ele>2558.3999023438</ele>
        <time>2023-08-11T11:08:34.000Z</time>
      </trkpt>
      <trkpt lat="45.23033" lon="6.06001">
        <ele>2558.3999023438</ele>
        <time>2023-08-11T11:08:41.000Z</time>
      </trkpt>
      <trkpt lat="45.23031" lon="6.06">
        <ele>2558.3999023438</ele>
        <time>2023-08-11T11:08:50.000Z</time>
      </trkpt>
      <trkpt lat="45.2303" lon="6.05999">
        <ele>2558.3999023438</ele>
        <time>2023-08-11T11:08:58.000Z</time>
      </trkpt>
      <trkpt lat="45.23032" lon="6.05998">
        <ele>2558.8000488281</ele>
        <time>2023-08-11T11:09:04.000Z</time>
      </trkpt>
      <trkpt lat="45.23032" lon="6.05998">
        <ele>2558.6000976562</ele>
        <time>2023-08-11T11:09:12.000Z</time>
      </trkpt>
      <trkpt lat="45.2303" lon="6.05999">
        <ele>2558.8000488281</ele>
        <time>2023-08-11T11:09:23.000Z</time>
      </trkpt>
      <trkpt lat="45.23028" lon="6.06002">
        <ele>2558.6000976562</ele>
        <time>2023-08-11T11:09:37.000Z</time>
      </trkpt>
      <trkpt lat="45.23028" lon="6.06003">
        <ele>2558</ele>
        <time>2023-08-11T11:09:46.000Z</time>
      </trkpt>
      <trkpt lat="45.23027" lon="6.05998">
        <ele>2558.1999511719</ele>
        <time>2023-08-11T11:09:54.000Z</time>
      </trkpt>
      <trkpt lat="45.23026" lon="6.05991">
        <ele>2558</ele>
        <time>2023-08-11T11:10:03.000Z</time>
      </trkpt>
      <trkpt lat="45.23025" lon="6.05993">
        <ele>2557.8000488281</ele>
        <time>2023-08-11T11:10:06.000Z</time>
      </trkpt>
      <trkpt lat="45.23026" lon="6.05993">
        <ele>2557.8000488281</ele>
        <time>2023-08-11T11:10:09.000Z</time>
      </trkpt>
      <trkpt lat="45.23027" lon="6.05994">
        <ele>2558</ele>
        <time>2023-08-11T11:10:16.000Z</time>
      </trkpt>
      <trkpt lat="45.23029" lon="6.05996">
        <ele>2558.1999511719</ele>
        <time>2023-08-11T11:10:24.000Z</time>
      </trkpt>
      <trkpt lat="45.2303" lon="6.05998">
        <ele>2558.1999511719</ele>
        <time>2023-08-11T11:10:29.000Z</time>
      </trkpt>
      <trkpt lat="45.23033" lon="6.06001">
        <ele>2558.1999511719</ele>
        <time>2023-08-11T11:10:34.000Z</time>
      </trkpt>
      <trkpt lat="45.23031" lon="6.06">
        <ele>2558.3999023438</ele>
        <time>2023-08-11T11:10:39.000Z</time>
      </trkpt>
      <trkpt lat="45.23028" lon="6.05998">
        <ele>2558.3999023438</ele>
        <time>2023-08-11T11:10:46.000Z</time>
      </trkpt>
      <trkpt lat="45.23029" lon="6.05997">
        <ele>2558.3999023438</ele>
        <time>2023-08-11T11:10:53.000Z</time>
      </trkpt>
      <trkpt lat="45.23028" lon="6.05994">
        <ele>2557.6000976562</ele>
        <time>2023-08-11T11:11:00.000Z</time>
      </trkpt>
      <trkpt lat="45.23027" lon="6.05991">
        <ele>2556.8000488281</ele>
        <time>2023-08-11T11:11:05.000Z</time>
      </trkpt>
      <trkpt lat="45.23027" lon="6.05987">
        <ele>2555.8000488281</ele>
        <time>2023-08-11T11:11:12.000Z</time>
      </trkpt>
      <trkpt lat="45.23028" lon="6.05986">
        <ele>2555.6000976562</ele>
        <time>2023-08-11T11:11:13.000Z</time>
      </trkpt>
      <trkpt lat="45.2303" lon="6.05984">
        <ele>2554.6000976562</ele>
        <time>2023-08-11T11:11:19.000Z</time>
      </trkpt>
      <trkpt lat="45.23031" lon="6.05984">
        <ele>2554.3999023438</ele>
        <time>2023-08-11T11:11:21.000Z</time>
      </trkpt>
      <trkpt lat="45.23032" lon="6.05983">
        <ele>2553.6000976562</ele>
        <time>2023-08-11T11:11:25.000Z</time>
      </trkpt>
      <trkpt lat="45.23032" lon="6.05983">
        <ele>2553</ele>
        <time>2023-08-11T11:11:28.000Z</time>
      </trkpt>
      <trkpt lat="45.23031" lon="6.05983">
        <ele>2552.3999023438</ele>
        <time>2023-08-11T11:11:34.000Z</time>
      </trkpt>
      <trkpt lat="45.23032" lon="6.05982">
        <ele>2552</ele>
        <time>2023-08-11T11:11:39.000Z</time>
      </trkpt>
      <trkpt lat="45.23034" lon="6.0598">
        <ele>2551.3999023438</ele>
        <time>2023-08-11T11:11:43.000Z</time>
      </trkpt>
      <trkpt lat="45.23033" lon="6.0598">
        <ele>2550.6000976562</ele>
        <time>2023-08-11T11:11:49.000Z</time>
      </trkpt>
      <trkpt lat="45.23033" lon="6.0598">
        <ele>2550.3999023438</ele>
        <time>2023-08-11T11:11:51.000Z</time>
      </trkpt>
      <trkpt lat="45.23036" lon="6.05978">
        <ele>2549.3999023438</ele>
        <time>2023-08-11T11:12:00.000Z</time>
      </trkpt>
      <trkpt lat="45.23036" lon="6.05972">
        <ele>2544</ele>
        <time>2023-08-11T11:12:48Z</time>
      </trkpt>
      <trkpt lat="45.23034" lon="6.05963">
        <ele>2540.5</ele>
        <time>2023-08-11T11:13:33Z</time>
      </trkpt>
      <trkpt lat="45.23037" lon="6.05957">
        <ele>2537.8</ele>
        <time>2023-08-11T11:14:18Z</time>
      </trkpt>
      <trkpt lat="45.23038" lon="6.05947">
        <ele>2533.2</ele>
        <time>2023-08-11T11:15:03Z</time>
      </trkpt>
      <trkpt lat="45.23039" lon="6.05939">
        <ele>2530.1</ele>
        <time>2023-08-11T11:15:48Z</time>
      </trkpt>
      <trkpt lat="45.23039" lon="6.05921">
        <ele>2524.2</ele>
        <time>2023-08-11T11:16:33Z</time>
      </trkpt>
      <trkpt lat="45.23047" lon="6.05922">
        <ele>2521.5</ele>
        <time>2023-08-11T11:17:18Z</time>
      </trkpt>
      <trkpt lat="45.23046" lon="6.05915">
        <ele>2518.8</ele>
        <time>2023-08-11T11:18:03Z</time>
      </trkpt>
      <trkpt lat="45.23051" lon="6.05914">
        <ele>2516.4</ele>
        <time>2023-08-11T11:18:48Z</time>
      </trkpt>
      <trkpt lat="45.23053" lon="6.05908">
        <ele>2513.4</ele>
        <time>2023-08-11T11:19:33Z</time>
      </trkpt>
      <trkpt lat="45.23058" lon="6.05909">
        <ele>2512.3</ele>
        <time>2023-08-11T11:20:18Z</time>
      </trkpt>
      <trkpt lat="45.23062" lon="6.059">
        <ele>2508.5</ele>
        <time>2023-08-11T11:21:03Z</time>
      </trkpt>
      <trkpt lat="45.23061" lon="6.0589">
        <ele>2504.9</ele>
        <time>2023-08-11T11:21:48Z</time>
      </trkpt>
      <trkpt lat="45.23066" lon="6.05872">
        <ele>2497.9</ele>
        <time>2023-08-11T11:22:33Z</time>
      </trkpt>
      <trkpt lat="45.23069" lon="6.05849">
        <ele>2490.2</ele>
        <time>2023-08-11T11:23:18Z</time>
      </trkpt>
      <trkpt lat="45.23072" lon="6.05834">
        <ele>2485.3</ele>
        <time>2023-08-11T11:24:03Z</time>
      </trkpt>
      <trkpt lat="45.23077" lon="6.05815">
        <ele>2479.1</ele>
        <time>2023-08-11T11:24:48Z</time>
      </trkpt>
      <trkpt lat="45.23081" lon="6.05802">
        <ele>2473.9</ele>
        <time>2023-08-11T11:25:33Z</time>
      </trkpt>
      <trkpt lat="45.23084" lon="6.05797">
        <ele>2478.1999511719</ele>
        <time>2023-08-11T11:26:23.000Z</time>
      </trkpt>
      <trkpt lat="45.23084" lon="6.05797">
        <ele>2477.8000488281</ele>
        <time>2023-08-11T11:26:32.000Z</time>
      </trkpt>
      <trkpt lat="45.23083" lon="6.05793">
        <ele>2477.6000976562</ele>
        <time>2023-08-11T11:26:43.000Z</time>
      </trkpt>
      <trkpt lat="45.23079" lon="6.05794">
        <ele>2477.6000976562</ele>
        <time>2023-08-11T11:26:49.000Z</time>
      </trkpt>
      <trkpt lat="45.23075" lon="6.05795">
        <ele>2477.6000976562</ele>
        <time>2023-08-11T11:26:55.000Z</time>
      </trkpt>
      <trkpt lat="45.23078" lon="6.05796">
        <ele>2477.6000976562</ele>
        <time>2023-08-11T11:27:01.000Z</time>
      </trkpt>
      <trkpt lat="45.23078" lon="6.05797">
        <ele>2477.3999023438</ele>
        <time>2023-08-11T11:27:08.000Z</time>
      </trkpt>
      <trkpt lat="45.23079" lon="6.05793">
        <ele>2476.3999023438</ele>
        <time>2023-08-11T11:27:36.000Z</time>
      </trkpt>
      <trkpt lat="45.2308" lon="6.05793">
        <ele>2476</ele>
        <time>2023-08-11T11:27:39.000Z</time>
      </trkpt>
      <trkpt lat="45.23078" lon="6.05789">
        <ele>2476</ele>
        <time>2023-08-11T11:27:43.000Z</time>
      </trkpt>
      <trkpt lat="45.23078" lon="6.05787">
        <ele>2476</ele>
        <time>2023-08-11T11:27:49.000Z</time>
      </trkpt>
      <trkpt lat="45.23079" lon="6.05788">
        <ele>2476</ele>
        <time>2023-08-11T11:27:58.000Z</time>
      </trkpt>
      <trkpt lat="45.23078" lon="6.05789">
        <ele>2476.3999023438</ele>
        <time>2023-08-11T11:28:07.000Z</time>
      </trkpt>
      <trkpt lat="45.23075" lon="6.05787">
        <ele>2476.3999023438</ele>
        <time>2023-08-11T11:28:12.000Z</time>
      </trkpt>
      <trkpt lat="45.23076" lon="6.05787">
        <ele>2476.1999511719</ele>
        <time>2023-08-11T11:28:18.000Z</time>
      </trkpt>
      <trkpt lat="45.23077" lon="6.05786">
        <ele>2476</ele>
        <time>2023-08-11T11:28:24.000Z</time>
      </trkpt>
      <trkpt lat="45.23078" lon="6.05783">
        <ele>2475.6000976562</ele>
        <time>2023-08-11T11:28:31.000Z</time>
      </trkpt>
      <trkpt lat="45.23078" lon="6.05782">
        <ele>2475.6000976562</ele>
        <time>2023-08-11T11:28:39.000Z</time>
      </trkpt>
      <trkpt lat="45.23078" lon="6.05778">
        <ele>2475.6000976562</ele>
        <time>2023-08-11T11:28:47.000Z</time>
      </trkpt>
      <trkpt lat="45.23082" lon="6.05779">
        <ele>2475.8000488281</ele>
        <time>2023-08-11T11:28:56.000Z</time>
      </trkpt>
      <trkpt lat="45.2308" lon="6.0578">
        <ele>2476.1999511719</ele>
        <time>2023-08-11T11:29:03.000Z</time>
      </trkpt>
      <trkpt lat="45.23083" lon="6.05775">
        <ele>2476.1999511719</ele>
        <time>2023-08-11T11:29:11.000Z</time>
      </trkpt>
      <trkpt lat="45.23084" lon="6.05778">
        <ele>2475.6000976562</ele>
        <time>2023-08-11T11:29:18.000Z</time>
      </trkpt>
      <trkpt lat="45.23082" lon="6.05776">
        <ele>2475.1999511719</ele>
        <time>2023-08-11T11:29:25.000Z</time>
      </trkpt>
      <trkpt lat="45.23079" lon="6.05771">
        <ele>2475</ele>
        <time>2023-08-11T11:29:33.000Z</time>
      </trkpt>
      <trkpt lat="45.23083" lon="6.05767">
        <ele>2474</ele>
        <time>2023-08-11T11:29:41.000Z</time>
      </trkpt>
      <trkpt lat="45.23084" lon="6.05767">
        <ele>2474</ele>
        <time>2023-08-11T11:29:45.000Z</time>
      </trkpt>
      <trkpt lat="45.23085" lon="6.05769">
        <ele>2473.8000488281</ele>
        <time>2023-08-11T11:29:47.000Z</time>
      </trkpt>
      <trkpt lat="45.23085" lon="6.05776">
        <ele>2474</ele>
        <time>2023-08-11T11:29:54.000Z</time>
      </trkpt>
      <trkpt lat="45.23085" lon="6.05775">
        <ele>2474</ele>
        <time>2023-08-11T11:30:02.000Z</time>
      </trkpt>
      <trkpt lat="45.23088" lon="6.05775">
        <ele>2473.8000488281</ele>
        <time>2023-08-11T11:30:10.000Z</time>
      </trkpt>
      <trkpt lat="45.2309" lon="6.05773">
        <ele>2473.1999511719</ele>
        <time>2023-08-11T11:30:19.000Z</time>
      </trkpt>
      <trkpt lat="45.23093" lon="6.0577">
        <ele>2472.8000488281</ele>
        <time>2023-08-11T11:30:27.000Z</time>
      </trkpt>
      <trkpt lat="45.23093" lon="6.05769">
        <ele>2472.3999023438</ele>
        <time>2023-08-11T11:30:30.000Z</time>
      </trkpt>
      <trkpt lat="45.23093" lon="6.05766">
        <ele>2472.1999511719</ele>
        <time>2023-08-11T11:30:40.000Z</time>
      </trkpt>
      <trkpt lat="45.23092" lon="6.05768">
        <ele>2472.3999023438</ele>
        <time>2023-08-11T11:30:49.000Z</time>
      </trkpt>
      <trkpt lat="45.23097" lon="6.05774">
        <ele>2472.3999023438</ele>
        <time>2023-08-11T11:30:56.000Z</time>
      </trkpt>
      <trkpt lat="45.231" lon="6.05775">
        <ele>2472.1999511719</ele>
        <time>2023-08-11T11:31:03.000Z</time>
      </trkpt>
      <trkpt lat="45.23102" lon="6.05773">
        <ele>2472.6000976562</ele>
        <time>2023-08-11T11:31:11.000Z</time>
      </trkpt>
      <trkpt lat="45.23099" lon="6.05769">
        <ele>2472.8000488281</ele>
        <time>2023-08-11T11:31:17.000Z</time>
      </trkpt>
      <trkpt lat="45.231" lon="6.05767">
        <ele>2473.3999023438</ele>
        <time>2023-08-11T11:31:24.000Z</time>
      </trkpt>
      <trkpt lat="45.23105" lon="6.05764">
        <ele>2472.8000488281</ele>
        <time>2023-08-11T11:31:32.000Z</time>
      </trkpt>
      <trkpt lat="45.23108" lon="6.05764">
        <ele>2473</ele>
        <time>2023-08-11T11:31:42.000Z</time>
      </trkpt>
      <trkpt lat="45.23107" lon="6.05765">
        <ele>2473.3999023438</ele>
        <time>2023-08-11T11:31:49.000Z</time>
      </trkpt>
      <trkpt lat="45.23106" lon="6.05762">
        <ele>2473</ele>
        <time>2023-08-11T11:31:58.000Z</time>
      </trkpt>
      <trkpt lat="45.23107" lon="6.05755">
        <ele>2472.8000488281</ele>
        <time>2023-08-11T11:32:05.000Z</time>
      </trkpt>
      <trkpt lat="45.23109" lon="6.05754">
        <ele>2472.1999511719</ele>
        <time>2023-08-11T11:32:16.000Z</time>
      </trkpt>
      <trkpt lat="45.23108" lon="6.05752">
        <ele>2471.8000488281</ele>
        <time>2023-08-11T11:32:22.000Z</time>
      </trkpt>
      <trkpt lat="45.23107" lon="6.05749">
        <ele>2471.3999023438</ele>
        <time>2023-08-11T11:32:24.000Z</time>
      </trkpt>
      <trkpt lat="45.23106" lon="6.05747">
        <ele>2470.6000976562</ele>
        <time>2023-08-11T11:32:28.000Z</time>
      </trkpt>
      <trkpt lat="45.23105" lon="6.05745">
        <ele>2470.3999023438</ele>
        <time>2023-08-11T11:32:31.000Z</time>
      </trkpt>
      <trkpt lat="45.23105" lon="6.05743">
        <ele>2469.6000976562</ele>
        <time>2023-08-11T11:32:37.000Z</time>
      </trkpt>
      <trkpt lat="45.23107" lon="6.05743">
        <ele>2469.1999511719</ele>
        <time>2023-08-11T11:32:43.000Z</time>
      </trkpt>
      <trkpt lat="45.23109" lon="6.05743">
        <ele>2469.3999023438</ele>
        <time>2023-08-11T11:32:51.000Z</time>
      </trkpt>
      <trkpt lat="45.2311" lon="6.05743">
        <ele>2469.6000976562</ele>
        <time>2023-08-11T11:32:57.000Z</time>
      </trkpt>
      <trkpt lat="45.23113" lon="6.05744">
        <ele>2469.3999023438</ele>
        <time>2023-08-11T11:33:04.000Z</time>
      </trkpt>
      <trkpt lat="45.23112" lon="6.05744">
        <ele>2469</ele>
        <time>2023-08-11T11:33:11.000Z</time>
      </trkpt>
      <trkpt lat="45.2311" lon="6.05742">
        <ele>2467.3999023438</ele>
        <time>2023-08-11T11:33:29.000Z</time>
      </trkpt>
      <trkpt lat="45.23109" lon="6.05739">
        <ele>2466.6000976562</ele>
        <time>2023-08-11T11:33:35.000Z</time>
      </trkpt>
      <trkpt lat="45.23112" lon="6.05738">
        <ele>2466.8000488281</ele>
        <time>2023-08-11T11:33:42.000Z</time>
      </trkpt>
      <trkpt lat="45.23114" lon="6.05745">
        <ele>2467.1999511719</ele>
        <time>2023-08-11T11:33:59.000Z</time>
      </trkpt>
      <trkpt lat="45.23115" lon="6.05745">
        <ele>2468.1999511719</ele>
        <time>2023-08-11T11:34:06.000Z</time>
      </trkpt>
      <trkpt lat="45.23115" lon="6.05744">
        <ele>2468.3999023438</ele>
        <time>2023-08-11T11:34:08.000Z</time>
      </trkpt>
      <trkpt lat="45.23115" lon="6.05738">
        <ele>2469.3999023438</ele>
        <time>2023-08-11T11:34:13.000Z</time>
      </trkpt>
      <trkpt lat="45.23115" lon="6.05737">
        <ele>2469.3999023438</ele>
        <time>2023-08-11T11:34:14.000Z</time>
      </trkpt>
      <trkpt lat="45.23114" lon="6.05734">
        <ele>2470.1999511719</ele>
        <time>2023-08-11T11:34:20.000Z</time>
      </trkpt>
      <trkpt lat="45.23117" lon="6.05731">
        <ele>2469.8000488281</ele>
        <time>2023-08-11T11:34:30.000Z</time>
      </trkpt>
      <trkpt lat="45.23116" lon="6.05729">
        <ele>2469.3999023438</ele>
        <time>2023-08-11T11:34:38.000Z</time>
      </trkpt>
      <trkpt lat="45.23116" lon="6.05726">
        <ele>2469</ele>
        <time>2023-08-11T11:34:44.000Z</time>
      </trkpt>
      <trkpt lat="45.23117" lon="6.05723">
        <ele>2469</ele>
        <time>2023-08-11T11:34:52.000Z</time>
      </trkpt>
      <trkpt lat="45.23118" lon="6.05723">
        <ele>2468.8000488281</ele>
        <time>2023-08-11T11:35:00.000Z</time>
      </trkpt>
      <trkpt lat="45.23119" lon="6.05722">
        <ele>2468.3999023438</ele>
        <time>2023-08-11T11:35:05.000Z</time>
      </trkpt>
      <trkpt lat="45.23118" lon="6.05719">
        <ele>2468</ele>
        <time>2023-08-11T11:35:10.000Z</time>
      </trkpt>
      <trkpt lat="45.23118" lon="6.05718">
        <ele>2467.1999511719</ele>
        <time>2023-08-11T11:35:15.000Z</time>
      </trkpt>
      <trkpt lat="45.23118" lon="6.05719">
        <ele>2467.1999511719</ele>
        <time>2023-08-11T11:35:16.000Z</time>
      </trkpt>
      <trkpt lat="45.23117" lon="6.05718">
        <ele>2466.6000976562</ele>
        <time>2023-08-11T11:35:24.000Z</time>
      </trkpt>
      <trkpt lat="45.23117" lon="6.05716">
        <ele>2466.1999511719</ele>
        <time>2023-08-11T11:35:28.000Z</time>
      </trkpt>
      <trkpt lat="45.23117" lon="6.05714">
        <ele>2466.1999511719</ele>
        <time>2023-08-11T11:35:30.000Z</time>
      </trkpt>
      <trkpt lat="45.23115" lon="6.05713">
        <ele>2465.1999511719</ele>
        <time>2023-08-11T11:35:36.000Z</time>
      </trkpt>
      <trkpt lat="45.23115" lon="6.05713">
        <ele>2465.1999511719</ele>
        <time>2023-08-11T11:35:38.000Z</time>
      </trkpt>
      <trkpt lat="45.23113" lon="6.05709">
        <ele>2464.6000976562</ele>
        <time>2023-08-11T11:35:45.000Z</time>
      </trkpt>
      <trkpt lat="45.23115" lon="6.0571">
        <ele>2464.1999511719</ele>
        <time>2023-08-11T11:35:52.000Z</time>
      </trkpt>
      <trkpt lat="45.23117" lon="6.05711">
        <ele>2464</ele>
        <time>2023-08-11T11:35:59.000Z</time>
      </trkpt>
      <trkpt lat="45.23117" lon="6.05709">
        <ele>2464</ele>
        <time>2023-08-11T11:36:01.000Z</time>
      </trkpt>
      <trkpt lat="45.23117" lon="6.05707">
        <ele>2463.6000976562</ele>
        <time>2023-08-11T11:36:10.000Z</time>
      </trkpt>
      <trkpt lat="45.23117" lon="6.05707">
        <ele>2463.1999511719</ele>
        <time>2023-08-11T11:36:18.000Z</time>
      </trkpt>
      <trkpt lat="45.23117" lon="6.05704">
        <ele>2463</ele>
        <time>2023-08-11T11:36:21.000Z</time>
      </trkpt>
      <trkpt lat="45.23117" lon="6.05703">
        <ele>2462.6000976562</ele>
        <time>2023-08-11T11:36:26.000Z</time>
      </trkpt>
      <trkpt lat="45.23118" lon="6.05699">
        <ele>2462</ele>
        <time>2023-08-11T11:36:35.000Z</time>
      </trkpt>
      <trkpt lat="45.23118" lon="6.05699">
        <ele>2461.8000488281</ele>
        <time>2023-08-11T11:36:37.000Z</time>
      </trkpt>
      <trkpt lat="45.23122" lon="6.05698">
        <ele>2461.6000976562</ele>
        <time>2023-08-11T11:36:45.000Z</time>
      </trkpt>
      <trkpt lat="45.23123" lon="6.05698">
        <ele>2461.6000976562</ele>
        <time>2023-08-11T11:36:52.000Z</time>
      </trkpt>
      <trkpt lat="45.23125" lon="6.05694">
        <ele>2461.6000976562</ele>
        <time>2023-08-11T11:37:00.000Z</time>
      </trkpt>
      <trkpt lat="45.23124" lon="6.05691">
        <ele>2461.8000488281</ele>
        <time>2023-08-11T11:37:08.000Z</time>
      </trkpt>
      <trkpt lat="45.23124" lon="6.0569">
        <ele>2461.6000976562</ele>
        <time>2023-08-11T11:37:17.000Z</time>
      </trkpt>
      <trkpt lat="45.23125" lon="6.05689">
        <ele>2461</ele>
        <time>2023-08-11T11:37:25.000Z</time>
      </trkpt>
      <trkpt lat="45.23125" lon="6.05689">
        <ele>2460.8000488281</ele>
        <time>2023-08-11T11:37:26.000Z</time>
      </trkpt>
      <trkpt lat="45.23122" lon="6.05691">
        <ele>2460</ele>
        <time>2023-08-11T11:37:33.000Z</time>
      </trkpt>
      <trkpt lat="45.23121" lon="6.05691">
        <ele>2459.6000976562</ele>
        <time>2023-08-11T11:37:35.000Z</time>
      </trkpt>
      <trkpt lat="45.23119" lon="6.0569">
        <ele>2458.8000488281</ele>
        <time>2023-08-11T11:37:39.000Z</time>
      </trkpt>
      <trkpt lat="45.23119" lon="6.0569">
        <ele>2458.1999511719</ele>
        <time>2023-08-11T11:37:42.000Z</time>
      </trkpt>
      <trkpt lat="45.23117" lon="6.05689">
        <ele>2457.8000488281</ele>
        <time>2023-08-11T11:37:44.000Z</time>
      </trkpt>
      <trkpt lat="45.23115" lon="6.05688">
        <ele>2457.1999511719</ele>
        <time>2023-08-11T11:37:49.000Z</time>
      </trkpt>
      <trkpt lat="45.23114" lon="6.05687">
        <ele>2456.8000488281</ele>
        <time>2023-08-11T11:37:53.000Z</time>
      </trkpt>
      <trkpt lat="45.23116" lon="6.05684">
        <ele>2456</ele>
        <time>2023-08-11T11:37:57.000Z</time>
      </trkpt>
      <trkpt lat="45.23116" lon="6.05681">
        <ele>2455.3999023438</ele>
        <time>2023-08-11T11:37:59.000Z</time>
      </trkpt>
      <trkpt lat="45.23117" lon="6.05679">
        <ele>2454.8000488281</ele>
        <time>2023-08-11T11:38:03.000Z</time>
      </trkpt>
      <trkpt lat="45.23117" lon="6.05677">
        <ele>2454.1999511719</ele>
        <time>2023-08-11T11:38:05.000Z</time>
      </trkpt>
      <trkpt lat="45.23117" lon="6.05678">
        <ele>2453.8000488281</ele>
        <time>2023-08-11T11:38:07.000Z</time>
      </trkpt>
      <trkpt lat="45.23118" lon="6.05679">
        <ele>2453.6000976562</ele>
        <time>2023-08-11T11:38:10.000Z</time>
      </trkpt>
      <trkpt lat="45.23116" lon="6.05679">
        <ele>2453.3999023438</ele>
        <time>2023-08-11T11:38:18.000Z</time>
      </trkpt>
      <trkpt lat="45.23115" lon="6.0568">
        <ele>2453.3999023438</ele>
        <time>2023-08-11T11:38:26.000Z</time>
      </trkpt>
      <trkpt lat="45.23115" lon="6.05678">
        <ele>2453.6000976562</ele>
        <time>2023-08-11T11:38:36.000Z</time>
      </trkpt>
      <trkpt lat="45.23115" lon="6.05678">
        <ele>2453.1999511719</ele>
        <time>2023-08-11T11:38:40.000Z</time>
      </trkpt>
      <trkpt lat="45.23115" lon="6.05678">
        <ele>2453</ele>
        <time>2023-08-11T11:38:45.000Z</time>
      </trkpt>
      <trkpt lat="45.23116" lon="6.05675">
        <ele>2453.1999511719</ele>
        <time>2023-08-11T11:38:53.000Z</time>
      </trkpt>
      <trkpt lat="45.23118" lon="6.05673">
        <ele>2453.3999023438</ele>
        <time>2023-08-11T11:39:00.000Z</time>
      </trkpt>
      <trkpt lat="45.23118" lon="6.05672">
        <ele>2453.1999511719</ele>
        <time>2023-08-11T11:39:10.000Z</time>
      </trkpt>
      <trkpt lat="45.23117" lon="6.0567">
        <ele>2452.8000488281</ele>
        <time>2023-08-11T11:39:17.000Z</time>
      </trkpt>
      <trkpt lat="45.23117" lon="6.05667">
        <ele>2452.1999511719</ele>
        <time>2023-08-11T11:39:24.000Z</time>
      </trkpt>
      <trkpt lat="45.23118" lon="6.05667">
        <ele>2452.1999511719</ele>
        <time>2023-08-11T11:39:25.000Z</time>
      </trkpt>
      <trkpt lat="45.23117" lon="6.05666">
        <ele>2451.8000488281</ele>
        <time>2023-08-11T11:39:32.000Z</time>
      </trkpt>
      <trkpt lat="45.23117" lon="6.05663">
        <ele>2451.6000976562</ele>
        <time>2023-08-11T11:39:39.000Z</time>
      </trkpt>
      <trkpt lat="45.23115" lon="6.05664">
        <ele>2451.3999023438</ele>
        <time>2023-08-11T11:39:45.000Z</time>
      </trkpt>
      <trkpt lat="45.23115" lon="6.05663">
        <ele>2451.1999511719</ele>
        <time>2023-08-11T11:39:46.000Z</time>
      </trkpt>
      <trkpt lat="45.23115" lon="6.05662">
        <ele>2451</ele>
        <time>2023-08-11T11:39:54.000Z</time>
      </trkpt>
      <trkpt lat="45.23117" lon="6.05661">
        <ele>2450.6000976562</ele>
        <time>2023-08-11T11:40:03.000Z</time>
      </trkpt>
      <trkpt lat="45.23118" lon="6.0566">
        <ele>2450.1999511719</ele>
        <time>2023-08-11T11:40:11.000Z</time>
      </trkpt>
      <trkpt lat="45.23118" lon="6.0566">
        <ele>2450</ele>
        <time>2023-08-11T11:40:12.000Z</time>
      </trkpt>
      <trkpt lat="45.23118" lon="6.05661">
        <ele>2450</ele>
        <time>2023-08-11T11:40:20.000Z</time>
      </trkpt>
      <trkpt lat="45.23119" lon="6.05655">
        <ele>2450.6000976562</ele>
        <time>2023-08-11T11:40:29.000Z</time>
      </trkpt>
      <trkpt lat="45.23119" lon="6.05655">
        <ele>2450.6000976562</ele>
        <time>2023-08-11T11:40:35.000Z</time>
      </trkpt>
      <trkpt lat="45.2312" lon="6.05651">
        <ele>2450</ele>
        <time>2023-08-11T11:40:42.000Z</time>
      </trkpt>
      <trkpt lat="45.23119" lon="6.05646">
        <ele>2449.6000976562</ele>
        <time>2023-08-11T11:40:50.000Z</time>
      </trkpt>
      <trkpt lat="45.23118" lon="6.05646">
        <ele>2449</ele>
        <time>2023-08-11T11:40:55.000Z</time>
      </trkpt>
      <trkpt lat="45.23117" lon="6.05645">
        <ele>2449</ele>
        <time>2023-08-11T11:40:59.000Z</time>
      </trkpt>
      <trkpt lat="45.23119" lon="6.0564">
        <ele>2449</ele>
        <time>2023-08-11T11:41:09.000Z</time>
      </trkpt>
      <trkpt lat="45.2312" lon="6.05638">
        <ele>2448.6000976562</ele>
        <time>2023-08-11T11:41:17.000Z</time>
      </trkpt>
      <trkpt lat="45.2312" lon="6.05637">
        <ele>2448</ele>
        <time>2023-08-11T11:41:23.000Z</time>
      </trkpt>
      <trkpt lat="45.2312" lon="6.05638">
        <ele>2448</ele>
        <time>2023-08-11T11:41:24.000Z</time>
      </trkpt>
      <trkpt lat="45.23121" lon="6.05636">
        <ele>2448</ele>
        <time>2023-08-11T11:41:31.000Z</time>
      </trkpt>
      <trkpt lat="45.23122" lon="6.05633">
        <ele>2448.1999511719</ele>
        <time>2023-08-11T11:41:39.000Z</time>
      </trkpt>
      <trkpt lat="45.23122" lon="6.05633">
        <ele>2448.1999511719</ele>
        <time>2023-08-11T11:41:46.000Z</time>
      </trkpt>
      <trkpt lat="45.23123" lon="6.05626">
        <ele>2448</ele>
        <time>2023-08-11T11:41:54.000Z</time>
      </trkpt>
      <trkpt lat="45.23124" lon="6.05626">
        <ele>2447.8000488281</ele>
        <time>2023-08-11T11:42:00.000Z</time>
      </trkpt>
      <trkpt lat="45.23126" lon="6.05626">
        <ele>2447.6000976562</ele>
        <time>2023-08-11T11:42:08.000Z</time>
      </trkpt>
      <trkpt lat="45.23124" lon="6.05624">
        <ele>2446.8000488281</ele>
        <time>2023-08-11T11:42:15.000Z</time>
      </trkpt>
      <trkpt lat="45.23124" lon="6.05624">
        <ele>2446.8000488281</ele>
        <time>2023-08-11T11:42:16.000Z</time>
      </trkpt>
      <trkpt lat="45.23122" lon="6.0562">
        <ele>2446</ele>
        <time>2023-08-11T11:42:23.000Z</time>
      </trkpt>
      <trkpt lat="45.23122" lon="6.0562">
        <ele>2445.8000488281</ele>
        <time>2023-08-11T11:42:25.000Z</time>
      </trkpt>
      <trkpt lat="45.23121" lon="6.05619">
        <ele>2445.3999023438</ele>
        <time>2023-08-11T11:42:30.000Z</time>
      </trkpt>
      <trkpt lat="45.23121" lon="6.05618">
        <ele>2445.1999511719</ele>
        <time>2023-08-11T11:42:37.000Z</time>
      </trkpt>
      <trkpt lat="45.23124" lon="6.05616">
        <ele>2444.8000488281</ele>
        <time>2023-08-11T11:42:46.000Z</time>
      </trkpt>
      <trkpt lat="45.23124" lon="6.05615">
        <ele>2444.8000488281</ele>
        <time>2023-08-11T11:42:49.000Z</time>
      </trkpt>
      <trkpt lat="45.23124" lon="6.05615">
        <ele>2444.3999023438</ele>
        <time>2023-08-11T11:42:53.000Z</time>
      </trkpt>
      <trkpt lat="45.23123" lon="6.05612">
        <ele>2444</ele>
        <time>2023-08-11T11:43:00.000Z</time>
      </trkpt>
      <trkpt lat="45.23124" lon="6.0561">
        <ele>2443.6000976562</ele>
        <time>2023-08-11T11:43:05.000Z</time>
      </trkpt>
      <trkpt lat="45.23124" lon="6.0561">
        <ele>2443.3999023438</ele>
        <time>2023-08-11T11:43:07.000Z</time>
      </trkpt>
      <trkpt lat="45.23124" lon="6.05606">
        <ele>2442.8000488281</ele>
        <time>2023-08-11T11:43:14.000Z</time>
      </trkpt>
      <trkpt lat="45.23124" lon="6.05606">
        <ele>2442.3999023438</ele>
        <time>2023-08-11T11:43:15.000Z</time>
      </trkpt>
      <trkpt lat="45.23125" lon="6.05604">
        <ele>2441.8000488281</ele>
        <time>2023-08-11T11:43:20.000Z</time>
      </trkpt>
      <trkpt lat="45.23125" lon="6.05604">
        <ele>2441.3999023438</ele>
        <time>2023-08-11T11:43:27.000Z</time>
      </trkpt>
      <trkpt lat="45.23125" lon="6.056">
        <ele>2441.1999511719</ele>
        <time>2023-08-11T11:43:33.000Z</time>
      </trkpt>
      <trkpt lat="45.23125" lon="6.05595">
        <ele>2440.6000976562</ele>
        <time>2023-08-11T11:43:40.000Z</time>
      </trkpt>
      <trkpt lat="45.23125" lon="6.05593">
        <ele>2440.3999023438</ele>
        <time>2023-08-11T11:43:44.000Z</time>
      </trkpt>
      <trkpt lat="45.23127" lon="6.05589">
        <ele>2440</ele>
        <time>2023-08-11T11:43:50.000Z</time>
      </trkpt>
      <trkpt lat="45.23129" lon="6.05587">
        <ele>2439.3999023438</ele>
        <time>2023-08-11T11:43:56.000Z</time>
      </trkpt>
      <trkpt lat="45.2313" lon="6.05587">
        <ele>2438.8000488281</ele>
        <time>2023-08-11T11:44:02.000Z</time>
      </trkpt>
      <trkpt lat="45.23131" lon="6.05585">
        <ele>2438.1999511719</ele>
        <time>2023-08-11T11:44:06.000Z</time>
      </trkpt>
      <trkpt lat="45.2313" lon="6.05583">
        <ele>2437.6000976562</ele>
        <time>2023-08-11T11:44:10.000Z</time>
      </trkpt>
      <trkpt lat="45.2313" lon="6.05582">
        <ele>2437</ele>
        <time>2023-08-11T11:44:13.000Z</time>
      </trkpt>
      <trkpt lat="45.2313" lon="6.0558">
        <ele>2436.6000976562</ele>
        <time>2023-08-11T11:44:16.000Z</time>
      </trkpt>
      <trkpt lat="45.23131" lon="6.0558">
        <ele>2436</ele>
        <time>2023-08-11T11:44:22.000Z</time>
      </trkpt>
      <trkpt lat="45.23131" lon="6.05581">
        <ele>2435.8000488281</ele>
        <time>2023-08-11T11:44:23.000Z</time>
      </trkpt>
      <trkpt lat="45.23132" lon="6.05575">
        <ele>2435.1999511719</ele>
        <time>2023-08-11T11:44:28.000Z</time>
      </trkpt>
      <trkpt lat="45.23131" lon="6.05573">
        <ele>2434.6000976562</ele>
        <time>2023-08-11T11:44:31.000Z</time>
      </trkpt>
      <trkpt lat="45.23132" lon="6.05573">
        <ele>2434</ele>
        <time>2023-08-11T11:44:36.000Z</time>
      </trkpt>
      <trkpt lat="45.23134" lon="6.05572">
        <ele>2433.6000976562</ele>
        <time>2023-08-11T11:44:39.000Z</time>
      </trkpt>
      <trkpt lat="45.23135" lon="6.05572">
        <ele>2433</ele>
        <time>2023-08-11T11:44:43.000Z</time>
      </trkpt>
      <trkpt lat="45.23137" lon="6.05569">
        <ele>2432.6000976562</ele>
        <time>2023-08-11T11:44:52.000Z</time>
      </trkpt>
      <trkpt lat="45.2314" lon="6.05566">
        <ele>2431.8000488281</ele>
        <time>2023-08-11T11:45:01.000Z</time>
      </trkpt>
      <trkpt lat="45.23141" lon="6.05565">
        <ele>2431.3999023438</ele>
        <time>2023-08-11T11:45:04.000Z</time>
      </trkpt>
      <trkpt lat="45.23143" lon="6.05564">
        <ele>2431.3999023438</ele>
        <time>2023-08-11T11:45:08.000Z</time>
      </trkpt>
      <trkpt lat="45.23142" lon="6.05563">
        <ele>2430.3999023438</ele>
        <time>2023-08-11T11:45:16.000Z</time>
      </trkpt>
      <trkpt lat="45.23143" lon="6.05557">
        <ele>2429.8000488281</ele>
        <time>2023-08-11T11:45:22.000Z</time>
      </trkpt>
      <trkpt lat="45.23144" lon="6.05554">
        <ele>2429.1999511719</ele>
        <time>2023-08-11T11:45:30.000Z</time>
      </trkpt>
      <trkpt lat="45.23144" lon="6.05554">
        <ele>2428.8000488281</ele>
        <time>2023-08-11T11:45:35.000Z</time>
      </trkpt>
      <trkpt lat="45.23144" lon="6.05554">
        <ele>2428.1999511719</ele>
        <time>2023-08-11T11:45:40.000Z</time>
      </trkpt>
      <trkpt lat="45.23145" lon="6.05553">
        <ele>2428</ele>
        <time>2023-08-11T11:45:44.000Z</time>
      </trkpt>
      <trkpt lat="45.23145" lon="6.05554">
        <ele>2427.6000976562</ele>
        <time>2023-08-11T11:45:50.000Z</time>
      </trkpt>
      <trkpt lat="45.23144" lon="6.05552">
        <ele>2427</ele>
        <time>2023-08-11T11:45:57.000Z</time>
      </trkpt>
      <trkpt lat="45.23144" lon="6.05552">
        <ele>2427</ele>
        <time>2023-08-11T11:45:58.000Z</time>
      </trkpt>
      <trkpt lat="45.23144" lon="6.05551">
        <ele>2426.6000976562</ele>
        <time>2023-08-11T11:46:04.000Z</time>
      </trkpt>
      <trkpt lat="45.23145" lon="6.05549">
        <ele>2426</ele>
        <time>2023-08-11T11:46:07.000Z</time>
      </trkpt>
      <trkpt lat="45.23145" lon="6.05546">
        <ele>2425.8000488281</ele>
        <time>2023-08-11T11:46:10.000Z</time>
      </trkpt>
      <trkpt lat="45.23146" lon="6.05548">
        <ele>2425.1999511719</ele>
        <time>2023-08-11T11:46:19.000Z</time>
      </trkpt>
      <trkpt lat="45.23144" lon="6.05547">
        <ele>2425.1999511719</ele>
        <time>2023-08-11T11:46:28.000Z</time>
      </trkpt>
      <trkpt lat="45.23143" lon="6.05546">
        <ele>2425.1999511719</ele>
        <time>2023-08-11T11:46:35.000Z</time>
      </trkpt>
      <trkpt lat="45.23142" lon="6.05548">
        <ele>2425</ele>
        <time>2023-08-11T11:46:45.000Z</time>
      </trkpt>
      <trkpt lat="45.23144" lon="6.05549">
        <ele>2425</ele>
        <time>2023-08-11T11:46:53.000Z</time>
      </trkpt>
      <trkpt lat="45.23144" lon="6.0555">
        <ele>2425</ele>
        <time>2023-08-11T11:46:56.000Z</time>
      </trkpt>
      <trkpt lat="45.23143" lon="6.05551">
        <ele>2425</ele>
        <time>2023-08-11T11:47:02.000Z</time>
      </trkpt>
      <trkpt lat="45.23144" lon="6.05547">
        <ele>2424.8000488281</ele>
        <time>2023-08-11T11:47:09.000Z</time>
      </trkpt>
      <trkpt lat="45.23143" lon="6.05545">
        <ele>2424.6000976562</ele>
        <time>2023-08-11T11:47:16.000Z</time>
      </trkpt>
      <trkpt lat="45.23142" lon="6.05543">
        <ele>2424</ele>
        <time>2023-08-11T11:47:22.000Z</time>
      </trkpt>
      <trkpt lat="45.23142" lon="6.05543">
        <ele>2424</ele>
        <time>2023-08-11T11:47:23.000Z</time>
      </trkpt>
      <trkpt lat="45.23145" lon="6.05544">
        <ele>2423.6000976562</ele>
        <time>2023-08-11T11:47:30.000Z</time>
      </trkpt>
      <trkpt lat="45.23145" lon="6.05543">
        <ele>2422.8000488281</ele>
        <time>2023-08-11T11:47:37.000Z</time>
      </trkpt>
      <trkpt lat="45.23147" lon="6.05545">
        <ele>2422.8000488281</ele>
        <time>2023-08-11T11:47:40.000Z</time>
      </trkpt>
      <trkpt lat="45.23147" lon="6.05546">
        <ele>2422.8000488281</ele>
        <time>2023-08-11T11:47:46.000Z</time>
      </trkpt>
      <trkpt lat="45.23145" lon="6.05545">
        <ele>2422.3999023438</ele>
        <time>2023-08-11T11:47:55.000Z</time>
      </trkpt>
      <trkpt lat="45.23147" lon="6.05546">
        <ele>2422.3999023438</ele>
        <time>2023-08-11T11:48:02.000Z</time>
      </trkpt>
      <trkpt lat="45.23147" lon="6.05545">
        <ele>2422.8000488281</ele>
        <time>2023-08-11T11:48:12.000Z</time>
      </trkpt>
      <trkpt lat="45.23146" lon="6.05543">
        <ele>2422.8000488281</ele>
        <time>2023-08-11T11:48:19.000Z</time>
      </trkpt>
      <trkpt lat="45.23148" lon="6.05546">
        <ele>2422.8000488281</ele>
        <time>2023-08-11T11:48:26.000Z</time>
      </trkpt>
      <trkpt lat="45.23148" lon="6.05542">
        <ele>2422</ele>
        <time>2023-08-11T11:48:34.000Z</time>
      </trkpt>
      <trkpt lat="45.23148" lon="6.05542">
        <ele>2421.8000488281</ele>
        <time>2023-08-11T11:48:35.000Z</time>
      </trkpt>
      <trkpt lat="45.23149" lon="6.05539">
        <ele>2421.1999511719</ele>
        <time>2023-08-11T11:48:40.000Z</time>
      </trkpt>
      <trkpt lat="45.2315" lon="6.05538">
        <ele>2420.8000488281</ele>
        <time>2023-08-11T11:48:46.000Z</time>
      </trkpt>
      <trkpt lat="45.2315" lon="6.05538">
        <ele>2420.6000976562</ele>
        <time>2023-08-11T11:48:48.000Z</time>
      </trkpt>
      <trkpt lat="45.23152" lon="6.05534">
        <ele>2420.3999023438</ele>
        <time>2023-08-11T11:48:55.000Z</time>
      </trkpt>
      <trkpt lat="45.23152" lon="6.05535">
        <ele>2419.8000488281</ele>
        <time>2023-08-11T11:49:02.000Z</time>
      </trkpt>
      <trkpt lat="45.23153" lon="6.05536">
        <ele>2419.3999023438</ele>
        <time>2023-08-11T11:49:05.000Z</time>
      </trkpt>
      <trkpt lat="45.23155" lon="6.05534">
        <ele>2419.1999511719</ele>
        <time>2023-08-11T11:49:13.000Z</time>
      </trkpt>
      <trkpt lat="45.23155" lon="6.05533">
        <ele>2418.6000976562</ele>
        <time>2023-08-11T11:49:18.000Z</time>
      </trkpt>
      <trkpt lat="45.23156" lon="6.05533">
        <ele>2418.6000976562</ele>
        <time>2023-08-11T11:49:19.000Z</time>
      </trkpt>
      <trkpt lat="45.23157" lon="6.05529">
        <ele>2418.3999023438</ele>
        <time>2023-08-11T11:49:27.000Z</time>
      </trkpt>
      <trkpt lat="45.23157" lon="6.05523">
        <ele>2417.8000488281</ele>
        <time>2023-08-11T11:49:36.000Z</time>
      </trkpt>
      <trkpt lat="45.23157" lon="6.0552">
        <ele>2417.6000976562</ele>
        <time>2023-08-11T11:49:42.000Z</time>
      </trkpt>
      <trkpt lat="45.23157" lon="6.0552">
        <ele>2417.6000976562</ele>
        <time>2023-08-11T11:49:43.000Z</time>
      </trkpt>
      <trkpt lat="45.23158" lon="6.05518">
        <ele>2416.6000976562</ele>
        <time>2023-08-11T11:49:52.000Z</time>
      </trkpt>
      <trkpt lat="45.23157" lon="6.05516">
        <ele>2416.6000976562</ele>
        <time>2023-08-11T11:49:56.000Z</time>
      </trkpt>
      <trkpt lat="45.23158" lon="6.05514">
        <ele>2416</ele>
        <time>2023-08-11T11:50:01.000Z</time>
      </trkpt>
      <trkpt lat="45.23159" lon="6.05511">
        <ele>2416</ele>
        <time>2023-08-11T11:50:08.000Z</time>
      </trkpt>
      <trkpt lat="45.23158" lon="6.05505">
        <ele>2415.6000976562</ele>
        <time>2023-08-11T11:50:17.000Z</time>
      </trkpt>
      <trkpt lat="45.23158" lon="6.05504">
        <ele>2415.3999023438</ele>
        <time>2023-08-11T11:50:18.000Z</time>
      </trkpt>
      <trkpt lat="45.23156" lon="6.05499">
        <ele>2414.6000976562</ele>
        <time>2023-08-11T11:50:24.000Z</time>
      </trkpt>
      <trkpt lat="45.23156" lon="6.055">
        <ele>2414.3999023438</ele>
        <time>2023-08-11T11:50:25.000Z</time>
      </trkpt>
      <trkpt lat="45.23156" lon="6.05501">
        <ele>2413.8000488281</ele>
        <time>2023-08-11T11:50:27.000Z</time>
      </trkpt>
      <trkpt lat="45.23155" lon="6.05502">
        <ele>2413.3999023438</ele>
        <time>2023-08-11T11:50:30.000Z</time>
      </trkpt>
      <trkpt lat="45.23155" lon="6.05501">
        <ele>2413.1999511719</ele>
        <time>2023-08-11T11:50:31.000Z</time>
      </trkpt>
      <trkpt lat="45.23153" lon="6.05499">
        <ele>2412.3999023438</ele>
        <time>2023-08-11T11:50:37.000Z</time>
      </trkpt>
      <trkpt lat="45.23153" lon="6.05498">
        <ele>2412</ele>
        <time>2023-08-11T11:50:38.000Z</time>
      </trkpt>
      <trkpt lat="45.23152" lon="6.05495">
        <ele>2411</ele>
        <time>2023-08-11T11:50:44.000Z</time>
      </trkpt>
      <trkpt lat="45.23151" lon="6.05489">
        <ele>2410</ele>
        <time>2023-08-11T11:50:50.000Z</time>
      </trkpt>
      <trkpt lat="45.23151" lon="6.05487">
        <ele>2409.1999511719</ele>
        <time>2023-08-11T11:50:52.000Z</time>
      </trkpt>
      <trkpt lat="45.23151" lon="6.05487">
        <ele>2408.8000488281</ele>
        <time>2023-08-11T11:50:54.000Z</time>
      </trkpt>
      <trkpt lat="45.23151" lon="6.05487">
        <ele>2408.6000976562</ele>
        <time>2023-08-11T11:50:55.000Z</time>
      </trkpt>
      <trkpt lat="45.2315" lon="6.05486">
        <ele>2407.8000488281</ele>
        <time>2023-08-11T11:50:58.000Z</time>
      </trkpt>
      <trkpt lat="45.2315" lon="6.05486">
        <ele>2407.6000976562</ele>
        <time>2023-08-11T11:51:00.000Z</time>
      </trkpt>
      <trkpt lat="45.2315" lon="6.05487">
        <ele>2407.3999023438</ele>
        <time>2023-08-11T11:51:02.000Z</time>
      </trkpt>
      <trkpt lat="45.23149" lon="6.05487">
        <ele>2406.8000488281</ele>
        <time>2023-08-11T11:51:06.000Z</time>
      </trkpt>
      <trkpt lat="45.23149" lon="6.05487">
        <ele>2406.6000976562</ele>
        <time>2023-08-11T11:51:07.000Z</time>
      </trkpt>
      <trkpt lat="45.23149" lon="6.05486">
        <ele>2406.3999023438</ele>
        <time>2023-08-11T11:51:08.000Z</time>
      </trkpt>
      <trkpt lat="45.23148" lon="6.05482">
        <ele>2405.3999023438</ele>
        <time>2023-08-11T11:51:13.000Z</time>
      </trkpt>
      <trkpt lat="45.23147" lon="6.05481">
        <ele>2405.3999023438</ele>
        <time>2023-08-11T11:51:14.000Z</time>
      </trkpt>
      <trkpt lat="45.23146" lon="6.0548">
        <ele>2404.6000976562</ele>
        <time>2023-08-11T11:51:19.000Z</time>
      </trkpt>
      <trkpt lat="45.23145" lon="6.05481">
        <ele>2404.3999023438</ele>
        <time>2023-08-11T11:51:21.000Z</time>
      </trkpt>
      <trkpt lat="45.23143" lon="6.05483">
        <ele>2403.1999511719</ele>
        <time>2023-08-11T11:51:26.000Z</time>
      </trkpt>
      <trkpt lat="45.23142" lon="6.05483">
        <ele>2403</ele>
        <time>2023-08-11T11:51:27.000Z</time>
      </trkpt>
      <trkpt lat="45.23142" lon="6.05482">
        <ele>2402.8000488281</ele>
        <time>2023-08-11T11:51:28.000Z</time>
      </trkpt>
      <trkpt lat="45.2314" lon="6.0548">
        <ele>2402.1999511719</ele>
        <time>2023-08-11T11:51:32.000Z</time>
      </trkpt>
      <trkpt lat="45.2314" lon="6.05479">
        <ele>2401.8000488281</ele>
        <time>2023-08-11T11:51:34.000Z</time>
      </trkpt>
      <trkpt lat="45.2314" lon="6.05478">
        <ele>2401.8000488281</ele>
        <time>2023-08-11T11:51:35.000Z</time>
      </trkpt>
      <trkpt lat="45.2314" lon="6.05477">
        <ele>2401</ele>
        <time>2023-08-11T11:51:38.000Z</time>
      </trkpt>
      <trkpt lat="45.2314" lon="6.05475">
        <ele>2400.1999511719</ele>
        <time>2023-08-11T11:51:43.000Z</time>
      </trkpt>
      <trkpt lat="45.2314" lon="6.05475">
        <ele>2400</ele>
        <time>2023-08-11T11:51:44.000Z</time>
      </trkpt>
      <trkpt lat="45.23139" lon="6.05475">
        <ele>2399.8000488281</ele>
        <time>2023-08-11T11:51:45.000Z</time>
      </trkpt>
      <trkpt lat="45.23136" lon="6.05476">
        <ele>2399</ele>
        <time>2023-08-11T11:51:49.000Z</time>
      </trkpt>
      <trkpt lat="45.23135" lon="6.05475">
        <ele>2398.8000488281</ele>
        <time>2023-08-11T11:51:50.000Z</time>
      </trkpt>
      <trkpt lat="45.23134" lon="6.05474">
        <ele>2398.6000976562</ele>
        <time>2023-08-11T11:51:51.000Z</time>
      </trkpt>
      <trkpt lat="45.23135" lon="6.05471">
        <ele>2397.8000488281</ele>
        <time>2023-08-11T11:51:55.000Z</time>
      </trkpt>
      <trkpt lat="45.23136" lon="6.05469">
        <ele>2397.6000976562</ele>
        <time>2023-08-11T11:51:56.000Z</time>
      </trkpt>
      <trkpt lat="45.23136" lon="6.05467">
        <ele>2396.8000488281</ele>
        <time>2023-08-11T11:52:03.000Z</time>
      </trkpt>
      <trkpt lat="45.23133" lon="6.05464">
        <ele>2395.8000488281</ele>
        <time>2023-08-11T11:52:11.000Z</time>
      </trkpt>
      <trkpt lat="45.23131" lon="6.05461">
        <ele>2394.8000488281</ele>
        <time>2023-08-11T11:52:16.000Z</time>
      </trkpt>
      <trkpt lat="45.2313" lon="6.05458">
        <ele>2394</ele>
        <time>2023-08-11T11:52:19.000Z</time>
      </trkpt>
      <trkpt lat="45.23131" lon="6.05454">
        <ele>2393.6000976562</ele>
        <time>2023-08-11T11:52:22.000Z</time>
      </trkpt>
      <trkpt lat="45.23131" lon="6.05454">
        <ele>2392.8000488281</ele>
        <time>2023-08-11T11:52:26.000Z</time>
      </trkpt>
      <trkpt lat="45.23131" lon="6.05453">
        <ele>2392.6000976562</ele>
        <time>2023-08-11T11:52:28.000Z</time>
      </trkpt>
      <trkpt lat="45.23132" lon="6.05452">
        <ele>2392.3999023438</ele>
        <time>2023-08-11T11:52:31.000Z</time>
      </trkpt>
      <trkpt lat="45.23132" lon="6.05451">
        <ele>2391.8000488281</ele>
        <time>2023-08-11T11:52:37.000Z</time>
      </trkpt>
      <trkpt lat="45.2313" lon="6.05456">
        <ele>2391.6000976562</ele>
        <time>2023-08-11T11:52:45.000Z</time>
      </trkpt>
      <trkpt lat="45.23129" lon="6.05456">
        <ele>2391.8000488281</ele>
        <time>2023-08-11T11:52:53.000Z</time>
      </trkpt>
      <trkpt lat="45.23129" lon="6.05454">
        <ele>2392.1999511719</ele>
        <time>2023-08-11T11:53:01.000Z</time>
      </trkpt>
      <trkpt lat="45.2313" lon="6.05455">
        <ele>2391.3999023438</ele>
        <time>2023-08-11T11:53:06.000Z</time>
      </trkpt>
      <trkpt lat="45.23129" lon="6.05456">
        <ele>2391.1999511719</ele>
        <time>2023-08-11T11:53:09.000Z</time>
      </trkpt>
      <trkpt lat="45.23127" lon="6.05452">
        <ele>2390.3999023438</ele>
        <time>2023-08-11T11:53:14.000Z</time>
      </trkpt>
      <trkpt lat="45.23127" lon="6.05451">
        <ele>2390.3999023438</ele>
        <time>2023-08-11T11:53:15.000Z</time>
      </trkpt>
      <trkpt lat="45.23125" lon="6.05445">
        <ele>2389</ele>
        <time>2023-08-11T11:53:24.000Z</time>
      </trkpt>
      <trkpt lat="45.23127" lon="6.05445">
        <ele>2388</ele>
        <time>2023-08-11T11:53:28.000Z</time>
      </trkpt>
      <trkpt lat="45.23127" lon="6.05445">
        <ele>2387.6000976562</ele>
        <time>2023-08-11T11:53:31.000Z</time>
      </trkpt>
      <trkpt lat="45.23127" lon="6.05444">
        <ele>2387</ele>
        <time>2023-08-11T11:53:37.000Z</time>
      </trkpt>
      <trkpt lat="45.23127" lon="6.05444">
        <ele>2386.8000488281</ele>
        <time>2023-08-11T11:53:38.000Z</time>
      </trkpt>
      <trkpt lat="45.23126" lon="6.05446">
        <ele>2386.6000976562</ele>
        <time>2023-08-11T11:53:46.000Z</time>
      </trkpt>
      <trkpt lat="45.23128" lon="6.05445">
        <ele>2386.3999023438</ele>
        <time>2023-08-11T11:53:54.000Z</time>
      </trkpt>
      <trkpt lat="45.23128" lon="6.05442">
        <ele>2386.1999511719</ele>
        <time>2023-08-11T11:53:59.000Z</time>
      </trkpt>
      <trkpt lat="45.23128" lon="6.05444">
        <ele>2386.1999511719</ele>
        <time>2023-08-11T11:54:06.000Z</time>
      </trkpt>
      <trkpt lat="45.23129" lon="6.05447">
        <ele>2386.1999511719</ele>
        <time>2023-08-11T11:54:14.000Z</time>
      </trkpt>
      <trkpt lat="45.23128" lon="6.05442">
        <ele>2386</ele>
        <time>2023-08-11T11:54:22.000Z</time>
      </trkpt>
      <trkpt lat="45.23128" lon="6.05439">
        <ele>2386</ele>
        <time>2023-08-11T11:54:29.000Z</time>
      </trkpt>
      <trkpt lat="45.23128" lon="6.05443">
        <ele>2386</ele>
        <time>2023-08-11T11:54:38.000Z</time>
      </trkpt>
      <trkpt lat="45.23128" lon="6.05443">
        <ele>2386</ele>
        <time>2023-08-11T11:54:39.000Z</time>
      </trkpt>
      <trkpt lat="45.23126" lon="6.05443">
        <ele>2385.8000488281</ele>
        <time>2023-08-11T11:54:46.000Z</time>
      </trkpt>
      <trkpt lat="45.23126" lon="6.05445">
        <ele>2386.3999023438</ele>
        <time>2023-08-11T11:54:55.000Z</time>
      </trkpt>
      <trkpt lat="45.23126" lon="6.05446">
        <ele>2387.1999511719</ele>
        <time>2023-08-11T11:55:02.000Z</time>
      </trkpt>
      <trkpt lat="45.23126" lon="6.05446">
        <ele>2387.3999023438</ele>
        <time>2023-08-11T11:55:03.000Z</time>
      </trkpt>
      <trkpt lat="45.2313" lon="6.05451">
        <ele>2387.3999023438</ele>
        <time>2023-08-11T11:55:11.000Z</time>
      </trkpt>
      <trkpt lat="45.23131" lon="6.05453">
        <ele>2387.3999023438</ele>
        <time>2023-08-11T11:55:18.000Z</time>
      </trkpt>
      <trkpt lat="45.2313" lon="6.05449">
        <ele>2387.3999023438</ele>
        <time>2023-08-11T11:55:27.000Z</time>
      </trkpt>
      <trkpt lat="45.23128" lon="6.05447">
        <ele>2387.6000976562</ele>
        <time>2023-08-11T11:55:35.000Z</time>
      </trkpt>
      <trkpt lat="45.23128" lon="6.05448">
        <ele>2387.3999023438</ele>
        <time>2023-08-11T11:55:43.000Z</time>
      </trkpt>
      <trkpt lat="45.23131" lon="6.05448">
        <ele>2387.1999511719</ele>
        <time>2023-08-11T11:55:48.000Z</time>
      </trkpt>
      <trkpt lat="45.23128" lon="6.05445">
        <ele>2387.1999511719</ele>
        <time>2023-08-11T11:55:56.000Z</time>
      </trkpt>
      <trkpt lat="45.2313" lon="6.05449">
        <ele>2387.3999023438</ele>
        <time>2023-08-11T11:56:06.000Z</time>
      </trkpt>
      <trkpt lat="45.23127" lon="6.05449">
        <ele>2387.3999023438</ele>
        <time>2023-08-11T11:56:14.000Z</time>
      </trkpt>
      <trkpt lat="45.23127" lon="6.05453">
        <ele>2388.1999511719</ele>
        <time>2023-08-11T11:56:19.000Z</time>
      </trkpt>
      <trkpt lat="45.23127" lon="6.05455">
        <ele>2388.3999023438</ele>
        <time>2023-08-11T11:56:20.000Z</time>
      </trkpt>
      <trkpt lat="45.23128" lon="6.05455">
        <ele>2389.1999511719</ele>
        <time>2023-08-11T11:56:26.000Z</time>
      </trkpt>
      <trkpt lat="45.23128" lon="6.05456">
        <ele>2389.3999023438</ele>
        <time>2023-08-11T11:56:27.000Z</time>
      </trkpt>
      <trkpt lat="45.23128" lon="6.05458">
        <ele>2390</ele>
        <time>2023-08-11T11:56:33.000Z</time>
      </trkpt>
      <trkpt lat="45.23129" lon="6.05458">
        <ele>2390.3999023438</ele>
        <time>2023-08-11T11:56:36.000Z</time>
      </trkpt>
      <trkpt lat="45.2313" lon="6.05455">
        <ele>2391.1999511719</ele>
        <time>2023-08-11T11:56:40.000Z</time>
      </trkpt>
      <trkpt lat="45.23132" lon="6.05453">
        <ele>2391.3999023438</ele>
        <time>2023-08-11T11:56:45.000Z</time>
      </trkpt>
      <trkpt lat="45.23132" lon="6.05453">
        <ele>2391.3999023438</ele>
        <time>2023-08-11T11:56:47.000Z</time>
      </trkpt>
      <trkpt lat="45.23135" lon="6.05452">
        <ele>2390.8000488281</ele>
        <time>2023-08-11T11:56:55.000Z</time>
      </trkpt>
      <trkpt lat="45.23136" lon="6.05452">
        <ele>2390.3999023438</ele>
        <time>2023-08-11T11:57:00.000Z</time>
      </trkpt>
      <trkpt lat="45.23136" lon="6.05451">
        <ele>2390.3999023438</ele>
        <time>2023-08-11T11:57:02.000Z</time>
      </trkpt>
      <trkpt lat="45.23138" lon="6.05446">
        <ele>2390</ele>
        <time>2023-08-11T11:57:07.000Z</time>
      </trkpt>
      <trkpt lat="45.23138" lon="6.05441">
        <ele>2389.3999023438</ele>
        <time>2023-08-11T11:57:12.000Z</time>
      </trkpt>
      <trkpt lat="45.23138" lon="6.0544">
        <ele>2389.3999023438</ele>
        <time>2023-08-11T11:57:15.000Z</time>
      </trkpt>
      <trkpt lat="45.23139" lon="6.05437">
        <ele>2388.8000488281</ele>
        <time>2023-08-11T11:57:21.000Z</time>
      </trkpt>
      <trkpt lat="45.23139" lon="6.05435">
        <ele>2388.3999023438</ele>
        <time>2023-08-11T11:57:24.000Z</time>
      </trkpt>
      <trkpt lat="45.23139" lon="6.05432">
        <ele>2388.1999511719</ele>
        <time>2023-08-11T11:57:28.000Z</time>
      </trkpt>
      <trkpt lat="45.2314" lon="6.0543">
        <ele>2387.8000488281</ele>
        <time>2023-08-11T11:57:36.000Z</time>
      </trkpt>
      <trkpt lat="45.23141" lon="6.05429">
        <ele>2387.1999511719</ele>
        <time>2023-08-11T11:57:39.000Z</time>
      </trkpt>
      <trkpt lat="45.23142" lon="6.05426">
        <ele>2387</ele>
        <time>2023-08-11T11:57:43.000Z</time>
      </trkpt>
      <trkpt lat="45.23142" lon="6.05423">
        <ele>2386.6000976562</ele>
        <time>2023-08-11T11:57:50.000Z</time>
      </trkpt>
      <trkpt lat="45.23141" lon="6.05421">
        <ele>2386.1999511719</ele>
        <time>2023-08-11T11:57:54.000Z</time>
      </trkpt>
      <trkpt lat="45.23141" lon="6.05416">
        <ele>2385.3999023438</ele>
        <time>2023-08-11T11:57:59.000Z</time>
      </trkpt>
      <trkpt lat="45.23141" lon="6.05415">
        <ele>2385</ele>
        <time>2023-08-11T11:58:03.000Z</time>
      </trkpt>
      <trkpt lat="45.23141" lon="6.05415">
        <ele>2384.6000976562</ele>
        <time>2023-08-11T11:58:06.000Z</time>
      </trkpt>
      <trkpt lat="45.2314" lon="6.05415">
        <ele>2384</ele>
        <time>2023-08-11T11:58:12.000Z</time>
      </trkpt>
      <trkpt lat="45.2314" lon="6.05414">
        <ele>2383.6000976562</ele>
        <time>2023-08-11T11:58:16.000Z</time>
      </trkpt>
      <trkpt lat="45.23139" lon="6.0541">
        <ele>2383</ele>
        <time>2023-08-11T11:58:23.000Z</time>
      </trkpt>
      <trkpt lat="45.23139" lon="6.05409">
        <ele>2383</ele>
        <time>2023-08-11T11:58:24.000Z</time>
      </trkpt>
      <trkpt lat="45.2314" lon="6.05408">
        <ele>2382.6000976562</ele>
        <time>2023-08-11T11:58:30.000Z</time>
      </trkpt>
      <trkpt lat="45.23141" lon="6.05405">
        <ele>2382.3999023438</ele>
        <time>2023-08-11T11:58:36.000Z</time>
      </trkpt>
      <trkpt lat="45.23141" lon="6.05403">
        <ele>2381.8000488281</ele>
        <time>2023-08-11T11:58:41.000Z</time>
      </trkpt>
      <trkpt lat="45.23141" lon="6.05402">
        <ele>2381.6000976562</ele>
        <time>2023-08-11T11:58:43.000Z</time>
      </trkpt>
      <trkpt lat="45.2314" lon="6.05399">
        <ele>2380.8000488281</ele>
        <time>2023-08-11T11:58:48.000Z</time>
      </trkpt>
      <trkpt lat="45.2314" lon="6.05396">
        <ele>2379.6000976562</ele>
        <time>2023-08-11T11:58:55.000Z</time>
      </trkpt>
      <trkpt lat="45.23141" lon="6.05393">
        <ele>2378.8000488281</ele>
        <time>2023-08-11T11:59:02.000Z</time>
      </trkpt>
      <trkpt lat="45.23141" lon="6.05389">
        <ele>2378.6000976562</ele>
        <time>2023-08-11T11:59:06.000Z</time>
      </trkpt>
      <trkpt lat="45.23141" lon="6.05388">
        <ele>2378.3999023438</ele>
        <time>2023-08-11T11:59:09.000Z</time>
      </trkpt>
      <trkpt lat="45.2314" lon="6.05387">
        <ele>2377.3999023438</ele>
        <time>2023-08-11T11:59:13.000Z</time>
      </trkpt>
      <trkpt lat="45.2314" lon="6.05385">
        <ele>2377</ele>
        <time>2023-08-11T11:59:17.000Z</time>
      </trkpt>
      <trkpt lat="45.2314" lon="6.05383">
        <ele>2376.1999511719</ele>
        <time>2023-08-11T11:59:20.000Z</time>
      </trkpt>
      <trkpt lat="45.2314" lon="6.0538">
        <ele>2375.8000488281</ele>
        <time>2023-08-11T11:59:24.000Z</time>
      </trkpt>
      <trkpt lat="45.23141" lon="6.05378">
        <ele>2375.1999511719</ele>
        <time>2023-08-11T11:59:28.000Z</time>
      </trkpt>
      <trkpt lat="45.23141" lon="6.05375">
        <ele>2374.3999023438</ele>
        <time>2023-08-11T11:59:33.000Z</time>
      </trkpt>
      <trkpt lat="45.2314" lon="6.05373">
        <ele>2374.1999511719</ele>
        <time>2023-08-11T11:59:37.000Z</time>
      </trkpt>
      <trkpt lat="45.2314" lon="6.05371">
        <ele>2374</ele>
        <time>2023-08-11T11:59:39.000Z</time>
      </trkpt>
      <trkpt lat="45.23141" lon="6.05369">
        <ele>2373.1999511719</ele>
        <time>2023-08-11T11:59:45.000Z</time>
      </trkpt>
      <trkpt lat="45.23141" lon="6.05367">
        <ele>2372.8000488281</ele>
        <time>2023-08-11T11:59:47.000Z</time>
      </trkpt>
      <trkpt lat="45.23141" lon="6.05362">
        <ele>2372</ele>
        <time>2023-08-11T11:59:52.000Z</time>
      </trkpt>
      <trkpt lat="45.23141" lon="6.05362">
        <ele>2371.8000488281</ele>
        <time>2023-08-11T11:59:53.000Z</time>
      </trkpt>
      <trkpt lat="45.23142" lon="6.05358">
        <ele>2371.1999511719</ele>
        <time>2023-08-11T11:59:59.000Z</time>
      </trkpt>
      <trkpt lat="45.23142" lon="6.05358">
        <ele>2371</ele>
        <time>2023-08-11T12:00:03.000Z</time>
      </trkpt>
      <trkpt lat="45.23141" lon="6.05356">
        <ele>2370</ele>
        <time>2023-08-11T12:00:07.000Z</time>
      </trkpt>
      <trkpt lat="45.23141" lon="6.05355">
        <ele>2369.8000488281</ele>
        <time>2023-08-11T12:00:08.000Z</time>
      </trkpt>
      <trkpt lat="45.23141" lon="6.05349">
        <ele>2368.6000976562</ele>
        <time>2023-08-11T12:00:14.000Z</time>
      </trkpt>
      <trkpt lat="45.23141" lon="6.05344">
        <ele>2367.6000976562</ele>
        <time>2023-08-11T12:00:22.000Z</time>
      </trkpt>
      <trkpt lat="45.23142" lon="6.05343">
        <ele>2367.6000976562</ele>
        <time>2023-08-11T12:00:23.000Z</time>
      </trkpt>
      <trkpt lat="45.23142" lon="6.05337">
        <ele>2366.6000976562</ele>
        <time>2023-08-11T12:00:28.000Z</time>
      </trkpt>
      <trkpt lat="45.23143" lon="6.05329">
        <ele>2365.8000488281</ele>
        <time>2023-08-11T12:00:36.000Z</time>
      </trkpt>
      <trkpt lat="45.23143" lon="6.05327">
        <ele>2365.6000976562</ele>
        <time>2023-08-11T12:00:39.000Z</time>
      </trkpt>
      <trkpt lat="45.23143" lon="6.05326">
        <ele>2365</ele>
        <time>2023-08-11T12:00:43.000Z</time>
      </trkpt>
      <trkpt lat="45.23144" lon="6.05324">
        <ele>2364.3999023438</ele>
        <time>2023-08-11T12:00:47.000Z</time>
      </trkpt>
      <trkpt lat="45.23143" lon="6.05321">
        <ele>2363.8000488281</ele>
        <time>2023-08-11T12:00:51.000Z</time>
      </trkpt>
      <trkpt lat="45.23142" lon="6.05318">
        <ele>2363.3999023438</ele>
        <time>2023-08-11T12:00:53.000Z</time>
      </trkpt>
      <trkpt lat="45.23142" lon="6.05316">
        <ele>2363.1999511719</ele>
        <time>2023-08-11T12:00:54.000Z</time>
      </trkpt>
      <trkpt lat="45.23141" lon="6.05314">
        <ele>2362.3999023438</ele>
        <time>2023-08-11T12:00:57.000Z</time>
      </trkpt>
      <trkpt lat="45.23141" lon="6.05315">
        <ele>2362.1999511719</ele>
        <time>2023-08-11T12:00:58.000Z</time>
      </trkpt>
      <trkpt lat="45.23139" lon="6.05317">
        <ele>2361.6000976562</ele>
        <time>2023-08-11T12:01:03.000Z</time>
      </trkpt>
      <trkpt lat="45.23139" lon="6.05316">
        <ele>2361.6000976562</ele>
        <time>2023-08-11T12:01:04.000Z</time>
      </trkpt>
      <trkpt lat="45.23138" lon="6.05315">
        <ele>2361.1999511719</ele>
        <time>2023-08-11T12:01:05.000Z</time>
      </trkpt>
      <trkpt lat="45.23136" lon="6.05315">
        <ele>2360.6000976562</ele>
        <time>2023-08-11T12:01:09.000Z</time>
      </trkpt>
      <trkpt lat="45.23134" lon="6.05313">
        <ele>2360</ele>
        <time>2023-08-11T12:01:13.000Z</time>
      </trkpt>
      <trkpt lat="45.23134" lon="6.05311">
        <ele>2359</ele>
        <time>2023-08-11T12:01:17.000Z</time>
      </trkpt>
      <trkpt lat="45.23134" lon="6.0531">
        <ele>2358.8000488281</ele>
        <time>2023-08-11T12:01:18.000Z</time>
      </trkpt>
      <trkpt lat="45.23133" lon="6.05305">
        <ele>2357.3999023438</ele>
        <time>2023-08-11T12:01:23.000Z</time>
      </trkpt>
      <trkpt lat="45.23133" lon="6.05304">
        <ele>2357.1999511719</ele>
        <time>2023-08-11T12:01:24.000Z</time>
      </trkpt>
      <trkpt lat="45.23131" lon="6.05302">
        <ele>2356.3999023438</ele>
        <time>2023-08-11T12:01:27.000Z</time>
      </trkpt>
      <trkpt lat="45.23129" lon="6.05295">
        <ele>2355.3999023438</ele>
        <time>2023-08-11T12:01:33.000Z</time>
      </trkpt>
      <trkpt lat="45.23128" lon="6.05294">
        <ele>2355.1999511719</ele>
        <time>2023-08-11T12:01:34.000Z</time>
      </trkpt>
      <trkpt lat="45.23129" lon="6.05289">
        <ele>2354.3999023438</ele>
        <time>2023-08-11T12:01:38.000Z</time>
      </trkpt>
      <trkpt lat="45.23129" lon="6.05286">
        <ele>2354.1999511719</ele>
        <time>2023-08-11T12:01:40.000Z</time>
      </trkpt>
      <trkpt lat="45.23128" lon="6.05283">
        <ele>2353.6000976562</ele>
        <time>2023-08-11T12:01:46.000Z</time>
      </trkpt>
      <trkpt lat="45.23128" lon="6.05281">
        <ele>2353</ele>
        <time>2023-08-11T12:01:48.000Z</time>
      </trkpt>
      <trkpt lat="45.23127" lon="6.05274">
        <ele>2352.6000976562</ele>
        <time>2023-08-11T12:01:55.000Z</time>
      </trkpt>
      <trkpt lat="45.23125" lon="6.05269">
        <ele>2352</ele>
        <time>2023-08-11T12:01:59.000Z</time>
      </trkpt>
      <trkpt lat="45.23125" lon="6.05266">
        <ele>2351.6000976562</ele>
        <time>2023-08-11T12:02:02.000Z</time>
      </trkpt>
      <trkpt lat="45.23125" lon="6.05264">
        <ele>2350.8000488281</ele>
        <time>2023-08-11T12:02:05.000Z</time>
      </trkpt>
      <trkpt lat="45.23122" lon="6.05261">
        <ele>2350.1999511719</ele>
        <time>2023-08-11T12:02:11.000Z</time>
      </trkpt>
      <trkpt lat="45.23121" lon="6.0526">
        <ele>2349.8000488281</ele>
        <time>2023-08-11T12:02:13.000Z</time>
      </trkpt>
      <trkpt lat="45.23119" lon="6.05257">
        <ele>2348.6000976562</ele>
        <time>2023-08-11T12:02:18.000Z</time>
      </trkpt>
      <trkpt lat="45.23119" lon="6.05258">
        <ele>2348.1999511719</ele>
        <time>2023-08-11T12:02:20.000Z</time>
      </trkpt>
      <trkpt lat="45.2312" lon="6.05258">
        <ele>2348.1999511719</ele>
        <time>2023-08-11T12:02:22.000Z</time>
      </trkpt>
      <trkpt lat="45.23125" lon="6.05258">
        <ele>2348</ele>
        <time>2023-08-11T12:02:30.000Z</time>
      </trkpt>
      <trkpt lat="45.23125" lon="6.05256">
        <ele>2347.8000488281</ele>
        <time>2023-08-11T12:02:39.000Z</time>
      </trkpt>
      <trkpt lat="45.23122" lon="6.05254">
        <ele>2347.6000976562</ele>
        <time>2023-08-11T12:02:42.000Z</time>
      </trkpt>
      <trkpt lat="45.23119" lon="6.05253">
        <ele>2347.3999023438</ele>
        <time>2023-08-11T12:02:44.000Z</time>
      </trkpt>
      <trkpt lat="45.23114" lon="6.05249">
        <ele>2346.3999023438</ele>
        <time>2023-08-11T12:02:48.000Z</time>
      </trkpt>
      <trkpt lat="45.23111" lon="6.05245">
        <ele>2346</ele>
        <time>2023-08-11T12:02:51.000Z</time>
      </trkpt>
      <trkpt lat="45.23109" lon="6.05243">
        <ele>2345</ele>
        <time>2023-08-11T12:02:54.000Z</time>
      </trkpt>
      <trkpt lat="45.23106" lon="6.0524">
        <ele>2344</ele>
        <time>2023-08-11T12:02:57.000Z</time>
      </trkpt>
      <trkpt lat="45.23104" lon="6.05239">
        <ele>2342.8000488281</ele>
        <time>2023-08-11T12:02:59.000Z</time>
      </trkpt>
      <trkpt lat="45.23104" lon="6.05238">
        <ele>2342.6000976562</ele>
        <time>2023-08-11T12:03:00.000Z</time>
      </trkpt>
      <trkpt lat="45.23097" lon="6.05227">
        <ele>2341.1999511719</ele>
        <time>2023-08-11T12:03:08.000Z</time>
      </trkpt>
      <trkpt lat="45.23092" lon="6.05211">
        <ele>2340.1999511719</ele>
        <time>2023-08-11T12:03:18.000Z</time>
      </trkpt>
      <trkpt lat="45.23088" lon="6.052">
        <ele>2339</ele>
        <time>2023-08-11T12:03:24.000Z</time>
      </trkpt>
      <trkpt lat="45.23088" lon="6.05197">
        <ele>2338.8000488281</ele>
        <time>2023-08-11T12:03:26.000Z</time>
      </trkpt>
      <trkpt lat="45.23089" lon="6.0518">
        <ele>2339</ele>
        <time>2023-08-11T12:03:34.000Z</time>
      </trkpt>
      <trkpt lat="45.23089" lon="6.05172">
        <ele>2339</ele>
        <time>2023-08-11T12:03:41.000Z</time>
      </trkpt>
      <trkpt lat="45.2309" lon="6.05163">
        <ele>2337.8000488281</ele>
        <time>2023-08-11T12:03:46.000Z</time>
      </trkpt>
      <trkpt lat="45.23089" lon="6.05161">
        <ele>2336.8000488281</ele>
        <time>2023-08-11T12:03:48.000Z</time>
      </trkpt>
      <trkpt lat="45.23089" lon="6.05159">
        <ele>2336.3999023438</ele>
        <time>2023-08-11T12:03:49.000Z</time>
      </trkpt>
      <trkpt lat="45.23088" lon="6.05157">
        <ele>2335.6000976562</ele>
        <time>2023-08-11T12:03:52.000Z</time>
      </trkpt>
      <trkpt lat="45.23087" lon="6.05153">
        <ele>2334.6000976562</ele>
        <time>2023-08-11T12:03:55.000Z</time>
      </trkpt>
      <trkpt lat="45.23085" lon="6.0515">
        <ele>2334.1999511719</ele>
        <time>2023-08-11T12:03:57.000Z</time>
      </trkpt>
      <trkpt lat="45.23082" lon="6.05144">
        <ele>2333.3999023438</ele>
        <time>2023-08-11T12:04:01.000Z</time>
      </trkpt>
      <trkpt lat="45.2308" lon="6.0514">
        <ele>2332.6000976562</ele>
        <time>2023-08-11T12:04:05.000Z</time>
      </trkpt>
      <trkpt lat="45.23079" lon="6.05138">
        <ele>2332.3999023438</ele>
        <time>2023-08-11T12:04:07.000Z</time>
      </trkpt>
      <trkpt lat="45.23077" lon="6.05131">
        <ele>2331.3999023438</ele>
        <time>2023-08-11T12:04:12.000Z</time>
      </trkpt>
      <trkpt lat="45.23076" lon="6.0513">
        <ele>2331.3999023438</ele>
        <time>2023-08-11T12:04:13.000Z</time>
      </trkpt>
      <trkpt lat="45.23073" lon="6.0512">
        <ele>2330.1999511719</ele>
        <time>2023-08-11T12:04:19.000Z</time>
      </trkpt>
      <trkpt lat="45.23072" lon="6.05116">
        <ele>2330.1999511719</ele>
        <time>2023-08-11T12:04:21.000Z</time>
      </trkpt>
      <trkpt lat="45.23066" lon="6.05098">
        <ele>2329.8000488281</ele>
        <time>2023-08-11T12:04:30.000Z</time>
      </trkpt>
      <trkpt lat="45.23062" lon="6.05086">
        <ele>2329.1999511719</ele>
        <time>2023-08-11T12:04:37.000Z</time>
      </trkpt>
      <trkpt lat="45.23062" lon="6.05085">
        <ele>2329.1999511719</ele>
        <time>2023-08-11T12:04:38.000Z</time>
      </trkpt>
      <trkpt lat="45.2306" lon="6.05079">
        <ele>2329.8000488281</ele>
        <time>2023-08-11T12:04:44.000Z</time>
      </trkpt>
      <trkpt lat="45.23056" lon="6.05072">
        <ele>2330.3999023438</ele>
        <time>2023-08-11T12:04:50.000Z</time>
      </trkpt>
      <trkpt lat="45.23055" lon="6.05071">
        <ele>2330.6000976562</ele>
        <time>2023-08-11T12:04:52.000Z</time>
      </trkpt>
      <trkpt lat="45.23055" lon="6.05065">
        <ele>2329.6000976562</ele>
        <time>2023-08-11T12:04:59.000Z</time>
      </trkpt>
      <trkpt lat="45.23055" lon="6.05065">
        <ele>2329.1999511719</ele>
        <time>2023-08-11T12:05:01.000Z</time>
      </trkpt>
      <trkpt lat="45.23053" lon="6.05058">
        <ele>2328</ele>
        <time>2023-08-11T12:05:06.000Z</time>
      </trkpt>
      <trkpt lat="45.23052" lon="6.05057">
        <ele>2328</ele>
        <time>2023-08-11T12:05:07.000Z</time>
      </trkpt>
      <trkpt lat="45.23049" lon="6.05055">
        <ele>2327.3999023438</ele>
        <time>2023-08-11T12:05:09.000Z</time>
      </trkpt>
      <trkpt lat="45.23044" lon="6.05044">
        <ele>2327.1999511719</ele>
        <time>2023-08-11T12:05:17.000Z</time>
      </trkpt>
      <trkpt lat="45.23041" lon="6.05037">
        <ele>2326.8000488281</ele>
        <time>2023-08-11T12:05:21.000Z</time>
      </trkpt>
      <trkpt lat="45.23038" lon="6.05033">
        <ele>2325.8000488281</ele>
        <time>2023-08-11T12:05:27.000Z</time>
      </trkpt>
      <trkpt lat="45.23032" lon="6.05026">
        <ele>2325.6000976562</ele>
        <time>2023-08-11T12:05:33.000Z</time>
      </trkpt>
      <trkpt lat="45.2303" lon="6.05023">
        <ele>2325.3999023438</ele>
        <time>2023-08-11T12:05:35.000Z</time>
      </trkpt>
      <trkpt lat="45.23028" lon="6.05019">
        <ele>2324.3999023438</ele>
        <time>2023-08-11T12:05:39.000Z</time>
      </trkpt>
      <trkpt lat="45.23027" lon="6.05016">
        <ele>2323.3999023438</ele>
        <time>2023-08-11T12:05:43.000Z</time>
      </trkpt>
      <trkpt lat="45.23026" lon="6.05014">
        <ele>2323.1999511719</ele>
        <time>2023-08-11T12:05:45.000Z</time>
      </trkpt>
      <trkpt lat="45.23023" lon="6.05009">
        <ele>2322</ele>
        <time>2023-08-11T12:05:50.000Z</time>
      </trkpt>
      <trkpt lat="45.23014" lon="6.05003">
        <ele>2321</ele>
        <time>2023-08-11T12:05:58.000Z</time>
      </trkpt>
      <trkpt lat="45.23013" lon="6.05003">
        <ele>2321</ele>
        <time>2023-08-11T12:05:59.000Z</time>
      </trkpt>
      <trkpt lat="45.23007" lon="6.05">
        <ele>2320.3999023438</ele>
        <time>2023-08-11T12:06:05.000Z</time>
      </trkpt>
      <trkpt lat="45.23005" lon="6.04998">
        <ele>2320</ele>
        <time>2023-08-11T12:06:07.000Z</time>
      </trkpt>
      <trkpt lat="45.22999" lon="6.0499">
        <ele>2319.6000976562</ele>
        <time>2023-08-11T12:06:13.000Z</time>
      </trkpt>
      <trkpt lat="45.22994" lon="6.04985">
        <ele>2320</ele>
        <time>2023-08-11T12:06:20.000Z</time>
      </trkpt>
      <trkpt lat="45.22992" lon="6.04982">
        <ele>2319.6000976562</ele>
        <time>2023-08-11T12:06:28.000Z</time>
      </trkpt>
      <trkpt lat="45.2299" lon="6.0498">
        <ele>2319</ele>
        <time>2023-08-11T12:06:31.000Z</time>
      </trkpt>
      <trkpt lat="45.22989" lon="6.04978">
        <ele>2317.8000488281</ele>
        <time>2023-08-11T12:06:34.000Z</time>
      </trkpt>
      <trkpt lat="45.22987" lon="6.04977">
        <ele>2317</ele>
        <time>2023-08-11T12:06:37.000Z</time>
      </trkpt>
      <trkpt lat="45.22987" lon="6.04976">
        <ele>2316.6000976562</ele>
        <time>2023-08-11T12:06:38.000Z</time>
      </trkpt>
      <trkpt lat="45.22984" lon="6.04972">
        <ele>2315.6000976562</ele>
        <time>2023-08-11T12:06:43.000Z</time>
      </trkpt>
      <trkpt lat="45.22983" lon="6.04971">
        <ele>2315.6000976562</ele>
        <time>2023-08-11T12:06:44.000Z</time>
      </trkpt>
      <trkpt lat="45.22979" lon="6.04969">
        <ele>2314.6000976562</ele>
        <time>2023-08-11T12:06:52.000Z</time>
      </trkpt>
      <trkpt lat="45.22979" lon="6.04969">
        <ele>2314.6000976562</ele>
        <time>2023-08-11T12:06:53.000Z</time>
      </trkpt>
      <trkpt lat="45.22979" lon="6.04965">
        <ele>2314.3999023438</ele>
        <time>2023-08-11T12:07:02.000Z</time>
      </trkpt>
      <trkpt lat="45.22979" lon="6.04969">
        <ele>2314.1999511719</ele>
        <time>2023-08-11T12:07:10.000Z</time>
      </trkpt>
      <trkpt lat="45.22977" lon="6.04967">
        <ele>2314.3999023438</ele>
        <time>2023-08-11T12:07:16.000Z</time>
      </trkpt>
      <trkpt lat="45.22975" lon="6.04958">
        <ele>2313.6000976562</ele>
        <time>2023-08-11T12:07:23.000Z</time>
      </trkpt>
      <trkpt lat="45.22974" lon="6.04952">
        <ele>2312.1999511719</ele>
        <time>2023-08-11T12:07:28.000Z</time>
      </trkpt>
      <trkpt lat="45.22974" lon="6.04947">
        <ele>2311.6000976562</ele>
        <time>2023-08-11T12:07:31.000Z</time>
      </trkpt>
      <trkpt lat="45.22975" lon="6.04943">
        <ele>2311</ele>
        <time>2023-08-11T12:07:33.000Z</time>
      </trkpt>
      <trkpt lat="45.22974" lon="6.04934">
        <ele>2309.8000488281</ele>
        <time>2023-08-11T12:07:39.000Z</time>
      </trkpt>
      <trkpt lat="45.22974" lon="6.04933">
        <ele>2309.8000488281</ele>
        <time>2023-08-11T12:07:40.000Z</time>
      </trkpt>
      <trkpt lat="45.2297" lon="6.04925">
        <ele>2309</ele>
        <time>2023-08-11T12:07:47.000Z</time>
      </trkpt>
      <trkpt lat="45.22969" lon="6.04922">
        <ele>2308.8000488281</ele>
        <time>2023-08-11T12:07:49.000Z</time>
      </trkpt>
      <trkpt lat="45.22966" lon="6.04917">
        <ele>2307.6000976562</ele>
        <time>2023-08-11T12:07:54.000Z</time>
      </trkpt>
      <trkpt lat="45.22963" lon="6.04914">
        <ele>2306.3999023438</ele>
        <time>2023-08-11T12:08:00.000Z</time>
      </trkpt>
      <trkpt lat="45.22963" lon="6.04914">
        <ele>2306.1999511719</ele>
        <time>2023-08-11T12:08:01.000Z</time>
      </trkpt>
      <trkpt lat="45.22961" lon="6.04913">
        <ele>2305.3999023438</ele>
        <time>2023-08-11T12:08:04.000Z</time>
      </trkpt>
      <trkpt lat="45.22958" lon="6.04908">
        <ele>2304.3999023438</ele>
        <time>2023-08-11T12:08:09.000Z</time>
      </trkpt>
      <trkpt lat="45.22956" lon="6.04907">
        <ele>2303.1999511719</ele>
        <time>2023-08-11T12:08:13.000Z</time>
      </trkpt>
      <trkpt lat="45.22954" lon="6.04904">
        <ele>2302</ele>
        <time>2023-08-11T12:08:17.000Z</time>
      </trkpt>
      <trkpt lat="45.22951" lon="6.049">
        <ele>2301</ele>
        <time>2023-08-11T12:08:22.000Z</time>
      </trkpt>
      <trkpt lat="45.22949" lon="6.04895">
        <ele>2299.8000488281</ele>
        <time>2023-08-11T12:08:26.000Z</time>
      </trkpt>
      <trkpt lat="45.22945" lon="6.04892">
        <ele>2298.6000976562</ele>
        <time>2023-08-11T12:08:30.000Z</time>
      </trkpt>
      <trkpt lat="45.22944" lon="6.04892">
        <ele>2298</ele>
        <time>2023-08-11T12:08:34.000Z</time>
      </trkpt>
      <trkpt lat="45.22945" lon="6.04893">
        <ele>2297.6000976562</ele>
        <time>2023-08-11T12:08:38.000Z</time>
      </trkpt>
      <trkpt lat="45.22944" lon="6.04892">
        <ele>2297.3999023438</ele>
        <time>2023-08-11T12:08:42.000Z</time>
      </trkpt>
      <trkpt lat="45.22941" lon="6.04888">
        <ele>2297.3999023438</ele>
        <time>2023-08-11T12:08:49.000Z</time>
      </trkpt>
      <trkpt lat="45.2294" lon="6.04889">
        <ele>2296.6000976562</ele>
        <time>2023-08-11T12:08:53.000Z</time>
      </trkpt>
      <trkpt lat="45.22939" lon="6.04891">
        <ele>2296.1999511719</ele>
        <time>2023-08-11T12:08:55.000Z</time>
      </trkpt>
      <trkpt lat="45.22938" lon="6.04894">
        <ele>2295.3999023438</ele>
        <time>2023-08-11T12:08:59.000Z</time>
      </trkpt>
      <trkpt lat="45.22936" lon="6.04898">
        <ele>2294.8000488281</ele>
        <time>2023-08-11T12:09:03.000Z</time>
      </trkpt>
      <trkpt lat="45.22935" lon="6.049">
        <ele>2294.3999023438</ele>
        <time>2023-08-11T12:09:04.000Z</time>
      </trkpt>
      <trkpt lat="45.22934" lon="6.04899">
        <ele>2294</ele>
        <time>2023-08-11T12:09:06.000Z</time>
      </trkpt>
      <trkpt lat="45.22933" lon="6.04896">
        <ele>2293.3999023438</ele>
        <time>2023-08-11T12:09:08.000Z</time>
      </trkpt>
      <trkpt lat="45.22933" lon="6.04895">
        <ele>2293.1999511719</ele>
        <time>2023-08-11T12:09:09.000Z</time>
      </trkpt>
      <trkpt lat="45.22932" lon="6.04894">
        <ele>2292</ele>
        <time>2023-08-11T12:09:14.000Z</time>
      </trkpt>
      <trkpt lat="45.22932" lon="6.04895">
        <ele>2291.8000488281</ele>
        <time>2023-08-11T12:09:16.000Z</time>
      </trkpt>
      <trkpt lat="45.22927" lon="6.04897">
        <ele>2291</ele>
        <time>2023-08-11T12:09:25.000Z</time>
      </trkpt>
      <trkpt lat="45.22925" lon="6.049">
        <ele>2290.6000976562</ele>
        <time>2023-08-11T12:09:32.000Z</time>
      </trkpt>
      <trkpt lat="45.22922" lon="6.049">
        <ele>2291</ele>
        <time>2023-08-11T12:09:38.000Z</time>
      </trkpt>
      <trkpt lat="45.22918" lon="6.04904">
        <ele>2291</ele>
        <time>2023-08-11T12:09:44.000Z</time>
      </trkpt>
      <trkpt lat="45.22918" lon="6.04908">
        <ele>2291.3999023438</ele>
        <time>2023-08-11T12:09:52.000Z</time>
      </trkpt>
      <trkpt lat="45.22918" lon="6.04906">
        <ele>2291.3999023438</ele>
        <time>2023-08-11T12:10:01.000Z</time>
      </trkpt>
      <trkpt lat="45.22916" lon="6.04902">
        <ele>2291.6000976562</ele>
        <time>2023-08-11T12:10:10.000Z</time>
      </trkpt>
      <trkpt lat="45.22916" lon="6.04905">
        <ele>2291.6000976562</ele>
        <time>2023-08-11T12:10:17.000Z</time>
      </trkpt>
      <trkpt lat="45.22917" lon="6.04907">
        <ele>2290.3999023438</ele>
        <time>2023-08-11T12:10:26.000Z</time>
      </trkpt>
      <trkpt lat="45.22917" lon="6.04906">
        <ele>2290.3999023438</ele>
        <time>2023-08-11T12:10:31.000Z</time>
      </trkpt>
      <trkpt lat="45.22917" lon="6.04901">
        <ele>2290.1999511719</ele>
        <time>2023-08-11T12:10:36.000Z</time>
      </trkpt>
      <trkpt lat="45.22917" lon="6.049">
        <ele>2290</ele>
        <time>2023-08-11T12:10:38.000Z</time>
      </trkpt>
      <trkpt lat="45.22918" lon="6.049">
        <ele>2289.8000488281</ele>
        <time>2023-08-11T12:10:43.000Z</time>
      </trkpt>
      <trkpt lat="45.22917" lon="6.04902">
        <ele>2289.6000976562</ele>
        <time>2023-08-11T12:10:51.000Z</time>
      </trkpt>
      <trkpt lat="45.22919" lon="6.04904">
        <ele>2289</ele>
        <time>2023-08-11T12:11:01.000Z</time>
      </trkpt>
      <trkpt lat="45.2292" lon="6.04903">
        <ele>2288.8000488281</ele>
        <time>2023-08-11T12:11:02.000Z</time>
      </trkpt>
      <trkpt lat="45.22922" lon="6.04898">
        <ele>2288.3999023438</ele>
        <time>2023-08-11T12:11:07.000Z</time>
      </trkpt>
      <trkpt lat="45.22924" lon="6.04894">
        <ele>2287.6000976562</ele>
        <time>2023-08-11T12:11:11.000Z</time>
      </trkpt>
      <trkpt lat="45.22926" lon="6.0489">
        <ele>2287.3999023438</ele>
        <time>2023-08-11T12:11:14.000Z</time>
      </trkpt>
      <trkpt lat="45.22927" lon="6.04884">
        <ele>2286.8000488281</ele>
        <time>2023-08-11T12:11:21.000Z</time>
      </trkpt>
      <trkpt lat="45.22927" lon="6.04883">
        <ele>2286.6000976562</ele>
        <time>2023-08-11T12:11:22.000Z</time>
      </trkpt>
      <trkpt lat="45.22924" lon="6.04877">
        <ele>2285.6000976562</ele>
        <time>2023-08-11T12:11:28.000Z</time>
      </trkpt>
      <trkpt lat="45.22924" lon="6.04876">
        <ele>2285.3999023438</ele>
        <time>2023-08-11T12:11:29.000Z</time>
      </trkpt>
      <trkpt lat="45.22923" lon="6.04869">
        <ele>2284.6000976562</ele>
        <time>2023-08-11T12:11:35.000Z</time>
      </trkpt>
      <trkpt lat="45.22924" lon="6.04867">
        <ele>2284</ele>
        <time>2023-08-11T12:11:37.000Z</time>
      </trkpt>
      <trkpt lat="45.22924" lon="6.04864">
        <ele>2283</ele>
        <time>2023-08-11T12:11:40.000Z</time>
      </trkpt>
      <trkpt lat="45.22925" lon="6.0486">
        <ele>2282</ele>
        <time>2023-08-11T12:11:45.000Z</time>
      </trkpt>
      <trkpt lat="45.22925" lon="6.04858">
        <ele>2282</ele>
        <time>2023-08-11T12:11:46.000Z</time>
      </trkpt>
      <trkpt lat="45.22922" lon="6.04852">
        <ele>2280.8000488281</ele>
        <time>2023-08-11T12:11:53.000Z</time>
      </trkpt>
      <trkpt lat="45.22918" lon="6.04842">
        <ele>2280</ele>
        <time>2023-08-11T12:12:00.000Z</time>
      </trkpt>
      <trkpt lat="45.22917" lon="6.04837">
        <ele>2279.8000488281</ele>
        <time>2023-08-11T12:12:06.000Z</time>
      </trkpt>
      <trkpt lat="45.22917" lon="6.04837">
        <ele>2279.1999511719</ele>
        <time>2023-08-11T12:12:08.000Z</time>
      </trkpt>
      <trkpt lat="45.22916" lon="6.04835">
        <ele>2278.6000976562</ele>
        <time>2023-08-11T12:12:10.000Z</time>
      </trkpt>
      <trkpt lat="45.22914" lon="6.04834">
        <ele>2278.1999511719</ele>
        <time>2023-08-11T12:12:15.000Z</time>
      </trkpt>
      <trkpt lat="45.22912" lon="6.04835">
        <ele>2277.3999023438</ele>
        <time>2023-08-11T12:12:20.000Z</time>
      </trkpt>
      <trkpt lat="45.22912" lon="6.04834">
        <ele>2276.8000488281</ele>
        <time>2023-08-11T12:12:21.000Z</time>
      </trkpt>
      <trkpt lat="45.22913" lon="6.04833">
        <ele>2276.1999511719</ele>
        <time>2023-08-11T12:12:22.000Z</time>
      </trkpt>
      <trkpt lat="45.22913" lon="6.04833">
        <ele>2275.1999511719</ele>
        <time>2023-08-11T12:12:25.000Z</time>
      </trkpt>
      <trkpt lat="45.2291" lon="6.04831">
        <ele>2274.3999023438</ele>
        <time>2023-08-11T12:12:29.000Z</time>
      </trkpt>
      <trkpt lat="45.22907" lon="6.04829">
        <ele>2274</ele>
        <time>2023-08-11T12:12:32.000Z</time>
      </trkpt>
      <trkpt lat="45.22905" lon="6.04826">
        <ele>2273</ele>
        <time>2023-08-11T12:12:36.000Z</time>
      </trkpt>
      <trkpt lat="45.22904" lon="6.04825">
        <ele>2272.6000976562</ele>
        <time>2023-08-11T12:12:37.000Z</time>
      </trkpt>
      <trkpt lat="45.22904" lon="6.04824">
        <ele>2272</ele>
        <time>2023-08-11T12:12:39.000Z</time>
      </trkpt>
      <trkpt lat="45.22903" lon="6.04821">
        <ele>2270.6000976562</ele>
        <time>2023-08-11T12:12:44.000Z</time>
      </trkpt>
      <trkpt lat="45.22901" lon="6.04819">
        <ele>2270.1999511719</ele>
        <time>2023-08-11T12:12:46.000Z</time>
      </trkpt>
      <trkpt lat="45.22898" lon="6.04814">
        <ele>2269.1999511719</ele>
        <time>2023-08-11T12:12:50.000Z</time>
      </trkpt>
      <trkpt lat="45.22895" lon="6.0481">
        <ele>2268.3999023438</ele>
        <time>2023-08-11T12:12:54.000Z</time>
      </trkpt>
      <trkpt lat="45.22895" lon="6.04809">
        <ele>2268.1999511719</ele>
        <time>2023-08-11T12:12:55.000Z</time>
      </trkpt>
      <trkpt lat="45.22892" lon="6.04804">
        <ele>2266.8000488281</ele>
        <time>2023-08-11T12:13:00.000Z</time>
      </trkpt>
      <trkpt lat="45.2289" lon="6.04799">
        <ele>2266.3999023438</ele>
        <time>2023-08-11T12:13:03.000Z</time>
      </trkpt>
      <trkpt lat="45.22889" lon="6.04794">
        <ele>2265.8000488281</ele>
        <time>2023-08-11T12:13:07.000Z</time>
      </trkpt>
      <trkpt lat="45.22887" lon="6.0479">
        <ele>2265</ele>
        <time>2023-08-11T12:13:12.000Z</time>
      </trkpt>
      <trkpt lat="45.22886" lon="6.04789">
        <ele>2264.6000976562</ele>
        <time>2023-08-11T12:13:15.000Z</time>
      </trkpt>
      <trkpt lat="45.22884" lon="6.04788">
        <ele>2264</ele>
        <time>2023-08-11T12:13:18.000Z</time>
      </trkpt>
      <trkpt lat="45.22883" lon="6.04786">
        <ele>2263.6000976562</ele>
        <time>2023-08-11T12:13:20.000Z</time>
      </trkpt>
      <trkpt lat="45.2288" lon="6.04781">
        <ele>2262.8000488281</ele>
        <time>2023-08-11T12:13:25.000Z</time>
      </trkpt>
      <trkpt lat="45.2288" lon="6.04779">
        <ele>2262.6000976562</ele>
        <time>2023-08-11T12:13:26.000Z</time>
      </trkpt>
      <trkpt lat="45.22875" lon="6.0477">
        <ele>2261.8000488281</ele>
        <time>2023-08-11T12:13:32.000Z</time>
      </trkpt>
      <trkpt lat="45.2287" lon="6.04765">
        <ele>2261.3999023438</ele>
        <time>2023-08-11T12:13:38.000Z</time>
      </trkpt>
      <trkpt lat="45.2287" lon="6.04764">
        <ele>2261.3999023438</ele>
        <time>2023-08-11T12:13:39.000Z</time>
      </trkpt>
      <trkpt lat="45.22866" lon="6.04764">
        <ele>2260.3999023438</ele>
        <time>2023-08-11T12:13:44.000Z</time>
      </trkpt>
      <trkpt lat="45.22865" lon="6.04764">
        <ele>2259.8000488281</ele>
        <time>2023-08-11T12:13:47.000Z</time>
      </trkpt>
      <trkpt lat="45.22864" lon="6.04763">
        <ele>2259.3999023438</ele>
        <time>2023-08-11T12:13:49.000Z</time>
      </trkpt>
      <trkpt lat="45.2286" lon="6.04762">
        <ele>2258.1999511719</ele>
        <time>2023-08-11T12:13:53.000Z</time>
      </trkpt>
      <trkpt lat="45.2286" lon="6.04762">
        <ele>2258</ele>
        <time>2023-08-11T12:13:54.000Z</time>
      </trkpt>
      <trkpt lat="45.22858" lon="6.04762">
        <ele>2257.1999511719</ele>
        <time>2023-08-11T12:13:57.000Z</time>
      </trkpt>
      <trkpt lat="45.22855" lon="6.0476">
        <ele>2256</ele>
        <time>2023-08-11T12:14:02.000Z</time>
      </trkpt>
      <trkpt lat="45.22855" lon="6.04759">
        <ele>2255.8000488281</ele>
        <time>2023-08-11T12:14:03.000Z</time>
      </trkpt>
      <trkpt lat="45.22851" lon="6.04758">
        <ele>2254.8000488281</ele>
        <time>2023-08-11T12:14:08.000Z</time>
      </trkpt>
      <trkpt lat="45.22849" lon="6.04759">
        <ele>2254</ele>
        <time>2023-08-11T12:14:11.000Z</time>
      </trkpt>
      <trkpt lat="45.22849" lon="6.04759">
        <ele>2253.6000976562</ele>
        <time>2023-08-11T12:14:12.000Z</time>
      </trkpt>
      <trkpt lat="45.22847" lon="6.0476">
        <ele>2252.3999023438</ele>
        <time>2023-08-11T12:14:16.000Z</time>
      </trkpt>
      <trkpt lat="45.22847" lon="6.0476">
        <ele>2251.6000976562</ele>
        <time>2023-08-11T12:14:18.000Z</time>
      </trkpt>
      <trkpt lat="45.22847" lon="6.0476">
        <ele>2251.3999023438</ele>
        <time>2023-08-11T12:14:19.000Z</time>
      </trkpt>
      <trkpt lat="45.22844" lon="6.04764">
        <ele>2250</ele>
        <time>2023-08-11T12:14:24.000Z</time>
      </trkpt>
      <trkpt lat="45.22844" lon="6.04764">
        <ele>2249.6000976562</ele>
        <time>2023-08-11T12:14:25.000Z</time>
      </trkpt>
      <trkpt lat="45.22843" lon="6.04764">
        <ele>2249</ele>
        <time>2023-08-11T12:14:27.000Z</time>
      </trkpt>
      <trkpt lat="45.22841" lon="6.04762">
        <ele>2248</ele>
        <time>2023-08-11T12:14:32.000Z</time>
      </trkpt>
      <trkpt lat="45.2284" lon="6.04762">
        <ele>2247.8000488281</ele>
        <time>2023-08-11T12:14:33.000Z</time>
      </trkpt>
      <trkpt lat="45.22837" lon="6.04761">
        <ele>2247</ele>
        <time>2023-08-11T12:14:36.000Z</time>
      </trkpt>
      <trkpt lat="45.22834" lon="6.04761">
        <ele>2245.8000488281</ele>
        <time>2023-08-11T12:14:40.000Z</time>
      </trkpt>
      <trkpt lat="45.22832" lon="6.0476">
        <ele>2244.6000976562</ele>
        <time>2023-08-11T12:14:44.000Z</time>
      </trkpt>
      <trkpt lat="45.22831" lon="6.04762">
        <ele>2243.8000488281</ele>
        <time>2023-08-11T12:14:48.000Z</time>
      </trkpt>
      <trkpt lat="45.22831" lon="6.04763">
        <ele>2243.3999023438</ele>
        <time>2023-08-11T12:14:49.000Z</time>
      </trkpt>
      <trkpt lat="45.22827" lon="6.04763">
        <ele>2242.3999023438</ele>
        <time>2023-08-11T12:14:55.000Z</time>
      </trkpt>
      <trkpt lat="45.22827" lon="6.04767">
        <ele>2241.3999023438</ele>
        <time>2023-08-11T12:15:00.000Z</time>
      </trkpt>
      <trkpt lat="45.22827" lon="6.04768">
        <ele>2240.8000488281</ele>
        <time>2023-08-11T12:15:02.000Z</time>
      </trkpt>
      <trkpt lat="45.22826" lon="6.04767">
        <ele>2240.3999023438</ele>
        <time>2023-08-11T12:15:04.000Z</time>
      </trkpt>
      <trkpt lat="45.22822" lon="6.04766">
        <ele>2239.1999511719</ele>
        <time>2023-08-11T12:15:09.000Z</time>
      </trkpt>
      <trkpt lat="45.22822" lon="6.04766">
        <ele>2238.8000488281</ele>
        <time>2023-08-11T12:15:10.000Z</time>
      </trkpt>
      <trkpt lat="45.2282" lon="6.04765">
        <ele>2238</ele>
        <time>2023-08-11T12:15:13.000Z</time>
      </trkpt>
      <trkpt lat="45.22816" lon="6.04765">
        <ele>2236.8000488281</ele>
        <time>2023-08-11T12:15:17.000Z</time>
      </trkpt>
      <trkpt lat="45.22813" lon="6.04764">
        <ele>2236</ele>
        <time>2023-08-11T12:15:19.000Z</time>
      </trkpt>
      <trkpt lat="45.22811" lon="6.04764">
        <ele>2235.6000976562</ele>
        <time>2023-08-11T12:15:21.000Z</time>
      </trkpt>
      <trkpt lat="45.22809" lon="6.04766">
        <ele>2234.3999023438</ele>
        <time>2023-08-11T12:15:26.000Z</time>
      </trkpt>
      <trkpt lat="45.22809" lon="6.04765">
        <ele>2234.1999511719</ele>
        <time>2023-08-11T12:15:27.000Z</time>
      </trkpt>
      <trkpt lat="45.22808" lon="6.04763">
        <ele>2233.3999023438</ele>
        <time>2023-08-11T12:15:32.000Z</time>
      </trkpt>
      <trkpt lat="45.22807" lon="6.04761">
        <ele>2233</ele>
        <time>2023-08-11T12:15:35.000Z</time>
      </trkpt>
      <trkpt lat="45.22806" lon="6.04763">
        <ele>2232.1999511719</ele>
        <time>2023-08-11T12:15:39.000Z</time>
      </trkpt>
      <trkpt lat="45.22805" lon="6.04765">
        <ele>2231.3999023438</ele>
        <time>2023-08-11T12:15:42.000Z</time>
      </trkpt>
      <trkpt lat="45.22805" lon="6.04765">
        <ele>2231</ele>
        <time>2023-08-11T12:15:43.000Z</time>
      </trkpt>
      <trkpt lat="45.22803" lon="6.04764">
        <ele>2230</ele>
        <time>2023-08-11T12:15:48.000Z</time>
      </trkpt>
      <trkpt lat="45.22802" lon="6.04765">
        <ele>2229.8000488281</ele>
        <time>2023-08-11T12:15:49.000Z</time>
      </trkpt>
      <trkpt lat="45.228" lon="6.04765">
        <ele>2228.8000488281</ele>
        <time>2023-08-11T12:15:52.000Z</time>
      </trkpt>
      <trkpt lat="45.22798" lon="6.04764">
        <ele>2228</ele>
        <time>2023-08-11T12:15:56.000Z</time>
      </trkpt>
      <trkpt lat="45.22798" lon="6.04764">
        <ele>2227.6000976562</ele>
        <time>2023-08-11T12:15:57.000Z</time>
      </trkpt>
      <trkpt lat="45.22796" lon="6.04762">
        <ele>2226.6000976562</ele>
        <time>2023-08-11T12:16:01.000Z</time>
      </trkpt>
      <trkpt lat="45.22795" lon="6.0476">
        <ele>2225.6000976562</ele>
        <time>2023-08-11T12:16:04.000Z</time>
      </trkpt>
      <trkpt lat="45.22795" lon="6.04759">
        <ele>2225.3999023438</ele>
        <time>2023-08-11T12:16:05.000Z</time>
      </trkpt>
      <trkpt lat="45.22795" lon="6.04758">
        <ele>2224</ele>
        <time>2023-08-11T12:16:08.000Z</time>
      </trkpt>
      <trkpt lat="45.22794" lon="6.04757">
        <ele>2223</ele>
        <time>2023-08-11T12:16:10.000Z</time>
      </trkpt>
      <trkpt lat="45.22794" lon="6.04755">
        <ele>2222.8000488281</ele>
        <time>2023-08-11T12:16:11.000Z</time>
      </trkpt>
      <trkpt lat="45.22791" lon="6.0475">
        <ele>2222</ele>
        <time>2023-08-11T12:16:18.000Z</time>
      </trkpt>
      <trkpt lat="45.22789" lon="6.04748">
        <ele>2220.8000488281</ele>
        <time>2023-08-11T12:16:23.000Z</time>
      </trkpt>
      <trkpt lat="45.22788" lon="6.04748">
        <ele>2220.1999511719</ele>
        <time>2023-08-11T12:16:25.000Z</time>
      </trkpt>
      <trkpt lat="45.22787" lon="6.04747">
        <ele>2219.6000976562</ele>
        <time>2023-08-11T12:16:27.000Z</time>
      </trkpt>
      <trkpt lat="45.22785" lon="6.04751">
        <ele>2218.3999023438</ele>
        <time>2023-08-11T12:16:32.000Z</time>
      </trkpt>
      <trkpt lat="45.22784" lon="6.04755">
        <ele>2217.1999511719</ele>
        <time>2023-08-11T12:16:37.000Z</time>
      </trkpt>
      <trkpt lat="45.22784" lon="6.04757">
        <ele>2216.1999511719</ele>
        <time>2023-08-11T12:16:42.000Z</time>
      </trkpt>
      <trkpt lat="45.22784" lon="6.04758">
        <ele>2215.3999023438</ele>
        <time>2023-08-11T12:16:51.000Z</time>
      </trkpt>
      <trkpt lat="45.22784" lon="6.04756">
        <ele>2215.3999023438</ele>
        <time>2023-08-11T12:16:59.000Z</time>
      </trkpt>
      <trkpt lat="45.22782" lon="6.04759">
        <ele>2215</ele>
        <time>2023-08-11T12:17:03.000Z</time>
      </trkpt>
      <trkpt lat="45.22778" lon="6.04765">
        <ele>2213.8000488281</ele>
        <time>2023-08-11T12:17:08.000Z</time>
      </trkpt>
      <trkpt lat="45.22777" lon="6.04767">
        <ele>2213</ele>
        <time>2023-08-11T12:17:10.000Z</time>
      </trkpt>
      <trkpt lat="45.22776" lon="6.04769">
        <ele>2212.6000976562</ele>
        <time>2023-08-11T12:17:12.000Z</time>
      </trkpt>
      <trkpt lat="45.22777" lon="6.04775">
        <ele>2211.3999023438</ele>
        <time>2023-08-11T12:17:18.000Z</time>
      </trkpt>
      <trkpt lat="45.22777" lon="6.04776">
        <ele>2211.1999511719</ele>
        <time>2023-08-11T12:17:19.000Z</time>
      </trkpt>
      <trkpt lat="45.22777" lon="6.0478">
        <ele>2210.3999023438</ele>
        <time>2023-08-11T12:17:23.000Z</time>
      </trkpt>
      <trkpt lat="45.22774" lon="6.0478">
        <ele>2209.6000976562</ele>
        <time>2023-08-11T12:17:27.000Z</time>
      </trkpt>
      <trkpt lat="45.22772" lon="6.04778">
        <ele>2209.1999511719</ele>
        <time>2023-08-11T12:17:29.000Z</time>
      </trkpt>
      <trkpt lat="45.2277" lon="6.04774">
        <ele>2208</ele>
        <time>2023-08-11T12:17:34.000Z</time>
      </trkpt>
      <trkpt lat="45.2277" lon="6.04774">
        <ele>2208</ele>
        <time>2023-08-11T12:17:35.000Z</time>
      </trkpt>
      <trkpt lat="45.2277" lon="6.04772">
        <ele>2207</ele>
        <time>2023-08-11T12:17:38.000Z</time>
      </trkpt>
      <trkpt lat="45.22768" lon="6.04769">
        <ele>2205.8000488281</ele>
        <time>2023-08-11T12:17:42.000Z</time>
      </trkpt>
      <trkpt lat="45.22768" lon="6.04768">
        <ele>2205.6000976562</ele>
        <time>2023-08-11T12:17:43.000Z</time>
      </trkpt>
      <trkpt lat="45.22766" lon="6.04765">
        <ele>2204.8000488281</ele>
        <time>2023-08-11T12:17:47.000Z</time>
      </trkpt>
      <trkpt lat="45.22766" lon="6.04763">
        <ele>2204</ele>
        <time>2023-08-11T12:17:50.000Z</time>
      </trkpt>
      <trkpt lat="45.22765" lon="6.04761">
        <ele>2203.6000976562</ele>
        <time>2023-08-11T12:17:52.000Z</time>
      </trkpt>
      <trkpt lat="45.22764" lon="6.04756">
        <ele>2202.8000488281</ele>
        <time>2023-08-11T12:17:56.000Z</time>
      </trkpt>
      <trkpt lat="45.22764" lon="6.04755">
        <ele>2202.3999023438</ele>
        <time>2023-08-11T12:17:57.000Z</time>
      </trkpt>
      <trkpt lat="45.22763" lon="6.0475">
        <ele>2201.3999023438</ele>
        <time>2023-08-11T12:18:02.000Z</time>
      </trkpt>
      <trkpt lat="45.22762" lon="6.04749">
        <ele>2200.8000488281</ele>
        <time>2023-08-11T12:18:04.000Z</time>
      </trkpt>
      <trkpt lat="45.22761" lon="6.04748">
        <ele>2200</ele>
        <time>2023-08-11T12:18:07.000Z</time>
      </trkpt>
      <trkpt lat="45.22757" lon="6.04742">
        <ele>2199</ele>
        <time>2023-08-11T12:18:14.000Z</time>
      </trkpt>
      <trkpt lat="45.22756" lon="6.04739">
        <ele>2198</ele>
        <time>2023-08-11T12:18:18.000Z</time>
      </trkpt>
      <trkpt lat="45.22755" lon="6.04737">
        <ele>2196.8000488281</ele>
        <time>2023-08-11T12:18:22.000Z</time>
      </trkpt>
      <trkpt lat="45.22755" lon="6.04736">
        <ele>2196.6000976562</ele>
        <time>2023-08-11T12:18:23.000Z</time>
      </trkpt>
      <trkpt lat="45.22753" lon="6.04734">
        <ele>2195.8000488281</ele>
        <time>2023-08-11T12:18:26.000Z</time>
      </trkpt>
      <trkpt lat="45.22751" lon="6.04733">
        <ele>2195.1999511719</ele>
        <time>2023-08-11T12:18:29.000Z</time>
      </trkpt>
      <trkpt lat="45.22749" lon="6.04734">
        <ele>2194.8000488281</ele>
        <time>2023-08-11T12:18:31.000Z</time>
      </trkpt>
      <trkpt lat="45.22745" lon="6.04731">
        <ele>2193.3999023438</ele>
        <time>2023-08-11T12:18:36.000Z</time>
      </trkpt>
      <trkpt lat="45.22744" lon="6.04731">
        <ele>2193</ele>
        <time>2023-08-11T12:18:37.000Z</time>
      </trkpt>
      <trkpt lat="45.22743" lon="6.0473">
        <ele>2192.1999511719</ele>
        <time>2023-08-11T12:18:40.000Z</time>
      </trkpt>
      <trkpt lat="45.2274" lon="6.04728">
        <ele>2191.1999511719</ele>
        <time>2023-08-11T12:18:43.000Z</time>
      </trkpt>
      <trkpt lat="45.22739" lon="6.04727">
        <ele>2190.8000488281</ele>
        <time>2023-08-11T12:18:45.000Z</time>
      </trkpt>
      <trkpt lat="45.22736" lon="6.04726">
        <ele>2190.1999511719</ele>
        <time>2023-08-11T12:18:48.000Z</time>
      </trkpt>
      <trkpt lat="45.22734" lon="6.04726">
        <ele>2189.3999023438</ele>
        <time>2023-08-11T12:18:51.000Z</time>
      </trkpt>
      <trkpt lat="45.22733" lon="6.04726">
        <ele>2189</ele>
        <time>2023-08-11T12:18:52.000Z</time>
      </trkpt>
      <trkpt lat="45.2273" lon="6.04725">
        <ele>2187.6000976562</ele>
        <time>2023-08-11T12:18:56.000Z</time>
      </trkpt>
      <trkpt lat="45.22727" lon="6.04724">
        <ele>2187.1999511719</ele>
        <time>2023-08-11T12:18:58.000Z</time>
      </trkpt>
      <trkpt lat="45.22726" lon="6.04723">
        <ele>2186.3999023438</ele>
        <time>2023-08-11T12:19:00.000Z</time>
      </trkpt>
      <trkpt lat="45.22724" lon="6.04721">
        <ele>2185.1999511719</ele>
        <time>2023-08-11T12:19:04.000Z</time>
      </trkpt>
      <trkpt lat="45.22723" lon="6.0472">
        <ele>2184.8000488281</ele>
        <time>2023-08-11T12:19:05.000Z</time>
      </trkpt>
      <trkpt lat="45.22721" lon="6.04719">
        <ele>2183.8000488281</ele>
        <time>2023-08-11T12:19:07.000Z</time>
      </trkpt>
      <trkpt lat="45.22719" lon="6.04718">
        <ele>2182.6000976562</ele>
        <time>2023-08-11T12:19:10.000Z</time>
      </trkpt>
      <trkpt lat="45.22717" lon="6.04717">
        <ele>2181.6000976562</ele>
        <time>2023-08-11T12:19:14.000Z</time>
      </trkpt>
      <trkpt lat="45.22714" lon="6.04714">
        <ele>2180.6000976562</ele>
        <time>2023-08-11T12:19:17.000Z</time>
      </trkpt>
      <trkpt lat="45.22713" lon="6.04712">
        <ele>2179.1999511719</ele>
        <time>2023-08-11T12:19:21.000Z</time>
      </trkpt>
      <trkpt lat="45.22712" lon="6.04708">
        <ele>2178</ele>
        <time>2023-08-11T12:19:25.000Z</time>
      </trkpt>
      <trkpt lat="45.2271" lon="6.04704">
        <ele>2177</ele>
        <time>2023-08-11T12:19:30.000Z</time>
      </trkpt>
      <trkpt lat="45.22709" lon="6.04703">
        <ele>2176.8000488281</ele>
        <time>2023-08-11T12:19:31.000Z</time>
      </trkpt>
      <trkpt lat="45.22707" lon="6.04697">
        <ele>2175.8000488281</ele>
        <time>2023-08-11T12:19:37.000Z</time>
      </trkpt>
      <trkpt lat="45.22707" lon="6.04696">
        <ele>2175.1999511719</ele>
        <time>2023-08-11T12:19:39.000Z</time>
      </trkpt>
      <trkpt lat="45.22706" lon="6.04693">
        <ele>2174.6000976562</ele>
        <time>2023-08-11T12:19:42.000Z</time>
      </trkpt>
      <trkpt lat="45.22705" lon="6.04688">
        <ele>2173.3999023438</ele>
        <time>2023-08-11T12:19:47.000Z</time>
      </trkpt>
      <trkpt lat="45.22704" lon="6.04688">
        <ele>2173.1999511719</ele>
        <time>2023-08-11T12:19:48.000Z</time>
      </trkpt>
      <trkpt lat="45.22702" lon="6.04686">
        <ele>2172.3999023438</ele>
        <time>2023-08-11T12:19:51.000Z</time>
      </trkpt>
      <trkpt lat="45.22698" lon="6.04682">
        <ele>2171.8000488281</ele>
        <time>2023-08-11T12:19:56.000Z</time>
      </trkpt>
      <trkpt lat="45.22697" lon="6.04681">
        <ele>2171.3999023438</ele>
        <time>2023-08-11T12:19:58.000Z</time>
      </trkpt>
      <trkpt lat="45.22695" lon="6.04676">
        <ele>2170</ele>
        <time>2023-08-11T12:20:03.000Z</time>
      </trkpt>
      <trkpt lat="45.22693" lon="6.04675">
        <ele>2169</ele>
        <time>2023-08-11T12:20:07.000Z</time>
      </trkpt>
      <trkpt lat="45.22691" lon="6.04671">
        <ele>2168.3999023438</ele>
        <time>2023-08-11T12:20:10.000Z</time>
      </trkpt>
      <trkpt lat="45.22688" lon="6.04667">
        <ele>2167.6000976562</ele>
        <time>2023-08-11T12:20:13.000Z</time>
      </trkpt>
      <trkpt lat="45.22688" lon="6.04658">
        <ele>2166.8000488281</ele>
        <time>2023-08-11T12:20:18.000Z</time>
      </trkpt>
      <trkpt lat="45.22687" lon="6.04652">
        <ele>2166.6000976562</ele>
        <time>2023-08-11T12:20:22.000Z</time>
      </trkpt>
      <trkpt lat="45.22687" lon="6.04651">
        <ele>2166.1999511719</ele>
        <time>2023-08-11T12:20:24.000Z</time>
      </trkpt>
      <trkpt lat="45.22687" lon="6.0465">
        <ele>2165.6000976562</ele>
        <time>2023-08-11T12:20:27.000Z</time>
      </trkpt>
      <trkpt lat="45.22686" lon="6.04648">
        <ele>2164.8000488281</ele>
        <time>2023-08-11T12:20:31.000Z</time>
      </trkpt>
      <trkpt lat="45.22686" lon="6.04648">
        <ele>2164.6000976562</ele>
        <time>2023-08-11T12:20:32.000Z</time>
      </trkpt>
      <trkpt lat="45.22688" lon="6.04645">
        <ele>2163.6000976562</ele>
        <time>2023-08-11T12:20:38.000Z</time>
      </trkpt>
      <trkpt lat="45.22689" lon="6.04644">
        <ele>2163</ele>
        <time>2023-08-11T12:20:40.000Z</time>
      </trkpt>
      <trkpt lat="45.2269" lon="6.04642">
        <ele>2162.1999511719</ele>
        <time>2023-08-11T12:20:42.000Z</time>
      </trkpt>
      <trkpt lat="45.22694" lon="6.04637">
        <ele>2161.3999023438</ele>
        <time>2023-08-11T12:20:47.000Z</time>
      </trkpt>
      <trkpt lat="45.22694" lon="6.04636">
        <ele>2161.1999511719</ele>
        <time>2023-08-11T12:20:49.000Z</time>
      </trkpt>
      <trkpt lat="45.22693" lon="6.04634">
        <ele>2159.8000488281</ele>
        <time>2023-08-11T12:20:53.000Z</time>
      </trkpt>
      <trkpt lat="45.22694" lon="6.04631">
        <ele>2159.3999023438</ele>
        <time>2023-08-11T12:20:55.000Z</time>
      </trkpt>
      <trkpt lat="45.22694" lon="6.04628">
        <ele>2158.8000488281</ele>
        <time>2023-08-11T12:20:57.000Z</time>
      </trkpt>
      <trkpt lat="45.22693" lon="6.04619">
        <ele>2157.8000488281</ele>
        <time>2023-08-11T12:21:03.000Z</time>
      </trkpt>
      <trkpt lat="45.22694" lon="6.04618">
        <ele>2157.8000488281</ele>
        <time>2023-08-11T12:21:04.000Z</time>
      </trkpt>
      <trkpt lat="45.22699" lon="6.04608">
        <ele>2156.8000488281</ele>
        <time>2023-08-11T12:21:11.000Z</time>
      </trkpt>
      <trkpt lat="45.22705" lon="6.04606">
        <ele>2155.6000976562</ele>
        <time>2023-08-11T12:21:18.000Z</time>
      </trkpt>
      <trkpt lat="45.22708" lon="6.04607">
        <ele>2155.1999511719</ele>
        <time>2023-08-11T12:21:20.000Z</time>
      </trkpt>
      <trkpt lat="45.22713" lon="6.04606">
        <ele>2154.3999023438</ele>
        <time>2023-08-11T12:21:24.000Z</time>
      </trkpt>
      <trkpt lat="45.22716" lon="6.04601">
        <ele>2153.8000488281</ele>
        <time>2023-08-11T12:21:28.000Z</time>
      </trkpt>
      <trkpt lat="45.2272" lon="6.04594">
        <ele>2153.3999023438</ele>
        <time>2023-08-11T12:21:33.000Z</time>
      </trkpt>
      <trkpt lat="45.22722" lon="6.0459">
        <ele>2153</ele>
        <time>2023-08-11T12:21:36.000Z</time>
      </trkpt>
      <trkpt lat="45.22728" lon="6.04582">
        <ele>2152.1999511719</ele>
        <time>2023-08-11T12:21:42.000Z</time>
      </trkpt>
      <trkpt lat="45.2273" lon="6.04578">
        <ele>2151.8000488281</ele>
        <time>2023-08-11T12:21:46.000Z</time>
      </trkpt>
      <trkpt lat="45.22734" lon="6.0457">
        <ele>2151.3999023438</ele>
        <time>2023-08-11T12:21:53.000Z</time>
      </trkpt>
      <trkpt lat="45.22734" lon="6.04567">
        <ele>2151.1999511719</ele>
        <time>2023-08-11T12:21:55.000Z</time>
      </trkpt>
      <trkpt lat="45.22737" lon="6.04562">
        <ele>2150.8000488281</ele>
        <time>2023-08-11T12:22:01.000Z</time>
      </trkpt>
      <trkpt lat="45.22739" lon="6.04558">
        <ele>2150</ele>
        <time>2023-08-11T12:22:04.000Z</time>
      </trkpt>
      <trkpt lat="45.22742" lon="6.04553">
        <ele>2149.3999023438</ele>
        <time>2023-08-11T12:22:08.000Z</time>
      </trkpt>
      <trkpt lat="45.22743" lon="6.0455">
        <ele>2149</ele>
        <time>2023-08-11T12:22:10.000Z</time>
      </trkpt>
      <trkpt lat="45.22745" lon="6.04544">
        <ele>2148.6000976562</ele>
        <time>2023-08-11T12:22:15.000Z</time>
      </trkpt>
      <trkpt lat="45.22748" lon="6.04542">
        <ele>2147.8000488281</ele>
        <time>2023-08-11T12:22:22.000Z</time>
      </trkpt>
      <trkpt lat="45.22751" lon="6.0454">
        <ele>2147.6000976562</ele>
        <time>2023-08-11T12:22:28.000Z</time>
      </trkpt>
      <trkpt lat="45.22755" lon="6.04539">
        <ele>2146.8000488281</ele>
        <time>2023-08-11T12:22:33.000Z</time>
      </trkpt>
      <trkpt lat="45.22757" lon="6.04538">
        <ele>2146.8000488281</ele>
        <time>2023-08-11T12:22:36.000Z</time>
      </trkpt>
      <trkpt lat="45.2276" lon="6.04539">
        <ele>2146.8000488281</ele>
        <time>2023-08-11T12:22:42.000Z</time>
      </trkpt>
      <trkpt lat="45.22761" lon="6.04539">
        <ele>2146.8000488281</ele>
        <time>2023-08-11T12:22:49.000Z</time>
      </trkpt>
      <trkpt lat="45.2276" lon="6.0454">
        <ele>2146.8000488281</ele>
        <time>2023-08-11T12:22:57.000Z</time>
      </trkpt>
      <trkpt lat="45.2276" lon="6.04539">
        <ele>2146.6000976562</ele>
        <time>2023-08-11T12:23:05.000Z</time>
      </trkpt>
      <trkpt lat="45.22758" lon="6.04541">
        <ele>2146</ele>
        <time>2023-08-11T12:23:16.000Z</time>
      </trkpt>
      <trkpt lat="45.2276" lon="6.04537">
        <ele>2146</ele>
        <time>2023-08-11T12:23:24.000Z</time>
      </trkpt>
      <trkpt lat="45.2276" lon="6.04536">
        <ele>2146.1999511719</ele>
        <time>2023-08-11T12:23:32.000Z</time>
      </trkpt>
      <trkpt lat="45.22761" lon="6.04537">
        <ele>2146</ele>
        <time>2023-08-11T12:23:40.000Z</time>
      </trkpt>
      <trkpt lat="45.22762" lon="6.04539">
        <ele>2146</ele>
        <time>2023-08-11T12:23:48.000Z</time>
      </trkpt>
      <trkpt lat="45.22761" lon="6.04536">
        <ele>2146</ele>
        <time>2023-08-11T12:23:55.000Z</time>
      </trkpt>
      <trkpt lat="45.2276" lon="6.04535">
        <ele>2146.1999511719</ele>
        <time>2023-08-11T12:24:05.000Z</time>
      </trkpt>
      <trkpt lat="45.22762" lon="6.04537">
        <ele>2146.1999511719</ele>
        <time>2023-08-11T12:24:13.000Z</time>
      </trkpt>
      <trkpt lat="45.22761" lon="6.04537">
        <ele>2146</ele>
        <time>2023-08-11T12:24:20.000Z</time>
      </trkpt>
      <trkpt lat="45.22759" lon="6.04535">
        <ele>2146</ele>
        <time>2023-08-11T12:24:28.000Z</time>
      </trkpt>
      <trkpt lat="45.22759" lon="6.04534">
        <ele>2146</ele>
        <time>2023-08-11T12:24:36.000Z</time>
      </trkpt>
      <trkpt lat="45.22759" lon="6.04531">
        <ele>2145.6000976562</ele>
        <time>2023-08-11T12:24:40.000Z</time>
      </trkpt>
      <trkpt lat="45.22759" lon="6.04529">
        <ele>2145.3999023438</ele>
        <time>2023-08-11T12:24:42.000Z</time>
      </trkpt>
      <trkpt lat="45.22761" lon="6.04526">
        <ele>2145</ele>
        <time>2023-08-11T12:24:47.000Z</time>
      </trkpt>
      <trkpt lat="45.22761" lon="6.04524">
        <ele>2144.6000976562</ele>
        <time>2023-08-11T12:24:50.000Z</time>
      </trkpt>
      <trkpt lat="45.22762" lon="6.04517">
        <ele>2143.8000488281</ele>
        <time>2023-08-11T12:24:54.000Z</time>
      </trkpt>
      <trkpt lat="45.22762" lon="6.04515">
        <ele>2143.3999023438</ele>
        <time>2023-08-11T12:24:56.000Z</time>
      </trkpt>
      <trkpt lat="45.22762" lon="6.0451">
        <ele>2142.6000976562</ele>
        <time>2023-08-11T12:25:00.000Z</time>
      </trkpt>
      <trkpt lat="45.22762" lon="6.04508">
        <ele>2142.3999023438</ele>
        <time>2023-08-11T12:25:04.000Z</time>
      </trkpt>
      <trkpt lat="45.22763" lon="6.04508">
        <ele>2141.8000488281</ele>
        <time>2023-08-11T12:25:07.000Z</time>
      </trkpt>
      <trkpt lat="45.22766" lon="6.04506">
        <ele>2141.1999511719</ele>
        <time>2023-08-11T12:25:12.000Z</time>
      </trkpt>
      <trkpt lat="45.22766" lon="6.04504">
        <ele>2140.8000488281</ele>
        <time>2023-08-11T12:25:15.000Z</time>
      </trkpt>
      <trkpt lat="45.22767" lon="6.04503">
        <ele>2140</ele>
        <time>2023-08-11T12:25:20.000Z</time>
      </trkpt>
      <trkpt lat="45.22768" lon="6.045">
        <ele>2139.1999511719</ele>
        <time>2023-08-11T12:25:25.000Z</time>
      </trkpt>
      <trkpt lat="45.22769" lon="6.045">
        <ele>2138.8000488281</ele>
        <time>2023-08-11T12:25:26.000Z</time>
      </trkpt>
      <trkpt lat="45.22768" lon="6.04498">
        <ele>2138</ele>
        <time>2023-08-11T12:25:31.000Z</time>
      </trkpt>
      <trkpt lat="45.22768" lon="6.04498">
        <ele>2137.8000488281</ele>
        <time>2023-08-11T12:25:32.000Z</time>
      </trkpt>
      <trkpt lat="45.22766" lon="6.04493">
        <ele>2137</ele>
        <time>2023-08-11T12:25:40.000Z</time>
      </trkpt>
      <trkpt lat="45.22767" lon="6.04492">
        <ele>2136.8000488281</ele>
        <time>2023-08-11T12:25:41.000Z</time>
      </trkpt>
      <trkpt lat="45.22768" lon="6.04487">
        <ele>2135.8000488281</ele>
        <time>2023-08-11T12:25:47.000Z</time>
      </trkpt>
      <trkpt lat="45.22769" lon="6.04487">
        <ele>2135.8000488281</ele>
        <time>2023-08-11T12:25:48.000Z</time>
      </trkpt>
      <trkpt lat="45.22771" lon="6.04484">
        <ele>2134.8000488281</ele>
        <time>2023-08-11T12:25:53.000Z</time>
      </trkpt>
      <trkpt lat="45.22771" lon="6.04482">
        <ele>2134.3999023438</ele>
        <time>2023-08-11T12:25:55.000Z</time>
      </trkpt>
      <trkpt lat="45.22772" lon="6.04482">
        <ele>2133.6000976562</ele>
        <time>2023-08-11T12:26:00.000Z</time>
      </trkpt>
      <trkpt lat="45.22772" lon="6.04483">
        <ele>2133.6000976562</ele>
        <time>2023-08-11T12:26:03.000Z</time>
      </trkpt>
      <trkpt lat="45.22771" lon="6.04481">
        <ele>2132.6000976562</ele>
        <time>2023-08-11T12:26:08.000Z</time>
      </trkpt>
      <trkpt lat="45.22771" lon="6.0448">
        <ele>2132.3999023438</ele>
        <time>2023-08-11T12:26:09.000Z</time>
      </trkpt>
      <trkpt lat="45.22772" lon="6.04472">
        <ele>2131.6000976562</ele>
        <time>2023-08-11T12:26:15.000Z</time>
      </trkpt>
      <trkpt lat="45.22772" lon="6.04471">
        <ele>2131.3999023438</ele>
        <time>2023-08-11T12:26:16.000Z</time>
      </trkpt>
      <trkpt lat="45.22774" lon="6.04466">
        <ele>2131</ele>
        <time>2023-08-11T12:26:23.000Z</time>
      </trkpt>
      <trkpt lat="45.22776" lon="6.04465">
        <ele>2130.3999023438</ele>
        <time>2023-08-11T12:26:26.000Z</time>
      </trkpt>
      <trkpt lat="45.22777" lon="6.04462">
        <ele>2130</ele>
        <time>2023-08-11T12:26:29.000Z</time>
      </trkpt>
      <trkpt lat="45.22781" lon="6.04456">
        <ele>2129.6000976562</ele>
        <time>2023-08-11T12:26:35.000Z</time>
      </trkpt>
      <trkpt lat="45.22783" lon="6.0445">
        <ele>2129.3999023438</ele>
        <time>2023-08-11T12:26:41.000Z</time>
      </trkpt>
      <trkpt lat="45.22783" lon="6.04449">
        <ele>2129.3999023438</ele>
        <time>2023-08-11T12:26:42.000Z</time>
      </trkpt>
      <trkpt lat="45.22783" lon="6.04449">
        <ele>2129.1999511719</ele>
        <time>2023-08-11T12:26:47.000Z</time>
      </trkpt>
      <trkpt lat="45.22783" lon="6.04446">
        <ele>2129.3999023438</ele>
        <time>2023-08-11T12:26:54.000Z</time>
      </trkpt>
      <trkpt lat="45.22784" lon="6.04443">
        <ele>2130.1999511719</ele>
        <time>2023-08-11T12:27:01.000Z</time>
      </trkpt>
      <trkpt lat="45.22783" lon="6.0444">
        <ele>2129.8000488281</ele>
        <time>2023-08-11T12:27:08.000Z</time>
      </trkpt>
      <trkpt lat="45.22783" lon="6.04436">
        <ele>2129</ele>
        <time>2023-08-11T12:27:15.000Z</time>
      </trkpt>
      <trkpt lat="45.2278" lon="6.04436">
        <ele>2128.1999511719</ele>
        <time>2023-08-11T12:27:20.000Z</time>
      </trkpt>
      <trkpt lat="45.22778" lon="6.04436">
        <ele>2127.6000976562</ele>
        <time>2023-08-11T12:27:23.000Z</time>
      </trkpt>
      <trkpt lat="45.22778" lon="6.04435">
        <ele>2127.1999511719</ele>
        <time>2023-08-11T12:27:26.000Z</time>
      </trkpt>
      <trkpt lat="45.22782" lon="6.04433">
        <ele>2126.3999023438</ele>
        <time>2023-08-11T12:27:31.000Z</time>
      </trkpt>
      <trkpt lat="45.22782" lon="6.04432">
        <ele>2126.1999511719</ele>
        <time>2023-08-11T12:27:33.000Z</time>
      </trkpt>
      <trkpt lat="45.2278" lon="6.04431">
        <ele>2125.6000976562</ele>
        <time>2023-08-11T12:27:38.000Z</time>
      </trkpt>
      <trkpt lat="45.2278" lon="6.04429">
        <ele>2125.1999511719</ele>
        <time>2023-08-11T12:27:42.000Z</time>
      </trkpt>
      <trkpt lat="45.22779" lon="6.04428">
        <ele>2124.6000976562</ele>
        <time>2023-08-11T12:27:45.000Z</time>
      </trkpt>
      <trkpt lat="45.2278" lon="6.04425">
        <ele>2124.1999511719</ele>
        <time>2023-08-11T12:27:49.000Z</time>
      </trkpt>
      <trkpt lat="45.2278" lon="6.04424">
        <ele>2123.6000976562</ele>
        <time>2023-08-11T12:27:53.000Z</time>
      </trkpt>
      <trkpt lat="45.22782" lon="6.04424">
        <ele>2123.1999511719</ele>
        <time>2023-08-11T12:27:59.000Z</time>
      </trkpt>
      <trkpt lat="45.22783" lon="6.04423">
        <ele>2123</ele>
        <time>2023-08-11T12:28:02.000Z</time>
      </trkpt>
      <trkpt lat="45.22784" lon="6.0442">
        <ele>2122.6000976562</ele>
        <time>2023-08-11T12:28:06.000Z</time>
      </trkpt>
      <trkpt lat="45.22785" lon="6.04416">
        <ele>2122</ele>
        <time>2023-08-11T12:28:15.000Z</time>
      </trkpt>
      <trkpt lat="45.22786" lon="6.04415">
        <ele>2122</ele>
        <time>2023-08-11T12:28:17.000Z</time>
      </trkpt>
      <trkpt lat="45.22788" lon="6.04411">
        <ele>2121.6000976562</ele>
        <time>2023-08-11T12:28:22.000Z</time>
      </trkpt>
      <trkpt lat="45.2279" lon="6.04408">
        <ele>2121</ele>
        <time>2023-08-11T12:28:28.000Z</time>
      </trkpt>
      <trkpt lat="45.2279" lon="6.04407">
        <ele>2120.8000488281</ele>
        <time>2023-08-11T12:28:29.000Z</time>
      </trkpt>
      <trkpt lat="45.2279" lon="6.04403">
        <ele>2120.1999511719</ele>
        <time>2023-08-11T12:28:34.000Z</time>
      </trkpt>
      <trkpt lat="45.22791" lon="6.04397">
        <ele>2119.6000976562</ele>
        <time>2023-08-11T12:28:39.000Z</time>
      </trkpt>
      <trkpt lat="45.22792" lon="6.04393">
        <ele>2119.3999023438</ele>
        <time>2023-08-11T12:28:42.000Z</time>
      </trkpt>
      <trkpt lat="45.22794" lon="6.04386">
        <ele>2119.1999511719</ele>
        <time>2023-08-11T12:28:48.000Z</time>
      </trkpt>
      <trkpt lat="45.22796" lon="6.04378">
        <ele>2118.6000976562</ele>
        <time>2023-08-11T12:28:55.000Z</time>
      </trkpt>
      <trkpt lat="45.22796" lon="6.04376">
        <ele>2118.1999511719</ele>
        <time>2023-08-11T12:28:57.000Z</time>
      </trkpt>
      <trkpt lat="45.22795" lon="6.04373">
        <ele>2118.3999023438</ele>
        <time>2023-08-11T12:29:03.000Z</time>
      </trkpt>
      <trkpt lat="45.22791" lon="6.04366">
        <ele>2118.6000976562</ele>
        <time>2023-08-11T12:29:10.000Z</time>
      </trkpt>
      <trkpt lat="45.22788" lon="6.04353">
        <ele>2119.3999023438</ele>
        <time>2023-08-11T12:29:17.000Z</time>
      </trkpt>
      <trkpt lat="45.22787" lon="6.04352">
        <ele>2119.6000976562</ele>
        <time>2023-08-11T12:29:18.000Z</time>
      </trkpt>
      <trkpt lat="45.22786" lon="6.04342">
        <ele>2120.6000976562</ele>
        <time>2023-08-11T12:29:26.000Z</time>
      </trkpt>
      <trkpt lat="45.22786" lon="6.04341">
        <ele>2120.8000488281</ele>
        <time>2023-08-11T12:29:27.000Z</time>
      </trkpt>
      <trkpt lat="45.22788" lon="6.0433">
        <ele>2119.8000488281</ele>
        <time>2023-08-11T12:29:36.000Z</time>
      </trkpt>
      <trkpt lat="45.22788" lon="6.04326">
        <ele>2119.6000976562</ele>
        <time>2023-08-11T12:29:39.000Z</time>
      </trkpt>
      <trkpt lat="45.22787" lon="6.04318">
        <ele>2119.3999023438</ele>
        <time>2023-08-11T12:29:43.000Z</time>
      </trkpt>
      <trkpt lat="45.22784" lon="6.04305">
        <ele>2118.6000976562</ele>
        <time>2023-08-11T12:29:50.000Z</time>
      </trkpt>
      <trkpt lat="45.22782" lon="6.04295">
        <ele>2118.3999023438</ele>
        <time>2023-08-11T12:29:57.000Z</time>
      </trkpt>
      <trkpt lat="45.22783" lon="6.04292">
        <ele>2118.3999023438</ele>
        <time>2023-08-11T12:30:00.000Z</time>
      </trkpt>
      <trkpt lat="45.22783" lon="6.04291">
        <ele>2118.3999023438</ele>
        <time>2023-08-11T12:30:02.000Z</time>
      </trkpt>
      <trkpt lat="45.22782" lon="6.04289">
        <ele>2118.3999023438</ele>
        <time>2023-08-11T12:30:03.000Z</time>
      </trkpt>
      <trkpt lat="45.2278" lon="6.04285">
        <ele>2118.1999511719</ele>
        <time>2023-08-11T12:30:07.000Z</time>
      </trkpt>
      <trkpt lat="45.22773" lon="6.04273">
        <ele>2118.6000976562</ele>
        <time>2023-08-11T12:30:15.000Z</time>
      </trkpt>
      <trkpt lat="45.22768" lon="6.04262">
        <ele>2119</ele>
        <time>2023-08-11T12:30:24.000Z</time>
      </trkpt>
      <trkpt lat="45.22768" lon="6.04243">
        <ele>2119</ele>
        <time>2023-08-11T12:30:34.000Z</time>
      </trkpt>
      <trkpt lat="45.2277" lon="6.04236">
        <ele>2117.3999023438</ele>
        <time>2023-08-11T12:30:42.000Z</time>
      </trkpt>
      <trkpt lat="45.22774" lon="6.04227">
        <ele>2116.6000976562</ele>
        <time>2023-08-11T12:30:48.000Z</time>
      </trkpt>
      <trkpt lat="45.22775" lon="6.04226">
        <ele>2116.3999023438</ele>
        <time>2023-08-11T12:30:50.000Z</time>
      </trkpt>
      <trkpt lat="45.2278" lon="6.04224">
        <ele>2115.8000488281</ele>
        <time>2023-08-11T12:30:55.000Z</time>
      </trkpt>
      <trkpt lat="45.22784" lon="6.04226">
        <ele>2115.1999511719</ele>
        <time>2023-08-11T12:31:00.000Z</time>
      </trkpt>
      <trkpt lat="45.22785" lon="6.04227">
        <ele>2115</ele>
        <time>2023-08-11T12:31:01.000Z</time>
      </trkpt>
      <trkpt lat="45.22786" lon="6.04228">
        <ele>2114.6000976562</ele>
        <time>2023-08-11T12:31:10.000Z</time>
      </trkpt>
      <trkpt lat="45.22786" lon="6.0423">
        <ele>2114.3999023438</ele>
        <time>2023-08-11T12:31:18.000Z</time>
      </trkpt>
      <trkpt lat="45.22787" lon="6.04227">
        <ele>2114.3999023438</ele>
        <time>2023-08-11T12:31:27.000Z</time>
      </trkpt>
      <trkpt lat="45.2279" lon="6.04226">
        <ele>2114</ele>
        <time>2023-08-11T12:31:33.000Z</time>
      </trkpt>
      <trkpt lat="45.22791" lon="6.04227">
        <ele>2114</ele>
        <time>2023-08-11T12:31:34.000Z</time>
      </trkpt>
      <trkpt lat="45.22795" lon="6.04228">
        <ele>2112.8000488281</ele>
        <time>2023-08-11T12:31:40.000Z</time>
      </trkpt>
      <trkpt lat="45.22795" lon="6.04227">
        <ele>2112.6000976562</ele>
        <time>2023-08-11T12:31:42.000Z</time>
      </trkpt>
      <trkpt lat="45.22798" lon="6.04223">
        <ele>2111.8000488281</ele>
        <time>2023-08-11T12:31:46.000Z</time>
      </trkpt>
      <trkpt lat="45.22798" lon="6.04222">
        <ele>2111.6000976562</ele>
        <time>2023-08-11T12:31:47.000Z</time>
      </trkpt>
      <trkpt lat="45.22799" lon="6.04216">
        <ele>2110.6000976562</ele>
        <time>2023-08-11T12:31:52.000Z</time>
      </trkpt>
      <trkpt lat="45.22799" lon="6.04214">
        <ele>2110.1999511719</ele>
        <time>2023-08-11T12:31:53.000Z</time>
      </trkpt>
      <trkpt lat="45.22799" lon="6.0421">
        <ele>2109.3999023438</ele>
        <time>2023-08-11T12:31:56.000Z</time>
      </trkpt>
      <trkpt lat="45.22801" lon="6.04206">
        <ele>2108</ele>
        <time>2023-08-11T12:32:00.000Z</time>
      </trkpt>
      <trkpt lat="45.22801" lon="6.04205">
        <ele>2107.8000488281</ele>
        <time>2023-08-11T12:32:01.000Z</time>
      </trkpt>
      <trkpt lat="45.22804" lon="6.04197">
        <ele>2106.8000488281</ele>
        <time>2023-08-11T12:32:05.000Z</time>
      </trkpt>
      <trkpt lat="45.22804" lon="6.04195">
        <ele>2106.6000976562</ele>
        <time>2023-08-11T12:32:07.000Z</time>
      </trkpt>
      <trkpt lat="45.22805" lon="6.04186">
        <ele>2105.8000488281</ele>
        <time>2023-08-11T12:32:14.000Z</time>
      </trkpt>
      <trkpt lat="45.22805" lon="6.04183">
        <ele>2104.6000976562</ele>
        <time>2023-08-11T12:32:20.000Z</time>
      </trkpt>
      <trkpt lat="45.22805" lon="6.04182">
        <ele>2104.6000976562</ele>
        <time>2023-08-11T12:32:21.000Z</time>
      </trkpt>
      <trkpt lat="45.22804" lon="6.0418">
        <ele>2104.6000976562</ele>
        <time>2023-08-11T12:32:27.000Z</time>
      </trkpt>
      <trkpt lat="45.22805" lon="6.04173">
        <ele>2104.3999023438</ele>
        <time>2023-08-11T12:32:33.000Z</time>
      </trkpt>
      <trkpt lat="45.22807" lon="6.0417">
        <ele>2103.6000976562</ele>
        <time>2023-08-11T12:32:37.000Z</time>
      </trkpt>
      <trkpt lat="45.2281" lon="6.04165">
        <ele>2102.8000488281</ele>
        <time>2023-08-11T12:32:41.000Z</time>
      </trkpt>
      <trkpt lat="45.22812" lon="6.04163">
        <ele>2102.3999023438</ele>
        <time>2023-08-11T12:32:43.000Z</time>
      </trkpt>
      <trkpt lat="45.22817" lon="6.04159">
        <ele>2101.3999023438</ele>
        <time>2023-08-11T12:32:48.000Z</time>
      </trkpt>
      <trkpt lat="45.22818" lon="6.04159">
        <ele>2101.1999511719</ele>
        <time>2023-08-11T12:32:49.000Z</time>
      </trkpt>
      <trkpt lat="45.22823" lon="6.04157">
        <ele>2100.3999023438</ele>
        <time>2023-08-11T12:32:56.000Z</time>
      </trkpt>
      <trkpt lat="45.22823" lon="6.04156">
        <ele>2100.1999511719</ele>
        <time>2023-08-11T12:32:57.000Z</time>
      </trkpt>
      <trkpt lat="45.22825" lon="6.04154">
        <ele>2099.3999023438</ele>
        <time>2023-08-11T12:33:00.000Z</time>
      </trkpt>
      <trkpt lat="45.22827" lon="6.04151">
        <ele>2098.1999511719</ele>
        <time>2023-08-11T12:33:04.000Z</time>
      </trkpt>
      <trkpt lat="45.22827" lon="6.0415">
        <ele>2098</ele>
        <time>2023-08-11T12:33:05.000Z</time>
      </trkpt>
      <trkpt lat="45.22827" lon="6.04149">
        <ele>2097.3999023438</ele>
        <time>2023-08-11T12:33:07.000Z</time>
      </trkpt>
      <trkpt lat="45.22828" lon="6.04146">
        <ele>2097.1999511719</ele>
        <time>2023-08-11T12:33:09.000Z</time>
      </trkpt>
      <trkpt lat="45.2283" lon="6.04144">
        <ele>2096.3999023438</ele>
        <time>2023-08-11T12:33:13.000Z</time>
      </trkpt>
      <trkpt lat="45.2283" lon="6.04143">
        <ele>2096</ele>
        <time>2023-08-11T12:33:15.000Z</time>
      </trkpt>
      <trkpt lat="45.22831" lon="6.0414">
        <ele>2095.1999511719</ele>
        <time>2023-08-11T12:33:19.000Z</time>
      </trkpt>
      <trkpt lat="45.22831" lon="6.04139">
        <ele>2095</ele>
        <time>2023-08-11T12:33:20.000Z</time>
      </trkpt>
      <trkpt lat="45.22832" lon="6.04135">
        <ele>2094</ele>
        <time>2023-08-11T12:33:25.000Z</time>
      </trkpt>
      <trkpt lat="45.22832" lon="6.04134">
        <ele>2093.6000976562</ele>
        <time>2023-08-11T12:33:27.000Z</time>
      </trkpt>
      <trkpt lat="45.22834" lon="6.04134">
        <ele>2092.8000488281</ele>
        <time>2023-08-11T12:33:30.000Z</time>
      </trkpt>
      <trkpt lat="45.22837" lon="6.04131">
        <ele>2091.8000488281</ele>
        <time>2023-08-11T12:33:34.000Z</time>
      </trkpt>
      <trkpt lat="45.22839" lon="6.0413">
        <ele>2091.3999023438</ele>
        <time>2023-08-11T12:33:36.000Z</time>
      </trkpt>
      <trkpt lat="45.2284" lon="6.04129">
        <ele>2090.8000488281</ele>
        <time>2023-08-11T12:33:38.000Z</time>
      </trkpt>
      <trkpt lat="45.22844" lon="6.04124">
        <ele>2089.6000976562</ele>
        <time>2023-08-11T12:33:43.000Z</time>
      </trkpt>
      <trkpt lat="45.22845" lon="6.04121">
        <ele>2089</ele>
        <time>2023-08-11T12:33:46.000Z</time>
      </trkpt>
      <trkpt lat="45.22845" lon="6.04119">
        <ele>2088.3999023438</ele>
        <time>2023-08-11T12:33:48.000Z</time>
      </trkpt>
      <trkpt lat="45.22845" lon="6.04115">
        <ele>2087.6000976562</ele>
        <time>2023-08-11T12:33:52.000Z</time>
      </trkpt>
      <trkpt lat="45.22846" lon="6.04112">
        <ele>2087.3999023438</ele>
        <time>2023-08-11T12:33:54.000Z</time>
      </trkpt>
      <trkpt lat="45.22847" lon="6.04109">
        <ele>2087.1999511719</ele>
        <time>2023-08-11T12:33:57.000Z</time>
      </trkpt>
      <trkpt lat="45.22846" lon="6.04109">
        <ele>2087.3999023438</ele>
        <time>2023-08-11T12:34:01.000Z</time>
      </trkpt>
      <trkpt lat="45.22845" lon="6.04109">
        <ele>2087.3999023438</ele>
        <time>2023-08-11T12:34:03.000Z</time>
      </trkpt>
      <trkpt lat="45.22845" lon="6.04109">
        <ele>2087.3999023438</ele>
        <time>2023-08-11T12:34:04.000Z</time>
      </trkpt>
      <trkpt lat="45.22845" lon="6.04108">
        <ele>2087.6000976562</ele>
        <time>2023-08-11T12:34:05.000Z</time>
      </trkpt>
      <trkpt lat="45.22845" lon="6.04105">
        <ele>2087.6000976562</ele>
        <time>2023-08-11T12:34:12.000Z</time>
      </trkpt>
      <trkpt lat="45.22846" lon="6.04103">
        <ele>2087.6000976562</ele>
        <time>2023-08-11T12:34:18.000Z</time>
      </trkpt>
      <trkpt lat="45.22847" lon="6.04103">
        <ele>2087.8000488281</ele>
        <time>2023-08-11T12:34:25.000Z</time>
      </trkpt>
      <trkpt lat="45.22849" lon="6.04102">
        <ele>2088</ele>
        <time>2023-08-11T12:34:32.000Z</time>
      </trkpt>
      <trkpt lat="45.2285" lon="6.04104">
        <ele>2088.1999511719</ele>
        <time>2023-08-11T12:34:39.000Z</time>
      </trkpt>
      <trkpt lat="45.22848" lon="6.04104">
        <ele>2088.1999511719</ele>
        <time>2023-08-11T12:34:47.000Z</time>
      </trkpt>
      <trkpt lat="45.22848" lon="6.04104">
        <ele>2088.3999023438</ele>
        <time>2023-08-11T12:34:53.000Z</time>
      </trkpt>
      <trkpt lat="45.22847" lon="6.04109">
        <ele>2088.1999511719</ele>
        <time>2023-08-11T12:35:01.000Z</time>
      </trkpt>
      <trkpt lat="45.22844" lon="6.04106">
        <ele>2088.3999023438</ele>
        <time>2023-08-11T12:35:08.000Z</time>
      </trkpt>
      <trkpt lat="45.22839" lon="6.04102">
        <ele>2087.3999023438</ele>
        <time>2023-08-11T12:35:14.000Z</time>
      </trkpt>
      <trkpt lat="45.22831" lon="6.04098">
        <ele>2086.3999023438</ele>
        <time>2023-08-11T12:35:20.000Z</time>
      </trkpt>
      <trkpt lat="45.22827" lon="6.04089">
        <ele>2085.8000488281</ele>
        <time>2023-08-11T12:35:27.000Z</time>
      </trkpt>
      <trkpt lat="45.22825" lon="6.04086">
        <ele>2085.1999511719</ele>
        <time>2023-08-11T12:35:29.000Z</time>
      </trkpt>
      <trkpt lat="45.22824" lon="6.0408">
        <ele>2083.8000488281</ele>
        <time>2023-08-11T12:35:33.000Z</time>
      </trkpt>
      <trkpt lat="45.22824" lon="6.04079">
        <ele>2083.1999511719</ele>
        <time>2023-08-11T12:35:35.000Z</time>
      </trkpt>
      <trkpt lat="45.22823" lon="6.04077">
        <ele>2082.8000488281</ele>
        <time>2023-08-11T12:35:36.000Z</time>
      </trkpt>
      <trkpt lat="45.2282" lon="6.04071">
        <ele>2081.8000488281</ele>
        <time>2023-08-11T12:35:42.000Z</time>
      </trkpt>
      <trkpt lat="45.22813" lon="6.04059">
        <ele>2080.6000976562</ele>
        <time>2023-08-11T12:35:49.000Z</time>
      </trkpt>
      <trkpt lat="45.22812" lon="6.04058">
        <ele>2080</ele>
        <time>2023-08-11T12:35:51.000Z</time>
      </trkpt>
      <trkpt lat="45.22809" lon="6.04055">
        <ele>2079.1999511719</ele>
        <time>2023-08-11T12:35:54.000Z</time>
      </trkpt>
      <trkpt lat="45.22808" lon="6.04053">
        <ele>2078.8000488281</ele>
        <time>2023-08-11T12:35:57.000Z</time>
      </trkpt>
      <trkpt lat="45.22803" lon="6.04051">
        <ele>2078.1999511719</ele>
        <time>2023-08-11T12:36:03.000Z</time>
      </trkpt>
      <trkpt lat="45.22801" lon="6.04051">
        <ele>2078</ele>
        <time>2023-08-11T12:36:05.000Z</time>
      </trkpt>
      <trkpt lat="45.22797" lon="6.04049">
        <ele>2077.1999511719</ele>
        <time>2023-08-11T12:36:09.000Z</time>
      </trkpt>
      <trkpt lat="45.22793" lon="6.04047">
        <ele>2076.6000976562</ele>
        <time>2023-08-11T12:36:13.000Z</time>
      </trkpt>
      <trkpt lat="45.22789" lon="6.04045">
        <ele>2076.3999023438</ele>
        <time>2023-08-11T12:36:19.000Z</time>
      </trkpt>
      <trkpt lat="45.22789" lon="6.04044">
        <ele>2076.1999511719</ele>
        <time>2023-08-11T12:36:21.000Z</time>
      </trkpt>
      <trkpt lat="45.22785" lon="6.04039">
        <ele>2075.6000976562</ele>
        <time>2023-08-11T12:36:28.000Z</time>
      </trkpt>
      <trkpt lat="45.22786" lon="6.04039">
        <ele>2075</ele>
        <time>2023-08-11T12:36:30.000Z</time>
      </trkpt>
      <trkpt lat="45.22786" lon="6.0404">
        <ele>2074.6000976562</ele>
        <time>2023-08-11T12:36:37.000Z</time>
      </trkpt>
      <trkpt lat="45.22785" lon="6.04039">
        <ele>2074</ele>
        <time>2023-08-11T12:36:46.000Z</time>
      </trkpt>
      <trkpt lat="45.22783" lon="6.04038">
        <ele>2073.8000488281</ele>
        <time>2023-08-11T12:36:49.000Z</time>
      </trkpt>
      <trkpt lat="45.22778" lon="6.04036">
        <ele>2073.1999511719</ele>
        <time>2023-08-11T12:36:54.000Z</time>
      </trkpt>
      <trkpt lat="45.22776" lon="6.04037">
        <ele>2072.8000488281</ele>
        <time>2023-08-11T12:36:57.000Z</time>
      </trkpt>
      <trkpt lat="45.22774" lon="6.04036">
        <ele>2072</ele>
        <time>2023-08-11T12:37:00.000Z</time>
      </trkpt>
      <trkpt lat="45.22774" lon="6.04036">
        <ele>2071.6000976562</ele>
        <time>2023-08-11T12:37:02.000Z</time>
      </trkpt>
      <trkpt lat="45.22772" lon="6.04035">
        <ele>2070.3999023438</ele>
        <time>2023-08-11T12:37:06.000Z</time>
      </trkpt>
      <trkpt lat="45.22769" lon="6.04034">
        <ele>2069.3999023438</ele>
        <time>2023-08-11T12:37:10.000Z</time>
      </trkpt>
      <trkpt lat="45.22767" lon="6.04034">
        <ele>2068.8000488281</ele>
        <time>2023-08-11T12:37:13.000Z</time>
      </trkpt>
      <trkpt lat="45.22767" lon="6.04034">
        <ele>2068.3999023438</ele>
        <time>2023-08-11T12:37:15.000Z</time>
      </trkpt>
      <trkpt lat="45.22765" lon="6.04032">
        <ele>2067.6000976562</ele>
        <time>2023-08-11T12:37:18.000Z</time>
      </trkpt>
      <trkpt lat="45.22763" lon="6.0403">
        <ele>2067.1999511719</ele>
        <time>2023-08-11T12:37:20.000Z</time>
      </trkpt>
      <trkpt lat="45.2276" lon="6.04029">
        <ele>2066.3999023438</ele>
        <time>2023-08-11T12:37:23.000Z</time>
      </trkpt>
      <trkpt lat="45.22759" lon="6.04028">
        <ele>2066</ele>
        <time>2023-08-11T12:37:24.000Z</time>
      </trkpt>
      <trkpt lat="45.22756" lon="6.04027">
        <ele>2065.1999511719</ele>
        <time>2023-08-11T12:37:29.000Z</time>
      </trkpt>
      <trkpt lat="45.22755" lon="6.04027">
        <ele>2065</ele>
        <time>2023-08-11T12:37:30.000Z</time>
      </trkpt>
      <trkpt lat="45.22754" lon="6.04028">
        <ele>2064.6000976562</ele>
        <time>2023-08-11T12:37:32.000Z</time>
      </trkpt>
      <trkpt lat="45.22753" lon="6.04028">
        <ele>2064.1999511719</ele>
        <time>2023-08-11T12:37:34.000Z</time>
      </trkpt>
      <trkpt lat="45.22752" lon="6.04028">
        <ele>2064</ele>
        <time>2023-08-11T12:37:35.000Z</time>
      </trkpt>
      <trkpt lat="45.2275" lon="6.04026">
        <ele>2062.8000488281</ele>
        <time>2023-08-11T12:37:40.000Z</time>
      </trkpt>
      <trkpt lat="45.22748" lon="6.04027">
        <ele>2062.1999511719</ele>
        <time>2023-08-11T12:37:42.000Z</time>
      </trkpt>
      <trkpt lat="45.22747" lon="6.04026">
        <ele>2061.6000976562</ele>
        <time>2023-08-11T12:37:44.000Z</time>
      </trkpt>
      <trkpt lat="45.22747" lon="6.04023">
        <ele>2060.6000976562</ele>
        <time>2023-08-11T12:37:48.000Z</time>
      </trkpt>
      <trkpt lat="45.22749" lon="6.04021">
        <ele>2060</ele>
        <time>2023-08-11T12:37:51.000Z</time>
      </trkpt>
      <trkpt lat="45.22751" lon="6.04018">
        <ele>2059.6000976562</ele>
        <time>2023-08-11T12:37:54.000Z</time>
      </trkpt>
      <trkpt lat="45.22752" lon="6.04014">
        <ele>2059.1999511719</ele>
        <time>2023-08-11T12:37:57.000Z</time>
      </trkpt>
      <trkpt lat="45.22752" lon="6.04012">
        <ele>2059</ele>
        <time>2023-08-11T12:38:02.000Z</time>
      </trkpt>
      <trkpt lat="45.22753" lon="6.04013">
        <ele>2058.3999023438</ele>
        <time>2023-08-11T12:38:07.000Z</time>
      </trkpt>
      <trkpt lat="45.22753" lon="6.04014">
        <ele>2058.6000976562</ele>
        <time>2023-08-11T12:38:09.000Z</time>
      </trkpt>
      <trkpt lat="45.2275" lon="6.04012">
        <ele>2059</ele>
        <time>2023-08-11T12:38:18.000Z</time>
      </trkpt>
      <trkpt lat="45.22751" lon="6.04013">
        <ele>2059</ele>
        <time>2023-08-11T12:38:25.000Z</time>
      </trkpt>
      <trkpt lat="45.22754" lon="6.04017">
        <ele>2059.1999511719</ele>
        <time>2023-08-11T12:38:32.000Z</time>
      </trkpt>
      <trkpt lat="45.22754" lon="6.04011">
        <ele>2058.8000488281</ele>
        <time>2023-08-11T12:38:39.000Z</time>
      </trkpt>
      <trkpt lat="45.22753" lon="6.04009">
        <ele>2059.1999511719</ele>
        <time>2023-08-11T12:38:45.000Z</time>
      </trkpt>
      <trkpt lat="45.2275" lon="6.04003">
        <ele>2059</ele>
        <time>2023-08-11T12:38:51.000Z</time>
      </trkpt>
      <trkpt lat="45.22746" lon="6.03993">
        <ele>2057.3999023438</ele>
        <time>2023-08-11T12:38:59.000Z</time>
      </trkpt>
      <trkpt lat="45.22744" lon="6.03988">
        <ele>2056.3999023438</ele>
        <time>2023-08-11T12:39:05.000Z</time>
      </trkpt>
      <trkpt lat="45.22741" lon="6.03986">
        <ele>2055.1999511719</ele>
        <time>2023-08-11T12:39:10.000Z</time>
      </trkpt>
      <trkpt lat="45.22739" lon="6.03983">
        <ele>2054.1999511719</ele>
        <time>2023-08-11T12:39:13.000Z</time>
      </trkpt>
      <trkpt lat="45.22739" lon="6.03982">
        <ele>2054</ele>
        <time>2023-08-11T12:39:14.000Z</time>
      </trkpt>
      <trkpt lat="45.22737" lon="6.03978">
        <ele>2052.8000488281</ele>
        <time>2023-08-11T12:39:19.000Z</time>
      </trkpt>
      <trkpt lat="45.22735" lon="6.03977">
        <ele>2052</ele>
        <time>2023-08-11T12:39:22.000Z</time>
      </trkpt>
      <trkpt lat="45.22735" lon="6.03976">
        <ele>2051.6000976562</ele>
        <time>2023-08-11T12:39:23.000Z</time>
      </trkpt>
      <trkpt lat="45.22732" lon="6.03975">
        <ele>2050.3999023438</ele>
        <time>2023-08-11T12:39:27.000Z</time>
      </trkpt>
      <trkpt lat="45.2273" lon="6.03973">
        <ele>2050</ele>
        <time>2023-08-11T12:39:31.000Z</time>
      </trkpt>
      <trkpt lat="45.22728" lon="6.0397">
        <ele>2049.3999023438</ele>
        <time>2023-08-11T12:39:34.000Z</time>
      </trkpt>
      <trkpt lat="45.22726" lon="6.03968">
        <ele>2048.3999023438</ele>
        <time>2023-08-11T12:39:38.000Z</time>
      </trkpt>
      <trkpt lat="45.22726" lon="6.03968">
        <ele>2048</ele>
        <time>2023-08-11T12:39:39.000Z</time>
      </trkpt>
      <trkpt lat="45.22726" lon="6.03965">
        <ele>2046.8000488281</ele>
        <time>2023-08-11T12:39:43.000Z</time>
      </trkpt>
      <trkpt lat="45.22724" lon="6.03964">
        <ele>2046.1999511719</ele>
        <time>2023-08-11T12:39:46.000Z</time>
      </trkpt>
      <trkpt lat="45.22723" lon="6.03961">
        <ele>2045.8000488281</ele>
        <time>2023-08-11T12:39:48.000Z</time>
      </trkpt>
      <trkpt lat="45.22718" lon="6.03959">
        <ele>2044.4000244141</ele>
        <time>2023-08-11T12:39:53.000Z</time>
      </trkpt>
      <trkpt lat="45.22718" lon="6.03959">
        <ele>2044</ele>
        <time>2023-08-11T12:39:54.000Z</time>
      </trkpt>
      <trkpt lat="45.22717" lon="6.03955">
        <ele>2043</ele>
        <time>2023-08-11T12:39:58.000Z</time>
      </trkpt>
      <trkpt lat="45.22714" lon="6.0395">
        <ele>2042</ele>
        <time>2023-08-11T12:40:02.000Z</time>
      </trkpt>
      <trkpt lat="45.22711" lon="6.03951">
        <ele>2041</ele>
        <time>2023-08-11T12:40:06.000Z</time>
      </trkpt>
      <trkpt lat="45.22709" lon="6.03952">
        <ele>2040.1999511719</ele>
        <time>2023-08-11T12:40:10.000Z</time>
      </trkpt>
      <trkpt lat="45.22707" lon="6.03952">
        <ele>2039.5999755859</ele>
        <time>2023-08-11T12:40:12.000Z</time>
      </trkpt>
      <trkpt lat="45.22704" lon="6.03947">
        <ele>2038.5999755859</ele>
        <time>2023-08-11T12:40:16.000Z</time>
      </trkpt>
      <trkpt lat="45.22704" lon="6.03945">
        <ele>2038.1999511719</ele>
        <time>2023-08-11T12:40:18.000Z</time>
      </trkpt>
      <trkpt lat="45.22706" lon="6.03942">
        <ele>2037.5999755859</ele>
        <time>2023-08-11T12:40:22.000Z</time>
      </trkpt>
      <trkpt lat="45.22706" lon="6.03941">
        <ele>2037</ele>
        <time>2023-08-11T12:40:25.000Z</time>
      </trkpt>
      <trkpt lat="45.22705" lon="6.03942">
        <ele>2036.4000244141</ele>
        <time>2023-08-11T12:40:27.000Z</time>
      </trkpt>
      <trkpt lat="45.22705" lon="6.03942">
        <ele>2036.1999511719</ele>
        <time>2023-08-11T12:40:28.000Z</time>
      </trkpt>
      <trkpt lat="45.22705" lon="6.03942">
        <ele>2035.4000244141</ele>
        <time>2023-08-11T12:40:32.000Z</time>
      </trkpt>
      <trkpt lat="45.22704" lon="6.03941">
        <ele>2035</ele>
        <time>2023-08-11T12:40:35.000Z</time>
      </trkpt>
      <trkpt lat="45.22702" lon="6.03937">
        <ele>2034.1999511719</ele>
        <time>2023-08-11T12:40:40.000Z</time>
      </trkpt>
      <trkpt lat="45.22701" lon="6.03938">
        <ele>2034</ele>
        <time>2023-08-11T12:40:41.000Z</time>
      </trkpt>
      <trkpt lat="45.22699" lon="6.03938">
        <ele>2033.1999511719</ele>
        <time>2023-08-11T12:40:46.000Z</time>
      </trkpt>
      <trkpt lat="45.22698" lon="6.03937">
        <ele>2032.8000488281</ele>
        <time>2023-08-11T12:40:48.000Z</time>
      </trkpt>
      <trkpt lat="45.22696" lon="6.03935">
        <ele>2032</ele>
        <time>2023-08-11T12:40:53.000Z</time>
      </trkpt>
      <trkpt lat="45.22695" lon="6.03935">
        <ele>2031.5999755859</ele>
        <time>2023-08-11T12:40:55.000Z</time>
      </trkpt>
      <trkpt lat="45.22693" lon="6.03934">
        <ele>2031</ele>
        <time>2023-08-11T12:40:58.000Z</time>
      </trkpt>
      <trkpt lat="45.22692" lon="6.03929">
        <ele>2029.8000488281</ele>
        <time>2023-08-11T12:41:03.000Z</time>
      </trkpt>
      <trkpt lat="45.22692" lon="6.03926">
        <ele>2028.8000488281</ele>
        <time>2023-08-11T12:41:06.000Z</time>
      </trkpt>
      <trkpt lat="45.22692" lon="6.03923">
        <ele>2027.8000488281</ele>
        <time>2023-08-11T12:41:10.000Z</time>
      </trkpt>
      <trkpt lat="45.22691" lon="6.0392">
        <ele>2027.1999511719</ele>
        <time>2023-08-11T12:41:12.000Z</time>
      </trkpt>
      <trkpt lat="45.22691" lon="6.03919">
        <ele>2026.8000488281</ele>
        <time>2023-08-11T12:41:14.000Z</time>
      </trkpt>
      <trkpt lat="45.22691" lon="6.0391">
        <ele>2025.5999755859</ele>
        <time>2023-08-11T12:41:19.000Z</time>
      </trkpt>
      <trkpt lat="45.22691" lon="6.03901">
        <ele>2025.5999755859</ele>
        <time>2023-08-11T12:41:26.000Z</time>
      </trkpt>
      <trkpt lat="45.22688" lon="6.0389">
        <ele>2026.1999511719</ele>
        <time>2023-08-11T12:41:35.000Z</time>
      </trkpt>
      <trkpt lat="45.22687" lon="6.0389">
        <ele>2026.1999511719</ele>
        <time>2023-08-11T12:41:37.000Z</time>
      </trkpt>
      <trkpt lat="45.22684" lon="6.03888">
        <ele>2025.5999755859</ele>
        <time>2023-08-11T12:41:41.000Z</time>
      </trkpt>
      <trkpt lat="45.22682" lon="6.03883">
        <ele>2024.5999755859</ele>
        <time>2023-08-11T12:41:47.000Z</time>
      </trkpt>
      <trkpt lat="45.22679" lon="6.03877">
        <ele>2023.1999511719</ele>
        <time>2023-08-11T12:41:53.000Z</time>
      </trkpt>
      <trkpt lat="45.22678" lon="6.03876">
        <ele>2022.8000488281</ele>
        <time>2023-08-11T12:41:55.000Z</time>
      </trkpt>
      <trkpt lat="45.22677" lon="6.03876">
        <ele>2022.5999755859</ele>
        <time>2023-08-11T12:41:56.000Z</time>
      </trkpt>
      <trkpt lat="45.22673" lon="6.03874">
        <ele>2022.1999511719</ele>
        <time>2023-08-11T12:41:59.000Z</time>
      </trkpt>
      <trkpt lat="45.22671" lon="6.03874">
        <ele>2022.1999511719</ele>
        <time>2023-08-11T12:42:01.000Z</time>
      </trkpt>
      <trkpt lat="45.22669" lon="6.03871">
        <ele>2022.5999755859</ele>
        <time>2023-08-11T12:42:08.000Z</time>
      </trkpt>
      <trkpt lat="45.22663" lon="6.03865">
        <ele>2022</ele>
        <time>2023-08-11T12:42:17.000Z</time>
      </trkpt>
      <trkpt lat="45.22658" lon="6.03856">
        <ele>2022.1999511719</ele>
        <time>2023-08-11T12:42:24.000Z</time>
      </trkpt>
      <trkpt lat="45.22656" lon="6.0385">
        <ele>2023.4000244141</ele>
        <time>2023-08-11T12:42:29.000Z</time>
      </trkpt>
      <trkpt lat="45.22656" lon="6.0385">
        <ele>2023.5999755859</ele>
        <time>2023-08-11T12:42:30.000Z</time>
      </trkpt>
      <trkpt lat="45.22654" lon="6.03842">
        <ele>2024.1999511719</ele>
        <time>2023-08-11T12:42:37.000Z</time>
      </trkpt>
      <trkpt lat="45.22653" lon="6.03838">
        <ele>2024.4000244141</ele>
        <time>2023-08-11T12:42:40.000Z</time>
      </trkpt>
      <trkpt lat="45.22651" lon="6.0383">
        <ele>2024.4000244141</ele>
        <time>2023-08-11T12:42:46.000Z</time>
      </trkpt>
      <trkpt lat="45.22648" lon="6.03825">
        <ele>2024.4000244141</ele>
        <time>2023-08-11T12:42:52.000Z</time>
      </trkpt>
      <trkpt lat="45.22643" lon="6.03816">
        <ele>2024</ele>
        <time>2023-08-11T12:42:59.000Z</time>
      </trkpt>
      <trkpt lat="45.22639" lon="6.03809">
        <ele>2023.5999755859</ele>
        <time>2023-08-11T12:43:05.000Z</time>
      </trkpt>
      <trkpt lat="45.22637" lon="6.03805">
        <ele>2023.1999511719</ele>
        <time>2023-08-11T12:43:12.000Z</time>
      </trkpt>
      <trkpt lat="45.22632" lon="6.03799">
        <ele>2022</ele>
        <time>2023-08-11T12:43:17.000Z</time>
      </trkpt>
      <trkpt lat="45.22631" lon="6.03799">
        <ele>2021.4000244141</ele>
        <time>2023-08-11T12:43:21.000Z</time>
      </trkpt>
      <trkpt lat="45.2263" lon="6.03798">
        <ele>2021.4000244141</ele>
        <time>2023-08-11T12:43:30.000Z</time>
      </trkpt>
      <trkpt lat="45.22625" lon="6.03794">
        <ele>2021.1999511719</ele>
        <time>2023-08-11T12:43:37.000Z</time>
      </trkpt>
      <trkpt lat="45.22624" lon="6.03793">
        <ele>2021</ele>
        <time>2023-08-11T12:43:38.000Z</time>
      </trkpt>
      <trkpt lat="45.2262" lon="6.03786">
        <ele>2020</ele>
        <time>2023-08-11T12:43:43.000Z</time>
      </trkpt>
      <trkpt lat="45.2262" lon="6.03785">
        <ele>2019.8000488281</ele>
        <time>2023-08-11T12:43:44.000Z</time>
      </trkpt>
      <trkpt lat="45.22617" lon="6.0378">
        <ele>2019</ele>
        <time>2023-08-11T12:43:48.000Z</time>
      </trkpt>
      <trkpt lat="45.22615" lon="6.03772">
        <ele>2018</ele>
        <time>2023-08-11T12:43:54.000Z</time>
      </trkpt>
      <trkpt lat="45.22612" lon="6.03762">
        <ele>2017</ele>
        <time>2023-08-11T12:44:01.000Z</time>
      </trkpt>
      <trkpt lat="45.22612" lon="6.03756">
        <ele>2016.4000244141</ele>
        <time>2023-08-11T12:44:05.000Z</time>
      </trkpt>
      <trkpt lat="45.22608" lon="6.0375">
        <ele>2016.4000244141</ele>
        <time>2023-08-11T12:44:12.000Z</time>
      </trkpt>
      <trkpt lat="45.22603" lon="6.03742">
        <ele>2015.8000488281</ele>
        <time>2023-08-11T12:44:19.000Z</time>
      </trkpt>
      <trkpt lat="45.22597" lon="6.03741">
        <ele>2015.5999755859</ele>
        <time>2023-08-11T12:44:27.000Z</time>
      </trkpt>
      <trkpt lat="45.22594" lon="6.03738">
        <ele>2017</ele>
        <time>2023-08-11T12:44:34.000Z</time>
      </trkpt>
      <trkpt lat="45.22594" lon="6.03737">
        <ele>2017.4000244141</ele>
        <time>2023-08-11T12:44:35.000Z</time>
      </trkpt>
      <trkpt lat="45.22593" lon="6.03736">
        <ele>2018</ele>
        <time>2023-08-11T12:44:37.000Z</time>
      </trkpt>
      <trkpt lat="45.22593" lon="6.03734">
        <ele>2018.8000488281</ele>
        <time>2023-08-11T12:44:43.000Z</time>
      </trkpt>
      <trkpt lat="45.22593" lon="6.03734">
        <ele>2019.1999511719</ele>
        <time>2023-08-11T12:44:44.000Z</time>
      </trkpt>
      <trkpt lat="45.22591" lon="6.0373">
        <ele>2019.8000488281</ele>
        <time>2023-08-11T12:44:50.000Z</time>
      </trkpt>
      <trkpt lat="45.2259" lon="6.03729">
        <ele>2020.1999511719</ele>
        <time>2023-08-11T12:44:52.000Z</time>
      </trkpt>
      <trkpt lat="45.2259" lon="6.03726">
        <ele>2021.4000244141</ele>
        <time>2023-08-11T12:44:56.000Z</time>
      </trkpt>
      <trkpt lat="45.2259" lon="6.03725">
        <ele>2021.8000488281</ele>
        <time>2023-08-11T12:44:59.000Z</time>
      </trkpt>
      <trkpt lat="45.22588" lon="6.0372">
        <ele>2021.8000488281</ele>
        <time>2023-08-11T12:45:04.000Z</time>
      </trkpt>
      <trkpt lat="45.22586" lon="6.03714">
        <ele>2021.8000488281</ele>
        <time>2023-08-11T12:45:10.000Z</time>
      </trkpt>
      <trkpt lat="45.22583" lon="6.03709">
        <ele>2022.4000244141</ele>
        <time>2023-08-11T12:45:16.000Z</time>
      </trkpt>
      <trkpt lat="45.22582" lon="6.03709">
        <ele>2022.5999755859</ele>
        <time>2023-08-11T12:45:18.000Z</time>
      </trkpt>
      <trkpt lat="45.22581" lon="6.03709">
        <ele>2022.5999755859</ele>
        <time>2023-08-11T12:45:23.000Z</time>
      </trkpt>
      <trkpt lat="45.22581" lon="6.03711">
        <ele>2022.1999511719</ele>
        <time>2023-08-11T12:45:28.000Z</time>
      </trkpt>
      <trkpt lat="45.22577" lon="6.03708">
        <ele>2021.8000488281</ele>
        <time>2023-08-11T12:45:34.000Z</time>
      </trkpt>
      <trkpt lat="45.22572" lon="6.03704">
        <ele>2021.8000488281</ele>
        <time>2023-08-11T12:45:41.000Z</time>
      </trkpt>
      <trkpt lat="45.22566" lon="6.03702">
        <ele>2021.4000244141</ele>
        <time>2023-08-11T12:45:49.000Z</time>
      </trkpt>
      <trkpt lat="45.22559" lon="6.037">
        <ele>2020.8000488281</ele>
        <time>2023-08-11T12:45:59.000Z</time>
      </trkpt>
      <trkpt lat="45.22554" lon="6.03698">
        <ele>2020.4000244141</ele>
        <time>2023-08-11T12:46:04.000Z</time>
      </trkpt>
      <trkpt lat="45.22552" lon="6.03696">
        <ele>2020.4000244141</ele>
        <time>2023-08-11T12:46:06.000Z</time>
      </trkpt>
      <trkpt lat="45.22547" lon="6.0369">
        <ele>2020.8000488281</ele>
        <time>2023-08-11T12:46:14.000Z</time>
      </trkpt>
      <trkpt lat="45.22543" lon="6.03689">
        <ele>2020.5999755859</ele>
        <time>2023-08-11T12:46:22.000Z</time>
      </trkpt>
      <trkpt lat="45.22538" lon="6.03686">
        <ele>2020</ele>
        <time>2023-08-11T12:46:27.000Z</time>
      </trkpt>
      <trkpt lat="45.22534" lon="6.03683">
        <ele>2019.4000244141</ele>
        <time>2023-08-11T12:46:35.000Z</time>
      </trkpt>
      <trkpt lat="45.22533" lon="6.03683">
        <ele>2019</ele>
        <time>2023-08-11T12:46:37.000Z</time>
      </trkpt>
      <trkpt lat="45.22531" lon="6.03684">
        <ele>2018</ele>
        <time>2023-08-11T12:46:43.000Z</time>
      </trkpt>
      <trkpt lat="45.22531" lon="6.03684">
        <ele>2017.8000488281</ele>
        <time>2023-08-11T12:46:44.000Z</time>
      </trkpt>
      <trkpt lat="45.22528" lon="6.03683">
        <ele>2017</ele>
        <time>2023-08-11T12:46:47.000Z</time>
      </trkpt>
      <trkpt lat="45.22524" lon="6.03681">
        <ele>2016.1999511719</ele>
        <time>2023-08-11T12:46:50.000Z</time>
      </trkpt>
      <trkpt lat="45.22523" lon="6.03679">
        <ele>2015.8000488281</ele>
        <time>2023-08-11T12:46:52.000Z</time>
      </trkpt>
      <trkpt lat="45.22519" lon="6.03677">
        <ele>2014.5999755859</ele>
        <time>2023-08-11T12:46:56.000Z</time>
      </trkpt>
      <trkpt lat="45.22517" lon="6.03677">
        <ele>2013.5999755859</ele>
        <time>2023-08-11T12:47:01.000Z</time>
      </trkpt>
      <trkpt lat="45.22515" lon="6.03677">
        <ele>2013.1999511719</ele>
        <time>2023-08-11T12:47:03.000Z</time>
      </trkpt>
      <trkpt lat="45.22513" lon="6.03677">
        <ele>2012.4000244141</ele>
        <time>2023-08-11T12:47:06.000Z</time>
      </trkpt>
      <trkpt lat="45.22509" lon="6.03675">
        <ele>2011.4000244141</ele>
        <time>2023-08-11T12:47:10.000Z</time>
      </trkpt>
      <trkpt lat="45.22508" lon="6.03674">
        <ele>2011.1999511719</ele>
        <time>2023-08-11T12:47:11.000Z</time>
      </trkpt>
      <trkpt lat="45.22503" lon="6.03669">
        <ele>2010.4000244141</ele>
        <time>2023-08-11T12:47:17.000Z</time>
      </trkpt>
      <trkpt lat="45.22502" lon="6.03667">
        <ele>2009.8000488281</ele>
        <time>2023-08-11T12:47:19.000Z</time>
      </trkpt>
      <trkpt lat="45.225" lon="6.03665">
        <ele>2009.4000244141</ele>
        <time>2023-08-11T12:47:22.000Z</time>
      </trkpt>
      <trkpt lat="45.22497" lon="6.03662">
        <ele>2008.5999755859</ele>
        <time>2023-08-11T12:47:26.000Z</time>
      </trkpt>
      <trkpt lat="45.22491" lon="6.03658">
        <ele>2008.5999755859</ele>
        <time>2023-08-11T12:47:34.000Z</time>
      </trkpt>
      <trkpt lat="45.2249" lon="6.03653">
        <ele>2008.4000244141</ele>
        <time>2023-08-11T12:47:40.000Z</time>
      </trkpt>
      <trkpt lat="45.2249" lon="6.03652">
        <ele>2008.1999511719</ele>
        <time>2023-08-11T12:47:41.000Z</time>
      </trkpt>
      <trkpt lat="45.22487" lon="6.03647">
        <ele>2007.1999511719</ele>
        <time>2023-08-11T12:47:45.000Z</time>
      </trkpt>
      <trkpt lat="45.22485" lon="6.03643">
        <ele>2006.5999755859</ele>
        <time>2023-08-11T12:47:50.000Z</time>
      </trkpt>
      <trkpt lat="45.22485" lon="6.03639">
        <ele>2007.4000244141</ele>
        <time>2023-08-11T12:47:57.000Z</time>
      </trkpt>
      <trkpt lat="45.22484" lon="6.03639">
        <ele>2007</ele>
        <time>2023-08-11T12:48:05.000Z</time>
      </trkpt>
      <trkpt lat="45.22486" lon="6.03638">
        <ele>2006.4000244141</ele>
        <time>2023-08-11T12:48:13.000Z</time>
      </trkpt>
      <trkpt lat="45.22487" lon="6.03639">
        <ele>2006.1999511719</ele>
        <time>2023-08-11T12:48:16.000Z</time>
      </trkpt>
      <trkpt lat="45.22487" lon="6.03638">
        <ele>2006.1999511719</ele>
        <time>2023-08-11T12:48:21.000Z</time>
      </trkpt>
      <trkpt lat="45.22486" lon="6.03638">
        <ele>2006.1999511719</ele>
        <time>2023-08-11T12:48:28.000Z</time>
      </trkpt>
      <trkpt lat="45.22481" lon="6.03636">
        <ele>2005.4000244141</ele>
        <time>2023-08-11T12:48:35.000Z</time>
      </trkpt>
      <trkpt lat="45.22479" lon="6.03636">
        <ele>2005.1999511719</ele>
        <time>2023-08-11T12:48:37.000Z</time>
      </trkpt>
      <trkpt lat="45.22475" lon="6.03631">
        <ele>2004.5999755859</ele>
        <time>2023-08-11T12:48:41.000Z</time>
      </trkpt>
      <trkpt lat="45.22468" lon="6.03623">
        <ele>2004.1999511719</ele>
        <time>2023-08-11T12:48:49.000Z</time>
      </trkpt>
      <trkpt lat="45.22464" lon="6.03618">
        <ele>2004.8000488281</ele>
        <time>2023-08-11T12:48:57.000Z</time>
      </trkpt>
      <trkpt lat="45.2246" lon="6.03612">
        <ele>2005.8000488281</ele>
        <time>2023-08-11T12:49:05.000Z</time>
      </trkpt>
      <trkpt lat="45.22458" lon="6.03601">
        <ele>2004.1999511719</ele>
        <time>2023-08-11T12:49:14.000Z</time>
      </trkpt>
      <trkpt lat="45.22458" lon="6.03601">
        <ele>2004.1999511719</ele>
        <time>2023-08-11T12:49:15.000Z</time>
      </trkpt>
      <trkpt lat="45.22457" lon="6.036">
        <ele>2003</ele>
        <time>2023-08-11T12:49:19.000Z</time>
      </trkpt>
      <trkpt lat="45.22455" lon="6.03597">
        <ele>2002</ele>
        <time>2023-08-11T12:49:23.000Z</time>
      </trkpt>
      <trkpt lat="45.22453" lon="6.03592">
        <ele>2002</ele>
        <time>2023-08-11T12:49:27.000Z</time>
      </trkpt>
      <trkpt lat="45.22451" lon="6.03587">
        <ele>2001.4000244141</ele>
        <time>2023-08-11T12:49:31.000Z</time>
      </trkpt>
      <trkpt lat="45.22449" lon="6.03585">
        <ele>2000.8000488281</ele>
        <time>2023-08-11T12:49:35.000Z</time>
      </trkpt>
      <trkpt lat="45.22447" lon="6.03582">
        <ele>2000.1999511719</ele>
        <time>2023-08-11T12:49:38.000Z</time>
      </trkpt>
      <trkpt lat="45.22444" lon="6.0358">
        <ele>1999.8000488281</ele>
        <time>2023-08-11T12:49:40.000Z</time>
      </trkpt>
      <trkpt lat="45.2244" lon="6.03576">
        <ele>1999.1999511719</ele>
        <time>2023-08-11T12:49:44.000Z</time>
      </trkpt>
      <trkpt lat="45.2244" lon="6.03574">
        <ele>1999</ele>
        <time>2023-08-11T12:49:50.000Z</time>
      </trkpt>
      <trkpt lat="45.22437" lon="6.03567">
        <ele>1999</ele>
        <time>2023-08-11T12:49:57.000Z</time>
      </trkpt>
      <trkpt lat="45.22434" lon="6.03564">
        <ele>1998.8000488281</ele>
        <time>2023-08-11T12:50:06.000Z</time>
      </trkpt>
      <trkpt lat="45.22433" lon="6.03564">
        <ele>1998.8000488281</ele>
        <time>2023-08-11T12:50:07.000Z</time>
      </trkpt>
      <trkpt lat="45.22431" lon="6.03562">
        <ele>1998.1999511719</ele>
        <time>2023-08-11T12:50:14.000Z</time>
      </trkpt>
      <trkpt lat="45.22431" lon="6.03558">
        <ele>1998.1999511719</ele>
        <time>2023-08-11T12:50:19.000Z</time>
      </trkpt>
      <trkpt lat="45.22427" lon="6.03554">
        <ele>1998</ele>
        <time>2023-08-11T12:50:26.000Z</time>
      </trkpt>
      <trkpt lat="45.22426" lon="6.03554">
        <ele>1997.5999755859</ele>
        <time>2023-08-11T12:50:30.000Z</time>
      </trkpt>
      <trkpt lat="45.22424" lon="6.03555">
        <ele>1996.8000488281</ele>
        <time>2023-08-11T12:50:34.000Z</time>
      </trkpt>
      <trkpt lat="45.22423" lon="6.03556">
        <ele>1996.5999755859</ele>
        <time>2023-08-11T12:50:36.000Z</time>
      </trkpt>
      <trkpt lat="45.22422" lon="6.03556">
        <ele>1996</ele>
        <time>2023-08-11T12:50:40.000Z</time>
      </trkpt>
      <trkpt lat="45.2242" lon="6.03555">
        <ele>1995.4000244141</ele>
        <time>2023-08-11T12:50:44.000Z</time>
      </trkpt>
      <trkpt lat="45.22418" lon="6.03553">
        <ele>1995.5999755859</ele>
        <time>2023-08-11T12:50:49.000Z</time>
      </trkpt>
      <trkpt lat="45.22412" lon="6.0355">
        <ele>1996</ele>
        <time>2023-08-11T12:50:57.000Z</time>
      </trkpt>
      <trkpt lat="45.22408" lon="6.03549">
        <ele>1995.8000488281</ele>
        <time>2023-08-11T12:51:05.000Z</time>
      </trkpt>
      <trkpt lat="45.22404" lon="6.03551">
        <ele>1995.1999511719</ele>
        <time>2023-08-11T12:51:12.000Z</time>
      </trkpt>
      <trkpt lat="45.224" lon="6.03549">
        <ele>1994.5999755859</ele>
        <time>2023-08-11T12:51:19.000Z</time>
      </trkpt>
      <trkpt lat="45.22399" lon="6.03547">
        <ele>1994.4000244141</ele>
        <time>2023-08-11T12:51:21.000Z</time>
      </trkpt>
      <trkpt lat="45.22393" lon="6.03545">
        <ele>1994.5999755859</ele>
        <time>2023-08-11T12:51:28.000Z</time>
      </trkpt>
      <trkpt lat="45.22386" lon="6.03542">
        <ele>1994.1999511719</ele>
        <time>2023-08-11T12:51:36.000Z</time>
      </trkpt>
      <trkpt lat="45.22379" lon="6.03536">
        <ele>1994.4000244141</ele>
        <time>2023-08-11T12:51:45.000Z</time>
      </trkpt>
      <trkpt lat="45.22378" lon="6.03536">
        <ele>1993.8000488281</ele>
        <time>2023-08-11T12:51:53.000Z</time>
      </trkpt>
      <trkpt lat="45.22378" lon="6.03538">
        <ele>1993.4000244141</ele>
        <time>2023-08-11T12:51:56.000Z</time>
      </trkpt>
      <trkpt lat="45.22377" lon="6.0354">
        <ele>1992.1999511719</ele>
        <time>2023-08-11T12:52:01.000Z</time>
      </trkpt>
      <trkpt lat="45.22375" lon="6.03536">
        <ele>1991.5999755859</ele>
        <time>2023-08-11T12:52:08.000Z</time>
      </trkpt>
      <trkpt lat="45.22371" lon="6.03534">
        <ele>1991.5999755859</ele>
        <time>2023-08-11T12:52:16.000Z</time>
      </trkpt>
      <trkpt lat="45.22368" lon="6.03533">
        <ele>1991.5999755859</ele>
        <time>2023-08-11T12:52:22.000Z</time>
      </trkpt>
      <trkpt lat="45.22364" lon="6.03529">
        <ele>1991.1999511719</ele>
        <time>2023-08-11T12:52:29.000Z</time>
      </trkpt>
      <trkpt lat="45.2236" lon="6.03525">
        <ele>1990.1999511719</ele>
        <time>2023-08-11T12:52:35.000Z</time>
      </trkpt>
      <trkpt lat="45.22359" lon="6.03523">
        <ele>1990.1999511719</ele>
        <time>2023-08-11T12:52:37.000Z</time>
      </trkpt>
      <trkpt lat="45.22354" lon="6.03516">
        <ele>1990.4000244141</ele>
        <time>2023-08-11T12:52:43.000Z</time>
      </trkpt>
      <trkpt lat="45.22352" lon="6.03513">
        <ele>1990.5999755859</ele>
        <time>2023-08-11T12:52:48.000Z</time>
      </trkpt>
      <trkpt lat="45.22348" lon="6.03509">
        <ele>1990.5999755859</ele>
        <time>2023-08-11T12:52:56.000Z</time>
      </trkpt>
      <trkpt lat="45.22344" lon="6.03508">
        <ele>1989.8000488281</ele>
        <time>2023-08-11T12:53:02.000Z</time>
      </trkpt>
      <trkpt lat="45.22343" lon="6.03509">
        <ele>1989</ele>
        <time>2023-08-11T12:53:05.000Z</time>
      </trkpt>
      <trkpt lat="45.22341" lon="6.03508">
        <ele>1988.1999511719</ele>
        <time>2023-08-11T12:53:10.000Z</time>
      </trkpt>
      <trkpt lat="45.22339" lon="6.03507">
        <ele>1987.8000488281</ele>
        <time>2023-08-11T12:53:13.000Z</time>
      </trkpt>
      <trkpt lat="45.22337" lon="6.03506">
        <ele>1987.1999511719</ele>
        <time>2023-08-11T12:53:17.000Z</time>
      </trkpt>
      <trkpt lat="45.22336" lon="6.03508">
        <ele>1986.5999755859</ele>
        <time>2023-08-11T12:53:21.000Z</time>
      </trkpt>
      <trkpt lat="45.22334" lon="6.03508">
        <ele>1986</ele>
        <time>2023-08-11T12:53:24.000Z</time>
      </trkpt>
      <trkpt lat="45.22332" lon="6.03508">
        <ele>1985.4000244141</ele>
        <time>2023-08-11T12:53:27.000Z</time>
      </trkpt>
      <trkpt lat="45.2233" lon="6.03509">
        <ele>1984.4000244141</ele>
        <time>2023-08-11T12:53:32.000Z</time>
      </trkpt>
      <trkpt lat="45.22325" lon="6.03508">
        <ele>1983.1999511719</ele>
        <time>2023-08-11T12:53:38.000Z</time>
      </trkpt>
      <trkpt lat="45.22323" lon="6.03508">
        <ele>1983.1999511719</ele>
        <time>2023-08-11T12:53:41.000Z</time>
      </trkpt>
      <trkpt lat="45.22316" lon="6.03507">
        <ele>1983</ele>
        <time>2023-08-11T12:53:50.000Z</time>
      </trkpt>
      <trkpt lat="45.22311" lon="6.03506">
        <ele>1983</ele>
        <time>2023-08-11T12:53:57.000Z</time>
      </trkpt>
      <trkpt lat="45.22308" lon="6.03504">
        <ele>1982.4000244141</ele>
        <time>2023-08-11T12:54:04.000Z</time>
      </trkpt>
      <trkpt lat="45.22306" lon="6.03504">
        <ele>1982.1999511719</ele>
        <time>2023-08-11T12:54:10.000Z</time>
      </trkpt>
      <trkpt lat="45.22302" lon="6.03508">
        <ele>1981.4000244141</ele>
        <time>2023-08-11T12:54:17.000Z</time>
      </trkpt>
      <trkpt lat="45.22301" lon="6.03509">
        <ele>1981.1999511719</ele>
        <time>2023-08-11T12:54:19.000Z</time>
      </trkpt>
      <trkpt lat="45.22297" lon="6.03509">
        <ele>1980.5999755859</ele>
        <time>2023-08-11T12:54:24.000Z</time>
      </trkpt>
      <trkpt lat="45.22292" lon="6.0351">
        <ele>1979.8000488281</ele>
        <time>2023-08-11T12:54:29.000Z</time>
      </trkpt>
      <trkpt lat="45.22291" lon="6.0351">
        <ele>1979.1999511719</ele>
        <time>2023-08-11T12:54:31.000Z</time>
      </trkpt>
      <trkpt lat="45.22287" lon="6.03511">
        <ele>1978.8000488281</ele>
        <time>2023-08-11T12:54:35.000Z</time>
      </trkpt>
      <trkpt lat="45.22284" lon="6.03513">
        <ele>1978.1999511719</ele>
        <time>2023-08-11T12:54:40.000Z</time>
      </trkpt>
      <trkpt lat="45.2228" lon="6.03515">
        <ele>1977.8000488281</ele>
        <time>2023-08-11T12:54:46.000Z</time>
      </trkpt>
      <trkpt lat="45.22277" lon="6.03515">
        <ele>1977.1999511719</ele>
        <time>2023-08-11T12:54:48.000Z</time>
      </trkpt>
      <trkpt lat="45.22273" lon="6.03514">
        <ele>1976.5999755859</ele>
        <time>2023-08-11T12:54:51.000Z</time>
      </trkpt>
      <trkpt lat="45.22269" lon="6.03514">
        <ele>1976.8000488281</ele>
        <time>2023-08-11T12:54:56.000Z</time>
      </trkpt>
      <trkpt lat="45.22263" lon="6.03511">
        <ele>1977.1999511719</ele>
        <time>2023-08-11T12:55:03.000Z</time>
      </trkpt>
      <trkpt lat="45.22263" lon="6.0351">
        <ele>1977.8000488281</ele>
        <time>2023-08-11T12:55:06.000Z</time>
      </trkpt>
      <trkpt lat="45.22262" lon="6.03509">
        <ele>1978</ele>
        <time>2023-08-11T12:55:11.000Z</time>
      </trkpt>
      <trkpt lat="45.22262" lon="6.03509">
        <ele>1977.8000488281</ele>
        <time>2023-08-11T12:55:12.000Z</time>
      </trkpt>
      <trkpt lat="45.22261" lon="6.03514">
        <ele>1976.8000488281</ele>
        <time>2023-08-11T12:55:18.000Z</time>
      </trkpt>
      <trkpt lat="45.22261" lon="6.03514">
        <ele>1976.4000244141</ele>
        <time>2023-08-11T12:55:19.000Z</time>
      </trkpt>
      <trkpt lat="45.22255" lon="6.03514">
        <ele>1975.1999511719</ele>
        <time>2023-08-11T12:55:25.000Z</time>
      </trkpt>
      <trkpt lat="45.22254" lon="6.03514">
        <ele>1975.1999511719</ele>
        <time>2023-08-11T12:55:26.000Z</time>
      </trkpt>
      <trkpt lat="45.22246" lon="6.03508">
        <ele>1974.1999511719</ele>
        <time>2023-08-11T12:55:33.000Z</time>
      </trkpt>
      <trkpt lat="45.22244" lon="6.03507">
        <ele>1974.1999511719</ele>
        <time>2023-08-11T12:55:34.000Z</time>
      </trkpt>
      <trkpt lat="45.2224" lon="6.03504">
        <ele>1973.8000488281</ele>
        <time>2023-08-11T12:55:40.000Z</time>
      </trkpt>
      <trkpt lat="45.22238" lon="6.03507">
        <ele>1973.4000244141</ele>
        <time>2023-08-11T12:55:44.000Z</time>
      </trkpt>
      <trkpt lat="45.22238" lon="6.03508">
        <ele>1973.1999511719</ele>
        <time>2023-08-11T12:55:46.000Z</time>
      </trkpt>
      <trkpt lat="45.22238" lon="6.03508">
        <ele>1973</ele>
        <time>2023-08-11T12:55:47.000Z</time>
      </trkpt>
      <trkpt lat="45.22236" lon="6.0351">
        <ele>1972.1999511719</ele>
        <time>2023-08-11T12:55:52.000Z</time>
      </trkpt>
      <trkpt lat="45.22234" lon="6.03509">
        <ele>1971.8000488281</ele>
        <time>2023-08-11T12:55:54.000Z</time>
      </trkpt>
      <trkpt lat="45.2223" lon="6.03506">
        <ele>1970.8000488281</ele>
        <time>2023-08-11T12:55:58.000Z</time>
      </trkpt>
      <trkpt lat="45.22229" lon="6.03505">
        <ele>1970.5999755859</ele>
        <time>2023-08-11T12:55:59.000Z</time>
      </trkpt>
      <trkpt lat="45.22226" lon="6.03503">
        <ele>1969.5999755859</ele>
        <time>2023-08-11T12:56:04.000Z</time>
      </trkpt>
      <trkpt lat="45.22223" lon="6.03501">
        <ele>1968.8000488281</ele>
        <time>2023-08-11T12:56:07.000Z</time>
      </trkpt>
      <trkpt lat="45.22221" lon="6.03501">
        <ele>1968.5999755859</ele>
        <time>2023-08-11T12:56:10.000Z</time>
      </trkpt>
      <trkpt lat="45.22219" lon="6.03499">
        <ele>1968.4000244141</ele>
        <time>2023-08-11T12:56:13.000Z</time>
      </trkpt>
      <trkpt lat="45.22219" lon="6.03497">
        <ele>1969.1999511719</ele>
        <time>2023-08-11T12:56:20.000Z</time>
      </trkpt>
      <trkpt lat="45.22214" lon="6.03494">
        <ele>1969.5999755859</ele>
        <time>2023-08-11T12:56:27.000Z</time>
      </trkpt>
      <trkpt lat="45.2221" lon="6.03493">
        <ele>1969.8000488281</ele>
        <time>2023-08-11T12:56:34.000Z</time>
      </trkpt>
      <trkpt lat="45.22205" lon="6.03491">
        <ele>1969.1999511719</ele>
        <time>2023-08-11T12:56:42.000Z</time>
      </trkpt>
      <trkpt lat="45.22201" lon="6.03488">
        <ele>1968.4000244141</ele>
        <time>2023-08-11T12:56:47.000Z</time>
      </trkpt>
      <trkpt lat="45.22199" lon="6.03486">
        <ele>1968.1999511719</ele>
        <time>2023-08-11T12:56:50.000Z</time>
      </trkpt>
      <trkpt lat="45.22195" lon="6.03482">
        <ele>1968.4000244141</ele>
        <time>2023-08-11T12:56:56.000Z</time>
      </trkpt>
      <trkpt lat="45.22191" lon="6.0348">
        <ele>1969</ele>
        <time>2023-08-11T12:57:02.000Z</time>
      </trkpt>
      <trkpt lat="45.22186" lon="6.03479">
        <ele>1969.4000244141</ele>
        <time>2023-08-11T12:57:07.000Z</time>
      </trkpt>
      <trkpt lat="45.22184" lon="6.03478">
        <ele>1969.5999755859</ele>
        <time>2023-08-11T12:57:10.000Z</time>
      </trkpt>
      <trkpt lat="45.22177" lon="6.03479">
        <ele>1970.1999511719</ele>
        <time>2023-08-11T12:57:19.000Z</time>
      </trkpt>
      <trkpt lat="45.22172" lon="6.03476">
        <ele>1970.5999755859</ele>
        <time>2023-08-11T12:57:27.000Z</time>
      </trkpt>
      <trkpt lat="45.22171" lon="6.03474">
        <ele>1971</ele>
        <time>2023-08-11T12:57:29.000Z</time>
      </trkpt>
      <trkpt lat="45.22168" lon="6.03471">
        <ele>1971.8000488281</ele>
        <time>2023-08-11T12:57:33.000Z</time>
      </trkpt>
      <trkpt lat="45.22168" lon="6.03471">
        <ele>1972</ele>
        <time>2023-08-11T12:57:34.000Z</time>
      </trkpt>
      <trkpt lat="45.22167" lon="6.03473">
        <ele>1972.4000244141</ele>
        <time>2023-08-11T12:57:36.000Z</time>
      </trkpt>
      <trkpt lat="45.22167" lon="6.03473">
        <ele>1973</ele>
        <time>2023-08-11T12:57:38.000Z</time>
      </trkpt>
      <trkpt lat="45.22166" lon="6.03472">
        <ele>1973.4000244141</ele>
        <time>2023-08-11T12:57:40.000Z</time>
      </trkpt>
      <trkpt lat="45.22161" lon="6.03469">
        <ele>1974</ele>
        <time>2023-08-11T12:57:47.000Z</time>
      </trkpt>
      <trkpt lat="45.22161" lon="6.03468">
        <ele>1974.4000244141</ele>
        <time>2023-08-11T12:57:48.000Z</time>
      </trkpt>
      <trkpt lat="45.2216" lon="6.03466">
        <ele>1975</ele>
        <time>2023-08-11T12:57:53.000Z</time>
      </trkpt>
      <trkpt lat="45.2216" lon="6.03465">
        <ele>1975.1999511719</ele>
        <time>2023-08-11T12:57:54.000Z</time>
      </trkpt>
      <trkpt lat="45.22159" lon="6.03463">
        <ele>1976.1999511719</ele>
        <time>2023-08-11T12:58:00.000Z</time>
      </trkpt>
      <trkpt lat="45.22155" lon="6.03462">
        <ele>1977.1999511719</ele>
        <time>2023-08-11T12:58:05.000Z</time>
      </trkpt>
      <trkpt lat="45.22155" lon="6.03462">
        <ele>1977.4000244141</ele>
        <time>2023-08-11T12:58:06.000Z</time>
      </trkpt>
      <trkpt lat="45.22149" lon="6.03457">
        <ele>1977.4000244141</ele>
        <time>2023-08-11T12:58:13.000Z</time>
      </trkpt>
      <trkpt lat="45.22146" lon="6.03456">
        <ele>1978.4000244141</ele>
        <time>2023-08-11T12:58:19.000Z</time>
      </trkpt>
      <trkpt lat="45.22145" lon="6.03456">
        <ele>1978.4000244141</ele>
        <time>2023-08-11T12:58:20.000Z</time>
      </trkpt>
      <trkpt lat="45.22137" lon="6.03456">
        <ele>1978.1999511719</ele>
        <time>2023-08-11T12:58:27.000Z</time>
      </trkpt>
      <trkpt lat="45.22135" lon="6.03454">
        <ele>1978.8000488281</ele>
        <time>2023-08-11T12:58:33.000Z</time>
      </trkpt>
      <trkpt lat="45.2213" lon="6.03452">
        <ele>1978.8000488281</ele>
        <time>2023-08-11T12:58:40.000Z</time>
      </trkpt>
      <trkpt lat="45.22129" lon="6.03454">
        <ele>1978.5999755859</ele>
        <time>2023-08-11T12:58:46.000Z</time>
      </trkpt>
      <trkpt lat="45.22123" lon="6.03453">
        <ele>1977.5999755859</ele>
        <time>2023-08-11T12:58:54.000Z</time>
      </trkpt>
      <trkpt lat="45.22117" lon="6.0345">
        <ele>1977.4000244141</ele>
        <time>2023-08-11T12:59:01.000Z</time>
      </trkpt>
      <trkpt lat="45.22115" lon="6.03447">
        <ele>1977.5999755859</ele>
        <time>2023-08-11T12:59:06.000Z</time>
      </trkpt>
      <trkpt lat="45.22111" lon="6.03443">
        <ele>1978.5999755859</ele>
        <time>2023-08-11T12:59:11.000Z</time>
      </trkpt>
      <trkpt lat="45.22106" lon="6.0344">
        <ele>1978.8000488281</ele>
        <time>2023-08-11T12:59:18.000Z</time>
      </trkpt>
      <trkpt lat="45.22103" lon="6.03437">
        <ele>1979.1999511719</ele>
        <time>2023-08-11T12:59:25.000Z</time>
      </trkpt>
      <trkpt lat="45.22103" lon="6.03436">
        <ele>1979.4000244141</ele>
        <time>2023-08-11T12:59:27.000Z</time>
      </trkpt>
      <trkpt lat="45.221" lon="6.03432">
        <ele>1980.4000244141</ele>
        <time>2023-08-11T12:59:32.000Z</time>
      </trkpt>
      <trkpt lat="45.22099" lon="6.03432">
        <ele>1980.4000244141</ele>
        <time>2023-08-11T12:59:33.000Z</time>
      </trkpt>
      <trkpt lat="45.22095" lon="6.03432">
        <ele>1980.5999755859</ele>
        <time>2023-08-11T12:59:38.000Z</time>
      </trkpt>
      <trkpt lat="45.22091" lon="6.0343">
        <ele>1980.4000244141</ele>
        <time>2023-08-11T12:59:44.000Z</time>
      </trkpt>
      <trkpt lat="45.22085" lon="6.0343">
        <ele>1980</ele>
        <time>2023-08-11T12:59:52.000Z</time>
      </trkpt>
      <trkpt lat="45.22083" lon="6.03431">
        <ele>1979.4000244141</ele>
        <time>2023-08-11T12:59:56.000Z</time>
      </trkpt>
      <trkpt lat="45.22082" lon="6.03432">
        <ele>1978.4000244141</ele>
        <time>2023-08-11T13:00:01.000Z</time>
      </trkpt>
      <trkpt lat="45.22077" lon="6.03431">
        <ele>1977.5999755859</ele>
        <time>2023-08-11T13:00:08.000Z</time>
      </trkpt>
      <trkpt lat="45.22072" lon="6.03428">
        <ele>1977.8000488281</ele>
        <time>2023-08-11T13:00:16.000Z</time>
      </trkpt>
      <trkpt lat="45.2207" lon="6.03425">
        <ele>1978.1999511719</ele>
        <time>2023-08-11T13:00:22.000Z</time>
      </trkpt>
      <trkpt lat="45.22067" lon="6.03426">
        <ele>1978.1999511719</ele>
        <time>2023-08-11T13:00:28.000Z</time>
      </trkpt>
      <trkpt lat="45.22064" lon="6.03428">
        <ele>1978.5999755859</ele>
        <time>2023-08-11T13:00:35.000Z</time>
      </trkpt>
      <trkpt lat="45.22059" lon="6.03431">
        <ele>1977.5999755859</ele>
        <time>2023-08-11T13:00:42.000Z</time>
      </trkpt>
      <trkpt lat="45.22058" lon="6.03433">
        <ele>1977.1999511719</ele>
        <time>2023-08-11T13:00:45.000Z</time>
      </trkpt>
      <trkpt lat="45.22053" lon="6.03437">
        <ele>1976.8000488281</ele>
        <time>2023-08-11T13:00:51.000Z</time>
      </trkpt>
      <trkpt lat="45.22045" lon="6.03442">
        <ele>1976.1999511719</ele>
        <time>2023-08-11T13:00:59.000Z</time>
      </trkpt>
      <trkpt lat="45.22044" lon="6.03442">
        <ele>1976.1999511719</ele>
        <time>2023-08-11T13:01:00.000Z</time>
      </trkpt>
      <trkpt lat="45.22037" lon="6.03443">
        <ele>1976</ele>
        <time>2023-08-11T13:01:07.000Z</time>
      </trkpt>
      <trkpt lat="45.22027" lon="6.03442">
        <ele>1976</ele>
        <time>2023-08-11T13:01:15.000Z</time>
      </trkpt>
      <trkpt lat="45.2202" lon="6.03443">
        <ele>1977</ele>
        <time>2023-08-11T13:01:24.000Z</time>
      </trkpt>
      <trkpt lat="45.22018" lon="6.03442">
        <ele>1977.1999511719</ele>
        <time>2023-08-11T13:01:27.000Z</time>
      </trkpt>
      <trkpt lat="45.22013" lon="6.03442">
        <ele>1978.1999511719</ele>
        <time>2023-08-11T13:01:32.000Z</time>
      </trkpt>
      <trkpt lat="45.22007" lon="6.03442">
        <ele>1979.4000244141</ele>
        <time>2023-08-11T13:01:39.000Z</time>
      </trkpt>
      <trkpt lat="45.22007" lon="6.03442">
        <ele>1979.4000244141</ele>
        <time>2023-08-11T13:01:40.000Z</time>
      </trkpt>
      <trkpt lat="45.22001" lon="6.03442">
        <ele>1980.4000244141</ele>
        <time>2023-08-11T13:01:48.000Z</time>
      </trkpt>
      <trkpt lat="45.22001" lon="6.03442">
        <ele>1980.5999755859</ele>
        <time>2023-08-11T13:01:49.000Z</time>
      </trkpt>
      <trkpt lat="45.21999" lon="6.03438">
        <ele>1981.1999511719</ele>
        <time>2023-08-11T13:01:56.000Z</time>
      </trkpt>
      <trkpt lat="45.21999" lon="6.03436">
        <ele>1981.5999755859</ele>
        <time>2023-08-11T13:01:58.000Z</time>
      </trkpt>
      <trkpt lat="45.21996" lon="6.03432">
        <ele>1982.1999511719</ele>
        <time>2023-08-11T13:02:04.000Z</time>
      </trkpt>
      <trkpt lat="45.21996" lon="6.03433">
        <ele>1982.5999755859</ele>
        <time>2023-08-11T13:02:06.000Z</time>
      </trkpt>
      <trkpt lat="45.21993" lon="6.03433">
        <ele>1983.1999511719</ele>
        <time>2023-08-11T13:02:11.000Z</time>
      </trkpt>
      <trkpt lat="45.21986" lon="6.03433">
        <ele>1983.5999755859</ele>
        <time>2023-08-11T13:02:19.000Z</time>
      </trkpt>
      <trkpt lat="45.21985" lon="6.03433">
        <ele>1983.5999755859</ele>
        <time>2023-08-11T13:02:20.000Z</time>
      </trkpt>
      <trkpt lat="45.2198" lon="6.03438">
        <ele>1983.1999511719</ele>
        <time>2023-08-11T13:02:28.000Z</time>
      </trkpt>
      <trkpt lat="45.21974" lon="6.03436">
        <ele>1983.5999755859</ele>
        <time>2023-08-11T13:02:36.000Z</time>
      </trkpt>
      <trkpt lat="45.21969" lon="6.03435">
        <ele>1984.1999511719</ele>
        <time>2023-08-11T13:02:44.000Z</time>
      </trkpt>
      <trkpt lat="45.21964" lon="6.03432">
        <ele>1984.4000244141</ele>
        <time>2023-08-11T13:02:51.000Z</time>
      </trkpt>
      <trkpt lat="45.21963" lon="6.03432">
        <ele>1984.8000488281</ele>
        <time>2023-08-11T13:02:54.000Z</time>
      </trkpt>
      <trkpt lat="45.2196" lon="6.03433">
        <ele>1985.5999755859</ele>
        <time>2023-08-11T13:02:59.000Z</time>
      </trkpt>
      <trkpt lat="45.21959" lon="6.03434">
        <ele>1985.8000488281</ele>
        <time>2023-08-11T13:03:00.000Z</time>
      </trkpt>
      <trkpt lat="45.21952" lon="6.03436">
        <ele>1986.4000244141</ele>
        <time>2023-08-11T13:03:06.000Z</time>
      </trkpt>
      <trkpt lat="45.2195" lon="6.03436">
        <ele>1987</ele>
        <time>2023-08-11T13:03:09.000Z</time>
      </trkpt>
      <trkpt lat="45.21947" lon="6.03435">
        <ele>1988</ele>
        <time>2023-08-11T13:03:14.000Z</time>
      </trkpt>
      <trkpt lat="45.21947" lon="6.03435">
        <ele>1988</ele>
        <time>2023-08-11T13:03:15.000Z</time>
      </trkpt>
      <trkpt lat="45.21947" lon="6.03431">
        <ele>1989.1999511719</ele>
        <time>2023-08-11T13:03:21.000Z</time>
      </trkpt>
      <trkpt lat="45.21947" lon="6.03431">
        <ele>1989.1999511719</ele>
        <time>2023-08-11T13:03:22.000Z</time>
      </trkpt>
      <trkpt lat="45.21942" lon="6.03425">
        <ele>1989.8000488281</ele>
        <time>2023-08-11T13:03:28.000Z</time>
      </trkpt>
      <trkpt lat="45.21938" lon="6.03426">
        <ele>1990.1999511719</ele>
        <time>2023-08-11T13:03:33.000Z</time>
      </trkpt>
      <trkpt lat="45.21937" lon="6.03427">
        <ele>1990.1999511719</ele>
        <time>2023-08-11T13:03:34.000Z</time>
      </trkpt>
      <trkpt lat="45.21937" lon="6.03427">
        <ele>1990.4000244141</ele>
        <time>2023-08-11T13:03:35.000Z</time>
      </trkpt>
      <trkpt lat="45.21933" lon="6.03428">
        <ele>1991.1999511719</ele>
        <time>2023-08-11T13:03:41.000Z</time>
      </trkpt>
      <trkpt lat="45.21929" lon="6.03427">
        <ele>1991.8000488281</ele>
        <time>2023-08-11T13:03:48.000Z</time>
      </trkpt>
      <trkpt lat="45.21929" lon="6.03427">
        <ele>1992.1999511719</ele>
        <time>2023-08-11T13:03:50.000Z</time>
      </trkpt>
      <trkpt lat="45.2193" lon="6.03428">
        <ele>1993.1999511719</ele>
        <time>2023-08-11T13:03:54.000Z</time>
      </trkpt>
      <trkpt lat="45.2193" lon="6.03427">
        <ele>1993.5999755859</ele>
        <time>2023-08-11T13:03:56.000Z</time>
      </trkpt>
      <trkpt lat="45.2193" lon="6.03424">
        <ele>1994.1999511719</ele>
        <time>2023-08-11T13:04:02.000Z</time>
      </trkpt>
      <trkpt lat="45.21929" lon="6.03421">
        <ele>1994.5999755859</ele>
        <time>2023-08-11T13:04:04.000Z</time>
      </trkpt>
      <trkpt lat="45.21927" lon="6.03421">
        <ele>1995.4000244141</ele>
        <time>2023-08-11T13:04:10.000Z</time>
      </trkpt>
      <trkpt lat="45.21924" lon="6.03422">
        <ele>1996.1999511719</ele>
        <time>2023-08-11T13:04:19.000Z</time>
      </trkpt>
      <trkpt lat="45.21924" lon="6.03423">
        <ele>1996.4000244141</ele>
        <time>2023-08-11T13:04:21.000Z</time>
      </trkpt>
      <trkpt lat="45.21919" lon="6.03421">
        <ele>1997.4000244141</ele>
        <time>2023-08-11T13:04:29.000Z</time>
      </trkpt>
      <trkpt lat="45.21916" lon="6.03419">
        <ele>1998.4000244141</ele>
        <time>2023-08-11T13:04:37.000Z</time>
      </trkpt>
      <trkpt lat="45.21916" lon="6.03419">
        <ele>1998.4000244141</ele>
        <time>2023-08-11T13:04:38.000Z</time>
      </trkpt>
      <trkpt lat="45.21913" lon="6.0342">
        <ele>1999.5999755859</ele>
        <time>2023-08-11T13:04:46.000Z</time>
      </trkpt>
      <trkpt lat="45.21913" lon="6.0342">
        <ele>1999.8000488281</ele>
        <time>2023-08-11T13:04:47.000Z</time>
      </trkpt>
      <trkpt lat="45.21912" lon="6.03414">
        <ele>2000.5999755859</ele>
        <time>2023-08-11T13:04:52.000Z</time>
      </trkpt>
      <trkpt lat="45.21912" lon="6.03415">
        <ele>2001</ele>
        <time>2023-08-11T13:04:55.000Z</time>
      </trkpt>
      <trkpt lat="45.21911" lon="6.03417">
        <ele>2001.5999755859</ele>
        <time>2023-08-11T13:04:59.000Z</time>
      </trkpt>
      <trkpt lat="45.2191" lon="6.03418">
        <ele>2002.1999511719</ele>
        <time>2023-08-11T13:05:04.000Z</time>
      </trkpt>
      <trkpt lat="45.21908" lon="6.03412">
        <ele>2002.1999511719</ele>
        <time>2023-08-11T13:05:13.000Z</time>
      </trkpt>
      <trkpt lat="45.21907" lon="6.03411">
        <ele>2002.8000488281</ele>
        <time>2023-08-11T13:05:18.000Z</time>
      </trkpt>
      <trkpt lat="45.21905" lon="6.03412">
        <ele>2003.1999511719</ele>
        <time>2023-08-11T13:05:20.000Z</time>
      </trkpt>
      <trkpt lat="45.219" lon="6.03414">
        <ele>2003.8000488281</ele>
        <time>2023-08-11T13:05:24.000Z</time>
      </trkpt>
      <trkpt lat="45.21899" lon="6.03414">
        <ele>2004.4000244141</ele>
        <time>2023-08-11T13:05:28.000Z</time>
      </trkpt>
      <trkpt lat="45.21897" lon="6.03413">
        <ele>2005.1999511719</ele>
        <time>2023-08-11T13:05:30.000Z</time>
      </trkpt>
      <trkpt lat="45.21897" lon="6.03411">
        <ele>2006.1999511719</ele>
        <time>2023-08-11T13:05:33.000Z</time>
      </trkpt>
      <trkpt lat="45.21897" lon="6.0341">
        <ele>2006.4000244141</ele>
        <time>2023-08-11T13:05:34.000Z</time>
      </trkpt>
      <trkpt lat="45.21896" lon="6.03405">
        <ele>2007.4000244141</ele>
        <time>2023-08-11T13:05:39.000Z</time>
      </trkpt>
      <trkpt lat="45.21896" lon="6.03405">
        <ele>2007.5999755859</ele>
        <time>2023-08-11T13:05:40.000Z</time>
      </trkpt>
      <trkpt lat="45.21892" lon="6.034">
        <ele>2008</ele>
        <time>2023-08-11T13:05:47.000Z</time>
      </trkpt>
      <trkpt lat="45.21887" lon="6.0339">
        <ele>2008.1999511719</ele>
        <time>2023-08-11T13:05:54.000Z</time>
      </trkpt>
      <trkpt lat="45.21886" lon="6.03386">
        <ele>2008.5999755859</ele>
        <time>2023-08-11T13:05:57.000Z</time>
      </trkpt>
      <trkpt lat="45.21884" lon="6.0338">
        <ele>2008.8000488281</ele>
        <time>2023-08-11T13:06:02.000Z</time>
      </trkpt>
      <trkpt lat="45.21878" lon="6.03372">
        <ele>2009</ele>
        <time>2023-08-11T13:06:11.000Z</time>
      </trkpt>
      <trkpt lat="45.21874" lon="6.0337">
        <ele>2009.8000488281</ele>
        <time>2023-08-11T13:06:15.000Z</time>
      </trkpt>
      <trkpt lat="45.21874" lon="6.03369">
        <ele>2009.8000488281</ele>
        <time>2023-08-11T13:06:16.000Z</time>
      </trkpt>
      <trkpt lat="45.21873" lon="6.03366">
        <ele>2010.8000488281</ele>
        <time>2023-08-11T13:06:20.000Z</time>
      </trkpt>
      <trkpt lat="45.2187" lon="6.03364">
        <ele>2011.4000244141</ele>
        <time>2023-08-11T13:06:23.000Z</time>
      </trkpt>
      <trkpt lat="45.21866" lon="6.03358">
        <ele>2012</ele>
        <time>2023-08-11T13:06:29.000Z</time>
      </trkpt>
      <trkpt lat="45.21865" lon="6.03357">
        <ele>2012</ele>
        <time>2023-08-11T13:06:30.000Z</time>
      </trkpt>
      <trkpt lat="45.21861" lon="6.03352">
        <ele>2012.5999755859</ele>
        <time>2023-08-11T13:06:36.000Z</time>
      </trkpt>
      <trkpt lat="45.2186" lon="6.03349">
        <ele>2013</ele>
        <time>2023-08-11T13:06:40.000Z</time>
      </trkpt>
      <trkpt lat="45.21858" lon="6.03347">
        <ele>2013.1999511719</ele>
        <time>2023-08-11T13:06:42.000Z</time>
      </trkpt>
      <trkpt lat="45.21853" lon="6.03344">
        <ele>2014</ele>
        <time>2023-08-11T13:06:47.000Z</time>
      </trkpt>
      <trkpt lat="45.21851" lon="6.03342">
        <ele>2014.1999511719</ele>
        <time>2023-08-11T13:06:49.000Z</time>
      </trkpt>
      <trkpt lat="45.2185" lon="6.0334">
        <ele>2015.4000244141</ele>
        <time>2023-08-11T13:06:51.000Z</time>
      </trkpt>
      <trkpt lat="45.21847" lon="6.03337">
        <ele>2015.4000244141</ele>
        <time>2023-08-11T13:06:55.000Z</time>
      </trkpt>
      <trkpt lat="45.21841" lon="6.03335">
        <ele>2015.8000488281</ele>
        <time>2023-08-11T13:07:02.000Z</time>
      </trkpt>
      <trkpt lat="45.21838" lon="6.03333">
        <ele>2016.4000244141</ele>
        <time>2023-08-11T13:07:08.000Z</time>
      </trkpt>
      <trkpt lat="45.21833" lon="6.03331">
        <ele>2017.5999755859</ele>
        <time>2023-08-11T13:07:13.000Z</time>
      </trkpt>
      <trkpt lat="45.21832" lon="6.03329">
        <ele>2017.8000488281</ele>
        <time>2023-08-11T13:07:15.000Z</time>
      </trkpt>
      <trkpt lat="45.21828" lon="6.03321">
        <ele>2018.8000488281</ele>
        <time>2023-08-11T13:07:21.000Z</time>
      </trkpt>
      <trkpt lat="45.21827" lon="6.03319">
        <ele>2019.1999511719</ele>
        <time>2023-08-11T13:07:23.000Z</time>
      </trkpt>
      <trkpt lat="45.21824" lon="6.0331">
        <ele>2019.4000244141</ele>
        <time>2023-08-11T13:07:30.000Z</time>
      </trkpt>
      <trkpt lat="45.21822" lon="6.03304">
        <ele>2019.8000488281</ele>
        <time>2023-08-11T13:07:35.000Z</time>
      </trkpt>
      <trkpt lat="45.2182" lon="6.03303">
        <ele>2020</ele>
        <time>2023-08-11T13:07:37.000Z</time>
      </trkpt>
      <trkpt lat="45.21816" lon="6.03297">
        <ele>2021</ele>
        <time>2023-08-11T13:07:44.000Z</time>
      </trkpt>
      <trkpt lat="45.21812" lon="6.0329">
        <ele>2021.1999511719</ele>
        <time>2023-08-11T13:07:51.000Z</time>
      </trkpt>
      <trkpt lat="45.21809" lon="6.03285">
        <ele>2021.4000244141</ele>
        <time>2023-08-11T13:07:59.000Z</time>
      </trkpt>
      <trkpt lat="45.21808" lon="6.03286">
        <ele>2020.5999755859</ele>
        <time>2023-08-11T13:08:04.000Z</time>
      </trkpt>
      <trkpt lat="45.21808" lon="6.03286">
        <ele>2020.5999755859</ele>
        <time>2023-08-11T13:08:08.000Z</time>
      </trkpt>
      <trkpt lat="45.21807" lon="6.03284">
        <ele>2020.5999755859</ele>
        <time>2023-08-11T13:08:14.000Z</time>
      </trkpt>
      <trkpt lat="45.21805" lon="6.03281">
        <ele>2019.8000488281</ele>
        <time>2023-08-11T13:08:18.000Z</time>
      </trkpt>
      <trkpt lat="45.21802" lon="6.0328">
        <ele>2019.8000488281</ele>
        <time>2023-08-11T13:08:22.000Z</time>
      </trkpt>
      <trkpt lat="45.21798" lon="6.03279">
        <ele>2019.8000488281</ele>
        <time>2023-08-11T13:08:27.000Z</time>
      </trkpt>
      <trkpt lat="45.21796" lon="6.03278">
        <ele>2018.8000488281</ele>
        <time>2023-08-11T13:08:32.000Z</time>
      </trkpt>
      <trkpt lat="45.21795" lon="6.03276">
        <ele>2018.5999755859</ele>
        <time>2023-08-11T13:08:36.000Z</time>
      </trkpt>
      <trkpt lat="45.21793" lon="6.03271">
        <ele>2017.8000488281</ele>
        <time>2023-08-11T13:08:41.000Z</time>
      </trkpt>
      <trkpt lat="45.21793" lon="6.0327">
        <ele>2017.5999755859</ele>
        <time>2023-08-11T13:08:43.000Z</time>
      </trkpt>
      <trkpt lat="45.21792" lon="6.03263">
        <ele>2016.5999755859</ele>
        <time>2023-08-11T13:08:48.000Z</time>
      </trkpt>
      <trkpt lat="45.21793" lon="6.03257">
        <ele>2015.5999755859</ele>
        <time>2023-08-11T13:08:51.000Z</time>
      </trkpt>
      <trkpt lat="45.21792" lon="6.03247">
        <ele>2014.4000244141</ele>
        <time>2023-08-11T13:08:57.000Z</time>
      </trkpt>
      <trkpt lat="45.21791" lon="6.03244">
        <ele>2014</ele>
        <time>2023-08-11T13:08:59.000Z</time>
      </trkpt>
      <trkpt lat="45.21789" lon="6.03237">
        <ele>2013.1999511719</ele>
        <time>2023-08-11T13:09:04.000Z</time>
      </trkpt>
      <trkpt lat="45.21789" lon="6.03233">
        <ele>2012.8000488281</ele>
        <time>2023-08-11T13:09:07.000Z</time>
      </trkpt>
      <trkpt lat="45.21789" lon="6.03231">
        <ele>2012.1999511719</ele>
        <time>2023-08-11T13:09:10.000Z</time>
      </trkpt>
      <trkpt lat="45.21788" lon="6.03227">
        <ele>2011.5999755859</ele>
        <time>2023-08-11T13:09:13.000Z</time>
      </trkpt>
      <trkpt lat="45.21787" lon="6.03226">
        <ele>2011.1999511719</ele>
        <time>2023-08-11T13:09:16.000Z</time>
      </trkpt>
      <trkpt lat="45.21785" lon="6.03221">
        <ele>2010.5999755859</ele>
        <time>2023-08-11T13:09:20.000Z</time>
      </trkpt>
      <trkpt lat="45.21785" lon="6.03218">
        <ele>2010</ele>
        <time>2023-08-11T13:09:22.000Z</time>
      </trkpt>
      <trkpt lat="45.21784" lon="6.03212">
        <ele>2009</ele>
        <time>2023-08-11T13:09:25.000Z</time>
      </trkpt>
      <trkpt lat="45.21784" lon="6.0321">
        <ele>2009</ele>
        <time>2023-08-11T13:09:27.000Z</time>
      </trkpt>
      <trkpt lat="45.21782" lon="6.03198">
        <ele>2009.1999511719</ele>
        <time>2023-08-11T13:09:34.000Z</time>
      </trkpt>
      <trkpt lat="45.2178" lon="6.03188">
        <ele>2008.8000488281</ele>
        <time>2023-08-11T13:09:42.000Z</time>
      </trkpt>
      <trkpt lat="45.21778" lon="6.03181">
        <ele>2008.1999511719</ele>
        <time>2023-08-11T13:09:49.000Z</time>
      </trkpt>
      <trkpt lat="45.21778" lon="6.03168">
        <ele>2008.5999755859</ele>
        <time>2023-08-11T13:09:58.000Z</time>
      </trkpt>
      <trkpt lat="45.21777" lon="6.03159">
        <ele>2008.5999755859</ele>
        <time>2023-08-11T13:10:04.000Z</time>
      </trkpt>
      <trkpt lat="45.21777" lon="6.03154">
        <ele>2008.5999755859</ele>
        <time>2023-08-11T13:10:10.000Z</time>
      </trkpt>
      <trkpt lat="45.21776" lon="6.0315">
        <ele>2008</ele>
        <time>2023-08-11T13:10:15.000Z</time>
      </trkpt>
      <trkpt lat="45.21775" lon="6.0315">
        <ele>2007.4000244141</ele>
        <time>2023-08-11T13:10:17.000Z</time>
      </trkpt>
      <trkpt lat="45.21773" lon="6.03146">
        <ele>2006.8000488281</ele>
        <time>2023-08-11T13:10:21.000Z</time>
      </trkpt>
      <trkpt lat="45.21772" lon="6.03145">
        <ele>2005.5999755859</ele>
        <time>2023-08-11T13:10:24.000Z</time>
      </trkpt>
      <trkpt lat="45.21772" lon="6.03145">
        <ele>2005.4000244141</ele>
        <time>2023-08-11T13:10:25.000Z</time>
      </trkpt>
      <trkpt lat="45.2177" lon="6.03144">
        <ele>2004.5999755859</ele>
        <time>2023-08-11T13:10:30.000Z</time>
      </trkpt>
      <trkpt lat="45.21769" lon="6.03144">
        <ele>2004</ele>
        <time>2023-08-11T13:10:32.000Z</time>
      </trkpt>
      <trkpt lat="45.21768" lon="6.0314">
        <ele>2003.4000244141</ele>
        <time>2023-08-11T13:10:39.000Z</time>
      </trkpt>
      <trkpt lat="45.21767" lon="6.03139">
        <ele>2002.1999511719</ele>
        <time>2023-08-11T13:10:46.000Z</time>
      </trkpt>
      <trkpt lat="45.21766" lon="6.0314">
        <ele>2002</ele>
        <time>2023-08-11T13:10:47.000Z</time>
      </trkpt>
      <trkpt lat="45.21764" lon="6.03144">
        <ele>2001.8000488281</ele>
        <time>2023-08-11T13:10:57.000Z</time>
      </trkpt>
      <trkpt lat="45.21767" lon="6.03138">
        <ele>2001.5999755859</ele>
        <time>2023-08-11T13:11:06.000Z</time>
      </trkpt>
      <trkpt lat="45.21767" lon="6.03133">
        <ele>2001</ele>
        <time>2023-08-11T13:11:12.000Z</time>
      </trkpt>
      <trkpt lat="45.21768" lon="6.03132">
        <ele>2000.5999755859</ele>
        <time>2023-08-11T13:11:13.000Z</time>
      </trkpt>
      <trkpt lat="45.21767" lon="6.03129">
        <ele>2000</ele>
        <time>2023-08-11T13:11:18.000Z</time>
      </trkpt>
      <trkpt lat="45.21766" lon="6.03129">
        <ele>1999</ele>
        <time>2023-08-11T13:11:21.000Z</time>
      </trkpt>
      <trkpt lat="45.21765" lon="6.03129">
        <ele>1998.8000488281</ele>
        <time>2023-08-11T13:11:22.000Z</time>
      </trkpt>
      <trkpt lat="45.21762" lon="6.03124">
        <ele>1997.8000488281</ele>
        <time>2023-08-11T13:11:28.000Z</time>
      </trkpt>
      <trkpt lat="45.21761" lon="6.03123">
        <ele>1997.4000244141</ele>
        <time>2023-08-11T13:11:30.000Z</time>
      </trkpt>
      <trkpt lat="45.21758" lon="6.03119">
        <ele>1996.4000244141</ele>
        <time>2023-08-11T13:11:34.000Z</time>
      </trkpt>
      <trkpt lat="45.21756" lon="6.03116">
        <ele>1995.1999511719</ele>
        <time>2023-08-11T13:11:38.000Z</time>
      </trkpt>
      <trkpt lat="45.21752" lon="6.0311">
        <ele>1994.1999511719</ele>
        <time>2023-08-11T13:11:45.000Z</time>
      </trkpt>
      <trkpt lat="45.21751" lon="6.03109">
        <ele>1993.8000488281</ele>
        <time>2023-08-11T13:11:46.000Z</time>
      </trkpt>
      <trkpt lat="45.21749" lon="6.03105">
        <ele>1993</ele>
        <time>2023-08-11T13:11:50.000Z</time>
      </trkpt>
      <trkpt lat="45.2175" lon="6.03101">
        <ele>1992.5999755859</ele>
        <time>2023-08-11T13:11:53.000Z</time>
      </trkpt>
      <trkpt lat="45.2175" lon="6.03097">
        <ele>1992.4000244141</ele>
        <time>2023-08-11T13:11:59.000Z</time>
      </trkpt>
      <trkpt lat="45.21748" lon="6.03091">
        <ele>1992</ele>
        <time>2023-08-11T13:12:04.000Z</time>
      </trkpt>
      <trkpt lat="45.21748" lon="6.0309">
        <ele>1992</ele>
        <time>2023-08-11T13:12:05.000Z</time>
      </trkpt>
      <trkpt lat="45.21748" lon="6.03088">
        <ele>1991.1999511719</ele>
        <time>2023-08-11T13:12:12.000Z</time>
      </trkpt>
      <trkpt lat="45.21748" lon="6.03085">
        <ele>1991</ele>
        <time>2023-08-11T13:12:15.000Z</time>
      </trkpt>
      <trkpt lat="45.21746" lon="6.0308">
        <ele>1989.8000488281</ele>
        <time>2023-08-11T13:12:21.000Z</time>
      </trkpt>
      <trkpt lat="45.21744" lon="6.03078">
        <ele>1988.8000488281</ele>
        <time>2023-08-11T13:12:28.000Z</time>
      </trkpt>
      <trkpt lat="45.21743" lon="6.03077">
        <ele>1988.4000244141</ele>
        <time>2023-08-11T13:12:30.000Z</time>
      </trkpt>
      <trkpt lat="45.21742" lon="6.03077">
        <ele>1987.5999755859</ele>
        <time>2023-08-11T13:12:32.000Z</time>
      </trkpt>
      <trkpt lat="45.21738" lon="6.03076">
        <ele>1986.5999755859</ele>
        <time>2023-08-11T13:12:37.000Z</time>
      </trkpt>
      <trkpt lat="45.21737" lon="6.03075">
        <ele>1986.5999755859</ele>
        <time>2023-08-11T13:12:38.000Z</time>
      </trkpt>
      <trkpt lat="45.21735" lon="6.03076">
        <ele>1986.4000244141</ele>
        <time>2023-08-11T13:12:43.000Z</time>
      </trkpt>
      <trkpt lat="45.21727" lon="6.03074">
        <ele>1986</ele>
        <time>2023-08-11T13:12:52.000Z</time>
      </trkpt>
      <trkpt lat="45.21724" lon="6.03073">
        <ele>1986.8000488281</ele>
        <time>2023-08-11T13:13:00.000Z</time>
      </trkpt>
      <trkpt lat="45.21723" lon="6.0307">
        <ele>1986.5999755859</ele>
        <time>2023-08-11T13:13:07.000Z</time>
      </trkpt>
      <trkpt lat="45.21718" lon="6.03067">
        <ele>1986.4000244141</ele>
        <time>2023-08-11T13:13:15.000Z</time>
      </trkpt>
      <trkpt lat="45.21711" lon="6.03064">
        <ele>1985.5999755859</ele>
        <time>2023-08-11T13:13:23.000Z</time>
      </trkpt>
      <trkpt lat="45.21708" lon="6.03059">
        <ele>1985.4000244141</ele>
        <time>2023-08-11T13:13:30.000Z</time>
      </trkpt>
      <trkpt lat="45.21707" lon="6.03056">
        <ele>1984.4000244141</ele>
        <time>2023-08-11T13:13:36.000Z</time>
      </trkpt>
      <trkpt lat="45.21708" lon="6.03056">
        <ele>1984</ele>
        <time>2023-08-11T13:13:38.000Z</time>
      </trkpt>
      <trkpt lat="45.21709" lon="6.03057">
        <ele>1983.1999511719</ele>
        <time>2023-08-11T13:13:40.000Z</time>
      </trkpt>
      <trkpt lat="45.21711" lon="6.03058">
        <ele>1982</ele>
        <time>2023-08-11T13:13:43.000Z</time>
      </trkpt>
      <trkpt lat="45.21712" lon="6.03059">
        <ele>1981.1999511719</ele>
        <time>2023-08-11T13:13:45.000Z</time>
      </trkpt>
      <trkpt lat="45.21713" lon="6.03058">
        <ele>1981</ele>
        <time>2023-08-11T13:13:47.000Z</time>
      </trkpt>
      <trkpt lat="45.21714" lon="6.03054">
        <ele>1980.5999755859</ele>
        <time>2023-08-11T13:13:52.000Z</time>
      </trkpt>
      <trkpt lat="45.21711" lon="6.03049">
        <ele>1980.1999511719</ele>
        <time>2023-08-11T13:13:59.000Z</time>
      </trkpt>
      <trkpt lat="45.21709" lon="6.03047">
        <ele>1979.8000488281</ele>
        <time>2023-08-11T13:14:01.000Z</time>
      </trkpt>
      <trkpt lat="45.21706" lon="6.03045">
        <ele>1979.4000244141</ele>
        <time>2023-08-11T13:14:05.000Z</time>
      </trkpt>
      <trkpt lat="45.21704" lon="6.03039">
        <ele>1979.1999511719</ele>
        <time>2023-08-11T13:14:11.000Z</time>
      </trkpt>
      <trkpt lat="45.21703" lon="6.03035">
        <ele>1978.8000488281</ele>
        <time>2023-08-11T13:14:16.000Z</time>
      </trkpt>
      <trkpt lat="45.21702" lon="6.03035">
        <ele>1978.8000488281</ele>
        <time>2023-08-11T13:14:19.000Z</time>
      </trkpt>
      <trkpt lat="45.21704" lon="6.0304">
        <ele>1978.5999755859</ele>
        <time>2023-08-11T13:14:27.000Z</time>
      </trkpt>
      <trkpt lat="45.21705" lon="6.03039">
        <ele>1979</ele>
        <time>2023-08-11T13:14:34.000Z</time>
      </trkpt>
      <trkpt lat="45.21708" lon="6.03045">
        <ele>1978.8000488281</ele>
        <time>2023-08-11T13:14:39.000Z</time>
      </trkpt>
      <trkpt lat="45.21713" lon="6.03051">
        <ele>1978.8000488281</ele>
        <time>2023-08-11T13:14:45.000Z</time>
      </trkpt>
      <trkpt lat="45.21716" lon="6.03052">
        <ele>1978.8000488281</ele>
        <time>2023-08-11T13:14:49.000Z</time>
      </trkpt>
      <trkpt lat="45.21719" lon="6.03052">
        <ele>1978.5999755859</ele>
        <time>2023-08-11T13:14:51.000Z</time>
      </trkpt>
      <trkpt lat="45.21727" lon="6.03052">
        <ele>1978.4000244141</ele>
        <time>2023-08-11T13:14:59.000Z</time>
      </trkpt>
      <trkpt lat="45.21735" lon="6.03048">
        <ele>1978.4000244141</ele>
        <time>2023-08-11T13:15:05.000Z</time>
      </trkpt>
      <trkpt lat="45.21741" lon="6.03044">
        <ele>1978.8000488281</ele>
        <time>2023-08-11T13:15:12.000Z</time>
      </trkpt>
      <trkpt lat="45.21744" lon="6.03045">
        <ele>1979.8000488281</ele>
        <time>2023-08-11T13:15:18.000Z</time>
      </trkpt>
      <trkpt lat="45.21745" lon="6.03045">
        <ele>1980</ele>
        <time>2023-08-11T13:15:19.000Z</time>
      </trkpt>
      <trkpt lat="45.21748" lon="6.03044">
        <ele>1981</ele>
        <time>2023-08-11T13:15:23.000Z</time>
      </trkpt>
      <trkpt lat="45.2175" lon="6.03043">
        <ele>1981.4000244141</ele>
        <time>2023-08-11T13:15:26.000Z</time>
      </trkpt>
      <trkpt lat="45.2175" lon="6.0304">
        <ele>1982</ele>
        <time>2023-08-11T13:15:29.000Z</time>
      </trkpt>
      <trkpt lat="45.21751" lon="6.03037">
        <ele>1982.1999511719</ele>
        <time>2023-08-11T13:15:31.000Z</time>
      </trkpt>
      <trkpt lat="45.21752" lon="6.03031">
        <ele>1982.8000488281</ele>
        <time>2023-08-11T13:15:38.000Z</time>
      </trkpt>
      <trkpt lat="45.21752" lon="6.03025">
        <ele>1983</ele>
        <time>2023-08-11T13:15:45.000Z</time>
      </trkpt>
      <trkpt lat="45.21752" lon="6.03022">
        <ele>1983</ele>
        <time>2023-08-11T13:15:47.000Z</time>
      </trkpt>
      <trkpt lat="45.21752" lon="6.03019">
        <ele>1983.5999755859</ele>
        <time>2023-08-11T13:15:51.000Z</time>
      </trkpt>
      <trkpt lat="45.21752" lon="6.03014">
        <ele>1984.1999511719</ele>
        <time>2023-08-11T13:15:58.000Z</time>
      </trkpt>
      <trkpt lat="45.21752" lon="6.03016">
        <ele>1985.1999511719</ele>
        <time>2023-08-11T13:16:03.000Z</time>
      </trkpt>
      <trkpt lat="45.21751" lon="6.03017">
        <ele>1985.4000244141</ele>
        <time>2023-08-11T13:16:06.000Z</time>
      </trkpt>
      <trkpt lat="45.21752" lon="6.03014">
        <ele>1986.1999511719</ele>
        <time>2023-08-11T13:16:11.000Z</time>
      </trkpt>
      <trkpt lat="45.21753" lon="6.0301">
        <ele>1986.5999755859</ele>
        <time>2023-08-11T13:16:14.000Z</time>
      </trkpt>
      <trkpt lat="45.21754" lon="6.03009">
        <ele>1987.5999755859</ele>
        <time>2023-08-11T13:16:17.000Z</time>
      </trkpt>
      <trkpt lat="45.21756" lon="6.03006">
        <ele>1988.1999511719</ele>
        <time>2023-08-11T13:16:20.000Z</time>
      </trkpt>
      <trkpt lat="45.21757" lon="6.03005">
        <ele>1988.8000488281</ele>
        <time>2023-08-11T13:16:24.000Z</time>
      </trkpt>
      <trkpt lat="45.21758" lon="6.03005">
        <ele>1989.1999511719</ele>
        <time>2023-08-11T13:16:27.000Z</time>
      </trkpt>
      <trkpt lat="45.21758" lon="6.03007">
        <ele>1989.8000488281</ele>
        <time>2023-08-11T13:16:30.000Z</time>
      </trkpt>
      <trkpt lat="45.21759" lon="6.03007">
        <ele>1990.4000244141</ele>
        <time>2023-08-11T13:16:33.000Z</time>
      </trkpt>
      <trkpt lat="45.2176" lon="6.03006">
        <ele>1990.8000488281</ele>
        <time>2023-08-11T13:16:35.000Z</time>
      </trkpt>
      <trkpt lat="45.2176" lon="6.03005">
        <ele>1991.1999511719</ele>
        <time>2023-08-11T13:16:37.000Z</time>
      </trkpt>
      <trkpt lat="45.21763" lon="6.03001">
        <ele>1991.8000488281</ele>
        <time>2023-08-11T13:16:43.000Z</time>
      </trkpt>
      <trkpt lat="45.21763" lon="6.03001">
        <ele>1992.1999511719</ele>
        <time>2023-08-11T13:16:44.000Z</time>
      </trkpt>
      <trkpt lat="45.21766" lon="6.02994">
        <ele>1993</ele>
        <time>2023-08-11T13:16:51.000Z</time>
      </trkpt>
      <trkpt lat="45.21766" lon="6.02993">
        <ele>1993.1999511719</ele>
        <time>2023-08-11T13:16:52.000Z</time>
      </trkpt>
      <trkpt lat="45.21769" lon="6.02985">
        <ele>1994.1999511719</ele>
        <time>2023-08-11T13:16:58.000Z</time>
      </trkpt>
      <trkpt lat="45.21769" lon="6.02985">
        <ele>1994.1999511719</ele>
        <time>2023-08-11T13:16:59.000Z</time>
      </trkpt>
      <trkpt lat="45.21767" lon="6.02982">
        <ele>1994.4000244141</ele>
        <time>2023-08-11T13:17:05.000Z</time>
      </trkpt>
      <trkpt lat="45.21767" lon="6.02978">
        <ele>1994.1999511719</ele>
        <time>2023-08-11T13:17:12.000Z</time>
      </trkpt>
      <trkpt lat="45.21767" lon="6.02979">
        <ele>1994.4000244141</ele>
        <time>2023-08-11T13:17:24.000Z</time>
      </trkpt>
      <trkpt lat="45.21772" lon="6.02975">
        <ele>1994.4000244141</ele>
        <time>2023-08-11T13:17:39.000Z</time>
      </trkpt>
      <trkpt lat="45.21773" lon="6.02973">
        <ele>1995.1999511719</ele>
        <time>2023-08-11T13:17:44.000Z</time>
      </trkpt>
      <trkpt lat="45.21773" lon="6.02971">
        <ele>1996</ele>
        <time>2023-08-11T13:17:46.000Z</time>
      </trkpt>
      <trkpt lat="45.21773" lon="6.02971">
        <ele>1996.4000244141</ele>
        <time>2023-08-11T13:17:47.000Z</time>
      </trkpt>
      <trkpt lat="45.21774" lon="6.02968">
        <ele>1997.4000244141</ele>
        <time>2023-08-11T13:17:52.000Z</time>
      </trkpt>
      <trkpt lat="45.21776" lon="6.02962">
        <ele>1998.5999755859</ele>
        <time>2023-08-11T13:17:57.000Z</time>
      </trkpt>
      <trkpt lat="45.21776" lon="6.02961">
        <ele>1999.4000244141</ele>
        <time>2023-08-11T13:17:59.000Z</time>
      </trkpt>
      <trkpt lat="45.21776" lon="6.0296">
        <ele>1999.8000488281</ele>
        <time>2023-08-11T13:18:01.000Z</time>
      </trkpt>
      <trkpt lat="45.21775" lon="6.0296">
        <ele>2000</ele>
        <time>2023-08-11T13:18:06.000Z</time>
      </trkpt>
      <trkpt lat="45.21777" lon="6.02956">
        <ele>2000.8000488281</ele>
        <time>2023-08-11T13:18:12.000Z</time>
      </trkpt>
      <trkpt lat="45.21776" lon="6.02957">
        <ele>2000.8000488281</ele>
        <time>2023-08-11T13:18:13.000Z</time>
      </trkpt>
      <trkpt lat="45.21775" lon="6.02964">
        <ele>2000.4000244141</ele>
        <time>2023-08-11T13:18:20.000Z</time>
      </trkpt>
      <trkpt lat="45.21775" lon="6.02965">
        <ele>1999.8000488281</ele>
        <time>2023-08-11T13:18:23.000Z</time>
      </trkpt>
      <trkpt lat="45.21774" lon="6.02964">
        <ele>1999.5999755859</ele>
        <time>2023-08-11T13:18:24.000Z</time>
      </trkpt>
      <trkpt lat="45.21774" lon="6.02964">
        <ele>1998.8000488281</ele>
        <time>2023-08-11T13:18:26.000Z</time>
      </trkpt>
      <trkpt lat="45.21774" lon="6.02964">
        <ele>1998.4000244141</ele>
        <time>2023-08-11T13:18:27.000Z</time>
      </trkpt>
      <trkpt lat="45.21773" lon="6.02966">
        <ele>1997.8000488281</ele>
        <time>2023-08-11T13:18:29.000Z</time>
      </trkpt>
      <trkpt lat="45.21773" lon="6.02966">
        <ele>1997.5999755859</ele>
        <time>2023-08-11T13:18:30.000Z</time>
      </trkpt>
      <trkpt lat="45.21772" lon="6.02966">
        <ele>1997</ele>
        <time>2023-08-11T13:18:32.000Z</time>
      </trkpt>
      <trkpt lat="45.21772" lon="6.02967">
        <ele>1996.5999755859</ele>
        <time>2023-08-11T13:18:34.000Z</time>
      </trkpt>
      <trkpt lat="45.21771" lon="6.02968">
        <ele>1996.4000244141</ele>
        <time>2023-08-11T13:18:35.000Z</time>
      </trkpt>
      <trkpt lat="45.21769" lon="6.02973">
        <ele>1995.8000488281</ele>
        <time>2023-08-11T13:18:47.000Z</time>
      </trkpt>
      <trkpt lat="45.21764" lon="6.02975">
        <ele>1995</ele>
        <time>2023-08-11T13:18:57.000Z</time>
      </trkpt>
      <trkpt lat="45.21765" lon="6.02978">
        <ele>1995.1999511719</ele>
        <time>2023-08-11T13:19:04.000Z</time>
      </trkpt>
      <trkpt lat="45.21766" lon="6.02974">
        <ele>1995</ele>
        <time>2023-08-11T13:19:13.000Z</time>
      </trkpt>
      <trkpt lat="45.21766" lon="6.02973">
        <ele>1994.4000244141</ele>
        <time>2023-08-11T13:19:19.000Z</time>
      </trkpt>
      <trkpt lat="45.21767" lon="6.02973">
        <ele>1994.1999511719</ele>
        <time>2023-08-11T13:19:21.000Z</time>
      </trkpt>
      <trkpt lat="45.21768" lon="6.02971">
        <ele>1994.4000244141</ele>
        <time>2023-08-11T13:19:27.000Z</time>
      </trkpt>
      <trkpt lat="45.2177" lon="6.0297">
        <ele>1994</ele>
        <time>2023-08-11T13:19:33.000Z</time>
      </trkpt>
      <trkpt lat="45.21767" lon="6.02971">
        <ele>1993.8000488281</ele>
        <time>2023-08-11T13:19:43.000Z</time>
      </trkpt>
      <trkpt lat="45.21767" lon="6.02972">
        <ele>1993.8000488281</ele>
        <time>2023-08-11T13:20:10.000Z</time>
      </trkpt>
      <trkpt lat="45.21766" lon="6.02974">
        <ele>1993.8000488281</ele>
        <time>2023-08-11T13:20:13.000Z</time>
      </trkpt>
      <trkpt lat="45.21773" lon="6.02962">
        <ele>1997</ele>
        <time>2023-08-11T13:34:23.000Z</time>
      </trkpt>
      <trkpt lat="45.21772" lon="6.02963">
        <ele>1997.4000244141</ele>
        <time>2023-08-11T13:34:24.000Z</time>
      </trkpt>
      <trkpt lat="45.2177" lon="6.02962">
        <ele>1996.5999755859</ele>
        <time>2023-08-11T13:34:38.000Z</time>
      </trkpt>
      <trkpt lat="45.21765" lon="6.02965">
        <ele>1996.5999755859</ele>
        <time>2023-08-11T13:34:46.000Z</time>
      </trkpt>
      <trkpt lat="45.21779" lon="6.02957">
        <ele>1998.5999755859</ele>
        <time>2023-08-11T13:35:16.000Z</time>
      </trkpt>
      <trkpt lat="45.21776" lon="6.02957">
        <ele>1998.1999511719</ele>
        <time>2023-08-11T13:35:50.000Z</time>
      </trkpt>
      <trkpt lat="45.21776" lon="6.02954">
        <ele>1997.1999511719</ele>
        <time>2023-08-11T13:35:54.000Z</time>
      </trkpt>
      <trkpt lat="45.21776" lon="6.02952">
        <ele>1996.8000488281</ele>
        <time>2023-08-11T13:35:56.000Z</time>
      </trkpt>
      <trkpt lat="45.21776" lon="6.02946">
        <ele>1996.8000488281</ele>
        <time>2023-08-11T13:36:02.000Z</time>
      </trkpt>
      <trkpt lat="45.21778" lon="6.02942">
        <ele>1995.4000244141</ele>
        <time>2023-08-11T13:36:06.000Z</time>
      </trkpt>
      <trkpt lat="45.21779" lon="6.02938">
        <ele>1994.4000244141</ele>
        <time>2023-08-11T13:36:09.000Z</time>
      </trkpt>
      <trkpt lat="45.2178" lon="6.02937">
        <ele>1994</ele>
        <time>2023-08-11T13:36:10.000Z</time>
      </trkpt>
      <trkpt lat="45.21782" lon="6.02927">
        <ele>1993.4000244141</ele>
        <time>2023-08-11T13:36:16.000Z</time>
      </trkpt>
      <trkpt lat="45.21783" lon="6.02926">
        <ele>1993.4000244141</ele>
        <time>2023-08-11T13:36:17.000Z</time>
      </trkpt>
      <trkpt lat="45.21788" lon="6.02915">
        <ele>1992.8000488281</ele>
        <time>2023-08-11T13:36:25.000Z</time>
      </trkpt>
      <trkpt lat="45.2179" lon="6.02914">
        <ele>1992.4000244141</ele>
        <time>2023-08-11T13:36:27.000Z</time>
      </trkpt>
      <trkpt lat="45.21794" lon="6.02907">
        <ele>1991.4000244141</ele>
        <time>2023-08-11T13:36:34.000Z</time>
      </trkpt>
      <trkpt lat="45.21799" lon="6.02894">
        <ele>1990.5999755859</ele>
        <time>2023-08-11T13:36:42.000Z</time>
      </trkpt>
      <trkpt lat="45.21801" lon="6.0289">
        <ele>1990.8000488281</ele>
        <time>2023-08-11T13:36:48.000Z</time>
      </trkpt>
      <trkpt lat="45.21802" lon="6.0289">
        <ele>1990.8000488281</ele>
        <time>2023-08-11T13:36:59.000Z</time>
      </trkpt>
      <trkpt lat="45.21801" lon="6.02891">
        <ele>1990.4000244141</ele>
        <time>2023-08-11T13:37:10.000Z</time>
      </trkpt>
      <trkpt lat="45.21794" lon="6.02904">
        <ele>1991.4000244141</ele>
        <time>2023-08-11T13:37:38.000Z</time>
      </trkpt>
      <trkpt lat="45.21786" lon="6.02915">
        <ele>1992.1999511719</ele>
        <time>2023-08-11T13:37:51.000Z</time>
      </trkpt>
      <trkpt lat="45.21783" lon="6.02921">
        <ele>1992.4000244141</ele>
        <time>2023-08-11T13:37:58.000Z</time>
      </trkpt>
      <trkpt lat="45.21782" lon="6.02925">
        <ele>1992.5999755859</ele>
        <time>2023-08-11T13:38:04.000Z</time>
      </trkpt>
      <trkpt lat="45.21781" lon="6.02934">
        <ele>1993.4000244141</ele>
        <time>2023-08-11T13:38:11.000Z</time>
      </trkpt>
      <trkpt lat="45.21781" lon="6.02935">
        <ele>1993.5999755859</ele>
        <time>2023-08-11T13:38:12.000Z</time>
      </trkpt>
      <trkpt lat="45.21777" lon="6.02946">
        <ele>1994.1999511719</ele>
        <time>2023-08-11T13:38:18.000Z</time>
      </trkpt>
      <trkpt lat="45.21777" lon="6.02947">
        <ele>1994.5999755859</ele>
        <time>2023-08-11T13:38:19.000Z</time>
      </trkpt>
      <trkpt lat="45.21776" lon="6.02951">
        <ele>1995.8000488281</ele>
        <time>2023-08-11T13:38:23.000Z</time>
      </trkpt>
      <trkpt lat="45.21776" lon="6.02953">
        <ele>1996.4000244141</ele>
        <time>2023-08-11T13:38:25.000Z</time>
      </trkpt>
      <trkpt lat="45.21775" lon="6.02957">
        <ele>1997</ele>
        <time>2023-08-11T13:38:28.000Z</time>
      </trkpt>
      <trkpt lat="45.21777" lon="6.02959">
        <ele>1997.4000244141</ele>
        <time>2023-08-11T13:38:33.000Z</time>
      </trkpt>
      <trkpt lat="45.21777" lon="6.02958">
        <ele>1997</ele>
        <time>2023-08-11T13:38:35.000Z</time>
      </trkpt>
      <trkpt lat="45.21779" lon="6.02955">
        <ele>1996.8000488281</ele>
        <time>2023-08-11T13:38:42.000Z</time>
      </trkpt>
      <trkpt lat="45.21775" lon="6.02952">
        <ele>1998</ele>
        <time>2023-08-11T13:38:54.000Z</time>
      </trkpt>
      <trkpt lat="45.21773" lon="6.02949">
        <ele>1998.8000488281</ele>
        <time>2023-08-11T13:38:57.000Z</time>
      </trkpt>
      <trkpt lat="45.21771" lon="6.02946">
        <ele>1999.1999511719</ele>
        <time>2023-08-11T13:39:01.000Z</time>
      </trkpt>
      <trkpt lat="45.21768" lon="6.0294">
        <ele>1999.4000244141</ele>
        <time>2023-08-11T13:39:05.000Z</time>
      </trkpt>
      <trkpt lat="45.21761" lon="6.02932">
        <ele>1999.4000244141</ele>
        <time>2023-08-11T13:39:12.000Z</time>
      </trkpt>
      <trkpt lat="45.21752" lon="6.02924">
        <ele>2000.1999511719</ele>
        <time>2023-08-11T13:39:20.000Z</time>
      </trkpt>
      <trkpt lat="45.21746" lon="6.02921">
        <ele>2000.1999511719</ele>
        <time>2023-08-11T13:39:26.000Z</time>
      </trkpt>
      <trkpt lat="45.21746" lon="6.02921">
        <ele>2000.1999511719</ele>
        <time>2023-08-11T13:39:27.000Z</time>
      </trkpt>
      <trkpt lat="45.21746" lon="6.02922">
        <ele>2000.1999511719</ele>
        <time>2023-08-11T13:39:29.000Z</time>
      </trkpt>
      <trkpt lat="45.21746" lon="6.02924">
        <ele>1999.1999511719</ele>
        <time>2023-08-11T13:39:34.000Z</time>
      </trkpt>
      <trkpt lat="45.21747" lon="6.02924">
        <ele>1999.1999511719</ele>
        <time>2023-08-11T13:39:36.000Z</time>
      </trkpt>
      <trkpt lat="45.21747" lon="6.02919">
        <ele>1999.8000488281</ele>
        <time>2023-08-11T13:39:41.000Z</time>
      </trkpt>
      <trkpt lat="45.21742" lon="6.02914">
        <ele>1999.5999755859</ele>
        <time>2023-08-11T13:39:47.000Z</time>
      </trkpt>
      <trkpt lat="45.21741" lon="6.02908">
        <ele>2000.1999511719</ele>
        <time>2023-08-11T13:39:53.000Z</time>
      </trkpt>
      <trkpt lat="45.2174" lon="6.02906">
        <ele>2000.4000244141</ele>
        <time>2023-08-11T13:39:55.000Z</time>
      </trkpt>
      <trkpt lat="45.21739" lon="6.02903">
        <ele>2001.4000244141</ele>
        <time>2023-08-11T13:39:59.000Z</time>
      </trkpt>
      <trkpt lat="45.21735" lon="6.02901">
        <ele>2002.4000244141</ele>
        <time>2023-08-11T13:40:05.000Z</time>
      </trkpt>
      <trkpt lat="45.21734" lon="6.029">
        <ele>2002.4000244141</ele>
        <time>2023-08-11T13:40:06.000Z</time>
      </trkpt>
      <trkpt lat="45.21728" lon="6.029">
        <ele>2002.5999755859</ele>
        <time>2023-08-11T13:40:13.000Z</time>
      </trkpt>
      <trkpt lat="45.21731" lon="6.02896">
        <ele>2003.4000244141</ele>
        <time>2023-08-11T13:40:19.000Z</time>
      </trkpt>
      <trkpt lat="45.21731" lon="6.02896">
        <ele>2003.5999755859</ele>
        <time>2023-08-11T13:40:20.000Z</time>
      </trkpt>
      <trkpt lat="45.21728" lon="6.02894">
        <ele>2004.4000244141</ele>
        <time>2023-08-11T13:40:26.000Z</time>
      </trkpt>
      <trkpt lat="45.21728" lon="6.02893">
        <ele>2004.5999755859</ele>
        <time>2023-08-11T13:40:28.000Z</time>
      </trkpt>
      <trkpt lat="45.21722" lon="6.02889">
        <ele>2005.4000244141</ele>
        <time>2023-08-11T13:40:36.000Z</time>
      </trkpt>
      <trkpt lat="45.21721" lon="6.02888">
        <ele>2006.4000244141</ele>
        <time>2023-08-11T13:40:43.000Z</time>
      </trkpt>
      <trkpt lat="45.21721" lon="6.02888">
        <ele>2006.5999755859</ele>
        <time>2023-08-11T13:40:44.000Z</time>
      </trkpt>
      <trkpt lat="45.21721" lon="6.02888">
        <ele>2007</ele>
        <time>2023-08-11T13:40:48.000Z</time>
      </trkpt>
      <trkpt lat="45.21719" lon="6.02886">
        <ele>2007.8000488281</ele>
        <time>2023-08-11T13:40:52.000Z</time>
      </trkpt>
      <trkpt lat="45.21718" lon="6.02885">
        <ele>2008.1999511719</ele>
        <time>2023-08-11T13:40:56.000Z</time>
      </trkpt>
      <trkpt lat="45.21718" lon="6.02884">
        <ele>2008.8000488281</ele>
        <time>2023-08-11T13:41:03.000Z</time>
      </trkpt>
      <trkpt lat="45.21717" lon="6.02884">
        <ele>2008.8000488281</ele>
        <time>2023-08-11T13:41:04.000Z</time>
      </trkpt>
      <trkpt lat="45.2172" lon="6.0288">
        <ele>2009.8000488281</ele>
        <time>2023-08-11T13:41:10.000Z</time>
      </trkpt>
      <trkpt lat="45.2172" lon="6.02879">
        <ele>2010</ele>
        <time>2023-08-11T13:41:11.000Z</time>
      </trkpt>
      <trkpt lat="45.21716" lon="6.0288">
        <ele>2010.5999755859</ele>
        <time>2023-08-11T13:41:17.000Z</time>
      </trkpt>
      <trkpt lat="45.21711" lon="6.02883">
        <ele>2011</ele>
        <time>2023-08-11T13:41:23.000Z</time>
      </trkpt>
      <trkpt lat="45.21711" lon="6.02884">
        <ele>2011</ele>
        <time>2023-08-11T13:41:24.000Z</time>
      </trkpt>
      <trkpt lat="45.2171" lon="6.02883">
        <ele>2011.8000488281</ele>
        <time>2023-08-11T13:41:32.000Z</time>
      </trkpt>
      <trkpt lat="45.21709" lon="6.02882">
        <ele>2012.1999511719</ele>
        <time>2023-08-11T13:41:33.000Z</time>
      </trkpt>
      <trkpt lat="45.21706" lon="6.02878">
        <ele>2013</ele>
        <time>2023-08-11T13:41:39.000Z</time>
      </trkpt>
      <trkpt lat="45.21703" lon="6.02876">
        <ele>2013.1999511719</ele>
        <time>2023-08-11T13:41:43.000Z</time>
      </trkpt>
      <trkpt lat="45.21703" lon="6.02875">
        <ele>2013.8000488281</ele>
        <time>2023-08-11T13:41:47.000Z</time>
      </trkpt>
      <trkpt lat="45.21703" lon="6.02876">
        <ele>2013.5999755859</ele>
        <time>2023-08-11T13:41:56.000Z</time>
      </trkpt>
      <trkpt lat="45.21705" lon="6.02878">
        <ele>2013.4000244141</ele>
        <time>2023-08-11T13:42:05.000Z</time>
      </trkpt>
      <trkpt lat="45.21705" lon="6.02877">
        <ele>2012.8000488281</ele>
        <time>2023-08-11T13:42:12.000Z</time>
      </trkpt>
      <trkpt lat="45.21702" lon="6.02886">
        <ele>2012.8000488281</ele>
        <time>2023-08-11T13:42:21.000Z</time>
      </trkpt>
      <trkpt lat="45.21705" lon="6.0288">
        <ele>2012.5999755859</ele>
        <time>2023-08-11T13:42:28.000Z</time>
      </trkpt>
      <trkpt lat="45.21701" lon="6.02871">
        <ele>2013.1999511719</ele>
        <time>2023-08-11T13:42:36.000Z</time>
      </trkpt>
      <trkpt lat="45.21701" lon="6.0287">
        <ele>2013.4000244141</ele>
        <time>2023-08-11T13:42:43.000Z</time>
      </trkpt>
      <trkpt lat="45.21701" lon="6.02866">
        <ele>2013.1999511719</ele>
        <time>2023-08-11T13:42:52.000Z</time>
      </trkpt>
      <trkpt lat="45.21696" lon="6.02869">
        <ele>2013.1999511719</ele>
        <time>2023-08-11T13:43:01.000Z</time>
      </trkpt>
      <trkpt lat="45.21691" lon="6.02867">
        <ele>2012.1999511719</ele>
        <time>2023-08-11T13:43:08.000Z</time>
      </trkpt>
      <trkpt lat="45.21691" lon="6.02866">
        <ele>2012</ele>
        <time>2023-08-11T13:43:09.000Z</time>
      </trkpt>
      <trkpt lat="45.21686" lon="6.02865">
        <ele>2011</ele>
        <time>2023-08-11T13:43:14.000Z</time>
      </trkpt>
      <trkpt lat="45.21684" lon="6.02865">
        <ele>2011</ele>
        <time>2023-08-11T13:43:16.000Z</time>
      </trkpt>
      <trkpt lat="45.2168" lon="6.02865">
        <ele>2011</ele>
        <time>2023-08-11T13:43:22.000Z</time>
      </trkpt>
      <trkpt lat="45.21678" lon="6.02867">
        <ele>2010.8000488281</ele>
        <time>2023-08-11T13:43:29.000Z</time>
      </trkpt>
      <trkpt lat="45.21676" lon="6.02867">
        <ele>2010</ele>
        <time>2023-08-11T13:43:34.000Z</time>
      </trkpt>
      <trkpt lat="45.21674" lon="6.02866">
        <ele>2009.5999755859</ele>
        <time>2023-08-11T13:43:37.000Z</time>
      </trkpt>
      <trkpt lat="45.21673" lon="6.02866">
        <ele>2009.4000244141</ele>
        <time>2023-08-11T13:43:38.000Z</time>
      </trkpt>
      <trkpt lat="45.2167" lon="6.02866">
        <ele>2009</ele>
        <time>2023-08-11T13:43:41.000Z</time>
      </trkpt>
      <trkpt lat="45.21666" lon="6.02866">
        <ele>2008.8000488281</ele>
        <time>2023-08-11T13:43:46.000Z</time>
      </trkpt>
      <trkpt lat="45.21654" lon="6.02863">
        <ele>2009.8000488281</ele>
        <time>2023-08-11T13:43:58.000Z</time>
      </trkpt>
      <trkpt lat="45.21653" lon="6.02863">
        <ele>2010.1999511719</ele>
        <time>2023-08-11T13:44:00.000Z</time>
      </trkpt>
      <trkpt lat="45.21648" lon="6.02862">
        <ele>2011</ele>
        <time>2023-08-11T13:44:07.000Z</time>
      </trkpt>
      <trkpt lat="45.21647" lon="6.02862">
        <ele>2011.4000244141</ele>
        <time>2023-08-11T13:44:09.000Z</time>
      </trkpt>
      <trkpt lat="45.2164" lon="6.02863">
        <ele>2013.5999755859</ele>
        <time>2023-08-11T13:44:20.000Z</time>
      </trkpt>
      <trkpt lat="45.2164" lon="6.02863">
        <ele>2013.8000488281</ele>
        <time>2023-08-11T13:44:21.000Z</time>
      </trkpt>
      <trkpt lat="45.21636" lon="6.02864">
        <ele>2015.4000244141</ele>
        <time>2023-08-11T13:44:30.000Z</time>
      </trkpt>
      <trkpt lat="45.21633" lon="6.02866">
        <ele>2016.5999755859</ele>
        <time>2023-08-11T13:44:42.000Z</time>
      </trkpt>
      <trkpt lat="45.21633" lon="6.02866">
        <ele>2016.8000488281</ele>
        <time>2023-08-11T13:44:43.000Z</time>
      </trkpt>
      <trkpt lat="45.21637" lon="6.02863">
        <ele>2016.8000488281</ele>
        <time>2023-08-11T13:44:51.000Z</time>
      </trkpt>
      <trkpt lat="45.21635" lon="6.02863">
        <ele>2016.5999755859</ele>
        <time>2023-08-11T13:44:59.000Z</time>
      </trkpt>
      <trkpt lat="45.2163" lon="6.02861">
        <ele>2017.4000244141</ele>
        <time>2023-08-11T13:45:06.000Z</time>
      </trkpt>
      <trkpt lat="45.21629" lon="6.0286">
        <ele>2017.8000488281</ele>
        <time>2023-08-11T13:45:08.000Z</time>
      </trkpt>
      <trkpt lat="45.21626" lon="6.02857">
        <ele>2018.4000244141</ele>
        <time>2023-08-11T13:45:14.000Z</time>
      </trkpt>
      <trkpt lat="45.21624" lon="6.02855">
        <ele>2018.8000488281</ele>
        <time>2023-08-11T13:45:20.000Z</time>
      </trkpt>
      <trkpt lat="45.21623" lon="6.02855">
        <ele>2019</ele>
        <time>2023-08-11T13:45:21.000Z</time>
      </trkpt>
      <trkpt lat="45.21622" lon="6.02851">
        <ele>2020</ele>
        <time>2023-08-11T13:45:26.000Z</time>
      </trkpt>
      <trkpt lat="45.21621" lon="6.02849">
        <ele>2020.5999755859</ele>
        <time>2023-08-11T13:45:29.000Z</time>
      </trkpt>
      <trkpt lat="45.2162" lon="6.02848">
        <ele>2021</ele>
        <time>2023-08-11T13:45:31.000Z</time>
      </trkpt>
      <trkpt lat="45.21618" lon="6.02845">
        <ele>2021.1999511719</ele>
        <time>2023-08-11T13:45:37.000Z</time>
      </trkpt>
      <trkpt lat="45.2162" lon="6.02847">
        <ele>2020.8000488281</ele>
        <time>2023-08-11T13:45:44.000Z</time>
      </trkpt>
      <trkpt lat="45.21619" lon="6.02846">
        <ele>2020.8000488281</ele>
        <time>2023-08-11T13:45:52.000Z</time>
      </trkpt>
      <trkpt lat="45.21617" lon="6.02843">
        <ele>2020.8000488281</ele>
        <time>2023-08-11T13:45:59.000Z</time>
      </trkpt>
      <trkpt lat="45.21614" lon="6.02838">
        <ele>2021.4000244141</ele>
        <time>2023-08-11T13:46:05.000Z</time>
      </trkpt>
      <trkpt lat="45.21612" lon="6.02833">
        <ele>2022.1999511719</ele>
        <time>2023-08-11T13:46:13.000Z</time>
      </trkpt>
      <trkpt lat="45.21612" lon="6.02831">
        <ele>2023</ele>
        <time>2023-08-11T13:46:20.000Z</time>
      </trkpt>
      <trkpt lat="45.21609" lon="6.02827">
        <ele>2023.4000244141</ele>
        <time>2023-08-11T13:46:29.000Z</time>
      </trkpt>
      <trkpt lat="45.2161" lon="6.02826">
        <ele>2024</ele>
        <time>2023-08-11T13:46:31.000Z</time>
      </trkpt>
      <trkpt lat="45.21609" lon="6.02825">
        <ele>2024.4000244141</ele>
        <time>2023-08-11T13:46:32.000Z</time>
      </trkpt>
      <trkpt lat="45.2161" lon="6.02824">
        <ele>2024.5999755859</ele>
        <time>2023-08-11T13:46:36.000Z</time>
      </trkpt>
      <trkpt lat="45.21608" lon="6.02827">
        <ele>2024.4000244141</ele>
        <time>2023-08-11T13:46:45.000Z</time>
      </trkpt>
      <trkpt lat="45.21606" lon="6.02828">
        <ele>2025.5999755859</ele>
        <time>2023-08-11T13:46:50.000Z</time>
      </trkpt>
      <trkpt lat="45.21606" lon="6.02829">
        <ele>2025.8000488281</ele>
        <time>2023-08-11T13:46:57.000Z</time>
      </trkpt>
      <trkpt lat="45.21602" lon="6.02826">
        <ele>2026.4000244141</ele>
        <time>2023-08-11T13:47:07.000Z</time>
      </trkpt>
      <trkpt lat="45.21602" lon="6.02825">
        <ele>2026.5999755859</ele>
        <time>2023-08-11T13:47:09.000Z</time>
      </trkpt>
      <trkpt lat="45.21603" lon="6.02822">
        <ele>2028</ele>
        <time>2023-08-11T13:47:14.000Z</time>
      </trkpt>
      <trkpt lat="45.21603" lon="6.02822">
        <ele>2028</ele>
        <time>2023-08-11T13:47:15.000Z</time>
      </trkpt>
      <trkpt lat="45.21603" lon="6.02818">
        <ele>2029</ele>
        <time>2023-08-11T13:47:19.000Z</time>
      </trkpt>
      <trkpt lat="45.21603" lon="6.02816">
        <ele>2030</ele>
        <time>2023-08-11T13:47:23.000Z</time>
      </trkpt>
      <trkpt lat="45.21604" lon="6.02816">
        <ele>2030.4000244141</ele>
        <time>2023-08-11T13:47:24.000Z</time>
      </trkpt>
      <trkpt lat="45.21604" lon="6.02812">
        <ele>2031.1999511719</ele>
        <time>2023-08-11T13:47:28.000Z</time>
      </trkpt>
      <trkpt lat="45.21603" lon="6.02809">
        <ele>2031.4000244141</ele>
        <time>2023-08-11T13:47:31.000Z</time>
      </trkpt>
      <trkpt lat="45.21601" lon="6.02808">
        <ele>2032.1999511719</ele>
        <time>2023-08-11T13:47:35.000Z</time>
      </trkpt>
      <trkpt lat="45.216" lon="6.02806">
        <ele>2032.1999511719</ele>
        <time>2023-08-11T13:47:38.000Z</time>
      </trkpt>
      <trkpt lat="45.21598" lon="6.02806">
        <ele>2033.1999511719</ele>
        <time>2023-08-11T13:47:43.000Z</time>
      </trkpt>
      <trkpt lat="45.21597" lon="6.02806">
        <ele>2033.1999511719</ele>
        <time>2023-08-11T13:47:44.000Z</time>
      </trkpt>
      <trkpt lat="45.21596" lon="6.02807">
        <ele>2033.5999755859</ele>
        <time>2023-08-11T13:47:46.000Z</time>
      </trkpt>
      <trkpt lat="45.21594" lon="6.02808">
        <ele>2035</ele>
        <time>2023-08-11T13:47:56.000Z</time>
      </trkpt>
      <trkpt lat="45.21593" lon="6.02808">
        <ele>2035.4000244141</ele>
        <time>2023-08-11T13:47:57.000Z</time>
      </trkpt>
      <trkpt lat="45.21588" lon="6.02803">
        <ele>2036.4000244141</ele>
        <time>2023-08-11T13:48:05.000Z</time>
      </trkpt>
      <trkpt lat="45.21588" lon="6.02803">
        <ele>2036.5999755859</ele>
        <time>2023-08-11T13:48:06.000Z</time>
      </trkpt>
      <trkpt lat="45.21587" lon="6.02797">
        <ele>2037.5999755859</ele>
        <time>2023-08-11T13:48:14.000Z</time>
      </trkpt>
      <trkpt lat="45.21588" lon="6.02788">
        <ele>2038.8000488281</ele>
        <time>2023-08-11T13:48:22.000Z</time>
      </trkpt>
      <trkpt lat="45.21587" lon="6.02787">
        <ele>2039</ele>
        <time>2023-08-11T13:48:24.000Z</time>
      </trkpt>
      <trkpt lat="45.21585" lon="6.02785">
        <ele>2039.8000488281</ele>
        <time>2023-08-11T13:48:29.000Z</time>
      </trkpt>
      <trkpt lat="45.21584" lon="6.02785">
        <ele>2040.1999511719</ele>
        <time>2023-08-11T13:48:32.000Z</time>
      </trkpt>
      <trkpt lat="45.21582" lon="6.02778">
        <ele>2040.8000488281</ele>
        <time>2023-08-11T13:48:38.000Z</time>
      </trkpt>
      <trkpt lat="45.21582" lon="6.02775">
        <ele>2041.1999511719</ele>
        <time>2023-08-11T13:48:41.000Z</time>
      </trkpt>
      <trkpt lat="45.21581" lon="6.02773">
        <ele>2042</ele>
        <time>2023-08-11T13:48:45.000Z</time>
      </trkpt>
      <trkpt lat="45.21581" lon="6.02773">
        <ele>2042.4000244141</ele>
        <time>2023-08-11T13:48:48.000Z</time>
      </trkpt>
      <trkpt lat="45.21578" lon="6.0277">
        <ele>2043</ele>
        <time>2023-08-11T13:48:53.000Z</time>
      </trkpt>
      <trkpt lat="45.21577" lon="6.02769">
        <ele>2043.4000244141</ele>
        <time>2023-08-11T13:48:56.000Z</time>
      </trkpt>
      <trkpt lat="45.21575" lon="6.02767">
        <ele>2044</ele>
        <time>2023-08-11T13:49:01.000Z</time>
      </trkpt>
      <trkpt lat="45.21575" lon="6.02767">
        <ele>2044.5999755859</ele>
        <time>2023-08-11T13:49:03.000Z</time>
      </trkpt>
      <trkpt lat="45.21575" lon="6.02767">
        <ele>2045</ele>
        <time>2023-08-11T13:49:06.000Z</time>
      </trkpt>
      <trkpt lat="45.21573" lon="6.02768">
        <ele>2046.1999511719</ele>
        <time>2023-08-11T13:49:15.000Z</time>
      </trkpt>
      <trkpt lat="45.21571" lon="6.02768">
        <ele>2046.5999755859</ele>
        <time>2023-08-11T13:49:18.000Z</time>
      </trkpt>
      <trkpt lat="45.21567" lon="6.02766">
        <ele>2047.1999511719</ele>
        <time>2023-08-11T13:49:24.000Z</time>
      </trkpt>
      <trkpt lat="45.21564" lon="6.02765">
        <ele>2048.6000976562</ele>
        <time>2023-08-11T13:49:32.000Z</time>
      </trkpt>
      <trkpt lat="45.21564" lon="6.02768">
        <ele>2049</ele>
        <time>2023-08-11T13:49:47.000Z</time>
      </trkpt>
      <trkpt lat="45.21563" lon="6.02767">
        <ele>2048.8000488281</ele>
        <time>2023-08-11T13:49:52.000Z</time>
      </trkpt>
      <trkpt lat="45.21563" lon="6.02759">
        <ele>2049.6000976562</ele>
        <time>2023-08-11T13:49:58.000Z</time>
      </trkpt>
      <trkpt lat="45.21564" lon="6.02755">
        <ele>2049.8000488281</ele>
        <time>2023-08-11T13:50:01.000Z</time>
      </trkpt>
      <trkpt lat="45.21565" lon="6.02751">
        <ele>2050.6000976562</ele>
        <time>2023-08-11T13:50:07.000Z</time>
      </trkpt>
      <trkpt lat="45.21565" lon="6.0275">
        <ele>2050.8000488281</ele>
        <time>2023-08-11T13:50:08.000Z</time>
      </trkpt>
      <trkpt lat="45.21562" lon="6.02745">
        <ele>2051.8000488281</ele>
        <time>2023-08-11T13:50:15.000Z</time>
      </trkpt>
      <trkpt lat="45.21562" lon="6.02746">
        <ele>2052</ele>
        <time>2023-08-11T13:50:17.000Z</time>
      </trkpt>
      <trkpt lat="45.21562" lon="6.02748">
        <ele>2052.8000488281</ele>
        <time>2023-08-11T13:50:23.000Z</time>
      </trkpt>
      <trkpt lat="45.21561" lon="6.02748">
        <ele>2053.8000488281</ele>
        <time>2023-08-11T13:50:28.000Z</time>
      </trkpt>
      <trkpt lat="45.21558" lon="6.02746">
        <ele>2054.6000976562</ele>
        <time>2023-08-11T13:50:34.000Z</time>
      </trkpt>
      <trkpt lat="45.21558" lon="6.02747">
        <ele>2054.8000488281</ele>
        <time>2023-08-11T13:50:40.000Z</time>
      </trkpt>
      <trkpt lat="45.21558" lon="6.02747">
        <ele>2054.8000488281</ele>
        <time>2023-08-11T13:50:43.000Z</time>
      </trkpt>
      <trkpt lat="45.21556" lon="6.02747">
        <ele>2055.3999023438</ele>
        <time>2023-08-11T13:50:52.000Z</time>
      </trkpt>
      <trkpt lat="45.21555" lon="6.02744">
        <ele>2055.1999511719</ele>
        <time>2023-08-11T13:50:58.000Z</time>
      </trkpt>
      <trkpt lat="45.21556" lon="6.02741">
        <ele>2056</ele>
        <time>2023-08-11T13:51:01.000Z</time>
      </trkpt>
      <trkpt lat="45.21555" lon="6.02738">
        <ele>2057</ele>
        <time>2023-08-11T13:51:07.000Z</time>
      </trkpt>
      <trkpt lat="45.21555" lon="6.02738">
        <ele>2057.1999511719</ele>
        <time>2023-08-11T13:51:08.000Z</time>
      </trkpt>
      <trkpt lat="45.21552" lon="6.02736">
        <ele>2058.1999511719</ele>
        <time>2023-08-11T13:51:14.000Z</time>
      </trkpt>
      <trkpt lat="45.21552" lon="6.02736">
        <ele>2058.1999511719</ele>
        <time>2023-08-11T13:51:15.000Z</time>
      </trkpt>
      <trkpt lat="45.21548" lon="6.0274">
        <ele>2059.1999511719</ele>
        <time>2023-08-11T13:51:23.000Z</time>
      </trkpt>
      <trkpt lat="45.21546" lon="6.0274">
        <ele>2060.1999511719</ele>
        <time>2023-08-11T13:51:28.000Z</time>
      </trkpt>
      <trkpt lat="45.21546" lon="6.0274">
        <ele>2060.3999023438</ele>
        <time>2023-08-11T13:51:29.000Z</time>
      </trkpt>
      <trkpt lat="45.21546" lon="6.02736">
        <ele>2060.1999511719</ele>
        <time>2023-08-11T13:51:36.000Z</time>
      </trkpt>
      <trkpt lat="45.21545" lon="6.02734">
        <ele>2061.3999023438</ele>
        <time>2023-08-11T13:51:40.000Z</time>
      </trkpt>
      <trkpt lat="45.21546" lon="6.02733">
        <ele>2062.6000976562</ele>
        <time>2023-08-11T13:51:45.000Z</time>
      </trkpt>
      <trkpt lat="45.21547" lon="6.02733">
        <ele>2062.6000976562</ele>
        <time>2023-08-11T13:51:46.000Z</time>
      </trkpt>
      <trkpt lat="45.21549" lon="6.02728">
        <ele>2063.3999023438</ele>
        <time>2023-08-11T13:51:55.000Z</time>
      </trkpt>
      <trkpt lat="45.2155" lon="6.02727">
        <ele>2063.6000976562</ele>
        <time>2023-08-11T13:51:58.000Z</time>
      </trkpt>
      <trkpt lat="45.21553" lon="6.02726">
        <ele>2063.1999511719</ele>
        <time>2023-08-11T13:52:04.000Z</time>
      </trkpt>
      <trkpt lat="45.21552" lon="6.02721">
        <ele>2063.6000976562</ele>
        <time>2023-08-11T13:52:39.000Z</time>
      </trkpt>
      <trkpt lat="45.21553" lon="6.02721">
        <ele>2063.3999023438</ele>
        <time>2023-08-11T13:52:55.000Z</time>
      </trkpt>
      <trkpt lat="45.21552" lon="6.02723">
        <ele>2063</ele>
        <time>2023-08-11T13:53:16.000Z</time>
      </trkpt>
      <trkpt lat="45.21547" lon="6.02726">
        <ele>2064</ele>
        <time>2023-08-11T13:53:31.000Z</time>
      </trkpt>
      <trkpt lat="45.21546" lon="6.02726">
        <ele>2063.1999511719</ele>
        <time>2023-08-11T13:53:39.000Z</time>
      </trkpt>
      <trkpt lat="45.21547" lon="6.0272">
        <ele>2064.3999023438</ele>
        <time>2023-08-11T13:53:48.000Z</time>
      </trkpt>
      <trkpt lat="45.21548" lon="6.02719">
        <ele>2064.6000976562</ele>
        <time>2023-08-11T13:53:49.000Z</time>
      </trkpt>
      <trkpt lat="45.21547" lon="6.02716">
        <ele>2065.8000488281</ele>
        <time>2023-08-11T13:53:55.000Z</time>
      </trkpt>
      <trkpt lat="45.21544" lon="6.02714">
        <ele>2066.8000488281</ele>
        <time>2023-08-11T13:54:02.000Z</time>
      </trkpt>
      <trkpt lat="45.21544" lon="6.02713">
        <ele>2067</ele>
        <time>2023-08-11T13:54:03.000Z</time>
      </trkpt>
      <trkpt lat="45.21545" lon="6.02709">
        <ele>2068</ele>
        <time>2023-08-11T13:54:07.000Z</time>
      </trkpt>
      <trkpt lat="45.21546" lon="6.02706">
        <ele>2068.8000488281</ele>
        <time>2023-08-11T13:54:10.000Z</time>
      </trkpt>
      <trkpt lat="45.2155" lon="6.02703">
        <ele>2069.1999511719</ele>
        <time>2023-08-11T13:54:15.000Z</time>
      </trkpt>
      <trkpt lat="45.21553" lon="6.027">
        <ele>2069.3999023438</ele>
        <time>2023-08-11T13:54:19.000Z</time>
      </trkpt>
      <trkpt lat="45.21554" lon="6.02697">
        <ele>2070.1999511719</ele>
        <time>2023-08-11T13:54:25.000Z</time>
      </trkpt>
      <trkpt lat="45.21555" lon="6.02697">
        <ele>2070.6000976562</ele>
        <time>2023-08-11T13:54:27.000Z</time>
      </trkpt>
      <trkpt lat="45.21552" lon="6.02697">
        <ele>2071.6000976562</ele>
        <time>2023-08-11T13:54:34.000Z</time>
      </trkpt>
      <trkpt lat="45.2155" lon="6.02697">
        <ele>2072.8000488281</ele>
        <time>2023-08-11T13:54:37.000Z</time>
      </trkpt>
      <trkpt lat="45.21548" lon="6.02694">
        <ele>2073.1999511719</ele>
        <time>2023-08-11T13:54:42.000Z</time>
      </trkpt>
      <trkpt lat="45.21543" lon="6.02693">
        <ele>2074</ele>
        <time>2023-08-11T13:54:48.000Z</time>
      </trkpt>
      <trkpt lat="45.21542" lon="6.02693">
        <ele>2075</ele>
        <time>2023-08-11T13:54:50.000Z</time>
      </trkpt>
      <trkpt lat="45.21539" lon="6.02692">
        <ele>2076.1999511719</ele>
        <time>2023-08-11T13:54:54.000Z</time>
      </trkpt>
      <trkpt lat="45.21539" lon="6.02692">
        <ele>2076.6000976562</ele>
        <time>2023-08-11T13:54:58.000Z</time>
      </trkpt>
      <trkpt lat="45.21539" lon="6.02689">
        <ele>2076.6000976562</ele>
        <time>2023-08-11T13:55:07.000Z</time>
      </trkpt>
      <trkpt lat="45.21535" lon="6.02685">
        <ele>2077.3999023438</ele>
        <time>2023-08-11T13:55:13.000Z</time>
      </trkpt>
      <trkpt lat="45.21535" lon="6.02685">
        <ele>2077.6000976562</ele>
        <time>2023-08-11T13:55:14.000Z</time>
      </trkpt>
      <trkpt lat="45.21534" lon="6.02685">
        <ele>2078</ele>
        <time>2023-08-11T13:55:22.000Z</time>
      </trkpt>
      <trkpt lat="45.21535" lon="6.02684">
        <ele>2078.1999511719</ele>
        <time>2023-08-11T13:55:31.000Z</time>
      </trkpt>
      <trkpt lat="45.21535" lon="6.02686">
        <ele>2078.3999023438</ele>
        <time>2023-08-11T13:55:39.000Z</time>
      </trkpt>
      <trkpt lat="45.21535" lon="6.02686">
        <ele>2078.1999511719</ele>
        <time>2023-08-11T13:55:43.000Z</time>
      </trkpt>
      <trkpt lat="45.21535" lon="6.02685">
        <ele>2078.1999511719</ele>
        <time>2023-08-11T13:55:52.000Z</time>
      </trkpt>
      <trkpt lat="45.21536" lon="6.02684">
        <ele>2078.1999511719</ele>
        <time>2023-08-11T13:56:02.000Z</time>
      </trkpt>
      <trkpt lat="45.21533" lon="6.02682">
        <ele>2079.1999511719</ele>
        <time>2023-08-11T13:56:09.000Z</time>
      </trkpt>
      <trkpt lat="45.21531" lon="6.02679">
        <ele>2079.3999023438</ele>
        <time>2023-08-11T13:56:13.000Z</time>
      </trkpt>
      <trkpt lat="45.21529" lon="6.02678">
        <ele>2080.3999023438</ele>
        <time>2023-08-11T13:56:16.000Z</time>
      </trkpt>
      <trkpt lat="45.21528" lon="6.02678">
        <ele>2080.8000488281</ele>
        <time>2023-08-11T13:56:17.000Z</time>
      </trkpt>
      <trkpt lat="45.21525" lon="6.02675">
        <ele>2081.3999023438</ele>
        <time>2023-08-11T13:56:20.000Z</time>
      </trkpt>
      <trkpt lat="45.21524" lon="6.02674">
        <ele>2081.8000488281</ele>
        <time>2023-08-11T13:56:25.000Z</time>
      </trkpt>
      <trkpt lat="45.21517" lon="6.0267">
        <ele>2082</ele>
        <time>2023-08-11T13:56:33.000Z</time>
      </trkpt>
      <trkpt lat="45.21516" lon="6.02665">
        <ele>2082</ele>
        <time>2023-08-11T13:56:41.000Z</time>
      </trkpt>
      <trkpt lat="45.21516" lon="6.02662">
        <ele>2082.8000488281</ele>
        <time>2023-08-11T13:56:44.000Z</time>
      </trkpt>
      <trkpt lat="45.21516" lon="6.02658">
        <ele>2084</ele>
        <time>2023-08-11T13:56:47.000Z</time>
      </trkpt>
      <trkpt lat="45.21515" lon="6.02654">
        <ele>2085</ele>
        <time>2023-08-11T13:56:51.000Z</time>
      </trkpt>
      <trkpt lat="45.21515" lon="6.02652">
        <ele>2085.1999511719</ele>
        <time>2023-08-11T13:56:53.000Z</time>
      </trkpt>
      <trkpt lat="45.21515" lon="6.02646">
        <ele>2085.6000976562</ele>
        <time>2023-08-11T13:56:58.000Z</time>
      </trkpt>
      <trkpt lat="45.21514" lon="6.02642">
        <ele>2086.1999511719</ele>
        <time>2023-08-11T13:57:01.000Z</time>
      </trkpt>
      <trkpt lat="45.21511" lon="6.02638">
        <ele>2086.8000488281</ele>
        <time>2023-08-11T13:57:06.000Z</time>
      </trkpt>
      <trkpt lat="45.21505" lon="6.0263">
        <ele>2087</ele>
        <time>2023-08-11T13:57:13.000Z</time>
      </trkpt>
      <trkpt lat="45.21503" lon="6.02628">
        <ele>2087.1999511719</ele>
        <time>2023-08-11T13:57:16.000Z</time>
      </trkpt>
      <trkpt lat="45.21501" lon="6.02625">
        <ele>2087.1999511719</ele>
        <time>2023-08-11T13:57:20.000Z</time>
      </trkpt>
      <trkpt lat="45.21495" lon="6.02621">
        <ele>2086.8000488281</ele>
        <time>2023-08-11T13:57:28.000Z</time>
      </trkpt>
      <trkpt lat="45.21492" lon="6.02616">
        <ele>2088.3999023438</ele>
        <time>2023-08-11T13:57:33.000Z</time>
      </trkpt>
      <trkpt lat="45.2149" lon="6.02612">
        <ele>2088.6000976562</ele>
        <time>2023-08-11T13:57:36.000Z</time>
      </trkpt>
      <trkpt lat="45.2149" lon="6.02609">
        <ele>2088.8000488281</ele>
        <time>2023-08-11T13:57:43.000Z</time>
      </trkpt>
      <trkpt lat="45.2149" lon="6.02609">
        <ele>2088.8000488281</ele>
        <time>2023-08-11T13:57:44.000Z</time>
      </trkpt>
      <trkpt lat="45.21489" lon="6.02608">
        <ele>2089</ele>
        <time>2023-08-11T13:57:47.000Z</time>
      </trkpt>
      <trkpt lat="45.21488" lon="6.02607">
        <ele>2089</ele>
        <time>2023-08-11T13:57:49.000Z</time>
      </trkpt>
      <trkpt lat="45.21479" lon="6.02602">
        <ele>2089.1999511719</ele>
        <time>2023-08-11T13:57:59.000Z</time>
      </trkpt>
      <trkpt lat="45.21471" lon="6.02599">
        <ele>2089</ele>
        <time>2023-08-11T13:58:06.000Z</time>
      </trkpt>
      <trkpt lat="45.21468" lon="6.02597">
        <ele>2089.6000976562</ele>
        <time>2023-08-11T13:58:09.000Z</time>
      </trkpt>
      <trkpt lat="45.21465" lon="6.02593">
        <ele>2089.8000488281</ele>
        <time>2023-08-11T13:58:14.000Z</time>
      </trkpt>
      <trkpt lat="45.2146" lon="6.02585">
        <ele>2089.6000976562</ele>
        <time>2023-08-11T13:58:21.000Z</time>
      </trkpt>
      <trkpt lat="45.21455" lon="6.0258">
        <ele>2089.6000976562</ele>
        <time>2023-08-11T13:58:28.000Z</time>
      </trkpt>
      <trkpt lat="45.21449" lon="6.02579">
        <ele>2089.8000488281</ele>
        <time>2023-08-11T13:58:35.000Z</time>
      </trkpt>
      <trkpt lat="45.21443" lon="6.02579">
        <ele>2090</ele>
        <time>2023-08-11T13:58:42.000Z</time>
      </trkpt>
      <trkpt lat="45.21442" lon="6.02581">
        <ele>2090.3999023438</ele>
        <time>2023-08-11T13:58:50.000Z</time>
      </trkpt>
      <trkpt lat="45.21439" lon="6.02581">
        <ele>2090.6000976562</ele>
        <time>2023-08-11T13:58:58.000Z</time>
      </trkpt>
      <trkpt lat="45.21437" lon="6.02581">
        <ele>2090.6000976562</ele>
        <time>2023-08-11T13:58:59.000Z</time>
      </trkpt>
      <trkpt lat="45.21429" lon="6.0258">
        <ele>2091.1999511719</ele>
        <time>2023-08-11T13:59:07.000Z</time>
      </trkpt>
      <trkpt lat="45.21427" lon="6.02579">
        <ele>2091.8000488281</ele>
        <time>2023-08-11T13:59:09.000Z</time>
      </trkpt>
      <trkpt lat="45.21425" lon="6.02574">
        <ele>2092.6000976562</ele>
        <time>2023-08-11T13:59:14.000Z</time>
      </trkpt>
      <trkpt lat="45.21424" lon="6.02573">
        <ele>2093</ele>
        <time>2023-08-11T13:59:16.000Z</time>
      </trkpt>
      <trkpt lat="45.21418" lon="6.02571">
        <ele>2093.1999511719</ele>
        <time>2023-08-11T13:59:21.000Z</time>
      </trkpt>
      <trkpt lat="45.21413" lon="6.0257">
        <ele>2094</ele>
        <time>2023-08-11T13:59:28.000Z</time>
      </trkpt>
      <trkpt lat="45.2141" lon="6.02568">
        <ele>2094.8000488281</ele>
        <time>2023-08-11T13:59:31.000Z</time>
      </trkpt>
      <trkpt lat="45.21403" lon="6.02567">
        <ele>2094.8000488281</ele>
        <time>2023-08-11T13:59:40.000Z</time>
      </trkpt>
      <trkpt lat="45.21396" lon="6.02564">
        <ele>2093.1999511719</ele>
        <time>2023-08-11T13:59:49.000Z</time>
      </trkpt>
      <trkpt lat="45.21396" lon="6.02564">
        <ele>2092.8000488281</ele>
        <time>2023-08-11T13:59:50.000Z</time>
      </trkpt>
      <trkpt lat="45.21389" lon="6.02564">
        <ele>2091.8000488281</ele>
        <time>2023-08-11T13:59:56.000Z</time>
      </trkpt>
      <trkpt lat="45.21382" lon="6.02562">
        <ele>2090.6000976562</ele>
        <time>2023-08-11T14:00:04.000Z</time>
      </trkpt>
      <trkpt lat="45.2138" lon="6.02557">
        <ele>2090.1999511719</ele>
        <time>2023-08-11T14:00:12.000Z</time>
      </trkpt>
      <trkpt lat="45.21373" lon="6.02545">
        <ele>2091</ele>
        <time>2023-08-11T14:00:21.000Z</time>
      </trkpt>
      <trkpt lat="45.21367" lon="6.02536">
        <ele>2091.3999023438</ele>
        <time>2023-08-11T14:00:32.000Z</time>
      </trkpt>
      <trkpt lat="45.21367" lon="6.02536">
        <ele>2091.8000488281</ele>
        <time>2023-08-11T14:00:34.000Z</time>
      </trkpt>
      <trkpt lat="45.21368" lon="6.02533">
        <ele>2092.6000976562</ele>
        <time>2023-08-11T14:00:39.000Z</time>
      </trkpt>
      <trkpt lat="45.21369" lon="6.02532">
        <ele>2093</ele>
        <time>2023-08-11T14:00:40.000Z</time>
      </trkpt>
      <trkpt lat="45.21369" lon="6.02529">
        <ele>2094</ele>
        <time>2023-08-11T14:00:44.000Z</time>
      </trkpt>
      <trkpt lat="45.21369" lon="6.0253">
        <ele>2094.3999023438</ele>
        <time>2023-08-11T14:00:47.000Z</time>
      </trkpt>
      <trkpt lat="45.21371" lon="6.02528">
        <ele>2095.1999511719</ele>
        <time>2023-08-11T14:00:51.000Z</time>
      </trkpt>
      <trkpt lat="45.21372" lon="6.02527">
        <ele>2096</ele>
        <time>2023-08-11T14:00:55.000Z</time>
      </trkpt>
      <trkpt lat="45.21372" lon="6.02529">
        <ele>2096.1999511719</ele>
        <time>2023-08-11T14:00:56.000Z</time>
      </trkpt>
      <trkpt lat="45.21371" lon="6.02527">
        <ele>2097</ele>
        <time>2023-08-11T14:01:02.000Z</time>
      </trkpt>
      <trkpt lat="45.21369" lon="6.02526">
        <ele>2097.1999511719</ele>
        <time>2023-08-11T14:01:06.000Z</time>
      </trkpt>
      <trkpt lat="45.21366" lon="6.02525">
        <ele>2097.6000976562</ele>
        <time>2023-08-11T14:01:10.000Z</time>
      </trkpt>
      <trkpt lat="45.21365" lon="6.02524">
        <ele>2098.3999023438</ele>
        <time>2023-08-11T14:01:14.000Z</time>
      </trkpt>
      <trkpt lat="45.21365" lon="6.02522">
        <ele>2098.3999023438</ele>
        <time>2023-08-11T14:01:19.000Z</time>
      </trkpt>
      <trkpt lat="45.21363" lon="6.02514">
        <ele>2098.1999511719</ele>
        <time>2023-08-11T14:01:29.000Z</time>
      </trkpt>
      <trkpt lat="45.21361" lon="6.02511">
        <ele>2097.1999511719</ele>
        <time>2023-08-11T14:01:36.000Z</time>
      </trkpt>
      <trkpt lat="45.21361" lon="6.02511">
        <ele>2097.1999511719</ele>
        <time>2023-08-11T14:01:37.000Z</time>
      </trkpt>
      <trkpt lat="45.21359" lon="6.02511">
        <ele>2096.3999023438</ele>
        <time>2023-08-11T14:01:46.000Z</time>
      </trkpt>
      <trkpt lat="45.21359" lon="6.02509">
        <ele>2096.1999511719</ele>
        <time>2023-08-11T14:01:50.000Z</time>
      </trkpt>
      <trkpt lat="45.21359" lon="6.02508">
        <ele>2096.1999511719</ele>
        <time>2023-08-11T14:01:52.000Z</time>
      </trkpt>
      <trkpt lat="45.21357" lon="6.02508">
        <ele>2095.1999511719</ele>
        <time>2023-08-11T14:01:58.000Z</time>
      </trkpt>
      <trkpt lat="45.21357" lon="6.02508">
        <ele>2094.8000488281</ele>
        <time>2023-08-11T14:01:59.000Z</time>
      </trkpt>
      <trkpt lat="45.21353" lon="6.02512">
        <ele>2094</ele>
        <time>2023-08-11T14:02:07.000Z</time>
      </trkpt>
      <trkpt lat="45.21349" lon="6.02511">
        <ele>2093</ele>
        <time>2023-08-11T14:02:16.000Z</time>
      </trkpt>
      <trkpt lat="45.21348" lon="6.02509">
        <ele>2091.8000488281</ele>
        <time>2023-08-11T14:02:20.000Z</time>
      </trkpt>
      <trkpt lat="45.21346" lon="6.02507">
        <ele>2091.1999511719</ele>
        <time>2023-08-11T14:02:25.000Z</time>
      </trkpt>
      <trkpt lat="45.21344" lon="6.02505">
        <ele>2090.8000488281</ele>
        <time>2023-08-11T14:02:30.000Z</time>
      </trkpt>
      <trkpt lat="45.21342" lon="6.02501">
        <ele>2090</ele>
        <time>2023-08-11T14:02:34.000Z</time>
      </trkpt>
      <trkpt lat="45.21341" lon="6.02499">
        <ele>2089.6000976562</ele>
        <time>2023-08-11T14:02:36.000Z</time>
      </trkpt>
      <trkpt lat="45.21338" lon="6.02495">
        <ele>2088.6000976562</ele>
        <time>2023-08-11T14:02:42.000Z</time>
      </trkpt>
      <trkpt lat="45.21334" lon="6.02493">
        <ele>2087.6000976562</ele>
        <time>2023-08-11T14:02:48.000Z</time>
      </trkpt>
      <trkpt lat="45.21334" lon="6.02493">
        <ele>2087.1999511719</ele>
        <time>2023-08-11T14:02:50.000Z</time>
      </trkpt>
      <trkpt lat="45.21334" lon="6.02494">
        <ele>2087.1999511719</ele>
        <time>2023-08-11T14:02:51.000Z</time>
      </trkpt>
      <trkpt lat="45.21336" lon="6.02494">
        <ele>2086.6000976562</ele>
        <time>2023-08-11T14:02:56.000Z</time>
      </trkpt>
      <trkpt lat="45.21336" lon="6.02494">
        <ele>2086.3999023438</ele>
        <time>2023-08-11T14:02:57.000Z</time>
      </trkpt>
      <trkpt lat="45.21335" lon="6.02495">
        <ele>2085.8000488281</ele>
        <time>2023-08-11T14:03:07.000Z</time>
      </trkpt>
      <trkpt lat="45.21334" lon="6.02491">
        <ele>2086</ele>
        <time>2023-08-11T14:03:15.000Z</time>
      </trkpt>
      <trkpt lat="45.2133" lon="6.02485">
        <ele>2085.8000488281</ele>
        <time>2023-08-11T14:03:23.000Z</time>
      </trkpt>
      <trkpt lat="45.21328" lon="6.02484">
        <ele>2085.1999511719</ele>
        <time>2023-08-11T14:03:28.000Z</time>
      </trkpt>
      <trkpt lat="45.21328" lon="6.02484">
        <ele>2084.8000488281</ele>
        <time>2023-08-11T14:03:30.000Z</time>
      </trkpt>
      <trkpt lat="45.21326" lon="6.02484">
        <ele>2084.1999511719</ele>
        <time>2023-08-11T14:03:38.000Z</time>
      </trkpt>
      <trkpt lat="45.21326" lon="6.02483">
        <ele>2084.1999511719</ele>
        <time>2023-08-11T14:03:39.000Z</time>
      </trkpt>
      <trkpt lat="45.21322" lon="6.02477">
        <ele>2083.6000976562</ele>
        <time>2023-08-11T14:03:47.000Z</time>
      </trkpt>
      <trkpt lat="45.21318" lon="6.02476">
        <ele>2083</ele>
        <time>2023-08-11T14:03:51.000Z</time>
      </trkpt>
      <trkpt lat="45.21317" lon="6.02475">
        <ele>2082</ele>
        <time>2023-08-11T14:03:55.000Z</time>
      </trkpt>
      <trkpt lat="45.21317" lon="6.02475">
        <ele>2081.8000488281</ele>
        <time>2023-08-11T14:03:56.000Z</time>
      </trkpt>
      <trkpt lat="45.21313" lon="6.02474">
        <ele>2080.8000488281</ele>
        <time>2023-08-11T14:04:02.000Z</time>
      </trkpt>
      <trkpt lat="45.21309" lon="6.02469">
        <ele>2079.8000488281</ele>
        <time>2023-08-11T14:04:09.000Z</time>
      </trkpt>
      <trkpt lat="45.21307" lon="6.02465">
        <ele>2079.1999511719</ele>
        <time>2023-08-11T14:04:15.000Z</time>
      </trkpt>
      <trkpt lat="45.21306" lon="6.02462">
        <ele>2078.8000488281</ele>
        <time>2023-08-11T14:04:18.000Z</time>
      </trkpt>
      <trkpt lat="45.21304" lon="6.0246">
        <ele>2077.6000976562</ele>
        <time>2023-08-11T14:04:23.000Z</time>
      </trkpt>
      <trkpt lat="45.21303" lon="6.0246">
        <ele>2076.6000976562</ele>
        <time>2023-08-11T14:04:27.000Z</time>
      </trkpt>
      <trkpt lat="45.21302" lon="6.02459">
        <ele>2076.3999023438</ele>
        <time>2023-08-11T14:04:29.000Z</time>
      </trkpt>
      <trkpt lat="45.21302" lon="6.02456">
        <ele>2075.6000976562</ele>
        <time>2023-08-11T14:04:35.000Z</time>
      </trkpt>
      <trkpt lat="45.21301" lon="6.02454">
        <ele>2074.3999023438</ele>
        <time>2023-08-11T14:04:42.000Z</time>
      </trkpt>
      <trkpt lat="45.213" lon="6.02451">
        <ele>2073.8000488281</ele>
        <time>2023-08-11T14:04:48.000Z</time>
      </trkpt>
      <trkpt lat="45.213" lon="6.02451">
        <ele>2073.3999023438</ele>
        <time>2023-08-11T14:04:51.000Z</time>
      </trkpt>
      <trkpt lat="45.21299" lon="6.02448">
        <ele>2072.8000488281</ele>
        <time>2023-08-11T14:04:56.000Z</time>
      </trkpt>
      <trkpt lat="45.21297" lon="6.02447">
        <ele>2072.1999511719</ele>
        <time>2023-08-11T14:04:59.000Z</time>
      </trkpt>
      <trkpt lat="45.21295" lon="6.02446">
        <ele>2071.1999511719</ele>
        <time>2023-08-11T14:05:03.000Z</time>
      </trkpt>
      <trkpt lat="45.21294" lon="6.02444">
        <ele>2070.8000488281</ele>
        <time>2023-08-11T14:05:05.000Z</time>
      </trkpt>
      <trkpt lat="45.21292" lon="6.02438">
        <ele>2070.1999511719</ele>
        <time>2023-08-11T14:05:10.000Z</time>
      </trkpt>
      <trkpt lat="45.21291" lon="6.02435">
        <ele>2070</ele>
        <time>2023-08-11T14:05:13.000Z</time>
      </trkpt>
      <trkpt lat="45.21288" lon="6.02429">
        <ele>2069.6000976562</ele>
        <time>2023-08-11T14:05:21.000Z</time>
      </trkpt>
      <trkpt lat="45.21287" lon="6.02425">
        <ele>2069.1999511719</ele>
        <time>2023-08-11T14:05:26.000Z</time>
      </trkpt>
      <trkpt lat="45.21286" lon="6.02424">
        <ele>2069</ele>
        <time>2023-08-11T14:05:28.000Z</time>
      </trkpt>
      <trkpt lat="45.21284" lon="6.0242">
        <ele>2068</ele>
        <time>2023-08-11T14:05:35.000Z</time>
      </trkpt>
      <trkpt lat="45.21282" lon="6.02419">
        <ele>2067.8000488281</ele>
        <time>2023-08-11T14:05:37.000Z</time>
      </trkpt>
      <trkpt lat="45.21278" lon="6.02418">
        <ele>2067</ele>
        <time>2023-08-11T14:05:42.000Z</time>
      </trkpt>
      <trkpt lat="45.21276" lon="6.02415">
        <ele>2066.3999023438</ele>
        <time>2023-08-11T14:05:46.000Z</time>
      </trkpt>
      <trkpt lat="45.21275" lon="6.0241">
        <ele>2066</ele>
        <time>2023-08-11T14:05:51.000Z</time>
      </trkpt>
      <trkpt lat="45.21275" lon="6.02407">
        <ele>2066</ele>
        <time>2023-08-11T14:05:53.000Z</time>
      </trkpt>
      <trkpt lat="45.21272" lon="6.02398">
        <ele>2065.1999511719</ele>
        <time>2023-08-11T14:06:02.000Z</time>
      </trkpt>
      <trkpt lat="45.21271" lon="6.02399">
        <ele>2065</ele>
        <time>2023-08-11T14:06:06.000Z</time>
      </trkpt>
      <trkpt lat="45.21269" lon="6.02399">
        <ele>2065</ele>
        <time>2023-08-11T14:06:08.000Z</time>
      </trkpt>
      <trkpt lat="45.21268" lon="6.02399">
        <ele>2064.6000976562</ele>
        <time>2023-08-11T14:06:09.000Z</time>
      </trkpt>
      <trkpt lat="45.21267" lon="6.02396">
        <ele>2063.8000488281</ele>
        <time>2023-08-11T14:06:14.000Z</time>
      </trkpt>
      <trkpt lat="45.21267" lon="6.02396">
        <ele>2063.6000976562</ele>
        <time>2023-08-11T14:06:15.000Z</time>
      </trkpt>
      <trkpt lat="45.21264" lon="6.02392">
        <ele>2063.3999023438</ele>
        <time>2023-08-11T14:06:20.000Z</time>
      </trkpt>
      <trkpt lat="45.21263" lon="6.02389">
        <ele>2063</ele>
        <time>2023-08-11T14:06:27.000Z</time>
      </trkpt>
      <trkpt lat="45.21262" lon="6.02386">
        <ele>2062.3999023438</ele>
        <time>2023-08-11T14:06:30.000Z</time>
      </trkpt>
      <trkpt lat="45.21263" lon="6.02383">
        <ele>2062.1999511719</ele>
        <time>2023-08-11T14:06:34.000Z</time>
      </trkpt>
      <trkpt lat="45.21262" lon="6.02379">
        <ele>2062</ele>
        <time>2023-08-11T14:06:40.000Z</time>
      </trkpt>
      <trkpt lat="45.21262" lon="6.02371">
        <ele>2061.8000488281</ele>
        <time>2023-08-11T14:06:47.000Z</time>
      </trkpt>
      <trkpt lat="45.21261" lon="6.02363">
        <ele>2062</ele>
        <time>2023-08-11T14:06:55.000Z</time>
      </trkpt>
      <trkpt lat="45.21256" lon="6.02359">
        <ele>2062.3999023438</ele>
        <time>2023-08-11T14:07:03.000Z</time>
      </trkpt>
      <trkpt lat="45.21255" lon="6.02359">
        <ele>2062.8000488281</ele>
        <time>2023-08-11T14:07:06.000Z</time>
      </trkpt>
      <trkpt lat="45.21256" lon="6.02359">
        <ele>2063.1999511719</ele>
        <time>2023-08-11T14:07:11.000Z</time>
      </trkpt>
      <trkpt lat="45.21257" lon="6.0236">
        <ele>2063.6000976562</ele>
        <time>2023-08-11T14:07:13.000Z</time>
      </trkpt>
      <trkpt lat="45.21258" lon="6.02359">
        <ele>2064</ele>
        <time>2023-08-11T14:07:16.000Z</time>
      </trkpt>
      <trkpt lat="45.21258" lon="6.02357">
        <ele>2064.1999511719</ele>
        <time>2023-08-11T14:07:18.000Z</time>
      </trkpt>
      <trkpt lat="45.21258" lon="6.02353">
        <ele>2064.6000976562</ele>
        <time>2023-08-11T14:07:22.000Z</time>
      </trkpt>
      <trkpt lat="45.21257" lon="6.0235">
        <ele>2064.8000488281</ele>
        <time>2023-08-11T14:07:25.000Z</time>
      </trkpt>
      <trkpt lat="45.21255" lon="6.02346">
        <ele>2065.6000976562</ele>
        <time>2023-08-11T14:07:31.000Z</time>
      </trkpt>
      <trkpt lat="45.21253" lon="6.02343">
        <ele>2066.1999511719</ele>
        <time>2023-08-11T14:07:35.000Z</time>
      </trkpt>
      <trkpt lat="45.21251" lon="6.02333">
        <ele>2066.3999023438</ele>
        <time>2023-08-11T14:07:42.000Z</time>
      </trkpt>
      <trkpt lat="45.21249" lon="6.02325">
        <ele>2066.8000488281</ele>
        <time>2023-08-11T14:07:48.000Z</time>
      </trkpt>
      <trkpt lat="45.21249" lon="6.02324">
        <ele>2066.8000488281</ele>
        <time>2023-08-11T14:07:49.000Z</time>
      </trkpt>
      <trkpt lat="45.21246" lon="6.02318">
        <ele>2067.8000488281</ele>
        <time>2023-08-11T14:07:56.000Z</time>
      </trkpt>
      <trkpt lat="45.21246" lon="6.02318">
        <ele>2068</ele>
        <time>2023-08-11T14:07:57.000Z</time>
      </trkpt>
      <trkpt lat="45.21245" lon="6.02317">
        <ele>2069</ele>
        <time>2023-08-11T14:08:04.000Z</time>
      </trkpt>
      <trkpt lat="45.21245" lon="6.02317">
        <ele>2069.3999023438</ele>
        <time>2023-08-11T14:08:06.000Z</time>
      </trkpt>
      <trkpt lat="45.21244" lon="6.02315">
        <ele>2070.1999511719</ele>
        <time>2023-08-11T14:08:10.000Z</time>
      </trkpt>
      <trkpt lat="45.21244" lon="6.02311">
        <ele>2071.3999023438</ele>
        <time>2023-08-11T14:08:15.000Z</time>
      </trkpt>
      <trkpt lat="45.21244" lon="6.02305">
        <ele>2072.3999023438</ele>
        <time>2023-08-11T14:08:21.000Z</time>
      </trkpt>
      <trkpt lat="45.21244" lon="6.02304">
        <ele>2073</ele>
        <time>2023-08-11T14:08:24.000Z</time>
      </trkpt>
      <trkpt lat="45.21243" lon="6.02304">
        <ele>2073.6000976562</ele>
        <time>2023-08-11T14:08:27.000Z</time>
      </trkpt>
      <trkpt lat="45.21242" lon="6.02301">
        <ele>2074.6000976562</ele>
        <time>2023-08-11T14:08:31.000Z</time>
      </trkpt>
      <trkpt lat="45.21242" lon="6.023">
        <ele>2075</ele>
        <time>2023-08-11T14:08:32.000Z</time>
      </trkpt>
      <trkpt lat="45.21242" lon="6.02298">
        <ele>2075.6000976562</ele>
        <time>2023-08-11T14:08:34.000Z</time>
      </trkpt>
      <trkpt lat="45.21238" lon="6.02295">
        <ele>2076.1999511719</ele>
        <time>2023-08-11T14:08:41.000Z</time>
      </trkpt>
      <trkpt lat="45.21237" lon="6.02291">
        <ele>2076.6000976562</ele>
        <time>2023-08-11T14:08:44.000Z</time>
      </trkpt>
      <trkpt lat="45.21236" lon="6.02287">
        <ele>2076.6000976562</ele>
        <time>2023-08-11T14:08:50.000Z</time>
      </trkpt>
      <trkpt lat="45.21233" lon="6.02277">
        <ele>2075.8000488281</ele>
        <time>2023-08-11T14:08:57.000Z</time>
      </trkpt>
      <trkpt lat="45.21231" lon="6.02273">
        <ele>2075.3999023438</ele>
        <time>2023-08-11T14:09:00.000Z</time>
      </trkpt>
      <trkpt lat="45.21229" lon="6.02266">
        <ele>2074.6000976562</ele>
        <time>2023-08-11T14:09:04.000Z</time>
      </trkpt>
      <trkpt lat="45.21228" lon="6.02265">
        <ele>2074.3999023438</ele>
        <time>2023-08-11T14:09:05.000Z</time>
      </trkpt>
      <trkpt lat="45.21227" lon="6.02263">
        <ele>2073.3999023438</ele>
        <time>2023-08-11T14:09:09.000Z</time>
      </trkpt>
      <trkpt lat="45.21226" lon="6.02262">
        <ele>2073.1999511719</ele>
        <time>2023-08-11T14:09:10.000Z</time>
      </trkpt>
      <trkpt lat="45.21223" lon="6.02258">
        <ele>2072</ele>
        <time>2023-08-11T14:09:16.000Z</time>
      </trkpt>
      <trkpt lat="45.21222" lon="6.02256">
        <ele>2071.1999511719</ele>
        <time>2023-08-11T14:09:19.000Z</time>
      </trkpt>
      <trkpt lat="45.21221" lon="6.02255">
        <ele>2071</ele>
        <time>2023-08-11T14:09:21.000Z</time>
      </trkpt>
      <trkpt lat="45.21219" lon="6.0225">
        <ele>2070.1999511719</ele>
        <time>2023-08-11T14:09:28.000Z</time>
      </trkpt>
      <trkpt lat="45.21219" lon="6.02247">
        <ele>2070</ele>
        <time>2023-08-11T14:09:31.000Z</time>
      </trkpt>
      <trkpt lat="45.21219" lon="6.02245">
        <ele>2069.1999511719</ele>
        <time>2023-08-11T14:09:35.000Z</time>
      </trkpt>
      <trkpt lat="45.21219" lon="6.02244">
        <ele>2068.8000488281</ele>
        <time>2023-08-11T14:09:37.000Z</time>
      </trkpt>
      <trkpt lat="45.21218" lon="6.0224">
        <ele>2067.8000488281</ele>
        <time>2023-08-11T14:09:42.000Z</time>
      </trkpt>
      <trkpt lat="45.21218" lon="6.0224">
        <ele>2067.3999023438</ele>
        <time>2023-08-11T14:09:44.000Z</time>
      </trkpt>
      <trkpt lat="45.21216" lon="6.02241">
        <ele>2066.6000976562</ele>
        <time>2023-08-11T14:09:47.000Z</time>
      </trkpt>
      <trkpt lat="45.21213" lon="6.02242">
        <ele>2066</ele>
        <time>2023-08-11T14:09:50.000Z</time>
      </trkpt>
      <trkpt lat="45.21213" lon="6.0224">
        <ele>2065.3999023438</ele>
        <time>2023-08-11T14:09:54.000Z</time>
      </trkpt>
      <trkpt lat="45.21214" lon="6.02237">
        <ele>2064.8000488281</ele>
        <time>2023-08-11T14:09:57.000Z</time>
      </trkpt>
      <trkpt lat="45.21215" lon="6.02234">
        <ele>2064.1999511719</ele>
        <time>2023-08-11T14:10:00.000Z</time>
      </trkpt>
      <trkpt lat="45.21215" lon="6.02233">
        <ele>2063.3999023438</ele>
        <time>2023-08-11T14:10:05.000Z</time>
      </trkpt>
      <trkpt lat="45.21212" lon="6.02233">
        <ele>2063.3999023438</ele>
        <time>2023-08-11T14:10:15.000Z</time>
      </trkpt>
      <trkpt lat="45.21213" lon="6.02235">
        <ele>2063.6000976562</ele>
        <time>2023-08-11T14:10:26.000Z</time>
      </trkpt>
      <trkpt lat="45.21212" lon="6.02235">
        <ele>2063.3999023438</ele>
        <time>2023-08-11T14:10:35.000Z</time>
      </trkpt>
      <trkpt lat="45.21211" lon="6.02233">
        <ele>2062.8000488281</ele>
        <time>2023-08-11T14:10:37.000Z</time>
      </trkpt>
      <trkpt lat="45.2121" lon="6.02231">
        <ele>2061.3999023438</ele>
        <time>2023-08-11T14:10:42.000Z</time>
      </trkpt>
      <trkpt lat="45.21209" lon="6.0223">
        <ele>2061</ele>
        <time>2023-08-11T14:10:44.000Z</time>
      </trkpt>
      <trkpt lat="45.21207" lon="6.02228">
        <ele>2060.1999511719</ele>
        <time>2023-08-11T14:10:47.000Z</time>
      </trkpt>
      <trkpt lat="45.21206" lon="6.02225">
        <ele>2059.1999511719</ele>
        <time>2023-08-11T14:10:50.000Z</time>
      </trkpt>
      <trkpt lat="45.21206" lon="6.02225">
        <ele>2059</ele>
        <time>2023-08-11T14:10:51.000Z</time>
      </trkpt>
      <trkpt lat="45.21206" lon="6.02222">
        <ele>2058</ele>
        <time>2023-08-11T14:10:55.000Z</time>
      </trkpt>
      <trkpt lat="45.21203" lon="6.02221">
        <ele>2057</ele>
        <time>2023-08-11T14:10:59.000Z</time>
      </trkpt>
      <trkpt lat="45.21203" lon="6.02221">
        <ele>2056.8000488281</ele>
        <time>2023-08-11T14:11:00.000Z</time>
      </trkpt>
      <trkpt lat="45.21199" lon="6.02224">
        <ele>2055.6000976562</ele>
        <time>2023-08-11T14:11:06.000Z</time>
      </trkpt>
      <trkpt lat="45.21199" lon="6.02223">
        <ele>2055.6000976562</ele>
        <time>2023-08-11T14:11:07.000Z</time>
      </trkpt>
      <trkpt lat="45.212" lon="6.02222">
        <ele>2054.6000976562</ele>
        <time>2023-08-11T14:11:12.000Z</time>
      </trkpt>
      <trkpt lat="45.21198" lon="6.0222">
        <ele>2054</ele>
        <time>2023-08-11T14:11:15.000Z</time>
      </trkpt>
      <trkpt lat="45.21196" lon="6.02217">
        <ele>2053.6000976562</ele>
        <time>2023-08-11T14:11:18.000Z</time>
      </trkpt>
      <trkpt lat="45.21194" lon="6.02213">
        <ele>2052.8000488281</ele>
        <time>2023-08-11T14:11:23.000Z</time>
      </trkpt>
      <trkpt lat="45.21192" lon="6.0221">
        <ele>2052.3999023438</ele>
        <time>2023-08-11T14:11:25.000Z</time>
      </trkpt>
      <trkpt lat="45.21187" lon="6.02202">
        <ele>2051.3999023438</ele>
        <time>2023-08-11T14:11:32.000Z</time>
      </trkpt>
      <trkpt lat="45.21185" lon="6.02202">
        <ele>2051.3999023438</ele>
        <time>2023-08-11T14:11:33.000Z</time>
      </trkpt>
      <trkpt lat="45.21182" lon="6.02203">
        <ele>2051.1999511719</ele>
        <time>2023-08-11T14:11:36.000Z</time>
      </trkpt>
      <trkpt lat="45.21181" lon="6.02205">
        <ele>2050.6000976562</ele>
        <time>2023-08-11T14:11:38.000Z</time>
      </trkpt>
      <trkpt lat="45.2118" lon="6.02207">
        <ele>2050.1999511719</ele>
        <time>2023-08-11T14:11:40.000Z</time>
      </trkpt>
      <trkpt lat="45.21179" lon="6.02208">
        <ele>2049</ele>
        <time>2023-08-11T14:11:46.000Z</time>
      </trkpt>
      <trkpt lat="45.21178" lon="6.0221">
        <ele>2048</ele>
        <time>2023-08-11T14:11:51.000Z</time>
      </trkpt>
      <trkpt lat="45.21177" lon="6.02216">
        <ele>2046.8000488281</ele>
        <time>2023-08-11T14:11:57.000Z</time>
      </trkpt>
      <trkpt lat="45.21174" lon="6.02217">
        <ele>2045.8000488281</ele>
        <time>2023-08-11T14:12:03.000Z</time>
      </trkpt>
      <trkpt lat="45.21174" lon="6.02217">
        <ele>2045.5999755859</ele>
        <time>2023-08-11T14:12:04.000Z</time>
      </trkpt>
      <trkpt lat="45.21173" lon="6.02214">
        <ele>2044.5999755859</ele>
        <time>2023-08-11T14:12:08.000Z</time>
      </trkpt>
      <trkpt lat="45.21172" lon="6.02213">
        <ele>2043.4000244141</ele>
        <time>2023-08-11T14:12:13.000Z</time>
      </trkpt>
      <trkpt lat="45.21169" lon="6.02212">
        <ele>2042.1999511719</ele>
        <time>2023-08-11T14:12:18.000Z</time>
      </trkpt>
      <trkpt lat="45.21168" lon="6.02212">
        <ele>2041.8000488281</ele>
        <time>2023-08-11T14:12:20.000Z</time>
      </trkpt>
      <trkpt lat="45.21166" lon="6.02211">
        <ele>2041</ele>
        <time>2023-08-11T14:12:23.000Z</time>
      </trkpt>
      <trkpt lat="45.21164" lon="6.0221">
        <ele>2040</ele>
        <time>2023-08-11T14:12:27.000Z</time>
      </trkpt>
      <trkpt lat="45.21161" lon="6.0221">
        <ele>2038.8000488281</ele>
        <time>2023-08-11T14:12:30.000Z</time>
      </trkpt>
      <trkpt lat="45.21158" lon="6.02209">
        <ele>2037.8000488281</ele>
        <time>2023-08-11T14:12:33.000Z</time>
      </trkpt>
      <trkpt lat="45.21154" lon="6.02209">
        <ele>2037.4000244141</ele>
        <time>2023-08-11T14:12:36.000Z</time>
      </trkpt>
      <trkpt lat="45.21147" lon="6.02207">
        <ele>2036.8000488281</ele>
        <time>2023-08-11T14:12:44.000Z</time>
      </trkpt>
      <trkpt lat="45.21147" lon="6.02207">
        <ele>2036.8000488281</ele>
        <time>2023-08-11T14:12:45.000Z</time>
      </trkpt>
      <trkpt lat="45.21145" lon="6.02203">
        <ele>2035.5999755859</ele>
        <time>2023-08-11T14:12:51.000Z</time>
      </trkpt>
      <trkpt lat="45.21145" lon="6.02203">
        <ele>2035.4000244141</ele>
        <time>2023-08-11T14:12:52.000Z</time>
      </trkpt>
      <trkpt lat="45.21144" lon="6.02202">
        <ele>2034.4000244141</ele>
        <time>2023-08-11T14:12:56.000Z</time>
      </trkpt>
      <trkpt lat="45.21142" lon="6.02201">
        <ele>2033.1999511719</ele>
        <time>2023-08-11T14:13:01.000Z</time>
      </trkpt>
      <trkpt lat="45.21141" lon="6.02197">
        <ele>2032.1999511719</ele>
        <time>2023-08-11T14:13:06.000Z</time>
      </trkpt>
      <trkpt lat="45.21141" lon="6.02196">
        <ele>2032</ele>
        <time>2023-08-11T14:13:07.000Z</time>
      </trkpt>
      <trkpt lat="45.2114" lon="6.02195">
        <ele>2031.1999511719</ele>
        <time>2023-08-11T14:13:11.000Z</time>
      </trkpt>
      <trkpt lat="45.21137" lon="6.02195">
        <ele>2030.1999511719</ele>
        <time>2023-08-11T14:13:16.000Z</time>
      </trkpt>
      <trkpt lat="45.21136" lon="6.02194">
        <ele>2030</ele>
        <time>2023-08-11T14:13:17.000Z</time>
      </trkpt>
      <trkpt lat="45.21135" lon="6.02192">
        <ele>2028.8000488281</ele>
        <time>2023-08-11T14:13:22.000Z</time>
      </trkpt>
      <trkpt lat="45.21133" lon="6.02189">
        <ele>2027.8000488281</ele>
        <time>2023-08-11T14:13:28.000Z</time>
      </trkpt>
      <trkpt lat="45.21133" lon="6.02188">
        <ele>2027.5999755859</ele>
        <time>2023-08-11T14:13:30.000Z</time>
      </trkpt>
      <trkpt lat="45.21131" lon="6.02186">
        <ele>2026.5999755859</ele>
        <time>2023-08-11T14:13:34.000Z</time>
      </trkpt>
      <trkpt lat="45.2113" lon="6.02183">
        <ele>2025.5999755859</ele>
        <time>2023-08-11T14:13:39.000Z</time>
      </trkpt>
      <trkpt lat="45.2113" lon="6.02183">
        <ele>2025.4000244141</ele>
        <time>2023-08-11T14:13:40.000Z</time>
      </trkpt>
      <trkpt lat="45.21128" lon="6.02177">
        <ele>2024.5999755859</ele>
        <time>2023-08-11T14:13:45.000Z</time>
      </trkpt>
      <trkpt lat="45.21128" lon="6.02175">
        <ele>2024</ele>
        <time>2023-08-11T14:13:48.000Z</time>
      </trkpt>
      <trkpt lat="45.21126" lon="6.02172">
        <ele>2023.4000244141</ele>
        <time>2023-08-11T14:13:53.000Z</time>
      </trkpt>
      <trkpt lat="45.21125" lon="6.02172">
        <ele>2023</ele>
        <time>2023-08-11T14:13:56.000Z</time>
      </trkpt>
      <trkpt lat="45.21125" lon="6.02172">
        <ele>2022.1999511719</ele>
        <time>2023-08-11T14:13:59.000Z</time>
      </trkpt>
      <trkpt lat="45.21122" lon="6.02168">
        <ele>2021.1999511719</ele>
        <time>2023-08-11T14:14:03.000Z</time>
      </trkpt>
      <trkpt lat="45.21121" lon="6.02166">
        <ele>2020.8000488281</ele>
        <time>2023-08-11T14:14:05.000Z</time>
      </trkpt>
      <trkpt lat="45.21118" lon="6.02162">
        <ele>2020.1999511719</ele>
        <time>2023-08-11T14:14:10.000Z</time>
      </trkpt>
      <trkpt lat="45.21118" lon="6.02162">
        <ele>2020</ele>
        <time>2023-08-11T14:14:12.000Z</time>
      </trkpt>
      <trkpt lat="45.2112" lon="6.02165">
        <ele>2019.8000488281</ele>
        <time>2023-08-11T14:14:20.000Z</time>
      </trkpt>
      <trkpt lat="45.2112" lon="6.0216">
        <ele>2019.5999755859</ele>
        <time>2023-08-11T14:14:27.000Z</time>
      </trkpt>
      <trkpt lat="45.21119" lon="6.02161">
        <ele>2020</ele>
        <time>2023-08-11T14:14:36.000Z</time>
      </trkpt>
      <trkpt lat="45.21119" lon="6.02164">
        <ele>2019.4000244141</ele>
        <time>2023-08-11T14:14:44.000Z</time>
      </trkpt>
      <trkpt lat="45.21119" lon="6.02163">
        <ele>2019.1999511719</ele>
        <time>2023-08-11T14:14:46.000Z</time>
      </trkpt>
      <trkpt lat="45.21118" lon="6.02163">
        <ele>2019</ele>
        <time>2023-08-11T14:14:52.000Z</time>
      </trkpt>
      <trkpt lat="45.21117" lon="6.02164">
        <ele>2019.1999511719</ele>
        <time>2023-08-11T14:15:00.000Z</time>
      </trkpt>
      <trkpt lat="45.21115" lon="6.02166">
        <ele>2019.5999755859</ele>
        <time>2023-08-11T14:15:08.000Z</time>
      </trkpt>
      <trkpt lat="45.21116" lon="6.02166">
        <ele>2019.4000244141</ele>
        <time>2023-08-11T14:15:15.000Z</time>
      </trkpt>
      <trkpt lat="45.21119" lon="6.0216">
        <ele>2019.4000244141</ele>
        <time>2023-08-11T14:15:23.000Z</time>
      </trkpt>
      <trkpt lat="45.2112" lon="6.02155">
        <ele>2019.4000244141</ele>
        <time>2023-08-11T14:15:29.000Z</time>
      </trkpt>
      <trkpt lat="45.21119" lon="6.02159">
        <ele>2019.5999755859</ele>
        <time>2023-08-11T14:15:36.000Z</time>
      </trkpt>
      <trkpt lat="45.21117" lon="6.02159">
        <ele>2019.8000488281</ele>
        <time>2023-08-11T14:15:42.000Z</time>
      </trkpt>
      <trkpt lat="45.21118" lon="6.02162">
        <ele>2020</ele>
        <time>2023-08-11T14:15:50.000Z</time>
      </trkpt>
      <trkpt lat="45.21118" lon="6.02163">
        <ele>2020.1999511719</ele>
        <time>2023-08-11T14:15:52.000Z</time>
      </trkpt>
      <trkpt lat="45.21117" lon="6.02163">
        <ele>2020.4000244141</ele>
        <time>2023-08-11T14:15:57.000Z</time>
      </trkpt>
      <trkpt lat="45.21117" lon="6.02162">
        <ele>2020.4000244141</ele>
        <time>2023-08-11T14:16:05.000Z</time>
      </trkpt>
      <trkpt lat="45.21117" lon="6.02163">
        <ele>2020</ele>
        <time>2023-08-11T14:16:12.000Z</time>
      </trkpt>
      <trkpt lat="45.21116" lon="6.02163">
        <ele>2020</ele>
        <time>2023-08-11T14:16:19.000Z</time>
      </trkpt>
      <trkpt lat="45.21117" lon="6.02165">
        <ele>2020.1999511719</ele>
        <time>2023-08-11T14:16:26.000Z</time>
      </trkpt>
      <trkpt lat="45.21117" lon="6.02166">
        <ele>2019.8000488281</ele>
        <time>2023-08-11T14:16:34.000Z</time>
      </trkpt>
      <trkpt lat="45.21117" lon="6.02165">
        <ele>2020.4000244141</ele>
        <time>2023-08-11T14:16:48.000Z</time>
      </trkpt>
      <trkpt lat="45.21109" lon="6.02163">
        <ele>2021</ele>
        <time>2023-08-11T14:17:18.000Z</time>
      </trkpt>
      <trkpt lat="45.21112" lon="6.02164">
        <ele>2021</ele>
        <time>2023-08-11T14:17:28.000Z</time>
      </trkpt>
      <trkpt lat="45.21114" lon="6.02166">
        <ele>2021</ele>
        <time>2023-08-11T14:17:36.000Z</time>
      </trkpt>
      <trkpt lat="45.21114" lon="6.02166">
        <ele>2021.1999511719</ele>
        <time>2023-08-11T14:17:41.000Z</time>
      </trkpt>
      <trkpt lat="45.21118" lon="6.0217">
        <ele>2021.4000244141</ele>
        <time>2023-08-11T14:17:53.000Z</time>
      </trkpt>
      <trkpt lat="45.21117" lon="6.02168">
        <ele>2021.4000244141</ele>
        <time>2023-08-11T14:17:58.000Z</time>
      </trkpt>
      <trkpt lat="45.21114" lon="6.02165">
        <ele>2021.1999511719</ele>
        <time>2023-08-11T14:18:05.000Z</time>
      </trkpt>
      <trkpt lat="45.21113" lon="6.02164">
        <ele>2021.1999511719</ele>
        <time>2023-08-11T14:18:13.000Z</time>
      </trkpt>
      <trkpt lat="45.21115" lon="6.02165">
        <ele>2021.4000244141</ele>
        <time>2023-08-11T14:18:19.000Z</time>
      </trkpt>
      <trkpt lat="45.21117" lon="6.02165">
        <ele>2021.4000244141</ele>
        <time>2023-08-11T14:18:28.000Z</time>
      </trkpt>
      <trkpt lat="45.21118" lon="6.02165">
        <ele>2021.1999511719</ele>
        <time>2023-08-11T14:18:39.000Z</time>
      </trkpt>
      <trkpt lat="45.21119" lon="6.02167">
        <ele>2021</ele>
        <time>2023-08-11T14:18:45.000Z</time>
      </trkpt>
      <trkpt lat="45.21119" lon="6.02167">
        <ele>2021.1999511719</ele>
        <time>2023-08-11T14:18:52.000Z</time>
      </trkpt>
      <trkpt lat="45.21116" lon="6.02165">
        <ele>2021.1999511719</ele>
        <time>2023-08-11T14:18:59.000Z</time>
      </trkpt>
      <trkpt lat="45.21114" lon="6.02163">
        <ele>2021.4000244141</ele>
        <time>2023-08-11T14:19:06.000Z</time>
      </trkpt>
      <trkpt lat="45.21116" lon="6.02162">
        <ele>2021.5999755859</ele>
        <time>2023-08-11T14:19:13.000Z</time>
      </trkpt>
      <trkpt lat="45.21117" lon="6.0216">
        <ele>2021.5999755859</ele>
        <time>2023-08-11T14:19:20.000Z</time>
      </trkpt>
      <trkpt lat="45.21117" lon="6.02163">
        <ele>2021.8000488281</ele>
        <time>2023-08-11T14:19:29.000Z</time>
      </trkpt>
      <trkpt lat="45.21115" lon="6.02162">
        <ele>2022</ele>
        <time>2023-08-11T14:19:36.000Z</time>
      </trkpt>
      <trkpt lat="45.21116" lon="6.02162">
        <ele>2022</ele>
        <time>2023-08-11T14:19:46.000Z</time>
      </trkpt>
      <trkpt lat="45.21117" lon="6.02162">
        <ele>2022</ele>
        <time>2023-08-11T14:19:55.000Z</time>
      </trkpt>
      <trkpt lat="45.21117" lon="6.02162">
        <ele>2022</ele>
        <time>2023-08-11T14:20:02.000Z</time>
      </trkpt>
      <trkpt lat="45.21116" lon="6.02164">
        <ele>2022</ele>
        <time>2023-08-11T14:20:06.000Z</time>
      </trkpt>
      <trkpt lat="45.21116" lon="6.02163">
        <ele>2022</ele>
        <time>2023-08-11T14:20:12.000Z</time>
      </trkpt>
      <trkpt lat="45.21115" lon="6.02163">
        <ele>2022.1999511719</ele>
        <time>2023-08-11T14:20:15.000Z</time>
      </trkpt>
      <trkpt lat="45.21115" lon="6.02163">
        <ele>2022.1999511719</ele>
        <time>2023-08-11T14:20:21.000Z</time>
      </trkpt>
      <trkpt lat="45.21115" lon="6.02162">
        <ele>2022.1999511719</ele>
        <time>2023-08-11T14:20:29.000Z</time>
      </trkpt>
      <trkpt lat="45.21117" lon="6.02163">
        <ele>2022.4000244141</ele>
        <time>2023-08-11T14:20:37.000Z</time>
      </trkpt>
      <trkpt lat="45.21117" lon="6.02165">
        <ele>2022.4000244141</ele>
        <time>2023-08-11T14:20:44.000Z</time>
      </trkpt>
      <trkpt lat="45.21114" lon="6.02161">
        <ele>2022.4000244141</ele>
        <time>2023-08-11T14:20:51.000Z</time>
      </trkpt>
      <trkpt lat="45.21111" lon="6.02159">
        <ele>2021.1999511719</ele>
        <time>2023-08-11T14:20:58.000Z</time>
      </trkpt>
      <trkpt lat="45.2111" lon="6.02159">
        <ele>2021</ele>
        <time>2023-08-11T14:20:59.000Z</time>
      </trkpt>
      <trkpt lat="45.21105" lon="6.02157">
        <ele>2020.5999755859</ele>
        <time>2023-08-11T14:21:07.000Z</time>
      </trkpt>
      <trkpt lat="45.21097" lon="6.02148">
        <ele>2022</ele>
        <time>2023-08-11T14:21:15.000Z</time>
      </trkpt>
      <trkpt lat="45.21096" lon="6.02148">
        <ele>2022.1999511719</ele>
        <time>2023-08-11T14:21:16.000Z</time>
      </trkpt>
      <trkpt lat="45.21093" lon="6.02141">
        <ele>2022.4000244141</ele>
        <time>2023-08-11T14:21:21.000Z</time>
      </trkpt>
      <trkpt lat="45.21088" lon="6.02133">
        <ele>2022</ele>
        <time>2023-08-11T14:21:29.000Z</time>
      </trkpt>
      <trkpt lat="45.21085" lon="6.02124">
        <ele>2021.1999511719</ele>
        <time>2023-08-11T14:21:35.000Z</time>
      </trkpt>
      <trkpt lat="45.21083" lon="6.02118">
        <ele>2020.8000488281</ele>
        <time>2023-08-11T14:21:40.000Z</time>
      </trkpt>
      <trkpt lat="45.21082" lon="6.02107">
        <ele>2021.1999511719</ele>
        <time>2023-08-11T14:21:48.000Z</time>
      </trkpt>
      <trkpt lat="45.21081" lon="6.02103">
        <ele>2022.1999511719</ele>
        <time>2023-08-11T14:21:53.000Z</time>
      </trkpt>
      <trkpt lat="45.2108" lon="6.02099">
        <ele>2022.8000488281</ele>
        <time>2023-08-11T14:21:56.000Z</time>
      </trkpt>
      <trkpt lat="45.21079" lon="6.02096">
        <ele>2023.1999511719</ele>
        <time>2023-08-11T14:21:58.000Z</time>
      </trkpt>
      <trkpt lat="45.21075" lon="6.02088">
        <ele>2024.4000244141</ele>
        <time>2023-08-11T14:22:04.000Z</time>
      </trkpt>
      <trkpt lat="45.21072" lon="6.02083">
        <ele>2024.8000488281</ele>
        <time>2023-08-11T14:22:10.000Z</time>
      </trkpt>
      <trkpt lat="45.21066" lon="6.0208">
        <ele>2024.8000488281</ele>
        <time>2023-08-11T14:22:16.000Z</time>
      </trkpt>
      <trkpt lat="45.21064" lon="6.02074">
        <ele>2025.4000244141</ele>
        <time>2023-08-11T14:22:23.000Z</time>
      </trkpt>
      <trkpt lat="45.21057" lon="6.02069">
        <ele>2026.1999511719</ele>
        <time>2023-08-11T14:22:29.000Z</time>
      </trkpt>
      <trkpt lat="45.21055" lon="6.02066">
        <ele>2026.4000244141</ele>
        <time>2023-08-11T14:22:32.000Z</time>
      </trkpt>
      <trkpt lat="45.21051" lon="6.02063">
        <ele>2027</ele>
        <time>2023-08-11T14:22:36.000Z</time>
      </trkpt>
      <trkpt lat="45.21048" lon="6.02059">
        <ele>2027.5999755859</ele>
        <time>2023-08-11T14:22:40.000Z</time>
      </trkpt>
      <trkpt lat="45.21046" lon="6.02057">
        <ele>2028</ele>
        <time>2023-08-11T14:22:42.000Z</time>
      </trkpt>
      <trkpt lat="45.21042" lon="6.02053">
        <ele>2028.5999755859</ele>
        <time>2023-08-11T14:22:47.000Z</time>
      </trkpt>
      <trkpt lat="45.21041" lon="6.02051">
        <ele>2028.5999755859</ele>
        <time>2023-08-11T14:22:49.000Z</time>
      </trkpt>
      <trkpt lat="45.21033" lon="6.02046">
        <ele>2028.5999755859</ele>
        <time>2023-08-11T14:22:57.000Z</time>
      </trkpt>
      <trkpt lat="45.21027" lon="6.02044">
        <ele>2028</ele>
        <time>2023-08-11T14:23:05.000Z</time>
      </trkpt>
      <trkpt lat="45.21018" lon="6.02041">
        <ele>2028.1999511719</ele>
        <time>2023-08-11T14:23:13.000Z</time>
      </trkpt>
      <trkpt lat="45.21011" lon="6.02041">
        <ele>2028.4000244141</ele>
        <time>2023-08-11T14:23:20.000Z</time>
      </trkpt>
      <trkpt lat="45.21005" lon="6.02037">
        <ele>2028.4000244141</ele>
        <time>2023-08-11T14:23:27.000Z</time>
      </trkpt>
      <trkpt lat="45.21" lon="6.02037">
        <ele>2028</ele>
        <time>2023-08-11T14:23:33.000Z</time>
      </trkpt>
      <trkpt lat="45.20996" lon="6.02037">
        <ele>2027.4000244141</ele>
        <time>2023-08-11T14:23:39.000Z</time>
      </trkpt>
      <trkpt lat="45.20994" lon="6.02036">
        <ele>2027.1999511719</ele>
        <time>2023-08-11T14:23:41.000Z</time>
      </trkpt>
      <trkpt lat="45.20988" lon="6.02037">
        <ele>2026.4000244141</ele>
        <time>2023-08-11T14:23:48.000Z</time>
      </trkpt>
      <trkpt lat="45.2098" lon="6.02042">
        <ele>2025.5999755859</ele>
        <time>2023-08-11T14:23:55.000Z</time>
      </trkpt>
      <trkpt lat="45.20975" lon="6.02049">
        <ele>2025.4000244141</ele>
        <time>2023-08-11T14:24:02.000Z</time>
      </trkpt>
      <trkpt lat="45.20976" lon="6.02049">
        <ele>2025.4000244141</ele>
        <time>2023-08-11T14:24:04.000Z</time>
      </trkpt>
      <trkpt lat="45.20977" lon="6.02045">
        <ele>2025.1999511719</ele>
        <time>2023-08-11T14:24:15.000Z</time>
      </trkpt>
      <trkpt lat="45.20976" lon="6.02043">
        <ele>2025</ele>
        <time>2023-08-11T14:24:23.000Z</time>
      </trkpt>
      <trkpt lat="45.20976" lon="6.02046">
        <ele>2025</ele>
        <time>2023-08-11T14:24:29.000Z</time>
      </trkpt>
      <trkpt lat="45.20974" lon="6.02046">
        <ele>2025.1999511719</ele>
        <time>2023-08-11T14:24:36.000Z</time>
      </trkpt>
      <trkpt lat="45.20975" lon="6.02047">
        <ele>2025</ele>
        <time>2023-08-11T14:24:45.000Z</time>
      </trkpt>
      <trkpt lat="45.20976" lon="6.02044">
        <ele>2025.1999511719</ele>
        <time>2023-08-11T14:24:52.000Z</time>
      </trkpt>
      <trkpt lat="45.20979" lon="6.02042">
        <ele>2024.4000244141</ele>
        <time>2023-08-11T14:25:00.000Z</time>
      </trkpt>
      <trkpt lat="45.20987" lon="6.02041">
        <ele>2024.4000244141</ele>
        <time>2023-08-11T14:25:08.000Z</time>
      </trkpt>
      <trkpt lat="45.20992" lon="6.02038">
        <ele>2025</ele>
        <time>2023-08-11T14:25:15.000Z</time>
      </trkpt>
      <trkpt lat="45.20997" lon="6.02036">
        <ele>2026.1999511719</ele>
        <time>2023-08-11T14:25:21.000Z</time>
      </trkpt>
      <trkpt lat="45.21001" lon="6.02038">
        <ele>2026.1999511719</ele>
        <time>2023-08-11T14:25:27.000Z</time>
      </trkpt>
      <trkpt lat="45.21002" lon="6.02038">
        <ele>2026.4000244141</ele>
        <time>2023-08-11T14:25:28.000Z</time>
      </trkpt>
      <trkpt lat="45.21011" lon="6.02043">
        <ele>2026.5999755859</ele>
        <time>2023-08-11T14:25:36.000Z</time>
      </trkpt>
      <trkpt lat="45.21016" lon="6.02046">
        <ele>2026.8000488281</ele>
        <time>2023-08-11T14:25:45.000Z</time>
      </trkpt>
      <trkpt lat="45.21014" lon="6.02046">
        <ele>2026.5999755859</ele>
        <time>2023-08-11T14:25:54.000Z</time>
      </trkpt>
      <trkpt lat="45.21011" lon="6.02045">
        <ele>2026</ele>
        <time>2023-08-11T14:26:04.000Z</time>
      </trkpt>
      <trkpt lat="45.21008" lon="6.02046">
        <ele>2025.5999755859</ele>
        <time>2023-08-11T14:26:12.000Z</time>
      </trkpt>
      <trkpt lat="45.21009" lon="6.02045">
        <ele>2025.1999511719</ele>
        <time>2023-08-11T14:26:15.000Z</time>
      </trkpt>
      <trkpt lat="45.21011" lon="6.02046">
        <ele>2025.1999511719</ele>
        <time>2023-08-11T14:26:20.000Z</time>
      </trkpt>
      <trkpt lat="45.21013" lon="6.02055">
        <ele>2025.1999511719</ele>
        <time>2023-08-11T14:26:29.000Z</time>
      </trkpt>
      <trkpt lat="45.21012" lon="6.02058">
        <ele>2025</ele>
        <time>2023-08-11T14:26:33.000Z</time>
      </trkpt>
      <trkpt lat="45.21012" lon="6.02053">
        <ele>2025</ele>
        <time>2023-08-11T14:26:38.000Z</time>
      </trkpt>
      <trkpt lat="45.21014" lon="6.02056">
        <ele>2024.8000488281</ele>
        <time>2023-08-11T14:26:45.000Z</time>
      </trkpt>
      <trkpt lat="45.21014" lon="6.02065">
        <ele>2024.1999511719</ele>
        <time>2023-08-11T14:26:55.000Z</time>
      </trkpt>
      <trkpt lat="45.21012" lon="6.02062">
        <ele>2023.5999755859</ele>
        <time>2023-08-11T14:27:03.000Z</time>
      </trkpt>
      <trkpt lat="45.21013" lon="6.02066">
        <ele>2023.4000244141</ele>
        <time>2023-08-11T14:27:12.000Z</time>
      </trkpt>
      <trkpt lat="45.21016" lon="6.02066">
        <ele>2023.1999511719</ele>
        <time>2023-08-11T14:27:18.000Z</time>
      </trkpt>
      <trkpt lat="45.21017" lon="6.02066">
        <ele>2022.8000488281</ele>
        <time>2023-08-11T14:27:27.000Z</time>
      </trkpt>
      <trkpt lat="45.21014" lon="6.02067">
        <ele>2023.1999511719</ele>
        <time>2023-08-11T14:27:35.000Z</time>
      </trkpt>
      <trkpt lat="45.21015" lon="6.02063">
        <ele>2022.4000244141</ele>
        <time>2023-08-11T14:27:44.000Z</time>
      </trkpt>
      <trkpt lat="45.21014" lon="6.02067">
        <ele>2022.5999755859</ele>
        <time>2023-08-11T14:27:52.000Z</time>
      </trkpt>
      <trkpt lat="45.21015" lon="6.02065">
        <ele>2022.4000244141</ele>
        <time>2023-08-11T14:28:00.000Z</time>
      </trkpt>
      <trkpt lat="45.21014" lon="6.02065">
        <ele>2022.4000244141</ele>
        <time>2023-08-11T14:28:08.000Z</time>
      </trkpt>
      <trkpt lat="45.2101" lon="6.02058">
        <ele>2022.5999755859</ele>
        <time>2023-08-11T14:28:15.000Z</time>
      </trkpt>
      <trkpt lat="45.21011" lon="6.02057">
        <ele>2022.1999511719</ele>
        <time>2023-08-11T14:28:19.000Z</time>
      </trkpt>
      <trkpt lat="45.21014" lon="6.02058">
        <ele>2021.8000488281</ele>
        <time>2023-08-11T14:28:23.000Z</time>
      </trkpt>
      <trkpt lat="45.21013" lon="6.02056">
        <ele>2021.4000244141</ele>
        <time>2023-08-11T14:28:30.000Z</time>
      </trkpt>
      <trkpt lat="45.21016" lon="6.02065">
        <ele>2021.8000488281</ele>
        <time>2023-08-11T14:28:38.000Z</time>
      </trkpt>
      <trkpt lat="45.21017" lon="6.02067">
        <ele>2021.5999755859</ele>
        <time>2023-08-11T14:28:46.000Z</time>
      </trkpt>
      <trkpt lat="45.21017" lon="6.02065">
        <ele>2022</ele>
        <time>2023-08-11T14:28:52.000Z</time>
      </trkpt>
      <trkpt lat="45.21016" lon="6.02065">
        <ele>2022.1999511719</ele>
        <time>2023-08-11T14:29:00.000Z</time>
      </trkpt>
      <trkpt lat="45.21017" lon="6.0207">
        <ele>2022.4000244141</ele>
        <time>2023-08-11T14:29:08.000Z</time>
      </trkpt>
      <trkpt lat="45.21019" lon="6.0207">
        <ele>2022.1999511719</ele>
        <time>2023-08-11T14:29:15.000Z</time>
      </trkpt>
      <trkpt lat="45.21016" lon="6.02067">
        <ele>2022.1999511719</ele>
        <time>2023-08-11T14:29:22.000Z</time>
      </trkpt>
      <trkpt lat="45.21015" lon="6.02063">
        <ele>2021.8000488281</ele>
        <time>2023-08-11T14:29:28.000Z</time>
      </trkpt>
      <trkpt lat="45.21016" lon="6.02063">
        <ele>2021.8000488281</ele>
        <time>2023-08-11T14:29:36.000Z</time>
      </trkpt>
      <trkpt lat="45.21016" lon="6.02064">
        <ele>2021.8000488281</ele>
        <time>2023-08-11T14:29:44.000Z</time>
      </trkpt>
      <trkpt lat="45.21015" lon="6.02062">
        <ele>2020.5999755859</ele>
        <time>2023-08-11T14:29:48.000Z</time>
      </trkpt>
      <trkpt lat="45.21016" lon="6.02061">
        <ele>2020.1999511719</ele>
        <time>2023-08-11T14:29:53.000Z</time>
      </trkpt>
      <trkpt lat="45.21015" lon="6.02059">
        <ele>2020.4000244141</ele>
        <time>2023-08-11T14:30:01.000Z</time>
      </trkpt>
      <trkpt lat="45.21014" lon="6.02061">
        <ele>2020.4000244141</ele>
        <time>2023-08-11T14:30:10.000Z</time>
      </trkpt>
      <trkpt lat="45.21016" lon="6.02065">
        <ele>2020.5999755859</ele>
        <time>2023-08-11T14:30:20.000Z</time>
      </trkpt>
      <trkpt lat="45.21017" lon="6.02063">
        <ele>2020.4000244141</ele>
        <time>2023-08-11T14:30:29.000Z</time>
      </trkpt>
      <trkpt lat="45.21015" lon="6.02066">
        <ele>2021</ele>
        <time>2023-08-11T14:30:34.000Z</time>
      </trkpt>
      <trkpt lat="45.21016" lon="6.02064">
        <ele>2021.4000244141</ele>
        <time>2023-08-11T14:30:41.000Z</time>
      </trkpt>
      <trkpt lat="45.21019" lon="6.02063">
        <ele>2021.1999511719</ele>
        <time>2023-08-11T14:30:48.000Z</time>
      </trkpt>
      <trkpt lat="45.21019" lon="6.02067">
        <ele>2021</ele>
        <time>2023-08-11T14:30:56.000Z</time>
      </trkpt>
      <trkpt lat="45.21016" lon="6.02066">
        <ele>2021.1999511719</ele>
        <time>2023-08-11T14:31:01.000Z</time>
      </trkpt>
      <trkpt lat="45.21014" lon="6.02066">
        <ele>2021</ele>
        <time>2023-08-11T14:31:08.000Z</time>
      </trkpt>
      <trkpt lat="45.21016" lon="6.02067">
        <ele>2021</ele>
        <time>2023-08-11T14:31:17.000Z</time>
      </trkpt>
      <trkpt lat="45.21015" lon="6.02066">
        <ele>2021</ele>
        <time>2023-08-11T14:31:25.000Z</time>
      </trkpt>
      <trkpt lat="45.21017" lon="6.02063">
        <ele>2020.5999755859</ele>
        <time>2023-08-11T14:31:32.000Z</time>
      </trkpt>
      <trkpt lat="45.21018" lon="6.02063">
        <ele>2020</ele>
        <time>2023-08-11T14:31:41.000Z</time>
      </trkpt>
      <trkpt lat="45.21018" lon="6.02064">
        <ele>2020</ele>
        <time>2023-08-11T14:31:48.000Z</time>
      </trkpt>
      <trkpt lat="45.21014" lon="6.02066">
        <ele>2019.8000488281</ele>
        <time>2023-08-11T14:31:59.000Z</time>
      </trkpt>
      <trkpt lat="45.21016" lon="6.02063">
        <ele>2019.8000488281</ele>
        <time>2023-08-11T14:32:06.000Z</time>
      </trkpt>
      <trkpt lat="45.21015" lon="6.02063">
        <ele>2020</ele>
        <time>2023-08-11T14:32:15.000Z</time>
      </trkpt>
      <trkpt lat="45.21013" lon="6.02063">
        <ele>2020</ele>
        <time>2023-08-11T14:32:21.000Z</time>
      </trkpt>
      <trkpt lat="45.2101" lon="6.02064">
        <ele>2019.8000488281</ele>
        <time>2023-08-11T14:32:26.000Z</time>
      </trkpt>
      <trkpt lat="45.21012" lon="6.02064">
        <ele>2019.8000488281</ele>
        <time>2023-08-11T14:32:32.000Z</time>
      </trkpt>
      <trkpt lat="45.21014" lon="6.02063">
        <ele>2019.8000488281</ele>
        <time>2023-08-11T14:32:39.000Z</time>
      </trkpt>
      <trkpt lat="45.21014" lon="6.02062">
        <ele>2019.5999755859</ele>
        <time>2023-08-11T14:32:43.000Z</time>
      </trkpt>
      <trkpt lat="45.21015" lon="6.02063">
        <ele>2019.8000488281</ele>
        <time>2023-08-11T14:32:49.000Z</time>
      </trkpt>
      <trkpt lat="45.21014" lon="6.02063">
        <ele>2019.5999755859</ele>
        <time>2023-08-11T14:32:57.000Z</time>
      </trkpt>
      <trkpt lat="45.21013" lon="6.02063">
        <ele>2019.5999755859</ele>
        <time>2023-08-11T14:33:04.000Z</time>
      </trkpt>
      <trkpt lat="45.21016" lon="6.02058">
        <ele>2019.8000488281</ele>
        <time>2023-08-11T14:33:13.000Z</time>
      </trkpt>
      <trkpt lat="45.21017" lon="6.02057">
        <ele>2019.4000244141</ele>
        <time>2023-08-11T14:33:23.000Z</time>
      </trkpt>
      <trkpt lat="45.2102" lon="6.02064">
        <ele>2019.4000244141</ele>
        <time>2023-08-11T14:33:31.000Z</time>
      </trkpt>
      <trkpt lat="45.21016" lon="6.0207">
        <ele>2019</ele>
        <time>2023-08-11T14:33:40.000Z</time>
      </trkpt>
      <trkpt lat="45.21013" lon="6.02071">
        <ele>2019.1999511719</ele>
        <time>2023-08-11T14:33:47.000Z</time>
      </trkpt>
      <trkpt lat="45.21011" lon="6.02062">
        <ele>2019.1999511719</ele>
        <time>2023-08-11T14:33:54.000Z</time>
      </trkpt>
      <trkpt lat="45.21005" lon="6.02063">
        <ele>2019.4000244141</ele>
        <time>2023-08-11T14:34:03.000Z</time>
      </trkpt>
      <trkpt lat="45.21006" lon="6.02066">
        <ele>2019.1999511719</ele>
        <time>2023-08-11T14:34:08.000Z</time>
      </trkpt>
      <trkpt lat="45.21012" lon="6.02069">
        <ele>2019.1999511719</ele>
        <time>2023-08-11T14:34:16.000Z</time>
      </trkpt>
      <trkpt lat="45.21017" lon="6.02069">
        <ele>2019</ele>
        <time>2023-08-11T14:34:22.000Z</time>
      </trkpt>
      <trkpt lat="45.21014" lon="6.02062">
        <ele>2018.5999755859</ele>
        <time>2023-08-11T14:34:27.000Z</time>
      </trkpt>
      <trkpt lat="45.21012" lon="6.02059">
        <ele>2018.5999755859</ele>
        <time>2023-08-11T14:34:31.000Z</time>
      </trkpt>
      <trkpt lat="45.21011" lon="6.02059">
        <ele>2018.5999755859</ele>
        <time>2023-08-11T14:34:39.000Z</time>
      </trkpt>
      <trkpt lat="45.21012" lon="6.02064">
        <ele>2018.8000488281</ele>
        <time>2023-08-11T14:34:49.000Z</time>
      </trkpt>
      <trkpt lat="45.21012" lon="6.02063">
        <ele>2018.8000488281</ele>
        <time>2023-08-11T14:34:57.000Z</time>
      </trkpt>
      <trkpt lat="45.21013" lon="6.02063">
        <ele>2019</ele>
        <time>2023-08-11T14:35:05.000Z</time>
      </trkpt>
      <trkpt lat="45.21015" lon="6.02065">
        <ele>2018.4000244141</ele>
        <time>2023-08-11T14:35:15.000Z</time>
      </trkpt>
      <trkpt lat="45.21015" lon="6.0207">
        <ele>2018.4000244141</ele>
        <time>2023-08-11T14:35:24.000Z</time>
      </trkpt>
      <trkpt lat="45.21016" lon="6.02064">
        <ele>2018.5999755859</ele>
        <time>2023-08-11T14:35:31.000Z</time>
      </trkpt>
      <trkpt lat="45.21015" lon="6.02063">
        <ele>2018.8000488281</ele>
        <time>2023-08-11T14:35:37.000Z</time>
      </trkpt>
      <trkpt lat="45.21011" lon="6.02063">
        <ele>2018.8000488281</ele>
        <time>2023-08-11T14:35:44.000Z</time>
      </trkpt>
      <trkpt lat="45.21009" lon="6.02064">
        <ele>2018.5999755859</ele>
        <time>2023-08-11T14:35:56.000Z</time>
      </trkpt>
      <trkpt lat="45.2101" lon="6.02065">
        <ele>2018.8000488281</ele>
        <time>2023-08-11T14:36:05.000Z</time>
      </trkpt>
      <trkpt lat="45.21014" lon="6.02067">
        <ele>2018.8000488281</ele>
        <time>2023-08-11T14:36:12.000Z</time>
      </trkpt>
      <trkpt lat="45.21015" lon="6.02065">
        <ele>2018.8000488281</ele>
        <time>2023-08-11T14:36:22.000Z</time>
      </trkpt>
      <trkpt lat="45.21013" lon="6.02063">
        <ele>2018.4000244141</ele>
        <time>2023-08-11T14:36:30.000Z</time>
      </trkpt>
      <trkpt lat="45.21013" lon="6.02062">
        <ele>2018.4000244141</ele>
        <time>2023-08-11T14:36:38.000Z</time>
      </trkpt>
      <trkpt lat="45.21009" lon="6.02059">
        <ele>2018.5999755859</ele>
        <time>2023-08-11T14:36:47.000Z</time>
      </trkpt>
      <trkpt lat="45.21012" lon="6.02062">
        <ele>2018.8000488281</ele>
        <time>2023-08-11T14:36:55.000Z</time>
      </trkpt>
      <trkpt lat="45.21016" lon="6.02066">
        <ele>2018.5999755859</ele>
        <time>2023-08-11T14:37:02.000Z</time>
      </trkpt>
      <trkpt lat="45.21016" lon="6.02065">
        <ele>2018.4000244141</ele>
        <time>2023-08-11T14:37:09.000Z</time>
      </trkpt>
      <trkpt lat="45.21016" lon="6.02062">
        <ele>2018.4000244141</ele>
        <time>2023-08-11T14:37:19.000Z</time>
      </trkpt>
      <trkpt lat="45.21014" lon="6.02057">
        <ele>2018.5999755859</ele>
        <time>2023-08-11T14:37:28.000Z</time>
      </trkpt>
      <trkpt lat="45.21011" lon="6.02059">
        <ele>2018.5999755859</ele>
        <time>2023-08-11T14:37:34.000Z</time>
      </trkpt>
      <trkpt lat="45.21012" lon="6.02065">
        <ele>2018.1999511719</ele>
        <time>2023-08-11T14:37:43.000Z</time>
      </trkpt>
      <trkpt lat="45.21014" lon="6.02064">
        <ele>2018.1999511719</ele>
        <time>2023-08-11T14:37:50.000Z</time>
      </trkpt>
      <trkpt lat="45.21016" lon="6.02065">
        <ele>2018.1999511719</ele>
        <time>2023-08-11T14:37:59.000Z</time>
      </trkpt>
      <trkpt lat="45.21018" lon="6.02067">
        <ele>2018</ele>
        <time>2023-08-11T14:38:06.000Z</time>
      </trkpt>
      <trkpt lat="45.21018" lon="6.02064">
        <ele>2018.1999511719</ele>
        <time>2023-08-11T14:38:14.000Z</time>
      </trkpt>
      <trkpt lat="45.21011" lon="6.02061">
        <ele>2018</ele>
        <time>2023-08-11T14:38:19.000Z</time>
      </trkpt>
      <trkpt lat="45.21011" lon="6.02062">
        <ele>2018</ele>
        <time>2023-08-11T14:38:25.000Z</time>
      </trkpt>
      <trkpt lat="45.21015" lon="6.02062">
        <ele>2018</ele>
        <time>2023-08-11T14:38:35.000Z</time>
      </trkpt>
      <trkpt lat="45.21015" lon="6.02062">
        <ele>2018</ele>
        <time>2023-08-11T14:38:43.000Z</time>
      </trkpt>
      <trkpt lat="45.21014" lon="6.02063">
        <ele>2017.8000488281</ele>
        <time>2023-08-11T14:38:51.000Z</time>
      </trkpt>
      <trkpt lat="45.21014" lon="6.02061">
        <ele>2018</ele>
        <time>2023-08-11T14:39:00.000Z</time>
      </trkpt>
      <trkpt lat="45.21016" lon="6.02063">
        <ele>2017.8000488281</ele>
        <time>2023-08-11T14:39:08.000Z</time>
      </trkpt>
      <trkpt lat="45.21011" lon="6.02061">
        <ele>2017.5999755859</ele>
        <time>2023-08-11T14:39:16.000Z</time>
      </trkpt>
      <trkpt lat="45.21008" lon="6.02058">
        <ele>2017.8000488281</ele>
        <time>2023-08-11T14:39:24.000Z</time>
      </trkpt>
      <trkpt lat="45.21011" lon="6.02063">
        <ele>2017.8000488281</ele>
        <time>2023-08-11T14:39:33.000Z</time>
      </trkpt>
      <trkpt lat="45.2101" lon="6.02066">
        <ele>2017.8000488281</ele>
        <time>2023-08-11T14:39:44.000Z</time>
      </trkpt>
      <trkpt lat="45.21017" lon="6.02065">
        <ele>2017.5999755859</ele>
        <time>2023-08-11T14:39:56.000Z</time>
      </trkpt>
      <trkpt lat="45.21015" lon="6.0206">
        <ele>2017.8000488281</ele>
        <time>2023-08-11T14:40:04.000Z</time>
      </trkpt>
      <trkpt lat="45.21012" lon="6.02057">
        <ele>2017.5999755859</ele>
        <time>2023-08-11T14:40:12.000Z</time>
      </trkpt>
      <trkpt lat="45.21013" lon="6.02061">
        <ele>2017.5999755859</ele>
        <time>2023-08-11T14:40:20.000Z</time>
      </trkpt>
      <trkpt lat="45.21011" lon="6.02062">
        <ele>2017.5999755859</ele>
        <time>2023-08-11T14:40:28.000Z</time>
      </trkpt>
      <trkpt lat="45.21008" lon="6.02062">
        <ele>2017.8000488281</ele>
        <time>2023-08-11T14:40:37.000Z</time>
      </trkpt>
      <trkpt lat="45.21013" lon="6.02063">
        <ele>2017.5999755859</ele>
        <time>2023-08-11T14:40:46.000Z</time>
      </trkpt>
      <trkpt lat="45.21011" lon="6.02061">
        <ele>2017.4000244141</ele>
        <time>2023-08-11T14:40:54.000Z</time>
      </trkpt>
      <trkpt lat="45.21012" lon="6.02068">
        <ele>2016.8000488281</ele>
        <time>2023-08-11T14:41:04.000Z</time>
      </trkpt>
      <trkpt lat="45.21013" lon="6.02063">
        <ele>2017</ele>
        <time>2023-08-11T14:41:11.000Z</time>
      </trkpt>
      <trkpt lat="45.21014" lon="6.02061">
        <ele>2017.4000244141</ele>
        <time>2023-08-11T14:41:21.000Z</time>
      </trkpt>
      <trkpt lat="45.21014" lon="6.02064">
        <ele>2017.1999511719</ele>
        <time>2023-08-11T14:41:29.000Z</time>
      </trkpt>
      <trkpt lat="45.21012" lon="6.02065">
        <ele>2017.1999511719</ele>
        <time>2023-08-11T14:41:36.000Z</time>
      </trkpt>
      <trkpt lat="45.21014" lon="6.02063">
        <ele>2017.1999511719</ele>
        <time>2023-08-11T14:41:43.000Z</time>
      </trkpt>
      <trkpt lat="45.21012" lon="6.02064">
        <ele>2017.1999511719</ele>
        <time>2023-08-11T14:41:52.000Z</time>
      </trkpt>
      <trkpt lat="45.21016" lon="6.02061">
        <ele>2017.4000244141</ele>
        <time>2023-08-11T14:42:01.000Z</time>
      </trkpt>
      <trkpt lat="45.21016" lon="6.02064">
        <ele>2017.1999511719</ele>
        <time>2023-08-11T14:42:08.000Z</time>
      </trkpt>
      <trkpt lat="45.21014" lon="6.02063">
        <ele>2017</ele>
        <time>2023-08-11T14:42:15.000Z</time>
      </trkpt>
      <trkpt lat="45.21012" lon="6.02062">
        <ele>2017.1999511719</ele>
        <time>2023-08-11T14:42:23.000Z</time>
      </trkpt>
      <trkpt lat="45.21014" lon="6.02062">
        <ele>2017.1999511719</ele>
        <time>2023-08-11T14:42:31.000Z</time>
      </trkpt>
      <trkpt lat="45.21013" lon="6.02063">
        <ele>2017.1999511719</ele>
        <time>2023-08-11T14:42:40.000Z</time>
      </trkpt>
      <trkpt lat="45.21014" lon="6.02065">
        <ele>2017.4000244141</ele>
        <time>2023-08-11T14:42:48.000Z</time>
      </trkpt>
      <trkpt lat="45.21013" lon="6.02067">
        <ele>2017.8000488281</ele>
        <time>2023-08-11T14:42:56.000Z</time>
      </trkpt>
      <trkpt lat="45.21012" lon="6.02065">
        <ele>2018</ele>
        <time>2023-08-11T14:43:06.000Z</time>
      </trkpt>
      <trkpt lat="45.21008" lon="6.0206">
        <ele>2017.8000488281</ele>
        <time>2023-08-11T14:43:13.000Z</time>
      </trkpt>
      <trkpt lat="45.21012" lon="6.02067">
        <ele>2017.8000488281</ele>
        <time>2023-08-11T14:43:21.000Z</time>
      </trkpt>
      <trkpt lat="45.21015" lon="6.02069">
        <ele>2017.5999755859</ele>
        <time>2023-08-11T14:43:28.000Z</time>
      </trkpt>
      <trkpt lat="45.21016" lon="6.02069">
        <ele>2018.1999511719</ele>
        <time>2023-08-11T14:43:34.000Z</time>
      </trkpt>
      <trkpt lat="45.21019" lon="6.02065">
        <ele>2018</ele>
        <time>2023-08-11T14:43:43.000Z</time>
      </trkpt>
      <trkpt lat="45.21016" lon="6.02065">
        <ele>2018</ele>
        <time>2023-08-11T14:43:51.000Z</time>
      </trkpt>
      <trkpt lat="45.21017" lon="6.02065">
        <ele>2017.4000244141</ele>
        <time>2023-08-11T14:43:58.000Z</time>
      </trkpt>
      <trkpt lat="45.21016" lon="6.02067">
        <ele>2017.4000244141</ele>
        <time>2023-08-11T14:44:09.000Z</time>
      </trkpt>
      <trkpt lat="45.21016" lon="6.02068">
        <ele>2017.4000244141</ele>
        <time>2023-08-11T14:44:14.000Z</time>
      </trkpt>
      <trkpt lat="45.21016" lon="6.02069">
        <ele>2017.4000244141</ele>
        <time>2023-08-11T14:44:21.000Z</time>
      </trkpt>
      <trkpt lat="45.21016" lon="6.02068">
        <ele>2017.8000488281</ele>
        <time>2023-08-11T14:44:28.000Z</time>
      </trkpt>
      <trkpt lat="45.21013" lon="6.02065">
        <ele>2017.4000244141</ele>
        <time>2023-08-11T14:44:35.000Z</time>
      </trkpt>
      <trkpt lat="45.21014" lon="6.02068">
        <ele>2017.4000244141</ele>
        <time>2023-08-11T14:44:44.000Z</time>
      </trkpt>
      <trkpt lat="45.21014" lon="6.02066">
        <ele>2017.1999511719</ele>
        <time>2023-08-11T14:44:52.000Z</time>
      </trkpt>
      <trkpt lat="45.21016" lon="6.02067">
        <ele>2016.8000488281</ele>
        <time>2023-08-11T14:45:01.000Z</time>
      </trkpt>
      <trkpt lat="45.21016" lon="6.02067">
        <ele>2017</ele>
        <time>2023-08-11T14:45:11.000Z</time>
      </trkpt>
      <trkpt lat="45.21016" lon="6.02072">
        <ele>2016.8000488281</ele>
        <time>2023-08-11T14:45:18.000Z</time>
      </trkpt>
      <trkpt lat="45.21015" lon="6.02067">
        <ele>2016.8000488281</ele>
        <time>2023-08-11T14:45:25.000Z</time>
      </trkpt>
      <trkpt lat="45.21014" lon="6.02065">
        <ele>2017</ele>
        <time>2023-08-11T14:45:31.000Z</time>
      </trkpt>
      <trkpt lat="45.21014" lon="6.02064">
        <ele>2016.5999755859</ele>
        <time>2023-08-11T14:45:40.000Z</time>
      </trkpt>
      <trkpt lat="45.21016" lon="6.02065">
        <ele>2016.5999755859</ele>
        <time>2023-08-11T14:45:46.000Z</time>
      </trkpt>
      <trkpt lat="45.21015" lon="6.02067">
        <ele>2016.5999755859</ele>
        <time>2023-08-11T14:45:52.000Z</time>
      </trkpt>
      <trkpt lat="45.21015" lon="6.02067">
        <ele>2016.5999755859</ele>
        <time>2023-08-11T14:45:53.000Z</time>
      </trkpt>
      <trkpt lat="45.21014" lon="6.02066">
        <ele>2016.5999755859</ele>
        <time>2023-08-11T14:46:01.000Z</time>
      </trkpt>
      <trkpt lat="45.21015" lon="6.02064">
        <ele>2017.1999511719</ele>
        <time>2023-08-11T14:46:09.000Z</time>
      </trkpt>
      <trkpt lat="45.21014" lon="6.02066">
        <ele>2017.1999511719</ele>
        <time>2023-08-11T14:46:17.000Z</time>
      </trkpt>
      <trkpt lat="45.21013" lon="6.02067">
        <ele>2017.4000244141</ele>
        <time>2023-08-11T14:46:24.000Z</time>
      </trkpt>
      <trkpt lat="45.21015" lon="6.0207">
        <ele>2017.1999511719</ele>
        <time>2023-08-11T14:46:30.000Z</time>
      </trkpt>
      <trkpt lat="45.21017" lon="6.02065">
        <ele>2017.1999511719</ele>
        <time>2023-08-11T14:46:37.000Z</time>
      </trkpt>
      <trkpt lat="45.21015" lon="6.02066">
        <ele>2017.1999511719</ele>
        <time>2023-08-11T14:46:43.000Z</time>
      </trkpt>
      <trkpt lat="45.21012" lon="6.02064">
        <ele>2017</ele>
        <time>2023-08-11T14:46:51.000Z</time>
      </trkpt>
      <trkpt lat="45.21015" lon="6.02063">
        <ele>2017</ele>
        <time>2023-08-11T14:46:59.000Z</time>
      </trkpt>
      <trkpt lat="45.21014" lon="6.02066">
        <ele>2017</ele>
        <time>2023-08-11T14:47:08.000Z</time>
      </trkpt>
      <trkpt lat="45.21011" lon="6.02066">
        <ele>2017</ele>
        <time>2023-08-11T14:47:16.000Z</time>
      </trkpt>
      <trkpt lat="45.21015" lon="6.02065">
        <ele>2016.8000488281</ele>
        <time>2023-08-11T14:47:25.000Z</time>
      </trkpt>
      <trkpt lat="45.21016" lon="6.02064">
        <ele>2016.8000488281</ele>
        <time>2023-08-11T14:47:34.000Z</time>
      </trkpt>
      <trkpt lat="45.21014" lon="6.02062">
        <ele>2016.1999511719</ele>
        <time>2023-08-11T14:47:42.000Z</time>
      </trkpt>
      <trkpt lat="45.21015" lon="6.02063">
        <ele>2015.8000488281</ele>
        <time>2023-08-11T14:47:50.000Z</time>
      </trkpt>
      <trkpt lat="45.21015" lon="6.02066">
        <ele>2015.8000488281</ele>
        <time>2023-08-11T14:47:55.000Z</time>
      </trkpt>
      <trkpt lat="45.21016" lon="6.02065">
        <ele>2016.4000244141</ele>
        <time>2023-08-11T14:48:02.000Z</time>
      </trkpt>
      <trkpt lat="45.21016" lon="6.0207">
        <ele>2017</ele>
        <time>2023-08-11T14:48:10.000Z</time>
      </trkpt>
      <trkpt lat="45.21014" lon="6.02062">
        <ele>2017.5999755859</ele>
        <time>2023-08-11T14:48:17.000Z</time>
      </trkpt>
      <trkpt lat="45.21012" lon="6.02052">
        <ele>2018.5999755859</ele>
        <time>2023-08-11T14:48:26.000Z</time>
      </trkpt>
      <trkpt lat="45.21011" lon="6.02049">
        <ele>2018.5999755859</ele>
        <time>2023-08-11T14:48:29.000Z</time>
      </trkpt>
      <trkpt lat="45.21009" lon="6.02042">
        <ele>2019.5999755859</ele>
        <time>2023-08-11T14:48:34.000Z</time>
      </trkpt>
      <trkpt lat="45.21009" lon="6.02041">
        <ele>2019.8000488281</ele>
        <time>2023-08-11T14:48:35.000Z</time>
      </trkpt>
      <trkpt lat="45.21005" lon="6.02042">
        <ele>2020</ele>
        <time>2023-08-11T14:48:41.000Z</time>
      </trkpt>
      <trkpt lat="45.20997" lon="6.02041">
        <ele>2019.5999755859</ele>
        <time>2023-08-11T14:48:49.000Z</time>
      </trkpt>
      <trkpt lat="45.20995" lon="6.0204">
        <ele>2018.8000488281</ele>
        <time>2023-08-11T14:48:54.000Z</time>
      </trkpt>
      <trkpt lat="45.20995" lon="6.0204">
        <ele>2018.1999511719</ele>
        <time>2023-08-11T14:48:56.000Z</time>
      </trkpt>
      <trkpt lat="45.20995" lon="6.02041">
        <ele>2018</ele>
        <time>2023-08-11T14:49:05.000Z</time>
      </trkpt>
      <trkpt lat="45.20996" lon="6.0204">
        <ele>2018</ele>
        <time>2023-08-11T14:49:12.000Z</time>
      </trkpt>
      <trkpt lat="45.20989" lon="6.02036">
        <ele>2017.5999755859</ele>
        <time>2023-08-11T14:49:19.000Z</time>
      </trkpt>
      <trkpt lat="45.20984" lon="6.02042">
        <ele>2016.8000488281</ele>
        <time>2023-08-11T14:49:25.000Z</time>
      </trkpt>
      <trkpt lat="45.20977" lon="6.02047">
        <ele>2016.8000488281</ele>
        <time>2023-08-11T14:49:32.000Z</time>
      </trkpt>
      <trkpt lat="45.20971" lon="6.02049">
        <ele>2016.4000244141</ele>
        <time>2023-08-11T14:49:39.000Z</time>
      </trkpt>
      <trkpt lat="45.20966" lon="6.02047">
        <ele>2015.8000488281</ele>
        <time>2023-08-11T14:49:46.000Z</time>
      </trkpt>
      <trkpt lat="45.20962" lon="6.02044">
        <ele>2015.4000244141</ele>
        <time>2023-08-11T14:49:51.000Z</time>
      </trkpt>
      <trkpt lat="45.20961" lon="6.02043">
        <ele>2015.1999511719</ele>
        <time>2023-08-11T14:49:53.000Z</time>
      </trkpt>
      <trkpt lat="45.20956" lon="6.02045">
        <ele>2014.4000244141</ele>
        <time>2023-08-11T14:50:01.000Z</time>
      </trkpt>
      <trkpt lat="45.20953" lon="6.02046">
        <ele>2013.1999511719</ele>
        <time>2023-08-11T14:50:06.000Z</time>
      </trkpt>
      <trkpt lat="45.20951" lon="6.02046">
        <ele>2012.8000488281</ele>
        <time>2023-08-11T14:50:08.000Z</time>
      </trkpt>
      <trkpt lat="45.20946" lon="6.02046">
        <ele>2012.1999511719</ele>
        <time>2023-08-11T14:50:13.000Z</time>
      </trkpt>
      <trkpt lat="45.20944" lon="6.02045">
        <ele>2012</ele>
        <time>2023-08-11T14:50:16.000Z</time>
      </trkpt>
      <trkpt lat="45.20937" lon="6.02044">
        <ele>2012</ele>
        <time>2023-08-11T14:50:22.000Z</time>
      </trkpt>
      <trkpt lat="45.20931" lon="6.02048">
        <ele>2012</ele>
        <time>2023-08-11T14:50:29.000Z</time>
      </trkpt>
      <trkpt lat="45.20925" lon="6.02051">
        <ele>2011.5999755859</ele>
        <time>2023-08-11T14:50:37.000Z</time>
      </trkpt>
      <trkpt lat="45.2092" lon="6.02054">
        <ele>2011.5999755859</ele>
        <time>2023-08-11T14:50:43.000Z</time>
      </trkpt>
      <trkpt lat="45.20913" lon="6.02055">
        <ele>2011.1999511719</ele>
        <time>2023-08-11T14:50:50.000Z</time>
      </trkpt>
      <trkpt lat="45.20912" lon="6.02056">
        <ele>2011</ele>
        <time>2023-08-11T14:50:51.000Z</time>
      </trkpt>
      <trkpt lat="45.20906" lon="6.02058">
        <ele>2010.5999755859</ele>
        <time>2023-08-11T14:50:56.000Z</time>
      </trkpt>
      <trkpt lat="45.20898" lon="6.02057">
        <ele>2010.1999511719</ele>
        <time>2023-08-11T14:51:02.000Z</time>
      </trkpt>
      <trkpt lat="45.2089" lon="6.02057">
        <ele>2010.1999511719</ele>
        <time>2023-08-11T14:51:09.000Z</time>
      </trkpt>
      <trkpt lat="45.20881" lon="6.02053">
        <ele>2010.1999511719</ele>
        <time>2023-08-11T14:51:17.000Z</time>
      </trkpt>
      <trkpt lat="45.20873" lon="6.0205">
        <ele>2011</ele>
        <time>2023-08-11T14:51:25.000Z</time>
      </trkpt>
      <trkpt lat="45.2087" lon="6.02052">
        <ele>2011.5999755859</ele>
        <time>2023-08-11T14:51:31.000Z</time>
      </trkpt>
      <trkpt lat="45.20863" lon="6.02058">
        <ele>2011.8000488281</ele>
        <time>2023-08-11T14:51:39.000Z</time>
      </trkpt>
      <trkpt lat="45.20859" lon="6.02063">
        <ele>2011.8000488281</ele>
        <time>2023-08-11T14:51:47.000Z</time>
      </trkpt>
      <trkpt lat="45.20854" lon="6.02065">
        <ele>2011.5999755859</ele>
        <time>2023-08-11T14:51:54.000Z</time>
      </trkpt>
      <trkpt lat="45.20846" lon="6.02069">
        <ele>2011.4000244141</ele>
        <time>2023-08-11T14:52:03.000Z</time>
      </trkpt>
      <trkpt lat="45.20841" lon="6.02074">
        <ele>2011.5999755859</ele>
        <time>2023-08-11T14:52:09.000Z</time>
      </trkpt>
      <trkpt lat="45.20838" lon="6.02082">
        <ele>2011.5999755859</ele>
        <time>2023-08-11T14:52:15.000Z</time>
      </trkpt>
      <trkpt lat="45.20833" lon="6.02085">
        <ele>2012</ele>
        <time>2023-08-11T14:52:21.000Z</time>
      </trkpt>
      <trkpt lat="45.20832" lon="6.02086">
        <ele>2012.1999511719</ele>
        <time>2023-08-11T14:52:22.000Z</time>
      </trkpt>
      <trkpt lat="45.20825" lon="6.02094">
        <ele>2013</ele>
        <time>2023-08-11T14:52:29.000Z</time>
      </trkpt>
      <trkpt lat="45.20824" lon="6.02095">
        <ele>2013.1999511719</ele>
        <time>2023-08-11T14:52:31.000Z</time>
      </trkpt>
      <trkpt lat="45.2082" lon="6.02099">
        <ele>2014</ele>
        <time>2023-08-11T14:52:38.000Z</time>
      </trkpt>
      <trkpt lat="45.2082" lon="6.02099">
        <ele>2014.1999511719</ele>
        <time>2023-08-11T14:52:39.000Z</time>
      </trkpt>
      <trkpt lat="45.20817" lon="6.021">
        <ele>2015.4000244141</ele>
        <time>2023-08-11T14:52:45.000Z</time>
      </trkpt>
      <trkpt lat="45.20815" lon="6.02103">
        <ele>2015.4000244141</ele>
        <time>2023-08-11T14:52:47.000Z</time>
      </trkpt>
      <trkpt lat="45.20811" lon="6.02107">
        <ele>2015.4000244141</ele>
        <time>2023-08-11T14:52:53.000Z</time>
      </trkpt>
      <trkpt lat="45.20809" lon="6.02108">
        <ele>2016.4000244141</ele>
        <time>2023-08-11T14:52:59.000Z</time>
      </trkpt>
      <trkpt lat="45.20807" lon="6.02108">
        <ele>2016.8000488281</ele>
        <time>2023-08-11T14:53:01.000Z</time>
      </trkpt>
      <trkpt lat="45.20801" lon="6.0211">
        <ele>2017.5999755859</ele>
        <time>2023-08-11T14:53:09.000Z</time>
      </trkpt>
      <trkpt lat="45.208" lon="6.0211">
        <ele>2017.5999755859</ele>
        <time>2023-08-11T14:53:10.000Z</time>
      </trkpt>
      <trkpt lat="45.20793" lon="6.02109">
        <ele>2018.1999511719</ele>
        <time>2023-08-11T14:53:18.000Z</time>
      </trkpt>
      <trkpt lat="45.20788" lon="6.02108">
        <ele>2018.5999755859</ele>
        <time>2023-08-11T14:53:24.000Z</time>
      </trkpt>
      <trkpt lat="45.20787" lon="6.02108">
        <ele>2018.8000488281</ele>
        <time>2023-08-11T14:53:25.000Z</time>
      </trkpt>
      <trkpt lat="45.20784" lon="6.02106">
        <ele>2019.4000244141</ele>
        <time>2023-08-11T14:53:31.000Z</time>
      </trkpt>
      <trkpt lat="45.20782" lon="6.02106">
        <ele>2019.5999755859</ele>
        <time>2023-08-11T14:53:35.000Z</time>
      </trkpt>
      <trkpt lat="45.20779" lon="6.02105">
        <ele>2020</ele>
        <time>2023-08-11T14:53:38.000Z</time>
      </trkpt>
      <trkpt lat="45.20778" lon="6.02105">
        <ele>2020.5999755859</ele>
        <time>2023-08-11T14:53:41.000Z</time>
      </trkpt>
      <trkpt lat="45.20776" lon="6.02104">
        <ele>2021</ele>
        <time>2023-08-11T14:53:45.000Z</time>
      </trkpt>
      <trkpt lat="45.20772" lon="6.02104">
        <ele>2021</ele>
        <time>2023-08-11T14:53:52.000Z</time>
      </trkpt>
      <trkpt lat="45.20766" lon="6.02106">
        <ele>2020.4000244141</ele>
        <time>2023-08-11T14:53:59.000Z</time>
      </trkpt>
      <trkpt lat="45.20763" lon="6.02108">
        <ele>2019.4000244141</ele>
        <time>2023-08-11T14:54:04.000Z</time>
      </trkpt>
      <trkpt lat="45.20762" lon="6.02108">
        <ele>2019</ele>
        <time>2023-08-11T14:54:06.000Z</time>
      </trkpt>
      <trkpt lat="45.20761" lon="6.02109">
        <ele>2018.1999511719</ele>
        <time>2023-08-11T14:54:09.000Z</time>
      </trkpt>
      <trkpt lat="45.2076" lon="6.02109">
        <ele>2017.5999755859</ele>
        <time>2023-08-11T14:54:12.000Z</time>
      </trkpt>
      <trkpt lat="45.20759" lon="6.02111">
        <ele>2017.1999511719</ele>
        <time>2023-08-11T14:54:22.000Z</time>
      </trkpt>
      <trkpt lat="45.2076" lon="6.02112">
        <ele>2017.1999511719</ele>
        <time>2023-08-11T14:54:24.000Z</time>
      </trkpt>
      <trkpt lat="45.2076" lon="6.02112">
        <ele>2017.1999511719</ele>
        <time>2023-08-11T14:54:30.000Z</time>
      </trkpt>
      <trkpt lat="45.20759" lon="6.0211">
        <ele>2017.1999511719</ele>
        <time>2023-08-11T14:54:40.000Z</time>
      </trkpt>
      <trkpt lat="45.20759" lon="6.0211">
        <ele>2017.1999511719</ele>
        <time>2023-08-11T14:54:50.000Z</time>
      </trkpt>
      <trkpt lat="45.20758" lon="6.0211">
        <ele>2017</ele>
        <time>2023-08-11T14:55:00.000Z</time>
      </trkpt>
      <trkpt lat="45.20757" lon="6.02114">
        <ele>2017</ele>
        <time>2023-08-11T14:55:09.000Z</time>
      </trkpt>
      <trkpt lat="45.20761" lon="6.02107">
        <ele>2016.8000488281</ele>
        <time>2023-08-11T14:55:18.000Z</time>
      </trkpt>
      <trkpt lat="45.20759" lon="6.02109">
        <ele>2017</ele>
        <time>2023-08-11T14:55:28.000Z</time>
      </trkpt>
      <trkpt lat="45.2076" lon="6.02109">
        <ele>2017.1999511719</ele>
        <time>2023-08-11T14:55:37.000Z</time>
      </trkpt>
      <trkpt lat="45.20762" lon="6.02107">
        <ele>2016.8000488281</ele>
        <time>2023-08-11T14:55:47.000Z</time>
      </trkpt>
      <trkpt lat="45.20761" lon="6.02109">
        <ele>2016.8000488281</ele>
        <time>2023-08-11T14:55:57.000Z</time>
      </trkpt>
      <trkpt lat="45.20758" lon="6.02109">
        <ele>2016.8000488281</ele>
        <time>2023-08-11T14:56:07.000Z</time>
      </trkpt>
      <trkpt lat="45.20754" lon="6.02109">
        <ele>2016.5999755859</ele>
        <time>2023-08-11T14:56:16.000Z</time>
      </trkpt>
      <trkpt lat="45.20755" lon="6.02109">
        <ele>2016.5999755859</ele>
        <time>2023-08-11T14:56:24.000Z</time>
      </trkpt>
      <trkpt lat="45.20758" lon="6.02109">
        <ele>2016.4000244141</ele>
        <time>2023-08-11T14:56:35.000Z</time>
      </trkpt>
      <trkpt lat="45.20756" lon="6.02106">
        <ele>2016.8000488281</ele>
        <time>2023-08-11T14:56:44.000Z</time>
      </trkpt>
      <trkpt lat="45.20759" lon="6.021">
        <ele>2017.8000488281</ele>
        <time>2023-08-11T14:56:51.000Z</time>
      </trkpt>
      <trkpt lat="45.2076" lon="6.02097">
        <ele>2018.1999511719</ele>
        <time>2023-08-11T14:56:54.000Z</time>
      </trkpt>
      <trkpt lat="45.20761" lon="6.02094">
        <ele>2019.1999511719</ele>
        <time>2023-08-11T14:56:59.000Z</time>
      </trkpt>
      <trkpt lat="45.20761" lon="6.02093">
        <ele>2019.8000488281</ele>
        <time>2023-08-11T14:57:01.000Z</time>
      </trkpt>
      <trkpt lat="45.20761" lon="6.0209">
        <ele>2020.4000244141</ele>
        <time>2023-08-11T14:57:04.000Z</time>
      </trkpt>
      <trkpt lat="45.20762" lon="6.02083">
        <ele>2021.5999755859</ele>
        <time>2023-08-11T14:57:11.000Z</time>
      </trkpt>
      <trkpt lat="45.20763" lon="6.02083">
        <ele>2021.8000488281</ele>
        <time>2023-08-11T14:57:12.000Z</time>
      </trkpt>
      <trkpt lat="45.20765" lon="6.02078">
        <ele>2022.8000488281</ele>
        <time>2023-08-11T14:57:19.000Z</time>
      </trkpt>
      <trkpt lat="45.20768" lon="6.02075">
        <ele>2023.4000244141</ele>
        <time>2023-08-11T14:57:27.000Z</time>
      </trkpt>
      <trkpt lat="45.20773" lon="6.02076">
        <ele>2023.8000488281</ele>
        <time>2023-08-11T14:57:35.000Z</time>
      </trkpt>
      <trkpt lat="45.20774" lon="6.02076">
        <ele>2023.8000488281</ele>
        <time>2023-08-11T14:57:37.000Z</time>
      </trkpt>
      <trkpt lat="45.2078" lon="6.02076">
        <ele>2024.8000488281</ele>
        <time>2023-08-11T14:57:43.000Z</time>
      </trkpt>
      <trkpt lat="45.2078" lon="6.02076">
        <ele>2025.1999511719</ele>
        <time>2023-08-11T14:57:44.000Z</time>
      </trkpt>
      <trkpt lat="45.20785" lon="6.02073">
        <ele>2026</ele>
        <time>2023-08-11T14:57:50.000Z</time>
      </trkpt>
      <trkpt lat="45.20785" lon="6.02072">
        <ele>2026.1999511719</ele>
        <time>2023-08-11T14:57:51.000Z</time>
      </trkpt>
      <trkpt lat="45.20786" lon="6.02067">
        <ele>2026.5999755859</ele>
        <time>2023-08-11T14:57:56.000Z</time>
      </trkpt>
      <trkpt lat="45.20787" lon="6.02064">
        <ele>2027.4000244141</ele>
        <time>2023-08-11T14:58:00.000Z</time>
      </trkpt>
      <trkpt lat="45.20788" lon="6.02061">
        <ele>2027.8000488281</ele>
        <time>2023-08-11T14:58:04.000Z</time>
      </trkpt>
      <trkpt lat="45.20789" lon="6.02059">
        <ele>2028.4000244141</ele>
        <time>2023-08-11T14:58:07.000Z</time>
      </trkpt>
      <trkpt lat="45.2079" lon="6.02056">
        <ele>2029.5999755859</ele>
        <time>2023-08-11T14:58:12.000Z</time>
      </trkpt>
      <trkpt lat="45.2079" lon="6.02053">
        <ele>2030.5999755859</ele>
        <time>2023-08-11T14:58:19.000Z</time>
      </trkpt>
      <trkpt lat="45.2079" lon="6.02051">
        <ele>2030.8000488281</ele>
        <time>2023-08-11T14:58:21.000Z</time>
      </trkpt>
      <trkpt lat="45.20791" lon="6.02051">
        <ele>2031.5999755859</ele>
        <time>2023-08-11T14:58:27.000Z</time>
      </trkpt>
      <trkpt lat="45.20792" lon="6.02053">
        <ele>2031.8000488281</ele>
        <time>2023-08-11T14:58:31.000Z</time>
      </trkpt>
      <trkpt lat="45.20791" lon="6.02051">
        <ele>2031.5999755859</ele>
        <time>2023-08-11T14:58:39.000Z</time>
      </trkpt>
      <trkpt lat="45.20792" lon="6.02049">
        <ele>2031.5999755859</ele>
        <time>2023-08-11T14:58:46.000Z</time>
      </trkpt>
      <trkpt lat="45.20791" lon="6.02045">
        <ele>2032.4000244141</ele>
        <time>2023-08-11T14:58:55.000Z</time>
      </trkpt>
      <trkpt lat="45.20792" lon="6.02044">
        <ele>2032.5999755859</ele>
        <time>2023-08-11T14:58:57.000Z</time>
      </trkpt>
      <trkpt lat="45.20792" lon="6.02044">
        <ele>2033.4000244141</ele>
        <time>2023-08-11T14:59:01.000Z</time>
      </trkpt>
      <trkpt lat="45.20795" lon="6.02044">
        <ele>2033.8000488281</ele>
        <time>2023-08-11T14:59:05.000Z</time>
      </trkpt>
      <trkpt lat="45.20796" lon="6.02044">
        <ele>2034.1999511719</ele>
        <time>2023-08-11T14:59:07.000Z</time>
      </trkpt>
      <trkpt lat="45.20797" lon="6.02042">
        <ele>2034.8000488281</ele>
        <time>2023-08-11T14:59:12.000Z</time>
      </trkpt>
      <trkpt lat="45.20797" lon="6.02041">
        <ele>2035.5999755859</ele>
        <time>2023-08-11T14:59:16.000Z</time>
      </trkpt>
      <trkpt lat="45.20797" lon="6.02041">
        <ele>2036</ele>
        <time>2023-08-11T14:59:17.000Z</time>
      </trkpt>
      <trkpt lat="45.20798" lon="6.02039">
        <ele>2036.5999755859</ele>
        <time>2023-08-11T14:59:23.000Z</time>
      </trkpt>
      <trkpt lat="45.20797" lon="6.02038">
        <ele>2037.1999511719</ele>
        <time>2023-08-11T14:59:25.000Z</time>
      </trkpt>
      <trkpt lat="45.20797" lon="6.02034">
        <ele>2037.8000488281</ele>
        <time>2023-08-11T14:59:30.000Z</time>
      </trkpt>
      <trkpt lat="45.20798" lon="6.02032">
        <ele>2038.1999511719</ele>
        <time>2023-08-11T14:59:33.000Z</time>
      </trkpt>
      <trkpt lat="45.20799" lon="6.0203">
        <ele>2038.8000488281</ele>
        <time>2023-08-11T14:59:37.000Z</time>
      </trkpt>
      <trkpt lat="45.20801" lon="6.02028">
        <ele>2039.4000244141</ele>
        <time>2023-08-11T14:59:41.000Z</time>
      </trkpt>
      <trkpt lat="45.20802" lon="6.02027">
        <ele>2039.5999755859</ele>
        <time>2023-08-11T14:59:43.000Z</time>
      </trkpt>
      <trkpt lat="45.20803" lon="6.02025">
        <ele>2040.4000244141</ele>
        <time>2023-08-11T14:59:49.000Z</time>
      </trkpt>
      <trkpt lat="45.20804" lon="6.02024">
        <ele>2040.5999755859</ele>
        <time>2023-08-11T14:59:51.000Z</time>
      </trkpt>
      <trkpt lat="45.20804" lon="6.0202">
        <ele>2041.5999755859</ele>
        <time>2023-08-11T14:59:56.000Z</time>
      </trkpt>
      <trkpt lat="45.20802" lon="6.0202">
        <ele>2042</ele>
        <time>2023-08-11T14:59:58.000Z</time>
      </trkpt>
      <trkpt lat="45.20798" lon="6.02021">
        <ele>2042.5999755859</ele>
        <time>2023-08-11T15:00:05.000Z</time>
      </trkpt>
      <trkpt lat="45.20798" lon="6.0202">
        <ele>2042.5999755859</ele>
        <time>2023-08-11T15:00:06.000Z</time>
      </trkpt>
      <trkpt lat="45.20795" lon="6.02017">
        <ele>2043.5999755859</ele>
        <time>2023-08-11T15:00:14.000Z</time>
      </trkpt>
      <trkpt lat="45.20795" lon="6.02017">
        <ele>2043.8000488281</ele>
        <time>2023-08-11T15:00:15.000Z</time>
      </trkpt>
      <trkpt lat="45.20794" lon="6.02012">
        <ele>2044.8000488281</ele>
        <time>2023-08-11T15:00:23.000Z</time>
      </trkpt>
      <trkpt lat="45.20794" lon="6.0201">
        <ele>2045.5999755859</ele>
        <time>2023-08-11T15:00:30.000Z</time>
      </trkpt>
      <trkpt lat="45.20794" lon="6.02009">
        <ele>2045.8000488281</ele>
        <time>2023-08-11T15:00:31.000Z</time>
      </trkpt>
      <trkpt lat="45.20793" lon="6.02006">
        <ele>2046.8000488281</ele>
        <time>2023-08-11T15:00:36.000Z</time>
      </trkpt>
      <trkpt lat="45.20792" lon="6.02006">
        <ele>2047.4000244141</ele>
        <time>2023-08-11T15:00:40.000Z</time>
      </trkpt>
      <trkpt lat="45.20791" lon="6.02006">
        <ele>2047.8000488281</ele>
        <time>2023-08-11T15:00:43.000Z</time>
      </trkpt>
      <trkpt lat="45.20787" lon="6.02006">
        <ele>2048.6000976562</ele>
        <time>2023-08-11T15:00:49.000Z</time>
      </trkpt>
      <trkpt lat="45.20787" lon="6.02006">
        <ele>2048.8000488281</ele>
        <time>2023-08-11T15:00:50.000Z</time>
      </trkpt>
      <trkpt lat="45.20786" lon="6.02007">
        <ele>2049.6000976562</ele>
        <time>2023-08-11T15:00:57.000Z</time>
      </trkpt>
      <trkpt lat="45.20785" lon="6.02007">
        <ele>2050</ele>
        <time>2023-08-11T15:00:59.000Z</time>
      </trkpt>
      <trkpt lat="45.20784" lon="6.02005">
        <ele>2051</ele>
        <time>2023-08-11T15:01:06.000Z</time>
      </trkpt>
      <trkpt lat="45.20784" lon="6.02004">
        <ele>2051</ele>
        <time>2023-08-11T15:01:07.000Z</time>
      </trkpt>
      <trkpt lat="45.20784" lon="6.02">
        <ele>2052</ele>
        <time>2023-08-11T15:01:13.000Z</time>
      </trkpt>
      <trkpt lat="45.20784" lon="6.02">
        <ele>2052.1999511719</ele>
        <time>2023-08-11T15:01:14.000Z</time>
      </trkpt>
      <trkpt lat="45.20783" lon="6.01997">
        <ele>2053.1999511719</ele>
        <time>2023-08-11T15:01:23.000Z</time>
      </trkpt>
      <trkpt lat="45.20784" lon="6.01998">
        <ele>2054</ele>
        <time>2023-08-11T15:01:29.000Z</time>
      </trkpt>
      <trkpt lat="45.20784" lon="6.01998">
        <ele>2054.1999511719</ele>
        <time>2023-08-11T15:01:30.000Z</time>
      </trkpt>
      <trkpt lat="45.20785" lon="6.01997">
        <ele>2055.3999023438</ele>
        <time>2023-08-11T15:01:37.000Z</time>
      </trkpt>
      <trkpt lat="45.20785" lon="6.01995">
        <ele>2055.6000976562</ele>
        <time>2023-08-11T15:01:39.000Z</time>
      </trkpt>
      <trkpt lat="45.20785" lon="6.01993">
        <ele>2056.3999023438</ele>
        <time>2023-08-11T15:01:46.000Z</time>
      </trkpt>
      <trkpt lat="45.20784" lon="6.01989">
        <ele>2057.3999023438</ele>
        <time>2023-08-11T15:01:54.000Z</time>
      </trkpt>
      <trkpt lat="45.20784" lon="6.01988">
        <ele>2057.6000976562</ele>
        <time>2023-08-11T15:01:55.000Z</time>
      </trkpt>
      <trkpt lat="45.20783" lon="6.01985">
        <ele>2058.6000976562</ele>
        <time>2023-08-11T15:02:02.000Z</time>
      </trkpt>
      <trkpt lat="45.20784" lon="6.01985">
        <ele>2058.8000488281</ele>
        <time>2023-08-11T15:02:04.000Z</time>
      </trkpt>
      <trkpt lat="45.20784" lon="6.01988">
        <ele>2059.6000976562</ele>
        <time>2023-08-11T15:02:11.000Z</time>
      </trkpt>
      <trkpt lat="45.20784" lon="6.01987">
        <ele>2060</ele>
        <time>2023-08-11T15:02:13.000Z</time>
      </trkpt>
      <trkpt lat="45.20785" lon="6.01985">
        <ele>2060.6000976562</ele>
        <time>2023-08-11T15:02:16.000Z</time>
      </trkpt>
      <trkpt lat="45.20785" lon="6.01982">
        <ele>2061.1999511719</ele>
        <time>2023-08-11T15:02:20.000Z</time>
      </trkpt>
      <trkpt lat="45.20785" lon="6.0198">
        <ele>2061.8000488281</ele>
        <time>2023-08-11T15:02:24.000Z</time>
      </trkpt>
      <trkpt lat="45.20786" lon="6.01978">
        <ele>2061.8000488281</ele>
        <time>2023-08-11T15:02:29.000Z</time>
      </trkpt>
      <trkpt lat="45.20788" lon="6.01979">
        <ele>2062.6000976562</ele>
        <time>2023-08-11T15:02:37.000Z</time>
      </trkpt>
      <trkpt lat="45.20789" lon="6.01977">
        <ele>2062.8000488281</ele>
        <time>2023-08-11T15:02:40.000Z</time>
      </trkpt>
      <trkpt lat="45.20789" lon="6.01977">
        <ele>2063.3999023438</ele>
        <time>2023-08-11T15:02:45.000Z</time>
      </trkpt>
      <trkpt lat="45.20789" lon="6.01977">
        <ele>2063.8000488281</ele>
        <time>2023-08-11T15:02:46.000Z</time>
      </trkpt>
      <trkpt lat="45.20789" lon="6.01976">
        <ele>2064.3999023438</ele>
        <time>2023-08-11T15:02:53.000Z</time>
      </trkpt>
      <trkpt lat="45.20789" lon="6.01973">
        <ele>2065</ele>
        <time>2023-08-11T15:02:56.000Z</time>
      </trkpt>
      <trkpt lat="45.20788" lon="6.0197">
        <ele>2065.6000976562</ele>
        <time>2023-08-11T15:03:00.000Z</time>
      </trkpt>
      <trkpt lat="45.20788" lon="6.01968">
        <ele>2066.1999511719</ele>
        <time>2023-08-11T15:03:04.000Z</time>
      </trkpt>
      <trkpt lat="45.2079" lon="6.01969">
        <ele>2066.8000488281</ele>
        <time>2023-08-11T15:03:09.000Z</time>
      </trkpt>
      <trkpt lat="45.20791" lon="6.01966">
        <ele>2067.1999511719</ele>
        <time>2023-08-11T15:03:11.000Z</time>
      </trkpt>
      <trkpt lat="45.20792" lon="6.01962">
        <ele>2067.8000488281</ele>
        <time>2023-08-11T15:03:17.000Z</time>
      </trkpt>
      <trkpt lat="45.20792" lon="6.0196">
        <ele>2068.6000976562</ele>
        <time>2023-08-11T15:03:21.000Z</time>
      </trkpt>
      <trkpt lat="45.20795" lon="6.01959">
        <ele>2068.8000488281</ele>
        <time>2023-08-11T15:03:24.000Z</time>
      </trkpt>
      <trkpt lat="45.20797" lon="6.01957">
        <ele>2069.3999023438</ele>
        <time>2023-08-11T15:03:31.000Z</time>
      </trkpt>
      <trkpt lat="45.20796" lon="6.01956">
        <ele>2069.8000488281</ele>
        <time>2023-08-11T15:03:33.000Z</time>
      </trkpt>
      <trkpt lat="45.20796" lon="6.01955">
        <ele>2070.1999511719</ele>
        <time>2023-08-11T15:03:35.000Z</time>
      </trkpt>
      <trkpt lat="45.20796" lon="6.01954">
        <ele>2070.8000488281</ele>
        <time>2023-08-11T15:03:38.000Z</time>
      </trkpt>
      <trkpt lat="45.20795" lon="6.01954">
        <ele>2070.8000488281</ele>
        <time>2023-08-11T15:03:39.000Z</time>
      </trkpt>
      <trkpt lat="45.20795" lon="6.01952">
        <ele>2072</ele>
        <time>2023-08-11T15:03:46.000Z</time>
      </trkpt>
      <trkpt lat="45.20795" lon="6.01952">
        <ele>2072</ele>
        <time>2023-08-11T15:03:48.000Z</time>
      </trkpt>
      <trkpt lat="45.20794" lon="6.0195">
        <ele>2073</ele>
        <time>2023-08-11T15:03:54.000Z</time>
      </trkpt>
      <trkpt lat="45.20794" lon="6.01948">
        <ele>2073.6000976562</ele>
        <time>2023-08-11T15:03:58.000Z</time>
      </trkpt>
      <trkpt lat="45.20794" lon="6.01945">
        <ele>2074.1999511719</ele>
        <time>2023-08-11T15:04:01.000Z</time>
      </trkpt>
      <trkpt lat="45.20792" lon="6.01942">
        <ele>2074.8000488281</ele>
        <time>2023-08-11T15:04:05.000Z</time>
      </trkpt>
      <trkpt lat="45.20791" lon="6.01939">
        <ele>2075.1999511719</ele>
        <time>2023-08-11T15:04:08.000Z</time>
      </trkpt>
      <trkpt lat="45.20789" lon="6.01936">
        <ele>2076</ele>
        <time>2023-08-11T15:04:12.000Z</time>
      </trkpt>
      <trkpt lat="45.20788" lon="6.01934">
        <ele>2076.1999511719</ele>
        <time>2023-08-11T15:04:15.000Z</time>
      </trkpt>
      <trkpt lat="45.20786" lon="6.01931">
        <ele>2077.1999511719</ele>
        <time>2023-08-11T15:04:21.000Z</time>
      </trkpt>
      <trkpt lat="45.20783" lon="6.01927">
        <ele>2078.3999023438</ele>
        <time>2023-08-11T15:04:27.000Z</time>
      </trkpt>
      <trkpt lat="45.20781" lon="6.01925">
        <ele>2079</ele>
        <time>2023-08-11T15:04:30.000Z</time>
      </trkpt>
      <trkpt lat="45.20781" lon="6.01925">
        <ele>2079.3999023438</ele>
        <time>2023-08-11T15:04:37.000Z</time>
      </trkpt>
      <trkpt lat="45.20781" lon="6.01926">
        <ele>2079.6000976562</ele>
        <time>2023-08-11T15:04:42.000Z</time>
      </trkpt>
      <trkpt lat="45.20782" lon="6.01926">
        <ele>2079.8000488281</ele>
        <time>2023-08-11T15:04:45.000Z</time>
      </trkpt>
      <trkpt lat="45.20781" lon="6.01926">
        <ele>2080</ele>
        <time>2023-08-11T15:04:53.000Z</time>
      </trkpt>
      <trkpt lat="45.20781" lon="6.0192">
        <ele>2080.3999023438</ele>
        <time>2023-08-11T15:05:01.000Z</time>
      </trkpt>
      <trkpt lat="45.20781" lon="6.01921">
        <ele>2080.6000976562</ele>
        <time>2023-08-11T15:05:02.000Z</time>
      </trkpt>
      <trkpt lat="45.20778" lon="6.01916">
        <ele>2081.6000976562</ele>
        <time>2023-08-11T15:05:07.000Z</time>
      </trkpt>
      <trkpt lat="45.20778" lon="6.01916">
        <ele>2082.8000488281</ele>
        <time>2023-08-11T15:05:10.000Z</time>
      </trkpt>
      <trkpt lat="45.20778" lon="6.01914">
        <ele>2083.1999511719</ele>
        <time>2023-08-11T15:05:13.000Z</time>
      </trkpt>
      <trkpt lat="45.20778" lon="6.01912">
        <ele>2083.6000976562</ele>
        <time>2023-08-11T15:05:15.000Z</time>
      </trkpt>
      <trkpt lat="45.20778" lon="6.01911">
        <ele>2083.8000488281</ele>
        <time>2023-08-11T15:05:18.000Z</time>
      </trkpt>
      <trkpt lat="45.20778" lon="6.01908">
        <ele>2084.3999023438</ele>
        <time>2023-08-11T15:05:23.000Z</time>
      </trkpt>
      <trkpt lat="45.20779" lon="6.01906">
        <ele>2084.8000488281</ele>
        <time>2023-08-11T15:05:26.000Z</time>
      </trkpt>
      <trkpt lat="45.2078" lon="6.01903">
        <ele>2085.8000488281</ele>
        <time>2023-08-11T15:05:31.000Z</time>
      </trkpt>
      <trkpt lat="45.2078" lon="6.01903">
        <ele>2086.1999511719</ele>
        <time>2023-08-11T15:05:33.000Z</time>
      </trkpt>
      <trkpt lat="45.20782" lon="6.01901">
        <ele>2087</ele>
        <time>2023-08-11T15:05:37.000Z</time>
      </trkpt>
      <trkpt lat="45.20783" lon="6.01901">
        <ele>2087.3999023438</ele>
        <time>2023-08-11T15:05:40.000Z</time>
      </trkpt>
      <trkpt lat="45.20784" lon="6.01899">
        <ele>2088</ele>
        <time>2023-08-11T15:05:44.000Z</time>
      </trkpt>
      <trkpt lat="45.20785" lon="6.01898">
        <ele>2088.1999511719</ele>
        <time>2023-08-11T15:05:46.000Z</time>
      </trkpt>
      <trkpt lat="45.20786" lon="6.01895">
        <ele>2089</ele>
        <time>2023-08-11T15:05:53.000Z</time>
      </trkpt>
      <trkpt lat="45.20787" lon="6.01893">
        <ele>2089.1999511719</ele>
        <time>2023-08-11T15:05:55.000Z</time>
      </trkpt>
      <trkpt lat="45.20785" lon="6.01889">
        <ele>2090.1999511719</ele>
        <time>2023-08-11T15:06:02.000Z</time>
      </trkpt>
      <trkpt lat="45.20783" lon="6.01886">
        <ele>2091.1999511719</ele>
        <time>2023-08-11T15:06:10.000Z</time>
      </trkpt>
      <trkpt lat="45.20782" lon="6.01885">
        <ele>2091.1999511719</ele>
        <time>2023-08-11T15:06:11.000Z</time>
      </trkpt>
      <trkpt lat="45.2078" lon="6.01883">
        <ele>2092.3999023438</ele>
        <time>2023-08-11T15:06:18.000Z</time>
      </trkpt>
      <trkpt lat="45.2078" lon="6.01883">
        <ele>2092.6000976562</ele>
        <time>2023-08-11T15:06:19.000Z</time>
      </trkpt>
      <trkpt lat="45.20777" lon="6.01881">
        <ele>2093.3999023438</ele>
        <time>2023-08-11T15:06:26.000Z</time>
      </trkpt>
      <trkpt lat="45.20777" lon="6.0188">
        <ele>2093.6000976562</ele>
        <time>2023-08-11T15:06:27.000Z</time>
      </trkpt>
      <trkpt lat="45.20776" lon="6.01877">
        <ele>2094.6000976562</ele>
        <time>2023-08-11T15:06:30.000Z</time>
      </trkpt>
      <trkpt lat="45.20775" lon="6.01877">
        <ele>2095.1999511719</ele>
        <time>2023-08-11T15:06:35.000Z</time>
      </trkpt>
      <trkpt lat="45.20774" lon="6.01878">
        <ele>2095.6000976562</ele>
        <time>2023-08-11T15:06:38.000Z</time>
      </trkpt>
      <trkpt lat="45.20773" lon="6.01877">
        <ele>2096</ele>
        <time>2023-08-11T15:06:42.000Z</time>
      </trkpt>
      <trkpt lat="45.20772" lon="6.01875">
        <ele>2096.8000488281</ele>
        <time>2023-08-11T15:06:46.000Z</time>
      </trkpt>
      <trkpt lat="45.20772" lon="6.01875">
        <ele>2097.1999511719</ele>
        <time>2023-08-11T15:06:50.000Z</time>
      </trkpt>
      <trkpt lat="45.20771" lon="6.01874">
        <ele>2097.8000488281</ele>
        <time>2023-08-11T15:06:53.000Z</time>
      </trkpt>
      <trkpt lat="45.20769" lon="6.01874">
        <ele>2098.6000976562</ele>
        <time>2023-08-11T15:06:58.000Z</time>
      </trkpt>
      <trkpt lat="45.20769" lon="6.01872">
        <ele>2099</ele>
        <time>2023-08-11T15:07:01.000Z</time>
      </trkpt>
      <trkpt lat="45.20767" lon="6.01871">
        <ele>2099.6000976562</ele>
        <time>2023-08-11T15:07:06.000Z</time>
      </trkpt>
      <trkpt lat="45.20766" lon="6.01871">
        <ele>2100</ele>
        <time>2023-08-11T15:07:08.000Z</time>
      </trkpt>
      <trkpt lat="45.20764" lon="6.01868">
        <ele>2101</ele>
        <time>2023-08-11T15:07:14.000Z</time>
      </trkpt>
      <trkpt lat="45.20763" lon="6.01868">
        <ele>2101</ele>
        <time>2023-08-11T15:07:15.000Z</time>
      </trkpt>
      <trkpt lat="45.20757" lon="6.01866">
        <ele>2102.1999511719</ele>
        <time>2023-08-11T15:07:24.000Z</time>
      </trkpt>
      <trkpt lat="45.20752" lon="6.01866">
        <ele>2102.3999023438</ele>
        <time>2023-08-11T15:07:31.000Z</time>
      </trkpt>
      <trkpt lat="45.20744" lon="6.01868">
        <ele>2102.8000488281</ele>
        <time>2023-08-11T15:07:41.000Z</time>
      </trkpt>
      <trkpt lat="45.20744" lon="6.01868">
        <ele>2103.1999511719</ele>
        <time>2023-08-11T15:07:42.000Z</time>
      </trkpt>
      <trkpt lat="45.20743" lon="6.01866">
        <ele>2103.6000976562</ele>
        <time>2023-08-11T15:07:47.000Z</time>
      </trkpt>
      <trkpt lat="45.20739" lon="6.01861">
        <ele>2102.6000976562</ele>
        <time>2023-08-11T15:07:57.000Z</time>
      </trkpt>
      <trkpt lat="45.20738" lon="6.01861">
        <ele>2102</ele>
        <time>2023-08-11T15:08:01.000Z</time>
      </trkpt>
      <trkpt lat="45.20736" lon="6.0186">
        <ele>2101.8000488281</ele>
        <time>2023-08-11T15:08:03.000Z</time>
      </trkpt>
      <trkpt lat="45.20733" lon="6.01857">
        <ele>2101.1999511719</ele>
        <time>2023-08-11T15:08:09.000Z</time>
      </trkpt>
      <trkpt lat="45.20731" lon="6.01853">
        <ele>2101.3999023438</ele>
        <time>2023-08-11T15:08:16.000Z</time>
      </trkpt>
      <trkpt lat="45.2073" lon="6.0185">
        <ele>2101.3999023438</ele>
        <time>2023-08-11T15:08:24.000Z</time>
      </trkpt>
      <trkpt lat="45.20729" lon="6.01848">
        <ele>2101</ele>
        <time>2023-08-11T15:08:27.000Z</time>
      </trkpt>
      <trkpt lat="45.20725" lon="6.01843">
        <ele>2100.3999023438</ele>
        <time>2023-08-11T15:08:33.000Z</time>
      </trkpt>
      <trkpt lat="45.2072" lon="6.01842">
        <ele>2101</ele>
        <time>2023-08-11T15:08:40.000Z</time>
      </trkpt>
      <trkpt lat="45.20716" lon="6.01839">
        <ele>2101.8000488281</ele>
        <time>2023-08-11T15:08:47.000Z</time>
      </trkpt>
      <trkpt lat="45.20716" lon="6.01838">
        <ele>2102.1999511719</ele>
        <time>2023-08-11T15:08:49.000Z</time>
      </trkpt>
      <trkpt lat="45.20715" lon="6.01833">
        <ele>2103</ele>
        <time>2023-08-11T15:08:54.000Z</time>
      </trkpt>
      <trkpt lat="45.20714" lon="6.01832">
        <ele>2103.1999511719</ele>
        <time>2023-08-11T15:08:56.000Z</time>
      </trkpt>
      <trkpt lat="45.20712" lon="6.01826">
        <ele>2103.6000976562</ele>
        <time>2023-08-11T15:09:01.000Z</time>
      </trkpt>
      <trkpt lat="45.20711" lon="6.01823">
        <ele>2104.3999023438</ele>
        <time>2023-08-11T15:09:04.000Z</time>
      </trkpt>
      <trkpt lat="45.20711" lon="6.01825">
        <ele>2104.6000976562</ele>
        <time>2023-08-11T15:09:07.000Z</time>
      </trkpt>
      <trkpt lat="45.20711" lon="6.01825">
        <ele>2104.6000976562</ele>
        <time>2023-08-11T15:09:08.000Z</time>
      </trkpt>
      <trkpt lat="45.20711" lon="6.01826">
        <ele>2104.1999511719</ele>
        <time>2023-08-11T15:09:18.000Z</time>
      </trkpt>
      <trkpt lat="45.20712" lon="6.01827">
        <ele>2104.1999511719</ele>
        <time>2023-08-11T15:09:25.000Z</time>
      </trkpt>
      <trkpt lat="45.20711" lon="6.01823">
        <ele>2104.8000488281</ele>
        <time>2023-08-11T15:09:35.000Z</time>
      </trkpt>
      <trkpt lat="45.20709" lon="6.0182">
        <ele>2104</ele>
        <time>2023-08-11T15:09:43.000Z</time>
      </trkpt>
      <trkpt lat="45.20708" lon="6.01818">
        <ele>2103.3999023438</ele>
        <time>2023-08-11T15:09:46.000Z</time>
      </trkpt>
      <trkpt lat="45.20702" lon="6.01816">
        <ele>2102.3999023438</ele>
        <time>2023-08-11T15:09:52.000Z</time>
      </trkpt>
      <trkpt lat="45.20702" lon="6.01817">
        <ele>2102.1999511719</ele>
        <time>2023-08-11T15:09:53.000Z</time>
      </trkpt>
      <trkpt lat="45.20698" lon="6.01814">
        <ele>2101</ele>
        <time>2023-08-11T15:10:01.000Z</time>
      </trkpt>
      <trkpt lat="45.20697" lon="6.01811">
        <ele>2100</ele>
        <time>2023-08-11T15:10:06.000Z</time>
      </trkpt>
      <trkpt lat="45.20695" lon="6.01808">
        <ele>2099.1999511719</ele>
        <time>2023-08-11T15:10:10.000Z</time>
      </trkpt>
      <trkpt lat="45.20694" lon="6.01805">
        <ele>2098.8000488281</ele>
        <time>2023-08-11T15:10:13.000Z</time>
      </trkpt>
      <trkpt lat="45.20692" lon="6.01799">
        <ele>2098.8000488281</ele>
        <time>2023-08-11T15:10:17.000Z</time>
      </trkpt>
      <trkpt lat="45.20688" lon="6.01796">
        <ele>2099</ele>
        <time>2023-08-11T15:10:24.000Z</time>
      </trkpt>
      <trkpt lat="45.20684" lon="6.01792">
        <ele>2098.8000488281</ele>
        <time>2023-08-11T15:10:30.000Z</time>
      </trkpt>
      <trkpt lat="45.20681" lon="6.0179">
        <ele>2097.8000488281</ele>
        <time>2023-08-11T15:10:37.000Z</time>
      </trkpt>
      <trkpt lat="45.20675" lon="6.01787">
        <ele>2097.3999023438</ele>
        <time>2023-08-11T15:10:47.000Z</time>
      </trkpt>
      <trkpt lat="45.20669" lon="6.01784">
        <ele>2096.8000488281</ele>
        <time>2023-08-11T15:10:53.000Z</time>
      </trkpt>
      <trkpt lat="45.20668" lon="6.01784">
        <ele>2096.6000976562</ele>
        <time>2023-08-11T15:10:54.000Z</time>
      </trkpt>
      <trkpt lat="45.20667" lon="6.01782">
        <ele>2096</ele>
        <time>2023-08-11T15:11:00.000Z</time>
      </trkpt>
      <trkpt lat="45.20666" lon="6.01778">
        <ele>2096.1999511719</ele>
        <time>2023-08-11T15:11:06.000Z</time>
      </trkpt>
      <trkpt lat="45.20663" lon="6.01773">
        <ele>2096.1999511719</ele>
        <time>2023-08-11T15:11:13.000Z</time>
      </trkpt>
      <trkpt lat="45.20662" lon="6.01772">
        <ele>2095.6000976562</ele>
        <time>2023-08-11T15:11:17.000Z</time>
      </trkpt>
      <trkpt lat="45.20661" lon="6.01771">
        <ele>2095.3999023438</ele>
        <time>2023-08-11T15:11:20.000Z</time>
      </trkpt>
      <trkpt lat="45.2066" lon="6.01763">
        <ele>2095</ele>
        <time>2023-08-11T15:11:27.000Z</time>
      </trkpt>
      <trkpt lat="45.20657" lon="6.01757">
        <ele>2095</ele>
        <time>2023-08-11T15:11:34.000Z</time>
      </trkpt>
      <trkpt lat="45.20656" lon="6.01753">
        <ele>2094.8000488281</ele>
        <time>2023-08-11T15:11:41.000Z</time>
      </trkpt>
      <trkpt lat="45.20655" lon="6.01752">
        <ele>2094.6000976562</ele>
        <time>2023-08-11T15:11:43.000Z</time>
      </trkpt>
      <trkpt lat="45.20653" lon="6.01749">
        <ele>2093.6000976562</ele>
        <time>2023-08-11T15:11:48.000Z</time>
      </trkpt>
      <trkpt lat="45.20652" lon="6.01748">
        <ele>2093.3999023438</ele>
        <time>2023-08-11T15:11:49.000Z</time>
      </trkpt>
      <trkpt lat="45.20652" lon="6.01747">
        <ele>2092.8000488281</ele>
        <time>2023-08-11T15:11:54.000Z</time>
      </trkpt>
      <trkpt lat="45.20653" lon="6.01744">
        <ele>2092.6000976562</ele>
        <time>2023-08-11T15:12:02.000Z</time>
      </trkpt>
      <trkpt lat="45.20652" lon="6.01743">
        <ele>2092.8000488281</ele>
        <time>2023-08-11T15:12:10.000Z</time>
      </trkpt>
      <trkpt lat="45.20654" lon="6.01743">
        <ele>2092.6000976562</ele>
        <time>2023-08-11T15:12:21.000Z</time>
      </trkpt>
      <trkpt lat="45.20653" lon="6.01744">
        <ele>2093</ele>
        <time>2023-08-11T15:12:29.000Z</time>
      </trkpt>
      <trkpt lat="45.20653" lon="6.01745">
        <ele>2093.1999511719</ele>
        <time>2023-08-11T15:12:39.000Z</time>
      </trkpt>
      <trkpt lat="45.20652" lon="6.01746">
        <ele>2093.1999511719</ele>
        <time>2023-08-11T15:12:50.000Z</time>
      </trkpt>
      <trkpt lat="45.20651" lon="6.01744">
        <ele>2093.1999511719</ele>
        <time>2023-08-11T15:12:56.000Z</time>
      </trkpt>
      <trkpt lat="45.2065" lon="6.01739">
        <ele>2092.3999023438</ele>
        <time>2023-08-11T15:13:03.000Z</time>
      </trkpt>
      <trkpt lat="45.20648" lon="6.01735">
        <ele>2091.3999023438</ele>
        <time>2023-08-11T15:13:11.000Z</time>
      </trkpt>
      <trkpt lat="45.20647" lon="6.01736">
        <ele>2091.1999511719</ele>
        <time>2023-08-11T15:13:12.000Z</time>
      </trkpt>
      <trkpt lat="45.20645" lon="6.01735">
        <ele>2090.6000976562</ele>
        <time>2023-08-11T15:13:18.000Z</time>
      </trkpt>
      <trkpt lat="45.20644" lon="6.01734">
        <ele>2090.1999511719</ele>
        <time>2023-08-11T15:13:21.000Z</time>
      </trkpt>
      <trkpt lat="45.20643" lon="6.01733">
        <ele>2089.3999023438</ele>
        <time>2023-08-11T15:13:26.000Z</time>
      </trkpt>
      <trkpt lat="45.20642" lon="6.01732">
        <ele>2089</ele>
        <time>2023-08-11T15:13:28.000Z</time>
      </trkpt>
      <trkpt lat="45.2064" lon="6.0173">
        <ele>2088</ele>
        <time>2023-08-11T15:13:33.000Z</time>
      </trkpt>
      <trkpt lat="45.2064" lon="6.01729">
        <ele>2087.8000488281</ele>
        <time>2023-08-11T15:13:34.000Z</time>
      </trkpt>
      <trkpt lat="45.20638" lon="6.01726">
        <ele>2086.8000488281</ele>
        <time>2023-08-11T15:13:39.000Z</time>
      </trkpt>
      <trkpt lat="45.20638" lon="6.01726">
        <ele>2086.6000976562</ele>
        <time>2023-08-11T15:13:40.000Z</time>
      </trkpt>
      <trkpt lat="45.20636" lon="6.01718">
        <ele>2085.6000976562</ele>
        <time>2023-08-11T15:13:46.000Z</time>
      </trkpt>
      <trkpt lat="45.20635" lon="6.01716">
        <ele>2085.6000976562</ele>
        <time>2023-08-11T15:13:47.000Z</time>
      </trkpt>
      <trkpt lat="45.20633" lon="6.01713">
        <ele>2084.6000976562</ele>
        <time>2023-08-11T15:13:53.000Z</time>
      </trkpt>
      <trkpt lat="45.20633" lon="6.01713">
        <ele>2084.1999511719</ele>
        <time>2023-08-11T15:13:55.000Z</time>
      </trkpt>
      <trkpt lat="45.20632" lon="6.0171">
        <ele>2083.3999023438</ele>
        <time>2023-08-11T15:14:01.000Z</time>
      </trkpt>
      <trkpt lat="45.20631" lon="6.01709">
        <ele>2083.1999511719</ele>
        <time>2023-08-11T15:14:03.000Z</time>
      </trkpt>
      <trkpt lat="45.20632" lon="6.01707">
        <ele>2082.3999023438</ele>
        <time>2023-08-11T15:14:07.000Z</time>
      </trkpt>
      <trkpt lat="45.20632" lon="6.01705">
        <ele>2081.8000488281</ele>
        <time>2023-08-11T15:14:10.000Z</time>
      </trkpt>
      <trkpt lat="45.20632" lon="6.01703">
        <ele>2081.1999511719</ele>
        <time>2023-08-11T15:14:13.000Z</time>
      </trkpt>
      <trkpt lat="45.20631" lon="6.01699">
        <ele>2081</ele>
        <time>2023-08-11T15:14:17.000Z</time>
      </trkpt>
      <trkpt lat="45.2063" lon="6.01692">
        <ele>2081</ele>
        <time>2023-08-11T15:14:24.000Z</time>
      </trkpt>
      <trkpt lat="45.20627" lon="6.01688">
        <ele>2080.3999023438</ele>
        <time>2023-08-11T15:14:31.000Z</time>
      </trkpt>
      <trkpt lat="45.20626" lon="6.01685">
        <ele>2080</ele>
        <time>2023-08-11T15:14:33.000Z</time>
      </trkpt>
      <trkpt lat="45.20624" lon="6.01684">
        <ele>2079</ele>
        <time>2023-08-11T15:14:39.000Z</time>
      </trkpt>
      <trkpt lat="45.20624" lon="6.01683">
        <ele>2079</ele>
        <time>2023-08-11T15:14:40.000Z</time>
      </trkpt>
      <trkpt lat="45.2062" lon="6.0168">
        <ele>2078.6000976562</ele>
        <time>2023-08-11T15:14:46.000Z</time>
      </trkpt>
      <trkpt lat="45.20617" lon="6.01677">
        <ele>2078.6000976562</ele>
        <time>2023-08-11T15:14:52.000Z</time>
      </trkpt>
      <trkpt lat="45.20615" lon="6.01674">
        <ele>2078.8000488281</ele>
        <time>2023-08-11T15:15:01.000Z</time>
      </trkpt>
      <trkpt lat="45.20617" lon="6.0168">
        <ele>2079.3999023438</ele>
        <time>2023-08-11T15:15:08.000Z</time>
      </trkpt>
      <trkpt lat="45.20615" lon="6.01685">
        <ele>2079</ele>
        <time>2023-08-11T15:15:15.000Z</time>
      </trkpt>
      <trkpt lat="45.20613" lon="6.01685">
        <ele>2079.3999023438</ele>
        <time>2023-08-11T15:15:22.000Z</time>
      </trkpt>
      <trkpt lat="45.20612" lon="6.01682">
        <ele>2079.6000976562</ele>
        <time>2023-08-11T15:15:29.000Z</time>
      </trkpt>
      <trkpt lat="45.20613" lon="6.01683">
        <ele>2079.6000976562</ele>
        <time>2023-08-11T15:15:37.000Z</time>
      </trkpt>
      <trkpt lat="45.20617" lon="6.01679">
        <ele>2079</ele>
        <time>2023-08-11T15:15:45.000Z</time>
      </trkpt>
      <trkpt lat="45.20617" lon="6.01677">
        <ele>2079</ele>
        <time>2023-08-11T15:15:53.000Z</time>
      </trkpt>
      <trkpt lat="45.20617" lon="6.01681">
        <ele>2078.8000488281</ele>
        <time>2023-08-11T15:16:02.000Z</time>
      </trkpt>
      <trkpt lat="45.20616" lon="6.01677">
        <ele>2079</ele>
        <time>2023-08-11T15:16:14.000Z</time>
      </trkpt>
      <trkpt lat="45.20616" lon="6.01674">
        <ele>2079.1999511719</ele>
        <time>2023-08-11T15:16:17.000Z</time>
      </trkpt>
      <trkpt lat="45.20616" lon="6.01669">
        <ele>2079.1999511719</ele>
        <time>2023-08-11T15:16:22.000Z</time>
      </trkpt>
      <trkpt lat="45.20615" lon="6.01669">
        <ele>2077.6000976562</ele>
        <time>2023-08-11T15:16:29.000Z</time>
      </trkpt>
      <trkpt lat="45.20615" lon="6.01668">
        <ele>2077.3999023438</ele>
        <time>2023-08-11T15:16:30.000Z</time>
      </trkpt>
      <trkpt lat="45.20614" lon="6.01666">
        <ele>2076.6000976562</ele>
        <time>2023-08-11T15:16:34.000Z</time>
      </trkpt>
      <trkpt lat="45.20614" lon="6.01665">
        <ele>2075.8000488281</ele>
        <time>2023-08-11T15:16:38.000Z</time>
      </trkpt>
      <trkpt lat="45.20613" lon="6.01663">
        <ele>2075.6000976562</ele>
        <time>2023-08-11T15:16:41.000Z</time>
      </trkpt>
      <trkpt lat="45.20613" lon="6.01662">
        <ele>2074.6000976562</ele>
        <time>2023-08-11T15:16:46.000Z</time>
      </trkpt>
      <trkpt lat="45.20613" lon="6.01662">
        <ele>2074.3999023438</ele>
        <time>2023-08-11T15:16:47.000Z</time>
      </trkpt>
      <trkpt lat="45.20612" lon="6.0166">
        <ele>2073.3999023438</ele>
        <time>2023-08-11T15:16:52.000Z</time>
      </trkpt>
      <trkpt lat="45.20612" lon="6.01659">
        <ele>2073</ele>
        <time>2023-08-11T15:16:54.000Z</time>
      </trkpt>
      <trkpt lat="45.20611" lon="6.01656">
        <ele>2072.1999511719</ele>
        <time>2023-08-11T15:16:59.000Z</time>
      </trkpt>
      <trkpt lat="45.20611" lon="6.01656">
        <ele>2071.8000488281</ele>
        <time>2023-08-11T15:17:01.000Z</time>
      </trkpt>
      <trkpt lat="45.2061" lon="6.01656">
        <ele>2071.1999511719</ele>
        <time>2023-08-11T15:17:05.000Z</time>
      </trkpt>
      <trkpt lat="45.20611" lon="6.01654">
        <ele>2070.6000976562</ele>
        <time>2023-08-11T15:17:10.000Z</time>
      </trkpt>
      <trkpt lat="45.20611" lon="6.01652">
        <ele>2070.1999511719</ele>
        <time>2023-08-11T15:17:14.000Z</time>
      </trkpt>
      <trkpt lat="45.20611" lon="6.01652">
        <ele>2070.1999511719</ele>
        <time>2023-08-11T15:17:15.000Z</time>
      </trkpt>
      <trkpt lat="45.20609" lon="6.01646">
        <ele>2069.6000976562</ele>
        <time>2023-08-11T15:17:23.000Z</time>
      </trkpt>
      <trkpt lat="45.20609" lon="6.01645">
        <ele>2069</ele>
        <time>2023-08-11T15:17:27.000Z</time>
      </trkpt>
      <trkpt lat="45.2061" lon="6.01643">
        <ele>2068.8000488281</ele>
        <time>2023-08-11T15:17:29.000Z</time>
      </trkpt>
      <trkpt lat="45.2061" lon="6.01639">
        <ele>2068</ele>
        <time>2023-08-11T15:17:35.000Z</time>
      </trkpt>
      <trkpt lat="45.2061" lon="6.01638">
        <ele>2067.6000976562</ele>
        <time>2023-08-11T15:17:36.000Z</time>
      </trkpt>
      <trkpt lat="45.20609" lon="6.01635">
        <ele>2067</ele>
        <time>2023-08-11T15:17:41.000Z</time>
      </trkpt>
      <trkpt lat="45.20609" lon="6.01633">
        <ele>2066.6000976562</ele>
        <time>2023-08-11T15:17:44.000Z</time>
      </trkpt>
      <trkpt lat="45.20607" lon="6.01629">
        <ele>2065.8000488281</ele>
        <time>2023-08-11T15:17:47.000Z</time>
      </trkpt>
      <trkpt lat="45.20606" lon="6.01623">
        <ele>2064.8000488281</ele>
        <time>2023-08-11T15:17:52.000Z</time>
      </trkpt>
      <trkpt lat="45.20606" lon="6.01618">
        <ele>2064.1999511719</ele>
        <time>2023-08-11T15:17:58.000Z</time>
      </trkpt>
      <trkpt lat="45.20606" lon="6.01618">
        <ele>2063.6000976562</ele>
        <time>2023-08-11T15:18:00.000Z</time>
      </trkpt>
      <trkpt lat="45.20606" lon="6.01619">
        <ele>2062.8000488281</ele>
        <time>2023-08-11T15:18:05.000Z</time>
      </trkpt>
      <trkpt lat="45.20606" lon="6.01616">
        <ele>2062.6000976562</ele>
        <time>2023-08-11T15:18:07.000Z</time>
      </trkpt>
      <trkpt lat="45.20607" lon="6.01612">
        <ele>2062.3999023438</ele>
        <time>2023-08-11T15:18:11.000Z</time>
      </trkpt>
      <trkpt lat="45.20607" lon="6.01608">
        <ele>2062</ele>
        <time>2023-08-11T15:18:19.000Z</time>
      </trkpt>
      <trkpt lat="45.20607" lon="6.0161">
        <ele>2062</ele>
        <time>2023-08-11T15:18:24.000Z</time>
      </trkpt>
      <trkpt lat="45.20607" lon="6.01606">
        <ele>2061.6000976562</ele>
        <time>2023-08-11T15:18:29.000Z</time>
      </trkpt>
      <trkpt lat="45.20606" lon="6.01606">
        <ele>2061.6000976562</ele>
        <time>2023-08-11T15:18:30.000Z</time>
      </trkpt>
      <trkpt lat="45.20605" lon="6.01599">
        <ele>2061.8000488281</ele>
        <time>2023-08-11T15:18:38.000Z</time>
      </trkpt>
      <trkpt lat="45.20604" lon="6.01591">
        <ele>2062</ele>
        <time>2023-08-11T15:18:45.000Z</time>
      </trkpt>
      <trkpt lat="45.20604" lon="6.01589">
        <ele>2061.8000488281</ele>
        <time>2023-08-11T15:18:50.000Z</time>
      </trkpt>
      <trkpt lat="45.20605" lon="6.01582">
        <ele>2060.8000488281</ele>
        <time>2023-08-11T15:18:58.000Z</time>
      </trkpt>
      <trkpt lat="45.20605" lon="6.0158">
        <ele>2061</ele>
        <time>2023-08-11T15:19:04.000Z</time>
      </trkpt>
      <trkpt lat="45.20604" lon="6.01575">
        <ele>2061.1999511719</ele>
        <time>2023-08-11T15:19:11.000Z</time>
      </trkpt>
      <trkpt lat="45.20603" lon="6.01565">
        <ele>2060.6000976562</ele>
        <time>2023-08-11T15:19:19.000Z</time>
      </trkpt>
      <trkpt lat="45.20604" lon="6.01559">
        <ele>2061</ele>
        <time>2023-08-11T15:19:25.000Z</time>
      </trkpt>
      <trkpt lat="45.20607" lon="6.01553">
        <ele>2061.6000976562</ele>
        <time>2023-08-11T15:19:32.000Z</time>
      </trkpt>
      <trkpt lat="45.20606" lon="6.01548">
        <ele>2061.1999511719</ele>
        <time>2023-08-11T15:19:38.000Z</time>
      </trkpt>
      <trkpt lat="45.20608" lon="6.01542">
        <ele>2060.6000976562</ele>
        <time>2023-08-11T15:19:46.000Z</time>
      </trkpt>
      <trkpt lat="45.20609" lon="6.01537">
        <ele>2061</ele>
        <time>2023-08-11T15:19:53.000Z</time>
      </trkpt>
      <trkpt lat="45.2061" lon="6.01532">
        <ele>2061.3999023438</ele>
        <time>2023-08-11T15:20:00.000Z</time>
      </trkpt>
      <trkpt lat="45.20609" lon="6.01527">
        <ele>2061.1999511719</ele>
        <time>2023-08-11T15:20:07.000Z</time>
      </trkpt>
      <trkpt lat="45.20609" lon="6.01518">
        <ele>2060.6000976562</ele>
        <time>2023-08-11T15:20:13.000Z</time>
      </trkpt>
      <trkpt lat="45.20609" lon="6.01519">
        <ele>2060.6000976562</ele>
        <time>2023-08-11T15:20:20.000Z</time>
      </trkpt>
      <trkpt lat="45.20609" lon="6.01517">
        <ele>2060.6000976562</ele>
        <time>2023-08-11T15:20:27.000Z</time>
      </trkpt>
      <trkpt lat="45.20609" lon="6.01516">
        <ele>2060.3999023438</ele>
        <time>2023-08-11T15:20:30.000Z</time>
      </trkpt>
      <trkpt lat="45.20609" lon="6.01512">
        <ele>2060</ele>
        <time>2023-08-11T15:20:35.000Z</time>
      </trkpt>
      <trkpt lat="45.20606" lon="6.01503">
        <ele>2060.1999511719</ele>
        <time>2023-08-11T15:20:42.000Z</time>
      </trkpt>
      <trkpt lat="45.20606" lon="6.01501">
        <ele>2060.6000976562</ele>
        <time>2023-08-11T15:20:51.000Z</time>
      </trkpt>
      <trkpt lat="45.20607" lon="6.01497">
        <ele>2060.6000976562</ele>
        <time>2023-08-11T15:20:58.000Z</time>
      </trkpt>
      <trkpt lat="45.20608" lon="6.01498">
        <ele>2060.6000976562</ele>
        <time>2023-08-11T15:21:09.000Z</time>
      </trkpt>
      <trkpt lat="45.20606" lon="6.01496">
        <ele>2060.8000488281</ele>
        <time>2023-08-11T15:21:15.000Z</time>
      </trkpt>
      <trkpt lat="45.20605" lon="6.01497">
        <ele>2060.6000976562</ele>
        <time>2023-08-11T15:21:20.000Z</time>
      </trkpt>
      <trkpt lat="45.20605" lon="6.01498">
        <ele>2060.8000488281</ele>
        <time>2023-08-11T15:21:26.000Z</time>
      </trkpt>
      <trkpt lat="45.20604" lon="6.01495">
        <ele>2060.8000488281</ele>
        <time>2023-08-11T15:21:32.000Z</time>
      </trkpt>
      <trkpt lat="45.20603" lon="6.01494">
        <ele>2060.8000488281</ele>
        <time>2023-08-11T15:21:40.000Z</time>
      </trkpt>
      <trkpt lat="45.20602" lon="6.0149">
        <ele>2061</ele>
        <time>2023-08-11T15:21:47.000Z</time>
      </trkpt>
      <trkpt lat="45.20598" lon="6.01486">
        <ele>2061</ele>
        <time>2023-08-11T15:21:54.000Z</time>
      </trkpt>
      <trkpt lat="45.20595" lon="6.01482">
        <ele>2060.8000488281</ele>
        <time>2023-08-11T15:22:01.000Z</time>
      </trkpt>
      <trkpt lat="45.20593" lon="6.01477">
        <ele>2060.8000488281</ele>
        <time>2023-08-11T15:22:08.000Z</time>
      </trkpt>
      <trkpt lat="45.2059" lon="6.01473">
        <ele>2060</ele>
        <time>2023-08-11T15:22:16.000Z</time>
      </trkpt>
      <trkpt lat="45.20588" lon="6.01474">
        <ele>2059.6000976562</ele>
        <time>2023-08-11T15:22:23.000Z</time>
      </trkpt>
      <trkpt lat="45.20586" lon="6.01473">
        <ele>2059.1999511719</ele>
        <time>2023-08-11T15:22:26.000Z</time>
      </trkpt>
      <trkpt lat="45.20586" lon="6.01474">
        <ele>2059</ele>
        <time>2023-08-11T15:22:29.000Z</time>
      </trkpt>
      <trkpt lat="45.20581" lon="6.01472">
        <ele>2058.3999023438</ele>
        <time>2023-08-11T15:22:37.000Z</time>
      </trkpt>
      <trkpt lat="45.20581" lon="6.0147">
        <ele>2058.1999511719</ele>
        <time>2023-08-11T15:22:42.000Z</time>
      </trkpt>
      <trkpt lat="45.20581" lon="6.0147">
        <ele>2058.1999511719</ele>
        <time>2023-08-11T15:22:44.000Z</time>
      </trkpt>
      <trkpt lat="45.2058" lon="6.01465">
        <ele>2058.1999511719</ele>
        <time>2023-08-11T15:22:51.000Z</time>
      </trkpt>
      <trkpt lat="45.20579" lon="6.01467">
        <ele>2058</ele>
        <time>2023-08-11T15:22:58.000Z</time>
      </trkpt>
      <trkpt lat="45.20577" lon="6.01471">
        <ele>2058.6000976562</ele>
        <time>2023-08-11T15:23:05.000Z</time>
      </trkpt>
      <trkpt lat="45.20574" lon="6.01471">
        <ele>2058.3999023438</ele>
        <time>2023-08-11T15:23:12.000Z</time>
      </trkpt>
      <trkpt lat="45.2057" lon="6.01473">
        <ele>2057.8000488281</ele>
        <time>2023-08-11T15:23:22.000Z</time>
      </trkpt>
      <trkpt lat="45.20567" lon="6.0147">
        <ele>2058.1999511719</ele>
        <time>2023-08-11T15:23:31.000Z</time>
      </trkpt>
      <trkpt lat="45.20565" lon="6.01467">
        <ele>2058.6000976562</ele>
        <time>2023-08-11T15:23:37.000Z</time>
      </trkpt>
      <trkpt lat="45.20561" lon="6.01465">
        <ele>2059</ele>
        <time>2023-08-11T15:23:46.000Z</time>
      </trkpt>
      <trkpt lat="45.20558" lon="6.01465">
        <ele>2059.1999511719</ele>
        <time>2023-08-11T15:23:55.000Z</time>
      </trkpt>
      <trkpt lat="45.20558" lon="6.01465">
        <ele>2059.3999023438</ele>
        <time>2023-08-11T15:23:56.000Z</time>
      </trkpt>
      <trkpt lat="45.20554" lon="6.01463">
        <ele>2060</ele>
        <time>2023-08-11T15:24:01.000Z</time>
      </trkpt>
      <trkpt lat="45.20549" lon="6.01466">
        <ele>2060.3999023438</ele>
        <time>2023-08-11T15:24:09.000Z</time>
      </trkpt>
      <trkpt lat="45.20547" lon="6.01467">
        <ele>2060.3999023438</ele>
        <time>2023-08-11T15:24:12.000Z</time>
      </trkpt>
      <trkpt lat="45.20545" lon="6.01467">
        <ele>2060.6000976562</ele>
        <time>2023-08-11T15:24:15.000Z</time>
      </trkpt>
      <trkpt lat="45.20542" lon="6.01469">
        <ele>2061.3999023438</ele>
        <time>2023-08-11T15:24:22.000Z</time>
      </trkpt>
      <trkpt lat="45.20542" lon="6.0147">
        <ele>2061.3999023438</ele>
        <time>2023-08-11T15:24:23.000Z</time>
      </trkpt>
      <trkpt lat="45.20538" lon="6.01475">
        <ele>2062</ele>
        <time>2023-08-11T15:24:30.000Z</time>
      </trkpt>
      <trkpt lat="45.20534" lon="6.01475">
        <ele>2062.1999511719</ele>
        <time>2023-08-11T15:24:36.000Z</time>
      </trkpt>
      <trkpt lat="45.20534" lon="6.01475">
        <ele>2062.1999511719</ele>
        <time>2023-08-11T15:24:37.000Z</time>
      </trkpt>
      <trkpt lat="45.20532" lon="6.0148">
        <ele>2061.3999023438</ele>
        <time>2023-08-11T15:24:45.000Z</time>
      </trkpt>
      <trkpt lat="45.20529" lon="6.01483">
        <ele>2061</ele>
        <time>2023-08-11T15:24:52.000Z</time>
      </trkpt>
      <trkpt lat="45.20526" lon="6.01482">
        <ele>2060.3999023438</ele>
        <time>2023-08-11T15:24:57.000Z</time>
      </trkpt>
      <trkpt lat="45.20523" lon="6.01481">
        <ele>2060</ele>
        <time>2023-08-11T15:25:01.000Z</time>
      </trkpt>
      <trkpt lat="45.20519" lon="6.0148">
        <ele>2059.1999511719</ele>
        <time>2023-08-11T15:25:06.000Z</time>
      </trkpt>
      <trkpt lat="45.20517" lon="6.01481">
        <ele>2058.8000488281</ele>
        <time>2023-08-11T15:25:09.000Z</time>
      </trkpt>
      <trkpt lat="45.20515" lon="6.0148">
        <ele>2058</ele>
        <time>2023-08-11T15:25:14.000Z</time>
      </trkpt>
      <trkpt lat="45.20511" lon="6.01476">
        <ele>2057.3999023438</ele>
        <time>2023-08-11T15:25:19.000Z</time>
      </trkpt>
      <trkpt lat="45.20505" lon="6.01472">
        <ele>2057</ele>
        <time>2023-08-11T15:25:25.000Z</time>
      </trkpt>
      <trkpt lat="45.20501" lon="6.01471">
        <ele>2057</ele>
        <time>2023-08-11T15:25:28.000Z</time>
      </trkpt>
      <trkpt lat="45.20499" lon="6.01471">
        <ele>2057</ele>
        <time>2023-08-11T15:25:31.000Z</time>
      </trkpt>
      <trkpt lat="45.20494" lon="6.01468">
        <ele>2055.8000488281</ele>
        <time>2023-08-11T15:25:39.000Z</time>
      </trkpt>
      <trkpt lat="45.20491" lon="6.01468">
        <ele>2054.8000488281</ele>
        <time>2023-08-11T15:25:44.000Z</time>
      </trkpt>
      <trkpt lat="45.20489" lon="6.01469">
        <ele>2054.6000976562</ele>
        <time>2023-08-11T15:25:46.000Z</time>
      </trkpt>
      <trkpt lat="45.20488" lon="6.01472">
        <ele>2054.3999023438</ele>
        <time>2023-08-11T15:25:50.000Z</time>
      </trkpt>
      <trkpt lat="45.20487" lon="6.01472">
        <ele>2054.3999023438</ele>
        <time>2023-08-11T15:25:53.000Z</time>
      </trkpt>
      <trkpt lat="45.20481" lon="6.01465">
        <ele>2054.3999023438</ele>
        <time>2023-08-11T15:25:59.000Z</time>
      </trkpt>
      <trkpt lat="45.20479" lon="6.01462">
        <ele>2054</ele>
        <time>2023-08-11T15:26:05.000Z</time>
      </trkpt>
      <trkpt lat="45.20478" lon="6.01464">
        <ele>2053.6000976562</ele>
        <time>2023-08-11T15:26:09.000Z</time>
      </trkpt>
      <trkpt lat="45.20474" lon="6.01464">
        <ele>2053.1999511719</ele>
        <time>2023-08-11T15:26:12.000Z</time>
      </trkpt>
      <trkpt lat="45.20469" lon="6.01466">
        <ele>2053.6000976562</ele>
        <time>2023-08-11T15:26:20.000Z</time>
      </trkpt>
      <trkpt lat="45.20464" lon="6.01467">
        <ele>2054.6000976562</ele>
        <time>2023-08-11T15:26:27.000Z</time>
      </trkpt>
      <trkpt lat="45.20463" lon="6.01467">
        <ele>2054.8000488281</ele>
        <time>2023-08-11T15:26:29.000Z</time>
      </trkpt>
      <trkpt lat="45.20459" lon="6.01467">
        <ele>2055.8000488281</ele>
        <time>2023-08-11T15:26:34.000Z</time>
      </trkpt>
      <trkpt lat="45.20458" lon="6.01466">
        <ele>2055.8000488281</ele>
        <time>2023-08-11T15:26:35.000Z</time>
      </trkpt>
      <trkpt lat="45.20455" lon="6.01466">
        <ele>2056.8000488281</ele>
        <time>2023-08-11T15:26:41.000Z</time>
      </trkpt>
      <trkpt lat="45.20453" lon="6.01462">
        <ele>2057.8000488281</ele>
        <time>2023-08-11T15:26:48.000Z</time>
      </trkpt>
      <trkpt lat="45.20452" lon="6.01458">
        <ele>2059</ele>
        <time>2023-08-11T15:26:54.000Z</time>
      </trkpt>
      <trkpt lat="45.20452" lon="6.01458">
        <ele>2059</ele>
        <time>2023-08-11T15:26:55.000Z</time>
      </trkpt>
      <trkpt lat="45.2045" lon="6.01458">
        <ele>2059.3999023438</ele>
        <time>2023-08-11T15:27:02.000Z</time>
      </trkpt>
      <trkpt lat="45.2045" lon="6.01452">
        <ele>2059.6000976562</ele>
        <time>2023-08-11T15:27:09.000Z</time>
      </trkpt>
      <trkpt lat="45.20452" lon="6.01448">
        <ele>2059.3999023438</ele>
        <time>2023-08-11T15:27:15.000Z</time>
      </trkpt>
      <trkpt lat="45.20453" lon="6.0145">
        <ele>2059.3999023438</ele>
        <time>2023-08-11T15:27:24.000Z</time>
      </trkpt>
      <trkpt lat="45.20451" lon="6.01454">
        <ele>2059.3999023438</ele>
        <time>2023-08-11T15:27:33.000Z</time>
      </trkpt>
      <trkpt lat="45.20447" lon="6.01458">
        <ele>2059.3999023438</ele>
        <time>2023-08-11T15:27:40.000Z</time>
      </trkpt>
      <trkpt lat="45.20443" lon="6.01459">
        <ele>2059.6000976562</ele>
        <time>2023-08-11T15:27:48.000Z</time>
      </trkpt>
      <trkpt lat="45.20444" lon="6.01455">
        <ele>2060.1999511719</ele>
        <time>2023-08-11T15:27:56.000Z</time>
      </trkpt>
      <trkpt lat="45.20443" lon="6.01452">
        <ele>2061.3999023438</ele>
        <time>2023-08-11T15:28:00.000Z</time>
      </trkpt>
      <trkpt lat="45.20441" lon="6.01451">
        <ele>2061.3999023438</ele>
        <time>2023-08-11T15:28:02.000Z</time>
      </trkpt>
      <trkpt lat="45.20437" lon="6.01447">
        <ele>2062</ele>
        <time>2023-08-11T15:28:10.000Z</time>
      </trkpt>
      <trkpt lat="45.20438" lon="6.01445">
        <ele>2062.3999023438</ele>
        <time>2023-08-11T15:28:13.000Z</time>
      </trkpt>
      <trkpt lat="45.20441" lon="6.01445">
        <ele>2063.1999511719</ele>
        <time>2023-08-11T15:28:17.000Z</time>
      </trkpt>
      <trkpt lat="45.20441" lon="6.01445">
        <ele>2063.3999023438</ele>
        <time>2023-08-11T15:28:20.000Z</time>
      </trkpt>
      <trkpt lat="45.20442" lon="6.01441">
        <ele>2064</ele>
        <time>2023-08-11T15:28:25.000Z</time>
      </trkpt>
      <trkpt lat="45.20441" lon="6.01439">
        <ele>2064.3999023438</ele>
        <time>2023-08-11T15:28:28.000Z</time>
      </trkpt>
      <trkpt lat="45.20441" lon="6.01435">
        <ele>2065</ele>
        <time>2023-08-11T15:28:34.000Z</time>
      </trkpt>
      <trkpt lat="45.20441" lon="6.01435">
        <ele>2065.3999023438</ele>
        <time>2023-08-11T15:28:39.000Z</time>
      </trkpt>
      <trkpt lat="45.20441" lon="6.01435">
        <ele>2065.6000976562</ele>
        <time>2023-08-11T15:28:40.000Z</time>
      </trkpt>
      <trkpt lat="45.2044" lon="6.01431">
        <ele>2066</ele>
        <time>2023-08-11T15:28:47.000Z</time>
      </trkpt>
      <trkpt lat="45.20439" lon="6.01429">
        <ele>2066.6000976562</ele>
        <time>2023-08-11T15:28:50.000Z</time>
      </trkpt>
      <trkpt lat="45.20437" lon="6.01426">
        <ele>2067.3999023438</ele>
        <time>2023-08-11T15:28:56.000Z</time>
      </trkpt>
      <trkpt lat="45.20436" lon="6.01421">
        <ele>2067.6000976562</ele>
        <time>2023-08-11T15:29:04.000Z</time>
      </trkpt>
      <trkpt lat="45.20438" lon="6.01413">
        <ele>2068</ele>
        <time>2023-08-11T15:29:13.000Z</time>
      </trkpt>
      <trkpt lat="45.20437" lon="6.01412">
        <ele>2068</ele>
        <time>2023-08-11T15:29:21.000Z</time>
      </trkpt>
      <trkpt lat="45.20439" lon="6.01409">
        <ele>2068.1999511719</ele>
        <time>2023-08-11T15:29:28.000Z</time>
      </trkpt>
      <trkpt lat="45.20441" lon="6.01407">
        <ele>2068.3999023438</ele>
        <time>2023-08-11T15:29:35.000Z</time>
      </trkpt>
      <trkpt lat="45.2044" lon="6.01407">
        <ele>2068.6000976562</ele>
        <time>2023-08-11T15:29:36.000Z</time>
      </trkpt>
      <trkpt lat="45.20441" lon="6.01405">
        <ele>2069.3999023438</ele>
        <time>2023-08-11T15:29:43.000Z</time>
      </trkpt>
      <trkpt lat="45.20441" lon="6.01398">
        <ele>2069.6000976562</ele>
        <time>2023-08-11T15:29:53.000Z</time>
      </trkpt>
      <trkpt lat="45.20439" lon="6.01393">
        <ele>2070.1999511719</ele>
        <time>2023-08-11T15:30:00.000Z</time>
      </trkpt>
      <trkpt lat="45.20437" lon="6.01392">
        <ele>2070.6000976562</ele>
        <time>2023-08-11T15:30:08.000Z</time>
      </trkpt>
      <trkpt lat="45.20437" lon="6.01391">
        <ele>2070.8000488281</ele>
        <time>2023-08-11T15:30:10.000Z</time>
      </trkpt>
      <trkpt lat="45.20436" lon="6.01392">
        <ele>2071</ele>
        <time>2023-08-11T15:30:17.000Z</time>
      </trkpt>
      <trkpt lat="45.20431" lon="6.01397">
        <ele>2071</ele>
        <time>2023-08-11T15:30:25.000Z</time>
      </trkpt>
      <trkpt lat="45.20435" lon="6.0139">
        <ele>2071</ele>
        <time>2023-08-11T15:30:31.000Z</time>
      </trkpt>
      <trkpt lat="45.20434" lon="6.01389">
        <ele>2070.8000488281</ele>
        <time>2023-08-11T15:30:40.000Z</time>
      </trkpt>
      <trkpt lat="45.20435" lon="6.01384">
        <ele>2071.1999511719</ele>
        <time>2023-08-11T15:30:50.000Z</time>
      </trkpt>
      <trkpt lat="45.20435" lon="6.01381">
        <ele>2071.8000488281</ele>
        <time>2023-08-11T15:30:54.000Z</time>
      </trkpt>
      <trkpt lat="45.20435" lon="6.01379">
        <ele>2072.1999511719</ele>
        <time>2023-08-11T15:30:57.000Z</time>
      </trkpt>
      <trkpt lat="45.20434" lon="6.01376">
        <ele>2072.8000488281</ele>
        <time>2023-08-11T15:31:04.000Z</time>
      </trkpt>
      <trkpt lat="45.20434" lon="6.01376">
        <ele>2073</ele>
        <time>2023-08-11T15:31:05.000Z</time>
      </trkpt>
      <trkpt lat="45.20434" lon="6.01371">
        <ele>2073.8000488281</ele>
        <time>2023-08-11T15:31:13.000Z</time>
      </trkpt>
      <trkpt lat="45.20434" lon="6.01369">
        <ele>2074</ele>
        <time>2023-08-11T15:31:15.000Z</time>
      </trkpt>
      <trkpt lat="45.20433" lon="6.01366">
        <ele>2075</ele>
        <time>2023-08-11T15:31:22.000Z</time>
      </trkpt>
      <trkpt lat="45.20433" lon="6.01366">
        <ele>2075.1999511719</ele>
        <time>2023-08-11T15:31:23.000Z</time>
      </trkpt>
      <trkpt lat="45.20434" lon="6.01363">
        <ele>2076.3999023438</ele>
        <time>2023-08-11T15:31:31.000Z</time>
      </trkpt>
      <trkpt lat="45.20434" lon="6.01359">
        <ele>2077.3999023438</ele>
        <time>2023-08-11T15:31:38.000Z</time>
      </trkpt>
      <trkpt lat="45.20434" lon="6.01357">
        <ele>2077.3999023438</ele>
        <time>2023-08-11T15:31:39.000Z</time>
      </trkpt>
      <trkpt lat="45.20432" lon="6.01351">
        <ele>2078.1999511719</ele>
        <time>2023-08-11T15:31:46.000Z</time>
      </trkpt>
      <trkpt lat="45.20432" lon="6.01352">
        <ele>2078.3999023438</ele>
        <time>2023-08-11T15:31:55.000Z</time>
      </trkpt>
      <trkpt lat="45.20433" lon="6.01356">
        <ele>2078.3999023438</ele>
        <time>2023-08-11T15:32:03.000Z</time>
      </trkpt>
      <trkpt lat="45.20431" lon="6.01358">
        <ele>2078.3999023438</ele>
        <time>2023-08-11T15:32:12.000Z</time>
      </trkpt>
      <trkpt lat="45.20431" lon="6.01359">
        <ele>2078.3999023438</ele>
        <time>2023-08-11T15:32:13.000Z</time>
      </trkpt>
      <trkpt lat="45.20429" lon="6.0136">
        <ele>2078.3999023438</ele>
        <time>2023-08-11T15:32:22.000Z</time>
      </trkpt>
      <trkpt lat="45.20431" lon="6.01353">
        <ele>2078.6000976562</ele>
        <time>2023-08-11T15:32:30.000Z</time>
      </trkpt>
      <trkpt lat="45.20432" lon="6.01353">
        <ele>2078.6000976562</ele>
        <time>2023-08-11T15:32:40.000Z</time>
      </trkpt>
      <trkpt lat="45.20431" lon="6.01352">
        <ele>2078.6000976562</ele>
        <time>2023-08-11T15:32:49.000Z</time>
      </trkpt>
      <trkpt lat="45.2043" lon="6.01349">
        <ele>2079.1999511719</ele>
        <time>2023-08-11T15:32:56.000Z</time>
      </trkpt>
      <trkpt lat="45.2043" lon="6.01348">
        <ele>2079.6000976562</ele>
        <time>2023-08-11T15:32:57.000Z</time>
      </trkpt>
      <trkpt lat="45.20428" lon="6.01343">
        <ele>2080.1999511719</ele>
        <time>2023-08-11T15:33:02.000Z</time>
      </trkpt>
      <trkpt lat="45.20429" lon="6.01344">
        <ele>2080.6000976562</ele>
        <time>2023-08-11T15:33:06.000Z</time>
      </trkpt>
      <trkpt lat="45.20428" lon="6.01342">
        <ele>2081.3999023438</ele>
        <time>2023-08-11T15:33:11.000Z</time>
      </trkpt>
      <trkpt lat="45.20428" lon="6.01341">
        <ele>2081.8000488281</ele>
        <time>2023-08-11T15:33:14.000Z</time>
      </trkpt>
      <trkpt lat="45.20429" lon="6.01338">
        <ele>2082.1999511719</ele>
        <time>2023-08-11T15:33:18.000Z</time>
      </trkpt>
      <trkpt lat="45.2043" lon="6.01336">
        <ele>2082.6000976562</ele>
        <time>2023-08-11T15:33:21.000Z</time>
      </trkpt>
      <trkpt lat="45.2043" lon="6.01336">
        <ele>2082.8000488281</ele>
        <time>2023-08-11T15:33:22.000Z</time>
      </trkpt>
      <trkpt lat="45.2043" lon="6.01328">
        <ele>2083.8000488281</ele>
        <time>2023-08-11T15:33:29.000Z</time>
      </trkpt>
      <trkpt lat="45.20431" lon="6.01323">
        <ele>2085</ele>
        <time>2023-08-11T15:33:36.000Z</time>
      </trkpt>
      <trkpt lat="45.20431" lon="6.01324">
        <ele>2085.3999023438</ele>
        <time>2023-08-11T15:33:38.000Z</time>
      </trkpt>
      <trkpt lat="45.2043" lon="6.01323">
        <ele>2086.1999511719</ele>
        <time>2023-08-11T15:33:43.000Z</time>
      </trkpt>
      <trkpt lat="45.20429" lon="6.01321">
        <ele>2086.6000976562</ele>
        <time>2023-08-11T15:33:46.000Z</time>
      </trkpt>
      <trkpt lat="45.20428" lon="6.01319">
        <ele>2087.1999511719</ele>
        <time>2023-08-11T15:33:51.000Z</time>
      </trkpt>
      <trkpt lat="45.20427" lon="6.01318">
        <ele>2087.6000976562</ele>
        <time>2023-08-11T15:33:54.000Z</time>
      </trkpt>
      <trkpt lat="45.20427" lon="6.01313">
        <ele>2088.3999023438</ele>
        <time>2023-08-11T15:34:01.000Z</time>
      </trkpt>
      <trkpt lat="45.20426" lon="6.01312">
        <ele>2088.6000976562</ele>
        <time>2023-08-11T15:34:03.000Z</time>
      </trkpt>
      <trkpt lat="45.20426" lon="6.01305">
        <ele>2089.3999023438</ele>
        <time>2023-08-11T15:34:10.000Z</time>
      </trkpt>
      <trkpt lat="45.20427" lon="6.01304">
        <ele>2089.8000488281</ele>
        <time>2023-08-11T15:34:12.000Z</time>
      </trkpt>
      <trkpt lat="45.20427" lon="6.01301">
        <ele>2090.6000976562</ele>
        <time>2023-08-11T15:34:17.000Z</time>
      </trkpt>
      <trkpt lat="45.20427" lon="6.013">
        <ele>2090.8000488281</ele>
        <time>2023-08-11T15:34:20.000Z</time>
      </trkpt>
      <trkpt lat="45.20423" lon="6.01297">
        <ele>2091</ele>
        <time>2023-08-11T15:34:29.000Z</time>
      </trkpt>
      <trkpt lat="45.20421" lon="6.0129">
        <ele>2091</ele>
        <time>2023-08-11T15:34:37.000Z</time>
      </trkpt>
      <trkpt lat="45.2042" lon="6.01283">
        <ele>2090.6000976562</ele>
        <time>2023-08-11T15:34:45.000Z</time>
      </trkpt>
      <trkpt lat="45.20418" lon="6.01277">
        <ele>2091</ele>
        <time>2023-08-11T15:34:54.000Z</time>
      </trkpt>
      <trkpt lat="45.20414" lon="6.01272">
        <ele>2091.6000976562</ele>
        <time>2023-08-11T15:35:04.000Z</time>
      </trkpt>
      <trkpt lat="45.20411" lon="6.01268">
        <ele>2092.8000488281</ele>
        <time>2023-08-11T15:35:12.000Z</time>
      </trkpt>
      <trkpt lat="45.2041" lon="6.01269">
        <ele>2092.8000488281</ele>
        <time>2023-08-11T15:35:13.000Z</time>
      </trkpt>
      <trkpt lat="45.20409" lon="6.01266">
        <ele>2093</ele>
        <time>2023-08-11T15:35:19.000Z</time>
      </trkpt>
      <trkpt lat="45.20407" lon="6.01264">
        <ele>2093.8000488281</ele>
        <time>2023-08-11T15:35:27.000Z</time>
      </trkpt>
      <trkpt lat="45.20407" lon="6.01265">
        <ele>2094</ele>
        <time>2023-08-11T15:35:29.000Z</time>
      </trkpt>
      <trkpt lat="45.20407" lon="6.01263">
        <ele>2094.6000976562</ele>
        <time>2023-08-11T15:35:36.000Z</time>
      </trkpt>
      <trkpt lat="45.20406" lon="6.01258">
        <ele>2095</ele>
        <time>2023-08-11T15:35:42.000Z</time>
      </trkpt>
      <trkpt lat="45.20404" lon="6.01255">
        <ele>2095.3999023438</ele>
        <time>2023-08-11T15:35:48.000Z</time>
      </trkpt>
      <trkpt lat="45.20401" lon="6.01251">
        <ele>2095.8000488281</ele>
        <time>2023-08-11T15:35:57.000Z</time>
      </trkpt>
      <trkpt lat="45.20401" lon="6.01251">
        <ele>2096</ele>
        <time>2023-08-11T15:35:58.000Z</time>
      </trkpt>
      <trkpt lat="45.20398" lon="6.01249">
        <ele>2096</ele>
        <time>2023-08-11T15:36:05.000Z</time>
      </trkpt>
      <trkpt lat="45.20397" lon="6.01249">
        <ele>2095.8000488281</ele>
        <time>2023-08-11T15:36:13.000Z</time>
      </trkpt>
      <trkpt lat="45.20396" lon="6.01248">
        <ele>2096</ele>
        <time>2023-08-11T15:36:19.000Z</time>
      </trkpt>
      <trkpt lat="45.20395" lon="6.01245">
        <ele>2095.8000488281</ele>
        <time>2023-08-11T15:36:27.000Z</time>
      </trkpt>
      <trkpt lat="45.20393" lon="6.01242">
        <ele>2096</ele>
        <time>2023-08-11T15:36:33.000Z</time>
      </trkpt>
      <trkpt lat="45.20391" lon="6.01239">
        <ele>2096.6000976562</ele>
        <time>2023-08-11T15:36:39.000Z</time>
      </trkpt>
      <trkpt lat="45.20391" lon="6.01236">
        <ele>2097</ele>
        <time>2023-08-11T15:36:43.000Z</time>
      </trkpt>
      <trkpt lat="45.2039" lon="6.01233">
        <ele>2097.6000976562</ele>
        <time>2023-08-11T15:36:47.000Z</time>
      </trkpt>
      <trkpt lat="45.20389" lon="6.01231">
        <ele>2098.1999511719</ele>
        <time>2023-08-11T15:36:50.000Z</time>
      </trkpt>
      <trkpt lat="45.20389" lon="6.0123">
        <ele>2098.8000488281</ele>
        <time>2023-08-11T15:36:54.000Z</time>
      </trkpt>
      <trkpt lat="45.20389" lon="6.0123">
        <ele>2099.1999511719</ele>
        <time>2023-08-11T15:36:58.000Z</time>
      </trkpt>
      <trkpt lat="45.20389" lon="6.01225">
        <ele>2099.8000488281</ele>
        <time>2023-08-11T15:37:04.000Z</time>
      </trkpt>
      <trkpt lat="45.2039" lon="6.01223">
        <ele>2100.1999511719</ele>
        <time>2023-08-11T15:37:09.000Z</time>
      </trkpt>
      <trkpt lat="45.2039" lon="6.01223">
        <ele>2101</ele>
        <time>2023-08-11T15:37:15.000Z</time>
      </trkpt>
      <trkpt lat="45.20387" lon="6.01222">
        <ele>2100.8000488281</ele>
        <time>2023-08-11T15:37:25.000Z</time>
      </trkpt>
      <trkpt lat="45.20389" lon="6.01222">
        <ele>2101.1999511719</ele>
        <time>2023-08-11T15:37:33.000Z</time>
      </trkpt>
      <trkpt lat="45.20389" lon="6.01221">
        <ele>2101.1999511719</ele>
        <time>2023-08-11T15:37:34.000Z</time>
      </trkpt>
      <trkpt lat="45.20389" lon="6.01219">
        <ele>2101.8000488281</ele>
        <time>2023-08-11T15:37:41.000Z</time>
      </trkpt>
      <trkpt lat="45.20388" lon="6.01216">
        <ele>2102.3999023438</ele>
        <time>2023-08-11T15:37:47.000Z</time>
      </trkpt>
      <trkpt lat="45.20388" lon="6.01215">
        <ele>2102.3999023438</ele>
        <time>2023-08-11T15:37:49.000Z</time>
      </trkpt>
      <trkpt lat="45.2039" lon="6.01213">
        <ele>2103.3999023438</ele>
        <time>2023-08-11T15:37:56.000Z</time>
      </trkpt>
      <trkpt lat="45.20392" lon="6.01211">
        <ele>2104.6000976562</ele>
        <time>2023-08-11T15:38:03.000Z</time>
      </trkpt>
      <trkpt lat="45.20393" lon="6.01211">
        <ele>2105.6000976562</ele>
        <time>2023-08-11T15:38:10.000Z</time>
      </trkpt>
      <trkpt lat="45.20392" lon="6.01207">
        <ele>2106.3999023438</ele>
        <time>2023-08-11T15:38:17.000Z</time>
      </trkpt>
      <trkpt lat="45.20392" lon="6.01206">
        <ele>2106.6000976562</ele>
        <time>2023-08-11T15:38:18.000Z</time>
      </trkpt>
      <trkpt lat="45.20392" lon="6.01203">
        <ele>2107.8000488281</ele>
        <time>2023-08-11T15:38:27.000Z</time>
      </trkpt>
      <trkpt lat="45.20395" lon="6.01203">
        <ele>2108.8000488281</ele>
        <time>2023-08-11T15:38:35.000Z</time>
      </trkpt>
      <trkpt lat="45.20396" lon="6.01202">
        <ele>2109</ele>
        <time>2023-08-11T15:38:36.000Z</time>
      </trkpt>
      <trkpt lat="45.20397" lon="6.01202">
        <ele>2109.8000488281</ele>
        <time>2023-08-11T15:38:42.000Z</time>
      </trkpt>
      <trkpt lat="45.20398" lon="6.01202">
        <ele>2110</ele>
        <time>2023-08-11T15:38:43.000Z</time>
      </trkpt>
      <trkpt lat="45.20399" lon="6.01201">
        <ele>2111</ele>
        <time>2023-08-11T15:38:48.000Z</time>
      </trkpt>
      <trkpt lat="45.204" lon="6.01202">
        <ele>2111.8000488281</ele>
        <time>2023-08-11T15:38:53.000Z</time>
      </trkpt>
      <trkpt lat="45.204" lon="6.01201">
        <ele>2112</ele>
        <time>2023-08-11T15:38:55.000Z</time>
      </trkpt>
      <trkpt lat="45.204" lon="6.01198">
        <ele>2112.3999023438</ele>
        <time>2023-08-11T15:39:00.000Z</time>
      </trkpt>
      <trkpt lat="45.20401" lon="6.01198">
        <ele>2113</ele>
        <time>2023-08-11T15:39:05.000Z</time>
      </trkpt>
      <trkpt lat="45.20401" lon="6.01199">
        <ele>2113.3999023438</ele>
        <time>2023-08-11T15:39:08.000Z</time>
      </trkpt>
      <trkpt lat="45.20399" lon="6.01193">
        <ele>2114</ele>
        <time>2023-08-11T15:39:15.000Z</time>
      </trkpt>
      <trkpt lat="45.20398" lon="6.01193">
        <ele>2114.1999511719</ele>
        <time>2023-08-11T15:39:16.000Z</time>
      </trkpt>
      <trkpt lat="45.20398" lon="6.01191">
        <ele>2115</ele>
        <time>2023-08-11T15:39:24.000Z</time>
      </trkpt>
      <trkpt lat="45.20399" lon="6.01191">
        <ele>2115.1999511719</ele>
        <time>2023-08-11T15:39:25.000Z</time>
      </trkpt>
      <trkpt lat="45.20401" lon="6.01187">
        <ele>2115.6000976562</ele>
        <time>2023-08-11T15:39:33.000Z</time>
      </trkpt>
      <trkpt lat="45.20401" lon="6.01187">
        <ele>2116.3999023438</ele>
        <time>2023-08-11T15:39:37.000Z</time>
      </trkpt>
      <trkpt lat="45.20401" lon="6.01184">
        <ele>2117</ele>
        <time>2023-08-11T15:39:41.000Z</time>
      </trkpt>
      <trkpt lat="45.20401" lon="6.01183">
        <ele>2117.3999023438</ele>
        <time>2023-08-11T15:39:43.000Z</time>
      </trkpt>
      <trkpt lat="45.20402" lon="6.01182">
        <ele>2118.3999023438</ele>
        <time>2023-08-11T15:39:49.000Z</time>
      </trkpt>
      <trkpt lat="45.20402" lon="6.01182">
        <ele>2118.6000976562</ele>
        <time>2023-08-11T15:39:50.000Z</time>
      </trkpt>
      <trkpt lat="45.20402" lon="6.01176">
        <ele>2119.8000488281</ele>
        <time>2023-08-11T15:39:58.000Z</time>
      </trkpt>
      <trkpt lat="45.20403" lon="6.01172">
        <ele>2120.8000488281</ele>
        <time>2023-08-11T15:40:06.000Z</time>
      </trkpt>
      <trkpt lat="45.20403" lon="6.01173">
        <ele>2120.8000488281</ele>
        <time>2023-08-11T15:40:07.000Z</time>
      </trkpt>
      <trkpt lat="45.20402" lon="6.01178">
        <ele>2121.3999023438</ele>
        <time>2023-08-11T15:40:13.000Z</time>
      </trkpt>
      <trkpt lat="45.20403" lon="6.0117">
        <ele>2121.6000976562</ele>
        <time>2023-08-11T15:40:19.000Z</time>
      </trkpt>
      <trkpt lat="45.20404" lon="6.0117">
        <ele>2122</ele>
        <time>2023-08-11T15:40:24.000Z</time>
      </trkpt>
      <trkpt lat="45.20405" lon="6.01169">
        <ele>2122.1999511719</ele>
        <time>2023-08-11T15:40:26.000Z</time>
      </trkpt>
      <trkpt lat="45.20404" lon="6.01172">
        <ele>2122.1999511719</ele>
        <time>2023-08-11T15:40:34.000Z</time>
      </trkpt>
      <trkpt lat="45.20401" lon="6.01173">
        <ele>2121.8000488281</ele>
        <time>2023-08-11T15:40:40.000Z</time>
      </trkpt>
      <trkpt lat="45.20395" lon="6.01172">
        <ele>2122</ele>
        <time>2023-08-11T15:40:49.000Z</time>
      </trkpt>
      <trkpt lat="45.20395" lon="6.01168">
        <ele>2122.6000976562</ele>
        <time>2023-08-11T15:40:56.000Z</time>
      </trkpt>
      <trkpt lat="45.20392" lon="6.01172">
        <ele>2122.1999511719</ele>
        <time>2023-08-11T15:41:05.000Z</time>
      </trkpt>
      <trkpt lat="45.20389" lon="6.01172">
        <ele>2121.8000488281</ele>
        <time>2023-08-11T15:41:12.000Z</time>
      </trkpt>
      <trkpt lat="45.20392" lon="6.01167">
        <ele>2122</ele>
        <time>2023-08-11T15:41:20.000Z</time>
      </trkpt>
      <trkpt lat="45.20393" lon="6.01166">
        <ele>2122.6000976562</ele>
        <time>2023-08-11T15:41:28.000Z</time>
      </trkpt>
      <trkpt lat="45.20394" lon="6.01168">
        <ele>2122.8000488281</ele>
        <time>2023-08-11T15:41:35.000Z</time>
      </trkpt>
      <trkpt lat="45.20393" lon="6.01166">
        <ele>2122.8000488281</ele>
        <time>2023-08-11T15:41:43.000Z</time>
      </trkpt>
      <trkpt lat="45.20392" lon="6.01166">
        <ele>2123</ele>
        <time>2023-08-11T15:41:45.000Z</time>
      </trkpt>
      <trkpt lat="45.20391" lon="6.01167">
        <ele>2123</ele>
        <time>2023-08-11T15:41:50.000Z</time>
      </trkpt>
      <trkpt lat="45.20392" lon="6.01167">
        <ele>2123.1999511719</ele>
        <time>2023-08-11T15:41:57.000Z</time>
      </trkpt>
      <trkpt lat="45.20392" lon="6.01164">
        <ele>2123</ele>
        <time>2023-08-11T15:42:04.000Z</time>
      </trkpt>
      <trkpt lat="45.20391" lon="6.01166">
        <ele>2123.1999511719</ele>
        <time>2023-08-11T15:42:12.000Z</time>
      </trkpt>
      <trkpt lat="45.20393" lon="6.01171">
        <ele>2123.1999511719</ele>
        <time>2023-08-11T15:42:21.000Z</time>
      </trkpt>
      <trkpt lat="45.20393" lon="6.01172">
        <ele>2123</ele>
        <time>2023-08-11T15:42:29.000Z</time>
      </trkpt>
      <trkpt lat="45.20393" lon="6.01168">
        <ele>2123.1999511719</ele>
        <time>2023-08-11T15:42:36.000Z</time>
      </trkpt>
      <trkpt lat="45.20392" lon="6.01166">
        <ele>2123.6000976562</ele>
        <time>2023-08-11T15:42:44.000Z</time>
      </trkpt>
      <trkpt lat="45.20394" lon="6.0116">
        <ele>2123.6000976562</ele>
        <time>2023-08-11T15:42:52.000Z</time>
      </trkpt>
      <trkpt lat="45.20395" lon="6.01158">
        <ele>2124</ele>
        <time>2023-08-11T15:42:55.000Z</time>
      </trkpt>
      <trkpt lat="45.20396" lon="6.01159">
        <ele>2124.3999023438</ele>
        <time>2023-08-11T15:43:00.000Z</time>
      </trkpt>
      <trkpt lat="45.20397" lon="6.01157">
        <ele>2124.1999511719</ele>
        <time>2023-08-11T15:43:08.000Z</time>
      </trkpt>
      <trkpt lat="45.20395" lon="6.01157">
        <ele>2125</ele>
        <time>2023-08-11T15:43:17.000Z</time>
      </trkpt>
      <trkpt lat="45.20396" lon="6.01154">
        <ele>2125.1999511719</ele>
        <time>2023-08-11T15:43:24.000Z</time>
      </trkpt>
      <trkpt lat="45.20396" lon="6.0115">
        <ele>2126</ele>
        <time>2023-08-11T15:43:32.000Z</time>
      </trkpt>
      <trkpt lat="45.20395" lon="6.01148">
        <ele>2126.1999511719</ele>
        <time>2023-08-11T15:43:35.000Z</time>
      </trkpt>
      <trkpt lat="45.20396" lon="6.01148">
        <ele>2126.6000976562</ele>
        <time>2023-08-11T15:43:39.000Z</time>
      </trkpt>
      <trkpt lat="45.20393" lon="6.01147">
        <ele>2127</ele>
        <time>2023-08-11T15:43:46.000Z</time>
      </trkpt>
      <trkpt lat="45.20392" lon="6.01146">
        <ele>2127.3999023438</ele>
        <time>2023-08-11T15:43:49.000Z</time>
      </trkpt>
      <trkpt lat="45.20393" lon="6.01146">
        <ele>2127.3999023438</ele>
        <time>2023-08-11T15:43:53.000Z</time>
      </trkpt>
      <trkpt lat="45.20393" lon="6.01141">
        <ele>2128.1999511719</ele>
        <time>2023-08-11T15:44:02.000Z</time>
      </trkpt>
      <trkpt lat="45.20393" lon="6.0114">
        <ele>2128.3999023438</ele>
        <time>2023-08-11T15:44:04.000Z</time>
      </trkpt>
      <trkpt lat="45.20392" lon="6.01137">
        <ele>2129.1999511719</ele>
        <time>2023-08-11T15:44:10.000Z</time>
      </trkpt>
      <trkpt lat="45.20392" lon="6.01135">
        <ele>2129.6000976562</ele>
        <time>2023-08-11T15:44:13.000Z</time>
      </trkpt>
      <trkpt lat="45.20393" lon="6.01137">
        <ele>2130.3999023438</ele>
        <time>2023-08-11T15:44:18.000Z</time>
      </trkpt>
      <trkpt lat="45.20392" lon="6.01135">
        <ele>2130.6000976562</ele>
        <time>2023-08-11T15:44:25.000Z</time>
      </trkpt>
      <trkpt lat="45.20392" lon="6.01135">
        <ele>2130.8000488281</ele>
        <time>2023-08-11T15:44:26.000Z</time>
      </trkpt>
      <trkpt lat="45.20392" lon="6.01131">
        <ele>2131.8000488281</ele>
        <time>2023-08-11T15:44:32.000Z</time>
      </trkpt>
      <trkpt lat="45.20391" lon="6.01131">
        <ele>2132.6000976562</ele>
        <time>2023-08-11T15:44:40.000Z</time>
      </trkpt>
      <trkpt lat="45.20388" lon="6.0113">
        <ele>2132.8000488281</ele>
        <time>2023-08-11T15:44:50.000Z</time>
      </trkpt>
      <trkpt lat="45.20387" lon="6.0113">
        <ele>2132.1999511719</ele>
        <time>2023-08-11T15:44:56.000Z</time>
      </trkpt>
      <trkpt lat="45.20385" lon="6.01132">
        <ele>2131.6000976562</ele>
        <time>2023-08-11T15:45:03.000Z</time>
      </trkpt>
      <trkpt lat="45.2038" lon="6.01136">
        <ele>2131.1999511719</ele>
        <time>2023-08-11T15:45:10.000Z</time>
      </trkpt>
      <trkpt lat="45.20376" lon="6.01132">
        <ele>2131.6000976562</ele>
        <time>2023-08-11T15:45:17.000Z</time>
      </trkpt>
      <trkpt lat="45.20377" lon="6.01134">
        <ele>2131.6000976562</ele>
        <time>2023-08-11T15:45:24.000Z</time>
      </trkpt>
      <trkpt lat="45.2038" lon="6.01135">
        <ele>2131.8000488281</ele>
        <time>2023-08-11T15:45:31.000Z</time>
      </trkpt>
      <trkpt lat="45.20379" lon="6.01134">
        <ele>2131.8000488281</ele>
        <time>2023-08-11T15:45:38.000Z</time>
      </trkpt>
      <trkpt lat="45.20379" lon="6.01136">
        <ele>2131.8000488281</ele>
        <time>2023-08-11T15:45:47.000Z</time>
      </trkpt>
      <trkpt lat="45.20377" lon="6.01135">
        <ele>2132</ele>
        <time>2023-08-11T15:45:54.000Z</time>
      </trkpt>
      <trkpt lat="45.20377" lon="6.01134">
        <ele>2132.1999511719</ele>
        <time>2023-08-11T15:46:00.000Z</time>
      </trkpt>
      <trkpt lat="45.2038" lon="6.01135">
        <ele>2132.6000976562</ele>
        <time>2023-08-11T15:46:08.000Z</time>
      </trkpt>
      <trkpt lat="45.20378" lon="6.01138">
        <ele>2132.1999511719</ele>
        <time>2023-08-11T15:46:15.000Z</time>
      </trkpt>
      <trkpt lat="45.2038" lon="6.01137">
        <ele>2131.8000488281</ele>
        <time>2023-08-11T15:46:24.000Z</time>
      </trkpt>
      <trkpt lat="45.20383" lon="6.01139">
        <ele>2131.6000976562</ele>
        <time>2023-08-11T15:46:32.000Z</time>
      </trkpt>
      <trkpt lat="45.20382" lon="6.01138">
        <ele>2130.8000488281</ele>
        <time>2023-08-11T15:46:35.000Z</time>
      </trkpt>
      <trkpt lat="45.20384" lon="6.01139">
        <ele>2130.6000976562</ele>
        <time>2023-08-11T15:46:40.000Z</time>
      </trkpt>
      <trkpt lat="45.20387" lon="6.01143">
        <ele>2130.3999023438</ele>
        <time>2023-08-11T15:46:48.000Z</time>
      </trkpt>
      <trkpt lat="45.20388" lon="6.0114">
        <ele>2130.8000488281</ele>
        <time>2023-08-11T15:46:55.000Z</time>
      </trkpt>
      <trkpt lat="45.2039" lon="6.01138">
        <ele>2131.1999511719</ele>
        <time>2023-08-11T15:47:02.000Z</time>
      </trkpt>
      <trkpt lat="45.20392" lon="6.01139">
        <ele>2131.1999511719</ele>
        <time>2023-08-11T15:47:09.000Z</time>
      </trkpt>
      <trkpt lat="45.20394" lon="6.01137">
        <ele>2132</ele>
        <time>2023-08-11T15:47:18.000Z</time>
      </trkpt>
      <trkpt lat="45.20394" lon="6.01136">
        <ele>2132</ele>
        <time>2023-08-11T15:47:19.000Z</time>
      </trkpt>
      <trkpt lat="45.20394" lon="6.01134">
        <ele>2132.8000488281</ele>
        <time>2023-08-11T15:47:26.000Z</time>
      </trkpt>
      <trkpt lat="45.20394" lon="6.01134">
        <ele>2133.1999511719</ele>
        <time>2023-08-11T15:47:29.000Z</time>
      </trkpt>
      <trkpt lat="45.20394" lon="6.01131">
        <ele>2134</ele>
        <time>2023-08-11T15:47:38.000Z</time>
      </trkpt>
      <trkpt lat="45.20394" lon="6.0113">
        <ele>2134.1999511719</ele>
        <time>2023-08-11T15:47:40.000Z</time>
      </trkpt>
      <trkpt lat="45.20394" lon="6.01127">
        <ele>2134.8000488281</ele>
        <time>2023-08-11T15:47:45.000Z</time>
      </trkpt>
      <trkpt lat="45.20393" lon="6.01124">
        <ele>2135.1999511719</ele>
        <time>2023-08-11T15:47:47.000Z</time>
      </trkpt>
      <trkpt lat="45.20392" lon="6.0112">
        <ele>2136.3999023438</ele>
        <time>2023-08-11T15:47:53.000Z</time>
      </trkpt>
      <trkpt lat="45.20392" lon="6.01119">
        <ele>2137.3999023438</ele>
        <time>2023-08-11T15:48:00.000Z</time>
      </trkpt>
      <trkpt lat="45.20392" lon="6.01119">
        <ele>2137.6000976562</ele>
        <time>2023-08-11T15:48:03.000Z</time>
      </trkpt>
      <trkpt lat="45.20391" lon="6.01116">
        <ele>2138.3999023438</ele>
        <time>2023-08-11T15:48:10.000Z</time>
      </trkpt>
      <trkpt lat="45.20389" lon="6.01111">
        <ele>2139.6000976562</ele>
        <time>2023-08-11T15:48:18.000Z</time>
      </trkpt>
      <trkpt lat="45.20391" lon="6.0111">
        <ele>2140.3999023438</ele>
        <time>2023-08-11T15:48:27.000Z</time>
      </trkpt>
      <trkpt lat="45.20391" lon="6.01109">
        <ele>2140.6000976562</ele>
        <time>2023-08-11T15:48:29.000Z</time>
      </trkpt>
      <trkpt lat="45.20392" lon="6.01106">
        <ele>2141.1999511719</ele>
        <time>2023-08-11T15:48:35.000Z</time>
      </trkpt>
      <trkpt lat="45.20389" lon="6.01107">
        <ele>2141.6000976562</ele>
        <time>2023-08-11T15:48:39.000Z</time>
      </trkpt>
      <trkpt lat="45.20389" lon="6.01107">
        <ele>2141.8000488281</ele>
        <time>2023-08-11T15:48:40.000Z</time>
      </trkpt>
      <trkpt lat="45.20391" lon="6.01106">
        <ele>2142.6000976562</ele>
        <time>2023-08-11T15:48:48.000Z</time>
      </trkpt>
      <trkpt lat="45.20391" lon="6.01105">
        <ele>2142.8000488281</ele>
        <time>2023-08-11T15:48:50.000Z</time>
      </trkpt>
      <trkpt lat="45.20389" lon="6.01101">
        <ele>2143</ele>
        <time>2023-08-11T15:48:57.000Z</time>
      </trkpt>
      <trkpt lat="45.20388" lon="6.01098">
        <ele>2143.8000488281</ele>
        <time>2023-08-11T15:49:01.000Z</time>
      </trkpt>
      <trkpt lat="45.20387" lon="6.01096">
        <ele>2144.3999023438</ele>
        <time>2023-08-11T15:49:07.000Z</time>
      </trkpt>
      <trkpt lat="45.20385" lon="6.01094">
        <ele>2144.8000488281</ele>
        <time>2023-08-11T15:49:15.000Z</time>
      </trkpt>
      <trkpt lat="45.20385" lon="6.01093">
        <ele>2145</ele>
        <time>2023-08-11T15:49:16.000Z</time>
      </trkpt>
      <trkpt lat="45.20386" lon="6.01093">
        <ele>2145.6000976562</ele>
        <time>2023-08-11T15:49:25.000Z</time>
      </trkpt>
      <trkpt lat="45.20388" lon="6.01093">
        <ele>2145.8000488281</ele>
        <time>2023-08-11T15:49:29.000Z</time>
      </trkpt>
      <trkpt lat="45.20388" lon="6.01092">
        <ele>2146.1999511719</ele>
        <time>2023-08-11T15:49:32.000Z</time>
      </trkpt>
      <trkpt lat="45.20389" lon="6.0109">
        <ele>2147</ele>
        <time>2023-08-11T15:49:39.000Z</time>
      </trkpt>
      <trkpt lat="45.2039" lon="6.01089">
        <ele>2147.6000976562</ele>
        <time>2023-08-11T15:49:42.000Z</time>
      </trkpt>
      <trkpt lat="45.20389" lon="6.01087">
        <ele>2147.8000488281</ele>
        <time>2023-08-11T15:49:49.000Z</time>
      </trkpt>
      <trkpt lat="45.20389" lon="6.01086">
        <ele>2148</ele>
        <time>2023-08-11T15:49:50.000Z</time>
      </trkpt>
      <trkpt lat="45.20389" lon="6.01084">
        <ele>2149.1999511719</ele>
        <time>2023-08-11T15:49:55.000Z</time>
      </trkpt>
      <trkpt lat="45.20389" lon="6.01084">
        <ele>2149.3999023438</ele>
        <time>2023-08-11T15:49:57.000Z</time>
      </trkpt>
      <trkpt lat="45.2039" lon="6.01081">
        <ele>2149.8000488281</ele>
        <time>2023-08-11T15:50:05.000Z</time>
      </trkpt>
      <trkpt lat="45.20389" lon="6.01086">
        <ele>2149.8000488281</ele>
        <time>2023-08-11T15:50:16.000Z</time>
      </trkpt>
      <trkpt lat="45.20388" lon="6.01083">
        <ele>2149.8000488281</ele>
        <time>2023-08-11T15:50:24.000Z</time>
      </trkpt>
      <trkpt lat="45.20388" lon="6.01082">
        <ele>2149.8000488281</ele>
        <time>2023-08-11T15:50:32.000Z</time>
      </trkpt>
      <trkpt lat="45.20387" lon="6.01079">
        <ele>2150.1999511719</ele>
        <time>2023-08-11T15:50:38.000Z</time>
      </trkpt>
      <trkpt lat="45.20386" lon="6.01077">
        <ele>2150.3999023438</ele>
        <time>2023-08-11T15:50:41.000Z</time>
      </trkpt>
      <trkpt lat="45.20385" lon="6.01076">
        <ele>2151.1999511719</ele>
        <time>2023-08-11T15:50:46.000Z</time>
      </trkpt>
      <trkpt lat="45.20385" lon="6.01075">
        <ele>2151.6000976562</ele>
        <time>2023-08-11T15:50:50.000Z</time>
      </trkpt>
      <trkpt lat="45.20386" lon="6.01071">
        <ele>2152.1999511719</ele>
        <time>2023-08-11T15:50:57.000Z</time>
      </trkpt>
      <trkpt lat="45.20387" lon="6.0107">
        <ele>2152.3999023438</ele>
        <time>2023-08-11T15:50:58.000Z</time>
      </trkpt>
      <trkpt lat="45.20387" lon="6.01066">
        <ele>2153.3999023438</ele>
        <time>2023-08-11T15:51:03.000Z</time>
      </trkpt>
      <trkpt lat="45.20387" lon="6.01065">
        <ele>2153.8000488281</ele>
        <time>2023-08-11T15:51:05.000Z</time>
      </trkpt>
      <trkpt lat="45.20387" lon="6.01061">
        <ele>2154.6000976562</ele>
        <time>2023-08-11T15:51:08.000Z</time>
      </trkpt>
      <trkpt lat="45.20386" lon="6.01055">
        <ele>2155.6000976562</ele>
        <time>2023-08-11T15:51:15.000Z</time>
      </trkpt>
      <trkpt lat="45.20386" lon="6.01055">
        <ele>2155.8000488281</ele>
        <time>2023-08-11T15:51:16.000Z</time>
      </trkpt>
      <trkpt lat="45.20386" lon="6.0105">
        <ele>2156.6000976562</ele>
        <time>2023-08-11T15:51:24.000Z</time>
      </trkpt>
      <trkpt lat="45.20386" lon="6.01049">
        <ele>2156.8000488281</ele>
        <time>2023-08-11T15:51:25.000Z</time>
      </trkpt>
      <trkpt lat="45.20387" lon="6.01044">
        <ele>2157.8000488281</ele>
        <time>2023-08-11T15:51:30.000Z</time>
      </trkpt>
      <trkpt lat="45.20387" lon="6.01042">
        <ele>2158.6000976562</ele>
        <time>2023-08-11T15:51:33.000Z</time>
      </trkpt>
      <trkpt lat="45.20387" lon="6.01039">
        <ele>2158.3999023438</ele>
        <time>2023-08-11T15:51:39.000Z</time>
      </trkpt>
      <trkpt lat="45.20385" lon="6.01032">
        <ele>2157.6000976562</ele>
        <time>2023-08-11T15:51:47.000Z</time>
      </trkpt>
      <trkpt lat="45.20384" lon="6.0103">
        <ele>2157.6000976562</ele>
        <time>2023-08-11T15:51:55.000Z</time>
      </trkpt>
      <trkpt lat="45.20387" lon="6.01035">
        <ele>2157.6000976562</ele>
        <time>2023-08-11T15:52:02.000Z</time>
      </trkpt>
      <trkpt lat="45.20388" lon="6.01031">
        <ele>2157.1999511719</ele>
        <time>2023-08-11T15:52:08.000Z</time>
      </trkpt>
      <trkpt lat="45.20386" lon="6.01034">
        <ele>2157.6000976562</ele>
        <time>2023-08-11T15:52:15.000Z</time>
      </trkpt>
      <trkpt lat="45.20385" lon="6.01032">
        <ele>2157.3999023438</ele>
        <time>2023-08-11T15:52:21.000Z</time>
      </trkpt>
      <trkpt lat="45.20384" lon="6.01032">
        <ele>2157.3999023438</ele>
        <time>2023-08-11T15:52:29.000Z</time>
      </trkpt>
      <trkpt lat="45.20384" lon="6.0103">
        <ele>2157.3999023438</ele>
        <time>2023-08-11T15:52:36.000Z</time>
      </trkpt>
      <trkpt lat="45.20385" lon="6.01032">
        <ele>2157.3999023438</ele>
        <time>2023-08-11T15:52:45.000Z</time>
      </trkpt>
      <trkpt lat="45.20384" lon="6.01034">
        <ele>2157</ele>
        <time>2023-08-11T15:52:54.000Z</time>
      </trkpt>
      <trkpt lat="45.20384" lon="6.01033">
        <ele>2157.8000488281</ele>
        <time>2023-08-11T15:53:01.000Z</time>
      </trkpt>
      <trkpt lat="45.20386" lon="6.01033">
        <ele>2158.1999511719</ele>
        <time>2023-08-11T15:53:08.000Z</time>
      </trkpt>
      <trkpt lat="45.20385" lon="6.01033">
        <ele>2157.8000488281</ele>
        <time>2023-08-11T15:53:14.000Z</time>
      </trkpt>
      <trkpt lat="45.20384" lon="6.01032">
        <ele>2157.3999023438</ele>
        <time>2023-08-11T15:53:21.000Z</time>
      </trkpt>
      <trkpt lat="45.20384" lon="6.01031">
        <ele>2157.3999023438</ele>
        <time>2023-08-11T15:53:27.000Z</time>
      </trkpt>
      <trkpt lat="45.20384" lon="6.01037">
        <ele>2157.6000976562</ele>
        <time>2023-08-11T15:53:35.000Z</time>
      </trkpt>
      <trkpt lat="45.20386" lon="6.01034">
        <ele>2157.6000976562</ele>
        <time>2023-08-11T15:53:41.000Z</time>
      </trkpt>
      <trkpt lat="45.20385" lon="6.01032">
        <ele>2157.8000488281</ele>
        <time>2023-08-11T15:53:51.000Z</time>
      </trkpt>
      <trkpt lat="45.20386" lon="6.01032">
        <ele>2157.8000488281</ele>
        <time>2023-08-11T15:53:58.000Z</time>
      </trkpt>
      <trkpt lat="45.20387" lon="6.01031">
        <ele>2157.8000488281</ele>
        <time>2023-08-11T15:54:06.000Z</time>
      </trkpt>
      <trkpt lat="45.20386" lon="6.01029">
        <ele>2157.6000976562</ele>
        <time>2023-08-11T15:54:15.000Z</time>
      </trkpt>
      <trkpt lat="45.20385" lon="6.01031">
        <ele>2157.8000488281</ele>
        <time>2023-08-11T15:54:23.000Z</time>
      </trkpt>
      <trkpt lat="45.20385" lon="6.01034">
        <ele>2157.8000488281</ele>
        <time>2023-08-11T15:54:28.000Z</time>
      </trkpt>
      <trkpt lat="45.20384" lon="6.01034">
        <ele>2157.8000488281</ele>
        <time>2023-08-11T15:54:36.000Z</time>
      </trkpt>
      <trkpt lat="45.20384" lon="6.01034">
        <ele>2157.6000976562</ele>
        <time>2023-08-11T15:54:40.000Z</time>
      </trkpt>
      <trkpt lat="45.20384" lon="6.01034">
        <ele>2157.6000976562</ele>
        <time>2023-08-11T15:54:48.000Z</time>
      </trkpt>
      <trkpt lat="45.20383" lon="6.01033">
        <ele>2157.6000976562</ele>
        <time>2023-08-11T15:54:59.000Z</time>
      </trkpt>
      <trkpt lat="45.20386" lon="6.0103">
        <ele>2157.6000976562</ele>
        <time>2023-08-11T15:55:06.000Z</time>
      </trkpt>
      <trkpt lat="45.20386" lon="6.0103">
        <ele>2157.6000976562</ele>
        <time>2023-08-11T15:55:13.000Z</time>
      </trkpt>
      <trkpt lat="45.20384" lon="6.01031">
        <ele>2156.8000488281</ele>
        <time>2023-08-11T15:55:22.000Z</time>
      </trkpt>
      <trkpt lat="45.20383" lon="6.01037">
        <ele>2157.1999511719</ele>
        <time>2023-08-11T15:55:29.000Z</time>
      </trkpt>
      <trkpt lat="45.20384" lon="6.01035">
        <ele>2157.1999511719</ele>
        <time>2023-08-11T15:55:36.000Z</time>
      </trkpt>
      <trkpt lat="45.20385" lon="6.01032">
        <ele>2157.1999511719</ele>
        <time>2023-08-11T15:55:42.000Z</time>
      </trkpt>
      <trkpt lat="45.20385" lon="6.01032">
        <ele>2157</ele>
        <time>2023-08-11T15:55:48.000Z</time>
      </trkpt>
      <trkpt lat="45.20385" lon="6.01035">
        <ele>2157.1999511719</ele>
        <time>2023-08-11T15:55:56.000Z</time>
      </trkpt>
      <trkpt lat="45.20386" lon="6.01036">
        <ele>2157.1999511719</ele>
        <time>2023-08-11T15:56:02.000Z</time>
      </trkpt>
      <trkpt lat="45.20385" lon="6.01034">
        <ele>2157.3999023438</ele>
        <time>2023-08-11T15:56:10.000Z</time>
      </trkpt>
      <trkpt lat="45.20383" lon="6.01036">
        <ele>2156.8000488281</ele>
        <time>2023-08-11T15:56:18.000Z</time>
      </trkpt>
      <trkpt lat="45.20382" lon="6.01037">
        <ele>2156.6000976562</ele>
        <time>2023-08-11T15:56:27.000Z</time>
      </trkpt>
      <trkpt lat="45.20384" lon="6.01035">
        <ele>2156.8000488281</ele>
        <time>2023-08-11T15:56:36.000Z</time>
      </trkpt>
      <trkpt lat="45.20386" lon="6.01038">
        <ele>2157.1999511719</ele>
        <time>2023-08-11T15:56:40.000Z</time>
      </trkpt>
      <trkpt lat="45.20385" lon="6.01037">
        <ele>2156.6000976562</ele>
        <time>2023-08-11T15:56:49.000Z</time>
      </trkpt>
      <trkpt lat="45.20385" lon="6.0103">
        <ele>2157</ele>
        <time>2023-08-11T15:56:56.000Z</time>
      </trkpt>
      <trkpt lat="45.20385" lon="6.01034">
        <ele>2157.3999023438</ele>
        <time>2023-08-11T15:57:01.000Z</time>
      </trkpt>
      <trkpt lat="45.20386" lon="6.01035">
        <ele>2157.3999023438</ele>
        <time>2023-08-11T15:57:09.000Z</time>
      </trkpt>
      <trkpt lat="45.20384" lon="6.01033">
        <ele>2157.3999023438</ele>
        <time>2023-08-11T15:57:17.000Z</time>
      </trkpt>
      <trkpt lat="45.20387" lon="6.01035">
        <ele>2157.6000976562</ele>
        <time>2023-08-11T15:57:25.000Z</time>
      </trkpt>
      <trkpt lat="45.20387" lon="6.01036">
        <ele>2157.3999023438</ele>
        <time>2023-08-11T15:57:33.000Z</time>
      </trkpt>
      <trkpt lat="45.20386" lon="6.01035">
        <ele>2157.3999023438</ele>
        <time>2023-08-11T15:57:43.000Z</time>
      </trkpt>
      <trkpt lat="45.20386" lon="6.01035">
        <ele>2157.3999023438</ele>
        <time>2023-08-11T15:57:51.000Z</time>
      </trkpt>
      <trkpt lat="45.20387" lon="6.01033">
        <ele>2157.1999511719</ele>
        <time>2023-08-11T15:58:01.000Z</time>
      </trkpt>
      <trkpt lat="45.20388" lon="6.01032">
        <ele>2156.6000976562</ele>
        <time>2023-08-11T15:58:10.000Z</time>
      </trkpt>
      <trkpt lat="45.20389" lon="6.01032">
        <ele>2156.6000976562</ele>
        <time>2023-08-11T15:58:17.000Z</time>
      </trkpt>
      <trkpt lat="45.20389" lon="6.01032">
        <ele>2156.6000976562</ele>
        <time>2023-08-11T15:58:27.000Z</time>
      </trkpt>
      <trkpt lat="45.20389" lon="6.01034">
        <ele>2157.6000976562</ele>
        <time>2023-08-11T15:58:34.000Z</time>
      </trkpt>
      <trkpt lat="45.20386" lon="6.01032">
        <ele>2157.3999023438</ele>
        <time>2023-08-11T15:58:43.000Z</time>
      </trkpt>
      <trkpt lat="45.20384" lon="6.01034">
        <ele>2157.3999023438</ele>
        <time>2023-08-11T15:58:49.000Z</time>
      </trkpt>
      <trkpt lat="45.20385" lon="6.01032">
        <ele>2157</ele>
        <time>2023-08-11T15:58:57.000Z</time>
      </trkpt>
      <trkpt lat="45.20386" lon="6.01033">
        <ele>2157.1999511719</ele>
        <time>2023-08-11T15:59:03.000Z</time>
      </trkpt>
      <trkpt lat="45.20386" lon="6.01036">
        <ele>2157.3999023438</ele>
        <time>2023-08-11T15:59:09.000Z</time>
      </trkpt>
      <trkpt lat="45.20386" lon="6.01036">
        <ele>2157.1999511719</ele>
        <time>2023-08-11T15:59:14.000Z</time>
      </trkpt>
      <trkpt lat="45.20385" lon="6.01036">
        <ele>2157</ele>
        <time>2023-08-11T15:59:22.000Z</time>
      </trkpt>
      <trkpt lat="45.20386" lon="6.01034">
        <ele>2156.6000976562</ele>
        <time>2023-08-11T15:59:30.000Z</time>
      </trkpt>
      <trkpt lat="45.20389" lon="6.01032">
        <ele>2156.3999023438</ele>
        <time>2023-08-11T15:59:39.000Z</time>
      </trkpt>
      <trkpt lat="45.20388" lon="6.01034">
        <ele>2156.6000976562</ele>
        <time>2023-08-11T15:59:47.000Z</time>
      </trkpt>
      <trkpt lat="45.20386" lon="6.01035">
        <ele>2157.3999023438</ele>
        <time>2023-08-11T15:59:56.000Z</time>
      </trkpt>
      <trkpt lat="45.20385" lon="6.01035">
        <ele>2156.8000488281</ele>
        <time>2023-08-11T16:00:04.000Z</time>
      </trkpt>
      <trkpt lat="45.20384" lon="6.01036">
        <ele>2157.3999023438</ele>
        <time>2023-08-11T16:00:11.000Z</time>
      </trkpt>
      <trkpt lat="45.20385" lon="6.01038">
        <ele>2157.3999023438</ele>
        <time>2023-08-11T16:00:17.000Z</time>
      </trkpt>
      <trkpt lat="45.20385" lon="6.01036">
        <ele>2157</ele>
        <time>2023-08-11T16:00:26.000Z</time>
      </trkpt>
      <trkpt lat="45.20385" lon="6.01036">
        <ele>2157.1999511719</ele>
        <time>2023-08-11T16:00:34.000Z</time>
      </trkpt>
      <trkpt lat="45.20385" lon="6.01037">
        <ele>2157.6000976562</ele>
        <time>2023-08-11T16:00:42.000Z</time>
      </trkpt>
      <trkpt lat="45.20382" lon="6.01033">
        <ele>2157</ele>
        <time>2023-08-11T16:00:51.000Z</time>
      </trkpt>
      <trkpt lat="45.20382" lon="6.01033">
        <ele>2157.3999023438</ele>
        <time>2023-08-11T16:00:57.000Z</time>
      </trkpt>
      <trkpt lat="45.20377" lon="6.01035">
        <ele>2156.8000488281</ele>
        <time>2023-08-11T16:01:11.000Z</time>
      </trkpt>
      <trkpt lat="45.20381" lon="6.01036">
        <ele>2157.1999511719</ele>
        <time>2023-08-11T16:01:19.000Z</time>
      </trkpt>
      <trkpt lat="45.20382" lon="6.01035">
        <ele>2156.8000488281</ele>
        <time>2023-08-11T16:01:27.000Z</time>
      </trkpt>
      <trkpt lat="45.20383" lon="6.01034">
        <ele>2156.8000488281</ele>
        <time>2023-08-11T16:01:37.000Z</time>
      </trkpt>
      <trkpt lat="45.20384" lon="6.01032">
        <ele>2156.8000488281</ele>
        <time>2023-08-11T16:01:46.000Z</time>
      </trkpt>
      <trkpt lat="45.20382" lon="6.01036">
        <ele>2156.8000488281</ele>
        <time>2023-08-11T16:01:54.000Z</time>
      </trkpt>
      <trkpt lat="45.20382" lon="6.01033">
        <ele>2157.1999511719</ele>
        <time>2023-08-11T16:02:02.000Z</time>
      </trkpt>
      <trkpt lat="45.20384" lon="6.0103">
        <ele>2157.3999023438</ele>
        <time>2023-08-11T16:02:09.000Z</time>
      </trkpt>
      <trkpt lat="45.20389" lon="6.0103">
        <ele>2157.3999023438</ele>
        <time>2023-08-11T16:02:18.000Z</time>
      </trkpt>
      <trkpt lat="45.20389" lon="6.01033">
        <ele>2157.1999511719</ele>
        <time>2023-08-11T16:02:25.000Z</time>
      </trkpt>
      <trkpt lat="45.20387" lon="6.01033">
        <ele>2156.6000976562</ele>
        <time>2023-08-11T16:02:33.000Z</time>
      </trkpt>
      <trkpt lat="45.20387" lon="6.01033">
        <ele>2156.3999023438</ele>
        <time>2023-08-11T16:02:43.000Z</time>
      </trkpt>
      <trkpt lat="45.20388" lon="6.01031">
        <ele>2156.1999511719</ele>
        <time>2023-08-11T16:02:55.000Z</time>
      </trkpt>
      <trkpt lat="45.20389" lon="6.01031">
        <ele>2156.8000488281</ele>
        <time>2023-08-11T16:03:03.000Z</time>
      </trkpt>
      <trkpt lat="45.20388" lon="6.01031">
        <ele>2157</ele>
        <time>2023-08-11T16:03:13.000Z</time>
      </trkpt>
      <trkpt lat="45.20389" lon="6.01032">
        <ele>2156.6000976562</ele>
        <time>2023-08-11T16:03:21.000Z</time>
      </trkpt>
      <trkpt lat="45.20388" lon="6.01033">
        <ele>2156.8000488281</ele>
        <time>2023-08-11T16:03:30.000Z</time>
      </trkpt>
      <trkpt lat="45.20388" lon="6.01033">
        <ele>2157.3999023438</ele>
        <time>2023-08-11T16:03:37.000Z</time>
      </trkpt>
      <trkpt lat="45.20387" lon="6.01033">
        <ele>2157.3999023438</ele>
        <time>2023-08-11T16:03:43.000Z</time>
      </trkpt>
      <trkpt lat="45.20388" lon="6.01035">
        <ele>2156.8000488281</ele>
        <time>2023-08-11T16:03:52.000Z</time>
      </trkpt>
      <trkpt lat="45.20387" lon="6.01033">
        <ele>2157.3999023438</ele>
        <time>2023-08-11T16:03:58.000Z</time>
      </trkpt>
      <trkpt lat="45.20386" lon="6.0103">
        <ele>2157.3999023438</ele>
        <time>2023-08-11T16:04:05.000Z</time>
      </trkpt>
      <trkpt lat="45.20387" lon="6.0103">
        <ele>2157</ele>
        <time>2023-08-11T16:04:15.000Z</time>
      </trkpt>
      <trkpt lat="45.20387" lon="6.01034">
        <ele>2157.6000976562</ele>
        <time>2023-08-11T16:04:22.000Z</time>
      </trkpt>
      <trkpt lat="45.20387" lon="6.01034">
        <ele>2157.3999023438</ele>
        <time>2023-08-11T16:04:29.000Z</time>
      </trkpt>
      <trkpt lat="45.20388" lon="6.01031">
        <ele>2157.3999023438</ele>
        <time>2023-08-11T16:04:36.000Z</time>
      </trkpt>
      <trkpt lat="45.20387" lon="6.0103">
        <ele>2157.3999023438</ele>
        <time>2023-08-11T16:04:42.000Z</time>
      </trkpt>
      <trkpt lat="45.20387" lon="6.01032">
        <ele>2157.1999511719</ele>
        <time>2023-08-11T16:04:49.000Z</time>
      </trkpt>
      <trkpt lat="45.20387" lon="6.01031">
        <ele>2157.1999511719</ele>
        <time>2023-08-11T16:04:55.000Z</time>
      </trkpt>
      <trkpt lat="45.20385" lon="6.01031">
        <ele>2157.1999511719</ele>
        <time>2023-08-11T16:05:04.000Z</time>
      </trkpt>
      <trkpt lat="45.20385" lon="6.01033">
        <ele>2157.1999511719</ele>
        <time>2023-08-11T16:05:12.000Z</time>
      </trkpt>
      <trkpt lat="45.20384" lon="6.01032">
        <ele>2157</ele>
        <time>2023-08-11T16:05:20.000Z</time>
      </trkpt>
      <trkpt lat="45.20382" lon="6.01032">
        <ele>2156.8000488281</ele>
        <time>2023-08-11T16:05:28.000Z</time>
      </trkpt>
      <trkpt lat="45.20384" lon="6.01029">
        <ele>2156.8000488281</ele>
        <time>2023-08-11T16:05:38.000Z</time>
      </trkpt>
      <trkpt lat="45.20384" lon="6.01027">
        <ele>2157</ele>
        <time>2023-08-11T16:05:46.000Z</time>
      </trkpt>
      <trkpt lat="45.20386" lon="6.01029">
        <ele>2157.1999511719</ele>
        <time>2023-08-11T16:05:53.000Z</time>
      </trkpt>
      <trkpt lat="45.20387" lon="6.01031">
        <ele>2157.1999511719</ele>
        <time>2023-08-11T16:05:59.000Z</time>
      </trkpt>
      <trkpt lat="45.20386" lon="6.01027">
        <ele>2157.1999511719</ele>
        <time>2023-08-11T16:06:06.000Z</time>
      </trkpt>
      <trkpt lat="45.20385" lon="6.01027">
        <ele>2157.3999023438</ele>
        <time>2023-08-11T16:06:13.000Z</time>
      </trkpt>
      <trkpt lat="45.20385" lon="6.01029">
        <ele>2157.1999511719</ele>
        <time>2023-08-11T16:06:21.000Z</time>
      </trkpt>
      <trkpt lat="45.20382" lon="6.0103">
        <ele>2157.1999511719</ele>
        <time>2023-08-11T16:06:29.000Z</time>
      </trkpt>
      <trkpt lat="45.20384" lon="6.01028">
        <ele>2157.1999511719</ele>
        <time>2023-08-11T16:06:31.000Z</time>
      </trkpt>
    </trkseg>
  </trk>
</gpx>